<?xml version="1.0" encoding="UTF-8" standalone="no" ?>
<gpx xmlns="http://www.topografix.com/GPX/1/1" xmlns:xsi="http://www.w3.org/2001/XMLSchema-instance" xsi:schemaLocation="http://www.topografix.com/GPX/1/1 http://www.topografix.com/GPX/1/1/gpx.xsd" version="1.1" creator="VisuGPX - https://www.visugpx.com">
  <metadata>
    <name>De Villeurbanne à Limonest</name>
  </metadata>
  <trk>
    <name><![CDATA[Vélo de route 24.04.2021 12:03]]></name>
    <extensions>
      <line xmlns="http://www.topografix.com/GPX/gpx_style/0/2">
        <color>0000FF</color>
        <width>4</width>
      </line>
    </extensions>
    <trkseg>
      <trkpt lat="45.75506" lon="4.88977">
        <ele>229.223297</ele>
        <time>2021-04-24T06:11:56.494Z</time>
      </trkpt>
      <trkpt lat="45.75498" lon="4.88982">
        <ele>229.223297</ele>
        <time>2021-04-24T06:12:14.506Z</time>
      </trkpt>
      <trkpt lat="45.75488" lon="4.88984">
        <ele>229.223297</ele>
        <time>2021-04-24T06:12:19.491Z</time>
      </trkpt>
      <trkpt lat="45.75489" lon="4.88997">
        <ele>229.223297</ele>
        <time>2021-04-24T06:12:26.515Z</time>
      </trkpt>
      <trkpt lat="45.75492" lon="4.89011">
        <ele>229.223297</ele>
        <time>2021-04-24T06:12:29.500Z</time>
      </trkpt>
      <trkpt lat="45.75499" lon="4.89019">
        <ele>229.223297</ele>
        <time>2021-04-24T06:12:32.547Z</time>
      </trkpt>
      <trkpt lat="45.75509" lon="4.89018">
        <ele>229.223297</ele>
        <time>2021-04-24T06:12:34.488Z</time>
      </trkpt>
      <trkpt lat="45.75518" lon="4.89016">
        <ele>229.223297</ele>
        <time>2021-04-24T06:12:36.500Z</time>
      </trkpt>
      <trkpt lat="45.75529" lon="4.89014">
        <ele>229.223297</ele>
        <time>2021-04-24T06:12:38.510Z</time>
      </trkpt>
      <trkpt lat="45.75538" lon="4.89013">
        <ele>229.223297</ele>
        <time>2021-04-24T06:12:40.507Z</time>
      </trkpt>
      <trkpt lat="45.75549" lon="4.89011">
        <ele>229.489275</ele>
        <time>2021-04-24T06:12:43.493Z</time>
      </trkpt>
      <trkpt lat="45.75555" lon="4.88999">
        <ele>229.824739</ele>
        <time>2021-04-24T06:12:46.496Z</time>
      </trkpt>
      <trkpt lat="45.75553" lon="4.8898">
        <ele>230.260289</ele>
        <time>2021-04-24T06:12:49.486Z</time>
      </trkpt>
      <trkpt lat="45.75552" lon="4.88967">
        <ele>230.551534</ele>
        <time>2021-04-24T06:12:51.482Z</time>
      </trkpt>
      <trkpt lat="45.7555" lon="4.88952">
        <ele>230.896965</ele>
        <time>2021-04-24T06:12:53.493Z</time>
      </trkpt>
      <trkpt lat="45.75548" lon="4.88937">
        <ele>231.24111</ele>
        <time>2021-04-24T06:12:55.491Z</time>
      </trkpt>
      <trkpt lat="45.75545" lon="4.8892">
        <ele>231.629813</ele>
        <time>2021-04-24T06:12:57.497Z</time>
      </trkpt>
      <trkpt lat="45.75543" lon="4.88902">
        <ele>232.030284</ele>
        <time>2021-04-24T06:12:59.504Z</time>
      </trkpt>
      <trkpt lat="45.7554" lon="4.88886">
        <ele>232.388757</ele>
        <time>2021-04-24T06:13:01.498Z</time>
      </trkpt>
      <trkpt lat="45.75538" lon="4.8887">
        <ele>232.754148</ele>
        <time>2021-04-24T06:13:03.496Z</time>
      </trkpt>
      <trkpt lat="45.75536" lon="4.88852">
        <ele>233.163949</ele>
        <time>2021-04-24T06:13:05.517Z</time>
      </trkpt>
      <trkpt lat="45.75534" lon="4.88835">
        <ele>233.537061</ele>
        <time>2021-04-24T06:13:07.508Z</time>
      </trkpt>
      <trkpt lat="45.75532" lon="4.88817">
        <ele>233.952917</ele>
        <time>2021-04-24T06:13:09.503Z</time>
      </trkpt>
      <trkpt lat="45.75531" lon="4.88798">
        <ele>234.365148</ele>
        <time>2021-04-24T06:13:11.516Z</time>
      </trkpt>
      <trkpt lat="45.75529" lon="4.88781">
        <ele>234.758501</ele>
        <time>2021-04-24T06:13:13.493Z</time>
      </trkpt>
      <trkpt lat="45.75525" lon="4.88762">
        <ele>235.120648</ele>
        <time>2021-04-24T06:13:15.514Z</time>
      </trkpt>
      <trkpt lat="45.75523" lon="4.88746">
        <ele>235.393611</ele>
        <time>2021-04-24T06:13:17.492Z</time>
      </trkpt>
      <trkpt lat="45.75519" lon="4.88725">
        <ele>235.750808</ele>
        <time>2021-04-24T06:13:20.485Z</time>
      </trkpt>
      <trkpt lat="45.75514" lon="4.88704">
        <ele>236.113622</ele>
        <time>2021-04-24T06:13:22.489Z</time>
      </trkpt>
      <trkpt lat="45.7551" lon="4.88685">
        <ele>236.436125</ele>
        <time>2021-04-24T06:13:24.476Z</time>
      </trkpt>
      <trkpt lat="45.75504" lon="4.88667">
        <ele>236.766174</ele>
        <time>2021-04-24T06:13:26.482Z</time>
      </trkpt>
      <trkpt lat="45.75501" lon="4.8865">
        <ele>237.058374</ele>
        <time>2021-04-24T06:13:28.494Z</time>
      </trkpt>
      <trkpt lat="45.75495" lon="4.88634">
        <ele>237.362921</ele>
        <time>2021-04-24T06:13:30.489Z</time>
      </trkpt>
      <trkpt lat="45.75488" lon="4.88618">
        <ele>237.676839</ele>
        <time>2021-04-24T06:13:32.490Z</time>
      </trkpt>
      <trkpt lat="45.75483" lon="4.88602">
        <ele>237.95427</ele>
        <time>2021-04-24T06:13:34.486Z</time>
      </trkpt>
      <trkpt lat="45.75477" lon="4.88589">
        <ele>238.205534</ele>
        <time>2021-04-24T06:13:36.507Z</time>
      </trkpt>
      <trkpt lat="45.75477" lon="4.88576">
        <ele>238.427528</ele>
        <time>2021-04-24T06:13:39.491Z</time>
      </trkpt>
      <trkpt lat="45.75484" lon="4.88567">
        <ele>238.649691</ele>
        <time>2021-04-24T06:13:41.492Z</time>
      </trkpt>
      <trkpt lat="45.75494" lon="4.88562">
        <ele>238.892401</ele>
        <time>2021-04-24T06:13:43.492Z</time>
      </trkpt>
      <trkpt lat="45.75505" lon="4.8856">
        <ele>239.154507</ele>
        <time>2021-04-24T06:13:45.506Z</time>
      </trkpt>
      <trkpt lat="45.75518" lon="4.8856">
        <ele>239.277614</ele>
        <time>2021-04-24T06:13:47.497Z</time>
      </trkpt>
      <trkpt lat="45.75533" lon="4.88556">
        <ele>239.395373</ele>
        <time>2021-04-24T06:13:49.519Z</time>
      </trkpt>
      <trkpt lat="45.75548" lon="4.88552">
        <ele>239.524166</ele>
        <time>2021-04-24T06:13:51.503Z</time>
      </trkpt>
      <trkpt lat="45.75563" lon="4.88551">
        <ele>239.639613</ele>
        <time>2021-04-24T06:13:54.526Z</time>
      </trkpt>
      <trkpt lat="45.75576" lon="4.8855">
        <ele>239.748788</ele>
        <time>2021-04-24T06:13:56.484Z</time>
      </trkpt>
      <trkpt lat="45.75591" lon="4.88547">
        <ele>239.864084</ele>
        <time>2021-04-24T06:13:58.501Z</time>
      </trkpt>
      <trkpt lat="45.75605" lon="4.88546">
        <ele>239.978163</ele>
        <time>2021-04-24T06:14:00.499Z</time>
      </trkpt>
      <trkpt lat="45.7562" lon="4.88547">
        <ele>240.099476</ele>
        <time>2021-04-24T06:14:02.500Z</time>
      </trkpt>
      <trkpt lat="45.75634" lon="4.88542">
        <ele>240.215892</ele>
        <time>2021-04-24T06:14:04.488Z</time>
      </trkpt>
      <trkpt lat="45.75643" lon="4.8854">
        <ele>240.289518</ele>
        <time>2021-04-24T06:14:05.483Z</time>
      </trkpt>
      <trkpt lat="45.75659" lon="4.88538">
        <ele>240.419993</ele>
        <time>2021-04-24T06:14:07.485Z</time>
      </trkpt>
      <trkpt lat="45.75675" lon="4.88537">
        <ele>240.542774</ele>
        <time>2021-04-24T06:14:09.484Z</time>
      </trkpt>
      <trkpt lat="45.75689" lon="4.88536">
        <ele>240.509101</ele>
        <time>2021-04-24T06:14:11.488Z</time>
      </trkpt>
      <trkpt lat="45.75705" lon="4.88532">
        <ele>240.12263</ele>
        <time>2021-04-24T06:14:13.494Z</time>
      </trkpt>
      <trkpt lat="45.75719" lon="4.88532">
        <ele>239.775036</ele>
        <time>2021-04-24T06:14:15.487Z</time>
      </trkpt>
      <trkpt lat="45.75733" lon="4.88528">
        <ele>239.434527</ele>
        <time>2021-04-24T06:14:17.492Z</time>
      </trkpt>
      <trkpt lat="45.75747" lon="4.88527">
        <ele>239.081811</ele>
        <time>2021-04-24T06:14:19.499Z</time>
      </trkpt>
      <trkpt lat="45.7576" lon="4.88526">
        <ele>238.765779</ele>
        <time>2021-04-24T06:14:21.496Z</time>
      </trkpt>
      <trkpt lat="45.75774" lon="4.88525">
        <ele>238.427392</ele>
        <time>2021-04-24T06:14:23.499Z</time>
      </trkpt>
      <trkpt lat="45.75784" lon="4.88523">
        <ele>238.188209</ele>
        <time>2021-04-24T06:14:25.495Z</time>
      </trkpt>
      <trkpt lat="45.75793" lon="4.8852">
        <ele>237.938222</ele>
        <time>2021-04-24T06:14:28.499Z</time>
      </trkpt>
      <trkpt lat="45.75802" lon="4.88515">
        <ele>237.708803</ele>
        <time>2021-04-24T06:14:31.553Z</time>
      </trkpt>
      <trkpt lat="45.75808" lon="4.88499">
        <ele>237.395071</ele>
        <time>2021-04-24T06:14:34.479Z</time>
      </trkpt>
      <trkpt lat="45.75808" lon="4.88483">
        <ele>237.119443</ele>
        <time>2021-04-24T06:14:36.480Z</time>
      </trkpt>
      <trkpt lat="45.75804" lon="4.88466">
        <ele>236.819332</ele>
        <time>2021-04-24T06:14:38.490Z</time>
      </trkpt>
      <trkpt lat="45.75801" lon="4.88448">
        <ele>236.498216</ele>
        <time>2021-04-24T06:14:40.502Z</time>
      </trkpt>
      <trkpt lat="45.75796" lon="4.88431">
        <ele>236.198243</ele>
        <time>2021-04-24T06:14:42.493Z</time>
      </trkpt>
      <trkpt lat="45.75793" lon="4.88413">
        <ele>235.984864</ele>
        <time>2021-04-24T06:14:44.490Z</time>
      </trkpt>
      <trkpt lat="45.75791" lon="4.88395">
        <ele>235.769898</ele>
        <time>2021-04-24T06:14:46.493Z</time>
      </trkpt>
      <trkpt lat="45.75789" lon="4.88377">
        <ele>235.544126</ele>
        <time>2021-04-24T06:14:48.505Z</time>
      </trkpt>
      <trkpt lat="45.75786" lon="4.88356">
        <ele>235.292382</ele>
        <time>2021-04-24T06:14:50.503Z</time>
      </trkpt>
      <trkpt lat="45.75782" lon="4.88338">
        <ele>235.068242</ele>
        <time>2021-04-24T06:14:52.559Z</time>
      </trkpt>
      <trkpt lat="45.75777" lon="4.88323">
        <ele>234.871111</ele>
        <time>2021-04-24T06:14:54.487Z</time>
      </trkpt>
      <trkpt lat="45.75771" lon="4.88308">
        <ele>234.67222</ele>
        <time>2021-04-24T06:14:56.504Z</time>
      </trkpt>
      <trkpt lat="45.75766" lon="4.88292">
        <ele>234.466782</ele>
        <time>2021-04-24T06:14:58.516Z</time>
      </trkpt>
      <trkpt lat="45.75761" lon="4.88274">
        <ele>234.233762</ele>
        <time>2021-04-24T06:15:00.500Z</time>
      </trkpt>
      <trkpt lat="45.75757" lon="4.88256">
        <ele>234.003656</ele>
        <time>2021-04-24T06:15:02.493Z</time>
      </trkpt>
      <trkpt lat="45.75751" lon="4.88238">
        <ele>233.774823</ele>
        <time>2021-04-24T06:15:04.497Z</time>
      </trkpt>
      <trkpt lat="45.75746" lon="4.88219">
        <ele>233.531066</ele>
        <time>2021-04-24T06:15:06.493Z</time>
      </trkpt>
      <trkpt lat="45.75741" lon="4.88201">
        <ele>233.294251</ele>
        <time>2021-04-24T06:15:08.500Z</time>
      </trkpt>
      <trkpt lat="45.75736" lon="4.88182">
        <ele>233.186522</ele>
        <time>2021-04-24T06:15:10.500Z</time>
      </trkpt>
      <trkpt lat="45.75731" lon="4.88162">
        <ele>233.236043</ele>
        <time>2021-04-24T06:15:12.501Z</time>
      </trkpt>
      <trkpt lat="45.75726" lon="4.88144">
        <ele>233.282179</ele>
        <time>2021-04-24T06:15:14.503Z</time>
      </trkpt>
      <trkpt lat="45.75719" lon="4.88124">
        <ele>233.33691</ele>
        <time>2021-04-24T06:15:16.490Z</time>
      </trkpt>
      <trkpt lat="45.75713" lon="4.88106">
        <ele>233.385486</ele>
        <time>2021-04-24T06:15:18.498Z</time>
      </trkpt>
      <trkpt lat="45.75706" lon="4.88086">
        <ele>233.437986</ele>
        <time>2021-04-24T06:15:20.488Z</time>
      </trkpt>
      <trkpt lat="45.75701" lon="4.88067">
        <ele>233.487031</ele>
        <time>2021-04-24T06:15:22.498Z</time>
      </trkpt>
      <trkpt lat="45.75694" lon="4.88049">
        <ele>233.536379</ele>
        <time>2021-04-24T06:15:24.508Z</time>
      </trkpt>
      <trkpt lat="45.75691" lon="4.88032">
        <ele>233.579267</ele>
        <time>2021-04-24T06:15:26.499Z</time>
      </trkpt>
      <trkpt lat="45.75688" lon="4.88015">
        <ele>233.62176</ele>
        <time>2021-04-24T06:15:28.508Z</time>
      </trkpt>
      <trkpt lat="45.75683" lon="4.87996">
        <ele>233.670939</ele>
        <time>2021-04-24T06:15:30.503Z</time>
      </trkpt>
      <trkpt lat="45.75676" lon="4.87977">
        <ele>233.721985</ele>
        <time>2021-04-24T06:15:32.493Z</time>
      </trkpt>
      <trkpt lat="45.75673" lon="4.87956">
        <ele>233.773395</ele>
        <time>2021-04-24T06:15:34.499Z</time>
      </trkpt>
      <trkpt lat="45.75668" lon="4.87937">
        <ele>233.669614</ele>
        <time>2021-04-24T06:15:36.495Z</time>
      </trkpt>
      <trkpt lat="45.75662" lon="4.87919">
        <ele>233.515077</ele>
        <time>2021-04-24T06:15:38.486Z</time>
      </trkpt>
      <trkpt lat="45.75657" lon="4.87898">
        <ele>233.3504</ele>
        <time>2021-04-24T06:15:40.486Z</time>
      </trkpt>
      <trkpt lat="45.7565" lon="4.87879">
        <ele>233.19246</ele>
        <time>2021-04-24T06:15:42.495Z</time>
      </trkpt>
      <trkpt lat="45.75645" lon="4.8786">
        <ele>233.036397</ele>
        <time>2021-04-24T06:15:44.489Z</time>
      </trkpt>
      <trkpt lat="45.7564" lon="4.87839">
        <ele>232.869828</ele>
        <time>2021-04-24T06:15:46.483Z</time>
      </trkpt>
      <trkpt lat="45.75633" lon="4.87821">
        <ele>232.715496</ele>
        <time>2021-04-24T06:15:48.482Z</time>
      </trkpt>
      <trkpt lat="45.75628" lon="4.87802">
        <ele>232.561115</ele>
        <time>2021-04-24T06:15:50.483Z</time>
      </trkpt>
      <trkpt lat="45.75624" lon="4.87783">
        <ele>232.410031</ele>
        <time>2021-04-24T06:15:52.487Z</time>
      </trkpt>
      <trkpt lat="45.75617" lon="4.87766">
        <ele>232.265511</ele>
        <time>2021-04-24T06:15:54.505Z</time>
      </trkpt>
      <trkpt lat="45.75611" lon="4.8775">
        <ele>232.122701</ele>
        <time>2021-04-24T06:15:56.507Z</time>
      </trkpt>
      <trkpt lat="45.75607" lon="4.87734">
        <ele>231.998096</ele>
        <time>2021-04-24T06:15:58.490Z</time>
      </trkpt>
      <trkpt lat="45.75601" lon="4.87719">
        <ele>231.867249</ele>
        <time>2021-04-24T06:16:00.497Z</time>
      </trkpt>
      <trkpt lat="45.75597" lon="4.877">
        <ele>231.710167</ele>
        <time>2021-04-24T06:16:02.546Z</time>
      </trkpt>
      <trkpt lat="45.75591" lon="4.87686">
        <ele>231.570613</ele>
        <time>2021-04-24T06:16:04.498Z</time>
      </trkpt>
      <trkpt lat="45.7559" lon="4.8767">
        <ele>231.439072</ele>
        <time>2021-04-24T06:16:06.496Z</time>
      </trkpt>
      <trkpt lat="45.75586" lon="4.87655">
        <ele>231.305378</ele>
        <time>2021-04-24T06:16:08.486Z</time>
      </trkpt>
      <trkpt lat="45.75581" lon="4.87638">
        <ele>231.156823</ele>
        <time>2021-04-24T06:16:10.493Z</time>
      </trkpt>
      <trkpt lat="45.75577" lon="4.8762">
        <ele>231.003233</ele>
        <time>2021-04-24T06:16:12.487Z</time>
      </trkpt>
      <trkpt lat="45.75573" lon="4.87602">
        <ele>230.845273</ele>
        <time>2021-04-24T06:16:14.494Z</time>
      </trkpt>
      <trkpt lat="45.7557" lon="4.87584">
        <ele>230.693232</ele>
        <time>2021-04-24T06:16:16.492Z</time>
      </trkpt>
      <trkpt lat="45.75567" lon="4.87564">
        <ele>230.519555</ele>
        <time>2021-04-24T06:16:18.497Z</time>
      </trkpt>
      <trkpt lat="45.75564" lon="4.87543">
        <ele>230.345318</ele>
        <time>2021-04-24T06:16:20.492Z</time>
      </trkpt>
      <trkpt lat="45.75562" lon="4.87521">
        <ele>230.167378</ele>
        <time>2021-04-24T06:16:22.495Z</time>
      </trkpt>
      <trkpt lat="45.7556" lon="4.875">
        <ele>229.989264</ele>
        <time>2021-04-24T06:16:24.493Z</time>
      </trkpt>
      <trkpt lat="45.75554" lon="4.87478">
        <ele>229.793394</ele>
        <time>2021-04-24T06:16:26.504Z</time>
      </trkpt>
      <trkpt lat="45.75553" lon="4.87458">
        <ele>229.661231</ele>
        <time>2021-04-24T06:16:28.500Z</time>
      </trkpt>
      <trkpt lat="45.75549" lon="4.87446">
        <ele>229.597783</ele>
        <time>2021-04-24T06:16:29.508Z</time>
      </trkpt>
      <trkpt lat="45.75546" lon="4.87424">
        <ele>229.490787</ele>
        <time>2021-04-24T06:16:31.502Z</time>
      </trkpt>
      <trkpt lat="45.75543" lon="4.87405">
        <ele>229.39408</ele>
        <time>2021-04-24T06:16:33.500Z</time>
      </trkpt>
      <trkpt lat="45.7554" lon="4.87384">
        <ele>229.28991</ele>
        <time>2021-04-24T06:16:35.506Z</time>
      </trkpt>
      <trkpt lat="45.75534" lon="4.87361">
        <ele>229.170275</ele>
        <time>2021-04-24T06:16:37.502Z</time>
      </trkpt>
      <trkpt lat="45.75533" lon="4.87339">
        <ele>229.062643</ele>
        <time>2021-04-24T06:16:39.515Z</time>
      </trkpt>
      <trkpt lat="45.75532" lon="4.87316">
        <ele>228.950475</ele>
        <time>2021-04-24T06:16:41.498Z</time>
      </trkpt>
      <trkpt lat="45.75532" lon="4.87293">
        <ele>228.836722</ele>
        <time>2021-04-24T06:16:43.502Z</time>
      </trkpt>
      <trkpt lat="45.75533" lon="4.87271">
        <ele>228.727348</ele>
        <time>2021-04-24T06:16:45.545Z</time>
      </trkpt>
      <trkpt lat="45.75535" lon="4.87251">
        <ele>228.631394</ele>
        <time>2021-04-24T06:16:47.488Z</time>
      </trkpt>
      <trkpt lat="45.75536" lon="4.87234">
        <ele>228.547724</ele>
        <time>2021-04-24T06:16:49.499Z</time>
      </trkpt>
      <trkpt lat="45.75531" lon="4.8722">
        <ele>228.469787</ele>
        <time>2021-04-24T06:16:50.499Z</time>
      </trkpt>
      <trkpt lat="45.75524" lon="4.87207">
        <ele>228.340415</ele>
        <time>2021-04-24T06:16:51.522Z</time>
      </trkpt>
      <trkpt lat="45.75519" lon="4.87194">
        <ele>228.217084</ele>
        <time>2021-04-24T06:16:52.489Z</time>
      </trkpt>
      <trkpt lat="45.75517" lon="4.87169">
        <ele>228.006793</ele>
        <time>2021-04-24T06:16:54.493Z</time>
      </trkpt>
      <trkpt lat="45.75514" lon="4.87147">
        <ele>227.826907</ele>
        <time>2021-04-24T06:16:56.493Z</time>
      </trkpt>
      <trkpt lat="45.75513" lon="4.87134">
        <ele>227.71936</ele>
        <time>2021-04-24T06:16:57.527Z</time>
      </trkpt>
      <trkpt lat="45.75509" lon="4.87112">
        <ele>227.529376</ele>
        <time>2021-04-24T06:16:59.482Z</time>
      </trkpt>
      <trkpt lat="45.75506" lon="4.87088">
        <ele>227.321414</ele>
        <time>2021-04-24T06:17:01.487Z</time>
      </trkpt>
      <trkpt lat="45.75503" lon="4.87064">
        <ele>227.126324</ele>
        <time>2021-04-24T06:17:03.483Z</time>
      </trkpt>
      <trkpt lat="45.75502" lon="4.87043">
        <ele>226.951913</ele>
        <time>2021-04-24T06:17:05.495Z</time>
      </trkpt>
      <trkpt lat="45.75499" lon="4.87021">
        <ele>226.76274</ele>
        <time>2021-04-24T06:17:07.499Z</time>
      </trkpt>
      <trkpt lat="45.75495" lon="4.86997">
        <ele>226.56193</ele>
        <time>2021-04-24T06:17:09.486Z</time>
      </trkpt>
      <trkpt lat="45.75491" lon="4.86976">
        <ele>226.376574</ele>
        <time>2021-04-24T06:17:11.510Z</time>
      </trkpt>
      <trkpt lat="45.75489" lon="4.86956">
        <ele>226.364631</ele>
        <time>2021-04-24T06:17:13.504Z</time>
      </trkpt>
      <trkpt lat="45.75485" lon="4.86938">
        <ele>226.430508</ele>
        <time>2021-04-24T06:17:15.491Z</time>
      </trkpt>
      <trkpt lat="45.75483" lon="4.86917">
        <ele>226.50053</ele>
        <time>2021-04-24T06:17:17.509Z</time>
      </trkpt>
      <trkpt lat="45.75484" lon="4.86897">
        <ele>226.571134</ele>
        <time>2021-04-24T06:17:19.496Z</time>
      </trkpt>
      <trkpt lat="45.75484" lon="4.86879">
        <ele>226.629956</ele>
        <time>2021-04-24T06:17:21.491Z</time>
      </trkpt>
      <trkpt lat="45.75482" lon="4.86862">
        <ele>226.690687</ele>
        <time>2021-04-24T06:17:23.495Z</time>
      </trkpt>
      <trkpt lat="45.75478" lon="4.86847">
        <ele>226.743017</ele>
        <time>2021-04-24T06:17:25.487Z</time>
      </trkpt>
      <trkpt lat="45.75473" lon="4.86831">
        <ele>226.802191</ele>
        <time>2021-04-24T06:17:27.491Z</time>
      </trkpt>
      <trkpt lat="45.75468" lon="4.86815">
        <ele>226.863715</ele>
        <time>2021-04-24T06:17:29.490Z</time>
      </trkpt>
      <trkpt lat="45.75462" lon="4.86799">
        <ele>226.925376</ele>
        <time>2021-04-24T06:17:31.496Z</time>
      </trkpt>
      <trkpt lat="45.7546" lon="4.86782">
        <ele>226.98577</ele>
        <time>2021-04-24T06:17:34.490Z</time>
      </trkpt>
      <trkpt lat="45.75459" lon="4.86766">
        <ele>227.039696</ele>
        <time>2021-04-24T06:17:36.511Z</time>
      </trkpt>
      <trkpt lat="45.75459" lon="4.86751">
        <ele>227.088993</ele>
        <time>2021-04-24T06:17:38.500Z</time>
      </trkpt>
      <trkpt lat="45.7546" lon="4.86736">
        <ele>227.140651</ele>
        <time>2021-04-24T06:17:40.498Z</time>
      </trkpt>
      <trkpt lat="45.75459" lon="4.86721">
        <ele>227.193857</ele>
        <time>2021-04-24T06:17:42.493Z</time>
      </trkpt>
      <trkpt lat="45.75458" lon="4.86705">
        <ele>227.205982</ele>
        <time>2021-04-24T06:17:44.493Z</time>
      </trkpt>
      <trkpt lat="45.75457" lon="4.86691">
        <ele>227.214771</ele>
        <time>2021-04-24T06:17:46.505Z</time>
      </trkpt>
      <trkpt lat="45.75466" lon="4.86681">
        <ele>227.224705</ele>
        <time>2021-04-24T06:17:49.506Z</time>
      </trkpt>
      <trkpt lat="45.75471" lon="4.86668">
        <ele>227.234278</ele>
        <time>2021-04-24T06:17:53.504Z</time>
      </trkpt>
      <trkpt lat="45.7547" lon="4.86653">
        <ele>227.243835</ele>
        <time>2021-04-24T06:17:55.501Z</time>
      </trkpt>
      <trkpt lat="45.75467" lon="4.86629">
        <ele>227.259449</ele>
        <time>2021-04-24T06:17:58.478Z</time>
      </trkpt>
      <trkpt lat="45.75462" lon="4.86617">
        <ele>227.267606</ele>
        <time>2021-04-24T06:17:59.485Z</time>
      </trkpt>
      <trkpt lat="45.75449" lon="4.86599">
        <ele>227.283878</ele>
        <time>2021-04-24T06:18:01.482Z</time>
      </trkpt>
      <trkpt lat="45.75446" lon="4.86579">
        <ele>227.296865</ele>
        <time>2021-04-24T06:18:03.484Z</time>
      </trkpt>
      <trkpt lat="45.75442" lon="4.86557">
        <ele>227.310793</ele>
        <time>2021-04-24T06:18:05.492Z</time>
      </trkpt>
      <trkpt lat="45.7544" lon="4.86535">
        <ele>227.32489</ele>
        <time>2021-04-24T06:18:07.489Z</time>
      </trkpt>
      <trkpt lat="45.75437" lon="4.86514">
        <ele>227.338345</ele>
        <time>2021-04-24T06:18:09.503Z</time>
      </trkpt>
      <trkpt lat="45.7543" lon="4.86493">
        <ele>227.352955</ele>
        <time>2021-04-24T06:18:11.494Z</time>
      </trkpt>
      <trkpt lat="45.75426" lon="4.86474">
        <ele>227.333688</ele>
        <time>2021-04-24T06:18:13.496Z</time>
      </trkpt>
      <trkpt lat="45.75426" lon="4.86455">
        <ele>227.288312</ele>
        <time>2021-04-24T06:18:15.498Z</time>
      </trkpt>
      <trkpt lat="45.75424" lon="4.86435">
        <ele>227.241248</ele>
        <time>2021-04-24T06:18:17.492Z</time>
      </trkpt>
      <trkpt lat="45.75424" lon="4.86417">
        <ele>227.200944</ele>
        <time>2021-04-24T06:18:19.486Z</time>
      </trkpt>
      <trkpt lat="45.75423" lon="4.864">
        <ele>227.161353</ele>
        <time>2021-04-24T06:18:21.492Z</time>
      </trkpt>
      <trkpt lat="45.75423" lon="4.86385">
        <ele>227.126394</ele>
        <time>2021-04-24T06:18:23.494Z</time>
      </trkpt>
      <trkpt lat="45.75421" lon="4.8637">
        <ele>227.091329</ele>
        <time>2021-04-24T06:18:25.489Z</time>
      </trkpt>
      <trkpt lat="45.7542" lon="4.86357">
        <ele>227.061226</ele>
        <time>2021-04-24T06:18:27.488Z</time>
      </trkpt>
      <trkpt lat="45.75419" lon="4.86338">
        <ele>227.016269</ele>
        <time>2021-04-24T06:18:30.498Z</time>
      </trkpt>
      <trkpt lat="45.75417" lon="4.86323">
        <ele>226.980577</ele>
        <time>2021-04-24T06:18:32.498Z</time>
      </trkpt>
      <trkpt lat="45.75414" lon="4.86306">
        <ele>226.939758</ele>
        <time>2021-04-24T06:18:34.492Z</time>
      </trkpt>
      <trkpt lat="45.75412" lon="4.86288">
        <ele>226.897622</ele>
        <time>2021-04-24T06:18:36.502Z</time>
      </trkpt>
      <trkpt lat="45.7541" lon="4.86269">
        <ele>226.85392</ele>
        <time>2021-04-24T06:18:38.493Z</time>
      </trkpt>
      <trkpt lat="45.75408" lon="4.8625">
        <ele>226.809614</ele>
        <time>2021-04-24T06:18:40.488Z</time>
      </trkpt>
      <trkpt lat="45.75406" lon="4.86233">
        <ele>226.770214</ele>
        <time>2021-04-24T06:18:42.490Z</time>
      </trkpt>
      <trkpt lat="45.75403" lon="4.86217">
        <ele>226.986397</ele>
        <time>2021-04-24T06:18:44.505Z</time>
      </trkpt>
      <trkpt lat="45.75401" lon="4.86202">
        <ele>227.262327</ele>
        <time>2021-04-24T06:18:46.516Z</time>
      </trkpt>
      <trkpt lat="45.75399" lon="4.86181">
        <ele>227.620344</ele>
        <time>2021-04-24T06:18:48.499Z</time>
      </trkpt>
      <trkpt lat="45.75402" lon="4.86164">
        <ele>227.93013</ele>
        <time>2021-04-24T06:18:52.496Z</time>
      </trkpt>
      <trkpt lat="45.75394" lon="4.8615">
        <ele>228.242555</ele>
        <time>2021-04-24T06:18:53.496Z</time>
      </trkpt>
      <trkpt lat="45.75389" lon="4.86128">
        <ele>228.643797</ele>
        <time>2021-04-24T06:18:55.491Z</time>
      </trkpt>
      <trkpt lat="45.75384" lon="4.86106">
        <ele>229.041591</ele>
        <time>2021-04-24T06:18:57.504Z</time>
      </trkpt>
      <trkpt lat="45.75382" lon="4.86093">
        <ele>229.277697</ele>
        <time>2021-04-24T06:18:58.492Z</time>
      </trkpt>
      <trkpt lat="45.75382" lon="4.86079">
        <ele>229.513307</ele>
        <time>2021-04-24T06:19:00.490Z</time>
      </trkpt>
      <trkpt lat="45.75381" lon="4.86061">
        <ele>229.840679</ele>
        <time>2021-04-24T06:19:02.490Z</time>
      </trkpt>
      <trkpt lat="45.75375" lon="4.8604">
        <ele>230.226576</ele>
        <time>2021-04-24T06:19:03.506Z</time>
      </trkpt>
      <trkpt lat="45.75374" lon="4.86026">
        <ele>230.464175</ele>
        <time>2021-04-24T06:19:06.492Z</time>
      </trkpt>
      <trkpt lat="45.75373" lon="4.86011">
        <ele>230.732676</ele>
        <time>2021-04-24T06:19:08.495Z</time>
      </trkpt>
      <trkpt lat="45.75371" lon="4.85995">
        <ele>231.011486</ele>
        <time>2021-04-24T06:19:10.501Z</time>
      </trkpt>
      <trkpt lat="45.75369" lon="4.85982">
        <ele>231.252133</ele>
        <time>2021-04-24T06:19:12.498Z</time>
      </trkpt>
      <trkpt lat="45.75372" lon="4.85967">
        <ele>231.810215</ele>
        <time>2021-04-24T06:19:16.497Z</time>
      </trkpt>
      <trkpt lat="45.75365" lon="4.85902">
        <ele>234.054442</ele>
        <time>2021-04-24T06:19:55.489Z</time>
      </trkpt>
      <trkpt lat="45.75362" lon="4.85881">
        <ele>234.769989</ele>
        <time>2021-04-24T06:19:57.494Z</time>
      </trkpt>
      <trkpt lat="45.75356" lon="4.8586">
        <ele>235.542676</ele>
        <time>2021-04-24T06:19:59.488Z</time>
      </trkpt>
      <trkpt lat="45.75354" lon="4.85841">
        <ele>236.190949</ele>
        <time>2021-04-24T06:20:01.504Z</time>
      </trkpt>
      <trkpt lat="45.75349" lon="4.85817">
        <ele>237.070934</ele>
        <time>2021-04-24T06:20:03.490Z</time>
      </trkpt>
      <trkpt lat="45.75347" lon="4.85795">
        <ele>237.809905</ele>
        <time>2021-04-24T06:20:05.498Z</time>
      </trkpt>
      <trkpt lat="45.75344" lon="4.85772">
        <ele>238.62413</ele>
        <time>2021-04-24T06:20:07.499Z</time>
      </trkpt>
      <trkpt lat="45.75342" lon="4.85751">
        <ele>239.363326</ele>
        <time>2021-04-24T06:20:09.507Z</time>
      </trkpt>
      <trkpt lat="45.7534" lon="4.85733">
        <ele>239.975118</ele>
        <time>2021-04-24T06:20:11.485Z</time>
      </trkpt>
      <trkpt lat="45.7534" lon="4.85713">
        <ele>239.533698</ele>
        <time>2021-04-24T06:20:13.482Z</time>
      </trkpt>
      <trkpt lat="45.75338" lon="4.8569">
        <ele>238.922422</ele>
        <time>2021-04-24T06:20:15.492Z</time>
      </trkpt>
      <trkpt lat="45.75337" lon="4.8567">
        <ele>238.400012</ele>
        <time>2021-04-24T06:20:17.492Z</time>
      </trkpt>
      <trkpt lat="45.75334" lon="4.85651">
        <ele>237.886912</ele>
        <time>2021-04-24T06:20:19.505Z</time>
      </trkpt>
      <trkpt lat="45.75329" lon="4.85629">
        <ele>237.275413</ele>
        <time>2021-04-24T06:20:21.500Z</time>
      </trkpt>
      <trkpt lat="45.75325" lon="4.85606">
        <ele>236.652969</ele>
        <time>2021-04-24T06:20:23.492Z</time>
      </trkpt>
      <trkpt lat="45.7532" lon="4.85586">
        <ele>236.068321</ele>
        <time>2021-04-24T06:20:25.490Z</time>
      </trkpt>
      <trkpt lat="45.75317" lon="4.85565">
        <ele>235.50273</ele>
        <time>2021-04-24T06:20:27.483Z</time>
      </trkpt>
      <trkpt lat="45.75311" lon="4.85544">
        <ele>234.893231</ele>
        <time>2021-04-24T06:20:29.484Z</time>
      </trkpt>
      <trkpt lat="45.7531" lon="4.85529">
        <ele>234.511395</ele>
        <time>2021-04-24T06:20:30.488Z</time>
      </trkpt>
      <trkpt lat="45.75308" lon="4.85504">
        <ele>233.848526</ele>
        <time>2021-04-24T06:20:32.476Z</time>
      </trkpt>
      <trkpt lat="45.75303" lon="4.85483">
        <ele>233.257552</ele>
        <time>2021-04-24T06:20:34.490Z</time>
      </trkpt>
      <trkpt lat="45.75297" lon="4.85461">
        <ele>232.981712</ele>
        <time>2021-04-24T06:20:36.483Z</time>
      </trkpt>
      <trkpt lat="45.753" lon="4.85441">
        <ele>232.76758</ele>
        <time>2021-04-24T06:20:38.500Z</time>
      </trkpt>
      <trkpt lat="45.753" lon="4.8542">
        <ele>232.564054</ele>
        <time>2021-04-24T06:20:40.502Z</time>
      </trkpt>
      <trkpt lat="45.75298" lon="4.85398">
        <ele>232.339178</ele>
        <time>2021-04-24T06:20:42.500Z</time>
      </trkpt>
      <trkpt lat="45.75297" lon="4.85376">
        <ele>232.118801</ele>
        <time>2021-04-24T06:20:44.494Z</time>
      </trkpt>
      <trkpt lat="45.75296" lon="4.85355">
        <ele>231.905147</ele>
        <time>2021-04-24T06:20:46.513Z</time>
      </trkpt>
      <trkpt lat="45.75294" lon="4.85334">
        <ele>231.69824</ele>
        <time>2021-04-24T06:20:48.503Z</time>
      </trkpt>
      <trkpt lat="45.75291" lon="4.85315">
        <ele>231.501437</ele>
        <time>2021-04-24T06:20:50.496Z</time>
      </trkpt>
      <trkpt lat="45.7529" lon="4.85296">
        <ele>231.316945</ele>
        <time>2021-04-24T06:20:52.529Z</time>
      </trkpt>
      <trkpt lat="45.75289" lon="4.85272">
        <ele>231.076376</ele>
        <time>2021-04-24T06:20:54.489Z</time>
      </trkpt>
      <trkpt lat="45.75287" lon="4.85255">
        <ele>230.900952</ele>
        <time>2021-04-24T06:20:56.499Z</time>
      </trkpt>
      <trkpt lat="45.7528" lon="4.8524">
        <ele>230.722588</ele>
        <time>2021-04-24T06:20:58.822Z</time>
      </trkpt>
      <trkpt lat="45.75278" lon="4.85226">
        <ele>230.557558</ele>
        <time>2021-04-24T06:21:00.514Z</time>
      </trkpt>
      <trkpt lat="45.75274" lon="4.85209">
        <ele>230.260736</ele>
        <time>2021-04-24T06:21:03.502Z</time>
      </trkpt>
      <trkpt lat="45.75276" lon="4.85196">
        <ele>230.0568</ele>
        <time>2021-04-24T06:21:06.493Z</time>
      </trkpt>
      <trkpt lat="45.75273" lon="4.85184">
        <ele>229.847656</ele>
        <time>2021-04-24T06:21:08.502Z</time>
      </trkpt>
      <trkpt lat="45.75267" lon="4.85174">
        <ele>229.639099</ele>
        <time>2021-04-24T06:21:09.507Z</time>
      </trkpt>
      <trkpt lat="45.75261" lon="4.85162">
        <ele>229.409626</ele>
        <time>2021-04-24T06:21:11.503Z</time>
      </trkpt>
      <trkpt lat="45.75256" lon="4.8515">
        <ele>229.186724</ele>
        <time>2021-04-24T06:21:13.496Z</time>
      </trkpt>
      <trkpt lat="45.75259" lon="4.85131">
        <ele>228.87862</ele>
        <time>2021-04-24T06:21:17.499Z</time>
      </trkpt>
      <trkpt lat="45.75259" lon="4.85109">
        <ele>228.532867</ele>
        <time>2021-04-24T06:21:20.488Z</time>
      </trkpt>
      <trkpt lat="45.75262" lon="4.85097">
        <ele>228.32893</ele>
        <time>2021-04-24T06:21:21.516Z</time>
      </trkpt>
      <trkpt lat="45.75266" lon="4.85079">
        <ele>228.032307</ele>
        <time>2021-04-24T06:21:23.496Z</time>
      </trkpt>
      <trkpt lat="45.75274" lon="4.85062">
        <ele>227.704993</ele>
        <time>2021-04-24T06:21:25.511Z</time>
      </trkpt>
      <trkpt lat="45.75278" lon="4.85042">
        <ele>227.383021</ele>
        <time>2021-04-24T06:21:27.523Z</time>
      </trkpt>
      <trkpt lat="45.75283" lon="4.85022">
        <ele>227.044518</ele>
        <time>2021-04-24T06:21:29.499Z</time>
      </trkpt>
      <trkpt lat="45.75288" lon="4.85">
        <ele>226.689782</ele>
        <time>2021-04-24T06:21:31.500Z</time>
      </trkpt>
      <trkpt lat="45.75295" lon="4.84981">
        <ele>226.509748</ele>
        <time>2021-04-24T06:21:33.490Z</time>
      </trkpt>
      <trkpt lat="45.75301" lon="4.84963">
        <ele>226.414352</ele>
        <time>2021-04-24T06:21:35.510Z</time>
      </trkpt>
      <trkpt lat="45.75308" lon="4.84944">
        <ele>226.312564</ele>
        <time>2021-04-24T06:21:37.498Z</time>
      </trkpt>
      <trkpt lat="45.75314" lon="4.84925">
        <ele>226.214092</ele>
        <time>2021-04-24T06:21:39.505Z</time>
      </trkpt>
      <trkpt lat="45.75323" lon="4.84908">
        <ele>226.118921</ele>
        <time>2021-04-24T06:21:41.513Z</time>
      </trkpt>
      <trkpt lat="45.75331" lon="4.84891">
        <ele>226.021042</ele>
        <time>2021-04-24T06:21:43.509Z</time>
      </trkpt>
      <trkpt lat="45.75337" lon="4.84871">
        <ele>225.922008</ele>
        <time>2021-04-24T06:21:45.504Z</time>
      </trkpt>
      <trkpt lat="45.75342" lon="4.84852">
        <ele>225.827688</ele>
        <time>2021-04-24T06:21:47.491Z</time>
      </trkpt>
      <trkpt lat="45.75348" lon="4.84833">
        <ele>225.727865</ele>
        <time>2021-04-24T06:21:49.525Z</time>
      </trkpt>
      <trkpt lat="45.75354" lon="4.84811">
        <ele>225.619674</ele>
        <time>2021-04-24T06:21:51.503Z</time>
      </trkpt>
      <trkpt lat="45.75362" lon="4.8479">
        <ele>225.506527</ele>
        <time>2021-04-24T06:21:53.495Z</time>
      </trkpt>
      <trkpt lat="45.7537" lon="4.84774">
        <ele>225.417851</ele>
        <time>2021-04-24T06:21:55.508Z</time>
      </trkpt>
      <trkpt lat="45.75372" lon="4.8475">
        <ele>225.161116</ele>
        <time>2021-04-24T06:21:57.498Z</time>
      </trkpt>
      <trkpt lat="45.75376" lon="4.84728">
        <ele>224.841174</ele>
        <time>2021-04-24T06:21:59.505Z</time>
      </trkpt>
      <trkpt lat="45.75386" lon="4.84711">
        <ele>224.529352</ele>
        <time>2021-04-24T06:22:01.529Z</time>
      </trkpt>
      <trkpt lat="45.75395" lon="4.84694">
        <ele>224.21182</ele>
        <time>2021-04-24T06:22:03.497Z</time>
      </trkpt>
      <trkpt lat="45.75403" lon="4.84674">
        <ele>223.894486</ele>
        <time>2021-04-24T06:22:05.493Z</time>
      </trkpt>
      <trkpt lat="45.7541" lon="4.84655">
        <ele>223.582587</ele>
        <time>2021-04-24T06:22:07.511Z</time>
      </trkpt>
      <trkpt lat="45.75415" lon="4.84633">
        <ele>223.260521</ele>
        <time>2021-04-24T06:22:09.507Z</time>
      </trkpt>
      <trkpt lat="45.75422" lon="4.84615">
        <ele>222.968991</ele>
        <time>2021-04-24T06:22:11.506Z</time>
      </trkpt>
      <trkpt lat="45.7543" lon="4.846">
        <ele>222.693511</ele>
        <time>2021-04-24T06:22:13.481Z</time>
      </trkpt>
      <trkpt lat="45.75434" lon="4.84586">
        <ele>222.476657</ele>
        <time>2021-04-24T06:22:15.504Z</time>
      </trkpt>
      <trkpt lat="45.75439" lon="4.8457">
        <ele>222.237162</ele>
        <time>2021-04-24T06:22:18.492Z</time>
      </trkpt>
      <trkpt lat="45.75442" lon="4.84553">
        <ele>221.987526</ele>
        <time>2021-04-24T06:22:20.499Z</time>
      </trkpt>
      <trkpt lat="45.75447" lon="4.84536">
        <ele>221.714372</ele>
        <time>2021-04-24T06:22:22.478Z</time>
      </trkpt>
      <trkpt lat="45.75454" lon="4.84518">
        <ele>222.184667</ele>
        <time>2021-04-24T06:22:24.492Z</time>
      </trkpt>
      <trkpt lat="45.75459" lon="4.84507">
        <ele>222.50105</ele>
        <time>2021-04-24T06:22:25.496Z</time>
      </trkpt>
      <trkpt lat="45.75468" lon="4.8449">
        <ele>223.011173</ele>
        <time>2021-04-24T06:22:27.485Z</time>
      </trkpt>
      <trkpt lat="45.75475" lon="4.84472">
        <ele>223.497532</ele>
        <time>2021-04-24T06:22:29.495Z</time>
      </trkpt>
      <trkpt lat="45.75483" lon="4.84458">
        <ele>223.943325</ele>
        <time>2021-04-24T06:22:31.482Z</time>
      </trkpt>
      <trkpt lat="45.75489" lon="4.8444">
        <ele>224.427667</ele>
        <time>2021-04-24T06:22:33.491Z</time>
      </trkpt>
      <trkpt lat="45.75496" lon="4.84425">
        <ele>224.861371</ele>
        <time>2021-04-24T06:22:35.501Z</time>
      </trkpt>
      <trkpt lat="45.75502" lon="4.84406">
        <ele>225.348758</ele>
        <time>2021-04-24T06:22:37.496Z</time>
      </trkpt>
      <trkpt lat="45.75505" lon="4.84391">
        <ele>225.7345</ele>
        <time>2021-04-24T06:22:39.503Z</time>
      </trkpt>
      <trkpt lat="45.75508" lon="4.84378">
        <ele>226.053429</ele>
        <time>2021-04-24T06:22:41.530Z</time>
      </trkpt>
      <trkpt lat="45.75512" lon="4.84366">
        <ele>226.378884</ele>
        <time>2021-04-24T06:22:43.496Z</time>
      </trkpt>
      <trkpt lat="45.75518" lon="4.84348">
        <ele>226.838335</ele>
        <time>2021-04-24T06:22:46.505Z</time>
      </trkpt>
      <trkpt lat="45.75521" lon="4.84333">
        <ele>227.212112</ele>
        <time>2021-04-24T06:22:49.504Z</time>
      </trkpt>
      <trkpt lat="45.75525" lon="4.84318">
        <ele>227.591594</ele>
        <time>2021-04-24T06:22:53.521Z</time>
      </trkpt>
      <trkpt lat="45.7553" lon="4.84307">
        <ele>227.868719</ele>
        <time>2021-04-24T06:22:56.495Z</time>
      </trkpt>
      <trkpt lat="45.75537" lon="4.84295">
        <ele>227.791485</ele>
        <time>2021-04-24T06:22:59.504Z</time>
      </trkpt>
      <trkpt lat="45.75544" lon="4.84278">
        <ele>227.691286</ele>
        <time>2021-04-24T06:23:02.503Z</time>
      </trkpt>
      <trkpt lat="45.75549" lon="4.84264">
        <ele>227.611264</ele>
        <time>2021-04-24T06:23:04.504Z</time>
      </trkpt>
      <trkpt lat="45.75555" lon="4.84251">
        <ele>227.533637</ele>
        <time>2021-04-24T06:23:06.500Z</time>
      </trkpt>
      <trkpt lat="45.7556" lon="4.84236">
        <ele>227.447508</ele>
        <time>2021-04-24T06:23:08.502Z</time>
      </trkpt>
      <trkpt lat="45.75566" lon="4.8422">
        <ele>227.356437</ele>
        <time>2021-04-24T06:23:10.501Z</time>
      </trkpt>
      <trkpt lat="45.75574" lon="4.84205">
        <ele>227.26177</ele>
        <time>2021-04-24T06:23:12.492Z</time>
      </trkpt>
      <trkpt lat="45.75577" lon="4.84188">
        <ele>227.175068</ele>
        <time>2021-04-24T06:23:14.497Z</time>
      </trkpt>
      <trkpt lat="45.75584" lon="4.84173">
        <ele>227.083301</ele>
        <time>2021-04-24T06:23:16.503Z</time>
      </trkpt>
      <trkpt lat="45.75586" lon="4.84154">
        <ele>226.982618</ele>
        <time>2021-04-24T06:23:18.498Z</time>
      </trkpt>
      <trkpt lat="45.75588" lon="4.84141">
        <ele>226.916369</ele>
        <time>2021-04-24T06:23:20.483Z</time>
      </trkpt>
      <trkpt lat="45.75596" lon="4.84128">
        <ele>226.828883</ele>
        <time>2021-04-24T06:23:23.503Z</time>
      </trkpt>
      <trkpt lat="45.75599" lon="4.84116">
        <ele>226.761221</ele>
        <time>2021-04-24T06:23:25.496Z</time>
      </trkpt>
      <trkpt lat="45.75604" lon="4.84104">
        <ele>226.693512</ele>
        <time>2021-04-24T06:23:27.495Z</time>
      </trkpt>
      <trkpt lat="45.75609" lon="4.84087">
        <ele>226.599522</ele>
        <time>2021-04-24T06:23:30.506Z</time>
      </trkpt>
      <trkpt lat="45.75614" lon="4.84076">
        <ele>226.463766</ele>
        <time>2021-04-24T06:23:33.500Z</time>
      </trkpt>
      <trkpt lat="45.75618" lon="4.84064">
        <ele>226.274189</ele>
        <time>2021-04-24T06:23:37.498Z</time>
      </trkpt>
      <trkpt lat="45.75623" lon="4.84048">
        <ele>226.041924</ele>
        <time>2021-04-24T06:23:41.503Z</time>
      </trkpt>
      <trkpt lat="45.75628" lon="4.84034">
        <ele>225.819402</ele>
        <time>2021-04-24T06:23:44.504Z</time>
      </trkpt>
      <trkpt lat="45.75635" lon="4.84023">
        <ele>225.614427</ele>
        <time>2021-04-24T06:23:47.496Z</time>
      </trkpt>
      <trkpt lat="45.75645" lon="4.84026">
        <ele>225.408144</ele>
        <time>2021-04-24T06:23:50.499Z</time>
      </trkpt>
      <trkpt lat="45.75653" lon="4.84036">
        <ele>225.197061</ele>
        <time>2021-04-24T06:23:52.507Z</time>
      </trkpt>
      <trkpt lat="45.75662" lon="4.8404">
        <ele>225.003306</ele>
        <time>2021-04-24T06:23:54.525Z</time>
      </trkpt>
      <trkpt lat="45.75672" lon="4.84045">
        <ele>224.793496</ele>
        <time>2021-04-24T06:23:56.511Z</time>
      </trkpt>
      <trkpt lat="45.75682" lon="4.84048">
        <ele>224.602026</ele>
        <time>2021-04-24T06:23:58.503Z</time>
      </trkpt>
      <trkpt lat="45.75692" lon="4.84051">
        <ele>224.39155</ele>
        <time>2021-04-24T06:24:00.518Z</time>
      </trkpt>
      <trkpt lat="45.75701" lon="4.84054">
        <ele>224.201886</ele>
        <time>2021-04-24T06:24:02.506Z</time>
      </trkpt>
      <trkpt lat="45.75711" lon="4.84055">
        <ele>224.009091</ele>
        <time>2021-04-24T06:24:04.494Z</time>
      </trkpt>
      <trkpt lat="45.75718" lon="4.84065">
        <ele>223.819422</ele>
        <time>2021-04-24T06:24:07.498Z</time>
      </trkpt>
      <trkpt lat="45.75731" lon="4.84069">
        <ele>223.556977</ele>
        <time>2021-04-24T06:24:10.504Z</time>
      </trkpt>
      <trkpt lat="45.75741" lon="4.84072">
        <ele>223.354885</ele>
        <time>2021-04-24T06:24:12.487Z</time>
      </trkpt>
      <trkpt lat="45.75751" lon="4.84073">
        <ele>223.145423</ele>
        <time>2021-04-24T06:24:14.499Z</time>
      </trkpt>
      <trkpt lat="45.75763" lon="4.84075">
        <ele>222.954479</ele>
        <time>2021-04-24T06:24:16.507Z</time>
      </trkpt>
      <trkpt lat="45.75774" lon="4.84078">
        <ele>222.857281</ele>
        <time>2021-04-24T06:24:18.500Z</time>
      </trkpt>
      <trkpt lat="45.75786" lon="4.84079">
        <ele>222.754264</ele>
        <time>2021-04-24T06:24:20.494Z</time>
      </trkpt>
      <trkpt lat="45.75798" lon="4.84082">
        <ele>222.652408</ele>
        <time>2021-04-24T06:24:22.491Z</time>
      </trkpt>
      <trkpt lat="45.75808" lon="4.84081">
        <ele>222.567235</ele>
        <time>2021-04-24T06:24:24.497Z</time>
      </trkpt>
      <trkpt lat="45.75819" lon="4.84082">
        <ele>222.471156</ele>
        <time>2021-04-24T06:24:26.489Z</time>
      </trkpt>
      <trkpt lat="45.75828" lon="4.84074">
        <ele>222.380738</ele>
        <time>2021-04-24T06:24:28.498Z</time>
      </trkpt>
      <trkpt lat="45.75838" lon="4.84076">
        <ele>222.289974</ele>
        <time>2021-04-24T06:24:31.490Z</time>
      </trkpt>
      <trkpt lat="45.75843" lon="4.84063">
        <ele>222.202855</ele>
        <time>2021-04-24T06:24:35.481Z</time>
      </trkpt>
      <trkpt lat="45.75852" lon="4.84057">
        <ele>222.113178</ele>
        <time>2021-04-24T06:24:41.495Z</time>
      </trkpt>
      <trkpt lat="45.75865" lon="4.84059">
        <ele>222.003914</ele>
        <time>2021-04-24T06:24:44.486Z</time>
      </trkpt>
      <trkpt lat="45.75875" lon="4.84057">
        <ele>221.912931</ele>
        <time>2021-04-24T06:24:46.492Z</time>
      </trkpt>
      <trkpt lat="45.75887" lon="4.84057">
        <ele>221.812684</ele>
        <time>2021-04-24T06:24:48.497Z</time>
      </trkpt>
      <trkpt lat="45.759" lon="4.84059">
        <ele>221.698341</ele>
        <time>2021-04-24T06:24:50.502Z</time>
      </trkpt>
      <trkpt lat="45.75913" lon="4.84059">
        <ele>221.582538</ele>
        <time>2021-04-24T06:24:52.486Z</time>
      </trkpt>
      <trkpt lat="45.75927" lon="4.84058">
        <ele>221.467585</ele>
        <time>2021-04-24T06:24:54.494Z</time>
      </trkpt>
      <trkpt lat="45.75939" lon="4.84059">
        <ele>221.210774</ele>
        <time>2021-04-24T06:24:56.481Z</time>
      </trkpt>
      <trkpt lat="45.75953" lon="4.84059">
        <ele>220.852367</ele>
        <time>2021-04-24T06:24:58.490Z</time>
      </trkpt>
      <trkpt lat="45.75967" lon="4.84061">
        <ele>220.490507</ele>
        <time>2021-04-24T06:25:00.480Z</time>
      </trkpt>
      <trkpt lat="45.7598" lon="4.84063">
        <ele>220.140374</ele>
        <time>2021-04-24T06:25:02.490Z</time>
      </trkpt>
      <trkpt lat="45.75994" lon="4.84065">
        <ele>219.771554</ele>
        <time>2021-04-24T06:25:04.492Z</time>
      </trkpt>
      <trkpt lat="45.76007" lon="4.84067">
        <ele>219.425361</ele>
        <time>2021-04-24T06:25:06.494Z</time>
      </trkpt>
      <trkpt lat="45.76023" lon="4.84069">
        <ele>219.005517</ele>
        <time>2021-04-24T06:25:08.491Z</time>
      </trkpt>
      <trkpt lat="45.76036" lon="4.8407">
        <ele>218.675114</ele>
        <time>2021-04-24T06:25:10.493Z</time>
      </trkpt>
      <trkpt lat="45.7605" lon="4.84071">
        <ele>218.321948</ele>
        <time>2021-04-24T06:25:12.508Z</time>
      </trkpt>
      <trkpt lat="45.76065" lon="4.84071">
        <ele>217.935133</ele>
        <time>2021-04-24T06:25:14.495Z</time>
      </trkpt>
      <trkpt lat="45.76079" lon="4.84073">
        <ele>217.556802</ele>
        <time>2021-04-24T06:25:16.496Z</time>
      </trkpt>
      <trkpt lat="45.76093" lon="4.84072">
        <ele>217.185138</ele>
        <time>2021-04-24T06:25:18.495Z</time>
      </trkpt>
      <trkpt lat="45.76108" lon="4.84072">
        <ele>216.795706</ele>
        <time>2021-04-24T06:25:20.501Z</time>
      </trkpt>
      <trkpt lat="45.76123" lon="4.84074">
        <ele>216.743863</ele>
        <time>2021-04-24T06:25:22.490Z</time>
      </trkpt>
      <trkpt lat="45.76139" lon="4.84078">
        <ele>216.717221</ele>
        <time>2021-04-24T06:25:24.504Z</time>
      </trkpt>
      <trkpt lat="45.76162" lon="4.84082">
        <ele>216.678438</ele>
        <time>2021-04-24T06:25:27.499Z</time>
      </trkpt>
      <trkpt lat="45.76177" lon="4.84083">
        <ele>216.653089</ele>
        <time>2021-04-24T06:25:29.500Z</time>
      </trkpt>
      <trkpt lat="45.76192" lon="4.84086">
        <ele>216.626872</ele>
        <time>2021-04-24T06:25:31.513Z</time>
      </trkpt>
      <trkpt lat="45.76207" lon="4.84087">
        <ele>216.601359</ele>
        <time>2021-04-24T06:25:33.500Z</time>
      </trkpt>
      <trkpt lat="45.76222" lon="4.8409">
        <ele>216.575604</ele>
        <time>2021-04-24T06:25:35.497Z</time>
      </trkpt>
      <trkpt lat="45.76238" lon="4.84093">
        <ele>216.549294</ele>
        <time>2021-04-24T06:25:37.497Z</time>
      </trkpt>
      <trkpt lat="45.76252" lon="4.84093">
        <ele>216.525487</ele>
        <time>2021-04-24T06:25:39.505Z</time>
      </trkpt>
      <trkpt lat="45.76266" lon="4.84094">
        <ele>216.500796</ele>
        <time>2021-04-24T06:25:41.494Z</time>
      </trkpt>
      <trkpt lat="45.7628" lon="4.84096">
        <ele>216.477041</ele>
        <time>2021-04-24T06:25:43.507Z</time>
      </trkpt>
      <trkpt lat="45.76295" lon="4.84096">
        <ele>216.462219</ele>
        <time>2021-04-24T06:25:45.502Z</time>
      </trkpt>
      <trkpt lat="45.76309" lon="4.84099">
        <ele>216.459252</ele>
        <time>2021-04-24T06:25:47.512Z</time>
      </trkpt>
      <trkpt lat="45.76324" lon="4.84101">
        <ele>216.456337</ele>
        <time>2021-04-24T06:25:49.502Z</time>
      </trkpt>
      <trkpt lat="45.76338" lon="4.84099">
        <ele>216.453426</ele>
        <time>2021-04-24T06:25:51.492Z</time>
      </trkpt>
      <trkpt lat="45.76354" lon="4.84098">
        <ele>216.450397</ele>
        <time>2021-04-24T06:25:53.498Z</time>
      </trkpt>
      <trkpt lat="45.76368" lon="4.84099">
        <ele>216.447569</ele>
        <time>2021-04-24T06:25:55.478Z</time>
      </trkpt>
      <trkpt lat="45.76382" lon="4.84105">
        <ele>216.44466</ele>
        <time>2021-04-24T06:25:57.512Z</time>
      </trkpt>
      <trkpt lat="45.76396" lon="4.8411">
        <ele>216.441753</ele>
        <time>2021-04-24T06:25:59.486Z</time>
      </trkpt>
      <trkpt lat="45.76411" lon="4.84111">
        <ele>216.438783</ele>
        <time>2021-04-24T06:26:01.499Z</time>
      </trkpt>
      <trkpt lat="45.76427" lon="4.84112">
        <ele>216.435494</ele>
        <time>2021-04-24T06:26:03.484Z</time>
      </trkpt>
      <trkpt lat="45.76442" lon="4.84111">
        <ele>216.432547</ele>
        <time>2021-04-24T06:26:05.482Z</time>
      </trkpt>
      <trkpt lat="45.76456" lon="4.84112">
        <ele>216.429621</ele>
        <time>2021-04-24T06:26:07.485Z</time>
      </trkpt>
      <trkpt lat="45.76471" lon="4.84113">
        <ele>216.387442</ele>
        <time>2021-04-24T06:26:09.484Z</time>
      </trkpt>
      <trkpt lat="45.76486" lon="4.84111">
        <ele>216.233245</ele>
        <time>2021-04-24T06:26:11.481Z</time>
      </trkpt>
      <trkpt lat="45.76499" lon="4.8411">
        <ele>216.087612</ele>
        <time>2021-04-24T06:26:13.491Z</time>
      </trkpt>
      <trkpt lat="45.76514" lon="4.84109">
        <ele>215.932212</ele>
        <time>2021-04-24T06:26:15.503Z</time>
      </trkpt>
      <trkpt lat="45.76528" lon="4.84108">
        <ele>215.78661</ele>
        <time>2021-04-24T06:26:17.489Z</time>
      </trkpt>
      <trkpt lat="45.76542" lon="4.84107">
        <ele>215.64108</ele>
        <time>2021-04-24T06:26:19.515Z</time>
      </trkpt>
      <trkpt lat="45.76557" lon="4.84108">
        <ele>215.486174</ele>
        <time>2021-04-24T06:26:21.544Z</time>
      </trkpt>
      <trkpt lat="45.76571" lon="4.84105">
        <ele>215.33926</ele>
        <time>2021-04-24T06:26:23.501Z</time>
      </trkpt>
      <trkpt lat="45.76586" lon="4.84104">
        <ele>215.178883</ele>
        <time>2021-04-24T06:26:25.589Z</time>
      </trkpt>
      <trkpt lat="45.76601" lon="4.84104">
        <ele>215.022933</ele>
        <time>2021-04-24T06:26:27.502Z</time>
      </trkpt>
      <trkpt lat="45.76615" lon="4.84103">
        <ele>214.871161</ele>
        <time>2021-04-24T06:26:29.490Z</time>
      </trkpt>
      <trkpt lat="45.76631" lon="4.84105">
        <ele>214.71263</ele>
        <time>2021-04-24T06:26:31.487Z</time>
      </trkpt>
      <trkpt lat="45.76644" lon="4.841">
        <ele>214.564665</ele>
        <time>2021-04-24T06:26:33.546Z</time>
      </trkpt>
      <trkpt lat="45.76659" lon="4.84101">
        <ele>214.73962</ele>
        <time>2021-04-24T06:26:35.501Z</time>
      </trkpt>
      <trkpt lat="45.76674" lon="4.84098">
        <ele>214.979693</ele>
        <time>2021-04-24T06:26:37.502Z</time>
      </trkpt>
      <trkpt lat="45.76688" lon="4.84095">
        <ele>215.202839</ele>
        <time>2021-04-24T06:26:39.506Z</time>
      </trkpt>
      <trkpt lat="45.76704" lon="4.84096">
        <ele>215.45529</ele>
        <time>2021-04-24T06:26:41.498Z</time>
      </trkpt>
      <trkpt lat="45.76719" lon="4.84091">
        <ele>215.695785</ele>
        <time>2021-04-24T06:26:43.534Z</time>
      </trkpt>
      <trkpt lat="45.76733" lon="4.84088">
        <ele>215.922685</ele>
        <time>2021-04-24T06:26:45.511Z</time>
      </trkpt>
      <trkpt lat="45.76747" lon="4.84086">
        <ele>216.137088</ele>
        <time>2021-04-24T06:26:47.491Z</time>
      </trkpt>
      <trkpt lat="45.7676" lon="4.84082">
        <ele>216.351812</ele>
        <time>2021-04-24T06:26:49.510Z</time>
      </trkpt>
      <trkpt lat="45.76774" lon="4.8408">
        <ele>216.571008</ele>
        <time>2021-04-24T06:26:51.492Z</time>
      </trkpt>
      <trkpt lat="45.76787" lon="4.84076">
        <ele>216.780385</ele>
        <time>2021-04-24T06:26:53.491Z</time>
      </trkpt>
      <trkpt lat="45.76802" lon="4.84075">
        <ele>217.006288</ele>
        <time>2021-04-24T06:26:55.553Z</time>
      </trkpt>
      <trkpt lat="45.76817" lon="4.84073">
        <ele>217.241173</ele>
        <time>2021-04-24T06:26:57.510Z</time>
      </trkpt>
      <trkpt lat="45.7683" lon="4.84071">
        <ele>217.313578</ele>
        <time>2021-04-24T06:26:59.511Z</time>
      </trkpt>
      <trkpt lat="45.76844" lon="4.84072">
        <ele>217.191364</ele>
        <time>2021-04-24T06:27:01.535Z</time>
      </trkpt>
      <trkpt lat="45.76858" lon="4.84071">
        <ele>217.068119</ele>
        <time>2021-04-24T06:27:03.500Z</time>
      </trkpt>
      <trkpt lat="45.76872" lon="4.84069">
        <ele>216.946563</ele>
        <time>2021-04-24T06:27:05.529Z</time>
      </trkpt>
      <trkpt lat="45.76886" lon="4.84068">
        <ele>216.823128</ele>
        <time>2021-04-24T06:27:07.508Z</time>
      </trkpt>
      <trkpt lat="45.769" lon="4.84067">
        <ele>216.69381</ele>
        <time>2021-04-24T06:27:09.506Z</time>
      </trkpt>
      <trkpt lat="45.76915" lon="4.84066">
        <ele>216.56611</ele>
        <time>2021-04-24T06:27:11.506Z</time>
      </trkpt>
      <trkpt lat="45.7693" lon="4.84066">
        <ele>216.431583</ele>
        <time>2021-04-24T06:27:13.500Z</time>
      </trkpt>
      <trkpt lat="45.76945" lon="4.84066">
        <ele>216.303203</ele>
        <time>2021-04-24T06:27:15.499Z</time>
      </trkpt>
      <trkpt lat="45.7696" lon="4.84065">
        <ele>216.170162</ele>
        <time>2021-04-24T06:27:17.545Z</time>
      </trkpt>
      <trkpt lat="45.76975" lon="4.84064">
        <ele>216.039152</ele>
        <time>2021-04-24T06:27:19.501Z</time>
      </trkpt>
      <trkpt lat="45.7699" lon="4.84064">
        <ele>215.908077</ele>
        <time>2021-04-24T06:27:21.479Z</time>
      </trkpt>
      <trkpt lat="45.77005" lon="4.84065">
        <ele>215.792108</ele>
        <time>2021-04-24T06:27:23.495Z</time>
      </trkpt>
      <trkpt lat="45.7702" lon="4.84067">
        <ele>215.974855</ele>
        <time>2021-04-24T06:27:25.505Z</time>
      </trkpt>
      <trkpt lat="45.77035" lon="4.84068">
        <ele>216.16326</ele>
        <time>2021-04-24T06:27:27.498Z</time>
      </trkpt>
      <trkpt lat="45.7705" lon="4.84068">
        <ele>216.342925</ele>
        <time>2021-04-24T06:27:29.500Z</time>
      </trkpt>
      <trkpt lat="45.77064" lon="4.84068">
        <ele>216.521392</ele>
        <time>2021-04-24T06:27:31.500Z</time>
      </trkpt>
      <trkpt lat="45.77079" lon="4.84069">
        <ele>216.697588</ele>
        <time>2021-04-24T06:27:33.513Z</time>
      </trkpt>
      <trkpt lat="45.77094" lon="4.84068">
        <ele>216.884858</ele>
        <time>2021-04-24T06:27:35.497Z</time>
      </trkpt>
      <trkpt lat="45.77108" lon="4.84068">
        <ele>217.052295</ele>
        <time>2021-04-24T06:27:37.497Z</time>
      </trkpt>
      <trkpt lat="45.77121" lon="4.84067">
        <ele>217.213676</ele>
        <time>2021-04-24T06:27:39.536Z</time>
      </trkpt>
      <trkpt lat="45.77135" lon="4.84068">
        <ele>217.384881</ele>
        <time>2021-04-24T06:27:41.506Z</time>
      </trkpt>
      <trkpt lat="45.77148" lon="4.84069">
        <ele>217.537938</ele>
        <time>2021-04-24T06:27:43.509Z</time>
      </trkpt>
      <trkpt lat="45.7716" lon="4.84069">
        <ele>217.688273</ele>
        <time>2021-04-24T06:27:45.524Z</time>
      </trkpt>
      <trkpt lat="45.77171" lon="4.84069">
        <ele>217.827601</ele>
        <time>2021-04-24T06:27:47.507Z</time>
      </trkpt>
      <trkpt lat="45.77185" lon="4.84071">
        <ele>218.058537</ele>
        <time>2021-04-24T06:27:49.502Z</time>
      </trkpt>
      <trkpt lat="45.77199" lon="4.84071">
        <ele>218.758642</ele>
        <time>2021-04-24T06:27:51.531Z</time>
      </trkpt>
      <trkpt lat="45.77211" lon="4.84069">
        <ele>219.388974</ele>
        <time>2021-04-24T06:27:53.485Z</time>
      </trkpt>
      <trkpt lat="45.77223" lon="4.8407">
        <ele>220.028305</ele>
        <time>2021-04-24T06:27:55.508Z</time>
      </trkpt>
      <trkpt lat="45.77235" lon="4.84067">
        <ele>220.64015</ele>
        <time>2021-04-24T06:27:57.506Z</time>
      </trkpt>
      <trkpt lat="45.77244" lon="4.84067">
        <ele>221.118946</ele>
        <time>2021-04-24T06:27:58.499Z</time>
      </trkpt>
      <trkpt lat="45.77257" lon="4.84076">
        <ele>221.824986</ele>
        <time>2021-04-24T06:28:00.502Z</time>
      </trkpt>
      <trkpt lat="45.77264" lon="4.84083">
        <ele>222.287642</ele>
        <time>2021-04-24T06:28:02.501Z</time>
      </trkpt>
      <trkpt lat="45.77275" lon="4.84088">
        <ele>222.861881</ele>
        <time>2021-04-24T06:28:04.496Z</time>
      </trkpt>
      <trkpt lat="45.77285" lon="4.84093">
        <ele>223.436318</ele>
        <time>2021-04-24T06:28:06.490Z</time>
      </trkpt>
      <trkpt lat="45.77295" lon="4.84098">
        <ele>223.959695</ele>
        <time>2021-04-24T06:28:08.506Z</time>
      </trkpt>
      <trkpt lat="45.77304" lon="4.84106">
        <ele>224.508083</ele>
        <time>2021-04-24T06:28:10.478Z</time>
      </trkpt>
      <trkpt lat="45.77316" lon="4.84113">
        <ele>225.168869</ele>
        <time>2021-04-24T06:28:13.477Z</time>
      </trkpt>
      <trkpt lat="45.77325" lon="4.84121">
        <ele>225.737853</ele>
        <time>2021-04-24T06:28:16.492Z</time>
      </trkpt>
      <trkpt lat="45.77335" lon="4.84128">
        <ele>226.306886</ele>
        <time>2021-04-24T06:28:19.502Z</time>
      </trkpt>
      <trkpt lat="45.77326" lon="4.84132">
        <ele>226.815926</ele>
        <time>2021-04-24T06:28:23.496Z</time>
      </trkpt>
      <trkpt lat="45.77316" lon="4.84127">
        <ele>227.296591</ele>
        <time>2021-04-24T06:28:28.492Z</time>
      </trkpt>
      <trkpt lat="45.77307" lon="4.84122">
        <ele>227.537747</ele>
        <time>2021-04-24T06:28:32.492Z</time>
      </trkpt>
      <trkpt lat="45.77295" lon="4.84117">
        <ele>227.84876</ele>
        <time>2021-04-24T06:28:35.501Z</time>
      </trkpt>
      <trkpt lat="45.77284" lon="4.84114">
        <ele>228.132128</ele>
        <time>2021-04-24T06:28:37.502Z</time>
      </trkpt>
      <trkpt lat="45.77273" lon="4.84111">
        <ele>228.40797</ele>
        <time>2021-04-24T06:28:39.486Z</time>
      </trkpt>
      <trkpt lat="45.77262" lon="4.8411">
        <ele>228.690211</ele>
        <time>2021-04-24T06:28:41.485Z</time>
      </trkpt>
      <trkpt lat="45.7725" lon="4.84105">
        <ele>229.007152</ele>
        <time>2021-04-24T06:28:44.551Z</time>
      </trkpt>
      <trkpt lat="45.77243" lon="4.84096">
        <ele>229.241936</ele>
        <time>2021-04-24T06:28:46.501Z</time>
      </trkpt>
      <trkpt lat="45.77243" lon="4.84082">
        <ele>229.487714</ele>
        <time>2021-04-24T06:28:48.504Z</time>
      </trkpt>
      <trkpt lat="45.77244" lon="4.84067">
        <ele>229.753394</ele>
        <time>2021-04-24T06:28:50.509Z</time>
      </trkpt>
      <trkpt lat="45.77246" lon="4.84049">
        <ele>230.067786</ele>
        <time>2021-04-24T06:28:52.491Z</time>
      </trkpt>
      <trkpt lat="45.77248" lon="4.84032">
        <ele>230.362332</ele>
        <time>2021-04-24T06:28:54.490Z</time>
      </trkpt>
      <trkpt lat="45.77249" lon="4.84015">
        <ele>230.661836</ele>
        <time>2021-04-24T06:28:56.485Z</time>
      </trkpt>
      <trkpt lat="45.77251" lon="4.83996">
        <ele>230.998453</ele>
        <time>2021-04-24T06:28:58.484Z</time>
      </trkpt>
      <trkpt lat="45.77252" lon="4.8398">
        <ele>231.291706</ele>
        <time>2021-04-24T06:29:00.494Z</time>
      </trkpt>
      <trkpt lat="45.77253" lon="4.83966">
        <ele>231.538259</ele>
        <time>2021-04-24T06:29:02.491Z</time>
      </trkpt>
      <trkpt lat="45.77256" lon="4.83947">
        <ele>231.694683</ele>
        <time>2021-04-24T06:29:05.509Z</time>
      </trkpt>
      <trkpt lat="45.77257" lon="4.8393">
        <ele>231.500936</ele>
        <time>2021-04-24T06:29:08.488Z</time>
      </trkpt>
      <trkpt lat="45.77258" lon="4.83916">
        <ele>231.33564</ele>
        <time>2021-04-24T06:29:10.501Z</time>
      </trkpt>
      <trkpt lat="45.7726" lon="4.83902">
        <ele>231.174377</ele>
        <time>2021-04-24T06:29:12.493Z</time>
      </trkpt>
      <trkpt lat="45.77261" lon="4.83887">
        <ele>231.007781</ele>
        <time>2021-04-24T06:29:14.495Z</time>
      </trkpt>
      <trkpt lat="45.77263" lon="4.83872">
        <ele>230.835689</ele>
        <time>2021-04-24T06:29:16.515Z</time>
      </trkpt>
      <trkpt lat="45.77271" lon="4.83857">
        <ele>230.626653</ele>
        <time>2021-04-24T06:29:19.502Z</time>
      </trkpt>
      <trkpt lat="45.77279" lon="4.83849">
        <ele>230.470518</ele>
        <time>2021-04-24T06:29:23.488Z</time>
      </trkpt>
      <trkpt lat="45.77278" lon="4.83834">
        <ele>230.292818</ele>
        <time>2021-04-24T06:29:26.500Z</time>
      </trkpt>
      <trkpt lat="45.77279" lon="4.83815">
        <ele>230.075433</ele>
        <time>2021-04-24T06:29:29.493Z</time>
      </trkpt>
      <trkpt lat="45.77281" lon="4.83799">
        <ele>229.893796</ele>
        <time>2021-04-24T06:29:31.493Z</time>
      </trkpt>
      <trkpt lat="45.77282" lon="4.83781">
        <ele>229.696478</ele>
        <time>2021-04-24T06:29:33.500Z</time>
      </trkpt>
      <trkpt lat="45.77284" lon="4.83762">
        <ele>229.476212</ele>
        <time>2021-04-24T06:29:35.498Z</time>
      </trkpt>
      <trkpt lat="45.77286" lon="4.83741">
        <ele>229.241217</ele>
        <time>2021-04-24T06:29:37.498Z</time>
      </trkpt>
      <trkpt lat="45.77289" lon="4.83722">
        <ele>229.016185</ele>
        <time>2021-04-24T06:29:39.503Z</time>
      </trkpt>
      <trkpt lat="45.77292" lon="4.837">
        <ele>228.845377</ele>
        <time>2021-04-24T06:29:41.499Z</time>
      </trkpt>
      <trkpt lat="45.77295" lon="4.8368">
        <ele>228.833509</ele>
        <time>2021-04-24T06:29:43.488Z</time>
      </trkpt>
      <trkpt lat="45.773" lon="4.83662">
        <ele>228.822559</ele>
        <time>2021-04-24T06:29:45.484Z</time>
      </trkpt>
      <trkpt lat="45.77459" lon="4.81398">
        <ele>221.852837</ele>
        <time>2021-04-24T06:33:24.507Z</time>
      </trkpt>
      <trkpt lat="45.77466" lon="4.81389">
        <ele>221.556496</ele>
        <time>2021-04-24T06:33:26.498Z</time>
      </trkpt>
      <trkpt lat="45.77468" lon="4.81368">
        <ele>221.114657</ele>
        <time>2021-04-24T06:33:28.494Z</time>
      </trkpt>
      <trkpt lat="45.77469" lon="4.81348">
        <ele>220.67459</ele>
        <time>2021-04-24T06:33:30.490Z</time>
      </trkpt>
      <trkpt lat="45.7747" lon="4.81327">
        <ele>220.22891</ele>
        <time>2021-04-24T06:33:32.502Z</time>
      </trkpt>
      <trkpt lat="45.77472" lon="4.81307">
        <ele>219.802238</ele>
        <time>2021-04-24T06:33:34.507Z</time>
      </trkpt>
      <trkpt lat="45.77473" lon="4.81288">
        <ele>219.389248</ele>
        <time>2021-04-24T06:33:36.501Z</time>
      </trkpt>
      <trkpt lat="45.77474" lon="4.81269">
        <ele>218.97995</ele>
        <time>2021-04-24T06:33:38.498Z</time>
      </trkpt>
      <trkpt lat="45.77475" lon="4.81249">
        <ele>218.544722</ele>
        <time>2021-04-24T06:33:40.532Z</time>
      </trkpt>
      <trkpt lat="45.77477" lon="4.8123">
        <ele>218.139871</ele>
        <time>2021-04-24T06:33:42.500Z</time>
      </trkpt>
      <trkpt lat="45.77479" lon="4.8121">
        <ele>217.689876</ele>
        <time>2021-04-24T06:33:44.497Z</time>
      </trkpt>
      <trkpt lat="45.77481" lon="4.81191">
        <ele>217.277809</ele>
        <time>2021-04-24T06:33:46.540Z</time>
      </trkpt>
      <trkpt lat="45.77483" lon="4.81172">
        <ele>216.871576</ele>
        <time>2021-04-24T06:33:48.504Z</time>
      </trkpt>
      <trkpt lat="45.77484" lon="4.81153">
        <ele>216.459873</ele>
        <time>2021-04-24T06:33:50.512Z</time>
      </trkpt>
      <trkpt lat="45.77486" lon="4.81136">
        <ele>216.431228</ele>
        <time>2021-04-24T06:33:52.540Z</time>
      </trkpt>
      <trkpt lat="45.77488" lon="4.8112">
        <ele>216.508213</ele>
        <time>2021-04-24T06:33:54.492Z</time>
      </trkpt>
      <trkpt lat="45.77489" lon="4.81103">
        <ele>216.587536</ele>
        <time>2021-04-24T06:33:56.510Z</time>
      </trkpt>
      <trkpt lat="45.77491" lon="4.8109">
        <ele>216.651699</ele>
        <time>2021-04-24T06:33:58.510Z</time>
      </trkpt>
      <trkpt lat="45.77493" lon="4.81077">
        <ele>216.712969</ele>
        <time>2021-04-24T06:34:00.501Z</time>
      </trkpt>
      <trkpt lat="45.77502" lon="4.81065">
        <ele>216.798284</ele>
        <time>2021-04-24T06:34:03.504Z</time>
      </trkpt>
      <trkpt lat="45.77511" lon="4.81062">
        <ele>216.862797</ele>
        <time>2021-04-24T06:34:05.499Z</time>
      </trkpt>
      <trkpt lat="45.77522" lon="4.81058">
        <ele>216.938835</ele>
        <time>2021-04-24T06:34:07.516Z</time>
      </trkpt>
      <trkpt lat="45.77534" lon="4.81055">
        <ele>217.017198</ele>
        <time>2021-04-24T06:34:09.501Z</time>
      </trkpt>
      <trkpt lat="45.77547" lon="4.8105">
        <ele>217.108953</ele>
        <time>2021-04-24T06:34:11.509Z</time>
      </trkpt>
      <trkpt lat="45.77559" lon="4.81048">
        <ele>217.19249</ele>
        <time>2021-04-24T06:34:13.514Z</time>
      </trkpt>
      <trkpt lat="45.77574" lon="4.81041">
        <ele>217.300208</ele>
        <time>2021-04-24T06:34:15.503Z</time>
      </trkpt>
      <trkpt lat="45.77589" lon="4.81037">
        <ele>217.39929</ele>
        <time>2021-04-24T06:34:17.505Z</time>
      </trkpt>
      <trkpt lat="45.77604" lon="4.81034">
        <ele>217.504768</ele>
        <time>2021-04-24T06:34:19.499Z</time>
      </trkpt>
      <trkpt lat="45.77619" lon="4.81035">
        <ele>217.505354</ele>
        <time>2021-04-24T06:34:21.505Z</time>
      </trkpt>
      <trkpt lat="45.77635" lon="4.81036">
        <ele>217.005934</ele>
        <time>2021-04-24T06:34:23.505Z</time>
      </trkpt>
      <trkpt lat="45.7765" lon="4.81039">
        <ele>216.543212</ele>
        <time>2021-04-24T06:34:25.499Z</time>
      </trkpt>
      <trkpt lat="45.77664" lon="4.81043">
        <ele>216.101556</ele>
        <time>2021-04-24T06:34:27.506Z</time>
      </trkpt>
      <trkpt lat="45.77678" lon="4.81046">
        <ele>215.670955</ele>
        <time>2021-04-24T06:34:29.509Z</time>
      </trkpt>
      <trkpt lat="45.77689" lon="4.81046">
        <ele>215.30194</ele>
        <time>2021-04-24T06:34:31.490Z</time>
      </trkpt>
      <trkpt lat="45.77704" lon="4.81052">
        <ele>214.835331</ele>
        <time>2021-04-24T06:34:33.488Z</time>
      </trkpt>
      <trkpt lat="45.77717" lon="4.81056">
        <ele>214.418843</ele>
        <time>2021-04-24T06:34:35.492Z</time>
      </trkpt>
      <trkpt lat="45.77729" lon="4.81058">
        <ele>214.053618</ele>
        <time>2021-04-24T06:34:37.513Z</time>
      </trkpt>
      <trkpt lat="45.77742" lon="4.81062">
        <ele>213.642606</ele>
        <time>2021-04-24T06:34:39.495Z</time>
      </trkpt>
      <trkpt lat="45.77755" lon="4.81068">
        <ele>213.204017</ele>
        <time>2021-04-24T06:34:41.522Z</time>
      </trkpt>
      <trkpt lat="45.77769" lon="4.81075">
        <ele>212.737107</ele>
        <time>2021-04-24T06:34:43.505Z</time>
      </trkpt>
      <trkpt lat="45.77784" lon="4.81081">
        <ele>212.276821</ele>
        <time>2021-04-24T06:34:45.505Z</time>
      </trkpt>
      <trkpt lat="45.77794" lon="4.81088">
        <ele>212.058165</ele>
        <time>2021-04-24T06:34:47.498Z</time>
      </trkpt>
      <trkpt lat="45.77808" lon="4.81096">
        <ele>212.301462</ele>
        <time>2021-04-24T06:34:49.483Z</time>
      </trkpt>
      <trkpt lat="45.7782" lon="4.81101">
        <ele>212.517617</ele>
        <time>2021-04-24T06:34:51.507Z</time>
      </trkpt>
      <trkpt lat="45.77835" lon="4.81108">
        <ele>212.774795</ele>
        <time>2021-04-24T06:34:53.500Z</time>
      </trkpt>
      <trkpt lat="45.77849" lon="4.81111">
        <ele>213.010856</ele>
        <time>2021-04-24T06:34:55.517Z</time>
      </trkpt>
      <trkpt lat="45.77863" lon="4.8112">
        <ele>213.266838</ele>
        <time>2021-04-24T06:34:57.503Z</time>
      </trkpt>
      <trkpt lat="45.77877" lon="4.81126">
        <ele>213.497537</ele>
        <time>2021-04-24T06:34:59.508Z</time>
      </trkpt>
      <trkpt lat="45.77889" lon="4.81133">
        <ele>213.715332</ele>
        <time>2021-04-24T06:35:01.518Z</time>
      </trkpt>
      <trkpt lat="45.77901" lon="4.81137">
        <ele>213.920326</ele>
        <time>2021-04-24T06:35:03.504Z</time>
      </trkpt>
      <trkpt lat="45.77912" lon="4.81141">
        <ele>214.102931</ele>
        <time>2021-04-24T06:35:05.507Z</time>
      </trkpt>
      <trkpt lat="45.77923" lon="4.81144">
        <ele>214.289846</ele>
        <time>2021-04-24T06:35:07.496Z</time>
      </trkpt>
      <trkpt lat="45.77933" lon="4.81147">
        <ele>214.461937</ele>
        <time>2021-04-24T06:35:09.518Z</time>
      </trkpt>
      <trkpt lat="45.77944" lon="4.81149">
        <ele>214.641948</ele>
        <time>2021-04-24T06:35:11.501Z</time>
      </trkpt>
      <trkpt lat="45.77955" lon="4.81156">
        <ele>214.835525</ele>
        <time>2021-04-24T06:35:13.498Z</time>
      </trkpt>
      <trkpt lat="45.77966" lon="4.8116">
        <ele>215.083875</ele>
        <time>2021-04-24T06:35:15.503Z</time>
      </trkpt>
      <trkpt lat="45.77978" lon="4.8116">
        <ele>215.497665</ele>
        <time>2021-04-24T06:35:17.518Z</time>
      </trkpt>
      <trkpt lat="45.77986" lon="4.81152">
        <ele>215.84527</ele>
        <time>2021-04-24T06:35:19.625Z</time>
      </trkpt>
      <trkpt lat="45.7799" lon="4.81138">
        <ele>216.210302</ele>
        <time>2021-04-24T06:35:21.504Z</time>
      </trkpt>
      <trkpt lat="45.77993" lon="4.8112">
        <ele>216.67374</ele>
        <time>2021-04-24T06:35:23.555Z</time>
      </trkpt>
      <trkpt lat="45.77998" lon="4.81103">
        <ele>217.114858</ele>
        <time>2021-04-24T06:35:25.495Z</time>
      </trkpt>
      <trkpt lat="45.78003" lon="4.81087">
        <ele>217.542802</ele>
        <time>2021-04-24T06:35:27.486Z</time>
      </trkpt>
      <trkpt lat="45.78008" lon="4.81069">
        <ele>218.01417</ele>
        <time>2021-04-24T06:35:29.491Z</time>
      </trkpt>
      <trkpt lat="45.78013" lon="4.81052">
        <ele>218.472801</ele>
        <time>2021-04-24T06:35:31.486Z</time>
      </trkpt>
      <trkpt lat="45.78018" lon="4.81035">
        <ele>218.927859</ele>
        <time>2021-04-24T06:35:33.489Z</time>
      </trkpt>
      <trkpt lat="45.78022" lon="4.81019">
        <ele>219.337598</ele>
        <time>2021-04-24T06:35:35.497Z</time>
      </trkpt>
      <trkpt lat="45.78026" lon="4.81003">
        <ele>219.756463</ele>
        <time>2021-04-24T06:35:37.502Z</time>
      </trkpt>
      <trkpt lat="45.78031" lon="4.80987">
        <ele>220.187891</ele>
        <time>2021-04-24T06:35:39.494Z</time>
      </trkpt>
      <trkpt lat="45.78035" lon="4.80971">
        <ele>220.582543</ele>
        <time>2021-04-24T06:35:41.498Z</time>
      </trkpt>
      <trkpt lat="45.78038" lon="4.80957">
        <ele>220.950638</ele>
        <time>2021-04-24T06:35:43.508Z</time>
      </trkpt>
      <trkpt lat="45.78043" lon="4.80942">
        <ele>221.330467</ele>
        <time>2021-04-24T06:35:46.495Z</time>
      </trkpt>
      <trkpt lat="45.78045" lon="4.80928">
        <ele>221.541581</ele>
        <time>2021-04-24T06:35:50.487Z</time>
      </trkpt>
      <trkpt lat="45.78054" lon="4.80928">
        <ele>221.73573</ele>
        <time>2021-04-24T06:36:00.489Z</time>
      </trkpt>
      <trkpt lat="45.78058" lon="4.80913">
        <ele>221.973346</ele>
        <time>2021-04-24T06:36:05.487Z</time>
      </trkpt>
      <trkpt lat="45.78059" lon="4.80898">
        <ele>222.196916</ele>
        <time>2021-04-24T06:36:08.493Z</time>
      </trkpt>
      <trkpt lat="45.78066" lon="4.8088">
        <ele>222.492176</ele>
        <time>2021-04-24T06:36:11.491Z</time>
      </trkpt>
      <trkpt lat="45.78071" lon="4.80866">
        <ele>222.720627</ele>
        <time>2021-04-24T06:36:13.505Z</time>
      </trkpt>
      <trkpt lat="45.78077" lon="4.80849">
        <ele>223.000561</ele>
        <time>2021-04-24T06:36:15.496Z</time>
      </trkpt>
      <trkpt lat="45.78084" lon="4.80834">
        <ele>223.272209</ele>
        <time>2021-04-24T06:36:17.492Z</time>
      </trkpt>
      <trkpt lat="45.78092" lon="4.80818">
        <ele>223.559435</ele>
        <time>2021-04-24T06:36:19.504Z</time>
      </trkpt>
      <trkpt lat="45.78099" lon="4.80802">
        <ele>223.841033</ele>
        <time>2021-04-24T06:36:21.506Z</time>
      </trkpt>
      <trkpt lat="45.78109" lon="4.80786">
        <ele>224.159922</ele>
        <time>2021-04-24T06:36:23.555Z</time>
      </trkpt>
      <trkpt lat="45.78117" lon="4.80767">
        <ele>224.472862</ele>
        <time>2021-04-24T06:36:25.503Z</time>
      </trkpt>
      <trkpt lat="45.78123" lon="4.8075">
        <ele>224.763234</ele>
        <time>2021-04-24T06:36:27.512Z</time>
      </trkpt>
      <trkpt lat="45.7813" lon="4.80735">
        <ele>225.019281</ele>
        <time>2021-04-24T06:36:29.520Z</time>
      </trkpt>
      <trkpt lat="45.7814" lon="4.8072">
        <ele>224.955826</ele>
        <time>2021-04-24T06:36:31.498Z</time>
      </trkpt>
      <trkpt lat="45.78145" lon="4.80705">
        <ele>224.839636</ele>
        <time>2021-04-24T06:36:33.496Z</time>
      </trkpt>
      <trkpt lat="45.78148" lon="4.8069">
        <ele>224.734451</ele>
        <time>2021-04-24T06:36:35.518Z</time>
      </trkpt>
      <trkpt lat="45.78157" lon="4.80676">
        <ele>224.608831</ele>
        <time>2021-04-24T06:36:37.499Z</time>
      </trkpt>
      <trkpt lat="45.78169" lon="4.8068">
        <ele>224.490663</ele>
        <time>2021-04-24T06:36:39.510Z</time>
      </trkpt>
      <trkpt lat="45.78182" lon="4.80689">
        <ele>224.356178</ele>
        <time>2021-04-24T06:36:41.486Z</time>
      </trkpt>
      <trkpt lat="45.78193" lon="4.80695">
        <ele>224.236665</ele>
        <time>2021-04-24T06:36:43.509Z</time>
      </trkpt>
      <trkpt lat="45.78206" lon="4.80703">
        <ele>224.098867</ele>
        <time>2021-04-24T06:36:45.507Z</time>
      </trkpt>
      <trkpt lat="45.78219" lon="4.80712">
        <ele>223.96003</ele>
        <time>2021-04-24T06:36:47.498Z</time>
      </trkpt>
      <trkpt lat="45.78233" lon="4.80721">
        <ele>223.816002</ele>
        <time>2021-04-24T06:36:49.495Z</time>
      </trkpt>
      <trkpt lat="45.78244" lon="4.80732">
        <ele>223.687697</ele>
        <time>2021-04-24T06:36:51.502Z</time>
      </trkpt>
      <trkpt lat="45.78257" lon="4.80736">
        <ele>223.563156</ele>
        <time>2021-04-24T06:36:53.498Z</time>
      </trkpt>
      <trkpt lat="45.78271" lon="4.8074">
        <ele>223.419157</ele>
        <time>2021-04-24T06:36:55.490Z</time>
      </trkpt>
      <trkpt lat="45.78282" lon="4.80744">
        <ele>223.317037</ele>
        <time>2021-04-24T06:36:57.491Z</time>
      </trkpt>
      <trkpt lat="45.78291" lon="4.80748">
        <ele>223.245649</ele>
        <time>2021-04-24T06:37:00.485Z</time>
      </trkpt>
      <trkpt lat="45.783" lon="4.8075">
        <ele>223.173665</ele>
        <time>2021-04-24T06:37:09.503Z</time>
      </trkpt>
      <trkpt lat="45.78309" lon="4.80757">
        <ele>223.098311</ele>
        <time>2021-04-24T06:37:12.493Z</time>
      </trkpt>
      <trkpt lat="45.78318" lon="4.80763">
        <ele>223.025433</ele>
        <time>2021-04-24T06:37:14.486Z</time>
      </trkpt>
      <trkpt lat="45.78328" lon="4.80768">
        <ele>222.942935</ele>
        <time>2021-04-24T06:37:16.480Z</time>
      </trkpt>
      <trkpt lat="45.78336" lon="4.80776">
        <ele>222.865556</ele>
        <time>2021-04-24T06:37:18.488Z</time>
      </trkpt>
      <trkpt lat="45.7835" lon="4.80785">
        <ele>222.747412</ele>
        <time>2021-04-24T06:37:21.489Z</time>
      </trkpt>
      <trkpt lat="45.78361" lon="4.80793">
        <ele>222.652786</ele>
        <time>2021-04-24T06:37:23.501Z</time>
      </trkpt>
      <trkpt lat="45.78374" lon="4.80801">
        <ele>222.548411</ele>
        <time>2021-04-24T06:37:25.495Z</time>
      </trkpt>
      <trkpt lat="45.78387" lon="4.80807">
        <ele>222.438763</ele>
        <time>2021-04-24T06:37:27.501Z</time>
      </trkpt>
      <trkpt lat="45.784" lon="4.80811">
        <ele>222.334612</ele>
        <time>2021-04-24T06:37:29.509Z</time>
      </trkpt>
      <trkpt lat="45.78414" lon="4.80816">
        <ele>222.228913</ele>
        <time>2021-04-24T06:37:31.501Z</time>
      </trkpt>
      <trkpt lat="45.78427" lon="4.80824">
        <ele>222.119516</ele>
        <time>2021-04-24T06:37:33.562Z</time>
      </trkpt>
      <trkpt lat="45.78441" lon="4.8083">
        <ele>222.004386</ele>
        <time>2021-04-24T06:37:35.493Z</time>
      </trkpt>
      <trkpt lat="45.78453" lon="4.80836">
        <ele>222.020383</ele>
        <time>2021-04-24T06:37:37.507Z</time>
      </trkpt>
      <trkpt lat="45.78468" lon="4.80831">
        <ele>222.167867</ele>
        <time>2021-04-24T06:37:39.530Z</time>
      </trkpt>
      <trkpt lat="45.78484" lon="4.80825">
        <ele>222.32818</ele>
        <time>2021-04-24T06:37:41.501Z</time>
      </trkpt>
      <trkpt lat="45.78497" lon="4.80819">
        <ele>222.454951</ele>
        <time>2021-04-24T06:37:43.502Z</time>
      </trkpt>
      <trkpt lat="45.78509" lon="4.80811">
        <ele>222.581401</ele>
        <time>2021-04-24T06:37:45.549Z</time>
      </trkpt>
      <trkpt lat="45.78523" lon="4.80799">
        <ele>222.7332</ele>
        <time>2021-04-24T06:37:47.504Z</time>
      </trkpt>
      <trkpt lat="45.78537" lon="4.80791">
        <ele>222.876696</ele>
        <time>2021-04-24T06:37:49.487Z</time>
      </trkpt>
      <trkpt lat="45.7855" lon="4.80781">
        <ele>223.020173</ele>
        <time>2021-04-24T06:37:51.543Z</time>
      </trkpt>
      <trkpt lat="45.78565" lon="4.80778">
        <ele>223.165922</ele>
        <time>2021-04-24T06:37:53.496Z</time>
      </trkpt>
      <trkpt lat="45.78578" lon="4.80785">
        <ele>223.292588</ele>
        <time>2021-04-24T06:37:55.493Z</time>
      </trkpt>
      <trkpt lat="45.78589" lon="4.80793">
        <ele>223.415789</ele>
        <time>2021-04-24T06:37:57.494Z</time>
      </trkpt>
      <trkpt lat="45.78602" lon="4.80796">
        <ele>223.543433</ele>
        <time>2021-04-24T06:37:59.487Z</time>
      </trkpt>
      <trkpt lat="45.78615" lon="4.80803">
        <ele>223.67882</ele>
        <time>2021-04-24T06:38:01.490Z</time>
      </trkpt>
      <trkpt lat="45.78627" lon="4.80807">
        <ele>223.972625</ele>
        <time>2021-04-24T06:38:03.502Z</time>
      </trkpt>
      <trkpt lat="45.78639" lon="4.80812">
        <ele>224.283476</ele>
        <time>2021-04-24T06:38:05.501Z</time>
      </trkpt>
      <trkpt lat="45.7865" lon="4.80817">
        <ele>224.576001</ele>
        <time>2021-04-24T06:38:07.497Z</time>
      </trkpt>
      <trkpt lat="45.78663" lon="4.80822">
        <ele>224.903438</ele>
        <time>2021-04-24T06:38:09.503Z</time>
      </trkpt>
      <trkpt lat="45.78672" lon="4.80826">
        <ele>225.146255</ele>
        <time>2021-04-24T06:38:11.497Z</time>
      </trkpt>
      <trkpt lat="45.78684" lon="4.80833">
        <ele>225.464791</ele>
        <time>2021-04-24T06:38:13.494Z</time>
      </trkpt>
      <trkpt lat="45.78695" lon="4.80837">
        <ele>225.74127</ele>
        <time>2021-04-24T06:38:15.514Z</time>
      </trkpt>
      <trkpt lat="45.78705" lon="4.80844">
        <ele>226.039639</ele>
        <time>2021-04-24T06:38:17.482Z</time>
      </trkpt>
      <trkpt lat="45.78715" lon="4.8085">
        <ele>226.290917</ele>
        <time>2021-04-24T06:38:19.495Z</time>
      </trkpt>
      <trkpt lat="45.78724" lon="4.80854">
        <ele>226.530872</ele>
        <time>2021-04-24T06:38:22.520Z</time>
      </trkpt>
      <trkpt lat="45.78734" lon="4.80848">
        <ele>226.807934</ele>
        <time>2021-04-24T06:38:25.496Z</time>
      </trkpt>
      <trkpt lat="45.78742" lon="4.80854">
        <ele>227.040046</ele>
        <time>2021-04-24T06:38:27.496Z</time>
      </trkpt>
      <trkpt lat="45.78754" lon="4.80861">
        <ele>227.352633</ele>
        <time>2021-04-24T06:38:30.522Z</time>
      </trkpt>
      <trkpt lat="45.78765" lon="4.80864">
        <ele>227.624037</ele>
        <time>2021-04-24T06:38:33.529Z</time>
      </trkpt>
      <trkpt lat="45.78773" lon="4.80871">
        <ele>227.867736</ele>
        <time>2021-04-24T06:38:36.498Z</time>
      </trkpt>
      <trkpt lat="45.78783" lon="4.80876">
        <ele>228.135131</ele>
        <time>2021-04-24T06:38:41.501Z</time>
      </trkpt>
      <trkpt lat="45.78794" lon="4.80881">
        <ele>228.233279</ele>
        <time>2021-04-24T06:38:47.501Z</time>
      </trkpt>
      <trkpt lat="45.78803" lon="4.80883">
        <ele>228.307764</ele>
        <time>2021-04-24T06:38:50.517Z</time>
      </trkpt>
      <trkpt lat="45.78811" lon="4.80873">
        <ele>228.394071</ele>
        <time>2021-04-24T06:38:54.524Z</time>
      </trkpt>
      <trkpt lat="45.78816" lon="4.80858">
        <ele>228.491191</ele>
        <time>2021-04-24T06:38:57.548Z</time>
      </trkpt>
      <trkpt lat="45.78823" lon="4.80846">
        <ele>228.578493</ele>
        <time>2021-04-24T06:39:00.512Z</time>
      </trkpt>
      <trkpt lat="45.7883" lon="4.80835">
        <ele>228.662873</ele>
        <time>2021-04-24T06:39:03.503Z</time>
      </trkpt>
      <trkpt lat="45.78837" lon="4.80824">
        <ele>228.748498</ele>
        <time>2021-04-24T06:39:06.496Z</time>
      </trkpt>
      <trkpt lat="45.78843" lon="4.80811">
        <ele>228.835976</ele>
        <time>2021-04-24T06:39:09.520Z</time>
      </trkpt>
      <trkpt lat="45.78852" lon="4.808">
        <ele>228.936557</ele>
        <time>2021-04-24T06:39:12.500Z</time>
      </trkpt>
      <trkpt lat="45.78862" lon="4.80792">
        <ele>229.026839</ele>
        <time>2021-04-24T06:39:15.496Z</time>
      </trkpt>
      <trkpt lat="45.78873" lon="4.80785">
        <ele>229.128793</ele>
        <time>2021-04-24T06:39:18.527Z</time>
      </trkpt>
      <trkpt lat="45.78885" lon="4.80782">
        <ele>229.226427</ele>
        <time>2021-04-24T06:39:21.503Z</time>
      </trkpt>
      <trkpt lat="45.78898" lon="4.8078">
        <ele>229.336199</ele>
        <time>2021-04-24T06:39:24.526Z</time>
      </trkpt>
      <trkpt lat="45.78908" lon="4.80781">
        <ele>229.411547</ele>
        <time>2021-04-24T06:39:26.523Z</time>
      </trkpt>
      <trkpt lat="45.78917" lon="4.80782">
        <ele>229.487101</ele>
        <time>2021-04-24T06:39:28.498Z</time>
      </trkpt>
      <trkpt lat="45.78926" lon="4.80785">
        <ele>229.562186</ele>
        <time>2021-04-24T06:39:30.544Z</time>
      </trkpt>
      <trkpt lat="45.78938" lon="4.8079">
        <ele>229.601361</ele>
        <time>2021-04-24T06:39:33.504Z</time>
      </trkpt>
      <trkpt lat="45.78949" lon="4.80796">
        <ele>229.57807</ele>
        <time>2021-04-24T06:39:36.524Z</time>
      </trkpt>
      <trkpt lat="45.78961" lon="4.80802">
        <ele>229.550769</ele>
        <time>2021-04-24T06:39:39.509Z</time>
      </trkpt>
      <trkpt lat="45.7897" lon="4.80807">
        <ele>229.531469</ele>
        <time>2021-04-24T06:39:41.500Z</time>
      </trkpt>
      <trkpt lat="45.78981" lon="4.80812">
        <ele>229.508452</ele>
        <time>2021-04-24T06:39:44.493Z</time>
      </trkpt>
      <trkpt lat="45.78993" lon="4.80816">
        <ele>229.482459</ele>
        <time>2021-04-24T06:39:47.511Z</time>
      </trkpt>
      <trkpt lat="45.79002" lon="4.8082">
        <ele>229.462731</ele>
        <time>2021-04-24T06:39:49.517Z</time>
      </trkpt>
      <trkpt lat="45.79015" lon="4.80823">
        <ele>229.435476</ele>
        <time>2021-04-24T06:39:52.504Z</time>
      </trkpt>
      <trkpt lat="45.79028" lon="4.80829">
        <ele>229.408697</ele>
        <time>2021-04-24T06:39:55.513Z</time>
      </trkpt>
      <trkpt lat="45.79036" lon="4.80833">
        <ele>229.390172</ele>
        <time>2021-04-24T06:39:57.517Z</time>
      </trkpt>
      <trkpt lat="45.79046" lon="4.80836">
        <ele>229.369961</ele>
        <time>2021-04-24T06:39:59.500Z</time>
      </trkpt>
      <trkpt lat="45.79055" lon="4.8084">
        <ele>229.350939</ele>
        <time>2021-04-24T06:40:01.494Z</time>
      </trkpt>
      <trkpt lat="45.79063" lon="4.80844">
        <ele>229.33232</ele>
        <time>2021-04-24T06:40:03.484Z</time>
      </trkpt>
      <trkpt lat="45.79076" lon="4.80851">
        <ele>229.30337</ele>
        <time>2021-04-24T06:40:06.507Z</time>
      </trkpt>
      <trkpt lat="45.7909" lon="4.80855">
        <ele>229.274344</ele>
        <time>2021-04-24T06:40:09.491Z</time>
      </trkpt>
      <trkpt lat="45.79099" lon="4.80859">
        <ele>229.255488</ele>
        <time>2021-04-24T06:40:11.499Z</time>
      </trkpt>
      <trkpt lat="45.79111" lon="4.80865">
        <ele>229.714879</ele>
        <time>2021-04-24T06:40:14.490Z</time>
      </trkpt>
      <trkpt lat="45.79124" lon="4.80864">
        <ele>230.476721</ele>
        <time>2021-04-24T06:40:17.491Z</time>
      </trkpt>
      <trkpt lat="45.79133" lon="4.80864">
        <ele>231.081831</ele>
        <time>2021-04-24T06:40:19.496Z</time>
      </trkpt>
      <trkpt lat="45.79145" lon="4.80865">
        <ele>231.812516</ele>
        <time>2021-04-24T06:40:22.508Z</time>
      </trkpt>
      <trkpt lat="45.79153" lon="4.80869">
        <ele>232.373416</ele>
        <time>2021-04-24T06:40:24.494Z</time>
      </trkpt>
      <trkpt lat="45.79165" lon="4.80876">
        <ele>233.144757</ele>
        <time>2021-04-24T06:40:27.498Z</time>
      </trkpt>
      <trkpt lat="45.79177" lon="4.80883">
        <ele>233.956623</ele>
        <time>2021-04-24T06:40:30.493Z</time>
      </trkpt>
      <trkpt lat="45.79188" lon="4.80886">
        <ele>234.685774</ele>
        <time>2021-04-24T06:40:34.522Z</time>
      </trkpt>
      <trkpt lat="45.79196" lon="4.80876">
        <ele>235.322231</ele>
        <time>2021-04-24T06:40:37.505Z</time>
      </trkpt>
      <trkpt lat="45.79197" lon="4.80864">
        <ele>235.88399</ele>
        <time>2021-04-24T06:40:39.495Z</time>
      </trkpt>
      <trkpt lat="45.79197" lon="4.80851">
        <ele>236.445955</ele>
        <time>2021-04-24T06:40:41.503Z</time>
      </trkpt>
      <trkpt lat="45.79196" lon="4.80833">
        <ele>237.214023</ele>
        <time>2021-04-24T06:40:44.490Z</time>
      </trkpt>
      <trkpt lat="45.79191" lon="4.8082">
        <ele>237.857032</ele>
        <time>2021-04-24T06:40:47.496Z</time>
      </trkpt>
      <trkpt lat="45.79181" lon="4.80811">
        <ele>238.609415</ele>
        <time>2021-04-24T06:40:50.497Z</time>
      </trkpt>
      <trkpt lat="45.79169" lon="4.80806">
        <ele>239.368899</ele>
        <time>2021-04-24T06:40:53.505Z</time>
      </trkpt>
      <trkpt lat="45.79157" lon="4.80806">
        <ele>240.098872</ele>
        <time>2021-04-24T06:40:56.501Z</time>
      </trkpt>
      <trkpt lat="45.79147" lon="4.80807">
        <ele>240.705597</ele>
        <time>2021-04-24T06:40:59.497Z</time>
      </trkpt>
      <trkpt lat="45.79136" lon="4.80807">
        <ele>241.197491</ele>
        <time>2021-04-24T06:41:02.501Z</time>
      </trkpt>
      <trkpt lat="45.79127" lon="4.80803">
        <ele>241.672178</ele>
        <time>2021-04-24T06:41:05.494Z</time>
      </trkpt>
      <trkpt lat="45.79118" lon="4.80797">
        <ele>242.123302</ele>
        <time>2021-04-24T06:41:08.494Z</time>
      </trkpt>
      <trkpt lat="45.7911" lon="4.80788">
        <ele>242.608402</ele>
        <time>2021-04-24T06:41:11.488Z</time>
      </trkpt>
      <trkpt lat="45.79102" lon="4.8078">
        <ele>243.085723</ele>
        <time>2021-04-24T06:41:14.503Z</time>
      </trkpt>
      <trkpt lat="45.79096" lon="4.80766">
        <ele>243.621357</ele>
        <time>2021-04-24T06:41:18.499Z</time>
      </trkpt>
      <trkpt lat="45.79089" lon="4.80752">
        <ele>244.192193</ele>
        <time>2021-04-24T06:41:22.495Z</time>
      </trkpt>
      <trkpt lat="45.7908" lon="4.80746">
        <ele>244.670756</ele>
        <time>2021-04-24T06:41:25.493Z</time>
      </trkpt>
      <trkpt lat="45.7907" lon="4.80743">
        <ele>245.145444</ele>
        <time>2021-04-24T06:41:28.497Z</time>
      </trkpt>
      <trkpt lat="45.7906" lon="4.80741">
        <ele>245.621975</ele>
        <time>2021-04-24T06:41:31.496Z</time>
      </trkpt>
      <trkpt lat="45.7905" lon="4.80739">
        <ele>246.114041</ele>
        <time>2021-04-24T06:41:34.513Z</time>
      </trkpt>
      <trkpt lat="45.7904" lon="4.80737">
        <ele>246.591456</ele>
        <time>2021-04-24T06:41:37.512Z</time>
      </trkpt>
      <trkpt lat="45.79031" lon="4.80734">
        <ele>247.028032</ele>
        <time>2021-04-24T06:41:40.503Z</time>
      </trkpt>
      <trkpt lat="45.79023" lon="4.80728">
        <ele>247.473389</ele>
        <time>2021-04-24T06:41:43.494Z</time>
      </trkpt>
      <trkpt lat="45.79017" lon="4.80717">
        <ele>247.936626</ele>
        <time>2021-04-24T06:41:46.516Z</time>
      </trkpt>
      <trkpt lat="45.79013" lon="4.80704">
        <ele>248.416516</ele>
        <time>2021-04-24T06:41:49.507Z</time>
      </trkpt>
      <trkpt lat="45.79013" lon="4.8069">
        <ele>248.882773</ele>
        <time>2021-04-24T06:41:52.486Z</time>
      </trkpt>
      <trkpt lat="45.79016" lon="4.80677">
        <ele>249.22855</ele>
        <time>2021-04-24T06:41:55.501Z</time>
      </trkpt>
      <trkpt lat="45.79023" lon="4.80666">
        <ele>249.511759</ele>
        <time>2021-04-24T06:41:58.492Z</time>
      </trkpt>
      <trkpt lat="45.79031" lon="4.80658">
        <ele>249.77837</ele>
        <time>2021-04-24T06:42:01.490Z</time>
      </trkpt>
      <trkpt lat="45.79038" lon="4.8065">
        <ele>250.039299</ele>
        <time>2021-04-24T06:42:04.505Z</time>
      </trkpt>
      <trkpt lat="45.79044" lon="4.8064">
        <ele>250.295179</ele>
        <time>2021-04-24T06:42:07.499Z</time>
      </trkpt>
      <trkpt lat="45.79048" lon="4.80628">
        <ele>250.562166</ele>
        <time>2021-04-24T06:42:10.538Z</time>
      </trkpt>
      <trkpt lat="45.79052" lon="4.80611">
        <ele>250.908071</ele>
        <time>2021-04-24T06:42:14.505Z</time>
      </trkpt>
      <trkpt lat="45.79054" lon="4.80597">
        <ele>251.195924</ele>
        <time>2021-04-24T06:42:17.492Z</time>
      </trkpt>
      <trkpt lat="45.79057" lon="4.80584">
        <ele>251.473418</ele>
        <time>2021-04-24T06:42:20.513Z</time>
      </trkpt>
      <trkpt lat="45.79063" lon="4.80573">
        <ele>251.733296</ele>
        <time>2021-04-24T06:42:23.497Z</time>
      </trkpt>
      <trkpt lat="45.7907" lon="4.80564">
        <ele>251.996667</ele>
        <time>2021-04-24T06:42:26.498Z</time>
      </trkpt>
      <trkpt lat="45.79078" lon="4.80558">
        <ele>252.267545</ele>
        <time>2021-04-24T06:42:29.498Z</time>
      </trkpt>
      <trkpt lat="45.79086" lon="4.80551">
        <ele>252.543865</ele>
        <time>2021-04-24T06:42:32.492Z</time>
      </trkpt>
      <trkpt lat="45.79094" lon="4.80542">
        <ele>252.819506</ele>
        <time>2021-04-24T06:42:35.502Z</time>
      </trkpt>
      <trkpt lat="45.791" lon="4.80533">
        <ele>253.077513</ele>
        <time>2021-04-24T06:42:38.501Z</time>
      </trkpt>
      <trkpt lat="45.79106" lon="4.80523">
        <ele>253.341928</ele>
        <time>2021-04-24T06:42:41.500Z</time>
      </trkpt>
      <trkpt lat="45.79112" lon="4.80512">
        <ele>253.616263</ele>
        <time>2021-04-24T06:42:44.491Z</time>
      </trkpt>
      <trkpt lat="45.79118" lon="4.80501">
        <ele>253.872987</ele>
        <time>2021-04-24T06:42:47.516Z</time>
      </trkpt>
      <trkpt lat="45.79123" lon="4.8049">
        <ele>254.145711</ele>
        <time>2021-04-24T06:42:50.490Z</time>
      </trkpt>
      <trkpt lat="45.7913" lon="4.80479">
        <ele>254.698671</ele>
        <time>2021-04-24T06:42:53.508Z</time>
      </trkpt>
      <trkpt lat="45.79137" lon="4.80471">
        <ele>255.24572</ele>
        <time>2021-04-24T06:42:56.504Z</time>
      </trkpt>
      <trkpt lat="45.79145" lon="4.80464">
        <ele>255.781914</ele>
        <time>2021-04-24T06:42:59.502Z</time>
      </trkpt>
      <trkpt lat="45.79153" lon="4.80458">
        <ele>256.307379</ele>
        <time>2021-04-24T06:43:02.495Z</time>
      </trkpt>
      <trkpt lat="45.79162" lon="4.80453">
        <ele>256.825625</ele>
        <time>2021-04-24T06:43:05.504Z</time>
      </trkpt>
      <trkpt lat="45.79172" lon="4.80448">
        <ele>257.465282</ele>
        <time>2021-04-24T06:43:09.500Z</time>
      </trkpt>
      <trkpt lat="45.79181" lon="4.80444">
        <ele>257.999242</ele>
        <time>2021-04-24T06:43:12.494Z</time>
      </trkpt>
      <trkpt lat="45.79191" lon="4.80437">
        <ele>258.656093</ele>
        <time>2021-04-24T06:43:16.502Z</time>
      </trkpt>
      <trkpt lat="45.79199" lon="4.8043">
        <ele>259.188456</ele>
        <time>2021-04-24T06:43:19.525Z</time>
      </trkpt>
      <trkpt lat="45.79206" lon="4.80421">
        <ele>259.723096</ele>
        <time>2021-04-24T06:43:22.505Z</time>
      </trkpt>
      <trkpt lat="45.79213" lon="4.80408">
        <ele>260.367537</ele>
        <time>2021-04-24T06:43:26.534Z</time>
      </trkpt>
      <trkpt lat="45.79218" lon="4.80397">
        <ele>260.909567</ele>
        <time>2021-04-24T06:43:29.506Z</time>
      </trkpt>
      <trkpt lat="45.79223" lon="4.80386">
        <ele>261.428624</ele>
        <time>2021-04-24T06:43:32.517Z</time>
      </trkpt>
      <trkpt lat="45.79228" lon="4.80375">
        <ele>261.951699</ele>
        <time>2021-04-24T06:43:35.500Z</time>
      </trkpt>
      <trkpt lat="45.79233" lon="4.80364">
        <ele>262.498797</ele>
        <time>2021-04-24T06:43:38.497Z</time>
      </trkpt>
      <trkpt lat="45.7924" lon="4.80354">
        <ele>263.056501</ele>
        <time>2021-04-24T06:43:41.501Z</time>
      </trkpt>
      <trkpt lat="45.79248" lon="4.80347">
        <ele>263.596568</ele>
        <time>2021-04-24T06:43:44.491Z</time>
      </trkpt>
      <trkpt lat="45.7926" lon="4.80341">
        <ele>264.284665</ele>
        <time>2021-04-24T06:43:48.504Z</time>
      </trkpt>
      <trkpt lat="45.79269" lon="4.80341">
        <ele>264.884866</ele>
        <time>2021-04-24T06:43:51.492Z</time>
      </trkpt>
      <trkpt lat="45.7928" lon="4.80344">
        <ele>265.709072</ele>
        <time>2021-04-24T06:43:55.506Z</time>
      </trkpt>
      <trkpt lat="45.79288" lon="4.80351">
        <ele>266.339875</ele>
        <time>2021-04-24T06:43:58.517Z</time>
      </trkpt>
      <trkpt lat="45.79295" lon="4.80359">
        <ele>266.979336</ele>
        <time>2021-04-24T06:44:01.525Z</time>
      </trkpt>
      <trkpt lat="45.79303" lon="4.80368">
        <ele>267.679346</ele>
        <time>2021-04-24T06:44:04.515Z</time>
      </trkpt>
      <trkpt lat="45.7931" lon="4.80377">
        <ele>268.341929</ele>
        <time>2021-04-24T06:44:07.496Z</time>
      </trkpt>
      <trkpt lat="45.79318" lon="4.80387">
        <ele>269.093663</ele>
        <time>2021-04-24T06:44:12.506Z</time>
      </trkpt>
      <trkpt lat="45.79326" lon="4.80396">
        <ele>269.807641</ele>
        <time>2021-04-24T06:44:16.506Z</time>
      </trkpt>
      <trkpt lat="45.79333" lon="4.80406">
        <ele>270.501729</ele>
        <time>2021-04-24T06:44:19.509Z</time>
      </trkpt>
      <trkpt lat="45.7934" lon="4.80415">
        <ele>271.162306</ele>
        <time>2021-04-24T06:44:22.525Z</time>
      </trkpt>
      <trkpt lat="45.79349" lon="4.80425">
        <ele>271.914945</ele>
        <time>2021-04-24T06:44:26.519Z</time>
      </trkpt>
      <trkpt lat="45.79358" lon="4.80433">
        <ele>272.680177</ele>
        <time>2021-04-24T06:44:30.502Z</time>
      </trkpt>
      <trkpt lat="45.79367" lon="4.8044">
        <ele>273.393223</ele>
        <time>2021-04-24T06:44:33.503Z</time>
      </trkpt>
      <trkpt lat="45.79377" lon="4.80444">
        <ele>274.142359</ele>
        <time>2021-04-24T06:44:36.539Z</time>
      </trkpt>
      <trkpt lat="45.79388" lon="4.80448">
        <ele>274.922317</ele>
        <time>2021-04-24T06:44:39.499Z</time>
      </trkpt>
      <trkpt lat="45.79398" lon="4.80448">
        <ele>275.628554</ele>
        <time>2021-04-24T06:44:42.504Z</time>
      </trkpt>
      <trkpt lat="45.79407" lon="4.80448">
        <ele>276.286295</ele>
        <time>2021-04-24T06:44:45.501Z</time>
      </trkpt>
      <trkpt lat="45.79418" lon="4.80445">
        <ele>277.03055</ele>
        <time>2021-04-24T06:44:48.558Z</time>
      </trkpt>
      <trkpt lat="45.79429" lon="4.80442">
        <ele>278.147995</ele>
        <time>2021-04-24T06:44:51.520Z</time>
      </trkpt>
      <trkpt lat="45.79439" lon="4.8044">
        <ele>279.186411</ele>
        <time>2021-04-24T06:44:54.516Z</time>
      </trkpt>
      <trkpt lat="45.79449" lon="4.80438">
        <ele>280.247183</ele>
        <time>2021-04-24T06:44:57.496Z</time>
      </trkpt>
      <trkpt lat="45.79459" lon="4.80437">
        <ele>281.289374</ele>
        <time>2021-04-24T06:45:00.543Z</time>
      </trkpt>
      <trkpt lat="45.79469" lon="4.80436">
        <ele>282.269455</ele>
        <time>2021-04-24T06:45:03.498Z</time>
      </trkpt>
      <trkpt lat="45.79478" lon="4.80436">
        <ele>283.207218</ele>
        <time>2021-04-24T06:45:06.511Z</time>
      </trkpt>
      <trkpt lat="45.79487" lon="4.80434">
        <ele>284.140787</ele>
        <time>2021-04-24T06:45:09.500Z</time>
      </trkpt>
      <trkpt lat="45.79496" lon="4.80433">
        <ele>285.104184</ele>
        <time>2021-04-24T06:45:12.507Z</time>
      </trkpt>
      <trkpt lat="45.79507" lon="4.80431">
        <ele>286.264351</ele>
        <time>2021-04-24T06:45:16.503Z</time>
      </trkpt>
      <trkpt lat="45.79516" lon="4.80427">
        <ele>287.214647</ele>
        <time>2021-04-24T06:45:19.508Z</time>
      </trkpt>
      <trkpt lat="45.79526" lon="4.80424">
        <ele>288.272598</ele>
        <time>2021-04-24T06:45:22.514Z</time>
      </trkpt>
      <trkpt lat="45.79536" lon="4.80423">
        <ele>289.302119</ele>
        <time>2021-04-24T06:45:25.507Z</time>
      </trkpt>
      <trkpt lat="45.79546" lon="4.80423">
        <ele>290.341835</ele>
        <time>2021-04-24T06:45:28.522Z</time>
      </trkpt>
      <trkpt lat="45.79555" lon="4.80421">
        <ele>291.281673</ele>
        <time>2021-04-24T06:45:31.505Z</time>
      </trkpt>
      <trkpt lat="45.79564" lon="4.8042">
        <ele>292.2553</ele>
        <time>2021-04-24T06:45:34.494Z</time>
      </trkpt>
      <trkpt lat="45.79574" lon="4.80419">
        <ele>293.275337</ele>
        <time>2021-04-24T06:45:37.497Z</time>
      </trkpt>
      <trkpt lat="45.79583" lon="4.80418">
        <ele>294.206502</ele>
        <time>2021-04-24T06:45:40.501Z</time>
      </trkpt>
      <trkpt lat="45.79594" lon="4.8042">
        <ele>295.351893</ele>
        <time>2021-04-24T06:45:44.497Z</time>
      </trkpt>
      <trkpt lat="45.79604" lon="4.8042">
        <ele>296.012676</ele>
        <time>2021-04-24T06:45:47.512Z</time>
      </trkpt>
      <trkpt lat="45.79613" lon="4.8042">
        <ele>296.524756</ele>
        <time>2021-04-24T06:45:50.496Z</time>
      </trkpt>
      <trkpt lat="45.79623" lon="4.80421">
        <ele>297.071357</ele>
        <time>2021-04-24T06:45:53.497Z</time>
      </trkpt>
      <trkpt lat="45.79632" lon="4.80422">
        <ele>297.601357</ele>
        <time>2021-04-24T06:45:56.494Z</time>
      </trkpt>
      <trkpt lat="45.79644" lon="4.80421">
        <ele>298.249283</ele>
        <time>2021-04-24T06:46:00.505Z</time>
      </trkpt>
      <trkpt lat="45.79654" lon="4.8042">
        <ele>298.797009</ele>
        <time>2021-04-24T06:46:03.505Z</time>
      </trkpt>
      <trkpt lat="45.79663" lon="4.80417">
        <ele>299.347844</ele>
        <time>2021-04-24T06:46:06.499Z</time>
      </trkpt>
      <trkpt lat="45.79672" lon="4.80411">
        <ele>299.895178</ele>
        <time>2021-04-24T06:46:09.501Z</time>
      </trkpt>
      <trkpt lat="45.7968" lon="4.80405">
        <ele>300.429077</ele>
        <time>2021-04-24T06:46:12.494Z</time>
      </trkpt>
      <trkpt lat="45.7969" lon="4.80395">
        <ele>301.097008</ele>
        <time>2021-04-24T06:46:16.507Z</time>
      </trkpt>
      <trkpt lat="45.79699" lon="4.80389">
        <ele>301.637728</ele>
        <time>2021-04-24T06:46:19.494Z</time>
      </trkpt>
      <trkpt lat="45.79707" lon="4.80382">
        <ele>302.168643</ele>
        <time>2021-04-24T06:46:22.499Z</time>
      </trkpt>
      <trkpt lat="45.79715" lon="4.80376">
        <ele>302.680203</ele>
        <time>2021-04-24T06:46:25.532Z</time>
      </trkpt>
      <trkpt lat="45.79725" lon="4.80367">
        <ele>303.356579</ele>
        <time>2021-04-24T06:46:29.521Z</time>
      </trkpt>
      <trkpt lat="45.79733" lon="4.8036">
        <ele>303.894252</ele>
        <time>2021-04-24T06:46:32.499Z</time>
      </trkpt>
      <trkpt lat="45.79743" lon="4.80355">
        <ele>304.466296</ele>
        <time>2021-04-24T06:46:35.550Z</time>
      </trkpt>
      <trkpt lat="45.79753" lon="4.80352">
        <ele>305.046555</ele>
        <time>2021-04-24T06:46:38.490Z</time>
      </trkpt>
      <trkpt lat="45.79763" lon="4.80349">
        <ele>305.605859</ele>
        <time>2021-04-24T06:46:41.525Z</time>
      </trkpt>
      <trkpt lat="45.79772" lon="4.80348">
        <ele>306.376072</ele>
        <time>2021-04-24T06:46:44.492Z</time>
      </trkpt>
      <trkpt lat="45.79781" lon="4.80349">
        <ele>307.222193</ele>
        <time>2021-04-24T06:46:47.550Z</time>
      </trkpt>
      <trkpt lat="45.79791" lon="4.80352">
        <ele>308.176625</ele>
        <time>2021-04-24T06:46:51.496Z</time>
      </trkpt>
      <trkpt lat="45.798" lon="4.80357">
        <ele>309.042832</ele>
        <time>2021-04-24T06:46:54.505Z</time>
      </trkpt>
      <trkpt lat="45.79808" lon="4.80364">
        <ele>309.959991</ele>
        <time>2021-04-24T06:46:57.507Z</time>
      </trkpt>
      <trkpt lat="45.79814" lon="4.80376">
        <ele>310.876207</ele>
        <time>2021-04-24T06:47:00.509Z</time>
      </trkpt>
      <trkpt lat="45.79821" lon="4.80385">
        <ele>311.727449</ele>
        <time>2021-04-24T06:47:03.500Z</time>
      </trkpt>
      <trkpt lat="45.79831" lon="4.80387">
        <ele>312.697213</ele>
        <time>2021-04-24T06:47:06.510Z</time>
      </trkpt>
      <trkpt lat="45.79841" lon="4.8039">
        <ele>313.643216</ele>
        <time>2021-04-24T06:47:09.490Z</time>
      </trkpt>
      <trkpt lat="45.79851" lon="4.80394">
        <ele>314.542526</ele>
        <time>2021-04-24T06:47:12.515Z</time>
      </trkpt>
      <trkpt lat="45.79861" lon="4.80394">
        <ele>315.489676</ele>
        <time>2021-04-24T06:47:15.503Z</time>
      </trkpt>
      <trkpt lat="45.79871" lon="4.80391">
        <ele>316.466842</ele>
        <time>2021-04-24T06:47:18.710Z</time>
      </trkpt>
      <trkpt lat="45.79882" lon="4.8039">
        <ele>317.42746</ele>
        <time>2021-04-24T06:47:21.505Z</time>
      </trkpt>
      <trkpt lat="45.79892" lon="4.80388">
        <ele>318.369792</ele>
        <time>2021-04-24T06:47:24.502Z</time>
      </trkpt>
      <trkpt lat="45.79902" lon="4.80387">
        <ele>319.290258</ele>
        <time>2021-04-24T06:47:27.520Z</time>
      </trkpt>
      <trkpt lat="45.79913" lon="4.80385">
        <ele>320.284609</ele>
        <time>2021-04-24T06:47:30.495Z</time>
      </trkpt>
      <trkpt lat="45.79923" lon="4.80382">
        <ele>321.255962</ele>
        <time>2021-04-24T06:47:33.498Z</time>
      </trkpt>
      <trkpt lat="45.79933" lon="4.80377">
        <ele>322.237281</ele>
        <time>2021-04-24T06:47:36.500Z</time>
      </trkpt>
      <trkpt lat="45.79944" lon="4.8037">
        <ele>322.466854</ele>
        <time>2021-04-24T06:47:39.497Z</time>
      </trkpt>
      <trkpt lat="45.79954" lon="4.80363">
        <ele>322.715671</ele>
        <time>2021-04-24T06:47:42.492Z</time>
      </trkpt>
      <trkpt lat="45.79965" lon="4.80355">
        <ele>322.965704</ele>
        <time>2021-04-24T06:47:45.501Z</time>
      </trkpt>
      <trkpt lat="45.79976" lon="4.80349">
        <ele>323.201071</ele>
        <time>2021-04-24T06:47:48.517Z</time>
      </trkpt>
      <trkpt lat="45.79987" lon="4.80343">
        <ele>323.451622</ele>
        <time>2021-04-24T06:47:51.518Z</time>
      </trkpt>
      <trkpt lat="45.79999" lon="4.80339">
        <ele>323.706452</ele>
        <time>2021-04-24T06:47:54.504Z</time>
      </trkpt>
      <trkpt lat="45.80011" lon="4.80335">
        <ele>323.964636</ele>
        <time>2021-04-24T06:47:57.492Z</time>
      </trkpt>
      <trkpt lat="45.80024" lon="4.80331">
        <ele>324.22049</ele>
        <time>2021-04-24T06:48:00.506Z</time>
      </trkpt>
      <trkpt lat="45.80036" lon="4.80328">
        <ele>324.471545</ele>
        <time>2021-04-24T06:48:03.499Z</time>
      </trkpt>
      <trkpt lat="45.80048" lon="4.80326">
        <ele>324.721126</ele>
        <time>2021-04-24T06:48:06.503Z</time>
      </trkpt>
      <trkpt lat="45.80059" lon="4.80322">
        <ele>324.967994</ele>
        <time>2021-04-24T06:48:09.498Z</time>
      </trkpt>
      <trkpt lat="45.8007" lon="4.80317">
        <ele>325.201532</ele>
        <time>2021-04-24T06:48:12.499Z</time>
      </trkpt>
      <trkpt lat="45.80082" lon="4.80315">
        <ele>325.458806</ele>
        <time>2021-04-24T06:48:15.512Z</time>
      </trkpt>
      <trkpt lat="45.80094" lon="4.80313">
        <ele>325.698158</ele>
        <time>2021-04-24T06:48:18.498Z</time>
      </trkpt>
      <trkpt lat="45.80106" lon="4.80311">
        <ele>325.949114</ele>
        <time>2021-04-24T06:48:21.499Z</time>
      </trkpt>
      <trkpt lat="45.80117" lon="4.80306">
        <ele>326.555235</ele>
        <time>2021-04-24T06:48:24.499Z</time>
      </trkpt>
      <trkpt lat="45.80129" lon="4.80302">
        <ele>327.158968</ele>
        <time>2021-04-24T06:48:27.529Z</time>
      </trkpt>
      <trkpt lat="45.8014" lon="4.80299">
        <ele>327.728866</ele>
        <time>2021-04-24T06:48:30.495Z</time>
      </trkpt>
      <trkpt lat="45.80151" lon="4.80298">
        <ele>328.29997</ele>
        <time>2021-04-24T06:48:33.489Z</time>
      </trkpt>
      <trkpt lat="45.80164" lon="4.80296">
        <ele>328.917935</ele>
        <time>2021-04-24T06:48:36.499Z</time>
      </trkpt>
      <trkpt lat="45.80176" lon="4.80293">
        <ele>329.554092</ele>
        <time>2021-04-24T06:48:39.541Z</time>
      </trkpt>
      <trkpt lat="45.80188" lon="4.8029">
        <ele>330.17824</ele>
        <time>2021-04-24T06:48:42.489Z</time>
      </trkpt>
      <trkpt lat="45.802" lon="4.80287">
        <ele>330.773541</ele>
        <time>2021-04-24T06:48:45.509Z</time>
      </trkpt>
      <trkpt lat="45.80212" lon="4.80285">
        <ele>331.374887</ele>
        <time>2021-04-24T06:48:48.516Z</time>
      </trkpt>
      <trkpt lat="45.80223" lon="4.80281">
        <ele>331.967248</ele>
        <time>2021-04-24T06:48:51.555Z</time>
      </trkpt>
      <trkpt lat="45.80235" lon="4.80278">
        <ele>332.580866</ele>
        <time>2021-04-24T06:48:54.497Z</time>
      </trkpt>
      <trkpt lat="45.80246" lon="4.80273">
        <ele>333.160521</ele>
        <time>2021-04-24T06:48:57.522Z</time>
      </trkpt>
      <trkpt lat="45.80257" lon="4.80267">
        <ele>333.762568</ele>
        <time>2021-04-24T06:49:00.520Z</time>
      </trkpt>
      <trkpt lat="45.80269" lon="4.8026">
        <ele>334.375262</ele>
        <time>2021-04-24T06:49:03.550Z</time>
      </trkpt>
      <trkpt lat="45.8028" lon="4.80255">
        <ele>334.979441</ele>
        <time>2021-04-24T06:49:06.512Z</time>
      </trkpt>
      <trkpt lat="45.80292" lon="4.8025">
        <ele>335.709066</ele>
        <time>2021-04-24T06:49:09.498Z</time>
      </trkpt>
      <trkpt lat="45.80303" lon="4.80245">
        <ele>336.396101</ele>
        <time>2021-04-24T06:49:12.500Z</time>
      </trkpt>
      <trkpt lat="45.80313" lon="4.80242">
        <ele>337.050499</ele>
        <time>2021-04-24T06:49:15.502Z</time>
      </trkpt>
      <trkpt lat="45.80324" lon="4.80239">
        <ele>337.708658</ele>
        <time>2021-04-24T06:49:18.520Z</time>
      </trkpt>
      <trkpt lat="45.80334" lon="4.80235">
        <ele>338.352881</ele>
        <time>2021-04-24T06:49:21.513Z</time>
      </trkpt>
      <trkpt lat="45.80345" lon="4.80233">
        <ele>338.972826</ele>
        <time>2021-04-24T06:49:24.504Z</time>
      </trkpt>
      <trkpt lat="45.80357" lon="4.80232">
        <ele>339.690525</ele>
        <time>2021-04-24T06:49:27.502Z</time>
      </trkpt>
      <trkpt lat="45.80367" lon="4.80227">
        <ele>340.341784</ele>
        <time>2021-04-24T06:49:30.512Z</time>
      </trkpt>
      <trkpt lat="45.8038" lon="4.80223">
        <ele>341.156064</ele>
        <time>2021-04-24T06:49:33.498Z</time>
      </trkpt>
      <trkpt lat="45.80392" lon="4.80221">
        <ele>341.852505</ele>
        <time>2021-04-24T06:49:36.493Z</time>
      </trkpt>
      <trkpt lat="45.80403" lon="4.8022">
        <ele>342.552855</ele>
        <time>2021-04-24T06:49:40.499Z</time>
      </trkpt>
      <trkpt lat="45.80414" lon="4.8022">
        <ele>343.184908</ele>
        <time>2021-04-24T06:49:43.493Z</time>
      </trkpt>
      <trkpt lat="45.80425" lon="4.80221">
        <ele>343.876826</ele>
        <time>2021-04-24T06:49:46.500Z</time>
      </trkpt>
      <trkpt lat="45.80437" lon="4.80219">
        <ele>344.583917</ele>
        <time>2021-04-24T06:49:49.516Z</time>
      </trkpt>
      <trkpt lat="45.80448" lon="4.80215">
        <ele>345.264623</ele>
        <time>2021-04-24T06:49:52.517Z</time>
      </trkpt>
      <trkpt lat="45.80458" lon="4.80212">
        <ele>345.954665</ele>
        <time>2021-04-24T06:49:55.505Z</time>
      </trkpt>
      <trkpt lat="45.80468" lon="4.80207">
        <ele>346.928662</ele>
        <time>2021-04-24T06:49:58.515Z</time>
      </trkpt>
      <trkpt lat="45.80478" lon="4.802">
        <ele>347.958801</ele>
        <time>2021-04-24T06:50:01.501Z</time>
      </trkpt>
      <trkpt lat="45.80488" lon="4.80195">
        <ele>348.93959</ele>
        <time>2021-04-24T06:50:04.502Z</time>
      </trkpt>
      <trkpt lat="45.80497" lon="4.80191">
        <ele>349.85722</ele>
        <time>2021-04-24T06:50:07.505Z</time>
      </trkpt>
      <trkpt lat="45.80508" lon="4.80185">
        <ele>350.925638</ele>
        <time>2021-04-24T06:50:11.490Z</time>
      </trkpt>
      <trkpt lat="45.8052" lon="4.8018">
        <ele>352.056337</ele>
        <time>2021-04-24T06:50:15.504Z</time>
      </trkpt>
      <trkpt lat="45.80529" lon="4.80176">
        <ele>353.013427</ele>
        <time>2021-04-24T06:50:18.516Z</time>
      </trkpt>
      <trkpt lat="45.80539" lon="4.8017">
        <ele>353.955358</ele>
        <time>2021-04-24T06:50:21.491Z</time>
      </trkpt>
      <trkpt lat="45.80548" lon="4.80166">
        <ele>354.854871</ele>
        <time>2021-04-24T06:50:24.546Z</time>
      </trkpt>
      <trkpt lat="45.80558" lon="4.80166">
        <ele>355.805572</ele>
        <time>2021-04-24T06:50:27.499Z</time>
      </trkpt>
      <trkpt lat="45.80568" lon="4.80163">
        <ele>356.717363</ele>
        <time>2021-04-24T06:50:30.520Z</time>
      </trkpt>
      <trkpt lat="45.80577" lon="4.80162">
        <ele>357.618138</ele>
        <time>2021-04-24T06:50:33.498Z</time>
      </trkpt>
      <trkpt lat="45.80586" lon="4.80158">
        <ele>358.483939</ele>
        <time>2021-04-24T06:50:36.502Z</time>
      </trkpt>
      <trkpt lat="45.80598" lon="4.80154">
        <ele>359.6074</ele>
        <time>2021-04-24T06:50:40.512Z</time>
      </trkpt>
      <trkpt lat="45.8061" lon="4.8015">
        <ele>360.720034</ele>
        <time>2021-04-24T06:50:44.490Z</time>
      </trkpt>
      <trkpt lat="45.80619" lon="4.80148">
        <ele>361.622401</ele>
        <time>2021-04-24T06:50:47.502Z</time>
      </trkpt>
      <trkpt lat="45.80629" lon="4.80146">
        <ele>362.528502</ele>
        <time>2021-04-24T06:50:50.511Z</time>
      </trkpt>
      <trkpt lat="45.80639" lon="4.80144">
        <ele>362.904424</ele>
        <time>2021-04-24T06:50:53.518Z</time>
      </trkpt>
      <trkpt lat="45.80649" lon="4.80141">
        <ele>363.250357</ele>
        <time>2021-04-24T06:50:56.500Z</time>
      </trkpt>
      <trkpt lat="45.80659" lon="4.80136">
        <ele>363.618483</ele>
        <time>2021-04-24T06:50:59.505Z</time>
      </trkpt>
      <trkpt lat="45.8067" lon="4.80133">
        <ele>363.975334</ele>
        <time>2021-04-24T06:51:02.501Z</time>
      </trkpt>
      <trkpt lat="45.80679" lon="4.80127">
        <ele>364.322968</ele>
        <time>2021-04-24T06:51:05.504Z</time>
      </trkpt>
      <trkpt lat="45.80689" lon="4.80123">
        <ele>364.659518</ele>
        <time>2021-04-24T06:51:08.498Z</time>
      </trkpt>
      <trkpt lat="45.80698" lon="4.80118">
        <ele>364.993526</ele>
        <time>2021-04-24T06:51:11.511Z</time>
      </trkpt>
      <trkpt lat="45.80707" lon="4.80112">
        <ele>365.315968</ele>
        <time>2021-04-24T06:51:14.491Z</time>
      </trkpt>
      <trkpt lat="45.80716" lon="4.80107">
        <ele>365.646198</ele>
        <time>2021-04-24T06:51:17.513Z</time>
      </trkpt>
      <trkpt lat="45.80725" lon="4.80103">
        <ele>365.9707</ele>
        <time>2021-04-24T06:51:20.495Z</time>
      </trkpt>
      <trkpt lat="45.80734" lon="4.80098">
        <ele>366.303322</ele>
        <time>2021-04-24T06:51:23.496Z</time>
      </trkpt>
      <trkpt lat="45.80744" lon="4.80093">
        <ele>366.639334</ele>
        <time>2021-04-24T06:51:26.499Z</time>
      </trkpt>
      <trkpt lat="45.80753" lon="4.80088">
        <ele>366.96065</ele>
        <time>2021-04-24T06:51:29.508Z</time>
      </trkpt>
      <trkpt lat="45.80762" lon="4.80083">
        <ele>367.305147</ele>
        <time>2021-04-24T06:51:32.506Z</time>
      </trkpt>
      <trkpt lat="45.80771" lon="4.80078">
        <ele>367.632014</ele>
        <time>2021-04-24T06:51:35.512Z</time>
      </trkpt>
      <trkpt lat="45.8078" lon="4.80071">
        <ele>367.979017</ele>
        <time>2021-04-24T06:51:38.509Z</time>
      </trkpt>
      <trkpt lat="45.80788" lon="4.80061">
        <ele>368.337759</ele>
        <time>2021-04-24T06:51:41.501Z</time>
      </trkpt>
      <trkpt lat="45.80795" lon="4.8005">
        <ele>368.65857</ele>
        <time>2021-04-24T06:51:44.502Z</time>
      </trkpt>
      <trkpt lat="45.80801" lon="4.80039">
        <ele>368.797235</ele>
        <time>2021-04-24T06:51:47.507Z</time>
      </trkpt>
      <trkpt lat="45.80807" lon="4.80028">
        <ele>368.945772</ele>
        <time>2021-04-24T06:51:50.505Z</time>
      </trkpt>
      <trkpt lat="45.80813" lon="4.80017">
        <ele>369.081968</ele>
        <time>2021-04-24T06:51:53.498Z</time>
      </trkpt>
      <trkpt lat="45.8082" lon="4.80006">
        <ele>369.227252</ele>
        <time>2021-04-24T06:51:56.511Z</time>
      </trkpt>
      <trkpt lat="45.80826" lon="4.79994">
        <ele>369.381516</ele>
        <time>2021-04-24T06:51:59.506Z</time>
      </trkpt>
      <trkpt lat="45.80832" lon="4.7998">
        <ele>369.544676</ele>
        <time>2021-04-24T06:52:02.548Z</time>
      </trkpt>
      <trkpt lat="45.80839" lon="4.79969">
        <ele>369.691164</ele>
        <time>2021-04-24T06:52:05.505Z</time>
      </trkpt>
      <trkpt lat="45.80846" lon="4.79961">
        <ele>369.823431</ele>
        <time>2021-04-24T06:52:08.507Z</time>
      </trkpt>
      <trkpt lat="45.80852" lon="4.79949">
        <ele>369.973343</ele>
        <time>2021-04-24T06:52:11.497Z</time>
      </trkpt>
      <trkpt lat="45.80857" lon="4.79936">
        <ele>370.126634</ele>
        <time>2021-04-24T06:52:14.507Z</time>
      </trkpt>
      <trkpt lat="45.80863" lon="4.79923">
        <ele>370.279017</ele>
        <time>2021-04-24T06:52:17.506Z</time>
      </trkpt>
      <trkpt lat="45.80869" lon="4.79911">
        <ele>370.425683</ele>
        <time>2021-04-24T06:52:20.520Z</time>
      </trkpt>
      <trkpt lat="45.80874" lon="4.79899">
        <ele>370.568206</ele>
        <time>2021-04-24T06:52:23.499Z</time>
      </trkpt>
      <trkpt lat="45.8088" lon="4.79886">
        <ele>370.72079</ele>
        <time>2021-04-24T06:52:26.495Z</time>
      </trkpt>
      <trkpt lat="45.80887" lon="4.79874">
        <ele>370.878236</ele>
        <time>2021-04-24T06:52:29.517Z</time>
      </trkpt>
      <trkpt lat="45.80895" lon="4.79864">
        <ele>371.033073</ele>
        <time>2021-04-24T06:52:32.492Z</time>
      </trkpt>
      <trkpt lat="45.80906" lon="4.79859">
        <ele>371.194113</ele>
        <time>2021-04-24T06:52:35.502Z</time>
      </trkpt>
      <trkpt lat="45.80917" lon="4.79855">
        <ele>372.285099</ele>
        <time>2021-04-24T06:52:39.515Z</time>
      </trkpt>
      <trkpt lat="45.80927" lon="4.79857">
        <ele>373.484064</ele>
        <time>2021-04-24T06:52:42.486Z</time>
      </trkpt>
      <trkpt lat="45.80936" lon="4.79855">
        <ele>374.679288</ele>
        <time>2021-04-24T06:52:45.504Z</time>
      </trkpt>
      <trkpt lat="45.80945" lon="4.79851">
        <ele>375.771483</ele>
        <time>2021-04-24T06:52:48.505Z</time>
      </trkpt>
      <trkpt lat="45.80956" lon="4.79845">
        <ele>377.183769</ele>
        <time>2021-04-24T06:52:51.502Z</time>
      </trkpt>
      <trkpt lat="45.80965" lon="4.79841">
        <ele>378.272554</ele>
        <time>2021-04-24T06:52:53.529Z</time>
      </trkpt>
      <trkpt lat="45.80976" lon="4.79836">
        <ele>379.677345</ele>
        <time>2021-04-24T06:52:56.502Z</time>
      </trkpt>
      <trkpt lat="45.80988" lon="4.79834">
        <ele>381.063265</ele>
        <time>2021-04-24T06:52:59.543Z</time>
      </trkpt>
      <trkpt lat="45.80997" lon="4.79839">
        <ele>382.233602</ele>
        <time>2021-04-24T06:53:02.525Z</time>
      </trkpt>
      <trkpt lat="45.81007" lon="4.79843">
        <ele>383.520801</ele>
        <time>2021-04-24T06:53:05.532Z</time>
      </trkpt>
      <trkpt lat="45.81018" lon="4.7984">
        <ele>384.807852</ele>
        <time>2021-04-24T06:53:08.505Z</time>
      </trkpt>
      <trkpt lat="45.81028" lon="4.79838">
        <ele>386.06991</ele>
        <time>2021-04-24T06:53:11.543Z</time>
      </trkpt>
      <trkpt lat="45.81039" lon="4.79837">
        <ele>387.362772</ele>
        <time>2021-04-24T06:53:14.500Z</time>
      </trkpt>
      <trkpt lat="45.81049" lon="4.79835">
        <ele>388.565686</ele>
        <time>2021-04-24T06:53:17.513Z</time>
      </trkpt>
      <trkpt lat="45.81058" lon="4.79835">
        <ele>389.702177</ele>
        <time>2021-04-24T06:53:20.511Z</time>
      </trkpt>
      <trkpt lat="45.8107" lon="4.79834">
        <ele>391.101808</ele>
        <time>2021-04-24T06:53:24.510Z</time>
      </trkpt>
      <trkpt lat="45.8108" lon="4.79832">
        <ele>392.278564</ele>
        <time>2021-04-24T06:53:27.513Z</time>
      </trkpt>
      <trkpt lat="45.8109" lon="4.79831">
        <ele>393.138254</ele>
        <time>2021-04-24T06:53:30.499Z</time>
      </trkpt>
      <trkpt lat="45.811" lon="4.79831">
        <ele>393.807429</ele>
        <time>2021-04-24T06:53:33.514Z</time>
      </trkpt>
      <trkpt lat="45.81109" lon="4.7983">
        <ele>394.411599</ele>
        <time>2021-04-24T06:53:36.508Z</time>
      </trkpt>
      <trkpt lat="45.81118" lon="4.7983">
        <ele>395.033931</ele>
        <time>2021-04-24T06:53:39.506Z</time>
      </trkpt>
      <trkpt lat="45.81127" lon="4.79829">
        <ele>395.644701</ele>
        <time>2021-04-24T06:53:42.497Z</time>
      </trkpt>
      <trkpt lat="45.81137" lon="4.79829">
        <ele>396.280221</ele>
        <time>2021-04-24T06:53:45.503Z</time>
      </trkpt>
      <trkpt lat="45.81147" lon="4.79829">
        <ele>396.915792</ele>
        <time>2021-04-24T06:53:48.506Z</time>
      </trkpt>
      <trkpt lat="45.81156" lon="4.79829">
        <ele>397.557932</ele>
        <time>2021-04-24T06:53:51.515Z</time>
      </trkpt>
      <trkpt lat="45.81166" lon="4.79829">
        <ele>398.167026</ele>
        <time>2021-04-24T06:53:54.507Z</time>
      </trkpt>
      <trkpt lat="45.81175" lon="4.79829">
        <ele>398.822795</ele>
        <time>2021-04-24T06:53:57.516Z</time>
      </trkpt>
      <trkpt lat="45.81184" lon="4.79825">
        <ele>399.443014</ele>
        <time>2021-04-24T06:54:00.518Z</time>
      </trkpt>
      <trkpt lat="45.81193" lon="4.79819">
        <ele>400.087997</ele>
        <time>2021-04-24T06:54:03.483Z</time>
      </trkpt>
      <trkpt lat="45.81203" lon="4.79814">
        <ele>400.754916</ele>
        <time>2021-04-24T06:54:06.508Z</time>
      </trkpt>
      <trkpt lat="45.81213" lon="4.79809">
        <ele>401.483989</ele>
        <time>2021-04-24T06:54:09.502Z</time>
      </trkpt>
      <trkpt lat="45.81223" lon="4.79803">
        <ele>402.180603</ele>
        <time>2021-04-24T06:54:12.509Z</time>
      </trkpt>
      <trkpt lat="45.81232" lon="4.79798">
        <ele>402.833326</ele>
        <time>2021-04-24T06:54:15.506Z</time>
      </trkpt>
      <trkpt lat="45.81241" lon="4.79794">
        <ele>403.478275</ele>
        <time>2021-04-24T06:54:18.513Z</time>
      </trkpt>
      <trkpt lat="45.81252" lon="4.7979">
        <ele>404.212628</ele>
        <time>2021-04-24T06:54:22.495Z</time>
      </trkpt>
      <trkpt lat="45.81263" lon="4.79783">
        <ele>404.880586</ele>
        <time>2021-04-24T06:54:26.507Z</time>
      </trkpt>
      <trkpt lat="45.81272" lon="4.79778">
        <ele>405.325441</ele>
        <time>2021-04-24T06:54:29.494Z</time>
      </trkpt>
      <trkpt lat="45.81281" lon="4.79774">
        <ele>405.781512</ele>
        <time>2021-04-24T06:54:32.511Z</time>
      </trkpt>
      <trkpt lat="45.8129" lon="4.7977">
        <ele>406.23227</ele>
        <time>2021-04-24T06:54:35.494Z</time>
      </trkpt>
      <trkpt lat="45.81301" lon="4.79767">
        <ele>406.757466</ele>
        <time>2021-04-24T06:54:39.508Z</time>
      </trkpt>
      <trkpt lat="45.81311" lon="4.79764">
        <ele>407.199817</ele>
        <time>2021-04-24T06:54:42.491Z</time>
      </trkpt>
      <trkpt lat="45.81321" lon="4.7976">
        <ele>407.668322</ele>
        <time>2021-04-24T06:54:45.516Z</time>
      </trkpt>
      <trkpt lat="45.8133" lon="4.79757">
        <ele>408.112966</ele>
        <time>2021-04-24T06:54:48.501Z</time>
      </trkpt>
      <trkpt lat="45.8134" lon="4.79755">
        <ele>408.597922</ele>
        <time>2021-04-24T06:54:51.511Z</time>
      </trkpt>
      <trkpt lat="45.8135" lon="4.79753">
        <ele>409.073673</ele>
        <time>2021-04-24T06:54:54.499Z</time>
      </trkpt>
      <trkpt lat="45.8136" lon="4.79751">
        <ele>409.538322</ele>
        <time>2021-04-24T06:54:57.504Z</time>
      </trkpt>
      <trkpt lat="45.8137" lon="4.79749">
        <ele>409.99107</ele>
        <time>2021-04-24T06:55:00.496Z</time>
      </trkpt>
      <trkpt lat="45.8138" lon="4.79747">
        <ele>410.468036</ele>
        <time>2021-04-24T06:55:03.497Z</time>
      </trkpt>
      <trkpt lat="45.8139" lon="4.79744">
        <ele>410.938206</ele>
        <time>2021-04-24T06:55:06.526Z</time>
      </trkpt>
      <trkpt lat="45.81399" lon="4.79741">
        <ele>411.383658</ele>
        <time>2021-04-24T06:55:09.519Z</time>
      </trkpt>
      <trkpt lat="45.81411" lon="4.79739">
        <ele>411.916584</ele>
        <time>2021-04-24T06:55:12.513Z</time>
      </trkpt>
      <trkpt lat="45.81423" lon="4.79737">
        <ele>412.470975</ele>
        <time>2021-04-24T06:55:15.510Z</time>
      </trkpt>
      <trkpt lat="45.81434" lon="4.79732">
        <ele>412.987902</ele>
        <time>2021-04-24T06:55:18.506Z</time>
      </trkpt>
      <trkpt lat="45.81447" lon="4.79726">
        <ele>413.135703</ele>
        <time>2021-04-24T06:55:21.505Z</time>
      </trkpt>
      <trkpt lat="45.81456" lon="4.79722">
        <ele>413.239212</ele>
        <time>2021-04-24T06:55:23.496Z</time>
      </trkpt>
      <trkpt lat="45.81467" lon="4.79715">
        <ele>413.380471</ele>
        <time>2021-04-24T06:55:26.507Z</time>
      </trkpt>
      <trkpt lat="45.81479" lon="4.79709">
        <ele>413.516647</ele>
        <time>2021-04-24T06:55:29.527Z</time>
      </trkpt>
      <trkpt lat="45.81491" lon="4.79704">
        <ele>413.65806</ele>
        <time>2021-04-24T06:55:32.502Z</time>
      </trkpt>
      <trkpt lat="45.81503" lon="4.79699">
        <ele>413.799041</ele>
        <time>2021-04-24T06:55:35.502Z</time>
      </trkpt>
      <trkpt lat="45.81513" lon="4.79695">
        <ele>413.914185</ele>
        <time>2021-04-24T06:55:37.498Z</time>
      </trkpt>
      <trkpt lat="45.81524" lon="4.79694">
        <ele>414.042418</ele>
        <time>2021-04-24T06:55:40.509Z</time>
      </trkpt>
      <trkpt lat="45.81535" lon="4.79688">
        <ele>414.171221</ele>
        <time>2021-04-24T06:55:43.505Z</time>
      </trkpt>
      <trkpt lat="45.81547" lon="4.79684">
        <ele>414.311001</ele>
        <time>2021-04-24T06:55:46.510Z</time>
      </trkpt>
      <trkpt lat="45.81559" lon="4.7968">
        <ele>414.444421</ele>
        <time>2021-04-24T06:55:49.538Z</time>
      </trkpt>
      <trkpt lat="45.81571" lon="4.79675">
        <ele>414.584111</ele>
        <time>2021-04-24T06:55:52.503Z</time>
      </trkpt>
      <trkpt lat="45.81583" lon="4.79671">
        <ele>414.7238</ele>
        <time>2021-04-24T06:55:55.498Z</time>
      </trkpt>
      <trkpt lat="45.81594" lon="4.79664">
        <ele>414.862397</ele>
        <time>2021-04-24T06:55:58.497Z</time>
      </trkpt>
      <trkpt lat="45.81604" lon="4.79653">
        <ele>415.044599</ele>
        <time>2021-04-24T06:56:01.507Z</time>
      </trkpt>
      <trkpt lat="45.81615" lon="4.79644">
        <ele>415.605395</ele>
        <time>2021-04-24T06:56:04.503Z</time>
      </trkpt>
      <trkpt lat="45.81624" lon="4.79634">
        <ele>416.141571</ele>
        <time>2021-04-24T06:56:07.536Z</time>
      </trkpt>
      <trkpt lat="45.81635" lon="4.79625">
        <ele>416.686743</ele>
        <time>2021-04-24T06:56:10.512Z</time>
      </trkpt>
      <trkpt lat="45.81646" lon="4.79618">
        <ele>417.21994</ele>
        <time>2021-04-24T06:56:13.565Z</time>
      </trkpt>
      <trkpt lat="45.81656" lon="4.79611">
        <ele>417.746326</ele>
        <time>2021-04-24T06:56:16.523Z</time>
      </trkpt>
      <trkpt lat="45.81667" lon="4.79604">
        <ele>418.283615</ele>
        <time>2021-04-24T06:56:19.496Z</time>
      </trkpt>
      <trkpt lat="45.81677" lon="4.79595">
        <ele>418.819327</ele>
        <time>2021-04-24T06:56:22.508Z</time>
      </trkpt>
      <trkpt lat="45.81691" lon="4.79587">
        <ele>419.526654</ele>
        <time>2021-04-24T06:56:26.487Z</time>
      </trkpt>
      <trkpt lat="45.81702" lon="4.79581">
        <ele>420.053848</ele>
        <time>2021-04-24T06:56:29.505Z</time>
      </trkpt>
      <trkpt lat="45.81712" lon="4.79572">
        <ele>420.584657</ele>
        <time>2021-04-24T06:56:32.495Z</time>
      </trkpt>
      <trkpt lat="45.81722" lon="4.79561">
        <ele>421.163161</ele>
        <time>2021-04-24T06:56:35.495Z</time>
      </trkpt>
      <trkpt lat="45.81731" lon="4.79548">
        <ele>421.726167</ele>
        <time>2021-04-24T06:56:38.502Z</time>
      </trkpt>
      <trkpt lat="45.81738" lon="4.79534">
        <ele>422.276768</ele>
        <time>2021-04-24T06:56:41.494Z</time>
      </trkpt>
      <trkpt lat="45.81746" lon="4.79521">
        <ele>422.809405</ele>
        <time>2021-04-24T06:56:44.505Z</time>
      </trkpt>
      <trkpt lat="45.81754" lon="4.7951">
        <ele>423.402531</ele>
        <time>2021-04-24T06:56:47.519Z</time>
      </trkpt>
      <trkpt lat="45.81766" lon="4.79501">
        <ele>424.227858</ele>
        <time>2021-04-24T06:56:50.516Z</time>
      </trkpt>
      <trkpt lat="45.81777" lon="4.79495">
        <ele>425.014924</ele>
        <time>2021-04-24T06:56:53.502Z</time>
      </trkpt>
      <trkpt lat="45.81789" lon="4.7949">
        <ele>425.812813</ele>
        <time>2021-04-24T06:56:56.513Z</time>
      </trkpt>
      <trkpt lat="45.818" lon="4.79486">
        <ele>426.53079</ele>
        <time>2021-04-24T06:56:59.491Z</time>
      </trkpt>
      <trkpt lat="45.81811" lon="4.7948">
        <ele>427.262835</ele>
        <time>2021-04-24T06:57:02.493Z</time>
      </trkpt>
      <trkpt lat="45.81821" lon="4.79473">
        <ele>428.017083</ele>
        <time>2021-04-24T06:57:05.497Z</time>
      </trkpt>
      <trkpt lat="45.81832" lon="4.79469">
        <ele>428.725343</ele>
        <time>2021-04-24T06:57:08.501Z</time>
      </trkpt>
      <trkpt lat="45.81842" lon="4.79466">
        <ele>429.399307</ele>
        <time>2021-04-24T06:57:11.508Z</time>
      </trkpt>
      <trkpt lat="45.81853" lon="4.79462">
        <ele>430.079522</ele>
        <time>2021-04-24T06:57:14.509Z</time>
      </trkpt>
      <trkpt lat="45.81863" lon="4.79461">
        <ele>430.760274</ele>
        <time>2021-04-24T06:57:17.497Z</time>
      </trkpt>
      <trkpt lat="45.81875" lon="4.79458">
        <ele>431.505496</ele>
        <time>2021-04-24T06:57:20.488Z</time>
      </trkpt>
      <trkpt lat="45.81886" lon="4.79455">
        <ele>432.2126</ele>
        <time>2021-04-24T06:57:23.513Z</time>
      </trkpt>
      <trkpt lat="45.81896" lon="4.79452">
        <ele>432.884734</ele>
        <time>2021-04-24T06:57:26.487Z</time>
      </trkpt>
      <trkpt lat="45.81906" lon="4.79449">
        <ele>433.534713</ele>
        <time>2021-04-24T06:57:29.501Z</time>
      </trkpt>
      <trkpt lat="45.81916" lon="4.79445">
        <ele>434.20541</ele>
        <time>2021-04-24T06:57:32.497Z</time>
      </trkpt>
      <trkpt lat="45.81925" lon="4.79442">
        <ele>434.815808</ele>
        <time>2021-04-24T06:57:35.486Z</time>
      </trkpt>
      <trkpt lat="45.81935" lon="4.79439">
        <ele>435.418719</ele>
        <time>2021-04-24T06:57:38.495Z</time>
      </trkpt>
      <trkpt lat="45.81944" lon="4.79435">
        <ele>436.043172</ele>
        <time>2021-04-24T06:57:41.506Z</time>
      </trkpt>
      <trkpt lat="45.81954" lon="4.79431">
        <ele>436.660213</ele>
        <time>2021-04-24T06:57:44.511Z</time>
      </trkpt>
      <trkpt lat="45.81964" lon="4.79428">
        <ele>437.305161</ele>
        <time>2021-04-24T06:57:47.488Z</time>
      </trkpt>
      <trkpt lat="45.81973" lon="4.79423">
        <ele>437.924288</ele>
        <time>2021-04-24T06:57:50.518Z</time>
      </trkpt>
      <trkpt lat="45.81982" lon="4.79418">
        <ele>438.527408</ele>
        <time>2021-04-24T06:57:53.500Z</time>
      </trkpt>
      <trkpt lat="45.81993" lon="4.79411">
        <ele>439.261108</ele>
        <time>2021-04-24T06:57:57.504Z</time>
      </trkpt>
      <trkpt lat="45.82004" lon="4.79407">
        <ele>440.02457</ele>
        <time>2021-04-24T06:58:01.627Z</time>
      </trkpt>
      <trkpt lat="45.82013" lon="4.79401">
        <ele>440.619392</ele>
        <time>2021-04-24T06:58:04.505Z</time>
      </trkpt>
      <trkpt lat="45.82017" lon="4.79389">
        <ele>441.196146</ele>
        <time>2021-04-24T06:58:07.494Z</time>
      </trkpt>
      <trkpt lat="45.82023" lon="4.79376">
        <ele>441.903496</ele>
        <time>2021-04-24T06:58:11.499Z</time>
      </trkpt>
      <trkpt lat="45.82033" lon="4.79367">
        <ele>442.633815</ele>
        <time>2021-04-24T06:58:15.490Z</time>
      </trkpt>
      <trkpt lat="45.82044" lon="4.79361">
        <ele>443.382486</ele>
        <time>2021-04-24T06:58:19.495Z</time>
      </trkpt>
      <trkpt lat="45.82052" lon="4.79355">
        <ele>443.969293</ele>
        <time>2021-04-24T06:58:22.484Z</time>
      </trkpt>
      <trkpt lat="45.82061" lon="4.79349">
        <ele>444.57626</ele>
        <time>2021-04-24T06:58:25.510Z</time>
      </trkpt>
      <trkpt lat="45.82069" lon="4.79344">
        <ele>445.156794</ele>
        <time>2021-04-24T06:58:28.500Z</time>
      </trkpt>
      <trkpt lat="45.82079" lon="4.79339">
        <ele>445.790808</ele>
        <time>2021-04-24T06:58:31.496Z</time>
      </trkpt>
      <trkpt lat="45.82088" lon="4.79334">
        <ele>446.61245</ele>
        <time>2021-04-24T06:58:34.500Z</time>
      </trkpt>
      <trkpt lat="45.82098" lon="4.79329">
        <ele>447.511324</ele>
        <time>2021-04-24T06:58:37.508Z</time>
      </trkpt>
      <trkpt lat="45.82107" lon="4.79323">
        <ele>448.308992</ele>
        <time>2021-04-24T06:58:40.511Z</time>
      </trkpt>
      <trkpt lat="45.82115" lon="4.79318">
        <ele>449.128112</ele>
        <time>2021-04-24T06:58:43.495Z</time>
      </trkpt>
      <trkpt lat="45.82127" lon="4.79312">
        <ele>450.174328</ele>
        <time>2021-04-24T06:58:47.540Z</time>
      </trkpt>
      <trkpt lat="45.82136" lon="4.79307">
        <ele>451.028835</ele>
        <time>2021-04-24T06:58:50.500Z</time>
      </trkpt>
      <trkpt lat="45.82145" lon="4.79302">
        <ele>451.83874</ele>
        <time>2021-04-24T06:58:53.521Z</time>
      </trkpt>
      <trkpt lat="45.82154" lon="4.79299">
        <ele>452.620927</ele>
        <time>2021-04-24T06:58:56.518Z</time>
      </trkpt>
      <trkpt lat="45.82163" lon="4.79297">
        <ele>453.446845</ele>
        <time>2021-04-24T06:58:59.510Z</time>
      </trkpt>
      <trkpt lat="45.82172" lon="4.79291">
        <ele>454.287533</ele>
        <time>2021-04-24T06:59:02.509Z</time>
      </trkpt>
      <trkpt lat="45.82181" lon="4.79287">
        <ele>455.073743</ele>
        <time>2021-04-24T06:59:05.514Z</time>
      </trkpt>
      <trkpt lat="45.8219" lon="4.79282">
        <ele>455.86547</ele>
        <time>2021-04-24T06:59:08.516Z</time>
      </trkpt>
      <trkpt lat="45.82199" lon="4.79279">
        <ele>456.696677</ele>
        <time>2021-04-24T06:59:11.522Z</time>
      </trkpt>
      <trkpt lat="45.82209" lon="4.79276">
        <ele>457.564917</ele>
        <time>2021-04-24T06:59:14.510Z</time>
      </trkpt>
      <trkpt lat="45.82219" lon="4.79273">
        <ele>458.422544</ele>
        <time>2021-04-24T06:59:17.507Z</time>
      </trkpt>
      <trkpt lat="45.82229" lon="4.79271">
        <ele>459.280623</ele>
        <time>2021-04-24T06:59:20.517Z</time>
      </trkpt>
      <trkpt lat="45.82239" lon="4.7927">
        <ele>460.160655</ele>
        <time>2021-04-24T06:59:23.495Z</time>
      </trkpt>
      <trkpt lat="45.82249" lon="4.79268">
        <ele>461.018734</ele>
        <time>2021-04-24T06:59:26.501Z</time>
      </trkpt>
      <trkpt lat="45.82259" lon="4.79264">
        <ele>461.714863</ele>
        <time>2021-04-24T06:59:29.515Z</time>
      </trkpt>
      <trkpt lat="45.82269" lon="4.7926">
        <ele>462.258755</ele>
        <time>2021-04-24T06:59:32.499Z</time>
      </trkpt>
      <trkpt lat="45.82279" lon="4.79257">
        <ele>462.825709</ele>
        <time>2021-04-24T06:59:35.504Z</time>
      </trkpt>
      <trkpt lat="45.82289" lon="4.79253">
        <ele>463.390946</ele>
        <time>2021-04-24T06:59:38.496Z</time>
      </trkpt>
      <trkpt lat="45.82299" lon="4.79249">
        <ele>463.952297</ele>
        <time>2021-04-24T06:59:41.494Z</time>
      </trkpt>
      <trkpt lat="45.82309" lon="4.79245">
        <ele>464.517888</ele>
        <time>2021-04-24T06:59:44.504Z</time>
      </trkpt>
      <trkpt lat="45.82319" lon="4.79239">
        <ele>465.07931</ele>
        <time>2021-04-24T06:59:47.507Z</time>
      </trkpt>
      <trkpt lat="45.82329" lon="4.79234">
        <ele>465.625069</ele>
        <time>2021-04-24T06:59:50.502Z</time>
      </trkpt>
      <trkpt lat="45.82338" lon="4.79228">
        <ele>466.185642</ele>
        <time>2021-04-24T06:59:53.506Z</time>
      </trkpt>
      <trkpt lat="45.82348" lon="4.79223">
        <ele>466.725773</ele>
        <time>2021-04-24T06:59:56.506Z</time>
      </trkpt>
      <trkpt lat="45.82358" lon="4.79218">
        <ele>467.321047</ele>
        <time>2021-04-24T06:59:59.514Z</time>
      </trkpt>
      <trkpt lat="45.82369" lon="4.79213">
        <ele>467.911278</ele>
        <time>2021-04-24T07:00:02.500Z</time>
      </trkpt>
      <trkpt lat="45.82379" lon="4.79208">
        <ele>468.477618</ele>
        <time>2021-04-24T07:00:05.513Z</time>
      </trkpt>
      <trkpt lat="45.82389" lon="4.79203">
        <ele>469.035299</ele>
        <time>2021-04-24T07:00:08.508Z</time>
      </trkpt>
      <trkpt lat="45.82398" lon="4.79198">
        <ele>469.575187</ele>
        <time>2021-04-24T07:00:11.503Z</time>
      </trkpt>
      <trkpt lat="45.82407" lon="4.79194">
        <ele>470.062642</ele>
        <time>2021-04-24T07:00:14.505Z</time>
      </trkpt>
      <trkpt lat="45.82416" lon="4.79189">
        <ele>470.585115</ele>
        <time>2021-04-24T07:00:17.503Z</time>
      </trkpt>
      <trkpt lat="45.82425" lon="4.79183">
        <ele>471.163765</ele>
        <time>2021-04-24T07:00:20.498Z</time>
      </trkpt>
      <trkpt lat="45.82435" lon="4.79179">
        <ele>471.980636</ele>
        <time>2021-04-24T07:00:23.496Z</time>
      </trkpt>
      <trkpt lat="45.82443" lon="4.79175">
        <ele>472.717181</ele>
        <time>2021-04-24T07:00:26.503Z</time>
      </trkpt>
      <trkpt lat="45.82452" lon="4.79171">
        <ele>473.459731</ele>
        <time>2021-04-24T07:00:29.493Z</time>
      </trkpt>
      <trkpt lat="45.82461" lon="4.79167">
        <ele>474.221027</ele>
        <time>2021-04-24T07:00:32.489Z</time>
      </trkpt>
      <trkpt lat="45.82472" lon="4.79162">
        <ele>475.147111</ele>
        <time>2021-04-24T07:00:36.489Z</time>
      </trkpt>
      <trkpt lat="45.82481" lon="4.7916">
        <ele>475.889338</ele>
        <time>2021-04-24T07:00:39.490Z</time>
      </trkpt>
      <trkpt lat="45.8249" lon="4.79158">
        <ele>476.61652</ele>
        <time>2021-04-24T07:00:42.501Z</time>
      </trkpt>
      <trkpt lat="45.825" lon="4.79156">
        <ele>477.391476</ele>
        <time>2021-04-24T07:00:45.501Z</time>
      </trkpt>
      <trkpt lat="45.82511" lon="4.79153">
        <ele>478.32042</ele>
        <time>2021-04-24T07:00:49.500Z</time>
      </trkpt>
      <trkpt lat="45.82523" lon="4.79151">
        <ele>479.275832</ele>
        <time>2021-04-24T07:00:53.510Z</time>
      </trkpt>
      <trkpt lat="45.82533" lon="4.79147">
        <ele>480.137063</ele>
        <time>2021-04-24T07:00:57.512Z</time>
      </trkpt>
      <trkpt lat="45.82543" lon="4.79144">
        <ele>480.984415</ele>
        <time>2021-04-24T07:01:01.502Z</time>
      </trkpt>
      <trkpt lat="45.82554" lon="4.79141">
        <ele>481.822757</ele>
        <time>2021-04-24T07:01:04.510Z</time>
      </trkpt>
      <trkpt lat="45.82564" lon="4.79139">
        <ele>482.704745</ele>
        <time>2021-04-24T07:01:07.500Z</time>
      </trkpt>
      <trkpt lat="45.82575" lon="4.79136">
        <ele>483.56902</ele>
        <time>2021-04-24T07:01:10.505Z</time>
      </trkpt>
      <trkpt lat="45.82585" lon="4.79133">
        <ele>484.417507</ele>
        <time>2021-04-24T07:01:13.501Z</time>
      </trkpt>
      <trkpt lat="45.82596" lon="4.79131">
        <ele>485.252192</ele>
        <time>2021-04-24T07:01:16.519Z</time>
      </trkpt>
      <trkpt lat="45.82606" lon="4.79129">
        <ele>485.578852</ele>
        <time>2021-04-24T07:01:19.496Z</time>
      </trkpt>
      <trkpt lat="45.82616" lon="4.79127">
        <ele>485.650331</ele>
        <time>2021-04-24T07:01:22.484Z</time>
      </trkpt>
      <trkpt lat="45.82626" lon="4.79124">
        <ele>485.718227</ele>
        <time>2021-04-24T07:01:25.502Z</time>
      </trkpt>
      <trkpt lat="45.82635" lon="4.79121">
        <ele>485.781565</ele>
        <time>2021-04-24T07:01:28.501Z</time>
      </trkpt>
      <trkpt lat="45.82643" lon="4.79117">
        <ele>485.846013</ele>
        <time>2021-04-24T07:01:31.501Z</time>
      </trkpt>
      <trkpt lat="45.82653" lon="4.79113">
        <ele>485.914824</ele>
        <time>2021-04-24T07:01:34.505Z</time>
      </trkpt>
      <trkpt lat="45.82662" lon="4.79108">
        <ele>485.986376</ele>
        <time>2021-04-24T07:01:37.498Z</time>
      </trkpt>
      <trkpt lat="45.82672" lon="4.79105">
        <ele>486.057907</ele>
        <time>2021-04-24T07:01:40.497Z</time>
      </trkpt>
      <trkpt lat="45.82683" lon="4.79103">
        <ele>486.131276</ele>
        <time>2021-04-24T07:01:43.550Z</time>
      </trkpt>
      <trkpt lat="45.82693" lon="4.79102">
        <ele>486.202883</ele>
        <time>2021-04-24T07:01:46.499Z</time>
      </trkpt>
      <trkpt lat="45.82703" lon="4.79104">
        <ele>486.273741</ele>
        <time>2021-04-24T07:01:49.519Z</time>
      </trkpt>
      <trkpt lat="45.82712" lon="4.79108">
        <ele>486.338375</ele>
        <time>2021-04-24T07:01:52.509Z</time>
      </trkpt>
      <trkpt lat="45.82721" lon="4.79109">
        <ele>486.404038</ele>
        <time>2021-04-24T07:01:55.543Z</time>
      </trkpt>
      <trkpt lat="45.8273" lon="4.79111">
        <ele>486.468312</ele>
        <time>2021-04-24T07:01:58.497Z</time>
      </trkpt>
      <trkpt lat="45.82739" lon="4.79114">
        <ele>486.532613</ele>
        <time>2021-04-24T07:02:01.517Z</time>
      </trkpt>
      <trkpt lat="45.82749" lon="4.79116">
        <ele>486.600011</ele>
        <time>2021-04-24T07:02:04.502Z</time>
      </trkpt>
      <trkpt lat="45.82758" lon="4.79118">
        <ele>486.665876</ele>
        <time>2021-04-24T07:02:07.523Z</time>
      </trkpt>
      <trkpt lat="45.82767" lon="4.79121">
        <ele>486.733019</ele>
        <time>2021-04-24T07:02:10.500Z</time>
      </trkpt>
      <trkpt lat="45.82777" lon="4.79122">
        <ele>487.099718</ele>
        <time>2021-04-24T07:02:13.521Z</time>
      </trkpt>
      <trkpt lat="45.82789" lon="4.79123">
        <ele>488.587048</ele>
        <time>2021-04-24T07:02:16.502Z</time>
      </trkpt>
      <trkpt lat="45.82798" lon="4.79125">
        <ele>489.874139</ele>
        <time>2021-04-24T07:02:19.494Z</time>
      </trkpt>
      <trkpt lat="45.82808" lon="4.79128">
        <ele>491.16145</ele>
        <time>2021-04-24T07:02:22.487Z</time>
      </trkpt>
      <trkpt lat="45.82818" lon="4.79134">
        <ele>492.591013</ele>
        <time>2021-04-24T07:02:25.496Z</time>
      </trkpt>
      <trkpt lat="45.82827" lon="4.79141">
        <ele>493.947808</ele>
        <time>2021-04-24T07:02:28.521Z</time>
      </trkpt>
      <trkpt lat="45.82834" lon="4.7915">
        <ele>495.251535</ele>
        <time>2021-04-24T07:02:31.525Z</time>
      </trkpt>
      <trkpt lat="45.82841" lon="4.79162">
        <ele>496.603592</ele>
        <time>2021-04-24T07:02:34.511Z</time>
      </trkpt>
      <trkpt lat="45.82846" lon="4.79174">
        <ele>497.922411</ele>
        <time>2021-04-24T07:02:37.501Z</time>
      </trkpt>
      <trkpt lat="45.8285" lon="4.79186">
        <ele>499.191128</ele>
        <time>2021-04-24T07:02:40.496Z</time>
      </trkpt>
      <trkpt lat="45.82855" lon="4.79199">
        <ele>500.49518</ele>
        <time>2021-04-24T07:02:43.497Z</time>
      </trkpt>
      <trkpt lat="45.82858" lon="4.79213">
        <ele>501.894968</ele>
        <time>2021-04-24T07:02:46.517Z</time>
      </trkpt>
      <trkpt lat="45.82862" lon="4.79227">
        <ele>503.264517</ele>
        <time>2021-04-24T07:02:49.509Z</time>
      </trkpt>
      <trkpt lat="45.82866" lon="4.7924">
        <ele>504.590979</ele>
        <time>2021-04-24T07:02:52.502Z</time>
      </trkpt>
      <trkpt lat="45.82872" lon="4.79252">
        <ele>505.91803</ele>
        <time>2021-04-24T07:02:55.500Z</time>
      </trkpt>
      <trkpt lat="45.82878" lon="4.79264">
        <ele>507.283622</ele>
        <time>2021-04-24T07:02:58.522Z</time>
      </trkpt>
      <trkpt lat="45.82884" lon="4.79274">
        <ele>508.570328</ele>
        <time>2021-04-24T07:03:01.518Z</time>
      </trkpt>
      <trkpt lat="45.82892" lon="4.79284">
        <ele>509.895214</ele>
        <time>2021-04-24T07:03:04.501Z</time>
      </trkpt>
      <trkpt lat="45.82899" lon="4.79292">
        <ele>511.05531</ele>
        <time>2021-04-24T07:03:07.502Z</time>
      </trkpt>
      <trkpt lat="45.82909" lon="4.79298">
        <ele>512.099627</ele>
        <time>2021-04-24T07:03:10.498Z</time>
      </trkpt>
      <trkpt lat="45.82919" lon="4.79302">
        <ele>513.149796</ele>
        <time>2021-04-24T07:03:13.503Z</time>
      </trkpt>
      <trkpt lat="45.82929" lon="4.79303">
        <ele>514.178424</ele>
        <time>2021-04-24T07:03:16.508Z</time>
      </trkpt>
      <trkpt lat="45.82939" lon="4.79303">
        <ele>515.191334</ele>
        <time>2021-04-24T07:03:19.513Z</time>
      </trkpt>
      <trkpt lat="45.82949" lon="4.793">
        <ele>516.220108</ele>
        <time>2021-04-24T07:03:22.522Z</time>
      </trkpt>
      <trkpt lat="45.82959" lon="4.79298">
        <ele>517.281312</ele>
        <time>2021-04-24T07:03:25.543Z</time>
      </trkpt>
      <trkpt lat="45.82968" lon="4.79293">
        <ele>518.253255</ele>
        <time>2021-04-24T07:03:28.511Z</time>
      </trkpt>
      <trkpt lat="45.82978" lon="4.79289">
        <ele>519.273881</ele>
        <time>2021-04-24T07:03:31.523Z</time>
      </trkpt>
      <trkpt lat="45.82987" lon="4.79286">
        <ele>520.258737</ele>
        <time>2021-04-24T07:03:34.517Z</time>
      </trkpt>
      <trkpt lat="45.82997" lon="4.79283">
        <ele>521.291493</ele>
        <time>2021-04-24T07:03:37.552Z</time>
      </trkpt>
      <trkpt lat="45.83009" lon="4.79282">
        <ele>522.418324</ele>
        <time>2021-04-24T07:03:40.486Z</time>
      </trkpt>
      <trkpt lat="45.8302" lon="4.7928">
        <ele>523.565887</ele>
        <time>2021-04-24T07:03:43.509Z</time>
      </trkpt>
      <trkpt lat="45.83031" lon="4.7928">
        <ele>524.649617</ele>
        <time>2021-04-24T07:03:46.502Z</time>
      </trkpt>
      <trkpt lat="45.8304" lon="4.79279">
        <ele>525.65241</ele>
        <time>2021-04-24T07:03:49.520Z</time>
      </trkpt>
      <trkpt lat="45.83051" lon="4.79279">
        <ele>526.675704</ele>
        <time>2021-04-24T07:03:52.503Z</time>
      </trkpt>
      <trkpt lat="45.83061" lon="4.79278">
        <ele>527.730851</ele>
        <time>2021-04-24T07:03:55.516Z</time>
      </trkpt>
      <trkpt lat="45.83072" lon="4.79277">
        <ele>528.835035</ele>
        <time>2021-04-24T07:03:58.512Z</time>
      </trkpt>
      <trkpt lat="45.83082" lon="4.79276">
        <ele>529.066992</ele>
        <time>2021-04-24T07:04:01.506Z</time>
      </trkpt>
      <trkpt lat="45.83094" lon="4.79277">
        <ele>529.312213</ele>
        <time>2021-04-24T07:04:04.502Z</time>
      </trkpt>
      <trkpt lat="45.83105" lon="4.79279">
        <ele>529.564695</ele>
        <time>2021-04-24T07:04:07.502Z</time>
      </trkpt>
      <trkpt lat="45.83117" lon="4.7928">
        <ele>529.821528</ele>
        <time>2021-04-24T07:04:10.502Z</time>
      </trkpt>
      <trkpt lat="45.83127" lon="4.79284">
        <ele>530.050706</ele>
        <time>2021-04-24T07:04:13.501Z</time>
      </trkpt>
      <trkpt lat="45.83138" lon="4.79288">
        <ele>530.300432</ele>
        <time>2021-04-24T07:04:16.506Z</time>
      </trkpt>
      <trkpt lat="45.83149" lon="4.7929">
        <ele>530.533811</ele>
        <time>2021-04-24T07:04:19.496Z</time>
      </trkpt>
      <trkpt lat="45.83159" lon="4.79294">
        <ele>530.772938</ele>
        <time>2021-04-24T07:04:22.514Z</time>
      </trkpt>
      <trkpt lat="45.83175" lon="4.79299">
        <ele>531.129827</ele>
        <time>2021-04-24T07:04:26.501Z</time>
      </trkpt>
      <trkpt lat="45.83184" lon="4.79301">
        <ele>531.326684</ele>
        <time>2021-04-24T07:04:28.504Z</time>
      </trkpt>
      <trkpt lat="45.83193" lon="4.79303">
        <ele>531.53002</ele>
        <time>2021-04-24T07:04:30.518Z</time>
      </trkpt>
      <trkpt lat="45.83203" lon="4.79306">
        <ele>531.736883</ele>
        <time>2021-04-24T07:04:32.506Z</time>
      </trkpt>
      <trkpt lat="45.83214" lon="4.79309">
        <ele>531.979799</ele>
        <time>2021-04-24T07:04:34.503Z</time>
      </trkpt>
      <trkpt lat="45.83227" lon="4.79314">
        <ele>532.284362</ele>
        <time>2021-04-24T07:04:37.501Z</time>
      </trkpt>
      <trkpt lat="45.83237" lon="4.79317">
        <ele>532.50761</ele>
        <time>2021-04-24T07:04:39.511Z</time>
      </trkpt>
      <trkpt lat="45.83247" lon="4.7932">
        <ele>532.737279</ele>
        <time>2021-04-24T07:04:41.500Z</time>
      </trkpt>
      <trkpt lat="45.83258" lon="4.79322">
        <ele>532.614892</ele>
        <time>2021-04-24T07:04:43.498Z</time>
      </trkpt>
      <trkpt lat="45.83269" lon="4.79326">
        <ele>532.431381</ele>
        <time>2021-04-24T07:04:45.499Z</time>
      </trkpt>
      <trkpt lat="45.83278" lon="4.79329">
        <ele>532.272043</ele>
        <time>2021-04-24T07:04:47.492Z</time>
      </trkpt>
      <trkpt lat="45.83289" lon="4.79331">
        <ele>532.087504</ele>
        <time>2021-04-24T07:04:49.504Z</time>
      </trkpt>
      <trkpt lat="45.83299" lon="4.79333">
        <ele>531.929879</ele>
        <time>2021-04-24T07:04:51.486Z</time>
      </trkpt>
      <trkpt lat="45.83309" lon="4.79337">
        <ele>531.763194</ele>
        <time>2021-04-24T07:04:53.510Z</time>
      </trkpt>
      <trkpt lat="45.83318" lon="4.7934">
        <ele>531.612493</ele>
        <time>2021-04-24T07:04:55.499Z</time>
      </trkpt>
      <trkpt lat="45.83329" lon="4.79341">
        <ele>531.426722</ele>
        <time>2021-04-24T07:04:57.502Z</time>
      </trkpt>
      <trkpt lat="45.8334" lon="4.79342">
        <ele>531.247446</ele>
        <time>2021-04-24T07:04:59.503Z</time>
      </trkpt>
      <trkpt lat="45.8335" lon="4.79343">
        <ele>531.094044</ele>
        <time>2021-04-24T07:05:01.497Z</time>
      </trkpt>
      <trkpt lat="45.8336" lon="4.79343">
        <ele>530.927949</ele>
        <time>2021-04-24T07:05:03.501Z</time>
      </trkpt>
      <trkpt lat="45.8337" lon="4.79344">
        <ele>530.760106</ele>
        <time>2021-04-24T07:05:05.503Z</time>
      </trkpt>
      <trkpt lat="45.83381" lon="4.79346">
        <ele>530.593332</ele>
        <time>2021-04-24T07:05:07.513Z</time>
      </trkpt>
      <trkpt lat="45.83392" lon="4.79348">
        <ele>530.407363</ele>
        <time>2021-04-24T07:05:09.505Z</time>
      </trkpt>
      <trkpt lat="45.83404" lon="4.79352">
        <ele>530.205001</ele>
        <time>2021-04-24T07:05:11.508Z</time>
      </trkpt>
      <trkpt lat="45.83415" lon="4.79355">
        <ele>530.021235</ele>
        <time>2021-04-24T07:05:13.503Z</time>
      </trkpt>
      <trkpt lat="45.83426" lon="4.79358">
        <ele>529.848964</ele>
        <time>2021-04-24T07:05:15.501Z</time>
      </trkpt>
      <trkpt lat="45.83437" lon="4.79361">
        <ele>530.177711</ele>
        <time>2021-04-24T07:05:17.485Z</time>
      </trkpt>
      <trkpt lat="45.83448" lon="4.79365">
        <ele>530.50692</ele>
        <time>2021-04-24T07:05:19.515Z</time>
      </trkpt>
      <trkpt lat="45.83461" lon="4.79369">
        <ele>530.871555</ele>
        <time>2021-04-24T07:05:21.492Z</time>
      </trkpt>
      <trkpt lat="45.83473" lon="4.79371">
        <ele>531.222985</ele>
        <time>2021-04-24T07:05:23.503Z</time>
      </trkpt>
      <trkpt lat="45.83485" lon="4.79372">
        <ele>531.599324</ele>
        <time>2021-04-24T07:05:25.492Z</time>
      </trkpt>
      <trkpt lat="45.83497" lon="4.79371">
        <ele>531.9411</ele>
        <time>2021-04-24T07:05:27.494Z</time>
      </trkpt>
      <trkpt lat="45.83508" lon="4.79367">
        <ele>532.277073</ele>
        <time>2021-04-24T07:05:29.500Z</time>
      </trkpt>
      <trkpt lat="45.8352" lon="4.79364">
        <ele>532.631004</ele>
        <time>2021-04-24T07:05:31.518Z</time>
      </trkpt>
      <trkpt lat="45.83532" lon="4.79362">
        <ele>532.965329</ele>
        <time>2021-04-24T07:05:33.505Z</time>
      </trkpt>
      <trkpt lat="45.83543" lon="4.79362">
        <ele>533.300781</ele>
        <time>2021-04-24T07:05:35.494Z</time>
      </trkpt>
      <trkpt lat="45.83554" lon="4.79361">
        <ele>533.628902</ele>
        <time>2021-04-24T07:05:37.508Z</time>
      </trkpt>
      <trkpt lat="45.83565" lon="4.79361">
        <ele>533.938108</ele>
        <time>2021-04-24T07:05:39.494Z</time>
      </trkpt>
      <trkpt lat="45.83576" lon="4.7936">
        <ele>534.268233</ele>
        <time>2021-04-24T07:05:41.495Z</time>
      </trkpt>
      <trkpt lat="45.83587" lon="4.79358">
        <ele>534.585624</ele>
        <time>2021-04-24T07:05:43.515Z</time>
      </trkpt>
      <trkpt lat="45.83598" lon="4.79358">
        <ele>534.903808</ele>
        <time>2021-04-24T07:05:45.501Z</time>
      </trkpt>
      <trkpt lat="45.83609" lon="4.79357">
        <ele>535.39624</ele>
        <time>2021-04-24T07:05:47.515Z</time>
      </trkpt>
      <trkpt lat="45.83619" lon="4.79355">
        <ele>536.123824</ele>
        <time>2021-04-24T07:05:49.495Z</time>
      </trkpt>
      <trkpt lat="45.83629" lon="4.79354">
        <ele>536.83949</ele>
        <time>2021-04-24T07:05:51.535Z</time>
      </trkpt>
      <trkpt lat="45.83641" lon="4.79353">
        <ele>537.632775</ele>
        <time>2021-04-24T07:05:53.518Z</time>
      </trkpt>
      <trkpt lat="45.83652" lon="4.79352">
        <ele>538.400713</ele>
        <time>2021-04-24T07:05:55.615Z</time>
      </trkpt>
      <trkpt lat="45.83667" lon="4.79349">
        <ele>539.474625</ele>
        <time>2021-04-24T07:05:58.510Z</time>
      </trkpt>
      <trkpt lat="45.83676" lon="4.79347">
        <ele>540.118901</ele>
        <time>2021-04-24T07:06:00.497Z</time>
      </trkpt>
      <trkpt lat="45.8369" lon="4.79347">
        <ele>541.035846</ele>
        <time>2021-04-24T07:06:03.517Z</time>
      </trkpt>
      <trkpt lat="45.83699" lon="4.79347">
        <ele>541.710202</ele>
        <time>2021-04-24T07:06:05.510Z</time>
      </trkpt>
      <trkpt lat="45.83709" lon="4.79346">
        <ele>542.397893</ele>
        <time>2021-04-24T07:06:07.522Z</time>
      </trkpt>
      <trkpt lat="45.83718" lon="4.79345">
        <ele>543.043476</ele>
        <time>2021-04-24T07:06:09.498Z</time>
      </trkpt>
      <trkpt lat="45.83727" lon="4.79344">
        <ele>543.675607</ele>
        <time>2021-04-24T07:06:11.500Z</time>
      </trkpt>
      <trkpt lat="45.83737" lon="4.79344">
        <ele>544.350449</ele>
        <time>2021-04-24T07:06:13.544Z</time>
      </trkpt>
      <trkpt lat="45.83751" lon="4.79342">
        <ele>545.326738</ele>
        <time>2021-04-24T07:06:16.504Z</time>
      </trkpt>
      <trkpt lat="45.83761" lon="4.79341">
        <ele>545.981798</ele>
        <time>2021-04-24T07:06:18.515Z</time>
      </trkpt>
      <trkpt lat="45.8377" lon="4.7934">
        <ele>546.642081</ele>
        <time>2021-04-24T07:06:20.506Z</time>
      </trkpt>
      <trkpt lat="45.83779" lon="4.79339">
        <ele>547.297552</ele>
        <time>2021-04-24T07:06:22.497Z</time>
      </trkpt>
      <trkpt lat="45.83789" lon="4.79339">
        <ele>547.848179</ele>
        <time>2021-04-24T07:06:24.510Z</time>
      </trkpt>
      <trkpt lat="45.83798" lon="4.79336">
        <ele>548.345167</ele>
        <time>2021-04-24T07:06:26.501Z</time>
      </trkpt>
      <trkpt lat="45.83808" lon="4.79335">
        <ele>548.855251</ele>
        <time>2021-04-24T07:06:28.518Z</time>
      </trkpt>
      <trkpt lat="45.83817" lon="4.79333">
        <ele>549.349768</ele>
        <time>2021-04-24T07:06:30.505Z</time>
      </trkpt>
      <trkpt lat="45.83826" lon="4.7933">
        <ele>549.847936</ele>
        <time>2021-04-24T07:06:32.519Z</time>
      </trkpt>
      <trkpt lat="45.83837" lon="4.79327">
        <ele>550.403974</ele>
        <time>2021-04-24T07:06:34.523Z</time>
      </trkpt>
      <trkpt lat="45.83846" lon="4.79323">
        <ele>550.894073</ele>
        <time>2021-04-24T07:06:36.504Z</time>
      </trkpt>
      <trkpt lat="45.83858" lon="4.79318">
        <ele>551.577996</ele>
        <time>2021-04-24T07:06:39.504Z</time>
      </trkpt>
      <trkpt lat="45.8387" lon="4.79312">
        <ele>552.203813</ele>
        <time>2021-04-24T07:06:42.511Z</time>
      </trkpt>
      <trkpt lat="45.83882" lon="4.79306">
        <ele>552.865306</ele>
        <time>2021-04-24T07:06:45.502Z</time>
      </trkpt>
      <trkpt lat="45.83893" lon="4.79302">
        <ele>553.479927</ele>
        <time>2021-04-24T07:06:48.509Z</time>
      </trkpt>
      <trkpt lat="45.83905" lon="4.793">
        <ele>554.105443</ele>
        <time>2021-04-24T07:06:51.502Z</time>
      </trkpt>
      <trkpt lat="45.83917" lon="4.793">
        <ele>554.737583</ele>
        <time>2021-04-24T07:06:54.517Z</time>
      </trkpt>
      <trkpt lat="45.83929" lon="4.79301">
        <ele>555.366862</ele>
        <time>2021-04-24T07:06:57.505Z</time>
      </trkpt>
      <trkpt lat="45.83941" lon="4.79302">
        <ele>555.989406</ele>
        <time>2021-04-24T07:07:00.504Z</time>
      </trkpt>
      <trkpt lat="45.83952" lon="4.79303">
        <ele>556.579843</ele>
        <time>2021-04-24T07:07:03.532Z</time>
      </trkpt>
      <trkpt lat="45.83964" lon="4.79301">
        <ele>557.129022</ele>
        <time>2021-04-24T07:07:06.520Z</time>
      </trkpt>
      <trkpt lat="45.83975" lon="4.79298">
        <ele>557.554519</ele>
        <time>2021-04-24T07:07:09.500Z</time>
      </trkpt>
      <trkpt lat="45.83985" lon="4.79295">
        <ele>557.951963</ele>
        <time>2021-04-24T07:07:12.512Z</time>
      </trkpt>
      <trkpt lat="45.83995" lon="4.79293">
        <ele>558.347919</ele>
        <time>2021-04-24T07:07:15.526Z</time>
      </trkpt>
      <trkpt lat="45.84004" lon="4.79289">
        <ele>558.724661</ele>
        <time>2021-04-24T07:07:18.511Z</time>
      </trkpt>
      <trkpt lat="45.84014" lon="4.79286">
        <ele>559.112919</ele>
        <time>2021-04-24T07:07:21.508Z</time>
      </trkpt>
      <trkpt lat="45.84024" lon="4.79283">
        <ele>559.510363</ele>
        <time>2021-04-24T07:07:24.501Z</time>
      </trkpt>
      <trkpt lat="45.84035" lon="4.7928">
        <ele>559.913928</ele>
        <time>2021-04-24T07:07:27.498Z</time>
      </trkpt>
      <trkpt lat="45.84045" lon="4.7928">
        <ele>560.302261</ele>
        <time>2021-04-24T07:07:30.520Z</time>
      </trkpt>
      <trkpt lat="45.84054" lon="4.79279">
        <ele>560.672546</ele>
        <time>2021-04-24T07:07:33.513Z</time>
      </trkpt>
      <trkpt lat="45.84066" lon="4.79278">
        <ele>561.102992</ele>
        <time>2021-04-24T07:07:37.539Z</time>
      </trkpt>
      <trkpt lat="45.84075" lon="4.79281">
        <ele>561.465618</ele>
        <time>2021-04-24T07:07:40.499Z</time>
      </trkpt>
      <trkpt lat="45.84085" lon="4.79284">
        <ele>561.861779</ele>
        <time>2021-04-24T07:07:43.552Z</time>
      </trkpt>
      <trkpt lat="45.84094" lon="4.79289">
        <ele>562.249677</ele>
        <time>2021-04-24T07:07:46.507Z</time>
      </trkpt>
      <trkpt lat="45.84104" lon="4.79293">
        <ele>562.649565</ele>
        <time>2021-04-24T07:07:49.521Z</time>
      </trkpt>
      <trkpt lat="45.84114" lon="4.79297">
        <ele>563.023044</ele>
        <time>2021-04-24T07:07:52.507Z</time>
      </trkpt>
      <trkpt lat="45.84124" lon="4.79302">
        <ele>563.424576</ele>
        <time>2021-04-24T07:07:55.540Z</time>
      </trkpt>
      <trkpt lat="45.84134" lon="4.79307">
        <ele>563.83988</ele>
        <time>2021-04-24T07:07:58.500Z</time>
      </trkpt>
      <trkpt lat="45.84144" lon="4.79312">
        <ele>564.494554</ele>
        <time>2021-04-24T07:08:01.500Z</time>
      </trkpt>
      <trkpt lat="45.84155" lon="4.79317">
        <ele>565.184419</ele>
        <time>2021-04-24T07:08:04.510Z</time>
      </trkpt>
      <trkpt lat="45.84166" lon="4.79321">
        <ele>565.857671</ele>
        <time>2021-04-24T07:08:07.502Z</time>
      </trkpt>
      <trkpt lat="45.84176" lon="4.79327">
        <ele>566.539904</ele>
        <time>2021-04-24T07:08:10.500Z</time>
      </trkpt>
      <trkpt lat="45.84187" lon="4.79331">
        <ele>567.188699</ele>
        <time>2021-04-24T07:08:13.519Z</time>
      </trkpt>
      <trkpt lat="45.84198" lon="4.79335">
        <ele>567.895937</ele>
        <time>2021-04-24T07:08:16.494Z</time>
      </trkpt>
      <trkpt lat="45.84209" lon="4.79335">
        <ele>568.596568</ele>
        <time>2021-04-24T07:08:19.496Z</time>
      </trkpt>
      <trkpt lat="45.84219" lon="4.79328">
        <ele>569.25405</ele>
        <time>2021-04-24T07:08:22.511Z</time>
      </trkpt>
      <trkpt lat="45.84226" lon="4.79317">
        <ele>569.88625</ele>
        <time>2021-04-24T07:08:25.509Z</time>
      </trkpt>
      <trkpt lat="45.84232" lon="4.79305">
        <ele>570.505983</ele>
        <time>2021-04-24T07:08:28.506Z</time>
      </trkpt>
      <trkpt lat="45.84234" lon="4.79292">
        <ele>571.057212</ele>
        <time>2021-04-24T07:08:31.496Z</time>
      </trkpt>
      <trkpt lat="45.84235" lon="4.79276">
        <ele>571.752052</ele>
        <time>2021-04-24T07:08:35.497Z</time>
      </trkpt>
      <trkpt lat="45.84234" lon="4.79263">
        <ele>572.331164</ele>
        <time>2021-04-24T07:08:38.487Z</time>
      </trkpt>
      <trkpt lat="45.84231" lon="4.7925">
        <ele>572.878181</ele>
        <time>2021-04-24T07:08:41.496Z</time>
      </trkpt>
      <trkpt lat="45.84224" lon="4.79237">
        <ele>573.59885</ele>
        <time>2021-04-24T07:08:45.508Z</time>
      </trkpt>
      <trkpt lat="45.84218" lon="4.79226">
        <ele>574.180422</ele>
        <time>2021-04-24T07:08:48.511Z</time>
      </trkpt>
      <trkpt lat="45.8421" lon="4.79216">
        <ele>574.792084</ele>
        <time>2021-04-24T07:08:51.499Z</time>
      </trkpt>
      <trkpt lat="45.84203" lon="4.79205">
        <ele>575.457755</ele>
        <time>2021-04-24T07:08:54.502Z</time>
      </trkpt>
      <trkpt lat="45.84195" lon="4.79195">
        <ele>576.102794</ele>
        <time>2021-04-24T07:08:57.499Z</time>
      </trkpt>
      <trkpt lat="45.84187" lon="4.79185">
        <ele>576.736028</ele>
        <time>2021-04-24T07:09:00.502Z</time>
      </trkpt>
      <trkpt lat="45.8418" lon="4.79175">
        <ele>577.332547</ele>
        <time>2021-04-24T07:09:03.512Z</time>
      </trkpt>
      <trkpt lat="45.84173" lon="4.79165">
        <ele>577.908433</ele>
        <time>2021-04-24T07:09:06.500Z</time>
      </trkpt>
      <trkpt lat="45.84167" lon="4.79155">
        <ele>578.471452</ele>
        <time>2021-04-24T07:09:09.506Z</time>
      </trkpt>
      <trkpt lat="45.8416" lon="4.79143">
        <ele>579.099331</ele>
        <time>2021-04-24T07:09:13.497Z</time>
      </trkpt>
      <trkpt lat="45.84156" lon="4.79132">
        <ele>579.642559</ele>
        <time>2021-04-24T07:09:18.507Z</time>
      </trkpt>
      <trkpt lat="45.84147" lon="4.79124">
        <ele>580.282813</ele>
        <time>2021-04-24T07:10:23.501Z</time>
      </trkpt>
      <trkpt lat="45.84138" lon="4.79112">
        <ele>581.006791</ele>
        <time>2021-04-24T07:10:27.497Z</time>
      </trkpt>
      <trkpt lat="45.8413" lon="4.79102">
        <ele>581.649096</ele>
        <time>2021-04-24T07:10:30.507Z</time>
      </trkpt>
      <trkpt lat="45.84122" lon="4.79092">
        <ele>582.282332</ele>
        <time>2021-04-24T07:10:33.503Z</time>
      </trkpt>
      <trkpt lat="45.84114" lon="4.79082">
        <ele>582.909217</ele>
        <time>2021-04-24T07:10:36.497Z</time>
      </trkpt>
      <trkpt lat="45.84107" lon="4.79073">
        <ele>583.525127</ele>
        <time>2021-04-24T07:10:39.512Z</time>
      </trkpt>
      <trkpt lat="45.84099" lon="4.79063">
        <ele>584.167433</ele>
        <time>2021-04-24T07:10:42.503Z</time>
      </trkpt>
      <trkpt lat="45.8409" lon="4.79053">
        <ele>584.809739</ele>
        <time>2021-04-24T07:10:45.516Z</time>
      </trkpt>
      <trkpt lat="45.84083" lon="4.79043">
        <ele>585.423936</ele>
        <time>2021-04-24T07:10:48.506Z</time>
      </trkpt>
      <trkpt lat="45.84075" lon="4.79034">
        <ele>585.944302</ele>
        <time>2021-04-24T07:10:51.492Z</time>
      </trkpt>
      <trkpt lat="45.84066" lon="4.79027">
        <ele>586.394097</ele>
        <time>2021-04-24T07:10:54.505Z</time>
      </trkpt>
      <trkpt lat="45.84056" lon="4.79024">
        <ele>586.862006</ele>
        <time>2021-04-24T07:10:57.501Z</time>
      </trkpt>
      <trkpt lat="45.84043" lon="4.7902">
        <ele>587.512452</ele>
        <time>2021-04-24T07:11:01.513Z</time>
      </trkpt>
      <trkpt lat="45.84032" lon="4.79016">
        <ele>588.003935</ele>
        <time>2021-04-24T07:11:04.513Z</time>
      </trkpt>
      <trkpt lat="45.84023" lon="4.79009">
        <ele>588.489157</ele>
        <time>2021-04-24T07:11:07.510Z</time>
      </trkpt>
      <trkpt lat="45.84017" lon="4.78996">
        <ele>588.965523</ele>
        <time>2021-04-24T07:11:10.494Z</time>
      </trkpt>
      <trkpt lat="45.84017" lon="4.78982">
        <ele>589.436734</ele>
        <time>2021-04-24T07:11:13.497Z</time>
      </trkpt>
      <trkpt lat="45.84024" lon="4.7897">
        <ele>589.913044</ele>
        <time>2021-04-24T07:11:16.489Z</time>
      </trkpt>
      <trkpt lat="45.84036" lon="4.78964">
        <ele>590.496658</ele>
        <time>2021-04-24T07:11:19.494Z</time>
      </trkpt>
      <trkpt lat="45.84049" lon="4.78967">
        <ele>591.112595</ele>
        <time>2021-04-24T07:11:22.511Z</time>
      </trkpt>
      <trkpt lat="45.84061" lon="4.78972">
        <ele>591.699912</ele>
        <time>2021-04-24T07:11:25.510Z</time>
      </trkpt>
      <trkpt lat="45.84073" lon="4.78976">
        <ele>592.273444</ele>
        <time>2021-04-24T07:11:28.513Z</time>
      </trkpt>
      <trkpt lat="45.84086" lon="4.78979">
        <ele>592.84595</ele>
        <time>2021-04-24T07:11:31.506Z</time>
      </trkpt>
      <trkpt lat="45.84098" lon="4.78979">
        <ele>593.421088</ele>
        <time>2021-04-24T07:11:34.500Z</time>
      </trkpt>
      <trkpt lat="45.8411" lon="4.78977">
        <ele>593.977016</ele>
        <time>2021-04-24T07:11:37.513Z</time>
      </trkpt>
      <trkpt lat="45.84122" lon="4.78974">
        <ele>594.753783</ele>
        <time>2021-04-24T07:11:40.511Z</time>
      </trkpt>
      <trkpt lat="45.84134" lon="4.7897">
        <ele>595.586719</ele>
        <time>2021-04-24T07:11:43.503Z</time>
      </trkpt>
      <trkpt lat="45.84146" lon="4.78964">
        <ele>596.431952</ele>
        <time>2021-04-24T07:11:46.501Z</time>
      </trkpt>
      <trkpt lat="45.84159" lon="4.78959">
        <ele>597.279775</ele>
        <time>2021-04-24T07:11:49.495Z</time>
      </trkpt>
      <trkpt lat="45.84172" lon="4.78954">
        <ele>598.127571</ele>
        <time>2021-04-24T07:11:52.501Z</time>
      </trkpt>
      <trkpt lat="45.84184" lon="4.78949">
        <ele>598.989109</ele>
        <time>2021-04-24T07:11:55.514Z</time>
      </trkpt>
      <trkpt lat="45.84193" lon="4.78944">
        <ele>599.582334</ele>
        <time>2021-04-24T07:11:57.510Z</time>
      </trkpt>
      <trkpt lat="45.84204" lon="4.78934">
        <ele>600.428679</ele>
        <time>2021-04-24T07:12:00.493Z</time>
      </trkpt>
      <trkpt lat="45.84212" lon="4.78918">
        <ele>601.305102</ele>
        <time>2021-04-24T07:12:03.500Z</time>
      </trkpt>
      <trkpt lat="45.84213" lon="4.78903">
        <ele>601.988223</ele>
        <time>2021-04-24T07:12:05.509Z</time>
      </trkpt>
      <trkpt lat="45.84214" lon="4.7889">
        <ele>602.5822</ele>
        <time>2021-04-24T07:12:07.510Z</time>
      </trkpt>
      <trkpt lat="45.84212" lon="4.78872">
        <ele>603.428637</ele>
        <time>2021-04-24T07:12:10.509Z</time>
      </trkpt>
      <trkpt lat="45.8421" lon="4.78859">
        <ele>604.022335</ele>
        <time>2021-04-24T07:12:12.518Z</time>
      </trkpt>
      <trkpt lat="45.84207" lon="4.78841">
        <ele>604.855312</ele>
        <time>2021-04-24T07:12:15.559Z</time>
      </trkpt>
      <trkpt lat="45.84206" lon="4.78822">
        <ele>605.588632</ele>
        <time>2021-04-24T07:12:18.506Z</time>
      </trkpt>
      <trkpt lat="45.84207" lon="4.78809">
        <ele>605.448829</ele>
        <time>2021-04-24T07:12:20.504Z</time>
      </trkpt>
      <trkpt lat="45.84208" lon="4.78795">
        <ele>605.305786</ele>
        <time>2021-04-24T07:12:22.523Z</time>
      </trkpt>
      <trkpt lat="45.8421" lon="4.78781">
        <ele>605.155755</ele>
        <time>2021-04-24T07:12:24.504Z</time>
      </trkpt>
      <trkpt lat="45.84211" lon="4.78765">
        <ele>604.994315</ele>
        <time>2021-04-24T07:12:26.505Z</time>
      </trkpt>
      <trkpt lat="45.84213" lon="4.7875">
        <ele>604.829579</ele>
        <time>2021-04-24T07:12:28.514Z</time>
      </trkpt>
      <trkpt lat="45.84216" lon="4.78734">
        <ele>604.656991</ele>
        <time>2021-04-24T07:12:30.507Z</time>
      </trkpt>
      <trkpt lat="45.84218" lon="4.78717">
        <ele>604.486993</ele>
        <time>2021-04-24T07:12:32.507Z</time>
      </trkpt>
      <trkpt lat="45.8422" lon="4.78701">
        <ele>604.316995</ele>
        <time>2021-04-24T07:12:34.503Z</time>
      </trkpt>
      <trkpt lat="45.84222" lon="4.78685">
        <ele>604.1435</ele>
        <time>2021-04-24T07:12:36.510Z</time>
      </trkpt>
      <trkpt lat="45.84224" lon="4.78668">
        <ele>603.966812</ele>
        <time>2021-04-24T07:12:38.520Z</time>
      </trkpt>
      <trkpt lat="45.84226" lon="4.78654">
        <ele>603.812421</ele>
        <time>2021-04-24T07:12:40.495Z</time>
      </trkpt>
      <trkpt lat="45.84229" lon="4.78639">
        <ele>603.653385</ele>
        <time>2021-04-24T07:12:42.516Z</time>
      </trkpt>
      <trkpt lat="45.8423" lon="4.78621">
        <ele>603.466457</ele>
        <time>2021-04-24T07:12:44.505Z</time>
      </trkpt>
      <trkpt lat="45.84235" lon="4.78602">
        <ele>603.256384</ele>
        <time>2021-04-24T07:12:46.512Z</time>
      </trkpt>
      <trkpt lat="45.8424" lon="4.78583">
        <ele>603.041393</ele>
        <time>2021-04-24T07:12:48.500Z</time>
      </trkpt>
      <trkpt lat="45.84244" lon="4.78562">
        <ele>602.353878</ele>
        <time>2021-04-24T07:12:50.500Z</time>
      </trkpt>
      <trkpt lat="45.84247" lon="4.78546">
        <ele>601.430868</ele>
        <time>2021-04-24T07:12:52.496Z</time>
      </trkpt>
      <trkpt lat="45.84249" lon="4.78525">
        <ele>600.316731</ele>
        <time>2021-04-24T07:12:54.518Z</time>
      </trkpt>
      <trkpt lat="45.84249" lon="4.78504">
        <ele>599.150007</ele>
        <time>2021-04-24T07:12:56.517Z</time>
      </trkpt>
      <trkpt lat="45.84247" lon="4.7848">
        <ele>597.853297</ele>
        <time>2021-04-24T07:12:58.508Z</time>
      </trkpt>
      <trkpt lat="45.84244" lon="4.78458">
        <ele>596.669012</ele>
        <time>2021-04-24T07:13:00.495Z</time>
      </trkpt>
      <trkpt lat="45.84237" lon="4.78441">
        <ele>595.614923</ele>
        <time>2021-04-24T07:13:02.512Z</time>
      </trkpt>
      <trkpt lat="45.84233" lon="4.78419">
        <ele>594.35682</ele>
        <time>2021-04-24T07:13:04.502Z</time>
      </trkpt>
      <trkpt lat="45.84229" lon="4.78405">
        <ele>593.568251</ele>
        <time>2021-04-24T07:13:05.511Z</time>
      </trkpt>
      <trkpt lat="45.84223" lon="4.78383">
        <ele>592.29778</ele>
        <time>2021-04-24T07:13:07.485Z</time>
      </trkpt>
      <trkpt lat="45.84218" lon="4.78372">
        <ele>591.587556</ele>
        <time>2021-04-24T07:13:08.505Z</time>
      </trkpt>
      <trkpt lat="45.84215" lon="4.78359">
        <ele>590.844054</ele>
        <time>2021-04-24T07:13:09.498Z</time>
      </trkpt>
      <trkpt lat="45.84211" lon="4.78346">
        <ele>590.058502</ele>
        <time>2021-04-24T07:13:10.498Z</time>
      </trkpt>
      <trkpt lat="45.8421" lon="4.78333">
        <ele>589.351204</ele>
        <time>2021-04-24T07:13:11.494Z</time>
      </trkpt>
      <trkpt lat="45.8421" lon="4.78318">
        <ele>589.076153</ele>
        <time>2021-04-24T07:13:12.500Z</time>
      </trkpt>
      <trkpt lat="45.84211" lon="4.78303">
        <ele>589.261606</ele>
        <time>2021-04-24T07:13:13.502Z</time>
      </trkpt>
      <trkpt lat="45.84216" lon="4.78292">
        <ele>589.417782</ele>
        <time>2021-04-24T07:13:14.494Z</time>
      </trkpt>
      <trkpt lat="45.84228" lon="4.78279">
        <ele>589.668303</ele>
        <time>2021-04-24T07:13:16.540Z</time>
      </trkpt>
      <trkpt lat="45.84241" lon="4.7827">
        <ele>589.911201</ele>
        <time>2021-04-24T07:13:18.502Z</time>
      </trkpt>
      <trkpt lat="45.84254" lon="4.78266">
        <ele>590.143512</ele>
        <time>2021-04-24T07:13:20.501Z</time>
      </trkpt>
      <trkpt lat="45.84266" lon="4.78263">
        <ele>590.348823</ele>
        <time>2021-04-24T07:13:22.543Z</time>
      </trkpt>
      <trkpt lat="45.84277" lon="4.78262">
        <ele>590.543925</ele>
        <time>2021-04-24T07:13:24.522Z</time>
      </trkpt>
      <trkpt lat="45.8429" lon="4.78256">
        <ele>590.781744</ele>
        <time>2021-04-24T07:13:27.509Z</time>
      </trkpt>
      <trkpt lat="45.84303" lon="4.7825">
        <ele>591.013015</ele>
        <time>2021-04-24T07:13:29.507Z</time>
      </trkpt>
      <trkpt lat="45.84314" lon="4.78247">
        <ele>591.210688</ele>
        <time>2021-04-24T07:13:31.489Z</time>
      </trkpt>
      <trkpt lat="45.84324" lon="4.78245">
        <ele>591.387125</ele>
        <time>2021-04-24T07:13:33.498Z</time>
      </trkpt>
      <trkpt lat="45.84338" lon="4.78241">
        <ele>591.631506</ele>
        <time>2021-04-24T07:13:36.492Z</time>
      </trkpt>
      <trkpt lat="45.84348" lon="4.78236">
        <ele>591.80739</ele>
        <time>2021-04-24T07:13:39.490Z</time>
      </trkpt>
      <trkpt lat="45.8436" lon="4.78236">
        <ele>592.006834</ele>
        <time>2021-04-24T07:13:42.504Z</time>
      </trkpt>
      <trkpt lat="45.84371" lon="4.78235">
        <ele>592.766501</ele>
        <time>2021-04-24T07:13:45.499Z</time>
      </trkpt>
      <trkpt lat="45.84382" lon="4.78236">
        <ele>593.795966</ele>
        <time>2021-04-24T07:13:48.512Z</time>
      </trkpt>
      <trkpt lat="45.84392" lon="4.78238">
        <ele>594.710097</ele>
        <time>2021-04-24T07:13:51.505Z</time>
      </trkpt>
      <trkpt lat="45.84402" lon="4.78241">
        <ele>595.649267</ele>
        <time>2021-04-24T07:13:54.510Z</time>
      </trkpt>
      <trkpt lat="45.84413" lon="4.78247">
        <ele>596.774938</ele>
        <time>2021-04-24T07:13:58.492Z</time>
      </trkpt>
      <trkpt lat="45.84424" lon="4.78251">
        <ele>597.788816</ele>
        <time>2021-04-24T07:14:01.492Z</time>
      </trkpt>
      <trkpt lat="45.84435" lon="4.78255">
        <ele>598.838956</ele>
        <time>2021-04-24T07:14:05.510Z</time>
      </trkpt>
      <trkpt lat="45.84446" lon="4.78256">
        <ele>599.860167</ele>
        <time>2021-04-24T07:14:09.501Z</time>
      </trkpt>
      <trkpt lat="45.84458" lon="4.7826">
        <ele>601.02097</ele>
        <time>2021-04-24T07:14:13.492Z</time>
      </trkpt>
      <trkpt lat="45.8447" lon="4.78261">
        <ele>602.131562</ele>
        <time>2021-04-24T07:14:16.497Z</time>
      </trkpt>
      <trkpt lat="45.84479" lon="4.78262">
        <ele>602.994954</ele>
        <time>2021-04-24T07:14:19.490Z</time>
      </trkpt>
      <trkpt lat="45.84488" lon="4.78262">
        <ele>603.828895</ele>
        <time>2021-04-24T07:14:22.508Z</time>
      </trkpt>
      <trkpt lat="45.84498" lon="4.78262">
        <ele>604.763591</ele>
        <time>2021-04-24T07:14:25.497Z</time>
      </trkpt>
      <trkpt lat="45.84511" lon="4.78262">
        <ele>605.892462</ele>
        <time>2021-04-24T07:14:29.500Z</time>
      </trkpt>
      <trkpt lat="45.8452" lon="4.78263">
        <ele>606.782191</ele>
        <time>2021-04-24T07:14:32.578Z</time>
      </trkpt>
      <trkpt lat="45.84532" lon="4.78266">
        <ele>607.852296</ele>
        <time>2021-04-24T07:14:36.501Z</time>
      </trkpt>
      <trkpt lat="45.84541" lon="4.78267">
        <ele>608.726675</ele>
        <time>2021-04-24T07:14:39.509Z</time>
      </trkpt>
      <trkpt lat="45.84552" lon="4.78267">
        <ele>609.150834</ele>
        <time>2021-04-24T07:14:42.498Z</time>
      </trkpt>
      <trkpt lat="45.84562" lon="4.78268">
        <ele>609.511752</ele>
        <time>2021-04-24T07:14:45.493Z</time>
      </trkpt>
      <trkpt lat="45.84571" lon="4.78268">
        <ele>609.867724</ele>
        <time>2021-04-24T07:14:48.508Z</time>
      </trkpt>
      <trkpt lat="45.84581" lon="4.78266">
        <ele>610.231714</ele>
        <time>2021-04-24T07:14:51.501Z</time>
      </trkpt>
      <trkpt lat="45.8459" lon="4.78264">
        <ele>610.589535</ele>
        <time>2021-04-24T07:14:54.516Z</time>
      </trkpt>
      <trkpt lat="45.846" lon="4.78261">
        <ele>610.956267</ele>
        <time>2021-04-24T07:14:57.504Z</time>
      </trkpt>
      <trkpt lat="45.84608" lon="4.78254">
        <ele>611.312938</ele>
        <time>2021-04-24T07:15:00.507Z</time>
      </trkpt>
      <trkpt lat="45.84615" lon="4.78245">
        <ele>611.679397</ele>
        <time>2021-04-24T07:15:03.497Z</time>
      </trkpt>
      <trkpt lat="45.84623" lon="4.78237">
        <ele>612.042076</ele>
        <time>2021-04-24T07:15:06.521Z</time>
      </trkpt>
      <trkpt lat="45.84628" lon="4.78225">
        <ele>612.423032</ele>
        <time>2021-04-24T07:15:09.503Z</time>
      </trkpt>
      <trkpt lat="45.84633" lon="4.78211">
        <ele>612.821835</ele>
        <time>2021-04-24T07:15:12.510Z</time>
      </trkpt>
      <trkpt lat="45.84637" lon="4.78199">
        <ele>613.184229</ele>
        <time>2021-04-24T07:15:15.502Z</time>
      </trkpt>
      <trkpt lat="45.84642" lon="4.78183">
        <ele>613.629622</ele>
        <time>2021-04-24T07:15:19.497Z</time>
      </trkpt>
      <trkpt lat="45.84645" lon="4.78171">
        <ele>613.987178</ele>
        <time>2021-04-24T07:15:22.498Z</time>
      </trkpt>
      <trkpt lat="45.84649" lon="4.78158">
        <ele>614.341155</ele>
        <time>2021-04-24T07:15:25.511Z</time>
      </trkpt>
      <trkpt lat="45.8465" lon="4.78144">
        <ele>614.716023</ele>
        <time>2021-04-24T07:15:28.509Z</time>
      </trkpt>
      <trkpt lat="45.84653" lon="4.78129">
        <ele>615.129807</ele>
        <time>2021-04-24T07:15:31.496Z</time>
      </trkpt>
      <trkpt lat="45.84656" lon="4.78115">
        <ele>615.519687</ele>
        <time>2021-04-24T07:15:34.504Z</time>
      </trkpt>
      <trkpt lat="45.84662" lon="4.781">
        <ele>615.746578</ele>
        <time>2021-04-24T07:15:37.516Z</time>
      </trkpt>
      <trkpt lat="45.84667" lon="4.78084">
        <ele>615.99302</ele>
        <time>2021-04-24T07:15:40.515Z</time>
      </trkpt>
      <trkpt lat="45.84671" lon="4.78066">
        <ele>616.244276</ele>
        <time>2021-04-24T07:15:43.500Z</time>
      </trkpt>
      <trkpt lat="45.84674" lon="4.7805">
        <ele>616.474876</ele>
        <time>2021-04-24T07:15:46.517Z</time>
      </trkpt>
      <trkpt lat="45.84676" lon="4.78037">
        <ele>616.653009</ele>
        <time>2021-04-24T07:15:49.507Z</time>
      </trkpt>
      <trkpt lat="45.84679" lon="4.78022">
        <ele>616.866155</ele>
        <time>2021-04-24T07:15:53.503Z</time>
      </trkpt>
      <trkpt lat="45.8468" lon="4.78008">
        <ele>617.048844</ele>
        <time>2021-04-24T07:15:56.502Z</time>
      </trkpt>
      <trkpt lat="45.84679" lon="4.77993">
        <ele>617.255966</ele>
        <time>2021-04-24T07:15:59.501Z</time>
      </trkpt>
      <trkpt lat="45.84686" lon="4.77975">
        <ele>617.538599</ele>
        <time>2021-04-24T07:16:02.501Z</time>
      </trkpt>
      <trkpt lat="45.84691" lon="4.77962">
        <ele>617.739433</ele>
        <time>2021-04-24T07:16:04.542Z</time>
      </trkpt>
      <trkpt lat="45.84696" lon="4.77948">
        <ele>617.956846</ele>
        <time>2021-04-24T07:16:06.501Z</time>
      </trkpt>
      <trkpt lat="45.84703" lon="4.77931">
        <ele>618.21427</ele>
        <time>2021-04-24T07:16:08.498Z</time>
      </trkpt>
      <trkpt lat="45.84712" lon="4.77913">
        <ele>618.512041</ele>
        <time>2021-04-24T07:16:10.513Z</time>
      </trkpt>
      <trkpt lat="45.84721" lon="4.77896">
        <ele>618.805781</ele>
        <time>2021-04-24T07:16:12.499Z</time>
      </trkpt>
      <trkpt lat="45.8473" lon="4.77878">
        <ele>618.89431</ele>
        <time>2021-04-24T07:16:14.499Z</time>
      </trkpt>
      <trkpt lat="45.84737" lon="4.77859">
        <ele>618.449161</ele>
        <time>2021-04-24T07:16:16.546Z</time>
      </trkpt>
      <trkpt lat="45.84735" lon="4.7784">
        <ele>618.032706</ele>
        <time>2021-04-24T07:16:18.485Z</time>
      </trkpt>
      <trkpt lat="45.84724" lon="4.77826">
        <ele>617.61039</ele>
        <time>2021-04-24T07:16:20.495Z</time>
      </trkpt>
      <trkpt lat="45.84711" lon="4.77828">
        <ele>617.201938</ele>
        <time>2021-04-24T07:16:22.499Z</time>
      </trkpt>
      <trkpt lat="45.84701" lon="4.77841">
        <ele>616.781415</ele>
        <time>2021-04-24T07:16:24.496Z</time>
      </trkpt>
      <trkpt lat="45.84695" lon="4.77861">
        <ele>616.327124</ele>
        <time>2021-04-24T07:16:26.519Z</time>
      </trkpt>
      <trkpt lat="45.84686" lon="4.77882">
        <ele>615.81695</ele>
        <time>2021-04-24T07:16:28.505Z</time>
      </trkpt>
      <trkpt lat="45.84677" lon="4.77902">
        <ele>615.30702</ele>
        <time>2021-04-24T07:16:30.506Z</time>
      </trkpt>
      <trkpt lat="45.84665" lon="4.77918">
        <ele>614.810834</ele>
        <time>2021-04-24T07:16:32.501Z</time>
      </trkpt>
      <trkpt lat="45.84653" lon="4.77921">
        <ele>614.437274</ele>
        <time>2021-04-24T07:16:34.498Z</time>
      </trkpt>
      <trkpt lat="45.84644" lon="4.77908">
        <ele>614.044551</ele>
        <time>2021-04-24T07:16:36.504Z</time>
      </trkpt>
      <trkpt lat="45.84644" lon="4.77888">
        <ele>613.637568</ele>
        <time>2021-04-24T07:16:38.541Z</time>
      </trkpt>
      <trkpt lat="45.84653" lon="4.77873">
        <ele>612.800431</ele>
        <time>2021-04-24T07:16:40.508Z</time>
      </trkpt>
      <trkpt lat="45.84665" lon="4.77862">
        <ele>611.847396</ele>
        <time>2021-04-24T07:16:42.503Z</time>
      </trkpt>
      <trkpt lat="45.84676" lon="4.77845">
        <ele>610.76452</ele>
        <time>2021-04-24T07:16:44.525Z</time>
      </trkpt>
      <trkpt lat="45.84686" lon="4.77826">
        <ele>609.636232</ele>
        <time>2021-04-24T07:16:46.505Z</time>
      </trkpt>
      <trkpt lat="45.84694" lon="4.77804">
        <ele>608.45097</ele>
        <time>2021-04-24T07:16:48.507Z</time>
      </trkpt>
      <trkpt lat="45.84698" lon="4.77791">
        <ele>607.810154</ele>
        <time>2021-04-24T07:16:49.504Z</time>
      </trkpt>
      <trkpt lat="45.84702" lon="4.77778">
        <ele>607.13218</ele>
        <time>2021-04-24T07:16:50.556Z</time>
      </trkpt>
      <trkpt lat="45.84706" lon="4.77765">
        <ele>606.457068</ele>
        <time>2021-04-24T07:16:51.501Z</time>
      </trkpt>
      <trkpt lat="45.8471" lon="4.77752">
        <ele>605.771998</ele>
        <time>2021-04-24T07:16:52.501Z</time>
      </trkpt>
      <trkpt lat="45.84715" lon="4.77739">
        <ele>605.062686</ele>
        <time>2021-04-24T07:16:53.505Z</time>
      </trkpt>
      <trkpt lat="45.8472" lon="4.77724">
        <ele>604.300357</ele>
        <time>2021-04-24T07:16:54.506Z</time>
      </trkpt>
      <trkpt lat="45.84724" lon="4.7771">
        <ele>603.555296</ele>
        <time>2021-04-24T07:16:55.503Z</time>
      </trkpt>
      <trkpt lat="45.84728" lon="4.77695">
        <ele>602.8037</ele>
        <time>2021-04-24T07:16:56.521Z</time>
      </trkpt>
      <trkpt lat="45.84728" lon="4.7768">
        <ele>602.10421</ele>
        <time>2021-04-24T07:16:57.511Z</time>
      </trkpt>
      <trkpt lat="45.84727" lon="4.77664">
        <ele>601.360728</ele>
        <time>2021-04-24T07:16:58.508Z</time>
      </trkpt>
      <trkpt lat="45.84723" lon="4.77649">
        <ele>600.575223</ele>
        <time>2021-04-24T07:16:59.506Z</time>
      </trkpt>
      <trkpt lat="45.84718" lon="4.77635">
        <ele>599.777751</ele>
        <time>2021-04-24T07:17:00.518Z</time>
      </trkpt>
      <trkpt lat="45.84713" lon="4.7762">
        <ele>598.971256</ele>
        <time>2021-04-24T07:17:01.506Z</time>
      </trkpt>
      <trkpt lat="45.84708" lon="4.77606">
        <ele>598.159807</ele>
        <time>2021-04-24T07:17:02.519Z</time>
      </trkpt>
      <trkpt lat="45.84703" lon="4.77592">
        <ele>597.377797</ele>
        <time>2021-04-24T07:17:03.501Z</time>
      </trkpt>
      <trkpt lat="45.84697" lon="4.7758">
        <ele>596.631156</ele>
        <time>2021-04-24T07:17:04.503Z</time>
      </trkpt>
      <trkpt lat="45.8469" lon="4.77569">
        <ele>595.917287</ele>
        <time>2021-04-24T07:17:05.494Z</time>
      </trkpt>
      <trkpt lat="45.84683" lon="4.77562">
        <ele>595.270535</ele>
        <time>2021-04-24T07:17:06.508Z</time>
      </trkpt>
      <trkpt lat="45.84666" lon="4.77558">
        <ele>594.036689</ele>
        <time>2021-04-24T07:17:08.500Z</time>
      </trkpt>
      <trkpt lat="45.84648" lon="4.77557">
        <ele>592.759535</ele>
        <time>2021-04-24T07:17:10.506Z</time>
      </trkpt>
      <trkpt lat="45.8463" lon="4.77559">
        <ele>591.493786</ele>
        <time>2021-04-24T07:17:12.536Z</time>
      </trkpt>
      <trkpt lat="45.84621" lon="4.77562">
        <ele>590.827386</ele>
        <time>2021-04-24T07:17:13.519Z</time>
      </trkpt>
      <trkpt lat="45.84604" lon="4.77568">
        <ele>589.5301</ele>
        <time>2021-04-24T07:17:15.499Z</time>
      </trkpt>
      <trkpt lat="45.84595" lon="4.77572">
        <ele>588.877939</ele>
        <time>2021-04-24T07:17:16.517Z</time>
      </trkpt>
      <trkpt lat="45.84585" lon="4.77576">
        <ele>588.196943</ele>
        <time>2021-04-24T07:17:17.522Z</time>
      </trkpt>
      <trkpt lat="45.84576" lon="4.7758">
        <ele>587.578825</ele>
        <time>2021-04-24T07:17:18.518Z</time>
      </trkpt>
      <trkpt lat="45.84567" lon="4.77585">
        <ele>586.984538</ele>
        <time>2021-04-24T07:17:19.507Z</time>
      </trkpt>
      <trkpt lat="45.84558" lon="4.77589">
        <ele>586.404855</ele>
        <time>2021-04-24T07:17:20.512Z</time>
      </trkpt>
      <trkpt lat="45.84549" lon="4.77594">
        <ele>585.800325</ele>
        <time>2021-04-24T07:17:21.504Z</time>
      </trkpt>
      <trkpt lat="45.84536" lon="4.77602">
        <ele>584.893368</ele>
        <time>2021-04-24T07:17:23.507Z</time>
      </trkpt>
      <trkpt lat="45.84527" lon="4.77628">
        <ele>583.65937</ele>
        <time>2021-04-24T07:17:26.504Z</time>
      </trkpt>
      <trkpt lat="45.84525" lon="4.77647">
        <ele>582.83132</ele>
        <time>2021-04-24T07:17:27.501Z</time>
      </trkpt>
      <trkpt lat="45.84525" lon="4.77662">
        <ele>582.199726</ele>
        <time>2021-04-24T07:17:28.567Z</time>
      </trkpt>
      <trkpt lat="45.84525" lon="4.77678">
        <ele>581.507101</ele>
        <time>2021-04-24T07:17:29.499Z</time>
      </trkpt>
      <trkpt lat="45.84525" lon="4.77692">
        <ele>580.893002</ele>
        <time>2021-04-24T07:17:30.500Z</time>
      </trkpt>
      <trkpt lat="45.84522" lon="4.77707">
        <ele>580.209477</ele>
        <time>2021-04-24T07:17:31.508Z</time>
      </trkpt>
      <trkpt lat="45.84519" lon="4.77721">
        <ele>579.57058</ele>
        <time>2021-04-24T07:17:32.502Z</time>
      </trkpt>
      <trkpt lat="45.84513" lon="4.77736">
        <ele>578.825958</ele>
        <time>2021-04-24T07:17:33.497Z</time>
      </trkpt>
      <trkpt lat="45.84506" lon="4.77749">
        <ele>578.166166</ele>
        <time>2021-04-24T07:17:34.497Z</time>
      </trkpt>
      <trkpt lat="45.84499" lon="4.77759">
        <ele>577.529562</ele>
        <time>2021-04-24T07:17:35.501Z</time>
      </trkpt>
      <trkpt lat="45.8449" lon="4.77766">
        <ele>576.898065</ele>
        <time>2021-04-24T07:17:36.517Z</time>
      </trkpt>
      <trkpt lat="45.84481" lon="4.77773">
        <ele>576.235111</ele>
        <time>2021-04-24T07:17:37.521Z</time>
      </trkpt>
      <trkpt lat="45.84472" lon="4.77781">
        <ele>575.54693</ele>
        <time>2021-04-24T07:17:38.512Z</time>
      </trkpt>
      <trkpt lat="45.84463" lon="4.77789">
        <ele>574.89712</ele>
        <time>2021-04-24T07:17:39.509Z</time>
      </trkpt>
      <trkpt lat="45.84454" lon="4.77796">
        <ele>574.272509</ele>
        <time>2021-04-24T07:17:40.501Z</time>
      </trkpt>
      <trkpt lat="45.84445" lon="4.77803">
        <ele>573.594212</ele>
        <time>2021-04-24T07:17:41.507Z</time>
      </trkpt>
      <trkpt lat="45.84436" lon="4.77811">
        <ele>572.929055</ele>
        <time>2021-04-24T07:17:42.508Z</time>
      </trkpt>
      <trkpt lat="45.84427" lon="4.77818">
        <ele>572.263897</ele>
        <time>2021-04-24T07:17:43.502Z</time>
      </trkpt>
      <trkpt lat="45.84419" lon="4.77825">
        <ele>571.663378</ele>
        <time>2021-04-24T07:17:44.506Z</time>
      </trkpt>
      <trkpt lat="45.8441" lon="4.77833">
        <ele>571.02447</ele>
        <time>2021-04-24T07:17:45.504Z</time>
      </trkpt>
      <trkpt lat="45.84402" lon="4.77841">
        <ele>570.420152</ele>
        <time>2021-04-24T07:17:46.510Z</time>
      </trkpt>
      <trkpt lat="45.84395" lon="4.77851">
        <ele>569.784382</ele>
        <time>2021-04-24T07:17:47.516Z</time>
      </trkpt>
      <trkpt lat="45.84387" lon="4.77859">
        <ele>569.191548</ele>
        <time>2021-04-24T07:17:48.515Z</time>
      </trkpt>
      <trkpt lat="45.8438" lon="4.77867">
        <ele>568.613604</ele>
        <time>2021-04-24T07:17:49.510Z</time>
      </trkpt>
      <trkpt lat="45.84365" lon="4.7788">
        <ele>567.516871</ele>
        <time>2021-04-24T07:17:51.500Z</time>
      </trkpt>
      <trkpt lat="45.8435" lon="4.77878">
        <ele>566.556018</ele>
        <time>2021-04-24T07:17:53.515Z</time>
      </trkpt>
      <trkpt lat="45.84342" lon="4.77859">
        <ele>565.683104</ele>
        <time>2021-04-24T07:17:55.500Z</time>
      </trkpt>
      <trkpt lat="45.84343" lon="4.77838">
        <ele>564.994684</ele>
        <time>2021-04-24T07:17:57.513Z</time>
      </trkpt>
      <trkpt lat="45.84353" lon="4.77822">
        <ele>564.311839</ele>
        <time>2021-04-24T07:17:59.534Z</time>
      </trkpt>
      <trkpt lat="45.84361" lon="4.77815">
        <ele>563.895713</ele>
        <time>2021-04-24T07:18:00.512Z</time>
      </trkpt>
      <trkpt lat="45.84375" lon="4.77802">
        <ele>563.142776</ele>
        <time>2021-04-24T07:18:02.518Z</time>
      </trkpt>
      <trkpt lat="45.84387" lon="4.77786">
        <ele>562.402363</ele>
        <time>2021-04-24T07:18:04.492Z</time>
      </trkpt>
      <trkpt lat="45.84393" lon="4.77765">
        <ele>561.687031</ele>
        <time>2021-04-24T07:18:06.506Z</time>
      </trkpt>
      <trkpt lat="45.84391" lon="4.77741">
        <ele>560.898426</ele>
        <time>2021-04-24T07:18:08.507Z</time>
      </trkpt>
      <trkpt lat="45.8438" lon="4.77722">
        <ele>560.128067</ele>
        <time>2021-04-24T07:18:10.513Z</time>
      </trkpt>
      <trkpt lat="45.84367" lon="4.77708">
        <ele>559.3735</ele>
        <time>2021-04-24T07:18:12.512Z</time>
      </trkpt>
      <trkpt lat="45.84352" lon="4.77696">
        <ele>558.586884</ele>
        <time>2021-04-24T07:18:14.496Z</time>
      </trkpt>
      <trkpt lat="45.84344" lon="4.77689">
        <ele>558.15945</ele>
        <time>2021-04-24T07:18:15.513Z</time>
      </trkpt>
      <trkpt lat="45.84327" lon="4.77677">
        <ele>557.173484</ele>
        <time>2021-04-24T07:18:17.545Z</time>
      </trkpt>
      <trkpt lat="45.84319" lon="4.77674">
        <ele>556.607371</ele>
        <time>2021-04-24T07:18:18.517Z</time>
      </trkpt>
      <trkpt lat="45.84309" lon="4.77671">
        <ele>556.015461</ele>
        <time>2021-04-24T07:18:19.492Z</time>
      </trkpt>
      <trkpt lat="45.843" lon="4.77666">
        <ele>555.446762</ele>
        <time>2021-04-24T07:18:20.486Z</time>
      </trkpt>
      <trkpt lat="45.8429" lon="4.77667">
        <ele>554.788996</ele>
        <time>2021-04-24T07:18:21.503Z</time>
      </trkpt>
      <trkpt lat="45.8428" lon="4.77667">
        <ele>554.174179</ele>
        <time>2021-04-24T07:18:22.498Z</time>
      </trkpt>
      <trkpt lat="45.84269" lon="4.77668">
        <ele>553.540346</ele>
        <time>2021-04-24T07:18:23.534Z</time>
      </trkpt>
      <trkpt lat="45.84259" lon="4.77669">
        <ele>552.917026</ele>
        <time>2021-04-24T07:18:24.508Z</time>
      </trkpt>
      <trkpt lat="45.84249" lon="4.77672">
        <ele>552.280241</ele>
        <time>2021-04-24T07:18:25.516Z</time>
      </trkpt>
      <trkpt lat="45.84239" lon="4.77673">
        <ele>551.680549</ele>
        <time>2021-04-24T07:18:26.510Z</time>
      </trkpt>
      <trkpt lat="45.84229" lon="4.77673">
        <ele>551.059705</ele>
        <time>2021-04-24T07:18:27.511Z</time>
      </trkpt>
      <trkpt lat="45.8422" lon="4.77671">
        <ele>550.464597</ele>
        <time>2021-04-24T07:18:28.494Z</time>
      </trkpt>
      <trkpt lat="45.84203" lon="4.77663">
        <ele>549.355026</ele>
        <time>2021-04-24T07:18:30.507Z</time>
      </trkpt>
      <trkpt lat="45.84188" lon="4.77652">
        <ele>548.327072</ele>
        <time>2021-04-24T07:18:32.512Z</time>
      </trkpt>
      <trkpt lat="45.84172" lon="4.7765">
        <ele>547.38004</ele>
        <time>2021-04-24T07:18:34.518Z</time>
      </trkpt>
      <trkpt lat="45.8416" lon="4.77659">
        <ele>546.6323</ele>
        <time>2021-04-24T07:18:36.508Z</time>
      </trkpt>
      <trkpt lat="45.84157" lon="4.77679">
        <ele>546.290492</ele>
        <time>2021-04-24T07:18:38.503Z</time>
      </trkpt>
      <trkpt lat="45.8416" lon="4.77696">
        <ele>545.984655</ele>
        <time>2021-04-24T07:18:40.517Z</time>
      </trkpt>
      <trkpt lat="45.84175" lon="4.77705">
        <ele>545.594579</ele>
        <time>2021-04-24T07:18:42.510Z</time>
      </trkpt>
      <trkpt lat="45.84189" lon="4.77709">
        <ele>545.238016</ele>
        <time>2021-04-24T07:18:44.508Z</time>
      </trkpt>
      <trkpt lat="45.84202" lon="4.77714">
        <ele>544.909357</ele>
        <time>2021-04-24T07:18:46.518Z</time>
      </trkpt>
      <trkpt lat="45.84217" lon="4.77722">
        <ele>544.525673</ele>
        <time>2021-04-24T07:18:48.506Z</time>
      </trkpt>
      <trkpt lat="45.84227" lon="4.77742">
        <ele>544.122135</ele>
        <time>2021-04-24T07:18:50.539Z</time>
      </trkpt>
      <trkpt lat="45.8423" lon="4.77766">
        <ele>543.702237</ele>
        <time>2021-04-24T07:18:52.508Z</time>
      </trkpt>
      <trkpt lat="45.84229" lon="4.7778">
        <ele>543.467298</ele>
        <time>2021-04-24T07:18:53.514Z</time>
      </trkpt>
      <trkpt lat="45.8422" lon="4.778">
        <ele>543.059233</ele>
        <time>2021-04-24T07:18:55.509Z</time>
      </trkpt>
      <trkpt lat="45.84207" lon="4.77815">
        <ele>542.665016</ele>
        <time>2021-04-24T07:18:57.502Z</time>
      </trkpt>
      <trkpt lat="45.84195" lon="4.77828">
        <ele>542.223971</ele>
        <time>2021-04-24T07:18:59.500Z</time>
      </trkpt>
      <trkpt lat="45.84183" lon="4.77846">
        <ele>541.123292</ele>
        <time>2021-04-24T07:19:01.501Z</time>
      </trkpt>
      <trkpt lat="45.84171" lon="4.77865">
        <ele>539.989389</ele>
        <time>2021-04-24T07:19:03.499Z</time>
      </trkpt>
      <trkpt lat="45.84159" lon="4.77883">
        <ele>538.868642</ele>
        <time>2021-04-24T07:19:05.501Z</time>
      </trkpt>
      <trkpt lat="45.84153" lon="4.77892">
        <ele>538.2693</ele>
        <time>2021-04-24T07:19:06.507Z</time>
      </trkpt>
      <trkpt lat="45.84143" lon="4.77912">
        <ele>537.203691</ele>
        <time>2021-04-24T07:19:08.503Z</time>
      </trkpt>
      <trkpt lat="45.84133" lon="4.77926">
        <ele>536.2851</ele>
        <time>2021-04-24T07:19:10.499Z</time>
      </trkpt>
      <trkpt lat="45.84121" lon="4.77937">
        <ele>535.374878</ele>
        <time>2021-04-24T07:19:12.515Z</time>
      </trkpt>
      <trkpt lat="45.84108" lon="4.77936">
        <ele>534.524882</ele>
        <time>2021-04-24T07:19:14.503Z</time>
      </trkpt>
      <trkpt lat="45.84099" lon="4.77921">
        <ele>533.644737</ele>
        <time>2021-04-24T07:19:16.511Z</time>
      </trkpt>
      <trkpt lat="45.84097" lon="4.779">
        <ele>532.707856</ele>
        <time>2021-04-24T07:19:18.502Z</time>
      </trkpt>
      <trkpt lat="45.84105" lon="4.77879">
        <ele>531.661139</ele>
        <time>2021-04-24T07:19:20.503Z</time>
      </trkpt>
      <trkpt lat="45.84113" lon="4.7786">
        <ele>530.664148</ele>
        <time>2021-04-24T07:19:22.519Z</time>
      </trkpt>
      <trkpt lat="45.8412" lon="4.7784">
        <ele>529.515499</ele>
        <time>2021-04-24T07:19:24.525Z</time>
      </trkpt>
      <trkpt lat="45.84125" lon="4.77818">
        <ele>528.361973</ele>
        <time>2021-04-24T07:19:26.509Z</time>
      </trkpt>
      <trkpt lat="45.84126" lon="4.77793">
        <ele>527.117966</ele>
        <time>2021-04-24T07:19:28.511Z</time>
      </trkpt>
      <trkpt lat="45.84125" lon="4.77768">
        <ele>525.887108</ele>
        <time>2021-04-24T07:19:30.506Z</time>
      </trkpt>
      <trkpt lat="45.84123" lon="4.77756">
        <ele>525.243066</ele>
        <time>2021-04-24T07:19:31.515Z</time>
      </trkpt>
      <trkpt lat="45.84118" lon="4.77744">
        <ele>524.590826</ele>
        <time>2021-04-24T07:19:32.506Z</time>
      </trkpt>
      <trkpt lat="45.84106" lon="4.77746">
        <ele>523.697193</ele>
        <time>2021-04-24T07:19:33.518Z</time>
      </trkpt>
      <trkpt lat="45.8409" lon="4.77749">
        <ele>522.573578</ele>
        <time>2021-04-24T07:19:35.548Z</time>
      </trkpt>
      <trkpt lat="45.84081" lon="4.77764">
        <ele>521.570673</ele>
        <time>2021-04-24T07:19:37.495Z</time>
      </trkpt>
      <trkpt lat="45.84075" lon="4.77788">
        <ele>520.277066</ele>
        <time>2021-04-24T07:19:39.517Z</time>
      </trkpt>
      <trkpt lat="45.84071" lon="4.77801">
        <ele>519.577064</ele>
        <time>2021-04-24T07:19:40.506Z</time>
      </trkpt>
      <trkpt lat="45.84068" lon="4.77815">
        <ele>518.823143</ele>
        <time>2021-04-24T07:19:41.537Z</time>
      </trkpt>
      <trkpt lat="45.84064" lon="4.77831">
        <ele>517.989015</ele>
        <time>2021-04-24T07:19:42.502Z</time>
      </trkpt>
      <trkpt lat="45.84061" lon="4.77845">
        <ele>517.107172</ele>
        <time>2021-04-24T07:19:43.508Z</time>
      </trkpt>
      <trkpt lat="45.84058" lon="4.77857">
        <ele>516.266358</ele>
        <time>2021-04-24T07:19:44.515Z</time>
      </trkpt>
      <trkpt lat="45.84054" lon="4.77871">
        <ele>515.33698</ele>
        <time>2021-04-24T07:19:45.504Z</time>
      </trkpt>
      <trkpt lat="45.84051" lon="4.77884">
        <ele>514.461847</ele>
        <time>2021-04-24T07:19:46.520Z</time>
      </trkpt>
      <trkpt lat="45.84042" lon="4.77901">
        <ele>513.095786</ele>
        <time>2021-04-24T07:19:48.509Z</time>
      </trkpt>
      <trkpt lat="45.84028" lon="4.77905">
        <ele>511.849163</ele>
        <time>2021-04-24T07:19:50.512Z</time>
      </trkpt>
      <trkpt lat="45.84016" lon="4.77894">
        <ele>510.541998</ele>
        <time>2021-04-24T07:19:52.512Z</time>
      </trkpt>
      <trkpt lat="45.84011" lon="4.77877">
        <ele>509.320115</ele>
        <time>2021-04-24T07:19:54.506Z</time>
      </trkpt>
      <trkpt lat="45.84015" lon="4.77858">
        <ele>508.056795</ele>
        <time>2021-04-24T07:19:56.502Z</time>
      </trkpt>
      <trkpt lat="45.84024" lon="4.77841">
        <ele>506.699571</ele>
        <time>2021-04-24T07:19:58.504Z</time>
      </trkpt>
      <trkpt lat="45.8403" lon="4.77821">
        <ele>505.34684</ele>
        <time>2021-04-24T07:20:00.495Z</time>
      </trkpt>
      <trkpt lat="45.84026" lon="4.77801">
        <ele>504.021029</ele>
        <time>2021-04-24T07:20:02.512Z</time>
      </trkpt>
      <trkpt lat="45.84011" lon="4.77794">
        <ele>502.608231</ele>
        <time>2021-04-24T07:20:04.497Z</time>
      </trkpt>
      <trkpt lat="45.83995" lon="4.77794">
        <ele>501.216151</ele>
        <time>2021-04-24T07:20:06.507Z</time>
      </trkpt>
      <trkpt lat="45.83978" lon="4.77793">
        <ele>499.94537</ele>
        <time>2021-04-24T07:20:08.506Z</time>
      </trkpt>
      <trkpt lat="45.8396" lon="4.77794">
        <ele>498.622663</ele>
        <time>2021-04-24T07:20:10.542Z</time>
      </trkpt>
      <trkpt lat="45.83942" lon="4.77795">
        <ele>497.261358</ele>
        <time>2021-04-24T07:20:12.509Z</time>
      </trkpt>
      <trkpt lat="45.83932" lon="4.77796">
        <ele>496.543538</ele>
        <time>2021-04-24T07:20:13.505Z</time>
      </trkpt>
      <trkpt lat="45.83921" lon="4.77797">
        <ele>495.722161</ele>
        <time>2021-04-24T07:20:14.500Z</time>
      </trkpt>
      <trkpt lat="45.8391" lon="4.77797">
        <ele>494.938962</ele>
        <time>2021-04-24T07:20:15.504Z</time>
      </trkpt>
      <trkpt lat="45.839" lon="4.77798">
        <ele>494.15475</ele>
        <time>2021-04-24T07:20:16.511Z</time>
      </trkpt>
      <trkpt lat="45.8389" lon="4.77799">
        <ele>493.427639</ele>
        <time>2021-04-24T07:20:17.509Z</time>
      </trkpt>
      <trkpt lat="45.8388" lon="4.77799">
        <ele>492.718389</ele>
        <time>2021-04-24T07:20:18.513Z</time>
      </trkpt>
      <trkpt lat="45.83871" lon="4.77798">
        <ele>492.030609</ele>
        <time>2021-04-24T07:20:19.505Z</time>
      </trkpt>
      <trkpt lat="45.83862" lon="4.77796">
        <ele>491.356959</ele>
        <time>2021-04-24T07:20:20.486Z</time>
      </trkpt>
      <trkpt lat="45.83846" lon="4.77789">
        <ele>490.082848</ele>
        <time>2021-04-24T07:20:22.558Z</time>
      </trkpt>
      <trkpt lat="45.83833" lon="4.77774">
        <ele>488.850558</ele>
        <time>2021-04-24T07:20:24.507Z</time>
      </trkpt>
      <trkpt lat="45.83826" lon="4.77765">
        <ele>488.167738</ele>
        <time>2021-04-24T07:20:25.516Z</time>
      </trkpt>
      <trkpt lat="45.83818" lon="4.77741">
        <ele>486.928563</ele>
        <time>2021-04-24T07:20:27.514Z</time>
      </trkpt>
      <trkpt lat="45.83817" lon="4.77725">
        <ele>486.180754</ele>
        <time>2021-04-24T07:20:28.513Z</time>
      </trkpt>
      <trkpt lat="45.83813" lon="4.77713">
        <ele>485.558861</ele>
        <time>2021-04-24T07:20:29.507Z</time>
      </trkpt>
      <trkpt lat="45.8381" lon="4.777">
        <ele>484.947043</ele>
        <time>2021-04-24T07:20:30.535Z</time>
      </trkpt>
      <trkpt lat="45.83807" lon="4.77688">
        <ele>484.324565</ele>
        <time>2021-04-24T07:20:31.512Z</time>
      </trkpt>
      <trkpt lat="45.83804" lon="4.77675">
        <ele>483.708215</ele>
        <time>2021-04-24T07:20:32.500Z</time>
      </trkpt>
      <trkpt lat="45.83802" lon="4.77661">
        <ele>483.046558</ele>
        <time>2021-04-24T07:20:33.504Z</time>
      </trkpt>
      <trkpt lat="45.838" lon="4.77648">
        <ele>482.416076</ele>
        <time>2021-04-24T07:20:34.565Z</time>
      </trkpt>
      <trkpt lat="45.83796" lon="4.77634">
        <ele>481.751974</ele>
        <time>2021-04-24T07:20:35.503Z</time>
      </trkpt>
      <trkpt lat="45.83792" lon="4.7762">
        <ele>481.048687</ele>
        <time>2021-04-24T07:20:36.507Z</time>
      </trkpt>
      <trkpt lat="45.83788" lon="4.77606">
        <ele>480.310287</ele>
        <time>2021-04-24T07:20:37.508Z</time>
      </trkpt>
      <trkpt lat="45.83783" lon="4.77592">
        <ele>479.576344</ele>
        <time>2021-04-24T07:20:38.504Z</time>
      </trkpt>
      <trkpt lat="45.83781" lon="4.77576">
        <ele>478.842077</ele>
        <time>2021-04-24T07:20:39.505Z</time>
      </trkpt>
      <trkpt lat="45.83779" lon="4.77562">
        <ele>478.196873</ele>
        <time>2021-04-24T07:20:40.525Z</time>
      </trkpt>
      <trkpt lat="45.83778" lon="4.77537">
        <ele>477.000774</ele>
        <time>2021-04-24T07:20:42.496Z</time>
      </trkpt>
      <trkpt lat="45.83776" lon="4.77515">
        <ele>476.026838</ele>
        <time>2021-04-24T07:20:44.502Z</time>
      </trkpt>
      <trkpt lat="45.83773" lon="4.77498">
        <ele>475.386134</ele>
        <time>2021-04-24T07:20:46.513Z</time>
      </trkpt>
      <trkpt lat="45.83767" lon="4.77487">
        <ele>474.887026</ele>
        <time>2021-04-24T07:20:48.507Z</time>
      </trkpt>
      <trkpt lat="45.83761" lon="4.77476">
        <ele>474.368812</ele>
        <time>2021-04-24T07:20:50.503Z</time>
      </trkpt>
      <trkpt lat="45.83756" lon="4.77463">
        <ele>473.818063</ele>
        <time>2021-04-24T07:20:52.526Z</time>
      </trkpt>
      <trkpt lat="45.83756" lon="4.77447">
        <ele>473.209776</ele>
        <time>2021-04-24T07:20:54.489Z</time>
      </trkpt>
      <trkpt lat="45.8376" lon="4.77427">
        <ele>472.432956</ele>
        <time>2021-04-24T07:20:56.491Z</time>
      </trkpt>
      <trkpt lat="45.83768" lon="4.77409">
        <ele>471.662121</ele>
        <time>2021-04-24T07:20:58.493Z</time>
      </trkpt>
      <trkpt lat="45.83779" lon="4.77394">
        <ele>470.863323</ele>
        <time>2021-04-24T07:21:00.491Z</time>
      </trkpt>
      <trkpt lat="45.8379" lon="4.77378">
        <ele>470.015675</ele>
        <time>2021-04-24T07:21:02.491Z</time>
      </trkpt>
      <trkpt lat="45.83802" lon="4.77366">
        <ele>469.247879</ele>
        <time>2021-04-24T07:21:04.493Z</time>
      </trkpt>
      <trkpt lat="45.83812" lon="4.77356">
        <ele>468.583508</ele>
        <time>2021-04-24T07:21:06.491Z</time>
      </trkpt>
      <trkpt lat="45.83818" lon="4.77341">
        <ele>467.954275</ele>
        <time>2021-04-24T07:21:08.489Z</time>
      </trkpt>
      <trkpt lat="45.83819" lon="4.77326">
        <ele>467.393301</ele>
        <time>2021-04-24T07:21:10.503Z</time>
      </trkpt>
      <trkpt lat="45.8381" lon="4.77313">
        <ele>466.73379</ele>
        <time>2021-04-24T07:21:12.490Z</time>
      </trkpt>
      <trkpt lat="45.83801" lon="4.77299">
        <ele>465.698726</ele>
        <time>2021-04-24T07:21:14.493Z</time>
      </trkpt>
      <trkpt lat="45.83794" lon="4.77283">
        <ele>464.672343</ele>
        <time>2021-04-24T07:21:16.491Z</time>
      </trkpt>
      <trkpt lat="45.83789" lon="4.77266">
        <ele>463.702232</ele>
        <time>2021-04-24T07:21:18.502Z</time>
      </trkpt>
      <trkpt lat="45.83783" lon="4.77251">
        <ele>462.744568</ele>
        <time>2021-04-24T07:21:20.517Z</time>
      </trkpt>
      <trkpt lat="45.83776" lon="4.77235">
        <ele>461.73272</ele>
        <time>2021-04-24T07:21:22.507Z</time>
      </trkpt>
      <trkpt lat="45.83772" lon="4.77216">
        <ele>460.665193</ele>
        <time>2021-04-24T07:21:24.509Z</time>
      </trkpt>
      <trkpt lat="45.83771" lon="4.77201">
        <ele>459.863498</ele>
        <time>2021-04-24T07:21:26.500Z</time>
      </trkpt>
      <trkpt lat="45.83773" lon="4.77187">
        <ele>459.099752</ele>
        <time>2021-04-24T07:21:29.499Z</time>
      </trkpt>
      <trkpt lat="45.83776" lon="4.77172">
        <ele>458.268319</ele>
        <time>2021-04-24T07:21:33.512Z</time>
      </trkpt>
      <trkpt lat="45.83767" lon="4.77165">
        <ele>457.481566</ele>
        <time>2021-04-24T07:21:36.494Z</time>
      </trkpt>
      <trkpt lat="45.83755" lon="4.77161">
        <ele>456.527222</ele>
        <time>2021-04-24T07:21:39.558Z</time>
      </trkpt>
      <trkpt lat="45.83746" lon="4.77156">
        <ele>455.786486</ele>
        <time>2021-04-24T07:21:41.518Z</time>
      </trkpt>
      <trkpt lat="45.83736" lon="4.77152">
        <ele>455.00492</ele>
        <time>2021-04-24T07:21:43.505Z</time>
      </trkpt>
      <trkpt lat="45.83724" lon="4.77149">
        <ele>454.066208</ele>
        <time>2021-04-24T07:21:45.536Z</time>
      </trkpt>
      <trkpt lat="45.8371" lon="4.77145">
        <ele>452.968192</ele>
        <time>2021-04-24T07:21:47.505Z</time>
      </trkpt>
      <trkpt lat="45.83695" lon="4.77144">
        <ele>451.951979</ele>
        <time>2021-04-24T07:21:49.505Z</time>
      </trkpt>
      <trkpt lat="45.83679" lon="4.77143">
        <ele>450.926378</ele>
        <time>2021-04-24T07:21:51.511Z</time>
      </trkpt>
      <trkpt lat="45.83662" lon="4.77143">
        <ele>449.862434</ele>
        <time>2021-04-24T07:21:53.489Z</time>
      </trkpt>
      <trkpt lat="45.83645" lon="4.77145">
        <ele>448.76294</ele>
        <time>2021-04-24T07:21:55.515Z</time>
      </trkpt>
      <trkpt lat="45.83627" lon="4.77148">
        <ele>447.593958</ele>
        <time>2021-04-24T07:21:57.494Z</time>
      </trkpt>
      <trkpt lat="45.83618" lon="4.77148">
        <ele>447.00058</ele>
        <time>2021-04-24T07:21:58.491Z</time>
      </trkpt>
      <trkpt lat="45.83603" lon="4.77147">
        <ele>446.045745</ele>
        <time>2021-04-24T07:22:00.507Z</time>
      </trkpt>
      <trkpt lat="45.83591" lon="4.7715">
        <ele>445.272083</ele>
        <time>2021-04-24T07:22:02.509Z</time>
      </trkpt>
      <trkpt lat="45.83578" lon="4.77149">
        <ele>444.419501</ele>
        <time>2021-04-24T07:22:04.503Z</time>
      </trkpt>
      <trkpt lat="45.83565" lon="4.77144">
        <ele>443.566565</ele>
        <time>2021-04-24T07:22:06.512Z</time>
      </trkpt>
      <trkpt lat="45.83551" lon="4.77142">
        <ele>442.677665</ele>
        <time>2021-04-24T07:22:08.512Z</time>
      </trkpt>
      <trkpt lat="45.83536" lon="4.77142">
        <ele>441.710409</ele>
        <time>2021-04-24T07:22:10.517Z</time>
      </trkpt>
      <trkpt lat="45.83517" lon="4.77148">
        <ele>440.583093</ele>
        <time>2021-04-24T07:22:12.508Z</time>
      </trkpt>
      <trkpt lat="45.83506" lon="4.77141">
        <ele>439.927761</ele>
        <time>2021-04-24T07:22:14.516Z</time>
      </trkpt>
      <trkpt lat="45.83492" lon="4.7714">
        <ele>439.166977</ele>
        <time>2021-04-24T07:22:16.509Z</time>
      </trkpt>
      <trkpt lat="45.83479" lon="4.77141">
        <ele>438.470405</ele>
        <time>2021-04-24T07:22:18.493Z</time>
      </trkpt>
      <trkpt lat="45.83466" lon="4.7714">
        <ele>437.789148</ele>
        <time>2021-04-24T07:22:20.496Z</time>
      </trkpt>
      <trkpt lat="45.83454" lon="4.77138">
        <ele>437.144179</ele>
        <time>2021-04-24T07:22:22.493Z</time>
      </trkpt>
      <trkpt lat="45.83441" lon="4.7714">
        <ele>436.440207</ele>
        <time>2021-04-24T07:22:24.488Z</time>
      </trkpt>
      <trkpt lat="45.83428" lon="4.77141">
        <ele>435.711042</ele>
        <time>2021-04-24T07:22:26.500Z</time>
      </trkpt>
      <trkpt lat="45.83413" lon="4.77141">
        <ele>434.934634</ele>
        <time>2021-04-24T07:22:28.537Z</time>
      </trkpt>
      <trkpt lat="45.83399" lon="4.77139">
        <ele>434.171338</ele>
        <time>2021-04-24T07:22:30.494Z</time>
      </trkpt>
      <trkpt lat="45.83383" lon="4.77138">
        <ele>433.341259</ele>
        <time>2021-04-24T07:22:32.503Z</time>
      </trkpt>
      <trkpt lat="45.83369" lon="4.77138">
        <ele>432.548656</ele>
        <time>2021-04-24T07:22:34.503Z</time>
      </trkpt>
      <trkpt lat="45.83355" lon="4.77137">
        <ele>431.835719</ele>
        <time>2021-04-24T07:22:36.504Z</time>
      </trkpt>
      <trkpt lat="45.83343" lon="4.77136">
        <ele>431.064207</ele>
        <time>2021-04-24T07:22:38.498Z</time>
      </trkpt>
      <trkpt lat="45.8333" lon="4.77136">
        <ele>430.260733</ele>
        <time>2021-04-24T07:22:40.505Z</time>
      </trkpt>
      <trkpt lat="45.83318" lon="4.77134">
        <ele>429.486666</ele>
        <time>2021-04-24T07:22:42.511Z</time>
      </trkpt>
      <trkpt lat="45.83307" lon="4.77134">
        <ele>428.780146</ele>
        <time>2021-04-24T07:22:44.504Z</time>
      </trkpt>
      <trkpt lat="45.83299" lon="4.77127">
        <ele>428.165066</ele>
        <time>2021-04-24T07:22:46.506Z</time>
      </trkpt>
      <trkpt lat="45.8329" lon="4.77117">
        <ele>427.446905</ele>
        <time>2021-04-24T07:22:48.502Z</time>
      </trkpt>
      <trkpt lat="45.8328" lon="4.7711">
        <ele>426.719363</ele>
        <time>2021-04-24T07:22:50.539Z</time>
      </trkpt>
      <trkpt lat="45.83269" lon="4.77103">
        <ele>425.943411</ele>
        <time>2021-04-24T07:22:52.500Z</time>
      </trkpt>
      <trkpt lat="45.83255" lon="4.77096">
        <ele>425.019868</ele>
        <time>2021-04-24T07:22:54.502Z</time>
      </trkpt>
      <trkpt lat="45.83242" lon="4.77088">
        <ele>424.085044</ele>
        <time>2021-04-24T07:22:56.497Z</time>
      </trkpt>
      <trkpt lat="45.83228" lon="4.77078">
        <ele>423.080332</ele>
        <time>2021-04-24T07:22:58.498Z</time>
      </trkpt>
      <trkpt lat="45.83213" lon="4.77069">
        <ele>422.031565</ele>
        <time>2021-04-24T07:23:00.500Z</time>
      </trkpt>
      <trkpt lat="45.83197" lon="4.77059">
        <ele>420.937811</ele>
        <time>2021-04-24T07:23:02.503Z</time>
      </trkpt>
      <trkpt lat="45.83182" lon="4.77047">
        <ele>419.788236</ele>
        <time>2021-04-24T07:23:04.505Z</time>
      </trkpt>
      <trkpt lat="45.83174" lon="4.7704">
        <ele>419.168865</ele>
        <time>2021-04-24T07:23:05.504Z</time>
      </trkpt>
      <trkpt lat="45.83166" lon="4.77032">
        <ele>418.544866</ele>
        <time>2021-04-24T07:23:06.502Z</time>
      </trkpt>
      <trkpt lat="45.83159" lon="4.77024">
        <ele>417.913899</ele>
        <time>2021-04-24T07:23:07.512Z</time>
      </trkpt>
      <trkpt lat="45.83151" lon="4.77014">
        <ele>417.259832</ele>
        <time>2021-04-24T07:23:08.506Z</time>
      </trkpt>
      <trkpt lat="45.83144" lon="4.77005">
        <ele>416.584623</ele>
        <time>2021-04-24T07:23:09.503Z</time>
      </trkpt>
      <trkpt lat="45.83135" lon="4.76996">
        <ele>415.898181</ele>
        <time>2021-04-24T07:23:10.502Z</time>
      </trkpt>
      <trkpt lat="45.83127" lon="4.76986">
        <ele>415.212832</ele>
        <time>2021-04-24T07:23:11.519Z</time>
      </trkpt>
      <trkpt lat="45.8312" lon="4.76976">
        <ele>414.515435</ele>
        <time>2021-04-24T07:23:12.513Z</time>
      </trkpt>
      <trkpt lat="45.83112" lon="4.76967">
        <ele>413.839131</ele>
        <time>2021-04-24T07:23:13.550Z</time>
      </trkpt>
      <trkpt lat="45.83104" lon="4.76957">
        <ele>413.142727</ele>
        <time>2021-04-24T07:23:14.495Z</time>
      </trkpt>
      <trkpt lat="45.83096" lon="4.76947">
        <ele>412.447638</ele>
        <time>2021-04-24T07:23:15.504Z</time>
      </trkpt>
      <trkpt lat="45.83089" lon="4.76938">
        <ele>411.77628</ele>
        <time>2021-04-24T07:23:16.507Z</time>
      </trkpt>
      <trkpt lat="45.8308" lon="4.76928">
        <ele>411.073642</ele>
        <time>2021-04-24T07:23:17.520Z</time>
      </trkpt>
      <trkpt lat="45.83072" lon="4.7692">
        <ele>410.387513</ele>
        <time>2021-04-24T07:23:18.512Z</time>
      </trkpt>
      <trkpt lat="45.83063" lon="4.76912">
        <ele>409.694074</ele>
        <time>2021-04-24T07:23:19.539Z</time>
      </trkpt>
      <trkpt lat="45.83054" lon="4.76905">
        <ele>409.028566</ele>
        <time>2021-04-24T07:23:20.517Z</time>
      </trkpt>
      <trkpt lat="45.83045" lon="4.76898">
        <ele>408.344628</ele>
        <time>2021-04-24T07:23:21.527Z</time>
      </trkpt>
      <trkpt lat="45.83036" lon="4.76893">
        <ele>407.989265</ele>
        <time>2021-04-24T07:23:22.508Z</time>
      </trkpt>
      <trkpt lat="45.83026" lon="4.76889">
        <ele>407.812576</ele>
        <time>2021-04-24T07:23:23.513Z</time>
      </trkpt>
      <trkpt lat="45.83016" lon="4.76885">
        <ele>407.634232</ele>
        <time>2021-04-24T07:23:24.520Z</time>
      </trkpt>
      <trkpt lat="45.83006" lon="4.76882">
        <ele>407.465459</ele>
        <time>2021-04-24T07:23:25.545Z</time>
      </trkpt>
      <trkpt lat="45.82997" lon="4.7688">
        <ele>407.299406</ele>
        <time>2021-04-24T07:23:26.502Z</time>
      </trkpt>
      <trkpt lat="45.82987" lon="4.76879">
        <ele>407.136374</ele>
        <time>2021-04-24T07:23:27.506Z</time>
      </trkpt>
      <trkpt lat="45.82978" lon="4.76877">
        <ele>406.975626</ele>
        <time>2021-04-24T07:23:28.497Z</time>
      </trkpt>
      <trkpt lat="45.82969" lon="4.76875">
        <ele>406.810518</ele>
        <time>2021-04-24T07:23:29.501Z</time>
      </trkpt>
      <trkpt lat="45.82951" lon="4.76873">
        <ele>406.506818</ele>
        <time>2021-04-24T07:23:31.512Z</time>
      </trkpt>
    </trkseg>
  </trk>
  <trk>
    <name><![CDATA[De Villeurbanne à Limonest_2]]></name>
    <trkseg>
      <trkpt lat="45.82951" lon="4.76873">
        <ele>406.506818</ele>
        <time>2021-04-24T07:23:31.512Z</time>
      </trkpt>
      <trkpt lat="45.82934" lon="4.7687">
        <ele>406.199563</ele>
        <time>2021-04-24T07:23:33.519Z</time>
      </trkpt>
      <trkpt lat="45.82917" lon="4.76865">
        <ele>405.9133</ele>
        <time>2021-04-24T07:23:35.492Z</time>
      </trkpt>
      <trkpt lat="45.82902" lon="4.76858">
        <ele>405.63768</ele>
        <time>2021-04-24T07:23:37.499Z</time>
      </trkpt>
      <trkpt lat="45.82889" lon="4.76844">
        <ele>405.356217</ele>
        <time>2021-04-24T07:23:39.491Z</time>
      </trkpt>
      <trkpt lat="45.82876" lon="4.76831">
        <ele>405.07479</ele>
        <time>2021-04-24T07:23:41.503Z</time>
      </trkpt>
      <trkpt lat="45.82864" lon="4.76816">
        <ele>404.792508</ele>
        <time>2021-04-24T07:23:43.489Z</time>
      </trkpt>
      <trkpt lat="45.82851" lon="4.76801">
        <ele>404.48563</ele>
        <time>2021-04-24T07:23:45.497Z</time>
      </trkpt>
      <trkpt lat="45.82838" lon="4.76786">
        <ele>404.191318</ele>
        <time>2021-04-24T07:23:47.497Z</time>
      </trkpt>
      <trkpt lat="45.82822" lon="4.76777">
        <ele>403.882684</ele>
        <time>2021-04-24T07:23:49.504Z</time>
      </trkpt>
      <trkpt lat="45.82808" lon="4.76771">
        <ele>403.621688</ele>
        <time>2021-04-24T07:23:51.514Z</time>
      </trkpt>
      <trkpt lat="45.82793" lon="4.76769">
        <ele>403.330425</ele>
        <time>2021-04-24T07:23:53.488Z</time>
      </trkpt>
      <trkpt lat="45.82777" lon="4.7677">
        <ele>403.051745</ele>
        <time>2021-04-24T07:23:55.499Z</time>
      </trkpt>
      <trkpt lat="45.82763" lon="4.76769">
        <ele>402.795194</ele>
        <time>2021-04-24T07:23:57.504Z</time>
      </trkpt>
      <trkpt lat="45.82748" lon="4.7677">
        <ele>402.52773</ele>
        <time>2021-04-24T07:23:59.495Z</time>
      </trkpt>
      <trkpt lat="45.82735" lon="4.76769">
        <ele>402.276226</ele>
        <time>2021-04-24T07:24:01.499Z</time>
      </trkpt>
      <trkpt lat="45.82722" lon="4.76765">
        <ele>402.048357</ele>
        <time>2021-04-24T07:24:03.489Z</time>
      </trkpt>
      <trkpt lat="45.8271" lon="4.76761">
        <ele>401.826583</ele>
        <time>2021-04-24T07:24:05.504Z</time>
      </trkpt>
      <trkpt lat="45.82699" lon="4.76759">
        <ele>401.496069</ele>
        <time>2021-04-24T07:24:07.490Z</time>
      </trkpt>
      <trkpt lat="45.82688" lon="4.76756">
        <ele>401.079813</ele>
        <time>2021-04-24T07:24:09.495Z</time>
      </trkpt>
      <trkpt lat="45.82676" lon="4.76753">
        <ele>400.641714</ele>
        <time>2021-04-24T07:24:11.492Z</time>
      </trkpt>
      <trkpt lat="45.82664" lon="4.7675">
        <ele>400.215776</ele>
        <time>2021-04-24T07:24:13.499Z</time>
      </trkpt>
      <trkpt lat="45.82652" lon="4.76748">
        <ele>399.750318</ele>
        <time>2021-04-24T07:24:15.493Z</time>
      </trkpt>
      <trkpt lat="45.82639" lon="4.76746">
        <ele>399.279217</ele>
        <time>2021-04-24T07:24:17.501Z</time>
      </trkpt>
      <trkpt lat="45.82627" lon="4.76744">
        <ele>398.820023</ele>
        <time>2021-04-24T07:24:19.498Z</time>
      </trkpt>
      <trkpt lat="45.82613" lon="4.76739">
        <ele>398.297901</ele>
        <time>2021-04-24T07:24:21.501Z</time>
      </trkpt>
      <trkpt lat="45.826" lon="4.76736">
        <ele>397.797034</ele>
        <time>2021-04-24T07:24:23.507Z</time>
      </trkpt>
      <trkpt lat="45.82584" lon="4.76732">
        <ele>397.207689</ele>
        <time>2021-04-24T07:24:25.510Z</time>
      </trkpt>
      <trkpt lat="45.82569" lon="4.76721">
        <ele>396.577882</ele>
        <time>2021-04-24T07:24:27.500Z</time>
      </trkpt>
      <trkpt lat="45.82562" lon="4.76699">
        <ele>395.960809</ele>
        <time>2021-04-24T07:24:29.628Z</time>
      </trkpt>
      <trkpt lat="45.82553" lon="4.7668">
        <ele>395.375849</ele>
        <time>2021-04-24T07:24:31.505Z</time>
      </trkpt>
      <trkpt lat="45.82544" lon="4.76659">
        <ele>394.630248</ele>
        <time>2021-04-24T07:24:33.499Z</time>
      </trkpt>
      <trkpt lat="45.82536" lon="4.76639">
        <ele>393.806852</ele>
        <time>2021-04-24T07:24:35.540Z</time>
      </trkpt>
      <trkpt lat="45.8253" lon="4.7662">
        <ele>393.049004</ele>
        <time>2021-04-24T07:24:37.490Z</time>
      </trkpt>
      <trkpt lat="45.82521" lon="4.76601">
        <ele>392.208141</ele>
        <time>2021-04-24T07:24:39.526Z</time>
      </trkpt>
      <trkpt lat="45.82509" lon="4.76584">
        <ele>391.345252</ele>
        <time>2021-04-24T07:24:41.518Z</time>
      </trkpt>
      <trkpt lat="45.82497" lon="4.76567">
        <ele>390.493553</ele>
        <time>2021-04-24T07:24:43.500Z</time>
      </trkpt>
      <trkpt lat="45.82485" lon="4.76552">
        <ele>389.66093</ele>
        <time>2021-04-24T07:24:45.504Z</time>
      </trkpt>
      <trkpt lat="45.82471" lon="4.76537">
        <ele>388.780775</ele>
        <time>2021-04-24T07:24:47.537Z</time>
      </trkpt>
      <trkpt lat="45.8246" lon="4.76521">
        <ele>387.968633</ele>
        <time>2021-04-24T07:24:49.505Z</time>
      </trkpt>
      <trkpt lat="45.8245" lon="4.76507">
        <ele>387.247886</ele>
        <time>2021-04-24T07:24:51.503Z</time>
      </trkpt>
      <trkpt lat="45.82441" lon="4.76496">
        <ele>386.659967</ele>
        <time>2021-04-24T07:24:53.498Z</time>
      </trkpt>
      <trkpt lat="45.82434" lon="4.76487">
        <ele>386.16361</ele>
        <time>2021-04-24T07:24:55.504Z</time>
      </trkpt>
      <trkpt lat="45.82426" lon="4.76477">
        <ele>385.615397</ele>
        <time>2021-04-24T07:24:58.552Z</time>
      </trkpt>
      <trkpt lat="45.82418" lon="4.76467">
        <ele>385.079991</ele>
        <time>2021-04-24T07:25:03.503Z</time>
      </trkpt>
      <trkpt lat="45.82408" lon="4.76461">
        <ele>384.554481</ele>
        <time>2021-04-24T07:25:17.513Z</time>
      </trkpt>
      <trkpt lat="45.82398" lon="4.76452">
        <ele>383.97034</ele>
        <time>2021-04-24T07:25:20.507Z</time>
      </trkpt>
      <trkpt lat="45.82387" lon="4.76451">
        <ele>383.381501</ele>
        <time>2021-04-24T07:25:23.484Z</time>
      </trkpt>
      <trkpt lat="45.82378" lon="4.76463">
        <ele>382.747253</ele>
        <time>2021-04-24T07:25:25.493Z</time>
      </trkpt>
      <trkpt lat="45.8237" lon="4.76471">
        <ele>382.25239</ele>
        <time>2021-04-24T07:25:27.493Z</time>
      </trkpt>
      <trkpt lat="45.82361" lon="4.76481">
        <ele>381.676585</ele>
        <time>2021-04-24T07:25:29.492Z</time>
      </trkpt>
      <trkpt lat="45.8235" lon="4.76495">
        <ele>380.910164</ele>
        <time>2021-04-24T07:25:31.496Z</time>
      </trkpt>
      <trkpt lat="45.82338" lon="4.76508">
        <ele>380.168972</ele>
        <time>2021-04-24T07:25:33.493Z</time>
      </trkpt>
      <trkpt lat="45.82327" lon="4.76521">
        <ele>379.426717</ele>
        <time>2021-04-24T07:25:35.493Z</time>
      </trkpt>
      <trkpt lat="45.82316" lon="4.76531">
        <ele>378.750947</ele>
        <time>2021-04-24T07:25:37.503Z</time>
      </trkpt>
      <trkpt lat="45.82302" lon="4.76543">
        <ele>377.970379</ele>
        <time>2021-04-24T07:25:39.514Z</time>
      </trkpt>
      <trkpt lat="45.8229" lon="4.76553">
        <ele>377.236671</ele>
        <time>2021-04-24T07:25:41.521Z</time>
      </trkpt>
      <trkpt lat="45.82277" lon="4.76563">
        <ele>376.733935</ele>
        <time>2021-04-24T07:25:43.534Z</time>
      </trkpt>
      <trkpt lat="45.82263" lon="4.76572">
        <ele>376.844043</ele>
        <time>2021-04-24T07:25:45.506Z</time>
      </trkpt>
      <trkpt lat="45.8225" lon="4.76581">
        <ele>376.952609</ele>
        <time>2021-04-24T07:25:47.509Z</time>
      </trkpt>
      <trkpt lat="45.82236" lon="4.7659">
        <ele>377.06206</ele>
        <time>2021-04-24T07:25:49.536Z</time>
      </trkpt>
      <trkpt lat="45.82221" lon="4.766">
        <ele>377.176079</ele>
        <time>2021-04-24T07:25:51.529Z</time>
      </trkpt>
      <trkpt lat="45.8221" lon="4.76608">
        <ele>377.269227</ele>
        <time>2021-04-24T07:25:53.519Z</time>
      </trkpt>
      <trkpt lat="45.82198" lon="4.76614">
        <ele>377.36049</ele>
        <time>2021-04-24T07:25:55.543Z</time>
      </trkpt>
      <trkpt lat="45.82187" lon="4.76621">
        <ele>377.445338</ele>
        <time>2021-04-24T07:25:57.512Z</time>
      </trkpt>
      <trkpt lat="45.82176" lon="4.76625">
        <ele>377.527517</ele>
        <time>2021-04-24T07:25:59.525Z</time>
      </trkpt>
      <trkpt lat="45.82165" lon="4.76624">
        <ele>377.607792</ele>
        <time>2021-04-24T07:26:01.505Z</time>
      </trkpt>
      <trkpt lat="45.82156" lon="4.76615">
        <ele>377.687883</ele>
        <time>2021-04-24T07:26:03.502Z</time>
      </trkpt>
      <trkpt lat="45.8215" lon="4.766">
        <ele>377.775872</ele>
        <time>2021-04-24T07:26:05.514Z</time>
      </trkpt>
      <trkpt lat="45.82149" lon="4.76581">
        <ele>377.871174</ele>
        <time>2021-04-24T07:26:07.560Z</time>
      </trkpt>
      <trkpt lat="45.82148" lon="4.76561">
        <ele>377.972442</ele>
        <time>2021-04-24T07:26:09.509Z</time>
      </trkpt>
      <trkpt lat="45.82147" lon="4.76539">
        <ele>377.923019</ele>
        <time>2021-04-24T07:26:11.503Z</time>
      </trkpt>
      <trkpt lat="45.82147" lon="4.76519">
        <ele>377.827403</ele>
        <time>2021-04-24T07:26:13.504Z</time>
      </trkpt>
      <trkpt lat="45.82146" lon="4.76499">
        <ele>377.726899</ele>
        <time>2021-04-24T07:26:15.499Z</time>
      </trkpt>
      <trkpt lat="45.82146" lon="4.76478">
        <ele>377.624764</ele>
        <time>2021-04-24T07:26:17.503Z</time>
      </trkpt>
      <trkpt lat="45.82145" lon="4.76459">
        <ele>377.53115</ele>
        <time>2021-04-24T07:26:19.503Z</time>
      </trkpt>
      <trkpt lat="45.82146" lon="4.76441">
        <ele>377.443387</ele>
        <time>2021-04-24T07:26:21.511Z</time>
      </trkpt>
      <trkpt lat="45.82146" lon="4.76425">
        <ele>377.362514</ele>
        <time>2021-04-24T07:26:23.503Z</time>
      </trkpt>
      <trkpt lat="45.82148" lon="4.7641">
        <ele>377.289104</ele>
        <time>2021-04-24T07:26:25.517Z</time>
      </trkpt>
      <trkpt lat="45.8215" lon="4.76393">
        <ele>377.203521</ele>
        <time>2021-04-24T07:26:27.510Z</time>
      </trkpt>
      <trkpt lat="45.82151" lon="4.76374">
        <ele>377.108905</ele>
        <time>2021-04-24T07:26:29.505Z</time>
      </trkpt>
      <trkpt lat="45.82152" lon="4.76354">
        <ele>377.010213</ele>
        <time>2021-04-24T07:26:31.518Z</time>
      </trkpt>
      <trkpt lat="45.82153" lon="4.76334">
        <ele>376.912167</ele>
        <time>2021-04-24T07:26:33.496Z</time>
      </trkpt>
      <trkpt lat="45.82154" lon="4.76315">
        <ele>376.815481</ele>
        <time>2021-04-24T07:26:35.506Z</time>
      </trkpt>
      <trkpt lat="45.82156" lon="4.76293">
        <ele>376.708376</ele>
        <time>2021-04-24T07:26:37.498Z</time>
      </trkpt>
      <trkpt lat="45.82159" lon="4.76273">
        <ele>376.598824</ele>
        <time>2021-04-24T07:26:39.508Z</time>
      </trkpt>
      <trkpt lat="45.82162" lon="4.76253">
        <ele>376.490059</ele>
        <time>2021-04-24T07:26:41.500Z</time>
      </trkpt>
      <trkpt lat="45.82164" lon="4.76232">
        <ele>376.378789</ele>
        <time>2021-04-24T07:26:43.515Z</time>
      </trkpt>
      <trkpt lat="45.82166" lon="4.76212">
        <ele>376.267815</ele>
        <time>2021-04-24T07:26:45.513Z</time>
      </trkpt>
      <trkpt lat="45.82167" lon="4.7619">
        <ele>376.155413</ele>
        <time>2021-04-24T07:26:47.507Z</time>
      </trkpt>
      <trkpt lat="45.82169" lon="4.76169">
        <ele>376.043486</ele>
        <time>2021-04-24T07:26:49.513Z</time>
      </trkpt>
      <trkpt lat="45.82171" lon="4.76149">
        <ele>375.932323</ele>
        <time>2021-04-24T07:26:51.516Z</time>
      </trkpt>
      <trkpt lat="45.8217" lon="4.76128">
        <ele>375.82083</ele>
        <time>2021-04-24T07:26:53.490Z</time>
      </trkpt>
      <trkpt lat="45.82165" lon="4.76107">
        <ele>375.707079</ele>
        <time>2021-04-24T07:26:55.511Z</time>
      </trkpt>
      <trkpt lat="45.82157" lon="4.76091">
        <ele>375.59884</ele>
        <time>2021-04-24T07:26:57.511Z</time>
      </trkpt>
      <trkpt lat="45.82146" lon="4.76077">
        <ele>375.488879</ele>
        <time>2021-04-24T07:26:59.495Z</time>
      </trkpt>
      <trkpt lat="45.82134" lon="4.76064">
        <ele>375.376408</ele>
        <time>2021-04-24T07:27:01.513Z</time>
      </trkpt>
      <trkpt lat="45.82125" lon="4.76049">
        <ele>375.249271</ele>
        <time>2021-04-24T07:27:03.545Z</time>
      </trkpt>
      <trkpt lat="45.82119" lon="4.76028">
        <ele>375.100217</ele>
        <time>2021-04-24T07:27:05.509Z</time>
      </trkpt>
      <trkpt lat="45.82116" lon="4.76006">
        <ele>374.955141</ele>
        <time>2021-04-24T07:27:07.514Z</time>
      </trkpt>
      <trkpt lat="45.82113" lon="4.75985">
        <ele>374.817716</ele>
        <time>2021-04-24T07:27:09.510Z</time>
      </trkpt>
      <trkpt lat="45.82112" lon="4.75965">
        <ele>374.689263</ele>
        <time>2021-04-24T07:27:11.518Z</time>
      </trkpt>
      <trkpt lat="45.8211" lon="4.75946">
        <ele>374.564797</ele>
        <time>2021-04-24T07:27:13.507Z</time>
      </trkpt>
      <trkpt lat="45.82107" lon="4.75927">
        <ele>374.439692</ele>
        <time>2021-04-24T07:27:15.501Z</time>
      </trkpt>
      <trkpt lat="45.82106" lon="4.7591">
        <ele>374.325156</ele>
        <time>2021-04-24T07:27:17.517Z</time>
      </trkpt>
      <trkpt lat="45.82105" lon="4.75893">
        <ele>374.212264</ele>
        <time>2021-04-24T07:27:19.505Z</time>
      </trkpt>
      <trkpt lat="45.82106" lon="4.75874">
        <ele>374.090012</ele>
        <time>2021-04-24T07:27:21.516Z</time>
      </trkpt>
      <trkpt lat="45.8211" lon="4.75857">
        <ele>373.971148</ele>
        <time>2021-04-24T07:27:23.493Z</time>
      </trkpt>
      <trkpt lat="45.82118" lon="4.7584">
        <ele>373.840247</ele>
        <time>2021-04-24T07:27:25.512Z</time>
      </trkpt>
      <trkpt lat="45.82128" lon="4.75824">
        <ele>373.701066</ele>
        <time>2021-04-24T07:27:27.505Z</time>
      </trkpt>
      <trkpt lat="45.8214" lon="4.7581">
        <ele>374.008164</ele>
        <time>2021-04-24T07:27:29.505Z</time>
      </trkpt>
      <trkpt lat="45.8215" lon="4.75792">
        <ele>374.354404</ele>
        <time>2021-04-24T07:27:31.498Z</time>
      </trkpt>
      <trkpt lat="45.82155" lon="4.75771">
        <ele>374.704497</ele>
        <time>2021-04-24T07:27:33.509Z</time>
      </trkpt>
      <trkpt lat="45.82162" lon="4.7575">
        <ele>375.060719</ele>
        <time>2021-04-24T07:27:35.507Z</time>
      </trkpt>
      <trkpt lat="45.82172" lon="4.75734">
        <ele>375.411043</ele>
        <time>2021-04-24T07:27:37.497Z</time>
      </trkpt>
      <trkpt lat="45.82188" lon="4.75727">
        <ele>375.765384</ele>
        <time>2021-04-24T07:27:39.511Z</time>
      </trkpt>
      <trkpt lat="45.822" lon="4.75725">
        <ele>376.040913</ele>
        <time>2021-04-24T07:27:41.505Z</time>
      </trkpt>
      <trkpt lat="45.82211" lon="4.75724">
        <ele>376.303646</ele>
        <time>2021-04-24T07:27:43.508Z</time>
      </trkpt>
      <trkpt lat="45.82224" lon="4.75725">
        <ele>376.577231</ele>
        <time>2021-04-24T07:27:45.500Z</time>
      </trkpt>
      <trkpt lat="45.82233" lon="4.75725">
        <ele>376.794829</ele>
        <time>2021-04-24T07:27:47.505Z</time>
      </trkpt>
      <trkpt lat="45.82245" lon="4.75726">
        <ele>377.055243</ele>
        <time>2021-04-24T07:27:49.500Z</time>
      </trkpt>
      <trkpt lat="45.82254" lon="4.75727">
        <ele>377.267324</ele>
        <time>2021-04-24T07:27:51.493Z</time>
      </trkpt>
      <trkpt lat="45.82266" lon="4.75734">
        <ele>377.544478</ele>
        <time>2021-04-24T07:27:53.493Z</time>
      </trkpt>
      <trkpt lat="45.82276" lon="4.75734">
        <ele>377.827236</ele>
        <time>2021-04-24T07:27:55.485Z</time>
      </trkpt>
      <trkpt lat="45.82285" lon="4.75735">
        <ele>378.32848</ele>
        <time>2021-04-24T07:27:57.501Z</time>
      </trkpt>
      <trkpt lat="45.82296" lon="4.75738">
        <ele>378.882875</ele>
        <time>2021-04-24T07:27:59.498Z</time>
      </trkpt>
      <trkpt lat="45.82307" lon="4.75743">
        <ele>379.479899</ele>
        <time>2021-04-24T07:28:01.498Z</time>
      </trkpt>
      <trkpt lat="45.8232" lon="4.75747">
        <ele>380.143324</ele>
        <time>2021-04-24T07:28:04.500Z</time>
      </trkpt>
      <trkpt lat="45.82332" lon="4.7575">
        <ele>380.752309</ele>
        <time>2021-04-24T07:28:08.490Z</time>
      </trkpt>
      <trkpt lat="45.82342" lon="4.75755">
        <ele>381.294288</ele>
        <time>2021-04-24T07:28:11.490Z</time>
      </trkpt>
      <trkpt lat="45.82353" lon="4.75753">
        <ele>381.855453</ele>
        <time>2021-04-24T07:28:14.500Z</time>
      </trkpt>
      <trkpt lat="45.8236" lon="4.75739">
        <ele>382.512773</ele>
        <time>2021-04-24T07:28:17.504Z</time>
      </trkpt>
      <trkpt lat="45.82363" lon="4.75726">
        <ele>382.981544</ele>
        <time>2021-04-24T07:28:19.499Z</time>
      </trkpt>
      <trkpt lat="45.82368" lon="4.7571">
        <ele>383.622498</ele>
        <time>2021-04-24T07:28:22.500Z</time>
      </trkpt>
      <trkpt lat="45.82374" lon="4.75694">
        <ele>384.249484</ele>
        <time>2021-04-24T07:28:25.511Z</time>
      </trkpt>
      <trkpt lat="45.8238" lon="4.75679">
        <ele>384.870256</ele>
        <time>2021-04-24T07:28:28.505Z</time>
      </trkpt>
      <trkpt lat="45.82385" lon="4.75663">
        <ele>385.498729</ele>
        <time>2021-04-24T07:28:31.495Z</time>
      </trkpt>
      <trkpt lat="45.82391" lon="4.75648">
        <ele>386.143804</ele>
        <time>2021-04-24T07:28:34.490Z</time>
      </trkpt>
      <trkpt lat="45.82396" lon="4.75632">
        <ele>386.746284</ele>
        <time>2021-04-24T07:28:37.510Z</time>
      </trkpt>
      <trkpt lat="45.82401" lon="4.75617">
        <ele>387.492249</ele>
        <time>2021-04-24T07:28:40.508Z</time>
      </trkpt>
      <trkpt lat="45.82403" lon="4.75601">
        <ele>388.332891</ele>
        <time>2021-04-24T07:28:43.506Z</time>
      </trkpt>
      <trkpt lat="45.82403" lon="4.75585">
        <ele>389.169354</ele>
        <time>2021-04-24T07:28:46.505Z</time>
      </trkpt>
      <trkpt lat="45.82399" lon="4.75568">
        <ele>390.030561</ele>
        <time>2021-04-24T07:28:49.506Z</time>
      </trkpt>
      <trkpt lat="45.82395" lon="4.75554">
        <ele>390.810336</ele>
        <time>2021-04-24T07:28:52.497Z</time>
      </trkpt>
      <trkpt lat="45.82391" lon="4.7554">
        <ele>391.576262</ele>
        <time>2021-04-24T07:28:55.496Z</time>
      </trkpt>
      <trkpt lat="45.82387" lon="4.75526">
        <ele>392.373173</ele>
        <time>2021-04-24T07:28:59.853Z</time>
      </trkpt>
      <trkpt lat="45.82383" lon="4.75511">
        <ele>393.160266</ele>
        <time>2021-04-24T07:29:01.518Z</time>
      </trkpt>
      <trkpt lat="45.82379" lon="4.75496">
        <ele>393.972053</ele>
        <time>2021-04-24T07:29:04.497Z</time>
      </trkpt>
      <trkpt lat="45.82374" lon="4.75482">
        <ele>394.754809</ele>
        <time>2021-04-24T07:29:07.489Z</time>
      </trkpt>
      <trkpt lat="45.8237" lon="4.75468">
        <ele>395.559741</ele>
        <time>2021-04-24T07:29:10.488Z</time>
      </trkpt>
      <trkpt lat="45.82365" lon="4.75454">
        <ele>396.308801</ele>
        <time>2021-04-24T07:29:13.485Z</time>
      </trkpt>
      <trkpt lat="45.82361" lon="4.7544">
        <ele>397.094193</ele>
        <time>2021-04-24T07:29:16.504Z</time>
      </trkpt>
      <trkpt lat="45.82357" lon="4.75426">
        <ele>397.878616</ele>
        <time>2021-04-24T07:29:19.493Z</time>
      </trkpt>
      <trkpt lat="45.82353" lon="4.75411">
        <ele>398.680269</ele>
        <time>2021-04-24T07:29:22.501Z</time>
      </trkpt>
      <trkpt lat="45.82349" lon="4.75396">
        <ele>399.502026</ele>
        <time>2021-04-24T07:29:25.500Z</time>
      </trkpt>
      <trkpt lat="45.82345" lon="4.75382">
        <ele>400.292401</ele>
        <time>2021-04-24T07:29:28.519Z</time>
      </trkpt>
      <trkpt lat="45.82342" lon="4.75369">
        <ele>401.031976</ele>
        <time>2021-04-24T07:29:31.504Z</time>
      </trkpt>
      <trkpt lat="45.82338" lon="4.75355">
        <ele>401.899281</ele>
        <time>2021-04-24T07:29:35.510Z</time>
      </trkpt>
      <trkpt lat="45.82332" lon="4.75341">
        <ele>402.839747</ele>
        <time>2021-04-24T07:29:39.495Z</time>
      </trkpt>
      <trkpt lat="45.82325" lon="4.75331">
        <ele>403.606435</ele>
        <time>2021-04-24T07:29:42.493Z</time>
      </trkpt>
      <trkpt lat="45.82316" lon="4.75323">
        <ele>404.49949</ele>
        <time>2021-04-24T07:29:45.522Z</time>
      </trkpt>
      <trkpt lat="45.82306" lon="4.75315">
        <ele>405.398697</ele>
        <time>2021-04-24T07:29:48.505Z</time>
      </trkpt>
      <trkpt lat="45.82296" lon="4.75309">
        <ele>406.269684</ele>
        <time>2021-04-24T07:29:51.507Z</time>
      </trkpt>
      <trkpt lat="45.82287" lon="4.75304">
        <ele>407.079164</ele>
        <time>2021-04-24T07:29:54.516Z</time>
      </trkpt>
      <trkpt lat="45.82278" lon="4.75298">
        <ele>407.847044</ele>
        <time>2021-04-24T07:29:57.504Z</time>
      </trkpt>
      <trkpt lat="45.8227" lon="4.75291">
        <ele>408.622925</ele>
        <time>2021-04-24T07:30:00.504Z</time>
      </trkpt>
      <trkpt lat="45.82262" lon="4.75285">
        <ele>409.369099</ele>
        <time>2021-04-24T07:30:03.494Z</time>
      </trkpt>
      <trkpt lat="45.82254" lon="4.75278">
        <ele>410.130791</ele>
        <time>2021-04-24T07:30:06.519Z</time>
      </trkpt>
      <trkpt lat="45.82244" lon="4.75269">
        <ele>411.041668</ele>
        <time>2021-04-24T07:30:10.500Z</time>
      </trkpt>
      <trkpt lat="45.82235" lon="4.75258">
        <ele>411.994413</ele>
        <time>2021-04-24T07:30:14.496Z</time>
      </trkpt>
      <trkpt lat="45.82227" lon="4.75248">
        <ele>412.856041</ele>
        <time>2021-04-24T07:30:18.491Z</time>
      </trkpt>
      <trkpt lat="45.82219" lon="4.75236">
        <ele>413.75945</ele>
        <time>2021-04-24T07:30:22.486Z</time>
      </trkpt>
      <trkpt lat="45.82212" lon="4.75224">
        <ele>414.559121</ele>
        <time>2021-04-24T07:30:26.497Z</time>
      </trkpt>
      <trkpt lat="45.82206" lon="4.75211">
        <ele>414.816578</ele>
        <time>2021-04-24T07:30:30.488Z</time>
      </trkpt>
      <trkpt lat="45.82201" lon="4.75196">
        <ele>415.10167</ele>
        <time>2021-04-24T07:30:34.501Z</time>
      </trkpt>
      <trkpt lat="45.82199" lon="4.75183">
        <ele>415.329307</ele>
        <time>2021-04-24T07:30:37.488Z</time>
      </trkpt>
      <trkpt lat="45.82197" lon="4.7517">
        <ele>415.564077</ele>
        <time>2021-04-24T07:30:40.492Z</time>
      </trkpt>
      <trkpt lat="45.82197" lon="4.75153">
        <ele>415.847127</ele>
        <time>2021-04-24T07:30:43.495Z</time>
      </trkpt>
      <trkpt lat="45.82198" lon="4.75135">
        <ele>416.156907</ele>
        <time>2021-04-24T07:30:46.515Z</time>
      </trkpt>
      <trkpt lat="45.82203" lon="4.75125">
        <ele>416.382014</ele>
        <time>2021-04-24T07:30:48.508Z</time>
      </trkpt>
      <trkpt lat="45.82207" lon="4.75112">
        <ele>416.61268</ele>
        <time>2021-04-24T07:30:50.512Z</time>
      </trkpt>
      <trkpt lat="45.82211" lon="4.75099">
        <ele>416.862638</ele>
        <time>2021-04-24T07:30:52.555Z</time>
      </trkpt>
      <trkpt lat="45.82215" lon="4.75084">
        <ele>417.13486</ele>
        <time>2021-04-24T07:30:54.515Z</time>
      </trkpt>
      <trkpt lat="45.82219" lon="4.7507">
        <ele>417.395854</ele>
        <time>2021-04-24T07:30:56.508Z</time>
      </trkpt>
      <trkpt lat="45.82223" lon="4.75055">
        <ele>417.664807</ele>
        <time>2021-04-24T07:30:58.512Z</time>
      </trkpt>
      <trkpt lat="45.82227" lon="4.75041">
        <ele>417.92967</ele>
        <time>2021-04-24T07:31:00.505Z</time>
      </trkpt>
      <trkpt lat="45.8223" lon="4.75026">
        <ele>418.207319</ele>
        <time>2021-04-24T07:31:02.491Z</time>
      </trkpt>
      <trkpt lat="45.82235" lon="4.7501">
        <ele>418.507941</ele>
        <time>2021-04-24T07:31:04.497Z</time>
      </trkpt>
      <trkpt lat="45.82238" lon="4.74993">
        <ele>418.805887</ele>
        <time>2021-04-24T07:31:06.515Z</time>
      </trkpt>
      <trkpt lat="45.8224" lon="4.74979">
        <ele>418.739417</ele>
        <time>2021-04-24T07:31:08.524Z</time>
      </trkpt>
      <trkpt lat="45.82242" lon="4.74964">
        <ele>418.350823</ele>
        <time>2021-04-24T07:31:10.503Z</time>
      </trkpt>
      <trkpt lat="45.82244" lon="4.74948">
        <ele>417.959737</ele>
        <time>2021-04-24T07:31:12.506Z</time>
      </trkpt>
      <trkpt lat="45.82247" lon="4.74933">
        <ele>417.566682</ele>
        <time>2021-04-24T07:31:14.535Z</time>
      </trkpt>
      <trkpt lat="45.82248" lon="4.7492">
        <ele>417.225753</ele>
        <time>2021-04-24T07:31:16.507Z</time>
      </trkpt>
      <trkpt lat="45.8225" lon="4.74905">
        <ele>416.827769</ele>
        <time>2021-04-24T07:31:18.510Z</time>
      </trkpt>
      <trkpt lat="45.82252" lon="4.74889">
        <ele>416.414229</ele>
        <time>2021-04-24T07:31:20.541Z</time>
      </trkpt>
      <trkpt lat="45.82252" lon="4.74871">
        <ele>415.973557</ele>
        <time>2021-04-24T07:31:22.499Z</time>
      </trkpt>
      <trkpt lat="45.82249" lon="4.74855">
        <ele>415.550877</ele>
        <time>2021-04-24T07:31:24.494Z</time>
      </trkpt>
      <trkpt lat="45.82245" lon="4.74838">
        <ele>415.093387</ele>
        <time>2021-04-24T07:31:26.550Z</time>
      </trkpt>
      <trkpt lat="45.82241" lon="4.74824">
        <ele>414.702329</ele>
        <time>2021-04-24T07:31:28.488Z</time>
      </trkpt>
      <trkpt lat="45.82235" lon="4.74804">
        <ele>414.163951</ele>
        <time>2021-04-24T07:31:30.502Z</time>
      </trkpt>
      <trkpt lat="45.82228" lon="4.74788">
        <ele>413.686528</ele>
        <time>2021-04-24T07:31:32.525Z</time>
      </trkpt>
      <trkpt lat="45.82222" lon="4.7477">
        <ele>413.167489</ele>
        <time>2021-04-24T07:31:34.511Z</time>
      </trkpt>
      <trkpt lat="45.82221" lon="4.74753">
        <ele>412.729716</ele>
        <time>2021-04-24T07:31:36.499Z</time>
      </trkpt>
      <trkpt lat="45.82217" lon="4.74737">
        <ele>412.333137</ele>
        <time>2021-04-24T07:31:38.506Z</time>
      </trkpt>
      <trkpt lat="45.82211" lon="4.74719">
        <ele>411.904622</ele>
        <time>2021-04-24T07:31:40.492Z</time>
      </trkpt>
      <trkpt lat="45.82203" lon="4.74701">
        <ele>411.468569</ele>
        <time>2021-04-24T07:31:42.492Z</time>
      </trkpt>
      <trkpt lat="45.82196" lon="4.74683">
        <ele>411.027926</ele>
        <time>2021-04-24T07:31:44.491Z</time>
      </trkpt>
      <trkpt lat="45.82188" lon="4.74667">
        <ele>410.598035</ele>
        <time>2021-04-24T07:31:46.491Z</time>
      </trkpt>
      <trkpt lat="45.82181" lon="4.74648">
        <ele>410.154734</ele>
        <time>2021-04-24T07:31:48.489Z</time>
      </trkpt>
      <trkpt lat="45.82179" lon="4.74627">
        <ele>409.698398</ele>
        <time>2021-04-24T07:31:50.499Z</time>
      </trkpt>
      <trkpt lat="45.82185" lon="4.7461">
        <ele>409.304423</ele>
        <time>2021-04-24T07:31:52.507Z</time>
      </trkpt>
      <trkpt lat="45.82194" lon="4.74594">
        <ele>408.872744</ele>
        <time>2021-04-24T07:31:54.505Z</time>
      </trkpt>
      <trkpt lat="45.82201" lon="4.74577">
        <ele>408.461567</ele>
        <time>2021-04-24T07:31:56.487Z</time>
      </trkpt>
      <trkpt lat="45.82208" lon="4.74559">
        <ele>408.015399</ele>
        <time>2021-04-24T07:31:58.508Z</time>
      </trkpt>
      <trkpt lat="45.82216" lon="4.74541">
        <ele>407.578704</ele>
        <time>2021-04-24T07:32:00.499Z</time>
      </trkpt>
      <trkpt lat="45.82225" lon="4.74521">
        <ele>407.082016</ele>
        <time>2021-04-24T07:32:02.514Z</time>
      </trkpt>
      <trkpt lat="45.82234" lon="4.74507">
        <ele>406.564686</ele>
        <time>2021-04-24T07:32:04.521Z</time>
      </trkpt>
      <trkpt lat="45.82248" lon="4.74493">
        <ele>405.88769</ele>
        <time>2021-04-24T07:32:06.490Z</time>
      </trkpt>
      <trkpt lat="45.82256" lon="4.74486">
        <ele>405.51032</ele>
        <time>2021-04-24T07:32:07.497Z</time>
      </trkpt>
      <trkpt lat="45.82264" lon="4.74479">
        <ele>405.11693</ele>
        <time>2021-04-24T07:32:08.497Z</time>
      </trkpt>
      <trkpt lat="45.82272" lon="4.74473">
        <ele>404.736614</ele>
        <time>2021-04-24T07:32:09.497Z</time>
      </trkpt>
      <trkpt lat="45.8228" lon="4.74466">
        <ele>404.354298</ele>
        <time>2021-04-24T07:32:10.501Z</time>
      </trkpt>
      <trkpt lat="45.82296" lon="4.74454">
        <ele>403.645049</ele>
        <time>2021-04-24T07:32:12.502Z</time>
      </trkpt>
      <trkpt lat="45.82304" lon="4.74446">
        <ele>403.256655</ele>
        <time>2021-04-24T07:32:13.494Z</time>
      </trkpt>
      <trkpt lat="45.82311" lon="4.74439">
        <ele>402.87841</ele>
        <time>2021-04-24T07:32:14.494Z</time>
      </trkpt>
      <trkpt lat="45.82319" lon="4.7443">
        <ele>402.491378</ele>
        <time>2021-04-24T07:32:15.488Z</time>
      </trkpt>
      <trkpt lat="45.82327" lon="4.7442">
        <ele>402.061339</ele>
        <time>2021-04-24T07:32:16.495Z</time>
      </trkpt>
      <trkpt lat="45.82334" lon="4.74411">
        <ele>401.672527</ele>
        <time>2021-04-24T07:32:17.499Z</time>
      </trkpt>
      <trkpt lat="45.8234" lon="4.74399">
        <ele>401.237008</ele>
        <time>2021-04-24T07:32:18.496Z</time>
      </trkpt>
      <trkpt lat="45.82347" lon="4.74389">
        <ele>400.848357</ele>
        <time>2021-04-24T07:32:19.509Z</time>
      </trkpt>
      <trkpt lat="45.82355" lon="4.74379">
        <ele>400.432251</ele>
        <time>2021-04-24T07:32:20.500Z</time>
      </trkpt>
      <trkpt lat="45.82363" lon="4.7437">
        <ele>400.017334</ele>
        <time>2021-04-24T07:32:21.493Z</time>
      </trkpt>
      <trkpt lat="45.8237" lon="4.74361">
        <ele>399.61088</ele>
        <time>2021-04-24T07:32:22.507Z</time>
      </trkpt>
      <trkpt lat="45.82379" lon="4.74351">
        <ele>398.986611</ele>
        <time>2021-04-24T07:32:23.514Z</time>
      </trkpt>
      <trkpt lat="45.82386" lon="4.74341">
        <ele>398.438277</ele>
        <time>2021-04-24T07:32:24.499Z</time>
      </trkpt>
      <trkpt lat="45.82393" lon="4.74332">
        <ele>397.892491</ele>
        <time>2021-04-24T07:32:25.497Z</time>
      </trkpt>
      <trkpt lat="45.824" lon="4.74323">
        <ele>397.389339</ele>
        <time>2021-04-24T07:32:26.491Z</time>
      </trkpt>
      <trkpt lat="45.82406" lon="4.74312">
        <ele>396.828044</ele>
        <time>2021-04-24T07:32:27.495Z</time>
      </trkpt>
      <trkpt lat="45.82412" lon="4.74289">
        <ele>395.857879</ele>
        <time>2021-04-24T07:32:29.497Z</time>
      </trkpt>
      <trkpt lat="45.82414" lon="4.74263">
        <ele>394.832367</ele>
        <time>2021-04-24T07:32:31.493Z</time>
      </trkpt>
      <trkpt lat="45.82413" lon="4.74241">
        <ele>393.988711</ele>
        <time>2021-04-24T07:32:33.490Z</time>
      </trkpt>
      <trkpt lat="45.82413" lon="4.74228">
        <ele>393.457677</ele>
        <time>2021-04-24T07:32:34.501Z</time>
      </trkpt>
      <trkpt lat="45.82416" lon="4.74203">
        <ele>392.463792</ele>
        <time>2021-04-24T07:32:36.503Z</time>
      </trkpt>
      <trkpt lat="45.82421" lon="4.7418">
        <ele>391.525159</ele>
        <time>2021-04-24T07:32:38.487Z</time>
      </trkpt>
      <trkpt lat="45.82428" lon="4.74157">
        <ele>390.569521</ele>
        <time>2021-04-24T07:32:40.510Z</time>
      </trkpt>
      <trkpt lat="45.82436" lon="4.74135">
        <ele>389.577085</ele>
        <time>2021-04-24T07:32:42.521Z</time>
      </trkpt>
      <trkpt lat="45.82448" lon="4.74103">
        <ele>389.257558</ele>
        <time>2021-04-24T07:32:45.511Z</time>
      </trkpt>
      <trkpt lat="45.82456" lon="4.74082">
        <ele>389.043099</ele>
        <time>2021-04-24T07:32:47.502Z</time>
      </trkpt>
      <trkpt lat="45.82464" lon="4.74061">
        <ele>388.823621</ele>
        <time>2021-04-24T07:32:49.516Z</time>
      </trkpt>
      <trkpt lat="45.82474" lon="4.7404">
        <ele>388.600902</ele>
        <time>2021-04-24T07:32:51.491Z</time>
      </trkpt>
      <trkpt lat="45.82482" lon="4.74018">
        <ele>388.379483</ele>
        <time>2021-04-24T07:32:53.529Z</time>
      </trkpt>
      <trkpt lat="45.82491" lon="4.73998">
        <ele>388.159207</ele>
        <time>2021-04-24T07:32:55.496Z</time>
      </trkpt>
      <trkpt lat="45.82499" lon="4.73976">
        <ele>387.933794</ele>
        <time>2021-04-24T07:32:57.516Z</time>
      </trkpt>
      <trkpt lat="45.82509" lon="4.73955">
        <ele>387.711835</ele>
        <time>2021-04-24T07:32:59.504Z</time>
      </trkpt>
      <trkpt lat="45.82517" lon="4.73932">
        <ele>387.484237</ele>
        <time>2021-04-24T07:33:01.504Z</time>
      </trkpt>
      <trkpt lat="45.82521" lon="4.73921">
        <ele>387.36618</ele>
        <time>2021-04-24T07:33:02.506Z</time>
      </trkpt>
      <trkpt lat="45.8253" lon="4.73901">
        <ele>387.20868</ele>
        <time>2021-04-24T07:33:04.502Z</time>
      </trkpt>
      <trkpt lat="45.82537" lon="4.7388">
        <ele>387.099473</ele>
        <time>2021-04-24T07:33:06.554Z</time>
      </trkpt>
      <trkpt lat="45.82545" lon="4.73858">
        <ele>386.988457</ele>
        <time>2021-04-24T07:33:08.506Z</time>
      </trkpt>
      <trkpt lat="45.82553" lon="4.73837">
        <ele>386.878213</ele>
        <time>2021-04-24T07:33:10.520Z</time>
      </trkpt>
      <trkpt lat="45.82561" lon="4.73815">
        <ele>386.766732</ele>
        <time>2021-04-24T07:33:12.538Z</time>
      </trkpt>
      <trkpt lat="45.82569" lon="4.73796">
        <ele>386.663957</ele>
        <time>2021-04-24T07:33:14.499Z</time>
      </trkpt>
      <trkpt lat="45.82579" lon="4.73779">
        <ele>386.561875</ele>
        <time>2021-04-24T07:33:16.505Z</time>
      </trkpt>
      <trkpt lat="45.82584" lon="4.73757">
        <ele>386.459043</ele>
        <time>2021-04-24T07:33:18.536Z</time>
      </trkpt>
      <trkpt lat="45.82589" lon="4.73733">
        <ele>386.344526</ele>
        <time>2021-04-24T07:33:20.499Z</time>
      </trkpt>
      <trkpt lat="45.82588" lon="4.73711">
        <ele>386.243001</ele>
        <time>2021-04-24T07:33:22.500Z</time>
      </trkpt>
      <trkpt lat="45.82585" lon="4.73693">
        <ele>386.15942</ele>
        <time>2021-04-24T07:33:24.504Z</time>
      </trkpt>
      <trkpt lat="45.8258" lon="4.7368">
        <ele>386.091661</ele>
        <time>2021-04-24T07:33:26.526Z</time>
      </trkpt>
      <trkpt lat="45.82573" lon="4.73668">
        <ele>386.634243</ele>
        <time>2021-04-24T07:33:28.507Z</time>
      </trkpt>
      <trkpt lat="45.82564" lon="4.73658">
        <ele>387.267965</ele>
        <time>2021-04-24T07:33:30.496Z</time>
      </trkpt>
      <trkpt lat="45.82553" lon="4.73652">
        <ele>387.882924</ele>
        <time>2021-04-24T07:33:32.502Z</time>
      </trkpt>
      <trkpt lat="45.82543" lon="4.73646">
        <ele>388.488617</ele>
        <time>2021-04-24T07:33:34.522Z</time>
      </trkpt>
      <trkpt lat="45.82534" lon="4.73639">
        <ele>389.069626</ele>
        <time>2021-04-24T07:33:36.502Z</time>
      </trkpt>
      <trkpt lat="45.82525" lon="4.73631">
        <ele>389.653751</ele>
        <time>2021-04-24T07:33:38.514Z</time>
      </trkpt>
      <trkpt lat="45.82516" lon="4.73623">
        <ele>390.208055</ele>
        <time>2021-04-24T07:33:40.502Z</time>
      </trkpt>
      <trkpt lat="45.82504" lon="4.7361">
        <ele>391.019998</ele>
        <time>2021-04-24T07:33:43.509Z</time>
      </trkpt>
      <trkpt lat="45.82498" lon="4.736">
        <ele>391.567713</ele>
        <time>2021-04-24T07:33:45.505Z</time>
      </trkpt>
      <trkpt lat="45.8249" lon="4.73589">
        <ele>392.154394</ele>
        <time>2021-04-24T07:33:47.523Z</time>
      </trkpt>
      <trkpt lat="45.82483" lon="4.73578">
        <ele>392.727246</ele>
        <time>2021-04-24T07:33:49.510Z</time>
      </trkpt>
      <trkpt lat="45.82477" lon="4.73568">
        <ele>393.237038</ele>
        <time>2021-04-24T07:33:51.523Z</time>
      </trkpt>
      <trkpt lat="45.82471" lon="4.73556">
        <ele>393.781549</ele>
        <time>2021-04-24T07:33:53.556Z</time>
      </trkpt>
      <trkpt lat="45.82463" lon="4.73544">
        <ele>394.398475</ele>
        <time>2021-04-24T07:33:55.517Z</time>
      </trkpt>
      <trkpt lat="45.82458" lon="4.73531">
        <ele>395.000154</ele>
        <time>2021-04-24T07:33:57.510Z</time>
      </trkpt>
      <trkpt lat="45.82452" lon="4.73518">
        <ele>395.570489</ele>
        <time>2021-04-24T07:33:59.511Z</time>
      </trkpt>
      <trkpt lat="45.82447" lon="4.73505">
        <ele>395.975456</ele>
        <time>2021-04-24T07:34:01.516Z</time>
      </trkpt>
      <trkpt lat="45.82441" lon="4.73491">
        <ele>396.09604</ele>
        <time>2021-04-24T07:34:03.501Z</time>
      </trkpt>
      <trkpt lat="45.82436" lon="4.73477">
        <ele>396.211804</ele>
        <time>2021-04-24T07:34:05.503Z</time>
      </trkpt>
      <trkpt lat="45.8243" lon="4.73465">
        <ele>396.318807</ele>
        <time>2021-04-24T07:34:07.495Z</time>
      </trkpt>
      <trkpt lat="45.82425" lon="4.73452">
        <ele>396.434385</ele>
        <time>2021-04-24T07:34:09.506Z</time>
      </trkpt>
      <trkpt lat="45.82419" lon="4.73437">
        <ele>396.556251</ele>
        <time>2021-04-24T07:34:11.501Z</time>
      </trkpt>
      <trkpt lat="45.82415" lon="4.73422">
        <ele>396.680273</ele>
        <time>2021-04-24T07:34:13.502Z</time>
      </trkpt>
      <trkpt lat="45.8241" lon="4.73407">
        <ele>396.806971</ele>
        <time>2021-04-24T07:34:15.499Z</time>
      </trkpt>
      <trkpt lat="45.82405" lon="4.73393">
        <ele>396.918353</ele>
        <time>2021-04-24T07:34:17.505Z</time>
      </trkpt>
      <trkpt lat="45.82401" lon="4.73379">
        <ele>397.036493</ele>
        <time>2021-04-24T07:34:19.524Z</time>
      </trkpt>
      <trkpt lat="45.82396" lon="4.73363">
        <ele>397.1671</ele>
        <time>2021-04-24T07:34:21.508Z</time>
      </trkpt>
      <trkpt lat="45.82391" lon="4.73349">
        <ele>397.285834</ele>
        <time>2021-04-24T07:34:23.505Z</time>
      </trkpt>
      <trkpt lat="45.82385" lon="4.73333">
        <ele>397.416146</ele>
        <time>2021-04-24T07:34:25.571Z</time>
      </trkpt>
      <trkpt lat="45.8238" lon="4.73316">
        <ele>397.553883</ele>
        <time>2021-04-24T07:34:27.522Z</time>
      </trkpt>
      <trkpt lat="45.82374" lon="4.73299">
        <ele>397.692492</ele>
        <time>2021-04-24T07:34:29.508Z</time>
      </trkpt>
      <trkpt lat="45.82368" lon="4.73284">
        <ele>397.828513</ele>
        <time>2021-04-24T07:34:31.526Z</time>
      </trkpt>
      <trkpt lat="45.82361" lon="4.73266">
        <ele>397.297986</ele>
        <time>2021-04-24T07:34:33.517Z</time>
      </trkpt>
      <trkpt lat="45.82342" lon="4.73226">
        <ele>395.717625</ele>
        <time>2021-04-24T07:34:38.516Z</time>
      </trkpt>
      <trkpt lat="45.82334" lon="4.73208">
        <ele>395.004312</ele>
        <time>2021-04-24T07:34:40.508Z</time>
      </trkpt>
      <trkpt lat="45.82327" lon="4.73189">
        <ele>394.313626</ele>
        <time>2021-04-24T07:34:42.504Z</time>
      </trkpt>
      <trkpt lat="45.82326" lon="4.73165">
        <ele>393.510906</ele>
        <time>2021-04-24T07:34:44.516Z</time>
      </trkpt>
      <trkpt lat="45.82326" lon="4.73141">
        <ele>392.714193</ele>
        <time>2021-04-24T07:34:46.516Z</time>
      </trkpt>
      <trkpt lat="45.82328" lon="4.73128">
        <ele>392.269861</ele>
        <time>2021-04-24T07:34:47.505Z</time>
      </trkpt>
      <trkpt lat="45.82328" lon="4.73103">
        <ele>391.446772</ele>
        <time>2021-04-24T07:34:49.493Z</time>
      </trkpt>
      <trkpt lat="45.82326" lon="4.73078">
        <ele>390.630263</ele>
        <time>2021-04-24T07:34:51.499Z</time>
      </trkpt>
      <trkpt lat="45.8232" lon="4.73057">
        <ele>389.880015</ele>
        <time>2021-04-24T07:34:53.505Z</time>
      </trkpt>
      <trkpt lat="45.82311" lon="4.73038">
        <ele>389.333373</ele>
        <time>2021-04-24T07:34:55.496Z</time>
      </trkpt>
      <trkpt lat="45.82299" lon="4.73023">
        <ele>389.25861</ele>
        <time>2021-04-24T07:34:57.501Z</time>
      </trkpt>
      <trkpt lat="45.82286" lon="4.73008">
        <ele>389.182507</ele>
        <time>2021-04-24T07:34:59.541Z</time>
      </trkpt>
      <trkpt lat="45.82274" lon="4.72992">
        <ele>389.10556</ele>
        <time>2021-04-24T07:35:01.508Z</time>
      </trkpt>
      <trkpt lat="45.82262" lon="4.72974">
        <ele>389.028764</ele>
        <time>2021-04-24T07:35:03.510Z</time>
      </trkpt>
      <trkpt lat="45.82252" lon="4.72956">
        <ele>388.953505</ele>
        <time>2021-04-24T07:35:05.518Z</time>
      </trkpt>
      <trkpt lat="45.82245" lon="4.72934">
        <ele>388.875835</ele>
        <time>2021-04-24T07:35:07.512Z</time>
      </trkpt>
      <trkpt lat="45.8224" lon="4.7291">
        <ele>388.79744</ele>
        <time>2021-04-24T07:35:09.507Z</time>
      </trkpt>
      <trkpt lat="45.82235" lon="4.72888">
        <ele>388.720851</ele>
        <time>2021-04-24T07:35:11.569Z</time>
      </trkpt>
      <trkpt lat="45.8223" lon="4.72865">
        <ele>388.645234</ele>
        <time>2021-04-24T07:35:13.515Z</time>
      </trkpt>
      <trkpt lat="45.82225" lon="4.72843">
        <ele>388.569432</ele>
        <time>2021-04-24T07:35:15.498Z</time>
      </trkpt>
      <trkpt lat="45.82221" lon="4.7282">
        <ele>388.126306</ele>
        <time>2021-04-24T07:35:17.503Z</time>
      </trkpt>
      <trkpt lat="45.82223" lon="4.72796">
        <ele>387.154604</ele>
        <time>2021-04-24T07:35:19.503Z</time>
      </trkpt>
      <trkpt lat="45.82227" lon="4.72771">
        <ele>386.161356</ele>
        <time>2021-04-24T07:35:21.511Z</time>
      </trkpt>
      <trkpt lat="45.82229" lon="4.72759">
        <ele>385.643361</ele>
        <time>2021-04-24T07:35:22.552Z</time>
      </trkpt>
      <trkpt lat="45.82231" lon="4.72745">
        <ele>385.095004</ele>
        <time>2021-04-24T07:35:23.510Z</time>
      </trkpt>
      <trkpt lat="45.82234" lon="4.72732">
        <ele>384.527909</ele>
        <time>2021-04-24T07:35:24.508Z</time>
      </trkpt>
      <trkpt lat="45.82236" lon="4.72719">
        <ele>383.99367</ele>
        <time>2021-04-24T07:35:25.514Z</time>
      </trkpt>
      <trkpt lat="45.82238" lon="4.72704">
        <ele>383.41285</ele>
        <time>2021-04-24T07:35:26.511Z</time>
      </trkpt>
      <trkpt lat="45.82238" lon="4.72689">
        <ele>382.815348</ele>
        <time>2021-04-24T07:35:27.503Z</time>
      </trkpt>
      <trkpt lat="45.82236" lon="4.72676">
        <ele>382.259234</ele>
        <time>2021-04-24T07:35:28.515Z</time>
      </trkpt>
      <trkpt lat="45.82232" lon="4.72662">
        <ele>381.679761</ele>
        <time>2021-04-24T07:35:29.503Z</time>
      </trkpt>
      <trkpt lat="45.82227" lon="4.72649">
        <ele>381.093544</ele>
        <time>2021-04-24T07:35:30.497Z</time>
      </trkpt>
      <trkpt lat="45.82219" lon="4.72641">
        <ele>380.515247</ele>
        <time>2021-04-24T07:35:31.496Z</time>
      </trkpt>
      <trkpt lat="45.8221" lon="4.72633">
        <ele>379.928197</ele>
        <time>2021-04-24T07:35:32.509Z</time>
      </trkpt>
      <trkpt lat="45.82201" lon="4.72628">
        <ele>379.39686</ele>
        <time>2021-04-24T07:35:33.501Z</time>
      </trkpt>
      <trkpt lat="45.82187" lon="4.72624">
        <ele>378.592167</ele>
        <time>2021-04-24T07:35:35.495Z</time>
      </trkpt>
      <trkpt lat="45.82178" lon="4.72617">
        <ele>377.979806</ele>
        <time>2021-04-24T07:35:38.508Z</time>
      </trkpt>
      <trkpt lat="45.82171" lon="4.726">
        <ele>377.219441</ele>
        <time>2021-04-24T07:35:42.508Z</time>
      </trkpt>
      <trkpt lat="45.82171" lon="4.72581">
        <ele>376.501675</ele>
        <time>2021-04-24T07:35:44.513Z</time>
      </trkpt>
      <trkpt lat="45.82175" lon="4.72563">
        <ele>375.787136</ele>
        <time>2021-04-24T07:35:46.507Z</time>
      </trkpt>
      <trkpt lat="45.82178" lon="4.72544">
        <ele>375.004441</ele>
        <time>2021-04-24T07:35:48.516Z</time>
      </trkpt>
      <trkpt lat="45.82183" lon="4.72523">
        <ele>374.190475</ele>
        <time>2021-04-24T07:35:50.521Z</time>
      </trkpt>
      <trkpt lat="45.82188" lon="4.72503">
        <ele>373.356846</ele>
        <time>2021-04-24T07:35:52.507Z</time>
      </trkpt>
      <trkpt lat="45.82194" lon="4.72483">
        <ele>372.498171</ele>
        <time>2021-04-24T07:35:54.508Z</time>
      </trkpt>
      <trkpt lat="45.822" lon="4.7246">
        <ele>371.59385</ele>
        <time>2021-04-24T07:35:56.512Z</time>
      </trkpt>
      <trkpt lat="45.82206" lon="4.72436">
        <ele>370.589601</ele>
        <time>2021-04-24T07:35:58.509Z</time>
      </trkpt>
      <trkpt lat="45.82209" lon="4.72423">
        <ele>370.083644</ele>
        <time>2021-04-24T07:35:59.527Z</time>
      </trkpt>
      <trkpt lat="45.82212" lon="4.7241">
        <ele>369.538085</ele>
        <time>2021-04-24T07:36:00.542Z</time>
      </trkpt>
      <trkpt lat="45.82215" lon="4.72396">
        <ele>368.984858</ele>
        <time>2021-04-24T07:36:01.520Z</time>
      </trkpt>
      <trkpt lat="45.82218" lon="4.72382">
        <ele>368.417381</ele>
        <time>2021-04-24T07:36:02.523Z</time>
      </trkpt>
      <trkpt lat="45.82221" lon="4.72368">
        <ele>367.715868</ele>
        <time>2021-04-24T07:36:03.514Z</time>
      </trkpt>
      <trkpt lat="45.82224" lon="4.72353">
        <ele>366.963717</ele>
        <time>2021-04-24T07:36:04.514Z</time>
      </trkpt>
      <trkpt lat="45.82227" lon="4.72337">
        <ele>366.175816</ele>
        <time>2021-04-24T07:36:05.513Z</time>
      </trkpt>
      <trkpt lat="45.82228" lon="4.72321">
        <ele>365.369758</ele>
        <time>2021-04-24T07:36:06.588Z</time>
      </trkpt>
      <trkpt lat="45.82228" lon="4.72305">
        <ele>364.571528</ele>
        <time>2021-04-24T07:36:07.510Z</time>
      </trkpt>
      <trkpt lat="45.82227" lon="4.72288">
        <ele>363.759142</ele>
        <time>2021-04-24T07:36:08.541Z</time>
      </trkpt>
      <trkpt lat="45.82224" lon="4.72272">
        <ele>362.923556</ele>
        <time>2021-04-24T07:36:09.528Z</time>
      </trkpt>
      <trkpt lat="45.82222" lon="4.72254">
        <ele>362.057715</ele>
        <time>2021-04-24T07:36:10.540Z</time>
      </trkpt>
      <trkpt lat="45.8222" lon="4.72237">
        <ele>361.196052</ele>
        <time>2021-04-24T07:36:11.511Z</time>
      </trkpt>
      <trkpt lat="45.82218" lon="4.7222">
        <ele>360.3537</ele>
        <time>2021-04-24T07:36:12.549Z</time>
      </trkpt>
      <trkpt lat="45.82219" lon="4.72202">
        <ele>359.500573</ele>
        <time>2021-04-24T07:36:13.526Z</time>
      </trkpt>
      <trkpt lat="45.82222" lon="4.72186">
        <ele>358.664986</ele>
        <time>2021-04-24T07:36:14.500Z</time>
      </trkpt>
      <trkpt lat="45.82227" lon="4.7217">
        <ele>357.793853</ele>
        <time>2021-04-24T07:36:15.494Z</time>
      </trkpt>
      <trkpt lat="45.82234" lon="4.72155">
        <ele>356.922195</ele>
        <time>2021-04-24T07:36:16.506Z</time>
      </trkpt>
      <trkpt lat="45.82242" lon="4.72142">
        <ele>356.060715</ele>
        <time>2021-04-24T07:36:17.511Z</time>
      </trkpt>
      <trkpt lat="45.82252" lon="4.7213">
        <ele>355.452162</ele>
        <time>2021-04-24T07:36:18.541Z</time>
      </trkpt>
      <trkpt lat="45.82263" lon="4.72123">
        <ele>355.038802</ele>
        <time>2021-04-24T07:36:19.507Z</time>
      </trkpt>
      <trkpt lat="45.82274" lon="4.72115">
        <ele>354.630533</ele>
        <time>2021-04-24T07:36:20.519Z</time>
      </trkpt>
      <trkpt lat="45.82285" lon="4.72108">
        <ele>354.219145</ele>
        <time>2021-04-24T07:36:21.532Z</time>
      </trkpt>
      <trkpt lat="45.82295" lon="4.72101">
        <ele>353.827327</ele>
        <time>2021-04-24T07:36:22.536Z</time>
      </trkpt>
      <trkpt lat="45.82305" lon="4.72093">
        <ele>353.428988</ele>
        <time>2021-04-24T07:36:23.504Z</time>
      </trkpt>
      <trkpt lat="45.82315" lon="4.72084">
        <ele>353.035253</ele>
        <time>2021-04-24T07:36:24.612Z</time>
      </trkpt>
      <trkpt lat="45.82333" lon="4.72065">
        <ele>352.274481</ele>
        <time>2021-04-24T07:36:26.493Z</time>
      </trkpt>
      <trkpt lat="45.82342" lon="4.72056">
        <ele>351.898971</ele>
        <time>2021-04-24T07:36:27.490Z</time>
      </trkpt>
      <trkpt lat="45.82351" lon="4.72046">
        <ele>351.522929</ele>
        <time>2021-04-24T07:36:28.491Z</time>
      </trkpt>
      <trkpt lat="45.82359" lon="4.72037">
        <ele>351.162513</ele>
        <time>2021-04-24T07:36:29.507Z</time>
      </trkpt>
      <trkpt lat="45.82367" lon="4.72028">
        <ele>350.811943</ele>
        <time>2021-04-24T07:36:30.492Z</time>
      </trkpt>
      <trkpt lat="45.82376" lon="4.72021">
        <ele>350.473249</ele>
        <time>2021-04-24T07:36:31.493Z</time>
      </trkpt>
      <trkpt lat="45.82385" lon="4.72013">
        <ele>350.122419</ele>
        <time>2021-04-24T07:36:32.491Z</time>
      </trkpt>
      <trkpt lat="45.82394" lon="4.72006">
        <ele>349.763813</ele>
        <time>2021-04-24T07:36:33.503Z</time>
      </trkpt>
      <trkpt lat="45.82402" lon="4.71999">
        <ele>349.434872</ele>
        <time>2021-04-24T07:36:34.507Z</time>
      </trkpt>
      <trkpt lat="45.82411" lon="4.71992">
        <ele>349.085203</ele>
        <time>2021-04-24T07:36:35.488Z</time>
      </trkpt>
      <trkpt lat="45.8242" lon="4.71986">
        <ele>348.749747</ele>
        <time>2021-04-24T07:36:36.497Z</time>
      </trkpt>
      <trkpt lat="45.82429" lon="4.7198">
        <ele>348.403542</ele>
        <time>2021-04-24T07:36:37.496Z</time>
      </trkpt>
      <trkpt lat="45.82437" lon="4.71973">
        <ele>348.083355</ele>
        <time>2021-04-24T07:36:38.503Z</time>
      </trkpt>
      <trkpt lat="45.82446" lon="4.71967">
        <ele>347.741622</ele>
        <time>2021-04-24T07:36:39.513Z</time>
      </trkpt>
      <trkpt lat="45.82455" lon="4.71962">
        <ele>347.401664</ele>
        <time>2021-04-24T07:36:40.537Z</time>
      </trkpt>
      <trkpt lat="45.82463" lon="4.71957">
        <ele>347.076393</ele>
        <time>2021-04-24T07:36:41.496Z</time>
      </trkpt>
      <trkpt lat="45.82473" lon="4.7195">
        <ele>346.710534</ele>
        <time>2021-04-24T07:36:42.500Z</time>
      </trkpt>
      <trkpt lat="45.82482" lon="4.71946">
        <ele>346.353951</ele>
        <time>2021-04-24T07:36:43.503Z</time>
      </trkpt>
      <trkpt lat="45.82492" lon="4.71941">
        <ele>345.999028</ele>
        <time>2021-04-24T07:36:44.501Z</time>
      </trkpt>
      <trkpt lat="45.82501" lon="4.71935">
        <ele>345.663216</ele>
        <time>2021-04-24T07:36:45.501Z</time>
      </trkpt>
      <trkpt lat="45.8251" lon="4.7193">
        <ele>345.319745</ele>
        <time>2021-04-24T07:36:46.502Z</time>
      </trkpt>
      <trkpt lat="45.82519" lon="4.71924">
        <ele>344.975925</ele>
        <time>2021-04-24T07:36:47.515Z</time>
      </trkpt>
      <trkpt lat="45.82528" lon="4.71918">
        <ele>344.63086</ele>
        <time>2021-04-24T07:36:48.520Z</time>
      </trkpt>
      <trkpt lat="45.82537" lon="4.71914">
        <ele>344.313411</ele>
        <time>2021-04-24T07:36:49.511Z</time>
      </trkpt>
      <trkpt lat="45.82545" lon="4.71907">
        <ele>343.976382</ele>
        <time>2021-04-24T07:36:50.490Z</time>
      </trkpt>
      <trkpt lat="45.82554" lon="4.71902">
        <ele>343.630944</ele>
        <time>2021-04-24T07:36:51.508Z</time>
      </trkpt>
      <trkpt lat="45.82563" lon="4.71896">
        <ele>343.310662</ele>
        <time>2021-04-24T07:36:52.499Z</time>
      </trkpt>
      <trkpt lat="45.82572" lon="4.71891">
        <ele>343.142027</ele>
        <time>2021-04-24T07:36:53.501Z</time>
      </trkpt>
      <trkpt lat="45.82588" lon="4.71883">
        <ele>342.828075</ele>
        <time>2021-04-24T07:36:55.491Z</time>
      </trkpt>
      <trkpt lat="45.82603" lon="4.71872">
        <ele>342.533417</ele>
        <time>2021-04-24T07:36:57.499Z</time>
      </trkpt>
      <trkpt lat="45.82616" lon="4.71858">
        <ele>342.24641</ele>
        <time>2021-04-24T07:36:59.514Z</time>
      </trkpt>
      <trkpt lat="45.82627" lon="4.71844">
        <ele>341.977266</ele>
        <time>2021-04-24T07:37:01.521Z</time>
      </trkpt>
      <trkpt lat="45.82638" lon="4.71827">
        <ele>341.694614</ele>
        <time>2021-04-24T07:37:03.505Z</time>
      </trkpt>
      <trkpt lat="45.82647" lon="4.71812">
        <ele>341.436748</ele>
        <time>2021-04-24T07:37:05.497Z</time>
      </trkpt>
      <trkpt lat="45.82658" lon="4.71796">
        <ele>341.158091</ele>
        <time>2021-04-24T07:37:07.490Z</time>
      </trkpt>
      <trkpt lat="45.8267" lon="4.71782">
        <ele>340.876695</ele>
        <time>2021-04-24T07:37:09.499Z</time>
      </trkpt>
      <trkpt lat="45.82683" lon="4.71769">
        <ele>340.586673</ele>
        <time>2021-04-24T07:37:11.508Z</time>
      </trkpt>
      <trkpt lat="45.82697" lon="4.71757">
        <ele>340.294849</ele>
        <time>2021-04-24T07:37:13.504Z</time>
      </trkpt>
      <trkpt lat="45.82711" lon="4.71749">
        <ele>339.989952</ele>
        <time>2021-04-24T07:37:15.517Z</time>
      </trkpt>
      <trkpt lat="45.82726" lon="4.7174">
        <ele>339.514239</ele>
        <time>2021-04-24T07:37:17.501Z</time>
      </trkpt>
      <trkpt lat="45.82742" lon="4.7173">
        <ele>339.027281</ele>
        <time>2021-04-24T07:37:19.503Z</time>
      </trkpt>
      <trkpt lat="45.82758" lon="4.71723">
        <ele>338.553461</ele>
        <time>2021-04-24T07:37:21.500Z</time>
      </trkpt>
      <trkpt lat="45.82772" lon="4.71711">
        <ele>338.068775</ele>
        <time>2021-04-24T07:37:23.489Z</time>
      </trkpt>
      <trkpt lat="45.82787" lon="4.71704">
        <ele>337.640146</ele>
        <time>2021-04-24T07:37:25.492Z</time>
      </trkpt>
      <trkpt lat="45.828" lon="4.717">
        <ele>337.258319</ele>
        <time>2021-04-24T07:37:27.497Z</time>
      </trkpt>
      <trkpt lat="45.82815" lon="4.71691">
        <ele>336.786687</ele>
        <time>2021-04-24T07:37:29.499Z</time>
      </trkpt>
      <trkpt lat="45.82829" lon="4.71677">
        <ele>336.298881</ele>
        <time>2021-04-24T07:37:31.495Z</time>
      </trkpt>
      <trkpt lat="45.82836" lon="4.71666">
        <ele>336.000386</ele>
        <time>2021-04-24T07:37:32.503Z</time>
      </trkpt>
      <trkpt lat="45.82841" lon="4.71654">
        <ele>335.731432</ele>
        <time>2021-04-24T07:37:33.497Z</time>
      </trkpt>
      <trkpt lat="45.82851" lon="4.71633">
        <ele>335.217044</ele>
        <time>2021-04-24T07:37:35.517Z</time>
      </trkpt>
      <trkpt lat="45.82856" lon="4.71622">
        <ele>334.949778</ele>
        <time>2021-04-24T07:37:36.486Z</time>
      </trkpt>
      <trkpt lat="45.82865" lon="4.716">
        <ele>334.184098</ele>
        <time>2021-04-24T07:37:38.502Z</time>
      </trkpt>
      <trkpt lat="45.82871" lon="4.71587">
        <ele>333.763602</ele>
        <time>2021-04-24T07:37:39.500Z</time>
      </trkpt>
      <trkpt lat="45.82876" lon="4.71576">
        <ele>333.343688</ele>
        <time>2021-04-24T07:37:40.540Z</time>
      </trkpt>
      <trkpt lat="45.82883" lon="4.71565">
        <ele>332.924742</ele>
        <time>2021-04-24T07:37:41.502Z</time>
      </trkpt>
      <trkpt lat="45.8289" lon="4.71556">
        <ele>332.523814</ele>
        <time>2021-04-24T07:37:42.503Z</time>
      </trkpt>
      <trkpt lat="45.82897" lon="4.71547">
        <ele>332.110708</ele>
        <time>2021-04-24T07:37:43.505Z</time>
      </trkpt>
      <trkpt lat="45.82905" lon="4.71539">
        <ele>331.714035</ele>
        <time>2021-04-24T07:37:44.513Z</time>
      </trkpt>
      <trkpt lat="45.82913" lon="4.71531">
        <ele>331.303602</ele>
        <time>2021-04-24T07:37:45.507Z</time>
      </trkpt>
      <trkpt lat="45.8292" lon="4.71522">
        <ele>330.886701</ele>
        <time>2021-04-24T07:37:46.517Z</time>
      </trkpt>
      <trkpt lat="45.82928" lon="4.71514">
        <ele>330.495257</ele>
        <time>2021-04-24T07:37:47.515Z</time>
      </trkpt>
      <trkpt lat="45.82936" lon="4.71508">
        <ele>330.081278</ele>
        <time>2021-04-24T07:37:48.500Z</time>
      </trkpt>
      <trkpt lat="45.82952" lon="4.71496">
        <ele>329.323</ele>
        <time>2021-04-24T07:37:50.499Z</time>
      </trkpt>
      <trkpt lat="45.8296" lon="4.71491">
        <ele>328.937373</ele>
        <time>2021-04-24T07:37:51.535Z</time>
      </trkpt>
      <trkpt lat="45.82976" lon="4.71482">
        <ele>328.209645</ele>
        <time>2021-04-24T07:37:53.501Z</time>
      </trkpt>
      <trkpt lat="45.82991" lon="4.71474">
        <ele>327.53621</ele>
        <time>2021-04-24T07:37:55.508Z</time>
      </trkpt>
      <trkpt lat="45.83006" lon="4.71473">
        <ele>327.652404</ele>
        <time>2021-04-24T07:37:57.526Z</time>
      </trkpt>
      <trkpt lat="45.83023" lon="4.71474">
        <ele>328.250968</ele>
        <time>2021-04-24T07:37:59.536Z</time>
      </trkpt>
      <trkpt lat="45.83038" lon="4.71478">
        <ele>328.831698</ele>
        <time>2021-04-24T07:38:01.513Z</time>
      </trkpt>
      <trkpt lat="45.83051" lon="4.71489">
        <ele>329.370768</ele>
        <time>2021-04-24T07:38:03.546Z</time>
      </trkpt>
      <trkpt lat="45.83062" lon="4.715">
        <ele>329.873528</ele>
        <time>2021-04-24T07:38:05.519Z</time>
      </trkpt>
      <trkpt lat="45.83073" lon="4.71508">
        <ele>330.308191</ele>
        <time>2021-04-24T07:38:07.506Z</time>
      </trkpt>
      <trkpt lat="45.83086" lon="4.71519">
        <ele>330.854253</ele>
        <time>2021-04-24T07:38:09.533Z</time>
      </trkpt>
      <trkpt lat="45.83096" lon="4.71528">
        <ele>331.280727</ele>
        <time>2021-04-24T07:38:11.498Z</time>
      </trkpt>
      <trkpt lat="45.83109" lon="4.71536">
        <ele>331.807538</ele>
        <time>2021-04-24T07:38:13.519Z</time>
      </trkpt>
      <trkpt lat="45.83124" lon="4.7154">
        <ele>332.333205</ele>
        <time>2021-04-24T07:38:15.622Z</time>
      </trkpt>
      <trkpt lat="45.83135" lon="4.71546">
        <ele>332.787968</ele>
        <time>2021-04-24T07:38:17.518Z</time>
      </trkpt>
      <trkpt lat="45.83147" lon="4.71556">
        <ele>333.277819</ele>
        <time>2021-04-24T07:38:19.501Z</time>
      </trkpt>
      <trkpt lat="45.83159" lon="4.71561">
        <ele>333.733263</ele>
        <time>2021-04-24T07:38:21.507Z</time>
      </trkpt>
      <trkpt lat="45.83169" lon="4.71567">
        <ele>333.466082</ele>
        <time>2021-04-24T07:38:23.508Z</time>
      </trkpt>
      <trkpt lat="45.83183" lon="4.71572">
        <ele>332.747124</ele>
        <time>2021-04-24T07:38:25.512Z</time>
      </trkpt>
      <trkpt lat="45.83197" lon="4.71577">
        <ele>332.045483</ele>
        <time>2021-04-24T07:38:27.518Z</time>
      </trkpt>
      <trkpt lat="45.83207" lon="4.71585">
        <ele>331.491304</ele>
        <time>2021-04-24T07:38:29.498Z</time>
      </trkpt>
      <trkpt lat="45.83218" lon="4.71592">
        <ele>330.878077</ele>
        <time>2021-04-24T07:38:31.523Z</time>
      </trkpt>
      <trkpt lat="45.83228" lon="4.71601">
        <ele>330.304493</ele>
        <time>2021-04-24T07:38:33.510Z</time>
      </trkpt>
      <trkpt lat="45.83241" lon="4.71607">
        <ele>329.632913</ele>
        <time>2021-04-24T07:38:35.502Z</time>
      </trkpt>
      <trkpt lat="45.83251" lon="4.71611">
        <ele>329.126102</ele>
        <time>2021-04-24T07:38:37.524Z</time>
      </trkpt>
      <trkpt lat="45.8326" lon="4.71622">
        <ele>328.537277</ele>
        <time>2021-04-24T07:38:39.522Z</time>
      </trkpt>
      <trkpt lat="45.83272" lon="4.71624">
        <ele>327.95025</ele>
        <time>2021-04-24T07:38:41.506Z</time>
      </trkpt>
      <trkpt lat="45.83285" lon="4.71628">
        <ele>327.280917</ele>
        <time>2021-04-24T07:38:43.508Z</time>
      </trkpt>
      <trkpt lat="45.83298" lon="4.71629">
        <ele>326.659827</ele>
        <time>2021-04-24T07:38:45.503Z</time>
      </trkpt>
      <trkpt lat="45.83311" lon="4.71629">
        <ele>326.004688</ele>
        <time>2021-04-24T07:38:47.513Z</time>
      </trkpt>
      <trkpt lat="45.83323" lon="4.71629">
        <ele>325.423376</ele>
        <time>2021-04-24T07:38:49.516Z</time>
      </trkpt>
      <trkpt lat="45.83333" lon="4.71629">
        <ele>325.025571</ele>
        <time>2021-04-24T07:38:51.516Z</time>
      </trkpt>
      <trkpt lat="45.83344" lon="4.71625">
        <ele>325.318727</ele>
        <time>2021-04-24T07:38:53.532Z</time>
      </trkpt>
      <trkpt lat="45.83354" lon="4.71617">
        <ele>325.635149</ele>
        <time>2021-04-24T07:38:55.523Z</time>
      </trkpt>
      <trkpt lat="45.8336" lon="4.71606">
        <ele>325.894439</ele>
        <time>2021-04-24T07:38:57.526Z</time>
      </trkpt>
      <trkpt lat="45.83365" lon="4.71594">
        <ele>326.151238</ele>
        <time>2021-04-24T07:38:59.550Z</time>
      </trkpt>
      <trkpt lat="45.8337" lon="4.71581">
        <ele>326.424636</ele>
        <time>2021-04-24T07:39:01.533Z</time>
      </trkpt>
      <trkpt lat="45.83374" lon="4.71567">
        <ele>326.701186</ele>
        <time>2021-04-24T07:39:03.518Z</time>
      </trkpt>
      <trkpt lat="45.8338" lon="4.71555">
        <ele>326.961464</ele>
        <time>2021-04-24T07:39:05.524Z</time>
      </trkpt>
      <trkpt lat="45.83389" lon="4.71547">
        <ele>327.233751</ele>
        <time>2021-04-24T07:39:07.506Z</time>
      </trkpt>
      <trkpt lat="45.83399" lon="4.71548">
        <ele>327.515072</ele>
        <time>2021-04-24T07:39:09.510Z</time>
      </trkpt>
      <trkpt lat="45.83408" lon="4.71554">
        <ele>327.771886</ele>
        <time>2021-04-24T07:39:11.501Z</time>
      </trkpt>
      <trkpt lat="45.83417" lon="4.71562">
        <ele>328.046088</ele>
        <time>2021-04-24T07:39:13.506Z</time>
      </trkpt>
      <trkpt lat="45.83423" lon="4.71572">
        <ele>328.303046</ele>
        <time>2021-04-24T07:39:15.506Z</time>
      </trkpt>
      <trkpt lat="45.83431" lon="4.71582">
        <ele>328.584327</ele>
        <time>2021-04-24T07:39:17.508Z</time>
      </trkpt>
      <trkpt lat="45.83439" lon="4.71592">
        <ele>328.845723</ele>
        <time>2021-04-24T07:39:19.507Z</time>
      </trkpt>
      <trkpt lat="45.83448" lon="4.71598">
        <ele>329.121437</ele>
        <time>2021-04-24T07:39:21.498Z</time>
      </trkpt>
      <trkpt lat="45.83459" lon="4.71599">
        <ele>329.418875</ele>
        <time>2021-04-24T07:39:23.494Z</time>
      </trkpt>
      <trkpt lat="45.83468" lon="4.71597">
        <ele>329.662851</ele>
        <time>2021-04-24T07:39:25.490Z</time>
      </trkpt>
      <trkpt lat="45.83478" lon="4.71593">
        <ele>330.022553</ele>
        <time>2021-04-24T07:39:27.500Z</time>
      </trkpt>
      <trkpt lat="45.83487" lon="4.71585">
        <ele>330.453449</ele>
        <time>2021-04-24T07:39:29.506Z</time>
      </trkpt>
      <trkpt lat="45.83498" lon="4.71576">
        <ele>330.928233</ele>
        <time>2021-04-24T07:39:31.498Z</time>
      </trkpt>
      <trkpt lat="45.83508" lon="4.71567">
        <ele>331.406255</ele>
        <time>2021-04-24T07:39:33.521Z</time>
      </trkpt>
      <trkpt lat="45.83518" lon="4.7156">
        <ele>331.827462</ele>
        <time>2021-04-24T07:39:35.516Z</time>
      </trkpt>
      <trkpt lat="45.83527" lon="4.71552">
        <ele>332.279568</ele>
        <time>2021-04-24T07:39:37.511Z</time>
      </trkpt>
      <trkpt lat="45.83537" lon="4.71541">
        <ele>332.763579</ele>
        <time>2021-04-24T07:39:39.509Z</time>
      </trkpt>
      <trkpt lat="45.83547" lon="4.71534">
        <ele>333.202497</ele>
        <time>2021-04-24T07:39:41.511Z</time>
      </trkpt>
      <trkpt lat="45.83555" lon="4.71526">
        <ele>333.590719</ele>
        <time>2021-04-24T07:39:43.511Z</time>
      </trkpt>
      <trkpt lat="45.83565" lon="4.71521">
        <ele>334.017238</ele>
        <time>2021-04-24T07:39:45.513Z</time>
      </trkpt>
      <trkpt lat="45.83575" lon="4.71514">
        <ele>334.448932</ele>
        <time>2021-04-24T07:39:47.495Z</time>
      </trkpt>
      <trkpt lat="45.83585" lon="4.71507">
        <ele>334.894126</ele>
        <time>2021-04-24T07:39:49.506Z</time>
      </trkpt>
      <trkpt lat="45.83592" lon="4.715">
        <ele>335.252207</ele>
        <time>2021-04-24T07:39:51.515Z</time>
      </trkpt>
      <trkpt lat="45.83602" lon="4.71494">
        <ele>335.669463</ele>
        <time>2021-04-24T07:39:53.516Z</time>
      </trkpt>
      <trkpt lat="45.83613" lon="4.71484">
        <ele>336.180604</ele>
        <time>2021-04-24T07:39:56.508Z</time>
      </trkpt>
      <trkpt lat="45.83622" lon="4.71477">
        <ele>336.574754</ele>
        <time>2021-04-24T07:39:58.514Z</time>
      </trkpt>
      <trkpt lat="45.83628" lon="4.71464">
        <ele>336.94463</ele>
        <time>2021-04-24T07:40:00.548Z</time>
      </trkpt>
      <trkpt lat="45.83632" lon="4.7145">
        <ele>337.135496</ele>
        <time>2021-04-24T07:40:02.525Z</time>
      </trkpt>
      <trkpt lat="45.83636" lon="4.71436">
        <ele>337.309098</ele>
        <time>2021-04-24T07:40:04.522Z</time>
      </trkpt>
      <trkpt lat="45.83639" lon="4.71421">
        <ele>337.499422</ele>
        <time>2021-04-24T07:40:06.527Z</time>
      </trkpt>
      <trkpt lat="45.83643" lon="4.71408">
        <ele>337.679125</ele>
        <time>2021-04-24T07:40:08.496Z</time>
      </trkpt>
      <trkpt lat="45.83647" lon="4.71394">
        <ele>337.861659</ele>
        <time>2021-04-24T07:40:10.502Z</time>
      </trkpt>
      <trkpt lat="45.83651" lon="4.71381">
        <ele>338.036487</ele>
        <time>2021-04-24T07:40:12.507Z</time>
      </trkpt>
      <trkpt lat="45.83654" lon="4.71366">
        <ele>338.226166</ele>
        <time>2021-04-24T07:40:14.511Z</time>
      </trkpt>
      <trkpt lat="45.83658" lon="4.71352">
        <ele>338.41016</ele>
        <time>2021-04-24T07:40:16.519Z</time>
      </trkpt>
      <trkpt lat="45.83661" lon="4.71338">
        <ele>338.590641</ele>
        <time>2021-04-24T07:40:18.525Z</time>
      </trkpt>
      <trkpt lat="45.83665" lon="4.71322">
        <ele>338.786071</ele>
        <time>2021-04-24T07:40:20.522Z</time>
      </trkpt>
      <trkpt lat="45.83667" lon="4.71309">
        <ele>338.951204</ele>
        <time>2021-04-24T07:40:22.519Z</time>
      </trkpt>
      <trkpt lat="45.8367" lon="4.71295">
        <ele>339.125957</ele>
        <time>2021-04-24T07:40:24.509Z</time>
      </trkpt>
      <trkpt lat="45.83673" lon="4.7128">
        <ele>339.319702</ele>
        <time>2021-04-24T07:40:26.520Z</time>
      </trkpt>
      <trkpt lat="45.83676" lon="4.71263">
        <ele>339.531339</ele>
        <time>2021-04-24T07:40:28.510Z</time>
      </trkpt>
      <trkpt lat="45.83679" lon="4.71248">
        <ele>339.725798</ele>
        <time>2021-04-24T07:40:30.506Z</time>
      </trkpt>
      <trkpt lat="45.83685" lon="4.71234">
        <ele>339.917034</ele>
        <time>2021-04-24T07:40:32.529Z</time>
      </trkpt>
      <trkpt lat="45.83689" lon="4.71219">
        <ele>340.167343</ele>
        <time>2021-04-24T07:40:34.513Z</time>
      </trkpt>
      <trkpt lat="45.83693" lon="4.71205">
        <ele>340.422194</ele>
        <time>2021-04-24T07:40:36.509Z</time>
      </trkpt>
      <trkpt lat="45.83698" lon="4.71187">
        <ele>340.766628</ele>
        <time>2021-04-24T07:40:39.504Z</time>
      </trkpt>
      <trkpt lat="45.83704" lon="4.71176">
        <ele>341.01604</ele>
        <time>2021-04-24T07:40:41.525Z</time>
      </trkpt>
      <trkpt lat="45.8371" lon="4.71167">
        <ele>341.246118</ele>
        <time>2021-04-24T07:40:43.509Z</time>
      </trkpt>
      <trkpt lat="45.83715" lon="4.71154">
        <ele>341.494882</ele>
        <time>2021-04-24T07:40:45.508Z</time>
      </trkpt>
      <trkpt lat="45.83721" lon="4.71137">
        <ele>341.84343</ele>
        <time>2021-04-24T07:40:48.516Z</time>
      </trkpt>
      <trkpt lat="45.83727" lon="4.71126">
        <ele>342.092817</ele>
        <time>2021-04-24T07:40:50.506Z</time>
      </trkpt>
      <trkpt lat="45.83733" lon="4.71114">
        <ele>342.357414</ele>
        <time>2021-04-24T07:40:52.505Z</time>
      </trkpt>
      <trkpt lat="45.83738" lon="4.71103">
        <ele>342.590768</ele>
        <time>2021-04-24T07:40:54.508Z</time>
      </trkpt>
      <trkpt lat="45.83744" lon="4.71092">
        <ele>342.834554</ele>
        <time>2021-04-24T07:40:56.502Z</time>
      </trkpt>
      <trkpt lat="45.83752" lon="4.71077">
        <ele>343.169995</ele>
        <time>2021-04-24T07:40:59.506Z</time>
      </trkpt>
      <trkpt lat="45.83757" lon="4.71066">
        <ele>343.40188</ele>
        <time>2021-04-24T07:41:01.506Z</time>
      </trkpt>
      <trkpt lat="45.83762" lon="4.71055">
        <ele>343.643975</ele>
        <time>2021-04-24T07:41:03.504Z</time>
      </trkpt>
      <trkpt lat="45.83769" lon="4.71044">
        <ele>343.898705</ele>
        <time>2021-04-24T07:41:05.553Z</time>
      </trkpt>
      <trkpt lat="45.83776" lon="4.71033">
        <ele>344.156554</ele>
        <time>2021-04-24T07:41:07.505Z</time>
      </trkpt>
      <trkpt lat="45.83781" lon="4.71022">
        <ele>344.404726</ele>
        <time>2021-04-24T07:41:09.508Z</time>
      </trkpt>
      <trkpt lat="45.83788" lon="4.7101">
        <ele>344.652284</ele>
        <time>2021-04-24T07:41:12.507Z</time>
      </trkpt>
      <trkpt lat="45.83795" lon="4.71">
        <ele>344.791445</ele>
        <time>2021-04-24T07:41:16.513Z</time>
      </trkpt>
      <trkpt lat="45.83804" lon="4.70988">
        <ele>344.963949</ele>
        <time>2021-04-24T07:41:34.535Z</time>
      </trkpt>
      <trkpt lat="45.83812" lon="4.70974">
        <ele>345.137694</ele>
        <time>2021-04-24T07:41:37.504Z</time>
      </trkpt>
      <trkpt lat="45.83818" lon="4.70963">
        <ele>345.275388</ele>
        <time>2021-04-24T07:41:39.513Z</time>
      </trkpt>
      <trkpt lat="45.83824" lon="4.70951">
        <ele>345.419599</ele>
        <time>2021-04-24T07:41:41.509Z</time>
      </trkpt>
      <trkpt lat="45.83831" lon="4.70939">
        <ele>345.573505</ele>
        <time>2021-04-24T07:41:43.518Z</time>
      </trkpt>
      <trkpt lat="45.83839" lon="4.70927">
        <ele>345.732281</ele>
        <time>2021-04-24T07:41:45.519Z</time>
      </trkpt>
      <trkpt lat="45.83846" lon="4.70913">
        <ele>345.897075</ele>
        <time>2021-04-24T07:41:47.524Z</time>
      </trkpt>
      <trkpt lat="45.83853" lon="4.709">
        <ele>346.057204</ele>
        <time>2021-04-24T07:41:49.519Z</time>
      </trkpt>
      <trkpt lat="45.83861" lon="4.70887">
        <ele>346.226637</ele>
        <time>2021-04-24T07:41:51.507Z</time>
      </trkpt>
      <trkpt lat="45.83868" lon="4.70873">
        <ele>346.396446</ele>
        <time>2021-04-24T07:41:53.516Z</time>
      </trkpt>
      <trkpt lat="45.83876" lon="4.7086">
        <ele>346.560195</ele>
        <time>2021-04-24T07:41:55.494Z</time>
      </trkpt>
      <trkpt lat="45.83884" lon="4.70847">
        <ele>346.734572</ele>
        <time>2021-04-24T07:41:57.523Z</time>
      </trkpt>
      <trkpt lat="45.83893" lon="4.70834">
        <ele>346.910443</ele>
        <time>2021-04-24T07:41:59.513Z</time>
      </trkpt>
      <trkpt lat="45.83901" lon="4.70819">
        <ele>347.091304</ele>
        <time>2021-04-24T07:42:01.521Z</time>
      </trkpt>
      <trkpt lat="45.83909" lon="4.70804">
        <ele>346.855504</ele>
        <time>2021-04-24T07:42:03.515Z</time>
      </trkpt>
      <trkpt lat="45.83917" lon="4.70789">
        <ele>346.500484</ele>
        <time>2021-04-24T07:42:05.510Z</time>
      </trkpt>
      <trkpt lat="45.83924" lon="4.70773">
        <ele>346.150298</ele>
        <time>2021-04-24T07:42:07.499Z</time>
      </trkpt>
      <trkpt lat="45.8393" lon="4.70756">
        <ele>345.809682</ele>
        <time>2021-04-24T07:42:09.504Z</time>
      </trkpt>
      <trkpt lat="45.83935" lon="4.70734">
        <ele>345.384169</ele>
        <time>2021-04-24T07:42:11.514Z</time>
      </trkpt>
      <trkpt lat="45.83938" lon="4.70713">
        <ele>344.998425</ele>
        <time>2021-04-24T07:42:13.544Z</time>
      </trkpt>
      <trkpt lat="45.83938" lon="4.70693">
        <ele>344.628356</ele>
        <time>2021-04-24T07:42:15.516Z</time>
      </trkpt>
      <trkpt lat="45.83939" lon="4.7067">
        <ele>344.193121</ele>
        <time>2021-04-24T07:42:17.520Z</time>
      </trkpt>
      <trkpt lat="45.83939" lon="4.70646">
        <ele>343.755296</ele>
        <time>2021-04-24T07:42:19.540Z</time>
      </trkpt>
      <trkpt lat="45.83938" lon="4.70625">
        <ele>343.371759</ele>
        <time>2021-04-24T07:42:21.511Z</time>
      </trkpt>
      <trkpt lat="45.83938" lon="4.70602">
        <ele>342.963302</ele>
        <time>2021-04-24T07:42:23.502Z</time>
      </trkpt>
      <trkpt lat="45.83937" lon="4.70581">
        <ele>342.56863</ele>
        <time>2021-04-24T07:42:25.591Z</time>
      </trkpt>
      <trkpt lat="45.83937" lon="4.70559">
        <ele>341.922824</ele>
        <time>2021-04-24T07:42:27.507Z</time>
      </trkpt>
      <trkpt lat="45.83936" lon="4.70538">
        <ele>341.169279</ele>
        <time>2021-04-24T07:42:29.492Z</time>
      </trkpt>
      <trkpt lat="45.83936" lon="4.70517">
        <ele>340.407922</ele>
        <time>2021-04-24T07:42:31.530Z</time>
      </trkpt>
      <trkpt lat="45.83934" lon="4.70498">
        <ele>339.721186</ele>
        <time>2021-04-24T07:42:33.501Z</time>
      </trkpt>
      <trkpt lat="45.83933" lon="4.70478">
        <ele>338.987215</ele>
        <time>2021-04-24T07:42:35.518Z</time>
      </trkpt>
      <trkpt lat="45.83934" lon="4.70457">
        <ele>338.220738</ele>
        <time>2021-04-24T07:42:37.540Z</time>
      </trkpt>
      <trkpt lat="45.83932" lon="4.70437">
        <ele>337.481109</ele>
        <time>2021-04-24T07:42:39.517Z</time>
      </trkpt>
      <trkpt lat="45.8393" lon="4.70416">
        <ele>336.723056</ele>
        <time>2021-04-24T07:42:41.504Z</time>
      </trkpt>
      <trkpt lat="45.83927" lon="4.70395">
        <ele>335.963736</ele>
        <time>2021-04-24T07:42:43.499Z</time>
      </trkpt>
      <trkpt lat="45.83922" lon="4.70375">
        <ele>335.178097</ele>
        <time>2021-04-24T07:42:45.507Z</time>
      </trkpt>
      <trkpt lat="45.83916" lon="4.70352">
        <ele>334.297213</ele>
        <time>2021-04-24T07:42:47.512Z</time>
      </trkpt>
      <trkpt lat="45.83911" lon="4.7033">
        <ele>333.465904</ele>
        <time>2021-04-24T07:42:49.514Z</time>
      </trkpt>
      <trkpt lat="45.83905" lon="4.70308">
        <ele>332.667065</ele>
        <time>2021-04-24T07:42:51.521Z</time>
      </trkpt>
      <trkpt lat="45.839" lon="4.70285">
        <ele>331.873404</ele>
        <time>2021-04-24T07:42:53.512Z</time>
      </trkpt>
      <trkpt lat="45.83894" lon="4.70262">
        <ele>331.091896</ele>
        <time>2021-04-24T07:42:55.508Z</time>
      </trkpt>
      <trkpt lat="45.83887" lon="4.70239">
        <ele>330.276924</ele>
        <time>2021-04-24T07:42:57.526Z</time>
      </trkpt>
      <trkpt lat="45.83883" lon="4.70215">
        <ele>329.506941</ele>
        <time>2021-04-24T07:42:59.503Z</time>
      </trkpt>
      <trkpt lat="45.83878" lon="4.70192">
        <ele>328.705237</ele>
        <time>2021-04-24T07:43:01.515Z</time>
      </trkpt>
      <trkpt lat="45.83877" lon="4.70178">
        <ele>328.26785</ele>
        <time>2021-04-24T07:43:02.517Z</time>
      </trkpt>
      <trkpt lat="45.83877" lon="4.70165">
        <ele>327.850795</ele>
        <time>2021-04-24T07:43:03.511Z</time>
      </trkpt>
      <trkpt lat="45.83879" lon="4.70152">
        <ele>327.421067</ele>
        <time>2021-04-24T07:43:04.536Z</time>
      </trkpt>
      <trkpt lat="45.83882" lon="4.70138">
        <ele>326.967961</ele>
        <time>2021-04-24T07:43:05.522Z</time>
      </trkpt>
      <trkpt lat="45.83886" lon="4.70126">
        <ele>326.548106</ele>
        <time>2021-04-24T07:43:06.508Z</time>
      </trkpt>
      <trkpt lat="45.8389" lon="4.70115">
        <ele>326.130099</ele>
        <time>2021-04-24T07:43:07.505Z</time>
      </trkpt>
      <trkpt lat="45.83896" lon="4.70104">
        <ele>325.6729</ele>
        <time>2021-04-24T07:43:08.500Z</time>
      </trkpt>
      <trkpt lat="45.83903" lon="4.70094">
        <ele>325.214958</ele>
        <time>2021-04-24T07:43:09.517Z</time>
      </trkpt>
      <trkpt lat="45.8391" lon="4.70084">
        <ele>324.758226</ele>
        <time>2021-04-24T07:43:10.577Z</time>
      </trkpt>
      <trkpt lat="45.83916" lon="4.70074">
        <ele>324.306131</ele>
        <time>2021-04-24T07:43:11.521Z</time>
      </trkpt>
      <trkpt lat="45.83922" lon="4.70063">
        <ele>323.855754</ele>
        <time>2021-04-24T07:43:12.519Z</time>
      </trkpt>
      <trkpt lat="45.83929" lon="4.70054">
        <ele>323.374479</ele>
        <time>2021-04-24T07:43:13.505Z</time>
      </trkpt>
      <trkpt lat="45.83944" lon="4.70039">
        <ele>322.478631</ele>
        <time>2021-04-24T07:43:15.532Z</time>
      </trkpt>
      <trkpt lat="45.8396" lon="4.70024">
        <ele>321.564833</ele>
        <time>2021-04-24T07:43:17.517Z</time>
      </trkpt>
      <trkpt lat="45.83967" lon="4.70017">
        <ele>321.12026</ele>
        <time>2021-04-24T07:43:18.516Z</time>
      </trkpt>
      <trkpt lat="45.83983" lon="4.70003">
        <ele>320.20022</ele>
        <time>2021-04-24T07:43:20.514Z</time>
      </trkpt>
      <trkpt lat="45.83991" lon="4.69995">
        <ele>319.74543</ele>
        <time>2021-04-24T07:43:21.511Z</time>
      </trkpt>
      <trkpt lat="45.84006" lon="4.69981">
        <ele>318.863614</ele>
        <time>2021-04-24T07:43:23.511Z</time>
      </trkpt>
      <trkpt lat="45.84021" lon="4.6997">
        <ele>318.009186</ele>
        <time>2021-04-24T07:43:25.517Z</time>
      </trkpt>
      <trkpt lat="45.84036" lon="4.69957">
        <ele>317.136206</ele>
        <time>2021-04-24T07:43:27.531Z</time>
      </trkpt>
      <trkpt lat="45.8405" lon="4.69944">
        <ele>316.330836</ele>
        <time>2021-04-24T07:43:29.524Z</time>
      </trkpt>
      <trkpt lat="45.84064" lon="4.69932">
        <ele>315.83853</ele>
        <time>2021-04-24T07:43:31.523Z</time>
      </trkpt>
      <trkpt lat="45.84079" lon="4.69921">
        <ele>315.632682</ele>
        <time>2021-04-24T07:43:33.550Z</time>
      </trkpt>
      <trkpt lat="45.84094" lon="4.69913">
        <ele>315.429715</ele>
        <time>2021-04-24T07:43:35.502Z</time>
      </trkpt>
      <trkpt lat="45.8411" lon="4.69908">
        <ele>315.235744</ele>
        <time>2021-04-24T07:43:37.502Z</time>
      </trkpt>
      <trkpt lat="45.84124" lon="4.69901">
        <ele>315.046371</ele>
        <time>2021-04-24T07:43:39.493Z</time>
      </trkpt>
      <trkpt lat="45.84141" lon="4.69893">
        <ele>314.832695</ele>
        <time>2021-04-24T07:43:41.521Z</time>
      </trkpt>
      <trkpt lat="45.84155" lon="4.69891">
        <ele>314.655982</ele>
        <time>2021-04-24T07:43:43.509Z</time>
      </trkpt>
      <trkpt lat="45.84167" lon="4.69891">
        <ele>314.50813</ele>
        <time>2021-04-24T07:43:45.505Z</time>
      </trkpt>
      <trkpt lat="45.84179" lon="4.69886">
        <ele>314.354186</ele>
        <time>2021-04-24T07:43:47.510Z</time>
      </trkpt>
      <trkpt lat="45.84196" lon="4.69877">
        <ele>314.134957</ele>
        <time>2021-04-24T07:43:49.519Z</time>
      </trkpt>
      <trkpt lat="45.84209" lon="4.69868">
        <ele>313.957512</ele>
        <time>2021-04-24T07:43:51.506Z</time>
      </trkpt>
      <trkpt lat="45.84221" lon="4.69859">
        <ele>313.779187</ele>
        <time>2021-04-24T07:43:53.497Z</time>
      </trkpt>
      <trkpt lat="45.84229" lon="4.69842">
        <ele>313.04814</ele>
        <time>2021-04-24T07:43:55.556Z</time>
      </trkpt>
      <trkpt lat="45.84236" lon="4.69822">
        <ele>311.91087</ele>
        <time>2021-04-24T07:43:57.522Z</time>
      </trkpt>
      <trkpt lat="45.84241" lon="4.69805">
        <ele>311.002831</ele>
        <time>2021-04-24T07:43:59.519Z</time>
      </trkpt>
      <trkpt lat="45.84249" lon="4.69799">
        <ele>310.347999</ele>
        <time>2021-04-24T07:44:00.503Z</time>
      </trkpt>
      <trkpt lat="45.84265" lon="4.69797">
        <ele>309.158658</ele>
        <time>2021-04-24T07:44:02.514Z</time>
      </trkpt>
      <trkpt lat="45.84275" lon="4.69798">
        <ele>308.475395</ele>
        <time>2021-04-24T07:44:03.511Z</time>
      </trkpt>
      <trkpt lat="45.84283" lon="4.69812">
        <ele>307.536387</ele>
        <time>2021-04-24T07:44:05.513Z</time>
      </trkpt>
      <trkpt lat="45.84297" lon="4.6982">
        <ele>306.480742</ele>
        <time>2021-04-24T07:44:07.529Z</time>
      </trkpt>
      <trkpt lat="45.84308" lon="4.69819">
        <ele>305.682375</ele>
        <time>2021-04-24T07:44:09.509Z</time>
      </trkpt>
      <trkpt lat="45.84319" lon="4.69817">
        <ele>304.880045</ele>
        <time>2021-04-24T07:44:11.517Z</time>
      </trkpt>
      <trkpt lat="45.8433" lon="4.69813">
        <ele>304.092296</ele>
        <time>2021-04-24T07:44:13.542Z</time>
      </trkpt>
      <trkpt lat="45.84342" lon="4.69804">
        <ele>303.078525</ele>
        <time>2021-04-24T07:44:15.510Z</time>
      </trkpt>
      <trkpt lat="45.84356" lon="4.69792">
        <ele>301.912724</ele>
        <time>2021-04-24T07:44:17.525Z</time>
      </trkpt>
      <trkpt lat="45.84369" lon="4.69782">
        <ele>300.810636</ele>
        <time>2021-04-24T07:44:19.523Z</time>
      </trkpt>
      <trkpt lat="45.84384" lon="4.69773">
        <ele>300.05291</ele>
        <time>2021-04-24T07:44:21.506Z</time>
      </trkpt>
      <trkpt lat="45.84393" lon="4.69769">
        <ele>299.586188</ele>
        <time>2021-04-24T07:44:22.527Z</time>
      </trkpt>
      <trkpt lat="45.84406" lon="4.69755">
        <ele>298.817067</ele>
        <time>2021-04-24T07:44:24.521Z</time>
      </trkpt>
      <trkpt lat="45.84421" lon="4.6976">
        <ele>298.055288</ele>
        <time>2021-04-24T07:44:26.509Z</time>
      </trkpt>
      <trkpt lat="45.8444" lon="4.69758">
        <ele>297.166638</ele>
        <time>2021-04-24T07:44:28.523Z</time>
      </trkpt>
      <trkpt lat="45.84455" lon="4.6976">
        <ele>296.448778</ele>
        <time>2021-04-24T07:44:30.522Z</time>
      </trkpt>
      <trkpt lat="45.84471" lon="4.69759">
        <ele>295.651391</ele>
        <time>2021-04-24T07:44:32.521Z</time>
      </trkpt>
      <trkpt lat="45.84482" lon="4.69754">
        <ele>295.102207</ele>
        <time>2021-04-24T07:44:33.520Z</time>
      </trkpt>
      <trkpt lat="45.84495" lon="4.6975">
        <ele>294.454871</ele>
        <time>2021-04-24T07:44:35.521Z</time>
      </trkpt>
      <trkpt lat="45.8451" lon="4.69747">
        <ele>293.757696</ele>
        <time>2021-04-24T07:44:37.506Z</time>
      </trkpt>
      <trkpt lat="45.84523" lon="4.69747">
        <ele>293.126638</ele>
        <time>2021-04-24T07:44:39.510Z</time>
      </trkpt>
      <trkpt lat="45.8454" lon="4.69744">
        <ele>292.297933</ele>
        <time>2021-04-24T07:44:41.550Z</time>
      </trkpt>
      <trkpt lat="45.84549" lon="4.69742">
        <ele>292.070977</ele>
        <time>2021-04-24T07:44:42.509Z</time>
      </trkpt>
      <trkpt lat="45.84565" lon="4.69741">
        <ele>291.90956</ele>
        <time>2021-04-24T07:44:44.505Z</time>
      </trkpt>
      <trkpt lat="45.84576" lon="4.69739">
        <ele>291.786231</ele>
        <time>2021-04-24T07:44:46.530Z</time>
      </trkpt>
      <trkpt lat="45.84592" lon="4.6974">
        <ele>291.622077</ele>
        <time>2021-04-24T07:44:48.517Z</time>
      </trkpt>
      <trkpt lat="45.84608" lon="4.69739">
        <ele>291.456878</ele>
        <time>2021-04-24T07:44:50.505Z</time>
      </trkpt>
      <trkpt lat="45.84624" lon="4.69738">
        <ele>291.297418</ele>
        <time>2021-04-24T07:44:52.508Z</time>
      </trkpt>
      <trkpt lat="45.84637" lon="4.69738">
        <ele>291.15701</ele>
        <time>2021-04-24T07:44:54.501Z</time>
      </trkpt>
      <trkpt lat="45.84652" lon="4.69739">
        <ele>291.001947</ele>
        <time>2021-04-24T07:44:56.507Z</time>
      </trkpt>
      <trkpt lat="45.84667" lon="4.6974">
        <ele>290.850777</ele>
        <time>2021-04-24T07:44:58.528Z</time>
      </trkpt>
      <trkpt lat="45.8468" lon="4.69745">
        <ele>290.712446</ele>
        <time>2021-04-24T07:45:00.524Z</time>
      </trkpt>
      <trkpt lat="45.84689" lon="4.69742">
        <ele>290.616722</ele>
        <time>2021-04-24T07:45:01.498Z</time>
      </trkpt>
      <trkpt lat="45.84698" lon="4.69742">
        <ele>290.522729</ele>
        <time>2021-04-24T07:45:02.522Z</time>
      </trkpt>
      <trkpt lat="45.84712" lon="4.69741">
        <ele>290.375032</ele>
        <time>2021-04-24T07:45:04.521Z</time>
      </trkpt>
      <trkpt lat="45.84726" lon="4.69735">
        <ele>290.157277</ele>
        <time>2021-04-24T07:45:06.518Z</time>
      </trkpt>
      <trkpt lat="45.84737" lon="4.69724">
        <ele>289.800121</ele>
        <time>2021-04-24T07:45:08.511Z</time>
      </trkpt>
      <trkpt lat="45.84748" lon="4.69707">
        <ele>289.387957</ele>
        <time>2021-04-24T07:45:10.494Z</time>
      </trkpt>
      <trkpt lat="45.84754" lon="4.69686">
        <ele>288.989706</ele>
        <time>2021-04-24T07:45:12.496Z</time>
      </trkpt>
      <trkpt lat="45.84759" lon="4.69665">
        <ele>288.573869</ele>
        <time>2021-04-24T07:45:14.503Z</time>
      </trkpt>
      <trkpt lat="45.84766" lon="4.69644">
        <ele>288.154407</ele>
        <time>2021-04-24T07:45:16.527Z</time>
      </trkpt>
      <trkpt lat="45.84777" lon="4.69626">
        <ele>287.731617</ele>
        <time>2021-04-24T07:45:18.499Z</time>
      </trkpt>
      <trkpt lat="45.84791" lon="4.69613">
        <ele>287.296181</ele>
        <time>2021-04-24T07:45:20.492Z</time>
      </trkpt>
      <trkpt lat="45.84806" lon="4.69605">
        <ele>286.887777</ele>
        <time>2021-04-24T07:45:22.517Z</time>
      </trkpt>
      <trkpt lat="45.84822" lon="4.69605">
        <ele>286.481793</ele>
        <time>2021-04-24T07:45:24.511Z</time>
      </trkpt>
      <trkpt lat="45.84837" lon="4.69602">
        <ele>286.096907</ele>
        <time>2021-04-24T07:45:26.516Z</time>
      </trkpt>
      <trkpt lat="45.8485" lon="4.69597">
        <ele>285.746443</ele>
        <time>2021-04-24T07:45:28.556Z</time>
      </trkpt>
      <trkpt lat="45.84865" lon="4.69589">
        <ele>285.81395</ele>
        <time>2021-04-24T07:45:30.521Z</time>
      </trkpt>
      <trkpt lat="45.84878" lon="4.69579">
        <ele>286.080865</ele>
        <time>2021-04-24T07:45:32.507Z</time>
      </trkpt>
      <trkpt lat="45.84891" lon="4.69567">
        <ele>286.350948</ele>
        <time>2021-04-24T07:45:34.527Z</time>
      </trkpt>
      <trkpt lat="45.84901" lon="4.69553">
        <ele>286.592965</ele>
        <time>2021-04-24T07:45:36.517Z</time>
      </trkpt>
      <trkpt lat="45.84914" lon="4.69541">
        <ele>286.85537</ele>
        <time>2021-04-24T07:45:38.503Z</time>
      </trkpt>
      <trkpt lat="45.84925" lon="4.69527">
        <ele>287.101984</ele>
        <time>2021-04-24T07:45:40.522Z</time>
      </trkpt>
      <trkpt lat="45.84931" lon="4.69518">
        <ele>287.257774</ele>
        <time>2021-04-24T07:45:41.501Z</time>
      </trkpt>
      <trkpt lat="45.84939" lon="4.69501">
        <ele>287.504666</ele>
        <time>2021-04-24T07:45:43.492Z</time>
      </trkpt>
      <trkpt lat="45.84947" lon="4.69483">
        <ele>287.768493</ele>
        <time>2021-04-24T07:45:45.492Z</time>
      </trkpt>
      <trkpt lat="45.84956" lon="4.69465">
        <ele>288.020152</ele>
        <time>2021-04-24T07:45:47.495Z</time>
      </trkpt>
      <trkpt lat="45.84964" lon="4.69449">
        <ele>288.264911</ele>
        <time>2021-04-24T07:45:49.506Z</time>
      </trkpt>
      <trkpt lat="45.84973" lon="4.69431">
        <ele>288.525515</ele>
        <time>2021-04-24T07:45:51.503Z</time>
      </trkpt>
      <trkpt lat="45.8498" lon="4.69414">
        <ele>288.489861</ele>
        <time>2021-04-24T07:45:53.498Z</time>
      </trkpt>
      <trkpt lat="45.84989" lon="4.69397">
        <ele>287.159779</ele>
        <time>2021-04-24T07:45:55.520Z</time>
      </trkpt>
      <trkpt lat="45.84996" lon="4.69377">
        <ele>285.798838</ele>
        <time>2021-04-24T07:45:57.506Z</time>
      </trkpt>
      <trkpt lat="45.85004" lon="4.69358">
        <ele>284.426539</ele>
        <time>2021-04-24T07:45:59.511Z</time>
      </trkpt>
      <trkpt lat="45.85007" lon="4.69339">
        <ele>283.224916</ele>
        <time>2021-04-24T07:46:01.505Z</time>
      </trkpt>
      <trkpt lat="45.8501" lon="4.69318">
        <ele>281.853376</ele>
        <time>2021-04-24T07:46:03.504Z</time>
      </trkpt>
      <trkpt lat="45.8501" lon="4.69297">
        <ele>280.59509</ele>
        <time>2021-04-24T07:46:05.510Z</time>
      </trkpt>
      <trkpt lat="45.85008" lon="4.69277">
        <ele>279.296926</ele>
        <time>2021-04-24T07:46:07.511Z</time>
      </trkpt>
      <trkpt lat="45.85004" lon="4.69254">
        <ele>277.816376</ele>
        <time>2021-04-24T07:46:09.522Z</time>
      </trkpt>
      <trkpt lat="45.85" lon="4.69232">
        <ele>276.407469</ele>
        <time>2021-04-24T07:46:11.540Z</time>
      </trkpt>
      <trkpt lat="45.84994" lon="4.6921">
        <ele>274.940716</ele>
        <time>2021-04-24T07:46:13.499Z</time>
      </trkpt>
      <trkpt lat="45.84987" lon="4.69189">
        <ele>273.509473</ele>
        <time>2021-04-24T07:46:15.515Z</time>
      </trkpt>
      <trkpt lat="45.84981" lon="4.69167">
        <ele>272.470415</ele>
        <time>2021-04-24T07:46:17.501Z</time>
      </trkpt>
      <trkpt lat="45.84974" lon="4.69146">
        <ele>272.064073</ele>
        <time>2021-04-24T07:46:19.521Z</time>
      </trkpt>
      <trkpt lat="45.84968" lon="4.69124">
        <ele>271.654815</ele>
        <time>2021-04-24T07:46:21.518Z</time>
      </trkpt>
      <trkpt lat="45.84963" lon="4.69105">
        <ele>271.300234</ele>
        <time>2021-04-24T07:46:23.513Z</time>
      </trkpt>
      <trkpt lat="45.84955" lon="4.69083">
        <ele>270.863749</ele>
        <time>2021-04-24T07:46:25.520Z</time>
      </trkpt>
      <trkpt lat="45.84948" lon="4.69062">
        <ele>270.465377</ele>
        <time>2021-04-24T07:46:27.516Z</time>
      </trkpt>
      <trkpt lat="45.84942" lon="4.69042">
        <ele>270.07304</ele>
        <time>2021-04-24T07:46:29.502Z</time>
      </trkpt>
      <trkpt lat="45.84936" lon="4.69021">
        <ele>269.672513</ele>
        <time>2021-04-24T07:46:31.503Z</time>
      </trkpt>
      <trkpt lat="45.8493" lon="4.68999">
        <ele>269.26977</ele>
        <time>2021-04-24T07:46:33.513Z</time>
      </trkpt>
      <trkpt lat="45.84924" lon="4.68979">
        <ele>268.880009</ele>
        <time>2021-04-24T07:46:35.505Z</time>
      </trkpt>
      <trkpt lat="45.84917" lon="4.68958">
        <ele>268.474198</ele>
        <time>2021-04-24T07:46:37.500Z</time>
      </trkpt>
      <trkpt lat="45.84914" lon="4.68945">
        <ele>268.23375</ele>
        <time>2021-04-24T07:46:38.497Z</time>
      </trkpt>
      <trkpt lat="45.84909" lon="4.68927">
        <ele>268.076412</ele>
        <time>2021-04-24T07:46:40.498Z</time>
      </trkpt>
      <trkpt lat="45.84905" lon="4.68911">
        <ele>268.010373</ele>
        <time>2021-04-24T07:46:42.497Z</time>
      </trkpt>
      <trkpt lat="45.84902" lon="4.68893">
        <ele>267.940406</ele>
        <time>2021-04-24T07:46:45.501Z</time>
      </trkpt>
      <trkpt lat="45.84907" lon="4.68882">
        <ele>267.888771</ele>
        <time>2021-04-24T07:46:49.497Z</time>
      </trkpt>
      <trkpt lat="45.84916" lon="4.68871">
        <ele>267.8256</ele>
        <time>2021-04-24T07:47:12.517Z</time>
      </trkpt>
      <trkpt lat="45.84927" lon="4.68861">
        <ele>267.750629</ele>
        <time>2021-04-24T07:47:15.504Z</time>
      </trkpt>
      <trkpt lat="45.84937" lon="4.68852">
        <ele>267.688605</ele>
        <time>2021-04-24T07:47:17.494Z</time>
      </trkpt>
      <trkpt lat="45.84947" lon="4.68842">
        <ele>267.622126</ele>
        <time>2021-04-24T07:47:19.494Z</time>
      </trkpt>
      <trkpt lat="45.84957" lon="4.68834">
        <ele>267.558596</ele>
        <time>2021-04-24T07:47:21.494Z</time>
      </trkpt>
      <trkpt lat="45.84967" lon="4.68823">
        <ele>267.493395</ele>
        <time>2021-04-24T07:47:23.497Z</time>
      </trkpt>
      <trkpt lat="45.84978" lon="4.6881">
        <ele>267.409947</ele>
        <time>2021-04-24T07:47:25.534Z</time>
      </trkpt>
      <trkpt lat="45.84987" lon="4.68796">
        <ele>267.338738</ele>
        <time>2021-04-24T07:47:27.497Z</time>
      </trkpt>
      <trkpt lat="45.84995" lon="4.68783">
        <ele>267.273205</ele>
        <time>2021-04-24T07:47:29.510Z</time>
      </trkpt>
      <trkpt lat="45.85004" lon="4.68768">
        <ele>267.198824</ele>
        <time>2021-04-24T07:47:31.543Z</time>
      </trkpt>
      <trkpt lat="45.85012" lon="4.68754">
        <ele>267.255426</ele>
        <time>2021-04-24T07:47:33.504Z</time>
      </trkpt>
      <trkpt lat="45.85019" lon="4.6874">
        <ele>267.861838</ele>
        <time>2021-04-24T07:47:35.516Z</time>
      </trkpt>
      <trkpt lat="45.85025" lon="4.68724">
        <ele>268.507587</ele>
        <time>2021-04-24T07:47:37.571Z</time>
      </trkpt>
      <trkpt lat="45.85031" lon="4.6871">
        <ele>269.090443</ele>
        <time>2021-04-24T07:47:39.505Z</time>
      </trkpt>
      <trkpt lat="45.85036" lon="4.68696">
        <ele>269.65552</ele>
        <time>2021-04-24T07:47:41.520Z</time>
      </trkpt>
      <trkpt lat="45.85047" lon="4.68687">
        <ele>270.254932</ele>
        <time>2021-04-24T07:47:43.513Z</time>
      </trkpt>
      <trkpt lat="45.85049" lon="4.6867">
        <ele>270.856032</ele>
        <time>2021-04-24T07:47:45.521Z</time>
      </trkpt>
      <trkpt lat="45.85053" lon="4.68655">
        <ele>271.422763</ele>
        <time>2021-04-24T07:47:47.498Z</time>
      </trkpt>
      <trkpt lat="45.85058" lon="4.68641">
        <ele>271.97413</ele>
        <time>2021-04-24T07:47:49.501Z</time>
      </trkpt>
      <trkpt lat="45.85062" lon="4.68626">
        <ele>272.533257</ele>
        <time>2021-04-24T07:47:51.510Z</time>
      </trkpt>
      <trkpt lat="45.85068" lon="4.68612">
        <ele>273.113053</ele>
        <time>2021-04-24T07:47:53.502Z</time>
      </trkpt>
      <trkpt lat="45.85072" lon="4.68596">
        <ele>273.718925</ele>
        <time>2021-04-24T07:47:55.504Z</time>
      </trkpt>
      <trkpt lat="45.85078" lon="4.68581">
        <ele>274.342948</ele>
        <time>2021-04-24T07:47:57.512Z</time>
      </trkpt>
      <trkpt lat="45.85085" lon="4.68566">
        <ele>274.963934</ele>
        <time>2021-04-24T07:47:59.565Z</time>
      </trkpt>
      <trkpt lat="45.85092" lon="4.68554">
        <ele>275.519304</ele>
        <time>2021-04-24T07:48:01.518Z</time>
      </trkpt>
      <trkpt lat="45.85098" lon="4.68539">
        <ele>276.132328</ele>
        <time>2021-04-24T07:48:03.519Z</time>
      </trkpt>
      <trkpt lat="45.85106" lon="4.68525">
        <ele>276.156454</ele>
        <time>2021-04-24T07:48:05.537Z</time>
      </trkpt>
      <trkpt lat="45.85114" lon="4.68512">
        <ele>276.065267</ele>
        <time>2021-04-24T07:48:07.496Z</time>
      </trkpt>
      <trkpt lat="45.85121" lon="4.68499">
        <ele>275.980136</ele>
        <time>2021-04-24T07:48:09.523Z</time>
      </trkpt>
      <trkpt lat="45.85129" lon="4.68484">
        <ele>275.885213</ele>
        <time>2021-04-24T07:48:11.550Z</time>
      </trkpt>
      <trkpt lat="45.85137" lon="4.68469">
        <ele>275.792774</ele>
        <time>2021-04-24T07:48:13.520Z</time>
      </trkpt>
      <trkpt lat="45.85145" lon="4.68455">
        <ele>275.69652</ele>
        <time>2021-04-24T07:48:15.511Z</time>
      </trkpt>
      <trkpt lat="45.85154" lon="4.68442">
        <ele>275.607649</ele>
        <time>2021-04-24T07:48:17.518Z</time>
      </trkpt>
      <trkpt lat="45.85164" lon="4.6843">
        <ele>275.510692</ele>
        <time>2021-04-24T07:48:19.499Z</time>
      </trkpt>
      <trkpt lat="45.85172" lon="4.68416">
        <ele>275.417725</ele>
        <time>2021-04-24T07:48:21.516Z</time>
      </trkpt>
      <trkpt lat="45.85179" lon="4.68403">
        <ele>275.335228</ele>
        <time>2021-04-24T07:48:23.547Z</time>
      </trkpt>
      <trkpt lat="45.85187" lon="4.68386">
        <ele>275.230272</ele>
        <time>2021-04-24T07:48:25.507Z</time>
      </trkpt>
      <trkpt lat="45.85197" lon="4.68373">
        <ele>275.132375</ele>
        <time>2021-04-24T07:48:27.521Z</time>
      </trkpt>
      <trkpt lat="45.85205" lon="4.68357">
        <ele>275.029862</ele>
        <time>2021-04-24T07:48:29.511Z</time>
      </trkpt>
      <trkpt lat="45.85212" lon="4.6834">
        <ele>274.930896</ele>
        <time>2021-04-24T07:48:31.503Z</time>
      </trkpt>
      <trkpt lat="45.85221" lon="4.68324">
        <ele>274.325295</ele>
        <time>2021-04-24T07:48:33.512Z</time>
      </trkpt>
      <trkpt lat="45.85231" lon="4.68312">
        <ele>273.691128</ele>
        <time>2021-04-24T07:48:35.496Z</time>
      </trkpt>
      <trkpt lat="45.85239" lon="4.683">
        <ele>273.12284</ele>
        <time>2021-04-24T07:48:37.501Z</time>
      </trkpt>
      <trkpt lat="45.85248" lon="4.68285">
        <ele>272.511863</ele>
        <time>2021-04-24T07:48:39.492Z</time>
      </trkpt>
      <trkpt lat="45.85257" lon="4.68272">
        <ele>271.872693</ele>
        <time>2021-04-24T07:48:41.499Z</time>
      </trkpt>
      <trkpt lat="45.85265" lon="4.6826">
        <ele>271.314994</ele>
        <time>2021-04-24T07:48:43.499Z</time>
      </trkpt>
      <trkpt lat="45.85273" lon="4.68245">
        <ele>270.672296</ele>
        <time>2021-04-24T07:48:45.491Z</time>
      </trkpt>
      <trkpt lat="45.85282" lon="4.6823">
        <ele>270.035658</ele>
        <time>2021-04-24T07:48:47.505Z</time>
      </trkpt>
      <trkpt lat="45.85291" lon="4.68215">
        <ele>269.360556</ele>
        <time>2021-04-24T07:48:49.495Z</time>
      </trkpt>
      <trkpt lat="45.85301" lon="4.682">
        <ele>268.686074</ele>
        <time>2021-04-24T07:48:51.501Z</time>
      </trkpt>
      <trkpt lat="45.85313" lon="4.68187">
        <ele>267.962294</ele>
        <time>2021-04-24T07:48:53.506Z</time>
      </trkpt>
      <trkpt lat="45.85324" lon="4.68173">
        <ele>267.23815</ele>
        <time>2021-04-24T07:48:55.521Z</time>
      </trkpt>
      <trkpt lat="45.85335" lon="4.68159">
        <ele>266.525955</ele>
        <time>2021-04-24T07:48:57.515Z</time>
      </trkpt>
      <trkpt lat="45.85347" lon="4.68145">
        <ele>265.479772</ele>
        <time>2021-04-24T07:48:59.519Z</time>
      </trkpt>
      <trkpt lat="45.8536" lon="4.68132">
        <ele>264.27085</ele>
        <time>2021-04-24T07:49:01.548Z</time>
      </trkpt>
      <trkpt lat="45.85371" lon="4.68118">
        <ele>263.123508</ele>
        <time>2021-04-24T07:49:03.514Z</time>
      </trkpt>
      <trkpt lat="45.85383" lon="4.68102">
        <ele>261.845822</ele>
        <time>2021-04-24T07:49:05.519Z</time>
      </trkpt>
      <trkpt lat="45.85397" lon="4.68086">
        <ele>260.51692</ele>
        <time>2021-04-24T07:49:07.523Z</time>
      </trkpt>
      <trkpt lat="45.85411" lon="4.68075">
        <ele>259.28889</ele>
        <time>2021-04-24T07:49:09.504Z</time>
      </trkpt>
      <trkpt lat="45.85424" lon="4.68062">
        <ele>258.079045</ele>
        <time>2021-04-24T07:49:11.511Z</time>
      </trkpt>
      <trkpt lat="45.85435" lon="4.68051">
        <ele>256.994244</ele>
        <time>2021-04-24T07:49:13.541Z</time>
      </trkpt>
      <trkpt lat="45.85446" lon="4.68039">
        <ele>255.943369</ele>
        <time>2021-04-24T07:49:15.509Z</time>
      </trkpt>
      <trkpt lat="45.85455" lon="4.68028">
        <ele>255.03306</ele>
        <time>2021-04-24T07:49:17.522Z</time>
      </trkpt>
      <trkpt lat="45.85464" lon="4.68021">
        <ele>254.243828</ele>
        <time>2021-04-24T07:49:19.513Z</time>
      </trkpt>
      <trkpt lat="45.85471" lon="4.68012">
        <ele>253.529164</ele>
        <time>2021-04-24T07:49:22.526Z</time>
      </trkpt>
      <trkpt lat="45.85481" lon="4.68015">
        <ele>252.741484</ele>
        <time>2021-04-24T07:49:26.494Z</time>
      </trkpt>
      <trkpt lat="45.85492" lon="4.68009">
        <ele>252.39139</ele>
        <time>2021-04-24T07:49:29.516Z</time>
      </trkpt>
      <trkpt lat="45.855" lon="4.68">
        <ele>252.354606</ele>
        <time>2021-04-24T07:49:32.497Z</time>
      </trkpt>
      <trkpt lat="45.85509" lon="4.67982">
        <ele>252.29824</ele>
        <time>2021-04-24T07:52:14.530Z</time>
      </trkpt>
      <trkpt lat="45.85516" lon="4.67969">
        <ele>252.256503</ele>
        <time>2021-04-24T07:52:16.549Z</time>
      </trkpt>
      <trkpt lat="45.85528" lon="4.67956">
        <ele>252.199319</ele>
        <time>2021-04-24T07:52:19.504Z</time>
      </trkpt>
      <trkpt lat="45.85537" lon="4.67948">
        <ele>252.159397</ele>
        <time>2021-04-24T07:52:21.516Z</time>
      </trkpt>
      <trkpt lat="45.85545" lon="4.67939">
        <ele>252.122908</ele>
        <time>2021-04-24T07:52:23.516Z</time>
      </trkpt>
      <trkpt lat="45.85554" lon="4.67931">
        <ele>252.085076</ele>
        <time>2021-04-24T07:52:25.502Z</time>
      </trkpt>
      <trkpt lat="45.85562" lon="4.67923">
        <ele>252.05094</ele>
        <time>2021-04-24T07:52:27.516Z</time>
      </trkpt>
      <trkpt lat="45.85572" lon="4.67923">
        <ele>252.011709</ele>
        <time>2021-04-24T07:52:30.511Z</time>
      </trkpt>
      <trkpt lat="45.85577" lon="4.67911">
        <ele>251.976566</ele>
        <time>2021-04-24T07:52:34.512Z</time>
      </trkpt>
      <trkpt lat="45.85575" lon="4.67897">
        <ele>251.941208</ele>
        <time>2021-04-24T07:52:37.509Z</time>
      </trkpt>
      <trkpt lat="45.85576" lon="4.67878">
        <ele>251.893089</ele>
        <time>2021-04-24T07:52:40.531Z</time>
      </trkpt>
      <trkpt lat="45.85575" lon="4.67865">
        <ele>251.857697</ele>
        <time>2021-04-24T07:52:42.517Z</time>
      </trkpt>
      <trkpt lat="45.85576" lon="4.67848">
        <ele>251.814896</ele>
        <time>2021-04-24T07:52:44.524Z</time>
      </trkpt>
      <trkpt lat="45.85578" lon="4.6783">
        <ele>251.769552</ele>
        <time>2021-04-24T07:52:46.498Z</time>
      </trkpt>
      <trkpt lat="45.85581" lon="4.67814">
        <ele>251.847262</ele>
        <time>2021-04-24T07:52:48.526Z</time>
      </trkpt>
      <trkpt lat="45.85585" lon="4.67799">
        <ele>251.958938</ele>
        <time>2021-04-24T07:52:50.510Z</time>
      </trkpt>
      <trkpt lat="45.8559" lon="4.67783">
        <ele>252.08156</ele>
        <time>2021-04-24T07:52:52.495Z</time>
      </trkpt>
      <trkpt lat="45.85595" lon="4.67768">
        <ele>252.20353</ele>
        <time>2021-04-24T07:52:54.520Z</time>
      </trkpt>
      <trkpt lat="45.85603" lon="4.67753">
        <ele>252.328002</ele>
        <time>2021-04-24T07:52:56.517Z</time>
      </trkpt>
      <trkpt lat="45.85611" lon="4.67739">
        <ele>252.456471</ele>
        <time>2021-04-24T07:52:58.537Z</time>
      </trkpt>
      <trkpt lat="45.8562" lon="4.67726">
        <ele>252.587058</ele>
        <time>2021-04-24T07:53:00.503Z</time>
      </trkpt>
      <trkpt lat="45.85628" lon="4.67711">
        <ele>252.723534</ele>
        <time>2021-04-24T07:53:02.517Z</time>
      </trkpt>
      <trkpt lat="45.85638" lon="4.67701">
        <ele>252.843771</ele>
        <time>2021-04-24T07:53:04.502Z</time>
      </trkpt>
      <trkpt lat="45.85648" lon="4.6769">
        <ele>252.975387</ele>
        <time>2021-04-24T07:53:06.493Z</time>
      </trkpt>
      <trkpt lat="45.8566" lon="4.67679">
        <ele>253.114358</ele>
        <time>2021-04-24T07:53:08.499Z</time>
      </trkpt>
      <trkpt lat="45.85671" lon="4.67671">
        <ele>253.239863</ele>
        <time>2021-04-24T07:53:10.503Z</time>
      </trkpt>
      <trkpt lat="45.85681" lon="4.6766">
        <ele>253.371082</ele>
        <time>2021-04-24T07:53:12.510Z</time>
      </trkpt>
      <trkpt lat="45.85694" lon="4.67652">
        <ele>253.514026</ele>
        <time>2021-04-24T07:53:14.521Z</time>
      </trkpt>
      <trkpt lat="45.85705" lon="4.67643">
        <ele>253.62402</ele>
        <time>2021-04-24T07:53:16.529Z</time>
      </trkpt>
      <trkpt lat="45.85719" lon="4.67636">
        <ele>253.723807</ele>
        <time>2021-04-24T07:53:18.518Z</time>
      </trkpt>
      <trkpt lat="45.85731" lon="4.67626">
        <ele>253.820128</ele>
        <time>2021-04-24T07:53:20.518Z</time>
      </trkpt>
      <trkpt lat="45.85744" lon="4.67618">
        <ele>253.914623</ele>
        <time>2021-04-24T07:53:22.507Z</time>
      </trkpt>
      <trkpt lat="45.85756" lon="4.6761">
        <ele>254.00876</ele>
        <time>2021-04-24T07:53:24.515Z</time>
      </trkpt>
      <trkpt lat="45.85769" lon="4.67599">
        <ele>254.107705</ele>
        <time>2021-04-24T07:53:26.526Z</time>
      </trkpt>
      <trkpt lat="45.85781" lon="4.67591">
        <ele>254.205519</ele>
        <time>2021-04-24T07:53:28.513Z</time>
      </trkpt>
      <trkpt lat="45.85794" lon="4.67578">
        <ele>254.309037</ele>
        <time>2021-04-24T07:53:30.515Z</time>
      </trkpt>
      <trkpt lat="45.85804" lon="4.67566">
        <ele>254.401131</ele>
        <time>2021-04-24T07:53:32.513Z</time>
      </trkpt>
      <trkpt lat="45.85814" lon="4.67554">
        <ele>254.493753</ele>
        <time>2021-04-24T07:53:34.506Z</time>
      </trkpt>
      <trkpt lat="45.85825" lon="4.67538">
        <ele>254.597155</ele>
        <time>2021-04-24T07:53:36.527Z</time>
      </trkpt>
      <trkpt lat="45.85833" lon="4.67523">
        <ele>254.694532</ele>
        <time>2021-04-24T07:53:38.494Z</time>
      </trkpt>
      <trkpt lat="45.85844" lon="4.67507">
        <ele>254.798199</ele>
        <time>2021-04-24T07:53:40.506Z</time>
      </trkpt>
      <trkpt lat="45.85852" lon="4.67493">
        <ele>254.879802</ele>
        <time>2021-04-24T07:53:42.501Z</time>
      </trkpt>
      <trkpt lat="45.85856" lon="4.67472">
        <ele>254.975113</ele>
        <time>2021-04-24T07:53:44.515Z</time>
      </trkpt>
      <trkpt lat="45.8586" lon="4.67453">
        <ele>255.063869</ele>
        <time>2021-04-24T07:53:46.507Z</time>
      </trkpt>
      <trkpt lat="45.85863" lon="4.67431">
        <ele>255.16248</ele>
        <time>2021-04-24T07:53:48.513Z</time>
      </trkpt>
      <trkpt lat="45.85866" lon="4.67411">
        <ele>255.254984</ele>
        <time>2021-04-24T07:53:50.512Z</time>
      </trkpt>
      <trkpt lat="45.85869" lon="4.67389">
        <ele>255.354147</ele>
        <time>2021-04-24T07:53:52.498Z</time>
      </trkpt>
      <trkpt lat="45.85871" lon="4.67368">
        <ele>255.450736</ele>
        <time>2021-04-24T07:53:54.543Z</time>
      </trkpt>
      <trkpt lat="45.85874" lon="4.67347">
        <ele>255.542265</ele>
        <time>2021-04-24T07:53:56.504Z</time>
      </trkpt>
      <trkpt lat="45.85874" lon="4.67328">
        <ele>255.626892</ele>
        <time>2021-04-24T07:53:58.520Z</time>
      </trkpt>
      <trkpt lat="45.85878" lon="4.67307">
        <ele>255.724967</ele>
        <time>2021-04-24T07:54:00.501Z</time>
      </trkpt>
      <trkpt lat="45.8588" lon="4.67286">
        <ele>255.818557</ele>
        <time>2021-04-24T07:54:02.498Z</time>
      </trkpt>
      <trkpt lat="45.85882" lon="4.67266">
        <ele>255.908525</ele>
        <time>2021-04-24T07:54:04.526Z</time>
      </trkpt>
      <trkpt lat="45.85885" lon="4.67245">
        <ele>256.012679</ele>
        <time>2021-04-24T07:54:06.500Z</time>
      </trkpt>
      <trkpt lat="45.85886" lon="4.67223">
        <ele>256.128904</ele>
        <time>2021-04-24T07:54:08.503Z</time>
      </trkpt>
      <trkpt lat="45.85888" lon="4.67203">
        <ele>256.244324</ele>
        <time>2021-04-24T07:54:10.499Z</time>
      </trkpt>
      <trkpt lat="45.8589" lon="4.67183">
        <ele>256.356777</ele>
        <time>2021-04-24T07:54:12.500Z</time>
      </trkpt>
      <trkpt lat="45.85894" lon="4.67151">
        <ele>256.532525</ele>
        <time>2021-04-24T07:54:15.509Z</time>
      </trkpt>
      <trkpt lat="45.85896" lon="4.67132">
        <ele>256.641495</ele>
        <time>2021-04-24T07:54:17.502Z</time>
      </trkpt>
      <trkpt lat="45.85899" lon="4.67111">
        <ele>256.758298</ele>
        <time>2021-04-24T07:54:19.560Z</time>
      </trkpt>
      <trkpt lat="45.85901" lon="4.6709">
        <ele>256.8706</ele>
        <time>2021-04-24T07:54:21.510Z</time>
      </trkpt>
      <trkpt lat="45.85905" lon="4.67073">
        <ele>256.972243</ele>
        <time>2021-04-24T07:54:23.516Z</time>
      </trkpt>
      <trkpt lat="45.85907" lon="4.67054">
        <ele>257.077125</ele>
        <time>2021-04-24T07:54:25.523Z</time>
      </trkpt>
      <trkpt lat="45.8591" lon="4.67036">
        <ele>257.18055</ele>
        <time>2021-04-24T07:54:27.514Z</time>
      </trkpt>
      <trkpt lat="45.85913" lon="4.6702">
        <ele>257.270093</ele>
        <time>2021-04-24T07:54:29.505Z</time>
      </trkpt>
      <trkpt lat="45.85918" lon="4.67003">
        <ele>257.367271</ele>
        <time>2021-04-24T07:54:32.521Z</time>
      </trkpt>
      <trkpt lat="45.85926" lon="4.66991">
        <ele>257.153751</ele>
        <time>2021-04-24T07:54:35.534Z</time>
      </trkpt>
      <trkpt lat="45.85933" lon="4.66979">
        <ele>256.906156</ele>
        <time>2021-04-24T07:54:38.512Z</time>
      </trkpt>
      <trkpt lat="45.85931" lon="4.66963">
        <ele>256.644047</ele>
        <time>2021-04-24T07:54:41.518Z</time>
      </trkpt>
      <trkpt lat="45.8592" lon="4.6695">
        <ele>256.30175</ele>
        <time>2021-04-24T07:54:44.504Z</time>
      </trkpt>
      <trkpt lat="45.8591" lon="4.66951">
        <ele>256.075165</ele>
        <time>2021-04-24T07:54:46.510Z</time>
      </trkpt>
      <trkpt lat="45.85899" lon="4.66954">
        <ele>255.810733</ele>
        <time>2021-04-24T07:54:48.527Z</time>
      </trkpt>
      <trkpt lat="45.85887" lon="4.66951">
        <ele>255.540343</ele>
        <time>2021-04-24T07:54:50.502Z</time>
      </trkpt>
      <trkpt lat="45.85876" lon="4.66946">
        <ele>255.264082</ele>
        <time>2021-04-24T07:54:52.512Z</time>
      </trkpt>
      <trkpt lat="45.85865" lon="4.66941">
        <ele>255.007004</ele>
        <time>2021-04-24T07:54:54.505Z</time>
      </trkpt>
      <trkpt lat="45.85854" lon="4.6694">
        <ele>254.73033</ele>
        <time>2021-04-24T07:54:56.499Z</time>
      </trkpt>
      <trkpt lat="45.85842" lon="4.66936">
        <ele>254.463592</ele>
        <time>2021-04-24T07:54:58.520Z</time>
      </trkpt>
      <trkpt lat="45.8583" lon="4.66934">
        <ele>254.182522</ele>
        <time>2021-04-24T07:55:00.517Z</time>
      </trkpt>
      <trkpt lat="45.85819" lon="4.6693">
        <ele>253.903022</ele>
        <time>2021-04-24T07:55:02.513Z</time>
      </trkpt>
      <trkpt lat="45.85806" lon="4.66932">
        <ele>253.600318</ele>
        <time>2021-04-24T07:55:04.527Z</time>
      </trkpt>
      <trkpt lat="45.85794" lon="4.66933">
        <ele>253.314912</ele>
        <time>2021-04-24T07:55:06.506Z</time>
      </trkpt>
      <trkpt lat="45.85782" lon="4.66933">
        <ele>253.202562</ele>
        <time>2021-04-24T07:55:08.511Z</time>
      </trkpt>
      <trkpt lat="45.85772" lon="4.66933">
        <ele>253.225186</ele>
        <time>2021-04-24T07:55:10.520Z</time>
      </trkpt>
      <trkpt lat="45.8576" lon="4.66933">
        <ele>253.249524</ele>
        <time>2021-04-24T07:55:12.489Z</time>
      </trkpt>
      <trkpt lat="45.85749" lon="4.66931">
        <ele>253.273971</ele>
        <time>2021-04-24T07:55:14.521Z</time>
      </trkpt>
      <trkpt lat="45.85738" lon="4.66928">
        <ele>253.296974</ele>
        <time>2021-04-24T07:55:16.500Z</time>
      </trkpt>
      <trkpt lat="45.85728" lon="4.66925">
        <ele>253.320332</ele>
        <time>2021-04-24T07:55:18.499Z</time>
      </trkpt>
      <trkpt lat="45.85717" lon="4.66923">
        <ele>253.342536</ele>
        <time>2021-04-24T07:55:20.523Z</time>
      </trkpt>
      <trkpt lat="45.85707" lon="4.66921">
        <ele>253.364361</ele>
        <time>2021-04-24T07:55:22.497Z</time>
      </trkpt>
      <trkpt lat="45.85696" lon="4.66918">
        <ele>253.388065</ele>
        <time>2021-04-24T07:55:24.514Z</time>
      </trkpt>
      <trkpt lat="45.85685" lon="4.66919">
        <ele>253.411163</ele>
        <time>2021-04-24T07:55:26.561Z</time>
      </trkpt>
      <trkpt lat="45.85675" lon="4.66918">
        <ele>253.434059</ele>
        <time>2021-04-24T07:55:28.509Z</time>
      </trkpt>
      <trkpt lat="45.85665" lon="4.66919">
        <ele>253.45478</ele>
        <time>2021-04-24T07:55:30.501Z</time>
      </trkpt>
      <trkpt lat="45.85653" lon="4.66921">
        <ele>253.480107</ele>
        <time>2021-04-24T07:55:32.526Z</time>
      </trkpt>
      <trkpt lat="45.8564" lon="4.66922">
        <ele>253.50858</ele>
        <time>2021-04-24T07:55:34.513Z</time>
      </trkpt>
      <trkpt lat="45.85626" lon="4.66925">
        <ele>253.538749</ele>
        <time>2021-04-24T07:55:36.505Z</time>
      </trkpt>
      <trkpt lat="45.85611" lon="4.66928">
        <ele>253.570037</ele>
        <time>2021-04-24T07:55:38.544Z</time>
      </trkpt>
      <trkpt lat="45.85596" lon="4.66933">
        <ele>253.611773</ele>
        <time>2021-04-24T07:55:40.508Z</time>
      </trkpt>
      <trkpt lat="45.85583" lon="4.66935">
        <ele>253.649717</ele>
        <time>2021-04-24T07:55:42.511Z</time>
      </trkpt>
      <trkpt lat="45.85571" lon="4.66939">
        <ele>253.683394</ele>
        <time>2021-04-24T07:55:44.525Z</time>
      </trkpt>
      <trkpt lat="45.85559" lon="4.66941">
        <ele>253.717123</ele>
        <time>2021-04-24T07:55:46.539Z</time>
      </trkpt>
      <trkpt lat="45.85547" lon="4.66942">
        <ele>253.748777</ele>
        <time>2021-04-24T07:55:48.505Z</time>
      </trkpt>
      <trkpt lat="45.85536" lon="4.66944">
        <ele>253.781179</ele>
        <time>2021-04-24T07:55:50.497Z</time>
      </trkpt>
      <trkpt lat="45.85525" lon="4.66946">
        <ele>253.812035</ele>
        <time>2021-04-24T07:55:52.506Z</time>
      </trkpt>
      <trkpt lat="45.85514" lon="4.66948">
        <ele>253.841029</ele>
        <time>2021-04-24T07:55:54.500Z</time>
      </trkpt>
      <trkpt lat="45.85503" lon="4.66949">
        <ele>253.872934</ele>
        <time>2021-04-24T07:55:56.511Z</time>
      </trkpt>
      <trkpt lat="45.85491" lon="4.66952">
        <ele>253.905114</ele>
        <time>2021-04-24T07:55:58.495Z</time>
      </trkpt>
      <trkpt lat="45.85481" lon="4.66953">
        <ele>253.932861</ele>
        <time>2021-04-24T07:56:00.495Z</time>
      </trkpt>
      <trkpt lat="45.8547" lon="4.66956">
        <ele>253.964522</ele>
        <time>2021-04-24T07:56:02.495Z</time>
      </trkpt>
      <trkpt lat="45.85458" lon="4.66956">
        <ele>253.996646</ele>
        <time>2021-04-24T07:56:04.518Z</time>
      </trkpt>
      <trkpt lat="45.85447" lon="4.66955">
        <ele>254.027747</ele>
        <time>2021-04-24T07:56:06.515Z</time>
      </trkpt>
      <trkpt lat="45.85436" lon="4.66953">
        <ele>254.058153</ele>
        <time>2021-04-24T07:56:08.504Z</time>
      </trkpt>
      <trkpt lat="45.85426" lon="4.66953">
        <ele>254.171312</ele>
        <time>2021-04-24T07:56:10.506Z</time>
      </trkpt>
      <trkpt lat="45.85415" lon="4.6695">
        <ele>254.406076</ele>
        <time>2021-04-24T07:56:13.544Z</time>
      </trkpt>
      <trkpt lat="45.85406" lon="4.66953">
        <ele>254.589296</ele>
        <time>2021-04-24T07:56:21.509Z</time>
      </trkpt>
      <trkpt lat="45.85387" lon="4.66965">
        <ele>254.999077</ele>
        <time>2021-04-24T07:57:38.529Z</time>
      </trkpt>
      <trkpt lat="45.85378" lon="4.6697">
        <ele>255.195262</ele>
        <time>2021-04-24T07:57:40.512Z</time>
      </trkpt>
      <trkpt lat="45.85366" lon="4.66978">
        <ele>255.458837</ele>
        <time>2021-04-24T07:57:43.504Z</time>
      </trkpt>
      <trkpt lat="45.85357" lon="4.66987">
        <ele>255.673211</ele>
        <time>2021-04-24T07:57:45.509Z</time>
      </trkpt>
      <trkpt lat="45.85347" lon="4.66994">
        <ele>255.880323</ele>
        <time>2021-04-24T07:57:47.543Z</time>
      </trkpt>
      <trkpt lat="45.85338" lon="4.67001">
        <ele>256.086032</ele>
        <time>2021-04-24T07:57:49.500Z</time>
      </trkpt>
      <trkpt lat="45.85328" lon="4.67004">
        <ele>256.293986</ele>
        <time>2021-04-24T07:57:52.502Z</time>
      </trkpt>
      <trkpt lat="45.85317" lon="4.67012">
        <ele>256.531278</ele>
        <time>2021-04-24T07:57:54.506Z</time>
      </trkpt>
      <trkpt lat="45.85308" lon="4.67015">
        <ele>256.721574</ele>
        <time>2021-04-24T07:57:56.502Z</time>
      </trkpt>
      <trkpt lat="45.85299" lon="4.67016">
        <ele>256.904337</ele>
        <time>2021-04-24T07:57:58.507Z</time>
      </trkpt>
      <trkpt lat="45.85289" lon="4.67018">
        <ele>257.102209</ele>
        <time>2021-04-24T07:58:00.500Z</time>
      </trkpt>
      <trkpt lat="45.85275" lon="4.6702">
        <ele>257.377242</ele>
        <time>2021-04-24T07:58:03.522Z</time>
      </trkpt>
      <trkpt lat="45.85263" lon="4.67022">
        <ele>257.612693</ele>
        <time>2021-04-24T07:58:06.513Z</time>
      </trkpt>
      <trkpt lat="45.85249" lon="4.67024">
        <ele>257.763699</ele>
        <time>2021-04-24T07:58:09.517Z</time>
      </trkpt>
      <trkpt lat="45.8524" lon="4.67023">
        <ele>257.851321</ele>
        <time>2021-04-24T07:58:11.517Z</time>
      </trkpt>
      <trkpt lat="45.85227" lon="4.67022">
        <ele>257.97739</ele>
        <time>2021-04-24T07:58:14.520Z</time>
      </trkpt>
      <trkpt lat="45.85217" lon="4.67022">
        <ele>258.066872</ele>
        <time>2021-04-24T07:58:16.552Z</time>
      </trkpt>
      <trkpt lat="45.85203" lon="4.67021">
        <ele>258.203445</ele>
        <time>2021-04-24T07:58:19.495Z</time>
      </trkpt>
      <trkpt lat="45.85195" lon="4.67018">
        <ele>258.290881</ele>
        <time>2021-04-24T07:58:21.496Z</time>
      </trkpt>
      <trkpt lat="45.85185" lon="4.67013">
        <ele>258.383702</ele>
        <time>2021-04-24T07:58:23.525Z</time>
      </trkpt>
      <trkpt lat="45.85172" lon="4.6701">
        <ele>258.513146</ele>
        <time>2021-04-24T07:58:26.511Z</time>
      </trkpt>
      <trkpt lat="45.85163" lon="4.67005">
        <ele>258.604346</ele>
        <time>2021-04-24T07:58:28.503Z</time>
      </trkpt>
      <trkpt lat="45.85154" lon="4.67001">
        <ele>258.693259</ele>
        <time>2021-04-24T07:58:30.515Z</time>
      </trkpt>
      <trkpt lat="45.85142" lon="4.66998">
        <ele>258.818182</ele>
        <time>2021-04-24T07:58:33.507Z</time>
      </trkpt>
      <trkpt lat="45.8513" lon="4.66993">
        <ele>258.930956</ele>
        <time>2021-04-24T07:58:36.523Z</time>
      </trkpt>
      <trkpt lat="45.85121" lon="4.6699">
        <ele>259.024887</ele>
        <time>2021-04-24T07:58:38.519Z</time>
      </trkpt>
      <trkpt lat="45.85111" lon="4.66988">
        <ele>259.117736</ele>
        <time>2021-04-24T07:58:40.502Z</time>
      </trkpt>
      <trkpt lat="45.85101" lon="4.66989">
        <ele>259.217733</ele>
        <time>2021-04-24T07:58:42.526Z</time>
      </trkpt>
      <trkpt lat="45.85091" lon="4.66988">
        <ele>259.309097</ele>
        <time>2021-04-24T07:58:44.507Z</time>
      </trkpt>
      <trkpt lat="45.85082" lon="4.6699">
        <ele>259.651348</ele>
        <time>2021-04-24T07:58:46.506Z</time>
      </trkpt>
      <trkpt lat="45.85072" lon="4.6699">
        <ele>260.355694</ele>
        <time>2021-04-24T07:58:48.513Z</time>
      </trkpt>
      <trkpt lat="45.85062" lon="4.66991">
        <ele>261.113642</ele>
        <time>2021-04-24T07:58:50.509Z</time>
      </trkpt>
      <trkpt lat="45.85052" lon="4.66991">
        <ele>261.870458</ele>
        <time>2021-04-24T07:58:52.498Z</time>
      </trkpt>
      <trkpt lat="45.85042" lon="4.66993">
        <ele>262.614523</ele>
        <time>2021-04-24T07:58:54.505Z</time>
      </trkpt>
      <trkpt lat="45.85033" lon="4.66993">
        <ele>263.333855</ele>
        <time>2021-04-24T07:58:56.502Z</time>
      </trkpt>
      <trkpt lat="45.85019" lon="4.66995">
        <ele>264.321544</ele>
        <time>2021-04-24T07:58:59.526Z</time>
      </trkpt>
      <trkpt lat="45.8501" lon="4.66997">
        <ele>265.060024</ele>
        <time>2021-04-24T07:59:01.508Z</time>
      </trkpt>
      <trkpt lat="45.84999" lon="4.66996">
        <ele>265.847416</ele>
        <time>2021-04-24T07:59:04.513Z</time>
      </trkpt>
      <trkpt lat="45.84989" lon="4.66997">
        <ele>266.578446</ele>
        <time>2021-04-24T07:59:06.517Z</time>
      </trkpt>
      <trkpt lat="45.8498" lon="4.66998">
        <ele>267.260812</ele>
        <time>2021-04-24T07:59:08.513Z</time>
      </trkpt>
      <trkpt lat="45.84968" lon="4.66998">
        <ele>268.197501</ele>
        <time>2021-04-24T07:59:11.516Z</time>
      </trkpt>
      <trkpt lat="45.84956" lon="4.67">
        <ele>269.100536</ele>
        <time>2021-04-24T07:59:14.515Z</time>
      </trkpt>
      <trkpt lat="45.84944" lon="4.67002">
        <ele>269.989692</ele>
        <time>2021-04-24T07:59:17.522Z</time>
      </trkpt>
      <trkpt lat="45.84933" lon="4.67003">
        <ele>270.83835</ele>
        <time>2021-04-24T07:59:20.513Z</time>
      </trkpt>
      <trkpt lat="45.84922" lon="4.67004">
        <ele>271.679905</ele>
        <time>2021-04-24T07:59:23.508Z</time>
      </trkpt>
      <trkpt lat="45.8491" lon="4.67005">
        <ele>272.528563</ele>
        <time>2021-04-24T07:59:26.517Z</time>
      </trkpt>
      <trkpt lat="45.84899" lon="4.67006">
        <ele>273.429401</ele>
        <time>2021-04-24T07:59:29.518Z</time>
      </trkpt>
      <trkpt lat="45.84889" lon="4.67007">
        <ele>274.364394</ele>
        <time>2021-04-24T07:59:32.526Z</time>
      </trkpt>
      <trkpt lat="45.84878" lon="4.67008">
        <ele>275.274541</ele>
        <time>2021-04-24T07:59:35.513Z</time>
      </trkpt>
      <trkpt lat="45.84868" lon="4.67009">
        <ele>276.193886</ele>
        <time>2021-04-24T07:59:38.554Z</time>
      </trkpt>
      <trkpt lat="45.84858" lon="4.6701">
        <ele>277.084988</ele>
        <time>2021-04-24T07:59:41.507Z</time>
      </trkpt>
      <trkpt lat="45.84847" lon="4.67011">
        <ele>277.976836</ele>
        <time>2021-04-24T07:59:44.521Z</time>
      </trkpt>
      <trkpt lat="45.84837" lon="4.67013">
        <ele>278.861985</ele>
        <time>2021-04-24T07:59:47.501Z</time>
      </trkpt>
      <trkpt lat="45.84827" lon="4.67013">
        <ele>279.75344</ele>
        <time>2021-04-24T07:59:50.578Z</time>
      </trkpt>
      <trkpt lat="45.84817" lon="4.67014">
        <ele>280.635246</ele>
        <time>2021-04-24T07:59:53.506Z</time>
      </trkpt>
      <trkpt lat="45.84807" lon="4.67015">
        <ele>281.525768</ele>
        <time>2021-04-24T07:59:56.526Z</time>
      </trkpt>
      <trkpt lat="45.84796" lon="4.67016">
        <ele>282.426749</ele>
        <time>2021-04-24T07:59:59.518Z</time>
      </trkpt>
      <trkpt lat="45.84786" lon="4.67017">
        <ele>283.35383</ele>
        <time>2021-04-24T08:00:02.512Z</time>
      </trkpt>
      <trkpt lat="45.84775" lon="4.67018">
        <ele>284.307015</ele>
        <time>2021-04-24T08:00:05.530Z</time>
      </trkpt>
      <trkpt lat="45.84764" lon="4.67019">
        <ele>285.268133</ele>
        <time>2021-04-24T08:00:08.521Z</time>
      </trkpt>
      <trkpt lat="45.84753" lon="4.67018">
        <ele>286.211502</ele>
        <time>2021-04-24T08:00:11.515Z</time>
      </trkpt>
      <trkpt lat="45.84742" lon="4.67016">
        <ele>287.164837</ele>
        <time>2021-04-24T08:00:14.527Z</time>
      </trkpt>
      <trkpt lat="45.84732" lon="4.67009">
        <ele>288.119594</ele>
        <time>2021-04-24T08:00:17.506Z</time>
      </trkpt>
      <trkpt lat="45.84723" lon="4.66999">
        <ele>288.857507</ele>
        <time>2021-04-24T08:00:20.522Z</time>
      </trkpt>
      <trkpt lat="45.84712" lon="4.66995">
        <ele>289.392335</ele>
        <time>2021-04-24T08:00:23.547Z</time>
      </trkpt>
      <trkpt lat="45.84701" lon="4.67001">
        <ele>289.937545</ele>
        <time>2021-04-24T08:00:26.516Z</time>
      </trkpt>
      <trkpt lat="45.84693" lon="4.67014">
        <ele>290.515653</ele>
        <time>2021-04-24T08:00:29.502Z</time>
      </trkpt>
      <trkpt lat="45.84683" lon="4.67024">
        <ele>291.080732</ele>
        <time>2021-04-24T08:00:32.496Z</time>
      </trkpt>
      <trkpt lat="45.84672" lon="4.67027">
        <ele>291.62604</ele>
        <time>2021-04-24T08:00:35.520Z</time>
      </trkpt>
      <trkpt lat="45.84661" lon="4.67029">
        <ele>292.152669</ele>
        <time>2021-04-24T08:00:38.513Z</time>
      </trkpt>
      <trkpt lat="45.8465" lon="4.67031">
        <ele>292.658621</ele>
        <time>2021-04-24T08:00:41.517Z</time>
      </trkpt>
      <trkpt lat="45.84639" lon="4.67032">
        <ele>293.154227</ele>
        <time>2021-04-24T08:00:44.526Z</time>
      </trkpt>
      <trkpt lat="45.84629" lon="4.67032">
        <ele>293.624313</ele>
        <time>2021-04-24T08:00:47.516Z</time>
      </trkpt>
      <trkpt lat="45.84619" lon="4.67032">
        <ele>294.108672</ele>
        <time>2021-04-24T08:00:50.517Z</time>
      </trkpt>
      <trkpt lat="45.84609" lon="4.67033">
        <ele>294.593153</ele>
        <time>2021-04-24T08:00:53.492Z</time>
      </trkpt>
      <trkpt lat="45.84599" lon="4.67034">
        <ele>295.069458</ele>
        <time>2021-04-24T08:00:56.508Z</time>
      </trkpt>
      <trkpt lat="45.84588" lon="4.67035">
        <ele>295.553817</ele>
        <time>2021-04-24T08:00:59.509Z</time>
      </trkpt>
      <trkpt lat="45.84578" lon="4.67035">
        <ele>296.024529</ele>
        <time>2021-04-24T08:01:02.508Z</time>
      </trkpt>
      <trkpt lat="45.84568" lon="4.67037">
        <ele>296.491755</ele>
        <time>2021-04-24T08:01:05.516Z</time>
      </trkpt>
      <trkpt lat="45.84558" lon="4.67038">
        <ele>296.968971</ele>
        <time>2021-04-24T08:01:08.549Z</time>
      </trkpt>
      <trkpt lat="45.84548" lon="4.67039">
        <ele>297.869892</ele>
        <time>2021-04-24T08:01:11.524Z</time>
      </trkpt>
      <trkpt lat="45.84537" lon="4.6704">
        <ele>298.787444</ele>
        <time>2021-04-24T08:01:14.497Z</time>
      </trkpt>
      <trkpt lat="45.84526" lon="4.67041">
        <ele>299.704589</ele>
        <time>2021-04-24T08:01:17.502Z</time>
      </trkpt>
      <trkpt lat="45.84516" lon="4.67043">
        <ele>300.625384</ele>
        <time>2021-04-24T08:01:20.493Z</time>
      </trkpt>
      <trkpt lat="45.84505" lon="4.67044">
        <ele>301.508813</ele>
        <time>2021-04-24T08:01:23.500Z</time>
      </trkpt>
      <trkpt lat="45.84495" lon="4.67044">
        <ele>302.41578</ele>
        <time>2021-04-24T08:01:26.522Z</time>
      </trkpt>
      <trkpt lat="45.84484" lon="4.67046">
        <ele>303.3433</ele>
        <time>2021-04-24T08:01:29.520Z</time>
      </trkpt>
      <trkpt lat="45.84473" lon="4.67047">
        <ele>304.244735</ele>
        <time>2021-04-24T08:01:32.496Z</time>
      </trkpt>
      <trkpt lat="45.84462" lon="4.67048">
        <ele>305.194623</ele>
        <time>2021-04-24T08:01:35.502Z</time>
      </trkpt>
      <trkpt lat="45.84451" lon="4.67049">
        <ele>306.188973</ele>
        <time>2021-04-24T08:01:38.511Z</time>
      </trkpt>
      <trkpt lat="45.84439" lon="4.6705">
        <ele>307.165873</ele>
        <time>2021-04-24T08:01:41.506Z</time>
      </trkpt>
      <trkpt lat="45.84428" lon="4.67051">
        <ele>308.152552</ele>
        <time>2021-04-24T08:01:44.505Z</time>
      </trkpt>
      <trkpt lat="45.84417" lon="4.67051">
        <ele>309.102142</ele>
        <time>2021-04-24T08:01:47.502Z</time>
      </trkpt>
      <trkpt lat="45.84405" lon="4.67052">
        <ele>310.095777</ele>
        <time>2021-04-24T08:01:50.602Z</time>
      </trkpt>
      <trkpt lat="45.84393" lon="4.67054">
        <ele>311.136905</ele>
        <time>2021-04-24T08:01:53.510Z</time>
      </trkpt>
      <trkpt lat="45.84381" lon="4.67056">
        <ele>312.127033</ele>
        <time>2021-04-24T08:01:56.507Z</time>
      </trkpt>
      <trkpt lat="45.8437" lon="4.67058">
        <ele>312.747929</ele>
        <time>2021-04-24T08:01:59.517Z</time>
      </trkpt>
      <trkpt lat="45.84358" lon="4.6706">
        <ele>313.243278</ele>
        <time>2021-04-24T08:02:02.501Z</time>
      </trkpt>
      <trkpt lat="45.84347" lon="4.67062">
        <ele>313.741828</ele>
        <time>2021-04-24T08:02:05.499Z</time>
      </trkpt>
      <trkpt lat="45.84335" lon="4.67063">
        <ele>314.231566</ele>
        <time>2021-04-24T08:02:08.546Z</time>
      </trkpt>
      <trkpt lat="45.84324" lon="4.67064">
        <ele>314.728309</ele>
        <time>2021-04-24T08:02:11.525Z</time>
      </trkpt>
      <trkpt lat="45.84312" lon="4.67065">
        <ele>315.241927</ele>
        <time>2021-04-24T08:02:14.512Z</time>
      </trkpt>
      <trkpt lat="45.843" lon="4.67066">
        <ele>315.759374</ele>
        <time>2021-04-24T08:02:17.509Z</time>
      </trkpt>
      <trkpt lat="45.84288" lon="4.67067">
        <ele>316.277634</ele>
        <time>2021-04-24T08:02:20.509Z</time>
      </trkpt>
      <trkpt lat="45.84275" lon="4.67069">
        <ele>316.809117</ele>
        <time>2021-04-24T08:02:23.505Z</time>
      </trkpt>
      <trkpt lat="45.84263" lon="4.6707">
        <ele>317.336583</ele>
        <time>2021-04-24T08:02:26.515Z</time>
      </trkpt>
      <trkpt lat="45.8425" lon="4.67071">
        <ele>317.880064</ele>
        <time>2021-04-24T08:02:29.508Z</time>
      </trkpt>
      <trkpt lat="45.84237" lon="4.67072">
        <ele>318.44096</ele>
        <time>2021-04-24T08:02:32.506Z</time>
      </trkpt>
      <trkpt lat="45.84224" lon="4.67074">
        <ele>319.011014</ele>
        <time>2021-04-24T08:02:35.516Z</time>
      </trkpt>
      <trkpt lat="45.84215" lon="4.67075">
        <ele>319.396316</ele>
        <time>2021-04-24T08:02:37.520Z</time>
      </trkpt>
      <trkpt lat="45.84205" lon="4.67075">
        <ele>319.802345</ele>
        <time>2021-04-24T08:02:39.506Z</time>
      </trkpt>
      <trkpt lat="45.84196" lon="4.67075">
        <ele>320.114596</ele>
        <time>2021-04-24T08:02:41.516Z</time>
      </trkpt>
      <trkpt lat="45.84186" lon="4.67074">
        <ele>320.2703</ele>
        <time>2021-04-24T08:02:43.541Z</time>
      </trkpt>
      <trkpt lat="45.84177" lon="4.67074">
        <ele>320.419672</ele>
        <time>2021-04-24T08:02:45.505Z</time>
      </trkpt>
      <trkpt lat="45.84168" lon="4.67071">
        <ele>320.56563</ele>
        <time>2021-04-24T08:02:47.500Z</time>
      </trkpt>
      <trkpt lat="45.84154" lon="4.67071">
        <ele>320.787081</ele>
        <time>2021-04-24T08:02:50.519Z</time>
      </trkpt>
      <trkpt lat="45.84144" lon="4.67069">
        <ele>320.948296</ele>
        <time>2021-04-24T08:02:52.514Z</time>
      </trkpt>
      <trkpt lat="45.84134" lon="4.67069">
        <ele>321.10253</ele>
        <time>2021-04-24T08:02:54.503Z</time>
      </trkpt>
      <trkpt lat="45.84124" lon="4.67066">
        <ele>321.273308</ele>
        <time>2021-04-24T08:02:56.512Z</time>
      </trkpt>
      <trkpt lat="45.84114" lon="4.67066">
        <ele>321.42738</ele>
        <time>2021-04-24T08:02:58.509Z</time>
      </trkpt>
      <trkpt lat="45.84104" lon="4.67064">
        <ele>321.590823</ele>
        <time>2021-04-24T08:03:00.517Z</time>
      </trkpt>
      <trkpt lat="45.84094" lon="4.67062">
        <ele>321.758904</ele>
        <time>2021-04-24T08:03:02.515Z</time>
      </trkpt>
      <trkpt lat="45.84083" lon="4.67059">
        <ele>321.936383</ele>
        <time>2021-04-24T08:03:04.502Z</time>
      </trkpt>
      <trkpt lat="45.84071" lon="4.67059">
        <ele>322.121178</ele>
        <time>2021-04-24T08:03:06.528Z</time>
      </trkpt>
      <trkpt lat="45.8406" lon="4.67058">
        <ele>322.312147</ele>
        <time>2021-04-24T08:03:08.526Z</time>
      </trkpt>
      <trkpt lat="45.84048" lon="4.67056">
        <ele>322.495774</ele>
        <time>2021-04-24T08:03:10.525Z</time>
      </trkpt>
      <trkpt lat="45.84038" lon="4.67053">
        <ele>322.662837</ele>
        <time>2021-04-24T08:03:12.512Z</time>
      </trkpt>
      <trkpt lat="45.84027" lon="4.6705">
        <ele>322.845647</ele>
        <time>2021-04-24T08:03:14.518Z</time>
      </trkpt>
      <trkpt lat="45.84015" lon="4.67046">
        <ele>323.187228</ele>
        <time>2021-04-24T08:03:16.514Z</time>
      </trkpt>
      <trkpt lat="45.84006" lon="4.67041">
        <ele>323.638334</ele>
        <time>2021-04-24T08:03:18.515Z</time>
      </trkpt>
      <trkpt lat="45.83996" lon="4.67036">
        <ele>324.106013</ele>
        <time>2021-04-24T08:03:20.510Z</time>
      </trkpt>
      <trkpt lat="45.83986" lon="4.67029">
        <ele>324.587045</ele>
        <time>2021-04-24T08:03:22.516Z</time>
      </trkpt>
      <trkpt lat="45.83976" lon="4.67024">
        <ele>325.04124</ele>
        <time>2021-04-24T08:03:24.523Z</time>
      </trkpt>
      <trkpt lat="45.83967" lon="4.67019">
        <ele>325.487252</ele>
        <time>2021-04-24T08:03:26.516Z</time>
      </trkpt>
      <trkpt lat="45.83956" lon="4.67017">
        <ele>325.970897</ele>
        <time>2021-04-24T08:03:28.500Z</time>
      </trkpt>
      <trkpt lat="45.83946" lon="4.67012">
        <ele>326.426139</ele>
        <time>2021-04-24T08:03:30.505Z</time>
      </trkpt>
      <trkpt lat="45.83934" lon="4.67008">
        <ele>326.968348</ele>
        <time>2021-04-24T08:03:32.510Z</time>
      </trkpt>
      <trkpt lat="45.83923" lon="4.67006">
        <ele>327.481875</ele>
        <time>2021-04-24T08:03:34.511Z</time>
      </trkpt>
      <trkpt lat="45.83912" lon="4.67004">
        <ele>327.974152</ele>
        <time>2021-04-24T08:03:36.498Z</time>
      </trkpt>
      <trkpt lat="45.83901" lon="4.67002">
        <ele>328.441779</ele>
        <time>2021-04-24T08:03:38.515Z</time>
      </trkpt>
      <trkpt lat="45.83891" lon="4.66999">
        <ele>328.897788</ele>
        <time>2021-04-24T08:03:40.520Z</time>
      </trkpt>
      <trkpt lat="45.83881" lon="4.66996">
        <ele>329.349296</ele>
        <time>2021-04-24T08:03:42.507Z</time>
      </trkpt>
      <trkpt lat="45.83872" lon="4.66992">
        <ele>329.752545</ele>
        <time>2021-04-24T08:03:44.527Z</time>
      </trkpt>
      <trkpt lat="45.83863" lon="4.66989">
        <ele>330.163337</ele>
        <time>2021-04-24T08:03:46.499Z</time>
      </trkpt>
      <trkpt lat="45.8385" lon="4.66986">
        <ele>330.754889</ele>
        <time>2021-04-24T08:03:49.563Z</time>
      </trkpt>
      <trkpt lat="45.83841" lon="4.66984">
        <ele>331.106438</ele>
        <time>2021-04-24T08:03:51.510Z</time>
      </trkpt>
      <trkpt lat="45.83831" lon="4.66983">
        <ele>331.454303</ele>
        <time>2021-04-24T08:03:53.509Z</time>
      </trkpt>
      <trkpt lat="45.83817" lon="4.66982">
        <ele>331.970846</ele>
        <time>2021-04-24T08:03:56.514Z</time>
      </trkpt>
      <trkpt lat="45.83805" lon="4.6698">
        <ele>332.451688</ele>
        <time>2021-04-24T08:03:59.496Z</time>
      </trkpt>
      <trkpt lat="45.83791" lon="4.66978">
        <ele>332.940087</ele>
        <time>2021-04-24T08:04:02.521Z</time>
      </trkpt>
      <trkpt lat="45.83782" lon="4.66977">
        <ele>333.294634</ele>
        <time>2021-04-24T08:04:04.501Z</time>
      </trkpt>
      <trkpt lat="45.83773" lon="4.66976">
        <ele>333.636772</ele>
        <time>2021-04-24T08:04:06.519Z</time>
      </trkpt>
      <trkpt lat="45.8376" lon="4.66975">
        <ele>334.090917</ele>
        <time>2021-04-24T08:04:09.507Z</time>
      </trkpt>
      <trkpt lat="45.83751" lon="4.66974">
        <ele>334.424307</ele>
        <time>2021-04-24T08:04:11.507Z</time>
      </trkpt>
      <trkpt lat="45.83738" lon="4.66973">
        <ele>334.911426</ele>
        <time>2021-04-24T08:04:14.508Z</time>
      </trkpt>
      <trkpt lat="45.83725" lon="4.66973">
        <ele>335.39841</ele>
        <time>2021-04-24T08:04:17.521Z</time>
      </trkpt>
      <trkpt lat="45.83708" lon="4.66971">
        <ele>336.012249</ele>
        <time>2021-04-24T08:04:21.511Z</time>
      </trkpt>
      <trkpt lat="45.83695" lon="4.66969">
        <ele>336.489618</ele>
        <time>2021-04-24T08:04:24.836Z</time>
      </trkpt>
      <trkpt lat="45.83683" lon="4.66968">
        <ele>336.963527</ele>
        <time>2021-04-24T08:04:27.507Z</time>
      </trkpt>
      <trkpt lat="45.83674" lon="4.66966">
        <ele>337.298349</ele>
        <time>2021-04-24T08:04:29.511Z</time>
      </trkpt>
      <trkpt lat="45.8366" lon="4.66963">
        <ele>337.860615</ele>
        <time>2021-04-24T08:04:32.501Z</time>
      </trkpt>
      <trkpt lat="45.83651" lon="4.66961">
        <ele>338.272971</ele>
        <time>2021-04-24T08:04:34.521Z</time>
      </trkpt>
      <trkpt lat="45.83642" lon="4.66958">
        <ele>338.693685</ele>
        <time>2021-04-24T08:04:36.503Z</time>
      </trkpt>
      <trkpt lat="45.83633" lon="4.66956">
        <ele>339.121684</ele>
        <time>2021-04-24T08:04:38.502Z</time>
      </trkpt>
      <trkpt lat="45.83624" lon="4.66956">
        <ele>339.53669</ele>
        <time>2021-04-24T08:04:40.504Z</time>
      </trkpt>
      <trkpt lat="45.83614" lon="4.66954">
        <ele>339.971365</ele>
        <time>2021-04-24T08:04:42.498Z</time>
      </trkpt>
      <trkpt lat="45.83602" lon="4.66952">
        <ele>340.504055</ele>
        <time>2021-04-24T08:04:45.503Z</time>
      </trkpt>
      <trkpt lat="45.83589" lon="4.6695">
        <ele>341.103481</ele>
        <time>2021-04-24T08:04:48.515Z</time>
      </trkpt>
      <trkpt lat="45.8358" lon="4.6695">
        <ele>341.523174</ele>
        <time>2021-04-24T08:04:50.503Z</time>
      </trkpt>
      <trkpt lat="45.8357" lon="4.66948">
        <ele>341.971079</ele>
        <time>2021-04-24T08:04:52.500Z</time>
      </trkpt>
      <trkpt lat="45.8356" lon="4.66948">
        <ele>342.413851</ele>
        <time>2021-04-24T08:04:54.512Z</time>
      </trkpt>
      <trkpt lat="45.83547" lon="4.66945">
        <ele>342.990879</ele>
        <time>2021-04-24T08:04:57.527Z</time>
      </trkpt>
      <trkpt lat="45.83538" lon="4.66945">
        <ele>343.397447</ele>
        <time>2021-04-24T08:04:59.506Z</time>
      </trkpt>
      <trkpt lat="45.83525" lon="4.66943">
        <ele>344.003273</ele>
        <time>2021-04-24T08:05:02.506Z</time>
      </trkpt>
      <trkpt lat="45.83512" lon="4.66941">
        <ele>344.585162</ele>
        <time>2021-04-24T08:05:05.536Z</time>
      </trkpt>
      <trkpt lat="45.83502" lon="4.66941">
        <ele>345.02732</ele>
        <time>2021-04-24T08:05:07.520Z</time>
      </trkpt>
      <trkpt lat="45.83493" lon="4.66943">
        <ele>345.454306</ele>
        <time>2021-04-24T08:05:09.530Z</time>
      </trkpt>
      <trkpt lat="45.83483" lon="4.66943">
        <ele>345.716903</ele>
        <time>2021-04-24T08:05:11.504Z</time>
      </trkpt>
      <trkpt lat="45.83473" lon="4.66945">
        <ele>345.869701</ele>
        <time>2021-04-24T08:05:13.512Z</time>
      </trkpt>
      <trkpt lat="45.83464" lon="4.66946">
        <ele>346.016522</ele>
        <time>2021-04-24T08:05:15.506Z</time>
      </trkpt>
      <trkpt lat="45.83454" lon="4.66948">
        <ele>346.185224</ele>
        <time>2021-04-24T08:05:17.508Z</time>
      </trkpt>
      <trkpt lat="45.83443" lon="4.6695">
        <ele>346.346622</ele>
        <time>2021-04-24T08:05:19.511Z</time>
      </trkpt>
      <trkpt lat="45.83433" lon="4.66952">
        <ele>346.510648</ele>
        <time>2021-04-24T08:05:21.506Z</time>
      </trkpt>
      <trkpt lat="45.83423" lon="4.66956">
        <ele>346.679421</ele>
        <time>2021-04-24T08:05:23.504Z</time>
      </trkpt>
      <trkpt lat="45.83413" lon="4.66957">
        <ele>346.838169</ele>
        <time>2021-04-24T08:05:25.524Z</time>
      </trkpt>
      <trkpt lat="45.83402" lon="4.66959">
        <ele>346.999567</ele>
        <time>2021-04-24T08:05:27.497Z</time>
      </trkpt>
      <trkpt lat="45.83393" lon="4.66961">
        <ele>347.150504</ele>
        <time>2021-04-24T08:05:29.495Z</time>
      </trkpt>
      <trkpt lat="45.83382" lon="4.6696">
        <ele>347.319076</ele>
        <time>2021-04-24T08:05:31.512Z</time>
      </trkpt>
      <trkpt lat="45.83372" lon="4.66961">
        <ele>347.476652</ele>
        <time>2021-04-24T08:05:33.504Z</time>
      </trkpt>
      <trkpt lat="45.83362" lon="4.66962">
        <ele>347.639961</ele>
        <time>2021-04-24T08:05:35.499Z</time>
      </trkpt>
      <trkpt lat="45.83351" lon="4.66964">
        <ele>347.812337</ele>
        <time>2021-04-24T08:05:37.507Z</time>
      </trkpt>
      <trkpt lat="45.8334" lon="4.66965">
        <ele>347.984532</ele>
        <time>2021-04-24T08:05:39.521Z</time>
      </trkpt>
      <trkpt lat="45.83329" lon="4.66966">
        <ele>348.15343</ele>
        <time>2021-04-24T08:05:41.508Z</time>
      </trkpt>
      <trkpt lat="45.83318" lon="4.66966">
        <ele>348.337722</ele>
        <time>2021-04-24T08:05:43.522Z</time>
      </trkpt>
      <trkpt lat="45.83306" lon="4.66965">
        <ele>348.630219</ele>
        <time>2021-04-24T08:05:45.512Z</time>
      </trkpt>
      <trkpt lat="45.83294" lon="4.66964">
        <ele>349.118653</ele>
        <time>2021-04-24T08:05:47.500Z</time>
      </trkpt>
      <trkpt lat="45.83283" lon="4.66961">
        <ele>349.581105</ele>
        <time>2021-04-24T08:05:49.514Z</time>
      </trkpt>
      <trkpt lat="45.83272" lon="4.66957">
        <ele>350.050089</ele>
        <time>2021-04-24T08:05:51.503Z</time>
      </trkpt>
      <trkpt lat="45.83261" lon="4.66953">
        <ele>350.516454</ele>
        <time>2021-04-24T08:05:53.526Z</time>
      </trkpt>
      <trkpt lat="45.83249" lon="4.66947">
        <ele>351.007931</ele>
        <time>2021-04-24T08:05:55.513Z</time>
      </trkpt>
      <trkpt lat="45.83238" lon="4.66941">
        <ele>351.489863</ele>
        <time>2021-04-24T08:05:57.505Z</time>
      </trkpt>
      <trkpt lat="45.83228" lon="4.66936">
        <ele>351.930859</ele>
        <time>2021-04-24T08:05:59.555Z</time>
      </trkpt>
      <trkpt lat="45.83217" lon="4.66931">
        <ele>352.40814</ele>
        <time>2021-04-24T08:06:01.509Z</time>
      </trkpt>
      <trkpt lat="45.83206" lon="4.66925">
        <ele>352.858778</ele>
        <time>2021-04-24T08:06:03.512Z</time>
      </trkpt>
      <trkpt lat="45.83196" lon="4.66919">
        <ele>353.32255</ele>
        <time>2021-04-24T08:06:05.506Z</time>
      </trkpt>
      <trkpt lat="45.83185" lon="4.66914">
        <ele>353.768135</ele>
        <time>2021-04-24T08:06:07.531Z</time>
      </trkpt>
      <trkpt lat="45.83174" lon="4.66908">
        <ele>354.2424</ele>
        <time>2021-04-24T08:06:09.503Z</time>
      </trkpt>
      <trkpt lat="45.83164" lon="4.66902">
        <ele>354.700597</ele>
        <time>2021-04-24T08:06:11.516Z</time>
      </trkpt>
      <trkpt lat="45.83153" lon="4.66896">
        <ele>355.176473</ele>
        <time>2021-04-24T08:06:13.521Z</time>
      </trkpt>
      <trkpt lat="45.83142" lon="4.6689">
        <ele>355.643088</ele>
        <time>2021-04-24T08:06:15.511Z</time>
      </trkpt>
      <trkpt lat="45.83131" lon="4.66884">
        <ele>355.874294</ele>
        <time>2021-04-24T08:06:17.529Z</time>
      </trkpt>
      <trkpt lat="45.83122" lon="4.66877">
        <ele>356.013964</ele>
        <time>2021-04-24T08:06:19.522Z</time>
      </trkpt>
      <trkpt lat="45.83111" lon="4.66869">
        <ele>356.168932</ele>
        <time>2021-04-24T08:06:21.517Z</time>
      </trkpt>
      <trkpt lat="45.831" lon="4.6686">
        <ele>356.323288</ele>
        <time>2021-04-24T08:06:23.517Z</time>
      </trkpt>
      <trkpt lat="45.83089" lon="4.66855">
        <ele>356.475589</ele>
        <time>2021-04-24T08:06:25.525Z</time>
      </trkpt>
      <trkpt lat="45.83076" lon="4.66848">
        <ele>356.641051</ele>
        <time>2021-04-24T08:06:27.512Z</time>
      </trkpt>
      <trkpt lat="45.83063" lon="4.66842">
        <ele>356.815832</ele>
        <time>2021-04-24T08:06:29.506Z</time>
      </trkpt>
      <trkpt lat="45.83051" lon="4.66838">
        <ele>356.97896</ele>
        <time>2021-04-24T08:06:31.497Z</time>
      </trkpt>
      <trkpt lat="45.83038" lon="4.66835">
        <ele>357.138126</ele>
        <time>2021-04-24T08:06:33.496Z</time>
      </trkpt>
      <trkpt lat="45.83025" lon="4.66834">
        <ele>357.303343</ele>
        <time>2021-04-24T08:06:35.500Z</time>
      </trkpt>
      <trkpt lat="45.83013" lon="4.66832">
        <ele>357.467914</ele>
        <time>2021-04-24T08:06:37.509Z</time>
      </trkpt>
      <trkpt lat="45.83001" lon="4.6683">
        <ele>357.618417</ele>
        <time>2021-04-24T08:06:39.506Z</time>
      </trkpt>
      <trkpt lat="45.8299" lon="4.6683">
        <ele>357.751858</ele>
        <time>2021-04-24T08:06:41.500Z</time>
      </trkpt>
      <trkpt lat="45.82979" lon="4.66826">
        <ele>357.89554</ele>
        <time>2021-04-24T08:06:43.538Z</time>
      </trkpt>
      <trkpt lat="45.82968" lon="4.66825">
        <ele>358.039405</ele>
        <time>2021-04-24T08:06:45.509Z</time>
      </trkpt>
      <trkpt lat="45.82957" lon="4.66824">
        <ele>358.138294</ele>
        <time>2021-04-24T08:06:47.512Z</time>
      </trkpt>
      <trkpt lat="45.82946" lon="4.66821">
        <ele>358.230511</ele>
        <time>2021-04-24T08:06:49.522Z</time>
      </trkpt>
      <trkpt lat="45.82934" lon="4.6682">
        <ele>358.336776</ele>
        <time>2021-04-24T08:06:51.506Z</time>
      </trkpt>
      <trkpt lat="45.82924" lon="4.66816">
        <ele>358.431316</ele>
        <time>2021-04-24T08:06:53.524Z</time>
      </trkpt>
      <trkpt lat="45.8291" lon="4.66817">
        <ele>358.553744</ele>
        <time>2021-04-24T08:06:55.516Z</time>
      </trkpt>
      <trkpt lat="45.82898" lon="4.66815">
        <ele>358.662701</ele>
        <time>2021-04-24T08:06:57.501Z</time>
      </trkpt>
      <trkpt lat="45.82885" lon="4.66813">
        <ele>358.777045</ele>
        <time>2021-04-24T08:06:59.511Z</time>
      </trkpt>
      <trkpt lat="45.82872" lon="4.6681">
        <ele>358.889637</ele>
        <time>2021-04-24T08:07:01.524Z</time>
      </trkpt>
      <trkpt lat="45.8286" lon="4.66808">
        <ele>358.997383</ele>
        <time>2021-04-24T08:07:03.523Z</time>
      </trkpt>
      <trkpt lat="45.82849" lon="4.66808">
        <ele>359.096027</ele>
        <time>2021-04-24T08:07:05.503Z</time>
      </trkpt>
      <trkpt lat="45.82837" lon="4.66808">
        <ele>359.197314</ele>
        <time>2021-04-24T08:07:07.523Z</time>
      </trkpt>
      <trkpt lat="45.82825" lon="4.66806">
        <ele>359.302703</ele>
        <time>2021-04-24T08:07:09.518Z</time>
      </trkpt>
      <trkpt lat="45.82814" lon="4.66807">
        <ele>359.403227</ele>
        <time>2021-04-24T08:07:11.525Z</time>
      </trkpt>
      <trkpt lat="45.82802" lon="4.66807">
        <ele>359.510684</ele>
        <time>2021-04-24T08:07:13.519Z</time>
      </trkpt>
      <trkpt lat="45.8279" lon="4.66807">
        <ele>359.611088</ele>
        <time>2021-04-24T08:07:15.519Z</time>
      </trkpt>
      <trkpt lat="45.82779" lon="4.66809">
        <ele>359.284856</ele>
        <time>2021-04-24T08:07:17.500Z</time>
      </trkpt>
      <trkpt lat="45.82768" lon="4.6681">
        <ele>358.866161</ele>
        <time>2021-04-24T08:07:19.521Z</time>
      </trkpt>
      <trkpt lat="45.82755" lon="4.6681">
        <ele>358.404922</ele>
        <time>2021-04-24T08:07:21.535Z</time>
      </trkpt>
      <trkpt lat="45.82742" lon="4.6681">
        <ele>357.940142</ele>
        <time>2021-04-24T08:07:23.511Z</time>
      </trkpt>
      <trkpt lat="45.8273" lon="4.66813">
        <ele>357.499325</ele>
        <time>2021-04-24T08:07:25.517Z</time>
      </trkpt>
      <trkpt lat="45.82718" lon="4.66812">
        <ele>357.073703</ele>
        <time>2021-04-24T08:07:27.507Z</time>
      </trkpt>
      <trkpt lat="45.82705" lon="4.66811">
        <ele>356.594091</ele>
        <time>2021-04-24T08:07:29.518Z</time>
      </trkpt>
      <trkpt lat="45.82693" lon="4.66812">
        <ele>356.165156</ele>
        <time>2021-04-24T08:07:31.526Z</time>
      </trkpt>
      <trkpt lat="45.82682" lon="4.66813">
        <ele>355.767276</ele>
        <time>2021-04-24T08:07:33.513Z</time>
      </trkpt>
      <trkpt lat="45.82668" lon="4.66814">
        <ele>355.280561</ele>
        <time>2021-04-24T08:07:35.518Z</time>
      </trkpt>
      <trkpt lat="45.82657" lon="4.66815">
        <ele>354.883093</ele>
        <time>2021-04-24T08:07:37.523Z</time>
      </trkpt>
      <trkpt lat="45.82645" lon="4.66815">
        <ele>354.443534</ele>
        <time>2021-04-24T08:07:39.518Z</time>
      </trkpt>
      <trkpt lat="45.82632" lon="4.66816">
        <ele>353.960419</ele>
        <time>2021-04-24T08:07:41.505Z</time>
      </trkpt>
      <trkpt lat="45.82618" lon="4.66816">
        <ele>353.473496</ele>
        <time>2021-04-24T08:07:43.553Z</time>
      </trkpt>
      <trkpt lat="45.82605" lon="4.6682">
        <ele>353.091409</ele>
        <time>2021-04-24T08:07:45.509Z</time>
      </trkpt>
      <trkpt lat="45.82591" lon="4.66824">
        <ele>352.889607</ele>
        <time>2021-04-24T08:07:47.508Z</time>
      </trkpt>
      <trkpt lat="45.82578" lon="4.66827">
        <ele>352.709084</ele>
        <time>2021-04-24T08:07:49.528Z</time>
      </trkpt>
      <trkpt lat="45.82567" lon="4.66828">
        <ele>352.543495</ele>
        <time>2021-04-24T08:07:51.501Z</time>
      </trkpt>
      <trkpt lat="45.82557" lon="4.6682">
        <ele>352.391588</ele>
        <time>2021-04-24T08:07:53.521Z</time>
      </trkpt>
      <trkpt lat="45.82552" lon="4.66804">
        <ele>352.218782</ele>
        <time>2021-04-24T08:07:55.564Z</time>
      </trkpt>
      <trkpt lat="45.82543" lon="4.66792">
        <ele>352.047034</ele>
        <time>2021-04-24T08:07:57.522Z</time>
      </trkpt>
      <trkpt lat="45.8253" lon="4.66789">
        <ele>351.874222</ele>
        <time>2021-04-24T08:07:59.507Z</time>
      </trkpt>
      <trkpt lat="45.82517" lon="4.66794">
        <ele>351.682009</ele>
        <time>2021-04-24T08:08:01.512Z</time>
      </trkpt>
      <trkpt lat="45.82505" lon="4.66801">
        <ele>351.506026</ele>
        <time>2021-04-24T08:08:03.516Z</time>
      </trkpt>
      <trkpt lat="45.82494" lon="4.66809">
        <ele>351.327112</ele>
        <time>2021-04-24T08:08:05.532Z</time>
      </trkpt>
      <trkpt lat="45.82483" lon="4.66816">
        <ele>351.159855</ele>
        <time>2021-04-24T08:08:07.509Z</time>
      </trkpt>
      <trkpt lat="45.82472" lon="4.66823">
        <ele>350.995533</ele>
        <time>2021-04-24T08:08:09.517Z</time>
      </trkpt>
      <trkpt lat="45.8246" lon="4.66831">
        <ele>350.80909</ele>
        <time>2021-04-24T08:08:11.505Z</time>
      </trkpt>
      <trkpt lat="45.82446" lon="4.66837">
        <ele>350.581832</ele>
        <time>2021-04-24T08:08:13.500Z</time>
      </trkpt>
      <trkpt lat="45.82431" lon="4.66842">
        <ele>350.125059</ele>
        <time>2021-04-24T08:08:15.516Z</time>
      </trkpt>
      <trkpt lat="45.82415" lon="4.66845">
        <ele>349.66847</ele>
        <time>2021-04-24T08:08:17.505Z</time>
      </trkpt>
      <trkpt lat="45.82399" lon="4.66849">
        <ele>349.212168</ele>
        <time>2021-04-24T08:08:19.504Z</time>
      </trkpt>
      <trkpt lat="45.82383" lon="4.6685">
        <ele>348.748252</ele>
        <time>2021-04-24T08:08:21.505Z</time>
      </trkpt>
      <trkpt lat="45.82368" lon="4.66852">
        <ele>348.338316</ele>
        <time>2021-04-24T08:08:23.506Z</time>
      </trkpt>
      <trkpt lat="45.82354" lon="4.66853">
        <ele>347.93688</ele>
        <time>2021-04-24T08:08:25.495Z</time>
      </trkpt>
      <trkpt lat="45.8234" lon="4.66855">
        <ele>347.520122</ele>
        <time>2021-04-24T08:08:27.493Z</time>
      </trkpt>
      <trkpt lat="45.82326" lon="4.66854">
        <ele>347.130281</ele>
        <time>2021-04-24T08:08:29.504Z</time>
      </trkpt>
      <trkpt lat="45.8231" lon="4.66856">
        <ele>346.685253</ele>
        <time>2021-04-24T08:08:31.499Z</time>
      </trkpt>
      <trkpt lat="45.82295" lon="4.66856">
        <ele>346.262034</ele>
        <time>2021-04-24T08:08:33.508Z</time>
      </trkpt>
      <trkpt lat="45.82279" lon="4.66857">
        <ele>345.809997</ele>
        <time>2021-04-24T08:08:35.490Z</time>
      </trkpt>
      <trkpt lat="45.82265" lon="4.6686">
        <ele>345.492114</ele>
        <time>2021-04-24T08:08:37.515Z</time>
      </trkpt>
      <trkpt lat="45.8225" lon="4.66863">
        <ele>345.369443</ele>
        <time>2021-04-24T08:08:39.504Z</time>
      </trkpt>
      <trkpt lat="45.82233" lon="4.66864">
        <ele>345.234883</ele>
        <time>2021-04-24T08:08:41.507Z</time>
      </trkpt>
      <trkpt lat="45.82218" lon="4.66866">
        <ele>345.10436</ele>
        <time>2021-04-24T08:08:43.519Z</time>
      </trkpt>
      <trkpt lat="45.82202" lon="4.66866">
        <ele>344.973292</ele>
        <time>2021-04-24T08:08:45.557Z</time>
      </trkpt>
      <trkpt lat="45.82186" lon="4.66869">
        <ele>344.844064</ele>
        <time>2021-04-24T08:08:47.493Z</time>
      </trkpt>
      <trkpt lat="45.8217" lon="4.66873">
        <ele>344.711213</ele>
        <time>2021-04-24T08:08:49.510Z</time>
      </trkpt>
      <trkpt lat="45.82156" lon="4.6687">
        <ele>344.593297</ele>
        <time>2021-04-24T08:08:51.502Z</time>
      </trkpt>
      <trkpt lat="45.82146" lon="4.66859">
        <ele>344.491187</ele>
        <time>2021-04-24T08:08:53.502Z</time>
      </trkpt>
      <trkpt lat="45.82134" lon="4.66853">
        <ele>344.384497</ele>
        <time>2021-04-24T08:08:55.505Z</time>
      </trkpt>
      <trkpt lat="45.82122" lon="4.66844">
        <ele>344.272835</ele>
        <time>2021-04-24T08:08:57.499Z</time>
      </trkpt>
      <trkpt lat="45.82113" lon="4.66828">
        <ele>344.15468</ele>
        <time>2021-04-24T08:08:59.517Z</time>
      </trkpt>
      <trkpt lat="45.82103" lon="4.66814">
        <ele>344.074847</ele>
        <time>2021-04-24T08:09:01.505Z</time>
      </trkpt>
      <trkpt lat="45.82097" lon="4.668">
        <ele>344.203896</ele>
        <time>2021-04-24T08:09:03.517Z</time>
      </trkpt>
      <trkpt lat="45.82088" lon="4.6679">
        <ele>344.327488</ele>
        <time>2021-04-24T08:09:05.504Z</time>
      </trkpt>
      <trkpt lat="45.82082" lon="4.66778">
        <ele>344.437091</ele>
        <time>2021-04-24T08:09:07.526Z</time>
      </trkpt>
      <trkpt lat="45.82073" lon="4.66771">
        <ele>344.55722</ele>
        <time>2021-04-24T08:09:09.511Z</time>
      </trkpt>
      <trkpt lat="45.8206" lon="4.66772">
        <ele>344.696159</ele>
        <time>2021-04-24T08:09:11.510Z</time>
      </trkpt>
      <trkpt lat="45.82049" lon="4.66767">
        <ele>344.821888</ele>
        <time>2021-04-24T08:09:13.505Z</time>
      </trkpt>
      <trkpt lat="45.8204" lon="4.66758">
        <ele>344.949366</ele>
        <time>2021-04-24T08:09:15.520Z</time>
      </trkpt>
      <trkpt lat="45.82031" lon="4.66749">
        <ele>345.064779</ele>
        <time>2021-04-24T08:09:17.505Z</time>
      </trkpt>
      <trkpt lat="45.82022" lon="4.66743">
        <ele>345.179167</ele>
        <time>2021-04-24T08:09:19.518Z</time>
      </trkpt>
      <trkpt lat="45.82013" lon="4.66735">
        <ele>345.293989</ele>
        <time>2021-04-24T08:09:21.506Z</time>
      </trkpt>
      <trkpt lat="45.82005" lon="4.66728">
        <ele>345.392917</ele>
        <time>2021-04-24T08:09:23.513Z</time>
      </trkpt>
      <trkpt lat="45.81998" lon="4.66719">
        <ele>345.49589</ele>
        <time>2021-04-24T08:09:25.515Z</time>
      </trkpt>
      <trkpt lat="45.8199" lon="4.66712">
        <ele>345.60189</ele>
        <time>2021-04-24T08:09:27.503Z</time>
      </trkpt>
      <trkpt lat="45.8198" lon="4.66709">
        <ele>345.713455</ele>
        <time>2021-04-24T08:09:29.505Z</time>
      </trkpt>
      <trkpt lat="45.81972" lon="4.66702">
        <ele>345.818362</ele>
        <time>2021-04-24T08:09:31.509Z</time>
      </trkpt>
      <trkpt lat="45.81964" lon="4.66696">
        <ele>345.917692</ele>
        <time>2021-04-24T08:09:33.505Z</time>
      </trkpt>
      <trkpt lat="45.81955" lon="4.66691">
        <ele>346.022676</ele>
        <time>2021-04-24T08:09:35.506Z</time>
      </trkpt>
      <trkpt lat="45.81945" lon="4.66682">
        <ele>346.317202</ele>
        <time>2021-04-24T08:09:38.521Z</time>
      </trkpt>
      <trkpt lat="45.81937" lon="4.66676">
        <ele>346.560999</ele>
        <time>2021-04-24T08:09:40.509Z</time>
      </trkpt>
      <trkpt lat="45.81928" lon="4.66669">
        <ele>346.802639</ele>
        <time>2021-04-24T08:09:42.511Z</time>
      </trkpt>
      <trkpt lat="45.81919" lon="4.66657">
        <ele>347.131915</ele>
        <time>2021-04-24T08:09:45.533Z</time>
      </trkpt>
      <trkpt lat="45.81907" lon="4.66649">
        <ele>347.478022</ele>
        <time>2021-04-24T08:09:48.509Z</time>
      </trkpt>
      <trkpt lat="45.81895" lon="4.66639">
        <ele>347.833569</ele>
        <time>2021-04-24T08:09:51.506Z</time>
      </trkpt>
      <trkpt lat="45.81884" lon="4.6663">
        <ele>348.172148</ele>
        <time>2021-04-24T08:09:54.507Z</time>
      </trkpt>
      <trkpt lat="45.81873" lon="4.66621">
        <ele>348.50301</ele>
        <time>2021-04-24T08:09:57.531Z</time>
      </trkpt>
      <trkpt lat="45.8186" lon="4.66614">
        <ele>348.849499</ele>
        <time>2021-04-24T08:10:00.507Z</time>
      </trkpt>
      <trkpt lat="45.81849" lon="4.66604">
        <ele>349.185868</ele>
        <time>2021-04-24T08:10:03.536Z</time>
      </trkpt>
      <trkpt lat="45.81841" lon="4.66598">
        <ele>349.422682</ele>
        <time>2021-04-24T08:10:05.517Z</time>
      </trkpt>
      <trkpt lat="45.81834" lon="4.6659">
        <ele>349.661488</ele>
        <time>2021-04-24T08:10:07.511Z</time>
      </trkpt>
      <trkpt lat="45.81823" lon="4.66581">
        <ele>350.001792</ele>
        <time>2021-04-24T08:10:10.506Z</time>
      </trkpt>
      <trkpt lat="45.81815" lon="4.66574">
        <ele>350.236121</ele>
        <time>2021-04-24T08:10:12.502Z</time>
      </trkpt>
      <trkpt lat="45.81807" lon="4.66566">
        <ele>350.484151</ele>
        <time>2021-04-24T08:10:14.516Z</time>
      </trkpt>
      <trkpt lat="45.818" lon="4.66559">
        <ele>350.725879</ele>
        <time>2021-04-24T08:10:16.495Z</time>
      </trkpt>
      <trkpt lat="45.81792" lon="4.66551">
        <ele>351.277629</ele>
        <time>2021-04-24T08:10:18.509Z</time>
      </trkpt>
      <trkpt lat="45.81783" lon="4.66545">
        <ele>351.816161</ele>
        <time>2021-04-24T08:10:20.513Z</time>
      </trkpt>
      <trkpt lat="45.81774" lon="4.6654">
        <ele>352.391924</ele>
        <time>2021-04-24T08:10:22.517Z</time>
      </trkpt>
      <trkpt lat="45.81762" lon="4.6653">
        <ele>353.153673</ele>
        <time>2021-04-24T08:10:25.522Z</time>
      </trkpt>
      <trkpt lat="45.81754" lon="4.66524">
        <ele>353.673362</ele>
        <time>2021-04-24T08:10:27.525Z</time>
      </trkpt>
      <trkpt lat="45.81746" lon="4.66517">
        <ele>354.2027</ele>
        <time>2021-04-24T08:10:29.519Z</time>
      </trkpt>
      <trkpt lat="45.81736" lon="4.66505">
        <ele>354.945904</ele>
        <time>2021-04-24T08:10:32.530Z</time>
      </trkpt>
      <trkpt lat="45.81732" lon="4.66492">
        <ele>355.510486</ele>
        <time>2021-04-24T08:10:34.519Z</time>
      </trkpt>
      <trkpt lat="45.81721" lon="4.66483">
        <ele>356.247325</ele>
        <time>2021-04-24T08:10:37.516Z</time>
      </trkpt>
      <trkpt lat="45.8171" lon="4.66482">
        <ele>356.846262</ele>
        <time>2021-04-24T08:10:39.514Z</time>
      </trkpt>
      <trkpt lat="45.817" lon="4.6648">
        <ele>357.418662</ele>
        <time>2021-04-24T08:10:41.509Z</time>
      </trkpt>
      <trkpt lat="45.81692" lon="4.66475">
        <ele>357.950055</ele>
        <time>2021-04-24T08:10:43.494Z</time>
      </trkpt>
      <trkpt lat="45.81684" lon="4.66468">
        <ele>358.479396</ele>
        <time>2021-04-24T08:10:45.506Z</time>
      </trkpt>
      <trkpt lat="45.81671" lon="4.66458">
        <ele>359.286469</ele>
        <time>2021-04-24T08:10:48.493Z</time>
      </trkpt>
      <trkpt lat="45.81663" lon="4.66452">
        <ele>359.831891</ele>
        <time>2021-04-24T08:10:50.511Z</time>
      </trkpt>
      <trkpt lat="45.81654" lon="4.66446">
        <ele>360.420049</ele>
        <time>2021-04-24T08:10:52.497Z</time>
      </trkpt>
      <trkpt lat="45.81645" lon="4.66439">
        <ele>360.991431</ele>
        <time>2021-04-24T08:10:54.513Z</time>
      </trkpt>
      <trkpt lat="45.81636" lon="4.66432">
        <ele>361.405056</ele>
        <time>2021-04-24T08:10:56.514Z</time>
      </trkpt>
      <trkpt lat="45.81627" lon="4.66427">
        <ele>361.815704</ele>
        <time>2021-04-24T08:10:58.511Z</time>
      </trkpt>
      <trkpt lat="45.81619" lon="4.6642">
        <ele>362.203947</ele>
        <time>2021-04-24T08:11:00.506Z</time>
      </trkpt>
      <trkpt lat="45.81608" lon="4.6641">
        <ele>362.741604</ele>
        <time>2021-04-24T08:11:03.523Z</time>
      </trkpt>
      <trkpt lat="45.81601" lon="4.66402">
        <ele>363.130483</ele>
        <time>2021-04-24T08:11:05.507Z</time>
      </trkpt>
      <trkpt lat="45.81591" lon="4.66399">
        <ele>363.552392</ele>
        <time>2021-04-24T08:11:07.520Z</time>
      </trkpt>
      <trkpt lat="45.81583" lon="4.66392">
        <ele>363.948821</ele>
        <time>2021-04-24T08:11:09.512Z</time>
      </trkpt>
      <trkpt lat="45.81575" lon="4.66386">
        <ele>364.342721</ele>
        <time>2021-04-24T08:11:11.493Z</time>
      </trkpt>
      <trkpt lat="45.81566" lon="4.6638">
        <ele>364.741683</ele>
        <time>2021-04-24T08:11:13.504Z</time>
      </trkpt>
      <trkpt lat="45.81553" lon="4.6637">
        <ele>365.370421</ele>
        <time>2021-04-24T08:11:16.518Z</time>
      </trkpt>
      <trkpt lat="45.81545" lon="4.66362">
        <ele>365.78494</ele>
        <time>2021-04-24T08:11:18.526Z</time>
      </trkpt>
      <trkpt lat="45.81537" lon="4.66354">
        <ele>366.172708</ele>
        <time>2021-04-24T08:11:20.521Z</time>
      </trkpt>
      <trkpt lat="45.81525" lon="4.66347">
        <ele>366.713723</ele>
        <time>2021-04-24T08:11:23.502Z</time>
      </trkpt>
      <trkpt lat="45.81514" lon="4.66338">
        <ele>367.2526</ele>
        <time>2021-04-24T08:11:26.514Z</time>
      </trkpt>
      <trkpt lat="45.81503" lon="4.66329">
        <ele>367.784957</ele>
        <time>2021-04-24T08:11:29.499Z</time>
      </trkpt>
      <trkpt lat="45.81493" lon="4.66319">
        <ele>368.310246</ele>
        <time>2021-04-24T08:11:32.497Z</time>
      </trkpt>
      <trkpt lat="45.81481" lon="4.66312">
        <ele>368.874127</ele>
        <time>2021-04-24T08:11:35.512Z</time>
      </trkpt>
      <trkpt lat="45.81469" lon="4.66306">
        <ele>369.447164</ele>
        <time>2021-04-24T08:11:38.521Z</time>
      </trkpt>
      <trkpt lat="45.81456" lon="4.66301">
        <ele>370.051347</ele>
        <time>2021-04-24T08:11:41.525Z</time>
      </trkpt>
      <trkpt lat="45.81448" lon="4.66299">
        <ele>370.467987</ele>
        <time>2021-04-24T08:11:43.521Z</time>
      </trkpt>
      <trkpt lat="45.81438" lon="4.66297">
        <ele>370.891946</ele>
        <time>2021-04-24T08:11:45.516Z</time>
      </trkpt>
      <trkpt lat="45.81429" lon="4.66295">
        <ele>371.318963</ele>
        <time>2021-04-24T08:11:47.516Z</time>
      </trkpt>
      <trkpt lat="45.81418" lon="4.66294">
        <ele>371.819815</ele>
        <time>2021-04-24T08:11:49.509Z</time>
      </trkpt>
      <trkpt lat="45.81409" lon="4.66293">
        <ele>372.25013</ele>
        <time>2021-04-24T08:11:51.524Z</time>
      </trkpt>
      <trkpt lat="45.81399" lon="4.66293">
        <ele>372.691178</ele>
        <time>2021-04-24T08:11:53.516Z</time>
      </trkpt>
      <trkpt lat="45.81387" lon="4.66289">
        <ele>373.281405</ele>
        <time>2021-04-24T08:11:56.512Z</time>
      </trkpt>
      <trkpt lat="45.81377" lon="4.66289">
        <ele>373.731641</ele>
        <time>2021-04-24T08:11:58.562Z</time>
      </trkpt>
      <trkpt lat="45.81367" lon="4.6629">
        <ele>374.179521</ele>
        <time>2021-04-24T08:12:00.521Z</time>
      </trkpt>
      <trkpt lat="45.81358" lon="4.66291">
        <ele>374.597783</ele>
        <time>2021-04-24T08:12:02.519Z</time>
      </trkpt>
      <trkpt lat="45.81345" lon="4.66292">
        <ele>375.201282</ele>
        <time>2021-04-24T08:12:05.519Z</time>
      </trkpt>
      <trkpt lat="45.81332" lon="4.66295">
        <ele>375.830427</ele>
        <time>2021-04-24T08:12:08.512Z</time>
      </trkpt>
      <trkpt lat="45.81322" lon="4.66301">
        <ele>376.320184</ele>
        <time>2021-04-24T08:12:10.549Z</time>
      </trkpt>
      <trkpt lat="45.81311" lon="4.66303">
        <ele>376.802209</ele>
        <time>2021-04-24T08:12:13.506Z</time>
      </trkpt>
      <trkpt lat="45.81299" lon="4.66309">
        <ele>377.311696</ele>
        <time>2021-04-24T08:12:16.520Z</time>
      </trkpt>
      <trkpt lat="45.81287" lon="4.66313">
        <ele>377.768885</ele>
        <time>2021-04-24T08:12:19.519Z</time>
      </trkpt>
      <trkpt lat="45.81275" lon="4.66317">
        <ele>378.23284</ele>
        <time>2021-04-24T08:12:22.577Z</time>
      </trkpt>
      <trkpt lat="45.81264" lon="4.66321">
        <ele>378.699913</ele>
        <time>2021-04-24T08:12:25.501Z</time>
      </trkpt>
      <trkpt lat="45.81251" lon="4.66324">
        <ele>379.175856</ele>
        <time>2021-04-24T08:12:28.517Z</time>
      </trkpt>
      <trkpt lat="45.81239" lon="4.66327">
        <ele>379.674027</ele>
        <time>2021-04-24T08:12:31.493Z</time>
      </trkpt>
      <trkpt lat="45.81226" lon="4.66331">
        <ele>380.172946</ele>
        <time>2021-04-24T08:12:34.520Z</time>
      </trkpt>
      <trkpt lat="45.81214" lon="4.66335">
        <ele>380.654492</ele>
        <time>2021-04-24T08:12:37.521Z</time>
      </trkpt>
      <trkpt lat="45.81201" lon="4.66338">
        <ele>381.135109</ele>
        <time>2021-04-24T08:12:40.519Z</time>
      </trkpt>
      <trkpt lat="45.8119" lon="4.66341">
        <ele>381.604161</ele>
        <time>2021-04-24T08:12:43.513Z</time>
      </trkpt>
      <trkpt lat="45.81178" lon="4.66345">
        <ele>382.078736</ele>
        <time>2021-04-24T08:12:46.513Z</time>
      </trkpt>
      <trkpt lat="45.81165" lon="4.66349">
        <ele>382.55423</ele>
        <time>2021-04-24T08:12:49.512Z</time>
      </trkpt>
      <trkpt lat="45.81153" lon="4.66352">
        <ele>383.034035</ele>
        <time>2021-04-24T08:12:52.512Z</time>
      </trkpt>
      <trkpt lat="45.81141" lon="4.66356">
        <ele>383.508496</ele>
        <time>2021-04-24T08:12:55.507Z</time>
      </trkpt>
      <trkpt lat="45.81129" lon="4.66359">
        <ele>384.255089</ele>
        <time>2021-04-24T08:12:58.517Z</time>
      </trkpt>
      <trkpt lat="45.81118" lon="4.66362">
        <ele>385.196608</ele>
        <time>2021-04-24T08:13:01.511Z</time>
      </trkpt>
      <trkpt lat="45.81106" lon="4.66366">
        <ele>386.149796</ele>
        <time>2021-04-24T08:13:04.493Z</time>
      </trkpt>
      <trkpt lat="45.81094" lon="4.66369">
        <ele>387.06807</ele>
        <time>2021-04-24T08:13:07.490Z</time>
      </trkpt>
      <trkpt lat="45.81083" lon="4.66372">
        <ele>387.969538</ele>
        <time>2021-04-24T08:13:10.507Z</time>
      </trkpt>
      <trkpt lat="45.81072" lon="4.66376">
        <ele>388.87465</ele>
        <time>2021-04-24T08:13:13.510Z</time>
      </trkpt>
      <trkpt lat="45.81061" lon="4.6638">
        <ele>389.758128</ele>
        <time>2021-04-24T08:13:16.492Z</time>
      </trkpt>
      <trkpt lat="45.8105" lon="4.66383">
        <ele>390.608437</ele>
        <time>2021-04-24T08:13:19.503Z</time>
      </trkpt>
      <trkpt lat="45.8104" lon="4.66387">
        <ele>391.438608</ele>
        <time>2021-04-24T08:13:22.519Z</time>
      </trkpt>
      <trkpt lat="45.8103" lon="4.6639">
        <ele>392.266276</ele>
        <time>2021-04-24T08:13:25.511Z</time>
      </trkpt>
      <trkpt lat="45.8102" lon="4.66393">
        <ele>393.084047</ele>
        <time>2021-04-24T08:13:28.516Z</time>
      </trkpt>
      <trkpt lat="45.81009" lon="4.66397">
        <ele>393.939851</ele>
        <time>2021-04-24T08:13:31.497Z</time>
      </trkpt>
      <trkpt lat="45.80999" lon="4.664">
        <ele>394.751004</ele>
        <time>2021-04-24T08:13:34.525Z</time>
      </trkpt>
      <trkpt lat="45.8099" lon="4.66404">
        <ele>395.497917</ele>
        <time>2021-04-24T08:13:37.511Z</time>
      </trkpt>
      <trkpt lat="45.8098" lon="4.66407">
        <ele>396.254708</ele>
        <time>2021-04-24T08:13:40.495Z</time>
      </trkpt>
      <trkpt lat="45.8097" lon="4.6641">
        <ele>397.074681</ele>
        <time>2021-04-24T08:13:43.498Z</time>
      </trkpt>
      <trkpt lat="45.80959" lon="4.66412">
        <ele>397.930611</ele>
        <time>2021-04-24T08:13:46.510Z</time>
      </trkpt>
      <trkpt lat="45.80949" lon="4.66414">
        <ele>398.682803</ele>
        <time>2021-04-24T08:13:49.516Z</time>
      </trkpt>
      <trkpt lat="45.80939" lon="4.66417">
        <ele>399.446217</ele>
        <time>2021-04-24T08:13:52.510Z</time>
      </trkpt>
      <trkpt lat="45.80929" lon="4.6642">
        <ele>400.208765</ele>
        <time>2021-04-24T08:13:55.511Z</time>
      </trkpt>
      <trkpt lat="45.80918" lon="4.66423">
        <ele>401.004604</ele>
        <time>2021-04-24T08:13:58.496Z</time>
      </trkpt>
      <trkpt lat="45.80908" lon="4.66426">
        <ele>401.773896</ele>
        <time>2021-04-24T08:14:01.523Z</time>
      </trkpt>
      <trkpt lat="45.80897" lon="4.66429">
        <ele>402.534984</ele>
        <time>2021-04-24T08:14:04.501Z</time>
      </trkpt>
      <trkpt lat="45.80887" lon="4.66432">
        <ele>403.302187</ele>
        <time>2021-04-24T08:14:07.503Z</time>
      </trkpt>
      <trkpt lat="45.80877" lon="4.66435">
        <ele>404.081959</ele>
        <time>2021-04-24T08:14:10.525Z</time>
      </trkpt>
      <trkpt lat="45.80867" lon="4.66438">
        <ele>404.827714</ele>
        <time>2021-04-24T08:14:13.519Z</time>
      </trkpt>
      <trkpt lat="45.80857" lon="4.6644">
        <ele>405.519966</ele>
        <time>2021-04-24T08:14:16.552Z</time>
      </trkpt>
      <trkpt lat="45.80847" lon="4.66442">
        <ele>406.263542</ele>
        <time>2021-04-24T08:14:19.490Z</time>
      </trkpt>
      <trkpt lat="45.80838" lon="4.66443">
        <ele>406.960156</ele>
        <time>2021-04-24T08:14:22.510Z</time>
      </trkpt>
      <trkpt lat="45.80828" lon="4.66445">
        <ele>407.66756</ele>
        <time>2021-04-24T08:14:25.507Z</time>
      </trkpt>
      <trkpt lat="45.80818" lon="4.66447">
        <ele>408.415524</ele>
        <time>2021-04-24T08:14:28.497Z</time>
      </trkpt>
      <trkpt lat="45.80808" lon="4.66448">
        <ele>409.156221</ele>
        <time>2021-04-24T08:14:31.504Z</time>
      </trkpt>
      <trkpt lat="45.80798" lon="4.66448">
        <ele>409.908154</ele>
        <time>2021-04-24T08:14:34.523Z</time>
      </trkpt>
      <trkpt lat="45.80787" lon="4.6645">
        <ele>410.684739</ele>
        <time>2021-04-24T08:14:37.516Z</time>
      </trkpt>
      <trkpt lat="45.80776" lon="4.6645">
        <ele>411.310973</ele>
        <time>2021-04-24T08:14:40.504Z</time>
      </trkpt>
      <trkpt lat="45.80766" lon="4.66451">
        <ele>411.777522</ele>
        <time>2021-04-24T08:14:43.517Z</time>
      </trkpt>
      <trkpt lat="45.80756" lon="4.66451">
        <ele>412.220943</ele>
        <time>2021-04-24T08:14:46.533Z</time>
      </trkpt>
      <trkpt lat="45.80747" lon="4.66451">
        <ele>412.655127</ele>
        <time>2021-04-24T08:14:49.517Z</time>
      </trkpt>
      <trkpt lat="45.80737" lon="4.66451">
        <ele>413.117057</ele>
        <time>2021-04-24T08:14:52.513Z</time>
      </trkpt>
      <trkpt lat="45.80726" lon="4.66451">
        <ele>413.593191</ele>
        <time>2021-04-24T08:14:55.507Z</time>
      </trkpt>
      <trkpt lat="45.80716" lon="4.66451">
        <ele>414.064325</ele>
        <time>2021-04-24T08:14:58.518Z</time>
      </trkpt>
      <trkpt lat="45.80706" lon="4.66452">
        <ele>414.545074</ele>
        <time>2021-04-24T08:15:01.504Z</time>
      </trkpt>
      <trkpt lat="45.80695" lon="4.66453">
        <ele>415.037049</ele>
        <time>2021-04-24T08:15:04.513Z</time>
      </trkpt>
      <trkpt lat="45.80685" lon="4.66454">
        <ele>415.523096</ele>
        <time>2021-04-24T08:15:07.525Z</time>
      </trkpt>
      <trkpt lat="45.80675" lon="4.6645">
        <ele>416.00375</ele>
        <time>2021-04-24T08:15:10.502Z</time>
      </trkpt>
      <trkpt lat="45.80665" lon="4.66443">
        <ele>416.492937</ele>
        <time>2021-04-24T08:15:13.555Z</time>
      </trkpt>
      <trkpt lat="45.80654" lon="4.66448">
        <ele>417.019578</ele>
        <time>2021-04-24T08:15:16.504Z</time>
      </trkpt>
      <trkpt lat="45.80647" lon="4.66455">
        <ele>417.436736</ele>
        <time>2021-04-24T08:15:18.507Z</time>
      </trkpt>
      <trkpt lat="45.80634" lon="4.6646">
        <ele>418.019241</ele>
        <time>2021-04-24T08:15:21.529Z</time>
      </trkpt>
      <trkpt lat="45.80624" lon="4.66459">
        <ele>418.51983</ele>
        <time>2021-04-24T08:15:24.526Z</time>
      </trkpt>
      <trkpt lat="45.80612" lon="4.66458">
        <ele>419.057249</ele>
        <time>2021-04-24T08:15:27.507Z</time>
      </trkpt>
      <trkpt lat="45.806" lon="4.66458">
        <ele>419.627343</ele>
        <time>2021-04-24T08:15:30.521Z</time>
      </trkpt>
      <trkpt lat="45.80588" lon="4.66459">
        <ele>420.178725</ele>
        <time>2021-04-24T08:15:33.509Z</time>
      </trkpt>
      <trkpt lat="45.80576" lon="4.6646">
        <ele>420.73586</ele>
        <time>2021-04-24T08:15:36.513Z</time>
      </trkpt>
      <trkpt lat="45.80565" lon="4.6646">
        <ele>421.272921</ele>
        <time>2021-04-24T08:15:39.507Z</time>
      </trkpt>
      <trkpt lat="45.80554" lon="4.66461">
        <ele>421.810073</ele>
        <time>2021-04-24T08:15:42.538Z</time>
      </trkpt>
      <trkpt lat="45.80542" lon="4.66461">
        <ele>422.347336</ele>
        <time>2021-04-24T08:15:45.516Z</time>
      </trkpt>
      <trkpt lat="45.80531" lon="4.66461">
        <ele>422.874858</ele>
        <time>2021-04-24T08:15:48.510Z</time>
      </trkpt>
      <trkpt lat="45.8052" lon="4.66459">
        <ele>423.400601</ele>
        <time>2021-04-24T08:15:51.529Z</time>
      </trkpt>
      <trkpt lat="45.80509" lon="4.66455">
        <ele>423.955635</ele>
        <time>2021-04-24T08:15:54.517Z</time>
      </trkpt>
      <trkpt lat="45.80498" lon="4.66448">
        <ele>424.506669</ele>
        <time>2021-04-24T08:15:57.523Z</time>
      </trkpt>
      <trkpt lat="45.80486" lon="4.66443">
        <ele>425.078635</ele>
        <time>2021-04-24T08:16:00.506Z</time>
      </trkpt>
      <trkpt lat="45.80474" lon="4.66437">
        <ele>425.672947</ele>
        <time>2021-04-24T08:16:03.507Z</time>
      </trkpt>
      <trkpt lat="45.80462" lon="4.66432">
        <ele>426.262783</ele>
        <time>2021-04-24T08:16:06.517Z</time>
      </trkpt>
      <trkpt lat="45.80451" lon="4.66426">
        <ele>426.840635</ele>
        <time>2021-04-24T08:16:09.524Z</time>
      </trkpt>
      <trkpt lat="45.80439" lon="4.66421">
        <ele>427.422576</ele>
        <time>2021-04-24T08:16:12.520Z</time>
      </trkpt>
      <trkpt lat="45.80427" lon="4.66415">
        <ele>428.011184</ele>
        <time>2021-04-24T08:16:15.511Z</time>
      </trkpt>
      <trkpt lat="45.80416" lon="4.66408">
        <ele>428.628494</ele>
        <time>2021-04-24T08:16:18.515Z</time>
      </trkpt>
      <trkpt lat="45.80406" lon="4.66398">
        <ele>429.250073</ele>
        <time>2021-04-24T08:16:21.523Z</time>
      </trkpt>
      <trkpt lat="45.80397" lon="4.66386">
        <ele>429.850208</ele>
        <time>2021-04-24T08:16:24.502Z</time>
      </trkpt>
      <trkpt lat="45.8039" lon="4.66373">
        <ele>430.450656</ele>
        <time>2021-04-24T08:16:27.500Z</time>
      </trkpt>
      <trkpt lat="45.80385" lon="4.66358">
        <ele>431.034614</ele>
        <time>2021-04-24T08:16:30.519Z</time>
      </trkpt>
      <trkpt lat="45.8038" lon="4.66343">
        <ele>431.619053</ele>
        <time>2021-04-24T08:16:33.491Z</time>
      </trkpt>
      <trkpt lat="45.80378" lon="4.66327">
        <ele>432.201017</ele>
        <time>2021-04-24T08:16:36.506Z</time>
      </trkpt>
      <trkpt lat="45.80376" lon="4.66311">
        <ele>432.75517</ele>
        <time>2021-04-24T08:16:39.495Z</time>
      </trkpt>
      <trkpt lat="45.80375" lon="4.66295">
        <ele>433.307944</ele>
        <time>2021-04-24T08:16:42.508Z</time>
      </trkpt>
      <trkpt lat="45.80374" lon="4.6628">
        <ele>433.854567</ele>
        <time>2021-04-24T08:16:45.505Z</time>
      </trkpt>
      <trkpt lat="45.80373" lon="4.66263">
        <ele>434.432716</ele>
        <time>2021-04-24T08:16:48.501Z</time>
      </trkpt>
      <trkpt lat="45.8037" lon="4.66248">
        <ele>434.991842</ele>
        <time>2021-04-24T08:16:51.505Z</time>
      </trkpt>
      <trkpt lat="45.80367" lon="4.66233">
        <ele>435.544612</ele>
        <time>2021-04-24T08:16:54.515Z</time>
      </trkpt>
      <trkpt lat="45.80362" lon="4.66219">
        <ele>436.093952</ele>
        <time>2021-04-24T08:16:57.520Z</time>
      </trkpt>
      <trkpt lat="45.80356" lon="4.66205">
        <ele>436.648637</ele>
        <time>2021-04-24T08:17:00.518Z</time>
      </trkpt>
      <trkpt lat="45.8035" lon="4.66193">
        <ele>437.273016</ele>
        <time>2021-04-24T08:17:03.510Z</time>
      </trkpt>
      <trkpt lat="45.80343" lon="4.66181">
        <ele>437.901002</ele>
        <time>2021-04-24T08:17:06.553Z</time>
      </trkpt>
      <trkpt lat="45.80336" lon="4.66169">
        <ele>438.515715</ele>
        <time>2021-04-24T08:17:09.507Z</time>
      </trkpt>
      <trkpt lat="45.80329" lon="4.66159">
        <ele>439.113005</ele>
        <time>2021-04-24T08:17:12.512Z</time>
      </trkpt>
      <trkpt lat="45.80322" lon="4.66151">
        <ele>439.66588</ele>
        <time>2021-04-24T08:17:15.503Z</time>
      </trkpt>
      <trkpt lat="45.80314" lon="4.66142">
        <ele>440.215794</ele>
        <time>2021-04-24T08:17:18.572Z</time>
      </trkpt>
      <trkpt lat="45.80307" lon="4.66133">
        <ele>440.803336</ele>
        <time>2021-04-24T08:17:21.506Z</time>
      </trkpt>
      <trkpt lat="45.80298" lon="4.66125">
        <ele>441.430258</ele>
        <time>2021-04-24T08:17:24.518Z</time>
      </trkpt>
      <trkpt lat="45.8029" lon="4.66115">
        <ele>442.048427</ele>
        <time>2021-04-24T08:17:27.502Z</time>
      </trkpt>
      <trkpt lat="45.80281" lon="4.66106">
        <ele>442.668173</ele>
        <time>2021-04-24T08:17:30.519Z</time>
      </trkpt>
      <trkpt lat="45.80272" lon="4.66098">
        <ele>443.307313</ele>
        <time>2021-04-24T08:17:33.508Z</time>
      </trkpt>
      <trkpt lat="45.80263" lon="4.66088">
        <ele>443.979794</ele>
        <time>2021-04-24T08:17:36.508Z</time>
      </trkpt>
      <trkpt lat="45.80254" lon="4.66079">
        <ele>444.652206</ele>
        <time>2021-04-24T08:17:39.500Z</time>
      </trkpt>
      <trkpt lat="45.80245" lon="4.66069">
        <ele>445.299033</ele>
        <time>2021-04-24T08:17:42.501Z</time>
      </trkpt>
      <trkpt lat="45.80238" lon="4.66057">
        <ele>445.941552</ele>
        <time>2021-04-24T08:17:45.516Z</time>
      </trkpt>
      <trkpt lat="45.80231" lon="4.66045">
        <ele>446.568395</ele>
        <time>2021-04-24T08:17:48.504Z</time>
      </trkpt>
      <trkpt lat="45.80226" lon="4.66033">
        <ele>447.152418</ele>
        <time>2021-04-24T08:17:51.524Z</time>
      </trkpt>
      <trkpt lat="45.80221" lon="4.6602">
        <ele>447.74497</ele>
        <time>2021-04-24T08:17:54.508Z</time>
      </trkpt>
      <trkpt lat="45.80216" lon="4.66007">
        <ele>448.253739</ele>
        <time>2021-04-24T08:17:57.515Z</time>
      </trkpt>
      <trkpt lat="45.80211" lon="4.65995">
        <ele>448.767449</ele>
        <time>2021-04-24T08:18:00.517Z</time>
      </trkpt>
      <trkpt lat="45.80205" lon="4.65984">
        <ele>449.298992</ele>
        <time>2021-04-24T08:18:03.509Z</time>
      </trkpt>
      <trkpt lat="45.80198" lon="4.65972">
        <ele>449.856137</ele>
        <time>2021-04-24T08:18:06.525Z</time>
      </trkpt>
      <trkpt lat="45.80187" lon="4.65964">
        <ele>450.462003</ele>
        <time>2021-04-24T08:18:09.519Z</time>
      </trkpt>
      <trkpt lat="45.80176" lon="4.65959">
        <ele>451.093707</ele>
        <time>2021-04-24T08:18:12.512Z</time>
      </trkpt>
      <trkpt lat="45.80163" lon="4.6596">
        <ele>451.774561</ele>
        <time>2021-04-24T08:18:15.517Z</time>
      </trkpt>
      <trkpt lat="45.8015" lon="4.65966">
        <ele>452.471467</ele>
        <time>2021-04-24T08:18:18.508Z</time>
      </trkpt>
      <trkpt lat="45.8014" lon="4.65978">
        <ele>453.166492</ele>
        <time>2021-04-24T08:18:21.513Z</time>
      </trkpt>
      <trkpt lat="45.80132" lon="4.65993">
        <ele>453.832554</ele>
        <time>2021-04-24T08:18:24.523Z</time>
      </trkpt>
      <trkpt lat="45.80126" lon="4.66008">
        <ele>454.46771</ele>
        <time>2021-04-24T08:18:27.511Z</time>
      </trkpt>
      <trkpt lat="45.8012" lon="4.6602">
        <ele>455.002875</ele>
        <time>2021-04-24T08:18:30.506Z</time>
      </trkpt>
      <trkpt lat="45.80113" lon="4.66032">
        <ele>455.564604</ele>
        <time>2021-04-24T08:18:33.526Z</time>
      </trkpt>
      <trkpt lat="45.80106" lon="4.66045">
        <ele>456.162773</ele>
        <time>2021-04-24T08:18:36.517Z</time>
      </trkpt>
      <trkpt lat="45.80099" lon="4.66056">
        <ele>456.727976</ele>
        <time>2021-04-24T08:18:39.509Z</time>
      </trkpt>
      <trkpt lat="45.8009" lon="4.66065">
        <ele>457.369251</ele>
        <time>2021-04-24T08:18:42.518Z</time>
      </trkpt>
      <trkpt lat="45.80081" lon="4.66073">
        <ele>458.030925</ele>
        <time>2021-04-24T08:18:45.558Z</time>
      </trkpt>
      <trkpt lat="45.80071" lon="4.6608">
        <ele>458.704289</ele>
        <time>2021-04-24T08:18:48.511Z</time>
      </trkpt>
      <trkpt lat="45.8006" lon="4.66086">
        <ele>459.415717</ele>
        <time>2021-04-24T08:18:51.524Z</time>
      </trkpt>
      <trkpt lat="45.8005" lon="4.66088">
        <ele>460.082435</ele>
        <time>2021-04-24T08:18:54.503Z</time>
      </trkpt>
      <trkpt lat="45.80039" lon="4.66088">
        <ele>460.714038</ele>
        <time>2021-04-24T08:18:57.545Z</time>
      </trkpt>
      <trkpt lat="45.80029" lon="4.66087">
        <ele>461.364725</ele>
        <time>2021-04-24T08:19:00.521Z</time>
      </trkpt>
      <trkpt lat="45.80019" lon="4.66083">
        <ele>461.968457</ele>
        <time>2021-04-24T08:19:03.535Z</time>
      </trkpt>
      <trkpt lat="45.8001" lon="4.66077">
        <ele>462.569659</ele>
        <time>2021-04-24T08:19:06.513Z</time>
      </trkpt>
      <trkpt lat="45.80001" lon="4.6607">
        <ele>463.215087</ele>
        <time>2021-04-24T08:19:09.567Z</time>
      </trkpt>
      <trkpt lat="45.79992" lon="4.66062">
        <ele>463.84132</ele>
        <time>2021-04-24T08:19:12.517Z</time>
      </trkpt>
      <trkpt lat="45.79984" lon="4.66054">
        <ele>464.474562</ele>
        <time>2021-04-24T08:19:15.504Z</time>
      </trkpt>
      <trkpt lat="45.79976" lon="4.66047">
        <ele>465.06345</ele>
        <time>2021-04-24T08:19:18.503Z</time>
      </trkpt>
      <trkpt lat="45.79967" lon="4.6604">
        <ele>465.679801</ele>
        <time>2021-04-24T08:19:21.518Z</time>
      </trkpt>
      <trkpt lat="45.79957" lon="4.66036">
        <ele>466.290484</ele>
        <time>2021-04-24T08:19:24.512Z</time>
      </trkpt>
      <trkpt lat="45.79947" lon="4.6604">
        <ele>466.909774</ele>
        <time>2021-04-24T08:19:27.517Z</time>
      </trkpt>
      <trkpt lat="45.79939" lon="4.6605">
        <ele>467.575837</ele>
        <time>2021-04-24T08:19:30.553Z</time>
      </trkpt>
      <trkpt lat="45.79935" lon="4.66062">
        <ele>467.80909</ele>
        <time>2021-04-24T08:19:33.517Z</time>
      </trkpt>
      <trkpt lat="45.79932" lon="4.66075">
        <ele>467.75298</ele>
        <time>2021-04-24T08:19:36.536Z</time>
      </trkpt>
      <trkpt lat="45.79929" lon="4.66089">
        <ele>467.693995</ele>
        <time>2021-04-24T08:19:39.509Z</time>
      </trkpt>
      <trkpt lat="45.79925" lon="4.66102">
        <ele>467.637307</ele>
        <time>2021-04-24T08:19:42.560Z</time>
      </trkpt>
      <trkpt lat="45.7992" lon="4.66114">
        <ele>467.581421</ele>
        <time>2021-04-24T08:19:45.517Z</time>
      </trkpt>
      <trkpt lat="45.79913" lon="4.66124">
        <ele>467.528319</ele>
        <time>2021-04-24T08:19:48.535Z</time>
      </trkpt>
      <trkpt lat="45.79905" lon="4.66133">
        <ele>467.467386</ele>
        <time>2021-04-24T08:19:51.502Z</time>
      </trkpt>
      <trkpt lat="45.79896" lon="4.66141">
        <ele>467.405246</ele>
        <time>2021-04-24T08:19:54.565Z</time>
      </trkpt>
      <trkpt lat="45.79887" lon="4.6615">
        <ele>467.342703</ele>
        <time>2021-04-24T08:19:57.502Z</time>
      </trkpt>
      <trkpt lat="45.79878" lon="4.66158">
        <ele>467.282844</ele>
        <time>2021-04-24T08:20:00.509Z</time>
      </trkpt>
      <trkpt lat="45.79868" lon="4.66164">
        <ele>467.221748</ele>
        <time>2021-04-24T08:20:03.511Z</time>
      </trkpt>
      <trkpt lat="45.79858" lon="4.6617">
        <ele>467.161084</ele>
        <time>2021-04-24T08:20:06.507Z</time>
      </trkpt>
      <trkpt lat="45.79849" lon="4.66176">
        <ele>467.104577</ele>
        <time>2021-04-24T08:20:09.518Z</time>
      </trkpt>
      <trkpt lat="45.79842" lon="4.66183">
        <ele>467.052678</ele>
        <time>2021-04-24T08:20:12.502Z</time>
      </trkpt>
      <trkpt lat="45.79835" lon="4.66191">
        <ele>467.000265</ele>
        <time>2021-04-24T08:20:15.516Z</time>
      </trkpt>
      <trkpt lat="45.79826" lon="4.662">
        <ele>466.939348</ele>
        <time>2021-04-24T08:20:18.513Z</time>
      </trkpt>
      <trkpt lat="45.79817" lon="4.6621">
        <ele>466.872838</ele>
        <time>2021-04-24T08:20:21.502Z</time>
      </trkpt>
      <trkpt lat="45.79807" lon="4.66221">
        <ele>466.81061</ele>
        <time>2021-04-24T08:20:24.516Z</time>
      </trkpt>
      <trkpt lat="45.79797" lon="4.66233">
        <ele>466.835571</ele>
        <time>2021-04-24T08:20:27.505Z</time>
      </trkpt>
      <trkpt lat="45.79789" lon="4.66243">
        <ele>466.855102</ele>
        <time>2021-04-24T08:20:29.557Z</time>
      </trkpt>
      <trkpt lat="45.79781" lon="4.66255">
        <ele>466.877262</ele>
        <time>2021-04-24T08:20:32.503Z</time>
      </trkpt>
      <trkpt lat="45.79774" lon="4.66265">
        <ele>466.894647</ele>
        <time>2021-04-24T08:20:34.517Z</time>
      </trkpt>
      <trkpt lat="45.79762" lon="4.66278">
        <ele>466.923105</ele>
        <time>2021-04-24T08:20:37.507Z</time>
      </trkpt>
      <trkpt lat="45.79757" lon="4.66291">
        <ele>466.942118</ele>
        <time>2021-04-24T08:20:39.518Z</time>
      </trkpt>
      <trkpt lat="45.79749" lon="4.663">
        <ele>466.962468</ele>
        <time>2021-04-24T08:20:41.562Z</time>
      </trkpt>
      <trkpt lat="45.79742" lon="4.66312">
        <ele>466.982143</ele>
        <time>2021-04-24T08:20:44.506Z</time>
      </trkpt>
      <trkpt lat="45.79734" lon="4.66321">
        <ele>467.001825</ele>
        <time>2021-04-24T08:20:47.522Z</time>
      </trkpt>
      <trkpt lat="45.79726" lon="4.66329">
        <ele>467.020139</ele>
        <time>2021-04-24T08:20:49.508Z</time>
      </trkpt>
      <trkpt lat="45.79714" lon="4.66329">
        <ele>467.041397</ele>
        <time>2021-04-24T08:20:53.553Z</time>
      </trkpt>
      <trkpt lat="45.79701" lon="4.66327">
        <ele>467.066139</ele>
        <time>2021-04-24T08:20:56.519Z</time>
      </trkpt>
      <trkpt lat="45.79693" lon="4.6632">
        <ele>467.084156</ele>
        <time>2021-04-24T08:20:58.517Z</time>
      </trkpt>
      <trkpt lat="45.79684" lon="4.66318">
        <ele>467.102348</ele>
        <time>2021-04-24T08:21:00.536Z</time>
      </trkpt>
      <trkpt lat="45.79674" lon="4.66312">
        <ele>467.122493</ele>
        <time>2021-04-24T08:21:03.516Z</time>
      </trkpt>
      <trkpt lat="45.79659" lon="4.66317">
        <ele>467.201443</ele>
        <time>2021-04-24T08:21:06.521Z</time>
      </trkpt>
      <trkpt lat="45.79649" lon="4.66327">
        <ele>467.509892</ele>
        <time>2021-04-24T08:21:09.509Z</time>
      </trkpt>
      <trkpt lat="45.79645" lon="4.6634">
        <ele>467.756288</ele>
        <time>2021-04-24T08:21:11.500Z</time>
      </trkpt>
      <trkpt lat="45.79643" lon="4.66354">
        <ele>468.012386</ele>
        <time>2021-04-24T08:21:13.506Z</time>
      </trkpt>
      <trkpt lat="45.79643" lon="4.66369">
        <ele>468.275455</ele>
        <time>2021-04-24T08:21:15.519Z</time>
      </trkpt>
      <trkpt lat="45.79643" lon="4.66382">
        <ele>468.513629</ele>
        <time>2021-04-24T08:21:17.516Z</time>
      </trkpt>
      <trkpt lat="45.79641" lon="4.664">
        <ele>468.827353</ele>
        <time>2021-04-24T08:21:20.496Z</time>
      </trkpt>
      <trkpt lat="45.79636" lon="4.66417">
        <ele>469.156794</ele>
        <time>2021-04-24T08:21:23.511Z</time>
      </trkpt>
      <trkpt lat="45.79631" lon="4.66433">
        <ele>469.473103</ele>
        <time>2021-04-24T08:21:26.524Z</time>
      </trkpt>
      <trkpt lat="45.79623" lon="4.66445">
        <ele>469.742788</ele>
        <time>2021-04-24T08:21:29.526Z</time>
      </trkpt>
      <trkpt lat="45.79616" lon="4.66455">
        <ele>470.01176</ele>
        <time>2021-04-24T08:21:32.514Z</time>
      </trkpt>
      <trkpt lat="45.79605" lon="4.66466">
        <ele>470.332579</ele>
        <time>2021-04-24T08:21:35.509Z</time>
      </trkpt>
      <trkpt lat="45.79594" lon="4.66475">
        <ele>470.660256</ele>
        <time>2021-04-24T08:21:38.507Z</time>
      </trkpt>
      <trkpt lat="45.79582" lon="4.66482">
        <ele>470.985056</ele>
        <time>2021-04-24T08:21:41.506Z</time>
      </trkpt>
      <trkpt lat="45.79574" lon="4.66488">
        <ele>471.214958</ele>
        <time>2021-04-24T08:21:43.514Z</time>
      </trkpt>
      <trkpt lat="45.79562" lon="4.66499">
        <ele>471.583901</ele>
        <time>2021-04-24T08:21:46.506Z</time>
      </trkpt>
      <trkpt lat="45.79553" lon="4.66507">
        <ele>471.81261</ele>
        <time>2021-04-24T08:21:48.530Z</time>
      </trkpt>
      <trkpt lat="45.79545" lon="4.66517">
        <ele>472.016292</ele>
        <time>2021-04-24T08:21:50.522Z</time>
      </trkpt>
      <trkpt lat="45.79535" lon="4.66522">
        <ele>472.212735</ele>
        <time>2021-04-24T08:21:52.521Z</time>
      </trkpt>
      <trkpt lat="45.79526" lon="4.66524">
        <ele>472.386228</ele>
        <time>2021-04-24T08:21:54.512Z</time>
      </trkpt>
      <trkpt lat="45.79516" lon="4.66529">
        <ele>472.58902</ele>
        <time>2021-04-24T08:21:57.506Z</time>
      </trkpt>
      <trkpt lat="45.79508" lon="4.66537">
        <ele>472.767384</ele>
        <time>2021-04-24T08:21:59.509Z</time>
      </trkpt>
      <trkpt lat="45.795" lon="4.6655">
        <ele>473.003138</ele>
        <time>2021-04-24T08:22:02.511Z</time>
      </trkpt>
      <trkpt lat="45.79492" lon="4.66562">
        <ele>473.223873</ele>
        <time>2021-04-24T08:22:05.516Z</time>
      </trkpt>
      <trkpt lat="45.79483" lon="4.66572">
        <ele>473.446275</ele>
        <time>2021-04-24T08:22:08.512Z</time>
      </trkpt>
      <trkpt lat="45.79474" lon="4.66585">
        <ele>473.690347</ele>
        <time>2021-04-24T08:22:10.506Z</time>
      </trkpt>
      <trkpt lat="45.79468" lon="4.66597">
        <ele>473.878374</ele>
        <time>2021-04-24T08:22:12.515Z</time>
      </trkpt>
      <trkpt lat="45.79463" lon="4.6661">
        <ele>474.076632</ele>
        <time>2021-04-24T08:22:14.502Z</time>
      </trkpt>
      <trkpt lat="45.79457" lon="4.6663">
        <ele>474.367843</ele>
        <time>2021-04-24T08:22:17.509Z</time>
      </trkpt>
      <trkpt lat="45.79454" lon="4.66648">
        <ele>474.609819</ele>
        <time>2021-04-24T08:22:20.511Z</time>
      </trkpt>
      <trkpt lat="45.79454" lon="4.66665">
        <ele>474.842066</ele>
        <time>2021-04-24T08:22:23.492Z</time>
      </trkpt>
      <trkpt lat="45.79451" lon="4.66683">
        <ele>475.07698</ele>
        <time>2021-04-24T08:22:26.498Z</time>
      </trkpt>
      <trkpt lat="45.79449" lon="4.66702">
        <ele>475.245974</ele>
        <time>2021-04-24T08:22:29.510Z</time>
      </trkpt>
      <trkpt lat="45.7945" lon="4.66716">
        <ele>475.362639</ele>
        <time>2021-04-24T08:22:31.511Z</time>
      </trkpt>
      <trkpt lat="45.79449" lon="4.66729">
        <ele>475.466917</ele>
        <time>2021-04-24T08:22:33.500Z</time>
      </trkpt>
      <trkpt lat="45.79443" lon="4.66742">
        <ele>475.59086</ele>
        <time>2021-04-24T08:22:35.511Z</time>
      </trkpt>
      <trkpt lat="45.79434" lon="4.66755">
        <ele>475.733122</ele>
        <time>2021-04-24T08:22:38.510Z</time>
      </trkpt>
      <trkpt lat="45.79427" lon="4.66764">
        <ele>475.838322</ele>
        <time>2021-04-24T08:22:40.502Z</time>
      </trkpt>
      <trkpt lat="45.79419" lon="4.66769">
        <ele>475.941946</ele>
        <time>2021-04-24T08:22:42.541Z</time>
      </trkpt>
      <trkpt lat="45.79409" lon="4.66773">
        <ele>476.056512</ele>
        <time>2021-04-24T08:22:45.511Z</time>
      </trkpt>
      <trkpt lat="45.79398" lon="4.66774">
        <ele>476.186641</ele>
        <time>2021-04-24T08:22:48.526Z</time>
      </trkpt>
      <trkpt lat="45.79388" lon="4.66773">
        <ele>476.304853</ele>
        <time>2021-04-24T08:22:51.526Z</time>
      </trkpt>
      <trkpt lat="45.79376" lon="4.66776">
        <ele>476.443493</ele>
        <time>2021-04-24T08:22:53.491Z</time>
      </trkpt>
      <trkpt lat="45.79366" lon="4.66776">
        <ele>476.555873</ele>
        <time>2021-04-24T08:22:55.514Z</time>
      </trkpt>
      <trkpt lat="45.79354" lon="4.6677">
        <ele>476.699908</ele>
        <time>2021-04-24T08:22:58.525Z</time>
      </trkpt>
      <trkpt lat="45.79344" lon="4.66767">
        <ele>476.813626</ele>
        <time>2021-04-24T08:23:00.523Z</time>
      </trkpt>
      <trkpt lat="45.79334" lon="4.66759">
        <ele>476.94485</ele>
        <time>2021-04-24T08:23:02.508Z</time>
      </trkpt>
      <trkpt lat="45.79323" lon="4.66756">
        <ele>477.082941</ele>
        <time>2021-04-24T08:23:04.514Z</time>
      </trkpt>
      <trkpt lat="45.79308" lon="4.66753">
        <ele>477.303065</ele>
        <time>2021-04-24T08:23:06.554Z</time>
      </trkpt>
      <trkpt lat="45.79293" lon="4.66759">
        <ele>477.622411</ele>
        <time>2021-04-24T08:23:08.502Z</time>
      </trkpt>
      <trkpt lat="45.79281" lon="4.66771">
        <ele>477.934367</ele>
        <time>2021-04-24T08:23:10.519Z</time>
      </trkpt>
      <trkpt lat="45.79275" lon="4.66787">
        <ele>478.199747</ele>
        <time>2021-04-24T08:23:12.502Z</time>
      </trkpt>
      <trkpt lat="45.79272" lon="4.66805">
        <ele>478.463072</ele>
        <time>2021-04-24T08:23:14.517Z</time>
      </trkpt>
      <trkpt lat="45.79269" lon="4.66825">
        <ele>478.758215</ele>
        <time>2021-04-24T08:23:16.507Z</time>
      </trkpt>
      <trkpt lat="45.79264" lon="4.66844">
        <ele>479.051148</ele>
        <time>2021-04-24T08:23:18.508Z</time>
      </trkpt>
      <trkpt lat="45.7926" lon="4.66863">
        <ele>479.338902</ele>
        <time>2021-04-24T08:23:20.507Z</time>
      </trkpt>
      <trkpt lat="45.79258" lon="4.66879">
        <ele>479.578074</ele>
        <time>2021-04-24T08:23:22.524Z</time>
      </trkpt>
      <trkpt lat="45.79253" lon="4.66897">
        <ele>479.852102</ele>
        <time>2021-04-24T08:23:24.511Z</time>
      </trkpt>
      <trkpt lat="45.79246" lon="4.66913">
        <ele>480.130639</ele>
        <time>2021-04-24T08:23:26.515Z</time>
      </trkpt>
      <trkpt lat="45.79235" lon="4.66927">
        <ele>480.432473</ele>
        <time>2021-04-24T08:23:28.516Z</time>
      </trkpt>
      <trkpt lat="45.79224" lon="4.66938">
        <ele>480.71176</ele>
        <time>2021-04-24T08:23:30.516Z</time>
      </trkpt>
      <trkpt lat="45.79212" lon="4.66947">
        <ele>480.838323</ele>
        <time>2021-04-24T08:23:32.508Z</time>
      </trkpt>
      <trkpt lat="45.792" lon="4.66956">
        <ele>480.655016</ele>
        <time>2021-04-24T08:23:34.507Z</time>
      </trkpt>
      <trkpt lat="45.79186" lon="4.6696">
        <ele>480.464891</ele>
        <time>2021-04-24T08:23:36.504Z</time>
      </trkpt>
      <trkpt lat="45.79172" lon="4.66965">
        <ele>480.267716</ele>
        <time>2021-04-24T08:23:38.504Z</time>
      </trkpt>
      <trkpt lat="45.79158" lon="4.66969">
        <ele>480.066095</ele>
        <time>2021-04-24T08:23:40.505Z</time>
      </trkpt>
      <trkpt lat="45.79144" lon="4.6697">
        <ele>479.876013</ele>
        <time>2021-04-24T08:23:42.500Z</time>
      </trkpt>
      <trkpt lat="45.79129" lon="4.66971">
        <ele>479.676297</ele>
        <time>2021-04-24T08:23:44.520Z</time>
      </trkpt>
      <trkpt lat="45.79116" lon="4.66968">
        <ele>479.494844</ele>
        <time>2021-04-24T08:23:46.522Z</time>
      </trkpt>
      <trkpt lat="45.79104" lon="4.6696">
        <ele>479.309871</ele>
        <time>2021-04-24T08:23:48.516Z</time>
      </trkpt>
      <trkpt lat="45.79093" lon="4.6695">
        <ele>479.128903</ele>
        <time>2021-04-24T08:23:50.503Z</time>
      </trkpt>
      <trkpt lat="45.79082" lon="4.66938">
        <ele>478.943618</ele>
        <time>2021-04-24T08:23:52.509Z</time>
      </trkpt>
      <trkpt lat="45.79073" lon="4.66924">
        <ele>478.759355</ele>
        <time>2021-04-24T08:23:54.504Z</time>
      </trkpt>
      <trkpt lat="45.79063" lon="4.66911">
        <ele>478.575374</ele>
        <time>2021-04-24T08:23:56.504Z</time>
      </trkpt>
      <trkpt lat="45.79052" lon="4.66899">
        <ele>477.923948</ele>
        <time>2021-04-24T08:23:58.531Z</time>
      </trkpt>
      <trkpt lat="45.79043" lon="4.66888">
        <ele>476.209051</ele>
        <time>2021-04-24T08:24:00.500Z</time>
      </trkpt>
      <trkpt lat="45.79033" lon="4.66876">
        <ele>474.325361</ele>
        <time>2021-04-24T08:24:02.506Z</time>
      </trkpt>
      <trkpt lat="45.79023" lon="4.66865">
        <ele>472.464703</ele>
        <time>2021-04-24T08:24:04.511Z</time>
      </trkpt>
      <trkpt lat="45.79013" lon="4.66856">
        <ele>470.7607</ele>
        <time>2021-04-24T08:24:06.504Z</time>
      </trkpt>
      <trkpt lat="45.79002" lon="4.66847">
        <ele>468.908107</ele>
        <time>2021-04-24T08:24:08.509Z</time>
      </trkpt>
      <trkpt lat="45.78987" lon="4.66848">
        <ele>466.754692</ele>
        <time>2021-04-24T08:24:10.524Z</time>
      </trkpt>
      <trkpt lat="45.78974" lon="4.66851">
        <ele>464.866984</ele>
        <time>2021-04-24T08:24:12.497Z</time>
      </trkpt>
      <trkpt lat="45.78962" lon="4.66866">
        <ele>462.55841</ele>
        <time>2021-04-24T08:24:14.504Z</time>
      </trkpt>
      <trkpt lat="45.78955" lon="4.66886">
        <ele>460.291336</ele>
        <time>2021-04-24T08:24:16.501Z</time>
      </trkpt>
      <trkpt lat="45.78947" lon="4.66903">
        <ele>458.232604</ele>
        <time>2021-04-24T08:24:18.524Z</time>
      </trkpt>
      <trkpt lat="45.78937" lon="4.66919">
        <ele>456.130266</ele>
        <time>2021-04-24T08:24:20.524Z</time>
      </trkpt>
      <trkpt lat="45.78923" lon="4.66926">
        <ele>453.987663</ele>
        <time>2021-04-24T08:24:22.508Z</time>
      </trkpt>
      <trkpt lat="45.78911" lon="4.66928">
        <ele>452.630159</ele>
        <time>2021-04-24T08:24:24.499Z</time>
      </trkpt>
      <trkpt lat="45.78897" lon="4.66927">
        <ele>453.683815</ele>
        <time>2021-04-24T08:24:26.505Z</time>
      </trkpt>
      <trkpt lat="45.78883" lon="4.66922">
        <ele>454.812121</ele>
        <time>2021-04-24T08:24:28.503Z</time>
      </trkpt>
      <trkpt lat="45.7887" lon="4.66913">
        <ele>455.904894</ele>
        <time>2021-04-24T08:24:30.502Z</time>
      </trkpt>
      <trkpt lat="45.78859" lon="4.66902">
        <ele>456.992681</ele>
        <time>2021-04-24T08:24:32.503Z</time>
      </trkpt>
      <trkpt lat="45.78848" lon="4.66887">
        <ele>458.124708</ele>
        <time>2021-04-24T08:24:34.506Z</time>
      </trkpt>
      <trkpt lat="45.78838" lon="4.66873">
        <ele>459.234435</ele>
        <time>2021-04-24T08:24:36.514Z</time>
      </trkpt>
      <trkpt lat="45.78827" lon="4.66856">
        <ele>460.41662</ele>
        <time>2021-04-24T08:24:38.519Z</time>
      </trkpt>
      <trkpt lat="45.78818" lon="4.6684">
        <ele>461.513455</ele>
        <time>2021-04-24T08:24:40.531Z</time>
      </trkpt>
      <trkpt lat="45.78809" lon="4.66826">
        <ele>462.558895</ele>
        <time>2021-04-24T08:24:42.512Z</time>
      </trkpt>
      <trkpt lat="45.78802" lon="4.66813">
        <ele>463.497137</ele>
        <time>2021-04-24T08:24:44.550Z</time>
      </trkpt>
      <trkpt lat="45.78791" lon="4.66799">
        <ele>464.580175</ele>
        <time>2021-04-24T08:24:46.511Z</time>
      </trkpt>
      <trkpt lat="45.78782" lon="4.66784">
        <ele>465.689304</ele>
        <time>2021-04-24T08:24:48.503Z</time>
      </trkpt>
      <trkpt lat="45.78773" lon="4.6677">
        <ele>466.208036</ele>
        <time>2021-04-24T08:24:50.543Z</time>
      </trkpt>
      <trkpt lat="45.78761" lon="4.66761">
        <ele>465.831651</ele>
        <time>2021-04-24T08:24:52.500Z</time>
      </trkpt>
      <trkpt lat="45.78747" lon="4.66757">
        <ele>465.416628</ele>
        <time>2021-04-24T08:24:54.502Z</time>
      </trkpt>
      <trkpt lat="45.78732" lon="4.66754">
        <ele>465.020655</ele>
        <time>2021-04-24T08:24:56.544Z</time>
      </trkpt>
      <trkpt lat="45.78719" lon="4.6676">
        <ele>464.627349</ele>
        <time>2021-04-24T08:24:58.504Z</time>
      </trkpt>
      <trkpt lat="45.78708" lon="4.66769">
        <ele>464.26129</ele>
        <time>2021-04-24T08:25:00.502Z</time>
      </trkpt>
      <trkpt lat="45.78697" lon="4.66781">
        <ele>463.880652</ele>
        <time>2021-04-24T08:25:02.521Z</time>
      </trkpt>
      <trkpt lat="45.78684" lon="4.66793">
        <ele>463.456764</ele>
        <time>2021-04-24T08:25:04.513Z</time>
      </trkpt>
      <trkpt lat="45.78671" lon="4.66806">
        <ele>463.020727</ele>
        <time>2021-04-24T08:25:06.513Z</time>
      </trkpt>
      <trkpt lat="45.78658" lon="4.66817">
        <ele>462.601798</ele>
        <time>2021-04-24T08:25:08.507Z</time>
      </trkpt>
      <trkpt lat="45.78644" lon="4.66823">
        <ele>462.17469</ele>
        <time>2021-04-24T08:25:10.518Z</time>
      </trkpt>
      <trkpt lat="45.78629" lon="4.66818">
        <ele>461.754927</ele>
        <time>2021-04-24T08:25:12.502Z</time>
      </trkpt>
      <trkpt lat="45.78613" lon="4.66816">
        <ele>461.302489</ele>
        <time>2021-04-24T08:25:14.501Z</time>
      </trkpt>
      <trkpt lat="45.78601" lon="4.668">
        <ele>460.441036</ele>
        <time>2021-04-24T08:25:16.525Z</time>
      </trkpt>
      <trkpt lat="45.78594" lon="4.66782">
        <ele>459.644106</ele>
        <time>2021-04-24T08:25:18.556Z</time>
      </trkpt>
      <trkpt lat="45.78588" lon="4.6676">
        <ele>458.758611</ele>
        <time>2021-04-24T08:25:20.514Z</time>
      </trkpt>
      <trkpt lat="45.78581" lon="4.66737">
        <ele>457.830938</ele>
        <time>2021-04-24T08:25:22.503Z</time>
      </trkpt>
      <trkpt lat="45.78576" lon="4.66714">
        <ele>456.919681</ele>
        <time>2021-04-24T08:25:24.529Z</time>
      </trkpt>
      <trkpt lat="45.78573" lon="4.667">
        <ele>456.366154</ele>
        <time>2021-04-24T08:25:25.509Z</time>
      </trkpt>
      <trkpt lat="45.78568" lon="4.66675">
        <ele>455.374962</ele>
        <time>2021-04-24T08:25:27.517Z</time>
      </trkpt>
      <trkpt lat="45.78565" lon="4.66662">
        <ele>454.876803</ele>
        <time>2021-04-24T08:25:28.505Z</time>
      </trkpt>
      <trkpt lat="45.78561" lon="4.6665">
        <ele>454.370599</ele>
        <time>2021-04-24T08:25:29.510Z</time>
      </trkpt>
      <trkpt lat="45.78557" lon="4.66638">
        <ele>453.887717</ele>
        <time>2021-04-24T08:25:30.651Z</time>
      </trkpt>
      <trkpt lat="45.7855" lon="4.66613">
        <ele>452.870651</ele>
        <time>2021-04-24T08:25:32.522Z</time>
      </trkpt>
      <trkpt lat="45.78546" lon="4.666">
        <ele>452.323591</ele>
        <time>2021-04-24T08:25:33.496Z</time>
      </trkpt>
      <trkpt lat="45.78541" lon="4.66585">
        <ele>451.733257</ele>
        <time>2021-04-24T08:25:34.490Z</time>
      </trkpt>
      <trkpt lat="45.78538" lon="4.66571">
        <ele>450.960788</ele>
        <time>2021-04-24T08:25:35.497Z</time>
      </trkpt>
      <trkpt lat="45.78535" lon="4.66555">
        <ele>450.129223</ele>
        <time>2021-04-24T08:25:36.530Z</time>
      </trkpt>
      <trkpt lat="45.78531" lon="4.6654">
        <ele>449.303479</ele>
        <time>2021-04-24T08:25:37.526Z</time>
      </trkpt>
      <trkpt lat="45.78529" lon="4.66524">
        <ele>448.483519</ele>
        <time>2021-04-24T08:25:38.507Z</time>
      </trkpt>
      <trkpt lat="45.78527" lon="4.6651">
        <ele>447.719564</ele>
        <time>2021-04-24T08:25:39.521Z</time>
      </trkpt>
      <trkpt lat="45.78525" lon="4.66496">
        <ele>446.992398</ele>
        <time>2021-04-24T08:25:40.511Z</time>
      </trkpt>
      <trkpt lat="45.78524" lon="4.66483">
        <ele>446.278608</ele>
        <time>2021-04-24T08:25:41.520Z</time>
      </trkpt>
      <trkpt lat="45.78522" lon="4.66469">
        <ele>445.5741</ele>
        <time>2021-04-24T08:25:42.518Z</time>
      </trkpt>
      <trkpt lat="45.78521" lon="4.66456">
        <ele>444.901854</ele>
        <time>2021-04-24T08:25:43.503Z</time>
      </trkpt>
      <trkpt lat="45.78512" lon="4.66435">
        <ele>443.637683</ele>
        <time>2021-04-24T08:25:45.501Z</time>
      </trkpt>
      <trkpt lat="45.78498" lon="4.66433">
        <ele>442.586813</ele>
        <time>2021-04-24T08:25:47.518Z</time>
      </trkpt>
      <trkpt lat="45.78485" lon="4.66438">
        <ele>441.593458</ele>
        <time>2021-04-24T08:25:49.515Z</time>
      </trkpt>
      <trkpt lat="45.78472" lon="4.66454">
        <ele>440.319704</ele>
        <time>2021-04-24T08:25:51.510Z</time>
      </trkpt>
      <trkpt lat="45.78461" lon="4.66463">
        <ele>439.393069</ele>
        <time>2021-04-24T08:25:53.509Z</time>
      </trkpt>
      <trkpt lat="45.78449" lon="4.66476">
        <ele>438.312439</ele>
        <time>2021-04-24T08:25:55.510Z</time>
      </trkpt>
      <trkpt lat="45.78437" lon="4.66487">
        <ele>439.315804</ele>
        <time>2021-04-24T08:25:57.518Z</time>
      </trkpt>
      <trkpt lat="45.78425" lon="4.66496">
        <ele>440.277366</ele>
        <time>2021-04-24T08:25:59.516Z</time>
      </trkpt>
      <trkpt lat="45.78413" lon="4.66506">
        <ele>441.206313</ele>
        <time>2021-04-24T08:26:01.511Z</time>
      </trkpt>
      <trkpt lat="45.78403" lon="4.66518">
        <ele>442.090235</ele>
        <time>2021-04-24T08:26:03.501Z</time>
      </trkpt>
      <trkpt lat="45.78394" lon="4.66526">
        <ele>442.860838</ele>
        <time>2021-04-24T08:26:05.519Z</time>
      </trkpt>
      <trkpt lat="45.78385" lon="4.66537">
        <ele>443.636506</ele>
        <time>2021-04-24T08:26:07.512Z</time>
      </trkpt>
      <trkpt lat="45.78376" lon="4.66549">
        <ele>444.481945</ele>
        <time>2021-04-24T08:26:09.516Z</time>
      </trkpt>
      <trkpt lat="45.78366" lon="4.66562">
        <ele>445.424721</ele>
        <time>2021-04-24T08:26:11.521Z</time>
      </trkpt>
      <trkpt lat="45.78359" lon="4.66579">
        <ele>446.347777</ele>
        <time>2021-04-24T08:26:14.519Z</time>
      </trkpt>
      <trkpt lat="45.78355" lon="4.6659">
        <ele>446.987581</ele>
        <time>2021-04-24T08:26:16.514Z</time>
      </trkpt>
      <trkpt lat="45.78346" lon="4.66601">
        <ele>447.746615</ele>
        <time>2021-04-24T08:26:18.506Z</time>
      </trkpt>
      <trkpt lat="45.78338" lon="4.66613">
        <ele>448.542575</ele>
        <time>2021-04-24T08:26:20.516Z</time>
      </trkpt>
      <trkpt lat="45.78332" lon="4.66625">
        <ele>449.254783</ele>
        <time>2021-04-24T08:26:22.518Z</time>
      </trkpt>
      <trkpt lat="45.78327" lon="4.66638">
        <ele>450.006851</ele>
        <time>2021-04-24T08:26:24.506Z</time>
      </trkpt>
      <trkpt lat="45.78319" lon="4.6665">
        <ele>450.70056</ele>
        <time>2021-04-24T08:26:26.508Z</time>
      </trkpt>
      <trkpt lat="45.78312" lon="4.66659">
        <ele>450.860503</ele>
        <time>2021-04-24T08:26:28.506Z</time>
      </trkpt>
      <trkpt lat="45.78302" lon="4.66665">
        <ele>451.040407</ele>
        <time>2021-04-24T08:26:31.509Z</time>
      </trkpt>
      <trkpt lat="45.7829" lon="4.66667">
        <ele>451.235235</ele>
        <time>2021-04-24T08:26:34.513Z</time>
      </trkpt>
      <trkpt lat="45.78278" lon="4.66669">
        <ele>451.436948</ele>
        <time>2021-04-24T08:26:37.510Z</time>
      </trkpt>
      <trkpt lat="45.78267" lon="4.66668">
        <ele>451.626644</ele>
        <time>2021-04-24T08:26:39.511Z</time>
      </trkpt>
      <trkpt lat="45.78255" lon="4.66659">
        <ele>451.845756</ele>
        <time>2021-04-24T08:26:41.508Z</time>
      </trkpt>
      <trkpt lat="45.78249" lon="4.66646">
        <ele>452.029596</ele>
        <time>2021-04-24T08:26:43.519Z</time>
      </trkpt>
      <trkpt lat="45.78239" lon="4.66628">
        <ele>452.29261</ele>
        <time>2021-04-24T08:26:45.509Z</time>
      </trkpt>
      <trkpt lat="45.78232" lon="4.66609">
        <ele>452.539196</ele>
        <time>2021-04-24T08:26:47.507Z</time>
      </trkpt>
      <trkpt lat="45.78225" lon="4.66597">
        <ele>452.726416</ele>
        <time>2021-04-24T08:26:49.520Z</time>
      </trkpt>
      <trkpt lat="45.78217" lon="4.6658">
        <ele>452.961482</ele>
        <time>2021-04-24T08:26:51.505Z</time>
      </trkpt>
      <trkpt lat="45.78206" lon="4.66566">
        <ele>453.203702</ele>
        <time>2021-04-24T08:26:53.504Z</time>
      </trkpt>
      <trkpt lat="45.78192" lon="4.66564">
        <ele>453.431154</ele>
        <time>2021-04-24T08:26:55.519Z</time>
      </trkpt>
      <trkpt lat="45.78181" lon="4.66571">
        <ele>453.627372</ele>
        <time>2021-04-24T08:26:57.506Z</time>
      </trkpt>
      <trkpt lat="45.78173" lon="4.66581">
        <ele>453.85128</ele>
        <time>2021-04-24T08:26:59.573Z</time>
      </trkpt>
      <trkpt lat="45.78168" lon="4.66593">
        <ele>454.056759</ele>
        <time>2021-04-24T08:27:01.519Z</time>
      </trkpt>
      <trkpt lat="45.78162" lon="4.66604">
        <ele>454.258487</ele>
        <time>2021-04-24T08:27:03.518Z</time>
      </trkpt>
      <trkpt lat="45.78156" lon="4.66618">
        <ele>454.492449</ele>
        <time>2021-04-24T08:27:06.512Z</time>
      </trkpt>
      <trkpt lat="45.78151" lon="4.66634">
        <ele>454.754022</ele>
        <time>2021-04-24T08:27:09.505Z</time>
      </trkpt>
      <trkpt lat="45.78147" lon="4.66649">
        <ele>454.987591</ele>
        <time>2021-04-24T08:27:12.498Z</time>
      </trkpt>
      <trkpt lat="45.78142" lon="4.66665">
        <ele>455.241828</ele>
        <time>2021-04-24T08:27:15.520Z</time>
      </trkpt>
      <trkpt lat="45.78136" lon="4.66682">
        <ele>455.505175</ele>
        <time>2021-04-24T08:27:18.508Z</time>
      </trkpt>
      <trkpt lat="45.78135" lon="4.66697">
        <ele>455.73467</ele>
        <time>2021-04-24T08:27:21.523Z</time>
      </trkpt>
      <trkpt lat="45.78133" lon="4.66711">
        <ele>455.942519</ele>
        <time>2021-04-24T08:27:24.516Z</time>
      </trkpt>
      <trkpt lat="45.78132" lon="4.66727">
        <ele>456.166955</ele>
        <time>2021-04-24T08:27:27.510Z</time>
      </trkpt>
      <trkpt lat="45.78129" lon="4.66742">
        <ele>456.39649</ele>
        <time>2021-04-24T08:27:30.497Z</time>
      </trkpt>
      <trkpt lat="45.78126" lon="4.66754">
        <ele>456.588997</ele>
        <time>2021-04-24T08:27:33.557Z</time>
      </trkpt>
      <trkpt lat="45.78124" lon="4.66768">
        <ele>456.787936</ele>
        <time>2021-04-24T08:27:36.511Z</time>
      </trkpt>
      <trkpt lat="45.78122" lon="4.66782">
        <ele>457.000565</ele>
        <time>2021-04-24T08:27:39.515Z</time>
      </trkpt>
      <trkpt lat="45.7812" lon="4.66796">
        <ele>457.211688</ele>
        <time>2021-04-24T08:27:42.509Z</time>
      </trkpt>
      <trkpt lat="45.78116" lon="4.66809">
        <ele>457.425293</ele>
        <time>2021-04-24T08:27:46.522Z</time>
      </trkpt>
      <trkpt lat="45.78111" lon="4.6682">
        <ele>458.241713</ele>
        <time>2021-04-24T08:27:49.523Z</time>
      </trkpt>
      <trkpt lat="45.78103" lon="4.66831">
        <ele>459.225795</ele>
        <time>2021-04-24T08:27:52.512Z</time>
      </trkpt>
      <trkpt lat="45.78094" lon="4.66841">
        <ele>460.236935</ele>
        <time>2021-04-24T08:27:55.508Z</time>
      </trkpt>
      <trkpt lat="45.78086" lon="4.66852">
        <ele>461.196737</ele>
        <time>2021-04-24T08:27:58.511Z</time>
      </trkpt>
      <trkpt lat="45.78077" lon="4.66859">
        <ele>462.093701</ele>
        <time>2021-04-24T08:28:01.510Z</time>
      </trkpt>
      <trkpt lat="45.78067" lon="4.66864">
        <ele>463.049443</ele>
        <time>2021-04-24T08:28:04.510Z</time>
      </trkpt>
      <trkpt lat="45.78056" lon="4.66866">
        <ele>464.040119</ele>
        <time>2021-04-24T08:28:07.505Z</time>
      </trkpt>
      <trkpt lat="45.78045" lon="4.66867">
        <ele>464.994619</ele>
        <time>2021-04-24T08:28:09.501Z</time>
      </trkpt>
      <trkpt lat="45.78032" lon="4.66864">
        <ele>466.168191</ele>
        <time>2021-04-24T08:28:12.504Z</time>
      </trkpt>
      <trkpt lat="45.78023" lon="4.66861">
        <ele>466.992855</ele>
        <time>2021-04-24T08:28:14.507Z</time>
      </trkpt>
      <trkpt lat="45.78012" lon="4.66858">
        <ele>467.908657</ele>
        <time>2021-04-24T08:28:16.498Z</time>
      </trkpt>
      <trkpt lat="45.78003" lon="4.66855">
        <ele>468.758128</ele>
        <time>2021-04-24T08:28:18.490Z</time>
      </trkpt>
      <trkpt lat="45.77993" lon="4.66852">
        <ele>469.694905</ele>
        <time>2021-04-24T08:28:20.503Z</time>
      </trkpt>
      <trkpt lat="45.77982" lon="4.66847">
        <ele>470.699119</ele>
        <time>2021-04-24T08:28:22.511Z</time>
      </trkpt>
      <trkpt lat="45.77972" lon="4.66842">
        <ele>471.609203</ele>
        <time>2021-04-24T08:28:24.503Z</time>
      </trkpt>
      <trkpt lat="45.7796" lon="4.66839">
        <ele>472.672263</ele>
        <time>2021-04-24T08:28:26.501Z</time>
      </trkpt>
      <trkpt lat="45.77949" lon="4.66838">
        <ele>473.311585</ele>
        <time>2021-04-24T08:28:28.504Z</time>
      </trkpt>
      <trkpt lat="45.77937" lon="4.66838">
        <ele>473.450946</ele>
        <time>2021-04-24T08:28:30.507Z</time>
      </trkpt>
      <trkpt lat="45.77926" lon="4.6684">
        <ele>473.58654</ele>
        <time>2021-04-24T08:28:32.503Z</time>
      </trkpt>
      <trkpt lat="45.77916" lon="4.6684">
        <ele>473.712467</ele>
        <time>2021-04-24T08:28:34.504Z</time>
      </trkpt>
      <trkpt lat="45.77906" lon="4.66842">
        <ele>473.843462</ele>
        <time>2021-04-24T08:28:36.506Z</time>
      </trkpt>
      <trkpt lat="45.77894" lon="4.66843">
        <ele>473.979263</ele>
        <time>2021-04-24T08:28:38.508Z</time>
      </trkpt>
      <trkpt lat="45.77883" lon="4.66844">
        <ele>474.113714</ele>
        <time>2021-04-24T08:28:40.499Z</time>
      </trkpt>
      <trkpt lat="45.77874" lon="4.66844">
        <ele>474.231043</ele>
        <time>2021-04-24T08:28:42.512Z</time>
      </trkpt>
      <trkpt lat="45.77864" lon="4.66846">
        <ele>474.352875</ele>
        <time>2021-04-24T08:28:44.498Z</time>
      </trkpt>
      <trkpt lat="45.77855" lon="4.66847">
        <ele>474.462584</ele>
        <time>2021-04-24T08:28:46.506Z</time>
      </trkpt>
      <trkpt lat="45.77843" lon="4.66849">
        <ele>474.61106</ele>
        <time>2021-04-24T08:28:49.587Z</time>
      </trkpt>
      <trkpt lat="45.77833" lon="4.66851">
        <ele>474.732135</ele>
        <time>2021-04-24T08:28:52.508Z</time>
      </trkpt>
      <trkpt lat="45.77822" lon="4.66854">
        <ele>474.869998</ele>
        <time>2021-04-24T08:28:56.510Z</time>
      </trkpt>
      <trkpt lat="45.77812" lon="4.66857">
        <ele>475.000988</ele>
        <time>2021-04-24T08:29:00.502Z</time>
      </trkpt>
      <trkpt lat="45.77803" lon="4.6685">
        <ele>475.1191</ele>
        <time>2021-04-24T08:29:04.502Z</time>
      </trkpt>
      <trkpt lat="45.77798" lon="4.66838">
        <ele>475.247314</ele>
        <time>2021-04-24T08:29:08.515Z</time>
      </trkpt>
      <trkpt lat="45.77792" lon="4.66824">
        <ele>475.377853</ele>
        <time>2021-04-24T08:29:12.502Z</time>
      </trkpt>
      <trkpt lat="45.77787" lon="4.66809">
        <ele>475.974263</ele>
        <time>2021-04-24T08:29:16.538Z</time>
      </trkpt>
      <trkpt lat="45.77783" lon="4.66794">
        <ele>476.992718</ele>
        <time>2021-04-24T08:29:20.505Z</time>
      </trkpt>
      <trkpt lat="45.77778" lon="4.6678">
        <ele>478.001395</ele>
        <time>2021-04-24T08:29:24.503Z</time>
      </trkpt>
      <trkpt lat="45.77773" lon="4.66768">
        <ele>478.917138</ele>
        <time>2021-04-24T08:29:28.590Z</time>
      </trkpt>
      <trkpt lat="45.77767" lon="4.66756">
        <ele>479.85228</ele>
        <time>2021-04-24T08:29:32.512Z</time>
      </trkpt>
      <trkpt lat="45.7776" lon="4.66742">
        <ele>480.90719</ele>
        <time>2021-04-24T08:29:36.512Z</time>
      </trkpt>
      <trkpt lat="45.77754" lon="4.66728">
        <ele>481.960393</ele>
        <time>2021-04-24T08:29:40.502Z</time>
      </trkpt>
      <trkpt lat="45.7775" lon="4.66716">
        <ele>482.805439</ele>
        <time>2021-04-24T08:29:43.515Z</time>
      </trkpt>
      <trkpt lat="45.77747" lon="4.66702">
        <ele>483.730234</ele>
        <time>2021-04-24T08:29:46.507Z</time>
      </trkpt>
      <trkpt lat="45.77744" lon="4.66689">
        <ele>484.595951</ele>
        <time>2021-04-24T08:29:49.505Z</time>
      </trkpt>
      <trkpt lat="45.77741" lon="4.66675">
        <ele>485.517102</ele>
        <time>2021-04-24T08:29:52.520Z</time>
      </trkpt>
      <trkpt lat="45.77737" lon="4.66659">
        <ele>486.631877</ele>
        <time>2021-04-24T08:29:55.516Z</time>
      </trkpt>
      <trkpt lat="45.77731" lon="4.66642">
        <ele>487.840404</ele>
        <time>2021-04-24T08:29:58.513Z</time>
      </trkpt>
      <trkpt lat="45.77726" lon="4.66624">
        <ele>489.066791</ele>
        <time>2021-04-24T08:30:01.507Z</time>
      </trkpt>
      <trkpt lat="45.77721" lon="4.66611">
        <ele>490.034855</ele>
        <time>2021-04-24T08:30:03.511Z</time>
      </trkpt>
      <trkpt lat="45.77717" lon="4.66599">
        <ele>490.86699</ele>
        <time>2021-04-24T08:30:05.504Z</time>
      </trkpt>
      <trkpt lat="45.77714" lon="4.66582">
        <ele>491.822443</ele>
        <time>2021-04-24T08:30:07.511Z</time>
      </trkpt>
      <trkpt lat="45.7771" lon="4.66566">
        <ele>491.367262</ele>
        <time>2021-04-24T08:30:09.506Z</time>
      </trkpt>
      <trkpt lat="45.77705" lon="4.66549">
        <ele>490.884106</ele>
        <time>2021-04-24T08:30:11.516Z</time>
      </trkpt>
      <trkpt lat="45.77703" lon="4.66531">
        <ele>490.392162</ele>
        <time>2021-04-24T08:30:13.496Z</time>
      </trkpt>
      <trkpt lat="45.77697" lon="4.66516">
        <ele>489.934882</ele>
        <time>2021-04-24T08:30:15.525Z</time>
      </trkpt>
      <trkpt lat="45.77692" lon="4.665">
        <ele>489.465129</ele>
        <time>2021-04-24T08:30:17.564Z</time>
      </trkpt>
      <trkpt lat="45.77689" lon="4.66483">
        <ele>489.007403</ele>
        <time>2021-04-24T08:30:19.522Z</time>
      </trkpt>
      <trkpt lat="45.77685" lon="4.66465">
        <ele>488.502867</ele>
        <time>2021-04-24T08:30:21.520Z</time>
      </trkpt>
      <trkpt lat="45.77681" lon="4.66446">
        <ele>487.95678</ele>
        <time>2021-04-24T08:30:23.506Z</time>
      </trkpt>
      <trkpt lat="45.77679" lon="4.66423">
        <ele>487.363257</ele>
        <time>2021-04-24T08:30:25.507Z</time>
      </trkpt>
      <trkpt lat="45.77678" lon="4.66401">
        <ele>486.761243</ele>
        <time>2021-04-24T08:30:27.519Z</time>
      </trkpt>
      <trkpt lat="45.7768" lon="4.66378">
        <ele>486.137674</ele>
        <time>2021-04-24T08:30:29.504Z</time>
      </trkpt>
      <trkpt lat="45.77682" lon="4.66355">
        <ele>485.531858</ele>
        <time>2021-04-24T08:30:31.499Z</time>
      </trkpt>
      <trkpt lat="45.77683" lon="4.66331">
        <ele>485.058692</ele>
        <time>2021-04-24T08:30:33.507Z</time>
      </trkpt>
      <trkpt lat="45.77681" lon="4.6631">
        <ele>485.36356</ele>
        <time>2021-04-24T08:30:35.503Z</time>
      </trkpt>
      <trkpt lat="45.77677" lon="4.66299">
        <ele>485.554936</ele>
        <time>2021-04-24T08:30:36.516Z</time>
      </trkpt>
      <trkpt lat="45.77665" lon="4.66281">
        <ele>485.895572</ele>
        <time>2021-04-24T08:30:38.505Z</time>
      </trkpt>
      <trkpt lat="45.77651" lon="4.66273">
        <ele>486.204104</ele>
        <time>2021-04-24T08:30:40.510Z</time>
      </trkpt>
      <trkpt lat="45.77637" lon="4.66273">
        <ele>486.508491</ele>
        <time>2021-04-24T08:30:42.516Z</time>
      </trkpt>
      <trkpt lat="45.77622" lon="4.66274">
        <ele>486.80888</ele>
        <time>2021-04-24T08:30:44.496Z</time>
      </trkpt>
      <trkpt lat="45.77608" lon="4.66279">
        <ele>487.117301</ele>
        <time>2021-04-24T08:30:46.487Z</time>
      </trkpt>
      <trkpt lat="45.77595" lon="4.66283">
        <ele>487.385525</ele>
        <time>2021-04-24T08:30:48.506Z</time>
      </trkpt>
      <trkpt lat="45.77581" lon="4.66287">
        <ele>487.680553</ele>
        <time>2021-04-24T08:30:50.498Z</time>
      </trkpt>
      <trkpt lat="45.77567" lon="4.66292">
        <ele>487.969618</ele>
        <time>2021-04-24T08:30:52.492Z</time>
      </trkpt>
      <trkpt lat="45.77552" lon="4.663">
        <ele>488.291457</ele>
        <time>2021-04-24T08:30:54.498Z</time>
      </trkpt>
      <trkpt lat="45.77539" lon="4.66304">
        <ele>488.569493</ele>
        <time>2021-04-24T08:30:56.499Z</time>
      </trkpt>
      <trkpt lat="45.77525" lon="4.6631">
        <ele>488.617549</ele>
        <time>2021-04-24T08:30:58.507Z</time>
      </trkpt>
      <trkpt lat="45.7751" lon="4.66317">
        <ele>488.459198</ele>
        <time>2021-04-24T08:31:00.516Z</time>
      </trkpt>
      <trkpt lat="45.77494" lon="4.6632">
        <ele>488.299119</ele>
        <time>2021-04-24T08:31:02.524Z</time>
      </trkpt>
      <trkpt lat="45.77479" lon="4.66318">
        <ele>488.14812</ele>
        <time>2021-04-24T08:31:04.505Z</time>
      </trkpt>
      <trkpt lat="45.77466" lon="4.66313">
        <ele>488.003783</ele>
        <time>2021-04-24T08:31:06.525Z</time>
      </trkpt>
      <trkpt lat="45.77453" lon="4.66302">
        <ele>487.851385</ele>
        <time>2021-04-24T08:31:08.516Z</time>
      </trkpt>
      <trkpt lat="45.77441" lon="4.66288">
        <ele>487.695961</ele>
        <time>2021-04-24T08:31:10.520Z</time>
      </trkpt>
      <trkpt lat="45.77429" lon="4.66272">
        <ele>487.533581</ele>
        <time>2021-04-24T08:31:12.521Z</time>
      </trkpt>
      <trkpt lat="45.7742" lon="4.66254">
        <ele>487.374787</ele>
        <time>2021-04-24T08:31:14.515Z</time>
      </trkpt>
      <trkpt lat="45.77414" lon="4.66235">
        <ele>487.224374</ele>
        <time>2021-04-24T08:31:16.497Z</time>
      </trkpt>
      <trkpt lat="45.77406" lon="4.66215">
        <ele>487.067565</ele>
        <time>2021-04-24T08:31:18.510Z</time>
      </trkpt>
      <trkpt lat="45.77401" lon="4.66201">
        <ele>486.950715</ele>
        <time>2021-04-24T08:31:20.512Z</time>
      </trkpt>
      <trkpt lat="45.77395" lon="4.66183">
        <ele>486.668412</ele>
        <time>2021-04-24T08:31:22.511Z</time>
      </trkpt>
      <trkpt lat="45.7739" lon="4.66166">
        <ele>486.231792</ele>
        <time>2021-04-24T08:31:24.515Z</time>
      </trkpt>
      <trkpt lat="45.77385" lon="4.66147">
        <ele>485.783412</ele>
        <time>2021-04-24T08:31:26.517Z</time>
      </trkpt>
      <trkpt lat="45.7738" lon="4.66129">
        <ele>485.345862</ele>
        <time>2021-04-24T08:31:28.566Z</time>
      </trkpt>
      <trkpt lat="45.77375" lon="4.6611">
        <ele>484.891342</ele>
        <time>2021-04-24T08:31:30.516Z</time>
      </trkpt>
      <trkpt lat="45.7737" lon="4.6609">
        <ele>484.402885</ele>
        <time>2021-04-24T08:31:32.507Z</time>
      </trkpt>
      <trkpt lat="45.77364" lon="4.66069">
        <ele>483.898313</ele>
        <time>2021-04-24T08:31:34.533Z</time>
      </trkpt>
      <trkpt lat="45.77359" lon="4.66047">
        <ele>483.385381</ele>
        <time>2021-04-24T08:31:36.501Z</time>
      </trkpt>
      <trkpt lat="45.77353" lon="4.66026">
        <ele>482.87613</ele>
        <time>2021-04-24T08:31:38.508Z</time>
      </trkpt>
      <trkpt lat="45.77347" lon="4.66006">
        <ele>482.382997</ele>
        <time>2021-04-24T08:31:40.542Z</time>
      </trkpt>
      <trkpt lat="45.7734" lon="4.65988">
        <ele>481.917377</ele>
        <time>2021-04-24T08:31:42.510Z</time>
      </trkpt>
      <trkpt lat="45.77328" lon="4.65977">
        <ele>481.455325</ele>
        <time>2021-04-24T08:31:44.507Z</time>
      </trkpt>
      <trkpt lat="45.77314" lon="4.65974">
        <ele>481.007688</ele>
        <time>2021-04-24T08:31:46.516Z</time>
      </trkpt>
      <trkpt lat="45.77299" lon="4.65977">
        <ele>480.528217</ele>
        <time>2021-04-24T08:31:48.509Z</time>
      </trkpt>
      <trkpt lat="45.77284" lon="4.65983">
        <ele>480.033454</ele>
        <time>2021-04-24T08:31:50.501Z</time>
      </trkpt>
      <trkpt lat="45.77268" lon="4.65989">
        <ele>479.497017</ele>
        <time>2021-04-24T08:31:52.555Z</time>
      </trkpt>
      <trkpt lat="45.77253" lon="4.65995">
        <ele>478.978427</ele>
        <time>2021-04-24T08:31:54.509Z</time>
      </trkpt>
      <trkpt lat="45.77237" lon="4.66002">
        <ele>478.457455</ele>
        <time>2021-04-24T08:31:56.523Z</time>
      </trkpt>
      <trkpt lat="45.7722" lon="4.66007">
        <ele>477.885628</ele>
        <time>2021-04-24T08:31:58.513Z</time>
      </trkpt>
      <trkpt lat="45.77211" lon="4.66005">
        <ele>477.591582</ele>
        <time>2021-04-24T08:31:59.501Z</time>
      </trkpt>
      <trkpt lat="45.77196" lon="4.65992">
        <ele>477.014586</ele>
        <time>2021-04-24T08:32:01.507Z</time>
      </trkpt>
      <trkpt lat="45.7719" lon="4.65982">
        <ele>476.717464</ele>
        <time>2021-04-24T08:32:02.491Z</time>
      </trkpt>
      <trkpt lat="45.77178" lon="4.65961">
        <ele>476.129973</ele>
        <time>2021-04-24T08:32:04.496Z</time>
      </trkpt>
      <trkpt lat="45.77173" lon="4.6595">
        <ele>475.827071</ele>
        <time>2021-04-24T08:32:05.498Z</time>
      </trkpt>
      <trkpt lat="45.77168" lon="4.65937">
        <ele>475.499699</ele>
        <time>2021-04-24T08:32:06.496Z</time>
      </trkpt>
      <trkpt lat="45.77163" lon="4.65924">
        <ele>475.01966</ele>
        <time>2021-04-24T08:32:07.495Z</time>
      </trkpt>
      <trkpt lat="45.77159" lon="4.65912">
        <ele>474.240735</ele>
        <time>2021-04-24T08:32:08.489Z</time>
      </trkpt>
      <trkpt lat="45.77155" lon="4.65898">
        <ele>473.429446</ele>
        <time>2021-04-24T08:32:09.498Z</time>
      </trkpt>
      <trkpt lat="45.77151" lon="4.65883">
        <ele>472.5928</ele>
        <time>2021-04-24T08:32:10.501Z</time>
      </trkpt>
      <trkpt lat="45.77148" lon="4.65869">
        <ele>471.781878</ele>
        <time>2021-04-24T08:32:11.504Z</time>
      </trkpt>
      <trkpt lat="45.77145" lon="4.65856">
        <ele>471.022482</ele>
        <time>2021-04-24T08:32:12.505Z</time>
      </trkpt>
      <trkpt lat="45.77142" lon="4.65841">
        <ele>470.168171</ele>
        <time>2021-04-24T08:32:13.507Z</time>
      </trkpt>
      <trkpt lat="45.7714" lon="4.65827">
        <ele>469.406651</ele>
        <time>2021-04-24T08:32:14.510Z</time>
      </trkpt>
      <trkpt lat="45.77137" lon="4.65812">
        <ele>468.541974</ele>
        <time>2021-04-24T08:32:15.506Z</time>
      </trkpt>
      <trkpt lat="45.77131" lon="4.65801">
        <ele>467.795923</ele>
        <time>2021-04-24T08:32:16.530Z</time>
      </trkpt>
      <trkpt lat="45.77123" lon="4.65792">
        <ele>467.05636</ele>
        <time>2021-04-24T08:32:17.503Z</time>
      </trkpt>
      <trkpt lat="45.77114" lon="4.65785">
        <ele>466.250759</ele>
        <time>2021-04-24T08:32:18.520Z</time>
      </trkpt>
      <trkpt lat="45.77106" lon="4.65794">
        <ele>465.456011</ele>
        <time>2021-04-24T08:32:19.511Z</time>
      </trkpt>
      <trkpt lat="45.77092" lon="4.65807">
        <ele>464.121499</ele>
        <time>2021-04-24T08:32:21.503Z</time>
      </trkpt>
      <trkpt lat="45.77084" lon="4.65832">
        <ele>462.653046</ele>
        <time>2021-04-24T08:32:23.513Z</time>
      </trkpt>
      <trkpt lat="45.77081" lon="4.65844">
        <ele>461.929544</ele>
        <time>2021-04-24T08:32:24.503Z</time>
      </trkpt>
      <trkpt lat="45.77077" lon="4.6587">
        <ele>460.818992</ele>
        <time>2021-04-24T08:32:26.521Z</time>
      </trkpt>
      <trkpt lat="45.77075" lon="4.65895">
        <ele>459.9837</ele>
        <time>2021-04-24T08:32:28.506Z</time>
      </trkpt>
      <trkpt lat="45.77072" lon="4.6592">
        <ele>459.139401</ele>
        <time>2021-04-24T08:32:30.504Z</time>
      </trkpt>
      <trkpt lat="45.7707" lon="4.65942">
        <ele>458.432403</ele>
        <time>2021-04-24T08:32:32.542Z</time>
      </trkpt>
      <trkpt lat="45.77068" lon="4.65959">
        <ele>457.855292</ele>
        <time>2021-04-24T08:32:34.514Z</time>
      </trkpt>
      <trkpt lat="45.77069" lon="4.65977">
        <ele>457.265812</ele>
        <time>2021-04-24T08:32:36.513Z</time>
      </trkpt>
      <trkpt lat="45.77068" lon="4.65993">
        <ele>456.764127</ele>
        <time>2021-04-24T08:32:38.518Z</time>
      </trkpt>
      <trkpt lat="45.77066" lon="4.66008">
        <ele>456.253327</ele>
        <time>2021-04-24T08:32:40.510Z</time>
      </trkpt>
      <trkpt lat="45.77065" lon="4.66023">
        <ele>455.766137</ele>
        <time>2021-04-24T08:32:42.517Z</time>
      </trkpt>
      <trkpt lat="45.77064" lon="4.66036">
        <ele>455.31619</ele>
        <time>2021-04-24T08:32:44.514Z</time>
      </trkpt>
      <trkpt lat="45.77065" lon="4.66049">
        <ele>454.89311</ele>
        <time>2021-04-24T08:32:46.512Z</time>
      </trkpt>
      <trkpt lat="45.77064" lon="4.66062">
        <ele>454.46964</ele>
        <time>2021-04-24T08:32:48.489Z</time>
      </trkpt>
      <trkpt lat="45.77064" lon="4.66076">
        <ele>454.021676</ele>
        <time>2021-04-24T08:32:50.495Z</time>
      </trkpt>
      <trkpt lat="45.77064" lon="4.66089">
        <ele>453.586564</ele>
        <time>2021-04-24T08:32:52.498Z</time>
      </trkpt>
      <trkpt lat="45.77061" lon="4.66106">
        <ele>453.014314</ele>
        <time>2021-04-24T08:32:55.492Z</time>
      </trkpt>
      <trkpt lat="45.77058" lon="4.66119">
        <ele>453.376001</ele>
        <time>2021-04-24T08:32:58.508Z</time>
      </trkpt>
      <trkpt lat="45.77057" lon="4.66135">
        <ele>454.445457</ele>
        <time>2021-04-24T08:33:01.530Z</time>
      </trkpt>
      <trkpt lat="45.77053" lon="4.66152">
        <ele>455.599642</ele>
        <time>2021-04-24T08:33:04.497Z</time>
      </trkpt>
      <trkpt lat="45.77048" lon="4.66165">
        <ele>456.611786</ele>
        <time>2021-04-24T08:33:07.492Z</time>
      </trkpt>
      <trkpt lat="45.77041" lon="4.66179">
        <ele>457.705777</ele>
        <time>2021-04-24T08:33:10.505Z</time>
      </trkpt>
      <trkpt lat="45.77034" lon="4.66187">
        <ele>458.568737</ele>
        <time>2021-04-24T08:33:13.514Z</time>
      </trkpt>
      <trkpt lat="45.77024" lon="4.66195">
        <ele>459.657182</ele>
        <time>2021-04-24T08:33:16.491Z</time>
      </trkpt>
      <trkpt lat="45.77015" lon="4.66204">
        <ele>460.681107</ele>
        <time>2021-04-24T08:33:19.494Z</time>
      </trkpt>
      <trkpt lat="45.77004" lon="4.66213">
        <ele>461.830114</ele>
        <time>2021-04-24T08:33:22.502Z</time>
      </trkpt>
      <trkpt lat="45.76996" lon="4.66219">
        <ele>462.742847</ele>
        <time>2021-04-24T08:33:24.493Z</time>
      </trkpt>
      <trkpt lat="45.76986" lon="4.66221">
        <ele>463.693935</ele>
        <time>2021-04-24T08:33:26.514Z</time>
      </trkpt>
      <trkpt lat="45.76972" lon="4.6622">
        <ele>464.995854</ele>
        <time>2021-04-24T08:33:29.505Z</time>
      </trkpt>
      <trkpt lat="45.76962" lon="4.66217">
        <ele>465.978013</ele>
        <time>2021-04-24T08:33:31.506Z</time>
      </trkpt>
      <trkpt lat="45.76952" lon="4.66213">
        <ele>466.905469</ele>
        <time>2021-04-24T08:33:33.517Z</time>
      </trkpt>
      <trkpt lat="45.76941" lon="4.66206">
        <ele>468.092241</ele>
        <time>2021-04-24T08:33:36.512Z</time>
      </trkpt>
      <trkpt lat="45.76933" lon="4.66197">
        <ele>469.024992</ele>
        <time>2021-04-24T08:33:38.504Z</time>
      </trkpt>
      <trkpt lat="45.76925" lon="4.66189">
        <ele>469.842302</ele>
        <time>2021-04-24T08:33:40.518Z</time>
      </trkpt>
      <trkpt lat="45.76917" lon="4.66181">
        <ele>470.138788</ele>
        <time>2021-04-24T08:33:42.525Z</time>
      </trkpt>
      <trkpt lat="45.76908" lon="4.66174">
        <ele>470.471611</ele>
        <time>2021-04-24T08:33:44.518Z</time>
      </trkpt>
      <trkpt lat="45.76894" lon="4.66172">
        <ele>470.905849</ele>
        <time>2021-04-24T08:33:47.523Z</time>
      </trkpt>
      <trkpt lat="45.76882" lon="4.66172">
        <ele>471.290749</ele>
        <time>2021-04-24T08:33:50.511Z</time>
      </trkpt>
      <trkpt lat="45.76869" lon="4.66176">
        <ele>471.68894</ele>
        <time>2021-04-24T08:33:55.506Z</time>
      </trkpt>
      <trkpt lat="45.76859" lon="4.66178">
        <ele>472.014791</ele>
        <time>2021-04-24T08:33:57.517Z</time>
      </trkpt>
      <trkpt lat="45.7685" lon="4.66182">
        <ele>472.309631</ele>
        <time>2021-04-24T08:33:59.503Z</time>
      </trkpt>
      <trkpt lat="45.76837" lon="4.66188">
        <ele>472.725768</ele>
        <time>2021-04-24T08:34:02.501Z</time>
      </trkpt>
      <trkpt lat="45.76827" lon="4.66192">
        <ele>473.062598</ele>
        <time>2021-04-24T08:34:04.503Z</time>
      </trkpt>
      <trkpt lat="45.76818" lon="4.66199">
        <ele>473.382943</ele>
        <time>2021-04-24T08:34:06.505Z</time>
      </trkpt>
      <trkpt lat="45.76807" lon="4.66207">
        <ele>473.772741</ele>
        <time>2021-04-24T08:34:08.558Z</time>
      </trkpt>
      <trkpt lat="45.76795" lon="4.66212">
        <ele>474.162369</ele>
        <time>2021-04-24T08:34:10.516Z</time>
      </trkpt>
      <trkpt lat="45.76783" lon="4.66218">
        <ele>474.540882</ele>
        <time>2021-04-24T08:34:12.511Z</time>
      </trkpt>
      <trkpt lat="45.76772" lon="4.66221">
        <ele>474.904369</ele>
        <time>2021-04-24T08:34:14.521Z</time>
      </trkpt>
      <trkpt lat="45.76759" lon="4.66222">
        <ele>475.30527</ele>
        <time>2021-04-24T08:34:16.504Z</time>
      </trkpt>
      <trkpt lat="45.76746" lon="4.66219">
        <ele>475.4011</ele>
        <time>2021-04-24T08:34:18.499Z</time>
      </trkpt>
      <trkpt lat="45.76735" lon="4.66212">
        <ele>475.391573</ele>
        <time>2021-04-24T08:34:20.493Z</time>
      </trkpt>
      <trkpt lat="45.76727" lon="4.66202">
        <ele>475.383602</ele>
        <time>2021-04-24T08:34:22.512Z</time>
      </trkpt>
      <trkpt lat="45.76721" lon="4.66187">
        <ele>475.374474</ele>
        <time>2021-04-24T08:34:24.490Z</time>
      </trkpt>
      <trkpt lat="45.76713" lon="4.66174">
        <ele>475.365565</ele>
        <time>2021-04-24T08:34:26.494Z</time>
      </trkpt>
      <trkpt lat="45.76707" lon="4.66158">
        <ele>475.35614</ele>
        <time>2021-04-24T08:34:28.505Z</time>
      </trkpt>
      <trkpt lat="45.76699" lon="4.66146">
        <ele>475.347287</ele>
        <time>2021-04-24T08:34:30.505Z</time>
      </trkpt>
      <trkpt lat="45.76692" lon="4.66133">
        <ele>475.33888</ele>
        <time>2021-04-24T08:34:32.508Z</time>
      </trkpt>
      <trkpt lat="45.76684" lon="4.66125">
        <ele>475.331274</ele>
        <time>2021-04-24T08:34:34.504Z</time>
      </trkpt>
      <trkpt lat="45.76675" lon="4.66117">
        <ele>475.323167</ele>
        <time>2021-04-24T08:34:36.529Z</time>
      </trkpt>
      <trkpt lat="45.76664" lon="4.66111">
        <ele>475.314591</ele>
        <time>2021-04-24T08:34:38.548Z</time>
      </trkpt>
      <trkpt lat="45.76653" lon="4.66107">
        <ele>475.305727</ele>
        <time>2021-04-24T08:34:40.519Z</time>
      </trkpt>
      <trkpt lat="45.76643" lon="4.66106">
        <ele>475.298539</ele>
        <time>2021-04-24T08:34:42.515Z</time>
      </trkpt>
      <trkpt lat="45.76632" lon="4.66102">
        <ele>475.290139</ele>
        <time>2021-04-24T08:34:44.521Z</time>
      </trkpt>
      <trkpt lat="45.76621" lon="4.66103">
        <ele>475.281688</ele>
        <time>2021-04-24T08:34:46.530Z</time>
      </trkpt>
      <trkpt lat="45.7661" lon="4.66099">
        <ele>475.273222</ele>
        <time>2021-04-24T08:34:48.501Z</time>
      </trkpt>
      <trkpt lat="45.76601" lon="4.661">
        <ele>475.340087</ele>
        <time>2021-04-24T08:34:50.551Z</time>
      </trkpt>
      <trkpt lat="45.76589" lon="4.66106">
        <ele>475.43908</ele>
        <time>2021-04-24T08:34:53.510Z</time>
      </trkpt>
      <trkpt lat="45.76576" lon="4.66111">
        <ele>475.538495</ele>
        <time>2021-04-24T08:34:56.525Z</time>
      </trkpt>
      <trkpt lat="45.76566" lon="4.66114">
        <ele>475.620287</ele>
        <time>2021-04-24T08:34:58.508Z</time>
      </trkpt>
      <trkpt lat="45.76554" lon="4.66116">
        <ele>475.714957</ele>
        <time>2021-04-24T08:35:01.495Z</time>
      </trkpt>
      <trkpt lat="45.76545" lon="4.66118">
        <ele>475.78579</ele>
        <time>2021-04-24T08:35:03.482Z</time>
      </trkpt>
      <trkpt lat="45.76535" lon="4.66115">
        <ele>475.864296</ele>
        <time>2021-04-24T08:35:07.501Z</time>
      </trkpt>
      <trkpt lat="45.76526" lon="4.66115">
        <ele>475.939164</ele>
        <time>2021-04-24T08:35:09.518Z</time>
      </trkpt>
      <trkpt lat="45.76517" lon="4.66114">
        <ele>476.010383</ele>
        <time>2021-04-24T08:35:11.494Z</time>
      </trkpt>
      <trkpt lat="45.76507" lon="4.66112">
        <ele>476.085044</ele>
        <time>2021-04-24T08:35:13.504Z</time>
      </trkpt>
      <trkpt lat="45.76504" lon="4.66096">
        <ele>476.176268</ele>
        <time>2021-04-24T08:35:18.513Z</time>
      </trkpt>
      <trkpt lat="45.76506" lon="4.66082">
        <ele>476.256546</ele>
        <time>2021-04-24T08:35:22.514Z</time>
      </trkpt>
      <trkpt lat="45.76464" lon="4.66055">
        <ele>476.620897</ele>
        <time>2021-04-24T08:36:47.509Z</time>
      </trkpt>
      <trkpt lat="45.76454" lon="4.66049">
        <ele>476.520817</ele>
        <time>2021-04-24T08:36:49.514Z</time>
      </trkpt>
      <trkpt lat="45.76445" lon="4.66045">
        <ele>476.156324</ele>
        <time>2021-04-24T08:36:51.504Z</time>
      </trkpt>
      <trkpt lat="45.76434" lon="4.66041">
        <ele>475.712278</ele>
        <time>2021-04-24T08:36:53.502Z</time>
      </trkpt>
      <trkpt lat="45.76424" lon="4.66037">
        <ele>475.317812</ele>
        <time>2021-04-24T08:36:55.507Z</time>
      </trkpt>
      <trkpt lat="45.76414" lon="4.66036">
        <ele>474.942084</ele>
        <time>2021-04-24T08:36:57.505Z</time>
      </trkpt>
      <trkpt lat="45.76405" lon="4.66036">
        <ele>474.590042</ele>
        <time>2021-04-24T08:36:59.534Z</time>
      </trkpt>
      <trkpt lat="45.76395" lon="4.66039">
        <ele>474.192579</ele>
        <time>2021-04-24T08:37:01.506Z</time>
      </trkpt>
      <trkpt lat="45.76384" lon="4.66045">
        <ele>473.750033</ele>
        <time>2021-04-24T08:37:03.515Z</time>
      </trkpt>
      <trkpt lat="45.76372" lon="4.66053">
        <ele>473.246205</ele>
        <time>2021-04-24T08:37:05.554Z</time>
      </trkpt>
      <trkpt lat="45.76359" lon="4.66062">
        <ele>472.676009</ele>
        <time>2021-04-24T08:37:07.516Z</time>
      </trkpt>
      <trkpt lat="45.76346" lon="4.6607">
        <ele>472.130814</ele>
        <time>2021-04-24T08:37:09.516Z</time>
      </trkpt>
      <trkpt lat="45.76332" lon="4.6608">
        <ele>471.523443</ele>
        <time>2021-04-24T08:37:11.541Z</time>
      </trkpt>
      <trkpt lat="45.76318" lon="4.66091">
        <ele>470.887796</ele>
        <time>2021-04-24T08:37:13.508Z</time>
      </trkpt>
      <trkpt lat="45.76301" lon="4.661">
        <ele>470.217287</ele>
        <time>2021-04-24T08:37:15.525Z</time>
      </trkpt>
      <trkpt lat="45.76285" lon="4.66105">
        <ele>469.533766</ele>
        <time>2021-04-24T08:37:17.503Z</time>
      </trkpt>
      <trkpt lat="45.76267" lon="4.66106">
        <ele>468.710406</ele>
        <time>2021-04-24T08:37:19.490Z</time>
      </trkpt>
      <trkpt lat="45.76257" lon="4.66104">
        <ele>468.287919</ele>
        <time>2021-04-24T08:37:20.493Z</time>
      </trkpt>
      <trkpt lat="45.76241" lon="4.66099">
        <ele>467.504068</ele>
        <time>2021-04-24T08:37:22.497Z</time>
      </trkpt>
      <trkpt lat="45.76224" lon="4.66092">
        <ele>466.735035</ele>
        <time>2021-04-24T08:37:24.501Z</time>
      </trkpt>
      <trkpt lat="45.76215" lon="4.66089">
        <ele>466.313107</ele>
        <time>2021-04-24T08:37:25.495Z</time>
      </trkpt>
      <trkpt lat="45.76206" lon="4.66085">
        <ele>465.866995</ele>
        <time>2021-04-24T08:37:26.500Z</time>
      </trkpt>
      <trkpt lat="45.76196" lon="4.66082">
        <ele>465.421644</ele>
        <time>2021-04-24T08:37:27.495Z</time>
      </trkpt>
      <trkpt lat="45.76187" lon="4.66078">
        <ele>464.972089</ele>
        <time>2021-04-24T08:37:28.496Z</time>
      </trkpt>
      <trkpt lat="45.76177" lon="4.66073">
        <ele>464.513504</ele>
        <time>2021-04-24T08:37:29.493Z</time>
      </trkpt>
      <trkpt lat="45.76167" lon="4.66067">
        <ele>464.025484</ele>
        <time>2021-04-24T08:37:30.525Z</time>
      </trkpt>
      <trkpt lat="45.76158" lon="4.6606">
        <ele>463.539431</ele>
        <time>2021-04-24T08:37:31.499Z</time>
      </trkpt>
      <trkpt lat="45.76149" lon="4.66051">
        <ele>463.061511</ele>
        <time>2021-04-24T08:37:32.498Z</time>
      </trkpt>
      <trkpt lat="45.76143" lon="4.66038">
        <ele>462.575699</ele>
        <time>2021-04-24T08:37:33.517Z</time>
      </trkpt>
      <trkpt lat="45.76137" lon="4.66025">
        <ele>462.066524</ele>
        <time>2021-04-24T08:37:34.543Z</time>
      </trkpt>
      <trkpt lat="45.76131" lon="4.66011">
        <ele>461.547678</ele>
        <time>2021-04-24T08:37:35.519Z</time>
      </trkpt>
      <trkpt lat="45.76126" lon="4.65997">
        <ele>461.126903</ele>
        <time>2021-04-24T08:37:36.514Z</time>
      </trkpt>
      <trkpt lat="45.7612" lon="4.65983">
        <ele>460.713438</ele>
        <time>2021-04-24T08:37:37.511Z</time>
      </trkpt>
      <trkpt lat="45.76115" lon="4.65969">
        <ele>460.27581</ele>
        <time>2021-04-24T08:37:38.507Z</time>
      </trkpt>
      <trkpt lat="45.76109" lon="4.65954">
        <ele>459.839791</ele>
        <time>2021-04-24T08:37:39.515Z</time>
      </trkpt>
      <trkpt lat="45.76104" lon="4.65941">
        <ele>459.420186</ele>
        <time>2021-04-24T08:37:40.496Z</time>
      </trkpt>
      <trkpt lat="45.76098" lon="4.65929">
        <ele>459.036156</ele>
        <time>2021-04-24T08:37:41.523Z</time>
      </trkpt>
      <trkpt lat="45.76093" lon="4.65916">
        <ele>458.647536</ele>
        <time>2021-04-24T08:37:42.509Z</time>
      </trkpt>
      <trkpt lat="45.76086" lon="4.65905">
        <ele>458.261057</ele>
        <time>2021-04-24T08:37:43.515Z</time>
      </trkpt>
      <trkpt lat="45.76079" lon="4.65895">
        <ele>457.884459</ele>
        <time>2021-04-24T08:37:44.508Z</time>
      </trkpt>
      <trkpt lat="45.76071" lon="4.65887">
        <ele>457.506932</ele>
        <time>2021-04-24T08:37:45.506Z</time>
      </trkpt>
      <trkpt lat="45.76061" lon="4.65882">
        <ele>457.090249</ele>
        <time>2021-04-24T08:37:46.524Z</time>
      </trkpt>
      <trkpt lat="45.7605" lon="4.65877">
        <ele>456.69083</ele>
        <time>2021-04-24T08:37:47.507Z</time>
      </trkpt>
      <trkpt lat="45.76039" lon="4.65875">
        <ele>456.265274</ele>
        <time>2021-04-24T08:37:48.504Z</time>
      </trkpt>
      <trkpt lat="45.76028" lon="4.65877">
        <ele>455.822661</ele>
        <time>2021-04-24T08:37:49.517Z</time>
      </trkpt>
      <trkpt lat="45.76018" lon="4.65878">
        <ele>455.44224</ele>
        <time>2021-04-24T08:37:50.514Z</time>
      </trkpt>
      <trkpt lat="45.76008" lon="4.65883">
        <ele>455.051462</ele>
        <time>2021-04-24T08:37:51.523Z</time>
      </trkpt>
      <trkpt lat="45.75999" lon="4.65889">
        <ele>454.676499</ele>
        <time>2021-04-24T08:37:52.524Z</time>
      </trkpt>
      <trkpt lat="45.75992" lon="4.65897">
        <ele>454.316225</ele>
        <time>2021-04-24T08:37:53.516Z</time>
      </trkpt>
      <trkpt lat="45.75984" lon="4.65905">
        <ele>453.951491</ele>
        <time>2021-04-24T08:37:54.503Z</time>
      </trkpt>
      <trkpt lat="45.75979" lon="4.65916">
        <ele>453.58736</ele>
        <time>2021-04-24T08:37:55.498Z</time>
      </trkpt>
      <trkpt lat="45.75973" lon="4.65928">
        <ele>453.19893</ele>
        <time>2021-04-24T08:37:56.502Z</time>
      </trkpt>
      <trkpt lat="45.75967" lon="4.65939">
        <ele>452.824215</ele>
        <time>2021-04-24T08:37:57.498Z</time>
      </trkpt>
      <trkpt lat="45.75956" lon="4.65959">
        <ele>452.141949</ele>
        <time>2021-04-24T08:37:59.506Z</time>
      </trkpt>
      <trkpt lat="45.7595" lon="4.65969">
        <ele>451.784433</ele>
        <time>2021-04-24T08:38:00.500Z</time>
      </trkpt>
      <trkpt lat="45.75939" lon="4.65987">
        <ele>451.156774</ele>
        <time>2021-04-24T08:38:02.495Z</time>
      </trkpt>
      <trkpt lat="45.75925" lon="4.66001">
        <ele>450.486727</ele>
        <time>2021-04-24T08:38:04.497Z</time>
      </trkpt>
      <trkpt lat="45.7591" lon="4.66014">
        <ele>449.820377</ele>
        <time>2021-04-24T08:38:06.503Z</time>
      </trkpt>
      <trkpt lat="45.75894" lon="4.66021">
        <ele>449.149416</ele>
        <time>2021-04-24T08:38:08.513Z</time>
      </trkpt>
      <trkpt lat="45.75885" lon="4.66024">
        <ele>448.798307</ele>
        <time>2021-04-24T08:38:09.504Z</time>
      </trkpt>
      <trkpt lat="45.75869" lon="4.66029">
        <ele>448.16467</ele>
        <time>2021-04-24T08:38:11.512Z</time>
      </trkpt>
      <trkpt lat="45.75853" lon="4.66035">
        <ele>447.956115</ele>
        <time>2021-04-24T08:38:13.562Z</time>
      </trkpt>
      <trkpt lat="45.75837" lon="4.66039">
        <ele>448.292521</ele>
        <time>2021-04-24T08:38:15.522Z</time>
      </trkpt>
      <trkpt lat="45.75823" lon="4.66041">
        <ele>448.5786</ele>
        <time>2021-04-24T08:38:17.512Z</time>
      </trkpt>
      <trkpt lat="45.7581" lon="4.66044">
        <ele>448.852635</ele>
        <time>2021-04-24T08:38:19.496Z</time>
      </trkpt>
      <trkpt lat="45.75799" lon="4.66045">
        <ele>449.092523</ele>
        <time>2021-04-24T08:38:21.508Z</time>
      </trkpt>
      <trkpt lat="45.75786" lon="4.66046">
        <ele>449.344891</ele>
        <time>2021-04-24T08:38:23.503Z</time>
      </trkpt>
      <trkpt lat="45.75774" lon="4.66047">
        <ele>449.595259</ele>
        <time>2021-04-24T08:38:25.507Z</time>
      </trkpt>
      <trkpt lat="45.75761" lon="4.66048">
        <ele>449.885494</ele>
        <time>2021-04-24T08:38:27.505Z</time>
      </trkpt>
      <trkpt lat="45.75748" lon="4.66045">
        <ele>450.152025</ele>
        <time>2021-04-24T08:38:29.521Z</time>
      </trkpt>
      <trkpt lat="45.75733" lon="4.66038">
        <ele>450.472023</ele>
        <time>2021-04-24T08:38:31.503Z</time>
      </trkpt>
      <trkpt lat="45.75719" lon="4.66038">
        <ele>450.769907</ele>
        <time>2021-04-24T08:38:33.507Z</time>
      </trkpt>
      <trkpt lat="45.75704" lon="4.66032">
        <ele>451.085922</ele>
        <time>2021-04-24T08:38:35.542Z</time>
      </trkpt>
      <trkpt lat="45.7569" lon="4.6603">
        <ele>451.380126</ele>
        <time>2021-04-24T08:38:37.526Z</time>
      </trkpt>
      <trkpt lat="45.75677" lon="4.66027">
        <ele>451.276242</ele>
        <time>2021-04-24T08:38:39.505Z</time>
      </trkpt>
      <trkpt lat="45.75663" lon="4.66024">
        <ele>450.604016</ele>
        <time>2021-04-24T08:38:41.525Z</time>
      </trkpt>
      <trkpt lat="45.75647" lon="4.66024">
        <ele>449.856403</ele>
        <time>2021-04-24T08:38:43.501Z</time>
      </trkpt>
      <trkpt lat="45.75631" lon="4.66023">
        <ele>449.074472</ele>
        <time>2021-04-24T08:38:45.509Z</time>
      </trkpt>
      <trkpt lat="45.75613" lon="4.6602">
        <ele>448.210803</ele>
        <time>2021-04-24T08:38:47.554Z</time>
      </trkpt>
      <trkpt lat="45.75604" lon="4.66021">
        <ele>447.766873</ele>
        <time>2021-04-24T08:38:48.502Z</time>
      </trkpt>
      <trkpt lat="45.75594" lon="4.6602">
        <ele>447.293776</ele>
        <time>2021-04-24T08:38:49.503Z</time>
      </trkpt>
      <trkpt lat="45.75585" lon="4.66019">
        <ele>446.823219</ele>
        <time>2021-04-24T08:38:50.526Z</time>
      </trkpt>
      <trkpt lat="45.75574" lon="4.66018">
        <ele>446.306872</ele>
        <time>2021-04-24T08:38:51.512Z</time>
      </trkpt>
      <trkpt lat="45.75555" lon="4.66009">
        <ele>445.349812</ele>
        <time>2021-04-24T08:38:53.511Z</time>
      </trkpt>
      <trkpt lat="45.75545" lon="4.66006">
        <ele>444.858807</ele>
        <time>2021-04-24T08:38:54.494Z</time>
      </trkpt>
      <trkpt lat="45.75537" lon="4.66001">
        <ele>444.406717</ele>
        <time>2021-04-24T08:38:55.495Z</time>
      </trkpt>
      <trkpt lat="45.75527" lon="4.65997">
        <ele>443.915259</ele>
        <time>2021-04-24T08:38:56.498Z</time>
      </trkpt>
      <trkpt lat="45.75517" lon="4.65991">
        <ele>443.403322</ele>
        <time>2021-04-24T08:38:57.504Z</time>
      </trkpt>
      <trkpt lat="45.75507" lon="4.65988">
        <ele>442.929425</ele>
        <time>2021-04-24T08:38:58.492Z</time>
      </trkpt>
      <trkpt lat="45.75499" lon="4.65981">
        <ele>442.982814</ele>
        <time>2021-04-24T08:38:59.500Z</time>
      </trkpt>
      <trkpt lat="45.7549" lon="4.65975">
        <ele>443.101149</ele>
        <time>2021-04-24T08:39:00.501Z</time>
      </trkpt>
      <trkpt lat="45.75482" lon="4.65968">
        <ele>443.220878</ele>
        <time>2021-04-24T08:39:01.508Z</time>
      </trkpt>
      <trkpt lat="45.75473" lon="4.65961">
        <ele>443.352226</ele>
        <time>2021-04-24T08:39:02.509Z</time>
      </trkpt>
      <trkpt lat="45.75465" lon="4.65952">
        <ele>443.477997</ele>
        <time>2021-04-24T08:39:03.498Z</time>
      </trkpt>
      <trkpt lat="45.75457" lon="4.65943">
        <ele>443.603486</ele>
        <time>2021-04-24T08:39:04.502Z</time>
      </trkpt>
      <trkpt lat="45.75447" lon="4.65935">
        <ele>443.744142</ele>
        <time>2021-04-24T08:39:05.513Z</time>
      </trkpt>
      <trkpt lat="45.75439" lon="4.65927">
        <ele>443.870679</ele>
        <time>2021-04-24T08:39:06.505Z</time>
      </trkpt>
      <trkpt lat="45.75431" lon="4.65919">
        <ele>443.987138</ele>
        <time>2021-04-24T08:39:07.508Z</time>
      </trkpt>
      <trkpt lat="45.75418" lon="4.65902">
        <ele>444.209015</ele>
        <time>2021-04-24T08:39:09.514Z</time>
      </trkpt>
      <trkpt lat="45.75403" lon="4.6589">
        <ele>444.422019</ele>
        <time>2021-04-24T08:39:11.520Z</time>
      </trkpt>
      <trkpt lat="45.7539" lon="4.65876">
        <ele>444.627467</ele>
        <time>2021-04-24T08:39:13.509Z</time>
      </trkpt>
      <trkpt lat="45.75377" lon="4.65864">
        <ele>444.820105</ele>
        <time>2021-04-24T08:39:15.520Z</time>
      </trkpt>
      <trkpt lat="45.75364" lon="4.65853">
        <ele>445.003904</ele>
        <time>2021-04-24T08:39:17.516Z</time>
      </trkpt>
      <trkpt lat="45.75352" lon="4.65838">
        <ele>445.593662</ele>
        <time>2021-04-24T08:39:19.511Z</time>
      </trkpt>
      <trkpt lat="45.75342" lon="4.6583">
        <ele>446.463317</ele>
        <time>2021-04-24T08:39:21.528Z</time>
      </trkpt>
      <trkpt lat="45.75331" lon="4.65818">
        <ele>447.472198</ele>
        <time>2021-04-24T08:39:23.505Z</time>
      </trkpt>
      <trkpt lat="45.75324" lon="4.65808">
        <ele>448.161591</ele>
        <time>2021-04-24T08:39:25.510Z</time>
      </trkpt>
      <trkpt lat="45.75311" lon="4.65804">
        <ele>449.078887</ele>
        <time>2021-04-24T08:39:28.515Z</time>
      </trkpt>
      <trkpt lat="45.75298" lon="4.65797">
        <ele>450.070197</ele>
        <time>2021-04-24T08:39:31.504Z</time>
      </trkpt>
      <trkpt lat="45.75286" lon="4.65797">
        <ele>450.919174</ele>
        <time>2021-04-24T08:39:34.502Z</time>
      </trkpt>
      <trkpt lat="45.75277" lon="4.65803">
        <ele>451.693022</ele>
        <time>2021-04-24T08:39:37.491Z</time>
      </trkpt>
      <trkpt lat="45.75267" lon="4.65814">
        <ele>452.595663</ele>
        <time>2021-04-24T08:39:40.495Z</time>
      </trkpt>
      <trkpt lat="45.75257" lon="4.65825">
        <ele>453.510369</ele>
        <time>2021-04-24T08:39:43.496Z</time>
      </trkpt>
      <trkpt lat="45.75247" lon="4.65835">
        <ele>454.377864</ele>
        <time>2021-04-24T08:39:46.498Z</time>
      </trkpt>
      <trkpt lat="45.7524" lon="4.65844">
        <ele>455.035039</ele>
        <time>2021-04-24T08:39:48.501Z</time>
      </trkpt>
      <trkpt lat="45.75231" lon="4.65856">
        <ele>455.951344</ele>
        <time>2021-04-24T08:39:51.512Z</time>
      </trkpt>
      <trkpt lat="45.75221" lon="4.65867">
        <ele>456.815624</ele>
        <time>2021-04-24T08:39:54.506Z</time>
      </trkpt>
      <trkpt lat="45.75213" lon="4.65878">
        <ele>457.62538</ele>
        <time>2021-04-24T08:39:57.497Z</time>
      </trkpt>
      <trkpt lat="45.75204" lon="4.65887">
        <ele>458.152452</ele>
        <time>2021-04-24T08:40:00.498Z</time>
      </trkpt>
      <trkpt lat="45.75196" lon="4.65894">
        <ele>458.355477</ele>
        <time>2021-04-24T08:40:03.508Z</time>
      </trkpt>
      <trkpt lat="45.75188" lon="4.65903">
        <ele>458.594167</ele>
        <time>2021-04-24T08:40:06.513Z</time>
      </trkpt>
      <trkpt lat="45.75179" lon="4.65913">
        <ele>458.853153</ele>
        <time>2021-04-24T08:40:09.524Z</time>
      </trkpt>
      <trkpt lat="45.75171" lon="4.65925">
        <ele>459.118309</ele>
        <time>2021-04-24T08:40:12.534Z</time>
      </trkpt>
      <trkpt lat="45.75165" lon="4.65939">
        <ele>459.375519</ele>
        <time>2021-04-24T08:40:15.519Z</time>
      </trkpt>
      <trkpt lat="45.75163" lon="4.65953">
        <ele>459.599812</ele>
        <time>2021-04-24T08:40:18.517Z</time>
      </trkpt>
      <trkpt lat="45.75164" lon="4.65968">
        <ele>459.834444</ele>
        <time>2021-04-24T08:40:21.557Z</time>
      </trkpt>
      <trkpt lat="45.75167" lon="4.65983">
        <ele>460.077059</ele>
        <time>2021-04-24T08:40:24.518Z</time>
      </trkpt>
      <trkpt lat="45.75171" lon="4.65997">
        <ele>460.329041</ele>
        <time>2021-04-24T08:40:27.510Z</time>
      </trkpt>
      <trkpt lat="45.75178" lon="4.66011">
        <ele>460.590512</ele>
        <time>2021-04-24T08:40:30.513Z</time>
      </trkpt>
      <trkpt lat="45.75186" lon="4.66022">
        <ele>460.839975</ele>
        <time>2021-04-24T08:40:33.520Z</time>
      </trkpt>
      <trkpt lat="45.75197" lon="4.66029">
        <ele>461.107337</ele>
        <time>2021-04-24T08:40:36.507Z</time>
      </trkpt>
      <trkpt lat="45.75208" lon="4.66035">
        <ele>461.382971</ele>
        <time>2021-04-24T08:40:39.516Z</time>
      </trkpt>
      <trkpt lat="45.75219" lon="4.6604">
        <ele>461.638838</ele>
        <time>2021-04-24T08:40:42.502Z</time>
      </trkpt>
      <trkpt lat="45.7523" lon="4.66046">
        <ele>461.9111</ele>
        <time>2021-04-24T08:40:45.510Z</time>
      </trkpt>
      <trkpt lat="45.75241" lon="4.66053">
        <ele>462.231073</ele>
        <time>2021-04-24T08:40:48.509Z</time>
      </trkpt>
      <trkpt lat="45.75251" lon="4.66063">
        <ele>462.625995</ele>
        <time>2021-04-24T08:40:51.506Z</time>
      </trkpt>
      <trkpt lat="45.75258" lon="4.66076">
        <ele>463.023232</ele>
        <time>2021-04-24T08:40:54.522Z</time>
      </trkpt>
      <trkpt lat="45.75262" lon="4.66092">
        <ele>463.428587</ele>
        <time>2021-04-24T08:40:57.502Z</time>
      </trkpt>
      <trkpt lat="45.75263" lon="4.6611">
        <ele>463.830889</ele>
        <time>2021-04-24T08:41:00.515Z</time>
      </trkpt>
      <trkpt lat="45.7526" lon="4.66126">
        <ele>464.225512</ele>
        <time>2021-04-24T08:41:03.508Z</time>
      </trkpt>
      <trkpt lat="45.75253" lon="4.66141">
        <ele>464.645158</ele>
        <time>2021-04-24T08:41:06.504Z</time>
      </trkpt>
      <trkpt lat="45.75246" lon="4.66155">
        <ele>465.062964</ele>
        <time>2021-04-24T08:41:09.504Z</time>
      </trkpt>
      <trkpt lat="45.75239" lon="4.66169">
        <ele>465.478544</ele>
        <time>2021-04-24T08:41:12.518Z</time>
      </trkpt>
      <trkpt lat="45.75231" lon="4.66184">
        <ele>465.901886</ele>
        <time>2021-04-24T08:41:15.508Z</time>
      </trkpt>
      <trkpt lat="45.75223" lon="4.66199">
        <ele>466.342641</ele>
        <time>2021-04-24T08:41:18.513Z</time>
      </trkpt>
      <trkpt lat="45.75216" lon="4.66214">
        <ele>466.767868</ele>
        <time>2021-04-24T08:41:21.516Z</time>
      </trkpt>
      <trkpt lat="45.75209" lon="4.6623">
        <ele>467.209133</ele>
        <time>2021-04-24T08:41:24.514Z</time>
      </trkpt>
      <trkpt lat="45.75204" lon="4.66241">
        <ele>467.511196</ele>
        <time>2021-04-24T08:41:26.529Z</time>
      </trkpt>
      <trkpt lat="45.75198" lon="4.66256">
        <ele>467.936956</ele>
        <time>2021-04-24T08:41:29.537Z</time>
      </trkpt>
      <trkpt lat="45.7519" lon="4.66269">
        <ele>468.641183</ele>
        <time>2021-04-24T08:41:32.514Z</time>
      </trkpt>
      <trkpt lat="45.75182" lon="4.66283">
        <ele>469.650192</ele>
        <time>2021-04-24T08:41:35.541Z</time>
      </trkpt>
      <trkpt lat="45.75175" lon="4.66296">
        <ele>470.615467</ele>
        <time>2021-04-24T08:41:38.518Z</time>
      </trkpt>
      <trkpt lat="45.75167" lon="4.66306">
        <ele>471.54759</ele>
        <time>2021-04-24T08:41:41.559Z</time>
      </trkpt>
      <trkpt lat="45.75159" lon="4.66316">
        <ele>472.428976</ele>
        <time>2021-04-24T08:41:44.509Z</time>
      </trkpt>
      <trkpt lat="45.7515" lon="4.66326">
        <ele>473.349789</ele>
        <time>2021-04-24T08:41:47.515Z</time>
      </trkpt>
      <trkpt lat="45.75141" lon="4.66337">
        <ele>474.359813</ele>
        <time>2021-04-24T08:41:50.511Z</time>
      </trkpt>
      <trkpt lat="45.75131" lon="4.66349">
        <ele>475.443277</ele>
        <time>2021-04-24T08:41:53.515Z</time>
      </trkpt>
      <trkpt lat="45.75119" lon="4.66359">
        <ele>476.53395</ele>
        <time>2021-04-24T08:41:56.557Z</time>
      </trkpt>
      <trkpt lat="45.75111" lon="4.66365">
        <ele>477.337755</ele>
        <time>2021-04-24T08:41:58.504Z</time>
      </trkpt>
      <trkpt lat="45.75102" lon="4.6637">
        <ele>478.110812</ele>
        <time>2021-04-24T08:42:00.517Z</time>
      </trkpt>
      <trkpt lat="45.75093" lon="4.66377">
        <ele>478.949046</ele>
        <time>2021-04-24T08:42:02.508Z</time>
      </trkpt>
      <trkpt lat="45.75084" lon="4.66383">
        <ele>479.754911</ele>
        <time>2021-04-24T08:42:04.504Z</time>
      </trkpt>
      <trkpt lat="45.75075" lon="4.66391">
        <ele>480.638549</ele>
        <time>2021-04-24T08:42:06.503Z</time>
      </trkpt>
      <trkpt lat="45.75067" lon="4.66399">
        <ele>481.463335</ele>
        <time>2021-04-24T08:42:08.525Z</time>
      </trkpt>
      <trkpt lat="45.75057" lon="4.66406">
        <ele>482.382513</ele>
        <time>2021-04-24T08:42:10.512Z</time>
      </trkpt>
      <trkpt lat="45.75048" lon="4.66415">
        <ele>482.981825</ele>
        <time>2021-04-24T08:42:12.506Z</time>
      </trkpt>
      <trkpt lat="45.75038" lon="4.66421">
        <ele>482.551817</ele>
        <time>2021-04-24T08:42:14.501Z</time>
      </trkpt>
      <trkpt lat="45.75027" lon="4.66427">
        <ele>482.108734</ele>
        <time>2021-04-24T08:42:16.491Z</time>
      </trkpt>
      <trkpt lat="45.75016" lon="4.66434">
        <ele>481.631899</ele>
        <time>2021-04-24T08:42:18.503Z</time>
      </trkpt>
      <trkpt lat="45.75004" lon="4.66438">
        <ele>481.16229</ele>
        <time>2021-04-24T08:42:20.508Z</time>
      </trkpt>
      <trkpt lat="45.74994" lon="4.66443">
        <ele>480.727518</ele>
        <time>2021-04-24T08:42:22.510Z</time>
      </trkpt>
      <trkpt lat="45.74983" lon="4.66447">
        <ele>480.306232</ele>
        <time>2021-04-24T08:42:24.521Z</time>
      </trkpt>
      <trkpt lat="45.74973" lon="4.66452">
        <ele>479.871174</ele>
        <time>2021-04-24T08:42:26.494Z</time>
      </trkpt>
      <trkpt lat="45.74961" lon="4.66453">
        <ele>479.427288</ele>
        <time>2021-04-24T08:42:28.508Z</time>
      </trkpt>
      <trkpt lat="45.7495" lon="4.66452">
        <ele>478.980304</ele>
        <time>2021-04-24T08:42:30.503Z</time>
      </trkpt>
      <trkpt lat="45.7494" lon="4.66446">
        <ele>478.541842</ele>
        <time>2021-04-24T08:42:32.504Z</time>
      </trkpt>
      <trkpt lat="45.7493" lon="4.66441">
        <ele>478.137481</ele>
        <time>2021-04-24T08:42:34.505Z</time>
      </trkpt>
      <trkpt lat="45.74923" lon="4.6643">
        <ele>477.73874</ele>
        <time>2021-04-24T08:42:36.516Z</time>
      </trkpt>
      <trkpt lat="45.74915" lon="4.6642">
        <ele>477.30905</ele>
        <time>2021-04-24T08:42:38.505Z</time>
      </trkpt>
      <trkpt lat="45.74906" lon="4.66409">
        <ele>476.848441</ele>
        <time>2021-04-24T08:42:40.500Z</time>
      </trkpt>
      <trkpt lat="45.74897" lon="4.66398">
        <ele>476.384899</ele>
        <time>2021-04-24T08:42:42.531Z</time>
      </trkpt>
      <trkpt lat="45.74889" lon="4.66385">
        <ele>476.042944</ele>
        <time>2021-04-24T08:42:45.512Z</time>
      </trkpt>
      <trkpt lat="45.74879" lon="4.66378">
        <ele>476.019615</ele>
        <time>2021-04-24T08:42:48.545Z</time>
      </trkpt>
      <trkpt lat="45.7487" lon="4.66371">
        <ele>475.997746</ele>
        <time>2021-04-24T08:42:50.513Z</time>
      </trkpt>
      <trkpt lat="45.74862" lon="4.6636">
        <ele>475.973104</ele>
        <time>2021-04-24T08:42:52.515Z</time>
      </trkpt>
      <trkpt lat="45.74853" lon="4.66349">
        <ele>475.945754</ele>
        <time>2021-04-24T08:42:54.533Z</time>
      </trkpt>
      <trkpt lat="45.74843" lon="4.66337">
        <ele>475.917765</ele>
        <time>2021-04-24T08:42:56.525Z</time>
      </trkpt>
      <trkpt lat="45.74834" lon="4.6632">
        <ele>475.885322</ele>
        <time>2021-04-24T08:42:58.511Z</time>
      </trkpt>
      <trkpt lat="45.74824" lon="4.66303">
        <ele>475.851575</ele>
        <time>2021-04-24T08:43:00.502Z</time>
      </trkpt>
      <trkpt lat="45.74815" lon="4.66285">
        <ele>475.816375</ele>
        <time>2021-04-24T08:43:02.513Z</time>
      </trkpt>
      <trkpt lat="45.74804" lon="4.66267">
        <ele>475.779702</ele>
        <time>2021-04-24T08:43:04.508Z</time>
      </trkpt>
      <trkpt lat="45.74793" lon="4.66249">
        <ele>475.742852</ele>
        <time>2021-04-24T08:43:06.515Z</time>
      </trkpt>
      <trkpt lat="45.74781" lon="4.66229">
        <ele>475.703077</ele>
        <time>2021-04-24T08:43:08.513Z</time>
      </trkpt>
      <trkpt lat="45.74774" lon="4.6622">
        <ele>475.682259</ele>
        <time>2021-04-24T08:43:09.511Z</time>
      </trkpt>
      <trkpt lat="45.74768" lon="4.6621">
        <ele>475.661921</ele>
        <time>2021-04-24T08:43:10.511Z</time>
      </trkpt>
      <trkpt lat="45.74763" lon="4.66197">
        <ele>475.179415</ele>
        <time>2021-04-24T08:43:11.501Z</time>
      </trkpt>
      <trkpt lat="45.74756" lon="4.66189">
        <ele>474.572027</ele>
        <time>2021-04-24T08:43:12.500Z</time>
      </trkpt>
      <trkpt lat="45.74748" lon="4.66182">
        <ele>473.932199</ele>
        <time>2021-04-24T08:43:13.514Z</time>
      </trkpt>
      <trkpt lat="45.74739" lon="4.66181">
        <ele>473.309326</ele>
        <time>2021-04-24T08:43:14.525Z</time>
      </trkpt>
      <trkpt lat="45.74725" lon="4.66188">
        <ele>472.351277</ele>
        <time>2021-04-24T08:43:16.494Z</time>
      </trkpt>
      <trkpt lat="45.74717" lon="4.66203">
        <ele>471.431355</ele>
        <time>2021-04-24T08:43:18.503Z</time>
      </trkpt>
      <trkpt lat="45.7471" lon="4.66221">
        <ele>470.487687</ele>
        <time>2021-04-24T08:43:20.498Z</time>
      </trkpt>
      <trkpt lat="45.74712" lon="4.6624">
        <ele>469.60545</ele>
        <time>2021-04-24T08:43:22.508Z</time>
      </trkpt>
      <trkpt lat="45.74713" lon="4.66258">
        <ele>468.749476</ele>
        <time>2021-04-24T08:43:24.509Z</time>
      </trkpt>
      <trkpt lat="45.74713" lon="4.66276">
        <ele>467.908369</ele>
        <time>2021-04-24T08:43:26.509Z</time>
      </trkpt>
      <trkpt lat="45.7471" lon="4.66295">
        <ele>466.977033</ele>
        <time>2021-04-24T08:43:28.505Z</time>
      </trkpt>
      <trkpt lat="45.74706" lon="4.66313">
        <ele>466.101221</ele>
        <time>2021-04-24T08:43:30.500Z</time>
      </trkpt>
      <trkpt lat="45.74702" lon="4.66331">
        <ele>465.240154</ele>
        <time>2021-04-24T08:43:32.520Z</time>
      </trkpt>
      <trkpt lat="45.74696" lon="4.66348">
        <ele>464.311094</ele>
        <time>2021-04-24T08:43:34.507Z</time>
      </trkpt>
      <trkpt lat="45.74689" lon="4.66365">
        <ele>463.648099</ele>
        <time>2021-04-24T08:43:36.525Z</time>
      </trkpt>
      <trkpt lat="45.74681" lon="4.66377">
        <ele>463.756117</ele>
        <time>2021-04-24T08:43:38.507Z</time>
      </trkpt>
      <trkpt lat="45.74673" lon="4.66386">
        <ele>463.854356</ele>
        <time>2021-04-24T08:43:40.513Z</time>
      </trkpt>
      <trkpt lat="45.74662" lon="4.66398">
        <ele>463.985538</ele>
        <time>2021-04-24T08:43:42.506Z</time>
      </trkpt>
      <trkpt lat="45.7465" lon="4.66409">
        <ele>464.117264</ele>
        <time>2021-04-24T08:43:44.497Z</time>
      </trkpt>
      <trkpt lat="45.74638" lon="4.6642">
        <ele>464.247716</ele>
        <time>2021-04-24T08:43:46.515Z</time>
      </trkpt>
      <trkpt lat="45.74627" lon="4.6643">
        <ele>464.376879</ele>
        <time>2021-04-24T08:43:48.499Z</time>
      </trkpt>
      <trkpt lat="45.74614" lon="4.6644">
        <ele>464.510801</ele>
        <time>2021-04-24T08:43:50.522Z</time>
      </trkpt>
      <trkpt lat="45.74601" lon="4.66451">
        <ele>464.652881</ele>
        <time>2021-04-24T08:43:52.505Z</time>
      </trkpt>
      <trkpt lat="45.74589" lon="4.66459">
        <ele>464.778431</ele>
        <time>2021-04-24T08:43:54.502Z</time>
      </trkpt>
      <trkpt lat="45.74578" lon="4.66464">
        <ele>464.889269</ele>
        <time>2021-04-24T08:43:56.503Z</time>
      </trkpt>
      <trkpt lat="45.74567" lon="4.6647">
        <ele>465.003102</ele>
        <time>2021-04-24T08:43:58.518Z</time>
      </trkpt>
      <trkpt lat="45.74555" lon="4.66473">
        <ele>465.121795</ele>
        <time>2021-04-24T08:44:00.504Z</time>
      </trkpt>
      <trkpt lat="45.74542" lon="4.66475">
        <ele>465.245547</ele>
        <time>2021-04-24T08:44:02.505Z</time>
      </trkpt>
      <trkpt lat="45.74528" lon="4.66476">
        <ele>465.467806</ele>
        <time>2021-04-24T08:44:04.521Z</time>
      </trkpt>
      <trkpt lat="45.74516" lon="4.66475">
        <ele>465.817161</ele>
        <time>2021-04-24T08:44:06.512Z</time>
      </trkpt>
      <trkpt lat="45.74504" lon="4.66474">
        <ele>466.139385</ele>
        <time>2021-04-24T08:44:08.514Z</time>
      </trkpt>
      <trkpt lat="45.74493" lon="4.66472">
        <ele>466.45202</ele>
        <time>2021-04-24T08:44:10.518Z</time>
      </trkpt>
      <trkpt lat="45.7448" lon="4.6647">
        <ele>466.808096</ele>
        <time>2021-04-24T08:44:12.546Z</time>
      </trkpt>
      <trkpt lat="45.74467" lon="4.66469">
        <ele>467.148922</ele>
        <time>2021-04-24T08:44:14.502Z</time>
      </trkpt>
      <trkpt lat="45.74455" lon="4.66467">
        <ele>467.500659</ele>
        <time>2021-04-24T08:44:16.506Z</time>
      </trkpt>
      <trkpt lat="45.74443" lon="4.66463">
        <ele>467.844305</ele>
        <time>2021-04-24T08:44:18.510Z</time>
      </trkpt>
      <trkpt lat="45.74428" lon="4.66461">
        <ele>468.252147</ele>
        <time>2021-04-24T08:44:20.504Z</time>
      </trkpt>
      <trkpt lat="45.74413" lon="4.66457">
        <ele>468.650811</ele>
        <time>2021-04-24T08:44:22.512Z</time>
      </trkpt>
      <trkpt lat="45.74398" lon="4.66454">
        <ele>469.073838</ele>
        <time>2021-04-24T08:44:24.501Z</time>
      </trkpt>
      <trkpt lat="45.74384" lon="4.66449">
        <ele>469.474889</ele>
        <time>2021-04-24T08:44:26.517Z</time>
      </trkpt>
      <trkpt lat="45.74372" lon="4.66441">
        <ele>469.830324</ele>
        <time>2021-04-24T08:44:28.521Z</time>
      </trkpt>
      <trkpt lat="45.74361" lon="4.66437">
        <ele>470.140753</ele>
        <time>2021-04-24T08:44:30.510Z</time>
      </trkpt>
      <trkpt lat="45.74352" lon="4.66433">
        <ele>470.659618</ele>
        <time>2021-04-24T08:44:32.555Z</time>
      </trkpt>
      <trkpt lat="45.74342" lon="4.66429">
        <ele>471.358558</ele>
        <time>2021-04-24T08:44:34.499Z</time>
      </trkpt>
      <trkpt lat="45.7433" lon="4.66424">
        <ele>472.284996</ele>
        <time>2021-04-24T08:44:37.499Z</time>
      </trkpt>
      <trkpt lat="45.74321" lon="4.66421">
        <ele>472.955298</ele>
        <time>2021-04-24T08:44:39.496Z</time>
      </trkpt>
      <trkpt lat="45.74313" lon="4.66417">
        <ele>473.608905</ele>
        <time>2021-04-24T08:44:41.505Z</time>
      </trkpt>
      <trkpt lat="45.74303" lon="4.66416">
        <ele>474.333635</ele>
        <time>2021-04-24T08:44:43.506Z</time>
      </trkpt>
      <trkpt lat="45.74292" lon="4.66415">
        <ele>475.098357</ele>
        <time>2021-04-24T08:44:45.496Z</time>
      </trkpt>
      <trkpt lat="45.74281" lon="4.66415">
        <ele>475.870946</ele>
        <time>2021-04-24T08:44:47.500Z</time>
      </trkpt>
      <trkpt lat="45.74272" lon="4.66418">
        <ele>476.538604</ele>
        <time>2021-04-24T08:44:49.500Z</time>
      </trkpt>
      <trkpt lat="45.74261" lon="4.66417">
        <ele>477.339637</ele>
        <time>2021-04-24T08:44:51.499Z</time>
      </trkpt>
      <trkpt lat="45.74251" lon="4.66421">
        <ele>478.112559</ele>
        <time>2021-04-24T08:44:53.493Z</time>
      </trkpt>
      <trkpt lat="45.74237" lon="4.66422">
        <ele>479.108977</ele>
        <time>2021-04-24T08:44:56.506Z</time>
      </trkpt>
      <trkpt lat="45.74226" lon="4.66422">
        <ele>479.895446</ele>
        <time>2021-04-24T08:44:58.512Z</time>
      </trkpt>
      <trkpt lat="45.74214" lon="4.66421">
        <ele>480.749487</ele>
        <time>2021-04-24T08:45:00.530Z</time>
      </trkpt>
      <trkpt lat="45.74205" lon="4.66421">
        <ele>481.42031</ele>
        <time>2021-04-24T08:45:02.513Z</time>
      </trkpt>
      <trkpt lat="45.74195" lon="4.66418">
        <ele>482.131194</ele>
        <time>2021-04-24T08:45:04.504Z</time>
      </trkpt>
      <trkpt lat="45.74184" lon="4.66419">
        <ele>482.912158</ele>
        <time>2021-04-24T08:45:06.504Z</time>
      </trkpt>
      <trkpt lat="45.74175" lon="4.66423">
        <ele>483.314566</ele>
        <time>2021-04-24T08:45:08.505Z</time>
      </trkpt>
      <trkpt lat="45.74166" lon="4.6643">
        <ele>483.474281</ele>
        <time>2021-04-24T08:45:10.504Z</time>
      </trkpt>
      <trkpt lat="45.74157" lon="4.6644">
        <ele>483.642634</ele>
        <time>2021-04-24T08:45:12.503Z</time>
      </trkpt>
      <trkpt lat="45.7415" lon="4.6645">
        <ele>483.792519</ele>
        <time>2021-04-24T08:45:14.516Z</time>
      </trkpt>
      <trkpt lat="45.74145" lon="4.66463">
        <ele>483.954254</ele>
        <time>2021-04-24T08:45:16.498Z</time>
      </trkpt>
      <trkpt lat="45.74141" lon="4.66477">
        <ele>484.104675</ele>
        <time>2021-04-24T08:45:18.502Z</time>
      </trkpt>
      <trkpt lat="45.74138" lon="4.6649">
        <ele>484.252591</ele>
        <time>2021-04-24T08:45:20.506Z</time>
      </trkpt>
      <trkpt lat="45.74136" lon="4.66503">
        <ele>484.395555</ele>
        <time>2021-04-24T08:45:22.496Z</time>
      </trkpt>
      <trkpt lat="45.74132" lon="4.66518">
        <ele>484.565943</ele>
        <time>2021-04-24T08:45:25.504Z</time>
      </trkpt>
      <trkpt lat="45.74129" lon="4.66535">
        <ele>484.749839</ele>
        <time>2021-04-24T08:45:28.506Z</time>
      </trkpt>
      <trkpt lat="45.74124" lon="4.66547">
        <ele>484.899428</ele>
        <time>2021-04-24T08:45:30.503Z</time>
      </trkpt>
      <trkpt lat="45.74113" lon="4.66561">
        <ele>485.111422</ele>
        <time>2021-04-24T08:45:33.515Z</time>
      </trkpt>
      <trkpt lat="45.74105" lon="4.66571">
        <ele>485.280033</ele>
        <time>2021-04-24T08:45:35.494Z</time>
      </trkpt>
      <trkpt lat="45.74098" lon="4.6658">
        <ele>485.420809</ele>
        <time>2021-04-24T08:45:37.505Z</time>
      </trkpt>
      <trkpt lat="45.7409" lon="4.6659">
        <ele>485.588272</ele>
        <time>2021-04-24T08:45:39.528Z</time>
      </trkpt>
      <trkpt lat="45.74073" lon="4.66611">
        <ele>485.927474</ele>
        <time>2021-04-24T08:45:43.494Z</time>
      </trkpt>
      <trkpt lat="45.74066" lon="4.66624">
        <ele>485.68862</ele>
        <time>2021-04-24T08:45:45.532Z</time>
      </trkpt>
      <trkpt lat="45.74058" lon="4.66634">
        <ele>485.370293</ele>
        <time>2021-04-24T08:45:47.502Z</time>
      </trkpt>
      <trkpt lat="45.74049" lon="4.66646">
        <ele>485.025775</ele>
        <time>2021-04-24T08:45:49.496Z</time>
      </trkpt>
      <trkpt lat="45.74041" lon="4.66658">
        <ele>484.682012</ele>
        <time>2021-04-24T08:45:51.496Z</time>
      </trkpt>
      <trkpt lat="45.74032" lon="4.66666">
        <ele>484.365496</ele>
        <time>2021-04-24T08:45:53.509Z</time>
      </trkpt>
      <trkpt lat="45.74023" lon="4.66674">
        <ele>484.057927</ele>
        <time>2021-04-24T08:45:55.519Z</time>
      </trkpt>
      <trkpt lat="45.74011" lon="4.66685">
        <ele>483.647656</ele>
        <time>2021-04-24T08:45:57.505Z</time>
      </trkpt>
      <trkpt lat="45.74001" lon="4.66699">
        <ele>483.253002</ele>
        <time>2021-04-24T08:45:59.495Z</time>
      </trkpt>
      <trkpt lat="45.73991" lon="4.66713">
        <ele>482.82016</ele>
        <time>2021-04-24T08:46:01.516Z</time>
      </trkpt>
      <trkpt lat="45.7398" lon="4.66727">
        <ele>482.385398</ele>
        <time>2021-04-24T08:46:03.489Z</time>
      </trkpt>
      <trkpt lat="45.73967" lon="4.66739">
        <ele>481.943914</ele>
        <time>2021-04-24T08:46:05.492Z</time>
      </trkpt>
      <trkpt lat="45.73955" lon="4.66751">
        <ele>481.506137</ele>
        <time>2021-04-24T08:46:07.504Z</time>
      </trkpt>
      <trkpt lat="45.73942" lon="4.6676">
        <ele>481.099232</ele>
        <time>2021-04-24T08:46:09.517Z</time>
      </trkpt>
      <trkpt lat="45.7393" lon="4.66763">
        <ele>480.732428</ele>
        <time>2021-04-24T08:46:11.496Z</time>
      </trkpt>
      <trkpt lat="45.73917" lon="4.66764">
        <ele>480.116456</ele>
        <time>2021-04-24T08:46:13.521Z</time>
      </trkpt>
      <trkpt lat="45.73903" lon="4.66764">
        <ele>479.374331</ele>
        <time>2021-04-24T08:46:15.507Z</time>
      </trkpt>
      <trkpt lat="45.73889" lon="4.6676">
        <ele>478.62781</ele>
        <time>2021-04-24T08:46:17.516Z</time>
      </trkpt>
      <trkpt lat="45.7388" lon="4.6675">
        <ele>478.030147</ele>
        <time>2021-04-24T08:46:19.508Z</time>
      </trkpt>
      <trkpt lat="45.7387" lon="4.6674">
        <ele>477.407587</ele>
        <time>2021-04-24T08:46:21.505Z</time>
      </trkpt>
      <trkpt lat="45.7386" lon="4.66732">
        <ele>476.816253</ele>
        <time>2021-04-24T08:46:23.522Z</time>
      </trkpt>
      <trkpt lat="45.7385" lon="4.66724">
        <ele>476.228278</ele>
        <time>2021-04-24T08:46:25.539Z</time>
      </trkpt>
      <trkpt lat="45.73841" lon="4.66719">
        <ele>475.711696</ele>
        <time>2021-04-24T08:46:27.521Z</time>
      </trkpt>
      <trkpt lat="45.73832" lon="4.66709">
        <ele>475.112516</ele>
        <time>2021-04-24T08:46:29.509Z</time>
      </trkpt>
      <trkpt lat="45.73823" lon="4.66703">
        <ele>474.602157</ele>
        <time>2021-04-24T08:46:31.501Z</time>
      </trkpt>
      <trkpt lat="45.73815" lon="4.66689">
        <ele>473.954053</ele>
        <time>2021-04-24T08:46:33.510Z</time>
      </trkpt>
      <trkpt lat="45.73809" lon="4.66675">
        <ele>473.34748</ele>
        <time>2021-04-24T08:46:35.506Z</time>
      </trkpt>
      <trkpt lat="45.73801" lon="4.66663">
        <ele>472.736793</ele>
        <time>2021-04-24T08:46:37.510Z</time>
      </trkpt>
      <trkpt lat="45.73796" lon="4.66649">
        <ele>472.191591</ele>
        <time>2021-04-24T08:46:39.514Z</time>
      </trkpt>
      <trkpt lat="45.73788" lon="4.66637">
        <ele>471.567497</ele>
        <time>2021-04-24T08:46:41.514Z</time>
      </trkpt>
      <trkpt lat="45.73782" lon="4.66625">
        <ele>471.175589</ele>
        <time>2021-04-24T08:46:43.508Z</time>
      </trkpt>
      <trkpt lat="45.73773" lon="4.66614">
        <ele>470.824427</ele>
        <time>2021-04-24T08:46:45.505Z</time>
      </trkpt>
      <trkpt lat="45.73765" lon="4.66606">
        <ele>470.557573</ele>
        <time>2021-04-24T08:46:47.501Z</time>
      </trkpt>
      <trkpt lat="45.73757" lon="4.66596">
        <ele>470.259633</ele>
        <time>2021-04-24T08:46:49.526Z</time>
      </trkpt>
      <trkpt lat="45.73748" lon="4.66586">
        <ele>469.92051</ele>
        <time>2021-04-24T08:46:51.497Z</time>
      </trkpt>
      <trkpt lat="45.73739" lon="4.66577">
        <ele>469.619865</ele>
        <time>2021-04-24T08:46:53.528Z</time>
      </trkpt>
      <trkpt lat="45.7373" lon="4.66568">
        <ele>469.308732</ele>
        <time>2021-04-24T08:46:56.508Z</time>
      </trkpt>
      <trkpt lat="45.73721" lon="4.66561">
        <ele>468.998729</ele>
        <time>2021-04-24T08:46:58.493Z</time>
      </trkpt>
      <trkpt lat="45.73712" lon="4.66551">
        <ele>468.675705</ele>
        <time>2021-04-24T08:47:00.510Z</time>
      </trkpt>
      <trkpt lat="45.73702" lon="4.66541">
        <ele>468.321027</ele>
        <time>2021-04-24T08:47:02.513Z</time>
      </trkpt>
      <trkpt lat="45.7369" lon="4.66533">
        <ele>467.938137</ele>
        <time>2021-04-24T08:47:04.558Z</time>
      </trkpt>
      <trkpt lat="45.73675" lon="4.66526">
        <ele>467.501543</ele>
        <time>2021-04-24T08:47:06.519Z</time>
      </trkpt>
      <trkpt lat="45.73662" lon="4.6652">
        <ele>467.11082</ele>
        <time>2021-04-24T08:47:08.509Z</time>
      </trkpt>
      <trkpt lat="45.73648" lon="4.66517">
        <ele>466.699023</ele>
        <time>2021-04-24T08:47:10.539Z</time>
      </trkpt>
      <trkpt lat="45.73633" lon="4.66514">
        <ele>466.249627</ele>
        <time>2021-04-24T08:47:12.502Z</time>
      </trkpt>
      <trkpt lat="45.73619" lon="4.66516">
        <ele>465.949382</ele>
        <time>2021-04-24T08:47:14.519Z</time>
      </trkpt>
      <trkpt lat="45.73601" lon="4.66522">
        <ele>465.564651</ele>
        <time>2021-04-24T08:47:16.545Z</time>
      </trkpt>
      <trkpt lat="45.73593" lon="4.66526">
        <ele>465.372128</ele>
        <time>2021-04-24T08:47:17.508Z</time>
      </trkpt>
      <trkpt lat="45.73583" lon="4.66529">
        <ele>465.167019</ele>
        <time>2021-04-24T08:47:18.498Z</time>
      </trkpt>
      <trkpt lat="45.73565" lon="4.66528">
        <ele>464.798857</ele>
        <time>2021-04-24T08:47:20.500Z</time>
      </trkpt>
      <trkpt lat="45.73548" lon="4.66525">
        <ele>464.430088</ele>
        <time>2021-04-24T08:47:22.497Z</time>
      </trkpt>
      <trkpt lat="45.7354" lon="4.6652">
        <ele>464.238878</ele>
        <time>2021-04-24T08:47:23.511Z</time>
      </trkpt>
      <trkpt lat="45.73531" lon="4.66514">
        <ele>464.047924</ele>
        <time>2021-04-24T08:47:24.494Z</time>
      </trkpt>
      <trkpt lat="45.73523" lon="4.66507">
        <ele>463.846518</ele>
        <time>2021-04-24T08:47:25.503Z</time>
      </trkpt>
      <trkpt lat="45.73508" lon="4.66493">
        <ele>463.465208</ele>
        <time>2021-04-24T08:47:27.496Z</time>
      </trkpt>
      <trkpt lat="45.735" lon="4.66486">
        <ele>463.268156</ele>
        <time>2021-04-24T08:47:28.494Z</time>
      </trkpt>
      <trkpt lat="45.73491" lon="4.66481">
        <ele>463.071107</ele>
        <time>2021-04-24T08:47:29.507Z</time>
      </trkpt>
      <trkpt lat="45.73483" lon="4.66475">
        <ele>462.880605</ele>
        <time>2021-04-24T08:47:30.494Z</time>
      </trkpt>
      <trkpt lat="45.73472" lon="4.66459">
        <ele>462.552563</ele>
        <time>2021-04-24T08:47:32.492Z</time>
      </trkpt>
      <trkpt lat="45.73465" lon="4.66442">
        <ele>461.958339</ele>
        <time>2021-04-24T08:47:34.526Z</time>
      </trkpt>
      <trkpt lat="45.73456" lon="4.6643">
        <ele>461.18197</ele>
        <time>2021-04-24T08:47:37.519Z</time>
      </trkpt>
      <trkpt lat="45.73447" lon="4.66425">
        <ele>460.57804</ele>
        <time>2021-04-24T08:47:40.518Z</time>
      </trkpt>
      <trkpt lat="45.73438" lon="4.66436">
        <ele>459.855951</ele>
        <time>2021-04-24T08:47:43.504Z</time>
      </trkpt>
      <trkpt lat="45.73429" lon="4.66447">
        <ele>459.146803</ele>
        <time>2021-04-24T08:47:45.516Z</time>
      </trkpt>
      <trkpt lat="45.73419" lon="4.66458">
        <ele>458.373065</ele>
        <time>2021-04-24T08:47:47.553Z</time>
      </trkpt>
      <trkpt lat="45.7341" lon="4.6647">
        <ele>457.592108</ele>
        <time>2021-04-24T08:47:49.501Z</time>
      </trkpt>
      <trkpt lat="45.73399" lon="4.66484">
        <ele>456.693154</ele>
        <time>2021-04-24T08:47:51.655Z</time>
      </trkpt>
      <trkpt lat="45.73389" lon="4.66497">
        <ele>455.881274</ele>
        <time>2021-04-24T08:47:53.492Z</time>
      </trkpt>
      <trkpt lat="45.73379" lon="4.66511">
        <ele>455.009763</ele>
        <time>2021-04-24T08:47:55.508Z</time>
      </trkpt>
      <trkpt lat="45.73373" lon="4.66528">
        <ele>454.179195</ele>
        <time>2021-04-24T08:47:57.509Z</time>
      </trkpt>
      <trkpt lat="45.73366" lon="4.66549">
        <ele>453.174927</ele>
        <time>2021-04-24T08:47:59.498Z</time>
      </trkpt>
      <trkpt lat="45.73365" lon="4.66569">
        <ele>452.319401</ele>
        <time>2021-04-24T08:48:01.509Z</time>
      </trkpt>
      <trkpt lat="45.73366" lon="4.66591">
        <ele>451.347578</ele>
        <time>2021-04-24T08:48:03.507Z</time>
      </trkpt>
      <trkpt lat="45.73373" lon="4.66613">
        <ele>450.822297</ele>
        <time>2021-04-24T08:48:05.519Z</time>
      </trkpt>
      <trkpt lat="45.7338" lon="4.66635">
        <ele>450.322601</ele>
        <time>2021-04-24T08:48:07.503Z</time>
      </trkpt>
      <trkpt lat="45.73391" lon="4.66653">
        <ele>449.81933</ele>
        <time>2021-04-24T08:48:09.505Z</time>
      </trkpt>
      <trkpt lat="45.73398" lon="4.66661">
        <ele>449.540412</ele>
        <time>2021-04-24T08:48:10.520Z</time>
      </trkpt>
      <trkpt lat="45.73405" lon="4.6667">
        <ele>449.258536</ele>
        <time>2021-04-24T08:48:11.495Z</time>
      </trkpt>
      <trkpt lat="45.73412" lon="4.6668">
        <ele>448.987304</ele>
        <time>2021-04-24T08:48:12.497Z</time>
      </trkpt>
      <trkpt lat="45.73424" lon="4.66698">
        <ele>448.451974</ele>
        <time>2021-04-24T08:48:14.559Z</time>
      </trkpt>
      <trkpt lat="45.73433" lon="4.66706">
        <ele>448.154946</ele>
        <time>2021-04-24T08:48:15.516Z</time>
      </trkpt>
      <trkpt lat="45.73439" lon="4.66716">
        <ele>447.873178</ele>
        <time>2021-04-24T08:48:16.526Z</time>
      </trkpt>
      <trkpt lat="45.73446" lon="4.66725">
        <ele>447.591848</ele>
        <time>2021-04-24T08:48:17.506Z</time>
      </trkpt>
      <trkpt lat="45.73452" lon="4.66735">
        <ele>447.311086</ele>
        <time>2021-04-24T08:48:18.513Z</time>
      </trkpt>
      <trkpt lat="45.73467" lon="4.6675">
        <ele>446.782507</ele>
        <time>2021-04-24T08:48:20.523Z</time>
      </trkpt>
      <trkpt lat="45.73475" lon="4.66756">
        <ele>446.506267</ele>
        <time>2021-04-24T08:48:21.508Z</time>
      </trkpt>
      <trkpt lat="45.73484" lon="4.66763">
        <ele>446.208774</ele>
        <time>2021-04-24T08:48:22.506Z</time>
      </trkpt>
      <trkpt lat="45.73492" lon="4.66768">
        <ele>445.910405</ele>
        <time>2021-04-24T08:48:23.511Z</time>
      </trkpt>
      <trkpt lat="45.73501" lon="4.66774">
        <ele>445.284295</ele>
        <time>2021-04-24T08:48:24.518Z</time>
      </trkpt>
      <trkpt lat="45.73517" lon="4.66787">
        <ele>444.133785</ele>
        <time>2021-04-24T08:48:26.528Z</time>
      </trkpt>
      <trkpt lat="45.73525" lon="4.66794">
        <ele>443.523929</ele>
        <time>2021-04-24T08:48:27.505Z</time>
      </trkpt>
      <trkpt lat="45.73533" lon="4.66803">
        <ele>442.903214</ele>
        <time>2021-04-24T08:48:28.513Z</time>
      </trkpt>
      <trkpt lat="45.73538" lon="4.66814">
        <ele>442.266825</ele>
        <time>2021-04-24T08:48:29.513Z</time>
      </trkpt>
      <trkpt lat="45.73543" lon="4.66826">
        <ele>441.641931</ele>
        <time>2021-04-24T08:48:30.507Z</time>
      </trkpt>
      <trkpt lat="45.73544" lon="4.66841">
        <ele>441.006415</ele>
        <time>2021-04-24T08:48:31.547Z</time>
      </trkpt>
      <trkpt lat="45.73544" lon="4.66854">
        <ele>440.400753</ele>
        <time>2021-04-24T08:48:32.513Z</time>
      </trkpt>
      <trkpt lat="45.73541" lon="4.66879">
        <ele>439.263042</ele>
        <time>2021-04-24T08:48:34.504Z</time>
      </trkpt>
      <trkpt lat="45.73539" lon="4.66893">
        <ele>438.619046</ele>
        <time>2021-04-24T08:48:35.518Z</time>
      </trkpt>
      <trkpt lat="45.73538" lon="4.66906">
        <ele>438.020347</ele>
        <time>2021-04-24T08:48:36.518Z</time>
      </trkpt>
      <trkpt lat="45.73535" lon="4.66919">
        <ele>437.423321</ele>
        <time>2021-04-24T08:48:37.539Z</time>
      </trkpt>
      <trkpt lat="45.73529" lon="4.66942">
        <ele>436.342781</ele>
        <time>2021-04-24T08:48:39.522Z</time>
      </trkpt>
      <trkpt lat="45.73523" lon="4.66952">
        <ele>435.727317</ele>
        <time>2021-04-24T08:48:40.526Z</time>
      </trkpt>
      <trkpt lat="45.73516" lon="4.66963">
        <ele>435.08588</ele>
        <time>2021-04-24T08:48:41.524Z</time>
      </trkpt>
      <trkpt lat="45.73509" lon="4.66971">
        <ele>434.488571</ele>
        <time>2021-04-24T08:48:42.511Z</time>
      </trkpt>
      <trkpt lat="45.73502" lon="4.66979">
        <ele>433.965429</ele>
        <time>2021-04-24T08:48:43.530Z</time>
      </trkpt>
      <trkpt lat="45.73494" lon="4.66987">
        <ele>433.450407</ele>
        <time>2021-04-24T08:48:44.514Z</time>
      </trkpt>
      <trkpt lat="45.73486" lon="4.66996">
        <ele>432.93073</ele>
        <time>2021-04-24T08:48:45.514Z</time>
      </trkpt>
      <trkpt lat="45.73479" lon="4.67004">
        <ele>432.441781</ele>
        <time>2021-04-24T08:48:46.515Z</time>
      </trkpt>
      <trkpt lat="45.73471" lon="4.67011">
        <ele>431.95063</ele>
        <time>2021-04-24T08:48:47.508Z</time>
      </trkpt>
      <trkpt lat="45.73464" lon="4.6702">
        <ele>431.456573</ele>
        <time>2021-04-24T08:48:48.523Z</time>
      </trkpt>
      <trkpt lat="45.73456" lon="4.67027">
        <ele>430.956685</ele>
        <time>2021-04-24T08:48:49.514Z</time>
      </trkpt>
      <trkpt lat="45.73449" lon="4.67036">
        <ele>430.462028</ele>
        <time>2021-04-24T08:48:50.516Z</time>
      </trkpt>
      <trkpt lat="45.73442" lon="4.67044">
        <ele>429.944619</ele>
        <time>2021-04-24T08:48:51.500Z</time>
      </trkpt>
      <trkpt lat="45.73434" lon="4.67052">
        <ele>429.455669</ele>
        <time>2021-04-24T08:48:52.523Z</time>
      </trkpt>
      <trkpt lat="45.73427" lon="4.6706">
        <ele>428.962039</ele>
        <time>2021-04-24T08:48:53.512Z</time>
      </trkpt>
      <trkpt lat="45.73412" lon="4.67076">
        <ele>427.957519</ele>
        <time>2021-04-24T08:48:55.508Z</time>
      </trkpt>
      <trkpt lat="45.73404" lon="4.67085">
        <ele>427.440109</ele>
        <time>2021-04-24T08:48:56.508Z</time>
      </trkpt>
      <trkpt lat="45.73397" lon="4.67093">
        <ele>426.937674</ele>
        <time>2021-04-24T08:48:57.521Z</time>
      </trkpt>
      <trkpt lat="45.73389" lon="4.67102">
        <ele>426.413405</ele>
        <time>2021-04-24T08:48:58.521Z</time>
      </trkpt>
      <trkpt lat="45.73382" lon="4.6711">
        <ele>425.91748</ele>
        <time>2021-04-24T08:48:59.541Z</time>
      </trkpt>
      <trkpt lat="45.73374" lon="4.67119">
        <ele>425.386206</ele>
        <time>2021-04-24T08:49:00.499Z</time>
      </trkpt>
      <trkpt lat="45.73367" lon="4.67128">
        <ele>424.888325</ele>
        <time>2021-04-24T08:49:01.495Z</time>
      </trkpt>
      <trkpt lat="45.7336" lon="4.67136">
        <ele>424.478049</ele>
        <time>2021-04-24T08:49:02.510Z</time>
      </trkpt>
      <trkpt lat="45.73344" lon="4.67146">
        <ele>423.782223</ele>
        <time>2021-04-24T08:49:04.496Z</time>
      </trkpt>
      <trkpt lat="45.73337" lon="4.67155">
        <ele>423.38825</ele>
        <time>2021-04-24T08:49:05.492Z</time>
      </trkpt>
      <trkpt lat="45.73322" lon="4.67172">
        <ele>422.623837</ele>
        <time>2021-04-24T08:49:07.492Z</time>
      </trkpt>
      <trkpt lat="45.73315" lon="4.6718">
        <ele>422.233415</ele>
        <time>2021-04-24T08:49:08.491Z</time>
      </trkpt>
      <trkpt lat="45.73302" lon="4.67195">
        <ele>421.563378</ele>
        <time>2021-04-24T08:49:10.522Z</time>
      </trkpt>
      <trkpt lat="45.7329" lon="4.67208">
        <ele>420.948102</ele>
        <time>2021-04-24T08:49:12.500Z</time>
      </trkpt>
      <trkpt lat="45.7328" lon="4.67217">
        <ele>420.449211</ele>
        <time>2021-04-24T08:49:14.503Z</time>
      </trkpt>
      <trkpt lat="45.73271" lon="4.67224">
        <ele>420.05627</ele>
        <time>2021-04-24T08:49:20.564Z</time>
      </trkpt>
      <trkpt lat="45.73269" lon="4.67242">
        <ele>419.522471</ele>
        <time>2021-04-24T08:49:39.502Z</time>
      </trkpt>
      <trkpt lat="45.73271" lon="4.67256">
        <ele>419.112146</ele>
        <time>2021-04-24T08:49:41.494Z</time>
      </trkpt>
      <trkpt lat="45.73267" lon="4.6727">
        <ele>418.691855</ele>
        <time>2021-04-24T08:49:43.517Z</time>
      </trkpt>
      <trkpt lat="45.73256" lon="4.67275">
        <ele>418.19729</ele>
        <time>2021-04-24T08:49:45.518Z</time>
      </trkpt>
      <trkpt lat="45.73245" lon="4.67281">
        <ele>417.718528</ele>
        <time>2021-04-24T08:49:47.503Z</time>
      </trkpt>
      <trkpt lat="45.73234" lon="4.67279">
        <ele>417.144828</ele>
        <time>2021-04-24T08:49:49.504Z</time>
      </trkpt>
      <trkpt lat="45.73218" lon="4.6728">
        <ele>415.9225</ele>
        <time>2021-04-24T08:49:51.519Z</time>
      </trkpt>
      <trkpt lat="45.73202" lon="4.67279">
        <ele>414.67686</ele>
        <time>2021-04-24T08:49:53.523Z</time>
      </trkpt>
      <trkpt lat="45.73185" lon="4.67279">
        <ele>413.323122</ele>
        <time>2021-04-24T08:49:55.560Z</time>
      </trkpt>
      <trkpt lat="45.73176" lon="4.67281">
        <ele>412.593918</ele>
        <time>2021-04-24T08:49:56.523Z</time>
      </trkpt>
      <trkpt lat="45.73166" lon="4.67282">
        <ele>411.882623</ele>
        <time>2021-04-24T08:49:57.511Z</time>
      </trkpt>
      <trkpt lat="45.73156" lon="4.67285">
        <ele>411.091146</ele>
        <time>2021-04-24T08:49:58.536Z</time>
      </trkpt>
      <trkpt lat="45.73146" lon="4.67284">
        <ele>410.289126</ele>
        <time>2021-04-24T08:49:59.517Z</time>
      </trkpt>
      <trkpt lat="45.73137" lon="4.67287">
        <ele>409.539754</ele>
        <time>2021-04-24T08:50:00.521Z</time>
      </trkpt>
      <trkpt lat="45.73119" lon="4.67289">
        <ele>408.188895</ele>
        <time>2021-04-24T08:50:02.509Z</time>
      </trkpt>
      <trkpt lat="45.73101" lon="4.67289">
        <ele>406.757729</ele>
        <time>2021-04-24T08:50:04.504Z</time>
      </trkpt>
      <trkpt lat="45.73092" lon="4.67289">
        <ele>406.034369</ele>
        <time>2021-04-24T08:50:05.504Z</time>
      </trkpt>
      <trkpt lat="45.73082" lon="4.67292">
        <ele>405.284129</ele>
        <time>2021-04-24T08:50:06.507Z</time>
      </trkpt>
      <trkpt lat="45.73074" lon="4.67297">
        <ele>404.572402</ele>
        <time>2021-04-24T08:50:07.531Z</time>
      </trkpt>
      <trkpt lat="45.7306" lon="4.67312">
        <ele>403.329494</ele>
        <time>2021-04-24T08:50:09.512Z</time>
      </trkpt>
      <trkpt lat="45.73054" lon="4.67323">
        <ele>402.950559</ele>
        <time>2021-04-24T08:50:10.509Z</time>
      </trkpt>
      <trkpt lat="45.73042" lon="4.67342">
        <ele>402.235059</ele>
        <time>2021-04-24T08:50:12.514Z</time>
      </trkpt>
      <trkpt lat="45.73034" lon="4.67351">
        <ele>401.8416</ele>
        <time>2021-04-24T08:50:13.517Z</time>
      </trkpt>
      <trkpt lat="45.73027" lon="4.6736">
        <ele>401.454499</ele>
        <time>2021-04-24T08:50:14.509Z</time>
      </trkpt>
      <trkpt lat="45.73018" lon="4.67368">
        <ele>401.057794</ele>
        <time>2021-04-24T08:50:15.504Z</time>
      </trkpt>
      <trkpt lat="45.7301" lon="4.67375">
        <ele>400.671466</ele>
        <time>2021-04-24T08:50:16.517Z</time>
      </trkpt>
      <trkpt lat="45.73001" lon="4.67381">
        <ele>400.286984</ele>
        <time>2021-04-24T08:50:17.518Z</time>
      </trkpt>
      <trkpt lat="45.72991" lon="4.67385">
        <ele>399.895153</ele>
        <time>2021-04-24T08:50:18.548Z</time>
      </trkpt>
      <trkpt lat="45.72981" lon="4.67392">
        <ele>399.47157</ele>
        <time>2021-04-24T08:50:19.501Z</time>
      </trkpt>
      <trkpt lat="45.72972" lon="4.67397">
        <ele>399.082053</ele>
        <time>2021-04-24T08:50:20.500Z</time>
      </trkpt>
      <trkpt lat="45.72964" lon="4.67404">
        <ele>398.697415</ele>
        <time>2021-04-24T08:50:21.510Z</time>
      </trkpt>
      <trkpt lat="45.72955" lon="4.67409">
        <ele>398.315292</ele>
        <time>2021-04-24T08:50:22.522Z</time>
      </trkpt>
      <trkpt lat="45.72946" lon="4.67415">
        <ele>397.917735</ele>
        <time>2021-04-24T08:50:23.505Z</time>
      </trkpt>
      <trkpt lat="45.72937" lon="4.67422">
        <ele>397.544835</ele>
        <time>2021-04-24T08:50:24.520Z</time>
      </trkpt>
      <trkpt lat="45.72929" lon="4.67427">
        <ele>397.17302</ele>
        <time>2021-04-24T08:50:25.494Z</time>
      </trkpt>
      <trkpt lat="45.7292" lon="4.67433">
        <ele>396.815641</ele>
        <time>2021-04-24T08:50:26.509Z</time>
      </trkpt>
      <trkpt lat="45.72912" lon="4.67441">
        <ele>396.418233</ele>
        <time>2021-04-24T08:50:27.496Z</time>
      </trkpt>
      <trkpt lat="45.72904" lon="4.67446">
        <ele>395.732694</ele>
        <time>2021-04-24T08:50:28.525Z</time>
      </trkpt>
      <trkpt lat="45.72895" lon="4.67454">
        <ele>394.872171</ele>
        <time>2021-04-24T08:50:29.535Z</time>
      </trkpt>
      <trkpt lat="45.72886" lon="4.67462">
        <ele>393.965025</ele>
        <time>2021-04-24T08:50:30.523Z</time>
      </trkpt>
      <trkpt lat="45.72877" lon="4.67468">
        <ele>393.103933</ele>
        <time>2021-04-24T08:50:31.525Z</time>
      </trkpt>
      <trkpt lat="45.72868" lon="4.67475">
        <ele>392.250413</ele>
        <time>2021-04-24T08:50:32.504Z</time>
      </trkpt>
      <trkpt lat="45.72859" lon="4.67481">
        <ele>391.374382</ele>
        <time>2021-04-24T08:50:33.518Z</time>
      </trkpt>
      <trkpt lat="45.7285" lon="4.67485">
        <ele>390.541008</ele>
        <time>2021-04-24T08:50:34.489Z</time>
      </trkpt>
      <trkpt lat="45.7284" lon="4.67485">
        <ele>389.693089</ele>
        <time>2021-04-24T08:50:35.494Z</time>
      </trkpt>
      <trkpt lat="45.72831" lon="4.67485">
        <ele>388.913502</ele>
        <time>2021-04-24T08:50:36.505Z</time>
      </trkpt>
      <trkpt lat="45.72813" lon="4.67479">
        <ele>387.37706</ele>
        <time>2021-04-24T08:50:38.490Z</time>
      </trkpt>
      <trkpt lat="45.728" lon="4.67463">
        <ele>385.919879</ele>
        <time>2021-04-24T08:50:40.498Z</time>
      </trkpt>
      <trkpt lat="45.72791" lon="4.67441">
        <ele>384.386229</ele>
        <time>2021-04-24T08:50:42.492Z</time>
      </trkpt>
      <trkpt lat="45.72783" lon="4.6742">
        <ele>382.916729</ele>
        <time>2021-04-24T08:50:44.491Z</time>
      </trkpt>
      <trkpt lat="45.72778" lon="4.67405">
        <ele>381.932002</ele>
        <time>2021-04-24T08:50:45.499Z</time>
      </trkpt>
      <trkpt lat="45.72773" lon="4.67391">
        <ele>381.033936</ele>
        <time>2021-04-24T08:50:46.500Z</time>
      </trkpt>
      <trkpt lat="45.72768" lon="4.67379">
        <ele>380.304317</ele>
        <time>2021-04-24T08:50:47.520Z</time>
      </trkpt>
      <trkpt lat="45.72763" lon="4.67368">
        <ele>379.653778</ele>
        <time>2021-04-24T08:50:48.504Z</time>
      </trkpt>
      <trkpt lat="45.72757" lon="4.67353">
        <ele>378.784301</ele>
        <time>2021-04-24T08:50:49.512Z</time>
      </trkpt>
      <trkpt lat="45.72752" lon="4.6734">
        <ele>378.023058</ele>
        <time>2021-04-24T08:50:50.497Z</time>
      </trkpt>
      <trkpt lat="45.72745" lon="4.6733">
        <ele>377.321749</ele>
        <time>2021-04-24T08:50:51.527Z</time>
      </trkpt>
      <trkpt lat="45.7273" lon="4.67315">
        <ele>376.008949</ele>
        <time>2021-04-24T08:50:53.518Z</time>
      </trkpt>
      <trkpt lat="45.72721" lon="4.67308">
        <ele>375.299638</ele>
        <time>2021-04-24T08:50:54.539Z</time>
      </trkpt>
      <trkpt lat="45.72711" lon="4.67302">
        <ele>374.547406</ele>
        <time>2021-04-24T08:50:55.520Z</time>
      </trkpt>
      <trkpt lat="45.72702" lon="4.67295">
        <ele>373.769372</ele>
        <time>2021-04-24T08:50:56.504Z</time>
      </trkpt>
      <trkpt lat="45.72692" lon="4.67289">
        <ele>373.008541</ele>
        <time>2021-04-24T08:50:57.520Z</time>
      </trkpt>
      <trkpt lat="45.72683" lon="4.6728">
        <ele>372.236965</ele>
        <time>2021-04-24T08:50:58.509Z</time>
      </trkpt>
      <trkpt lat="45.72673" lon="4.67273">
        <ele>371.462716</ele>
        <time>2021-04-24T08:50:59.523Z</time>
      </trkpt>
      <trkpt lat="45.72663" lon="4.67266">
        <ele>370.68028</ele>
        <time>2021-04-24T08:51:00.522Z</time>
      </trkpt>
      <trkpt lat="45.72653" lon="4.67259">
        <ele>369.861082</ele>
        <time>2021-04-24T08:51:01.518Z</time>
      </trkpt>
      <trkpt lat="45.72643" lon="4.67251">
        <ele>369.063213</ele>
        <time>2021-04-24T08:51:02.536Z</time>
      </trkpt>
      <trkpt lat="45.72633" lon="4.67245">
        <ele>368.243237</ele>
        <time>2021-04-24T08:51:03.508Z</time>
      </trkpt>
      <trkpt lat="45.72623" lon="4.67238">
        <ele>368.232432</ele>
        <time>2021-04-24T08:51:04.510Z</time>
      </trkpt>
      <trkpt lat="45.72613" lon="4.67231">
        <ele>368.421591</ele>
        <time>2021-04-24T08:51:05.494Z</time>
      </trkpt>
      <trkpt lat="45.72603" lon="4.67223">
        <ele>368.612445</ele>
        <time>2021-04-24T08:51:06.499Z</time>
      </trkpt>
      <trkpt lat="45.72594" lon="4.67215">
        <ele>368.809135</ele>
        <time>2021-04-24T08:51:07.525Z</time>
      </trkpt>
      <trkpt lat="45.72583" lon="4.67207">
        <ele>369.015468</ele>
        <time>2021-04-24T08:51:08.521Z</time>
      </trkpt>
      <trkpt lat="45.72573" lon="4.67199">
        <ele>369.21929</ele>
        <time>2021-04-24T08:51:09.514Z</time>
      </trkpt>
      <trkpt lat="45.72563" lon="4.67191">
        <ele>369.413694</ele>
        <time>2021-04-24T08:51:10.503Z</time>
      </trkpt>
      <trkpt lat="45.72553" lon="4.67184">
        <ele>369.611086</ele>
        <time>2021-04-24T08:51:11.539Z</time>
      </trkpt>
      <trkpt lat="45.72543" lon="4.67178">
        <ele>369.794026</ele>
        <time>2021-04-24T08:51:12.505Z</time>
      </trkpt>
      <trkpt lat="45.72533" lon="4.67174">
        <ele>369.976463</ele>
        <time>2021-04-24T08:51:13.523Z</time>
      </trkpt>
      <trkpt lat="45.72523" lon="4.6717">
        <ele>370.151924</ele>
        <time>2021-04-24T08:51:14.501Z</time>
      </trkpt>
      <trkpt lat="45.72513" lon="4.67168">
        <ele>370.326647</ele>
        <time>2021-04-24T08:51:15.519Z</time>
      </trkpt>
      <trkpt lat="45.72503" lon="4.67167">
        <ele>370.496759</ele>
        <time>2021-04-24T08:51:16.519Z</time>
      </trkpt>
      <trkpt lat="45.72494" lon="4.67166">
        <ele>370.65651</ele>
        <time>2021-04-24T08:51:17.558Z</time>
      </trkpt>
      <trkpt lat="45.72476" lon="4.67167">
        <ele>370.96712</ele>
        <time>2021-04-24T08:51:19.505Z</time>
      </trkpt>
      <trkpt lat="45.72467" lon="4.6717">
        <ele>371.126583</ele>
        <time>2021-04-24T08:51:20.516Z</time>
      </trkpt>
      <trkpt lat="45.72458" lon="4.67173">
        <ele>371.340232</ele>
        <time>2021-04-24T08:51:21.521Z</time>
      </trkpt>
      <trkpt lat="45.72444" lon="4.67185">
        <ele>371.81226</ele>
        <time>2021-04-24T08:51:23.557Z</time>
      </trkpt>
      <trkpt lat="45.72432" lon="4.67194">
        <ele>372.178538</ele>
        <time>2021-04-24T08:51:25.498Z</time>
      </trkpt>
      <trkpt lat="45.7242" lon="4.67205">
        <ele>372.567573</ele>
        <time>2021-04-24T08:51:27.515Z</time>
      </trkpt>
      <trkpt lat="45.72409" lon="4.67213">
        <ele>372.931131</ele>
        <time>2021-04-24T08:51:29.543Z</time>
      </trkpt>
      <trkpt lat="45.72397" lon="4.67222">
        <ele>373.299023</ele>
        <time>2021-04-24T08:51:31.505Z</time>
      </trkpt>
      <trkpt lat="45.72388" lon="4.67234">
        <ele>373.658032</ele>
        <time>2021-04-24T08:51:33.506Z</time>
      </trkpt>
      <trkpt lat="45.72378" lon="4.67246">
        <ele>374.006955</ele>
        <time>2021-04-24T08:51:35.521Z</time>
      </trkpt>
      <trkpt lat="45.72371" lon="4.67259">
        <ele>374.330526</ele>
        <time>2021-04-24T08:51:37.511Z</time>
      </trkpt>
      <trkpt lat="45.72365" lon="4.67273">
        <ele>374.656932</ele>
        <time>2021-04-24T08:51:39.503Z</time>
      </trkpt>
      <trkpt lat="45.72358" lon="4.67286">
        <ele>374.989389</ele>
        <time>2021-04-24T08:51:41.517Z</time>
      </trkpt>
      <trkpt lat="45.72351" lon="4.67301">
        <ele>375.326623</ele>
        <time>2021-04-24T08:51:43.529Z</time>
      </trkpt>
      <trkpt lat="45.72344" lon="4.67314">
        <ele>375.648212</ele>
        <time>2021-04-24T08:51:45.532Z</time>
      </trkpt>
      <trkpt lat="45.72339" lon="4.67326">
        <ele>375.942281</ele>
        <time>2021-04-24T08:51:47.507Z</time>
      </trkpt>
      <trkpt lat="45.72333" lon="4.6734">
        <ele>376.247495</ele>
        <time>2021-04-24T08:51:49.520Z</time>
      </trkpt>
      <trkpt lat="45.72327" lon="4.67354">
        <ele>376.577512</ele>
        <time>2021-04-24T08:51:51.488Z</time>
      </trkpt>
      <trkpt lat="45.7232" lon="4.67368">
        <ele>376.898529</ele>
        <time>2021-04-24T08:51:53.501Z</time>
      </trkpt>
      <trkpt lat="45.72314" lon="4.67377">
        <ele>377.151618</ele>
        <time>2021-04-24T08:51:55.519Z</time>
      </trkpt>
      <trkpt lat="45.72308" lon="4.6739">
        <ele>377.442604</ele>
        <time>2021-04-24T08:51:57.534Z</time>
      </trkpt>
      <trkpt lat="45.72304" lon="4.67403">
        <ele>377.720839</ele>
        <time>2021-04-24T08:51:59.505Z</time>
      </trkpt>
      <trkpt lat="45.72299" lon="4.67415">
        <ele>377.991284</ele>
        <time>2021-04-24T08:52:01.519Z</time>
      </trkpt>
      <trkpt lat="45.72293" lon="4.67426">
        <ele>378.266434</ele>
        <time>2021-04-24T08:52:03.519Z</time>
      </trkpt>
      <trkpt lat="45.72286" lon="4.67437">
        <ele>378.550492</ele>
        <time>2021-04-24T08:52:05.510Z</time>
      </trkpt>
      <trkpt lat="45.72282" lon="4.67449">
        <ele>378.81883</ele>
        <time>2021-04-24T08:52:07.521Z</time>
      </trkpt>
      <trkpt lat="45.72277" lon="4.6746">
        <ele>379.073097</ele>
        <time>2021-04-24T08:52:09.504Z</time>
      </trkpt>
      <trkpt lat="45.72271" lon="4.67473">
        <ele>379.354701</ele>
        <time>2021-04-24T08:52:11.509Z</time>
      </trkpt>
      <trkpt lat="45.72267" lon="4.67486">
        <ele>379.641149</ele>
        <time>2021-04-24T08:52:13.506Z</time>
      </trkpt>
      <trkpt lat="45.72263" lon="4.67499">
        <ele>379.920039</ele>
        <time>2021-04-24T08:52:15.520Z</time>
      </trkpt>
      <trkpt lat="45.72259" lon="4.67512">
        <ele>380.19884</ele>
        <time>2021-04-24T08:52:17.510Z</time>
      </trkpt>
      <trkpt lat="45.72252" lon="4.67529">
        <ele>380.568786</ele>
        <time>2021-04-24T08:52:20.531Z</time>
      </trkpt>
      <trkpt lat="45.72246" lon="4.6754">
        <ele>380.842123</ele>
        <time>2021-04-24T08:52:22.495Z</time>
      </trkpt>
      <trkpt lat="45.72241" lon="4.67553">
        <ele>381.114909</ele>
        <time>2021-04-24T08:52:24.508Z</time>
      </trkpt>
      <trkpt lat="45.72235" lon="4.6757">
        <ele>381.518144</ele>
        <time>2021-04-24T08:52:27.494Z</time>
      </trkpt>
      <trkpt lat="45.72229" lon="4.67586">
        <ele>381.887598</ele>
        <time>2021-04-24T08:52:30.497Z</time>
      </trkpt>
      <trkpt lat="45.72224" lon="4.67598">
        <ele>382.180539</ele>
        <time>2021-04-24T08:52:32.509Z</time>
      </trkpt>
      <trkpt lat="45.72219" lon="4.67612">
        <ele>382.502366</ele>
        <time>2021-04-24T08:52:34.531Z</time>
      </trkpt>
      <trkpt lat="45.72214" lon="4.67626">
        <ele>382.825201</ele>
        <time>2021-04-24T08:52:36.517Z</time>
      </trkpt>
      <trkpt lat="45.72209" lon="4.67638">
        <ele>383.110662</ele>
        <time>2021-04-24T08:52:38.505Z</time>
      </trkpt>
      <trkpt lat="45.72202" lon="4.6765">
        <ele>383.430362</ele>
        <time>2021-04-24T08:52:40.516Z</time>
      </trkpt>
      <trkpt lat="45.72197" lon="4.67661">
        <ele>383.712227</ele>
        <time>2021-04-24T08:52:42.511Z</time>
      </trkpt>
      <trkpt lat="45.72191" lon="4.67673">
        <ele>384.004482</ele>
        <time>2021-04-24T08:52:44.510Z</time>
      </trkpt>
      <trkpt lat="45.72186" lon="4.67686">
        <ele>384.319102</ele>
        <time>2021-04-24T08:52:46.519Z</time>
      </trkpt>
      <trkpt lat="45.72181" lon="4.67701">
        <ele>384.651956</ele>
        <time>2021-04-24T08:52:48.503Z</time>
      </trkpt>
      <trkpt lat="45.72176" lon="4.67714">
        <ele>384.96153</ele>
        <time>2021-04-24T08:52:50.496Z</time>
      </trkpt>
      <trkpt lat="45.72169" lon="4.67725">
        <ele>385.262213</ele>
        <time>2021-04-24T08:52:52.516Z</time>
      </trkpt>
      <trkpt lat="45.7216" lon="4.6773">
        <ele>385.553121</ele>
        <time>2021-04-24T08:52:54.512Z</time>
      </trkpt>
      <trkpt lat="45.72151" lon="4.67742">
        <ele>385.920588</ele>
        <time>2021-04-24T08:52:57.536Z</time>
      </trkpt>
      <trkpt lat="45.72145" lon="4.67752">
        <ele>386.194316</ele>
        <time>2021-04-24T08:52:59.511Z</time>
      </trkpt>
      <trkpt lat="45.72141" lon="4.67768">
        <ele>386.540031</ele>
        <time>2021-04-24T08:53:01.526Z</time>
      </trkpt>
      <trkpt lat="45.72137" lon="4.67779">
        <ele>386.979716</ele>
        <time>2021-04-24T08:53:03.504Z</time>
      </trkpt>
      <trkpt lat="45.72131" lon="4.67791">
        <ele>387.440545</ele>
        <time>2021-04-24T08:53:05.505Z</time>
      </trkpt>
      <trkpt lat="45.72125" lon="4.67805">
        <ele>387.979771</ele>
        <time>2021-04-24T08:53:07.526Z</time>
      </trkpt>
      <trkpt lat="45.7212" lon="4.67818">
        <ele>388.463326</ele>
        <time>2021-04-24T08:53:09.491Z</time>
      </trkpt>
      <trkpt lat="45.72114" lon="4.67829">
        <ele>388.918535</ele>
        <time>2021-04-24T08:53:11.533Z</time>
      </trkpt>
      <trkpt lat="45.72109" lon="4.67842">
        <ele>389.401537</ele>
        <time>2021-04-24T08:53:13.511Z</time>
      </trkpt>
      <trkpt lat="45.72103" lon="4.67853">
        <ele>389.890959</ele>
        <time>2021-04-24T08:53:15.512Z</time>
      </trkpt>
      <trkpt lat="45.72097" lon="4.67866">
        <ele>390.397665</ele>
        <time>2021-04-24T08:53:17.529Z</time>
      </trkpt>
      <trkpt lat="45.72091" lon="4.67878">
        <ele>390.852875</ele>
        <time>2021-04-24T08:53:19.512Z</time>
      </trkpt>
      <trkpt lat="45.72084" lon="4.67888">
        <ele>391.325673</ele>
        <time>2021-04-24T08:53:21.506Z</time>
      </trkpt>
      <trkpt lat="45.72079" lon="4.67901">
        <ele>391.819017</ele>
        <time>2021-04-24T08:53:23.550Z</time>
      </trkpt>
      <trkpt lat="45.72074" lon="4.67914">
        <ele>392.300213</ele>
        <time>2021-04-24T08:53:25.506Z</time>
      </trkpt>
      <trkpt lat="45.72068" lon="4.67927">
        <ele>392.839195</ele>
        <time>2021-04-24T08:53:27.517Z</time>
      </trkpt>
      <trkpt lat="45.72061" lon="4.67942">
        <ele>393.407705</ele>
        <time>2021-04-24T08:53:29.523Z</time>
      </trkpt>
      <trkpt lat="45.72056" lon="4.67955">
        <ele>393.891752</ele>
        <time>2021-04-24T08:53:31.508Z</time>
      </trkpt>
      <trkpt lat="45.72053" lon="4.67968">
        <ele>394.334068</ele>
        <time>2021-04-24T08:53:33.508Z</time>
      </trkpt>
      <trkpt lat="45.72048" lon="4.6798">
        <ele>394.812937</ele>
        <time>2021-04-24T08:53:35.539Z</time>
      </trkpt>
      <trkpt lat="45.72043" lon="4.67997">
        <ele>394.440602</ele>
        <time>2021-04-24T08:53:37.508Z</time>
      </trkpt>
      <trkpt lat="45.72039" lon="4.68012">
        <ele>393.714409</ele>
        <time>2021-04-24T08:53:39.511Z</time>
      </trkpt>
      <trkpt lat="45.72036" lon="4.68029">
        <ele>392.896978</ele>
        <time>2021-04-24T08:53:41.493Z</time>
      </trkpt>
      <trkpt lat="45.7203" lon="4.68048">
        <ele>391.985331</ele>
        <time>2021-04-24T08:53:43.503Z</time>
      </trkpt>
      <trkpt lat="45.72025" lon="4.68066">
        <ele>391.106326</ele>
        <time>2021-04-24T08:53:45.508Z</time>
      </trkpt>
      <trkpt lat="45.72022" lon="4.68085">
        <ele>390.209712</ele>
        <time>2021-04-24T08:53:47.508Z</time>
      </trkpt>
      <trkpt lat="45.72017" lon="4.68102">
        <ele>389.407604</ele>
        <time>2021-04-24T08:53:49.523Z</time>
      </trkpt>
      <trkpt lat="45.72013" lon="4.6812">
        <ele>388.553945</ele>
        <time>2021-04-24T08:53:51.504Z</time>
      </trkpt>
      <trkpt lat="45.72008" lon="4.68138">
        <ele>387.68796</ele>
        <time>2021-04-24T08:53:53.510Z</time>
      </trkpt>
      <trkpt lat="45.72004" lon="4.6815">
        <ele>387.102217</ele>
        <time>2021-04-24T08:53:55.517Z</time>
      </trkpt>
      <trkpt lat="45.71996" lon="4.68179">
        <ele>385.686315</ele>
        <time>2021-04-24T08:53:58.557Z</time>
      </trkpt>
      <trkpt lat="45.7199" lon="4.682">
        <ele>384.647575</ele>
        <time>2021-04-24T08:54:00.507Z</time>
      </trkpt>
      <trkpt lat="45.71984" lon="4.68221">
        <ele>383.651678</ele>
        <time>2021-04-24T08:54:02.515Z</time>
      </trkpt>
      <trkpt lat="45.71979" lon="4.68238">
        <ele>383.30763</ele>
        <time>2021-04-24T08:54:04.516Z</time>
      </trkpt>
      <trkpt lat="45.71973" lon="4.68257">
        <ele>383.15718</ele>
        <time>2021-04-24T08:54:06.504Z</time>
      </trkpt>
      <trkpt lat="45.71967" lon="4.68278">
        <ele>382.989129</ele>
        <time>2021-04-24T08:54:08.509Z</time>
      </trkpt>
      <trkpt lat="45.7196" lon="4.68298">
        <ele>382.81951</ele>
        <time>2021-04-24T08:54:10.527Z</time>
      </trkpt>
      <trkpt lat="45.71953" lon="4.68317">
        <ele>382.661375</ele>
        <time>2021-04-24T08:54:12.509Z</time>
      </trkpt>
      <trkpt lat="45.71945" lon="4.68337">
        <ele>382.494102</ele>
        <time>2021-04-24T08:54:14.501Z</time>
      </trkpt>
      <trkpt lat="45.71938" lon="4.68356">
        <ele>382.335625</ele>
        <time>2021-04-24T08:54:16.508Z</time>
      </trkpt>
      <trkpt lat="45.71932" lon="4.68376">
        <ele>382.16847</ele>
        <time>2021-04-24T08:54:18.518Z</time>
      </trkpt>
      <trkpt lat="45.71925" lon="4.68397">
        <ele>381.99593</ele>
        <time>2021-04-24T08:54:20.503Z</time>
      </trkpt>
      <trkpt lat="45.71918" lon="4.68417">
        <ele>381.830568</ele>
        <time>2021-04-24T08:54:22.499Z</time>
      </trkpt>
      <trkpt lat="45.71912" lon="4.68435">
        <ele>381.682216</ele>
        <time>2021-04-24T08:54:24.512Z</time>
      </trkpt>
      <trkpt lat="45.71905" lon="4.68453">
        <ele>381.530666</ele>
        <time>2021-04-24T08:54:26.514Z</time>
      </trkpt>
      <trkpt lat="45.71899" lon="4.68473">
        <ele>381.629985</ele>
        <time>2021-04-24T08:54:28.507Z</time>
      </trkpt>
      <trkpt lat="45.7189" lon="4.68486">
        <ele>381.767932</ele>
        <time>2021-04-24T08:54:30.511Z</time>
      </trkpt>
      <trkpt lat="45.71883" lon="4.685">
        <ele>381.903058</ele>
        <time>2021-04-24T08:54:32.587Z</time>
      </trkpt>
      <trkpt lat="45.71875" lon="4.68515">
        <ele>382.04941</ele>
        <time>2021-04-24T08:54:34.509Z</time>
      </trkpt>
      <trkpt lat="45.71867" lon="4.68528">
        <ele>382.184357</ele>
        <time>2021-04-24T08:54:36.595Z</time>
      </trkpt>
      <trkpt lat="45.71861" lon="4.68543">
        <ele>382.31461</ele>
        <time>2021-04-24T08:54:38.535Z</time>
      </trkpt>
      <trkpt lat="45.71854" lon="4.6856">
        <ele>382.460351</ele>
        <time>2021-04-24T08:54:40.518Z</time>
      </trkpt>
      <trkpt lat="45.71848" lon="4.68571">
        <ele>382.574201</ele>
        <time>2021-04-24T08:54:42.523Z</time>
      </trkpt>
      <trkpt lat="45.71842" lon="4.68585">
        <ele>382.699678</ele>
        <time>2021-04-24T08:54:44.556Z</time>
      </trkpt>
      <trkpt lat="45.71835" lon="4.68597">
        <ele>382.815502</ele>
        <time>2021-04-24T08:54:46.506Z</time>
      </trkpt>
      <trkpt lat="45.7183" lon="4.6861">
        <ele>382.934025</ele>
        <time>2021-04-24T08:54:48.518Z</time>
      </trkpt>
      <trkpt lat="45.71823" lon="4.68626">
        <ele>383.076293</ele>
        <time>2021-04-24T08:54:51.501Z</time>
      </trkpt>
      <trkpt lat="45.71817" lon="4.68639">
        <ele>383.193151</ele>
        <time>2021-04-24T08:54:53.522Z</time>
      </trkpt>
      <trkpt lat="45.71811" lon="4.68649">
        <ele>383.292281</ele>
        <time>2021-04-24T08:54:56.560Z</time>
      </trkpt>
      <trkpt lat="45.71807" lon="4.68675">
        <ele>383.526545</ele>
        <time>2021-04-24T08:56:14.494Z</time>
      </trkpt>
      <trkpt lat="45.71804" lon="4.68695">
        <ele>383.815641</ele>
        <time>2021-04-24T08:56:17.504Z</time>
      </trkpt>
      <trkpt lat="45.71803" lon="4.6871">
        <ele>384.036901</ele>
        <time>2021-04-24T08:56:19.502Z</time>
      </trkpt>
      <trkpt lat="45.71801" lon="4.68726">
        <ele>384.263364</ele>
        <time>2021-04-24T08:56:21.500Z</time>
      </trkpt>
      <trkpt lat="45.71801" lon="4.68743">
        <ele>384.504265</ele>
        <time>2021-04-24T08:56:23.538Z</time>
      </trkpt>
      <trkpt lat="45.71801" lon="4.68758">
        <ele>384.730901</ele>
        <time>2021-04-24T08:56:25.514Z</time>
      </trkpt>
      <trkpt lat="45.71801" lon="4.68774">
        <ele>384.953389</ele>
        <time>2021-04-24T08:56:27.516Z</time>
      </trkpt>
      <trkpt lat="45.71803" lon="4.68791">
        <ele>385.201049</ele>
        <time>2021-04-24T08:56:29.494Z</time>
      </trkpt>
      <trkpt lat="45.71804" lon="4.68807">
        <ele>385.424609</ele>
        <time>2021-04-24T08:56:31.520Z</time>
      </trkpt>
      <trkpt lat="45.71804" lon="4.6882">
        <ele>385.618226</ele>
        <time>2021-04-24T08:56:33.513Z</time>
      </trkpt>
      <trkpt lat="45.71805" lon="4.68834">
        <ele>385.820017</ele>
        <time>2021-04-24T08:56:35.536Z</time>
      </trkpt>
      <trkpt lat="45.71807" lon="4.68849">
        <ele>386.030808</ele>
        <time>2021-04-24T08:56:37.514Z</time>
      </trkpt>
      <trkpt lat="45.71809" lon="4.68863">
        <ele>386.236131</ele>
        <time>2021-04-24T08:56:39.522Z</time>
      </trkpt>
      <trkpt lat="45.7181" lon="4.6888">
        <ele>386.48158</ele>
        <time>2021-04-24T08:56:41.499Z</time>
      </trkpt>
      <trkpt lat="45.71812" lon="4.68897">
        <ele>386.731546</ele>
        <time>2021-04-24T08:56:43.520Z</time>
      </trkpt>
      <trkpt lat="45.71813" lon="4.68914">
        <ele>386.983313</ele>
        <time>2021-04-24T08:56:45.493Z</time>
      </trkpt>
      <trkpt lat="45.71814" lon="4.6893">
        <ele>387.182374</ele>
        <time>2021-04-24T08:56:47.534Z</time>
      </trkpt>
      <trkpt lat="45.71816" lon="4.68947">
        <ele>387.29195</ele>
        <time>2021-04-24T08:56:49.518Z</time>
      </trkpt>
      <trkpt lat="45.71817" lon="4.68964">
        <ele>387.401736</ele>
        <time>2021-04-24T08:56:51.508Z</time>
      </trkpt>
      <trkpt lat="45.71819" lon="4.68983">
        <ele>387.520032</ele>
        <time>2021-04-24T08:56:53.515Z</time>
      </trkpt>
      <trkpt lat="45.71821" lon="4.69001">
        <ele>387.636201</ele>
        <time>2021-04-24T08:56:55.512Z</time>
      </trkpt>
      <trkpt lat="45.71823" lon="4.69021">
        <ele>387.759911</ele>
        <time>2021-04-24T08:56:57.505Z</time>
      </trkpt>
      <trkpt lat="45.71825" lon="4.69039">
        <ele>387.874358</ele>
        <time>2021-04-24T08:56:59.500Z</time>
      </trkpt>
      <trkpt lat="45.71827" lon="4.69057">
        <ele>387.990276</ele>
        <time>2021-04-24T08:57:01.507Z</time>
      </trkpt>
      <trkpt lat="45.71829" lon="4.69075">
        <ele>388.10421</ele>
        <time>2021-04-24T08:57:03.512Z</time>
      </trkpt>
      <trkpt lat="45.71829" lon="4.69092">
        <ele>388.208631</ele>
        <time>2021-04-24T08:57:05.498Z</time>
      </trkpt>
      <trkpt lat="45.71829" lon="4.69108">
        <ele>388.309352</ele>
        <time>2021-04-24T08:57:07.496Z</time>
      </trkpt>
      <trkpt lat="45.71828" lon="4.69124">
        <ele>388.412343</ele>
        <time>2021-04-24T08:57:09.507Z</time>
      </trkpt>
      <trkpt lat="45.71829" lon="4.69139">
        <ele>388.506176</ele>
        <time>2021-04-24T08:57:11.501Z</time>
      </trkpt>
      <trkpt lat="45.71828" lon="4.69155">
        <ele>388.608843</ele>
        <time>2021-04-24T08:57:13.488Z</time>
      </trkpt>
      <trkpt lat="45.71828" lon="4.69171">
        <ele>388.705807</ele>
        <time>2021-04-24T08:57:15.506Z</time>
      </trkpt>
      <trkpt lat="45.71827" lon="4.69187">
        <ele>388.769336</ele>
        <time>2021-04-24T08:57:17.497Z</time>
      </trkpt>
      <trkpt lat="45.71827" lon="4.69204">
        <ele>388.711424</ele>
        <time>2021-04-24T08:57:19.515Z</time>
      </trkpt>
      <trkpt lat="45.71826" lon="4.69218">
        <ele>388.662552</ele>
        <time>2021-04-24T08:57:22.519Z</time>
      </trkpt>
      <trkpt lat="45.71833" lon="4.6923">
        <ele>388.607645</ele>
        <time>2021-04-24T08:57:26.504Z</time>
      </trkpt>
      <trkpt lat="45.71845" lon="4.69242">
        <ele>388.53458</ele>
        <time>2021-04-24T08:57:29.494Z</time>
      </trkpt>
      <trkpt lat="45.71854" lon="4.69251">
        <ele>388.481709</ele>
        <time>2021-04-24T08:57:31.494Z</time>
      </trkpt>
      <trkpt lat="45.71863" lon="4.69262">
        <ele>388.423976</ele>
        <time>2021-04-24T08:57:33.492Z</time>
      </trkpt>
      <trkpt lat="45.71872" lon="4.69273">
        <ele>388.364563</ele>
        <time>2021-04-24T08:57:35.505Z</time>
      </trkpt>
      <trkpt lat="45.71881" lon="4.69285">
        <ele>388.305747</ele>
        <time>2021-04-24T08:57:37.503Z</time>
      </trkpt>
      <trkpt lat="45.71891" lon="4.69295">
        <ele>388.242701</ele>
        <time>2021-04-24T08:57:39.507Z</time>
      </trkpt>
      <trkpt lat="45.71904" lon="4.69307">
        <ele>388.168727</ele>
        <time>2021-04-24T08:57:41.505Z</time>
      </trkpt>
      <trkpt lat="45.71916" lon="4.69316">
        <ele>388.101219</ele>
        <time>2021-04-24T08:57:43.511Z</time>
      </trkpt>
      <trkpt lat="45.71926" lon="4.69323">
        <ele>388.049497</ele>
        <time>2021-04-24T08:57:45.567Z</time>
      </trkpt>
      <trkpt lat="45.71937" lon="4.69331">
        <ele>387.990441</ele>
        <time>2021-04-24T08:57:47.502Z</time>
      </trkpt>
      <trkpt lat="45.71947" lon="4.69339">
        <ele>387.929033</ele>
        <time>2021-04-24T08:57:49.506Z</time>
      </trkpt>
      <trkpt lat="45.7196" lon="4.69345">
        <ele>387.683708</ele>
        <time>2021-04-24T08:57:51.517Z</time>
      </trkpt>
      <trkpt lat="45.71969" lon="4.6935">
        <ele>387.359266</ele>
        <time>2021-04-24T08:57:53.491Z</time>
      </trkpt>
      <trkpt lat="45.7198" lon="4.69362">
        <ele>386.915916</ele>
        <time>2021-04-24T08:57:57.497Z</time>
      </trkpt>
      <trkpt lat="45.71994" lon="4.69368">
        <ele>386.464954</ele>
        <time>2021-04-24T08:57:59.516Z</time>
      </trkpt>
      <trkpt lat="45.72008" lon="4.6937">
        <ele>386.039433</ele>
        <time>2021-04-24T08:58:01.510Z</time>
      </trkpt>
      <trkpt lat="45.72021" lon="4.69373">
        <ele>385.622168</ele>
        <time>2021-04-24T08:58:03.499Z</time>
      </trkpt>
      <trkpt lat="45.72033" lon="4.69374">
        <ele>385.229382</ele>
        <time>2021-04-24T08:58:05.493Z</time>
      </trkpt>
      <trkpt lat="45.72044" lon="4.69375">
        <ele>384.892699</ele>
        <time>2021-04-24T08:58:07.502Z</time>
      </trkpt>
      <trkpt lat="45.72049" lon="4.69389">
        <ele>384.540145</ele>
        <time>2021-04-24T08:58:09.498Z</time>
      </trkpt>
      <trkpt lat="45.72048" lon="4.69405">
        <ele>384.188426</ele>
        <time>2021-04-24T08:58:11.504Z</time>
      </trkpt>
      <trkpt lat="45.72048" lon="4.6942">
        <ele>383.855205</ele>
        <time>2021-04-24T08:58:13.509Z</time>
      </trkpt>
      <trkpt lat="45.7205" lon="4.69434">
        <ele>383.532723</ele>
        <time>2021-04-24T08:58:15.504Z</time>
      </trkpt>
      <trkpt lat="45.72053" lon="4.69448">
        <ele>383.220192</ele>
        <time>2021-04-24T08:58:17.516Z</time>
      </trkpt>
      <trkpt lat="45.72057" lon="4.69462">
        <ele>382.890914</ele>
        <time>2021-04-24T08:58:19.500Z</time>
      </trkpt>
      <trkpt lat="45.72061" lon="4.69479">
        <ele>382.481</ele>
        <time>2021-04-24T08:58:21.493Z</time>
      </trkpt>
      <trkpt lat="45.7207" lon="4.69497">
        <ele>381.920128</ele>
        <time>2021-04-24T08:58:23.493Z</time>
      </trkpt>
      <trkpt lat="45.72077" lon="4.69515">
        <ele>381.253356</ele>
        <time>2021-04-24T08:58:25.498Z</time>
      </trkpt>
      <trkpt lat="45.72089" lon="4.69532">
        <ele>380.544424</ele>
        <time>2021-04-24T08:58:27.496Z</time>
      </trkpt>
      <trkpt lat="45.72098" lon="4.69549">
        <ele>379.886406</ele>
        <time>2021-04-24T08:58:29.499Z</time>
      </trkpt>
      <trkpt lat="45.72108" lon="4.69567">
        <ele>379.164801</ele>
        <time>2021-04-24T08:58:31.519Z</time>
      </trkpt>
      <trkpt lat="45.72118" lon="4.69588">
        <ele>378.360123</ele>
        <time>2021-04-24T08:58:33.509Z</time>
      </trkpt>
      <trkpt lat="45.7212" lon="4.69602">
        <ele>377.92077</ele>
        <time>2021-04-24T08:58:34.516Z</time>
      </trkpt>
      <trkpt lat="45.72126" lon="4.69614">
        <ele>377.481579</ele>
        <time>2021-04-24T08:58:35.509Z</time>
      </trkpt>
      <trkpt lat="45.72137" lon="4.69634">
        <ele>376.665047</ele>
        <time>2021-04-24T08:58:37.533Z</time>
      </trkpt>
      <trkpt lat="45.72143" lon="4.69647">
        <ele>376.192647</ele>
        <time>2021-04-24T08:58:38.507Z</time>
      </trkpt>
      <trkpt lat="45.72149" lon="4.69661">
        <ele>375.692404</ele>
        <time>2021-04-24T08:58:39.503Z</time>
      </trkpt>
      <trkpt lat="45.72154" lon="4.69675">
        <ele>375.207792</ele>
        <time>2021-04-24T08:58:40.499Z</time>
      </trkpt>
      <trkpt lat="45.7216" lon="4.69689">
        <ele>374.698896</ele>
        <time>2021-04-24T08:58:41.504Z</time>
      </trkpt>
      <trkpt lat="45.72165" lon="4.69703">
        <ele>374.122337</ele>
        <time>2021-04-24T08:58:42.516Z</time>
      </trkpt>
      <trkpt lat="45.72172" lon="4.69714">
        <ele>373.105526</ele>
        <time>2021-04-24T08:58:43.514Z</time>
      </trkpt>
      <trkpt lat="45.72178" lon="4.69726">
        <ele>372.102546</ele>
        <time>2021-04-24T08:58:44.516Z</time>
      </trkpt>
      <trkpt lat="45.72184" lon="4.69744">
        <ele>370.718916</ele>
        <time>2021-04-24T08:58:46.514Z</time>
      </trkpt>
      <trkpt lat="45.7219" lon="4.6976">
        <ele>369.458281</ele>
        <time>2021-04-24T08:58:48.502Z</time>
      </trkpt>
      <trkpt lat="45.7219" lon="4.69778">
        <ele>368.260572</ele>
        <time>2021-04-24T08:58:51.499Z</time>
      </trkpt>
      <trkpt lat="45.72183" lon="4.69795">
        <ele>366.84535</ele>
        <time>2021-04-24T08:58:54.581Z</time>
      </trkpt>
      <trkpt lat="45.72176" lon="4.69809">
        <ele>365.71278</ele>
        <time>2021-04-24T08:58:56.493Z</time>
      </trkpt>
      <trkpt lat="45.72175" lon="4.69824">
        <ele>364.656765</ele>
        <time>2021-04-24T08:58:58.511Z</time>
      </trkpt>
      <trkpt lat="45.7218" lon="4.69839">
        <ele>363.53719</ele>
        <time>2021-04-24T08:59:00.509Z</time>
      </trkpt>
      <trkpt lat="45.72191" lon="4.6985">
        <ele>362.155103</ele>
        <time>2021-04-24T08:59:02.515Z</time>
      </trkpt>
      <trkpt lat="45.72205" lon="4.6985">
        <ele>360.816262</ele>
        <time>2021-04-24T08:59:04.518Z</time>
      </trkpt>
      <trkpt lat="45.72216" lon="4.69843">
        <ele>359.63423</ele>
        <time>2021-04-24T08:59:06.499Z</time>
      </trkpt>
      <trkpt lat="45.72229" lon="4.69838">
        <ele>358.304929</ele>
        <time>2021-04-24T08:59:08.506Z</time>
      </trkpt>
      <trkpt lat="45.72243" lon="4.69847">
        <ele>356.828997</ele>
        <time>2021-04-24T08:59:10.506Z</time>
      </trkpt>
      <trkpt lat="45.72256" lon="4.69857">
        <ele>356.140941</ele>
        <time>2021-04-24T08:59:12.523Z</time>
      </trkpt>
      <trkpt lat="45.72271" lon="4.69871">
        <ele>355.53756</ele>
        <time>2021-04-24T08:59:14.531Z</time>
      </trkpt>
      <trkpt lat="45.72285" lon="4.69884">
        <ele>354.938922</ele>
        <time>2021-04-24T08:59:16.517Z</time>
      </trkpt>
      <trkpt lat="45.72299" lon="4.69898">
        <ele>354.341631</ele>
        <time>2021-04-24T08:59:18.496Z</time>
      </trkpt>
      <trkpt lat="45.72314" lon="4.69912">
        <ele>353.720227</ele>
        <time>2021-04-24T08:59:20.536Z</time>
      </trkpt>
      <trkpt lat="45.72328" lon="4.69926">
        <ele>353.120236</ele>
        <time>2021-04-24T08:59:22.511Z</time>
      </trkpt>
      <trkpt lat="45.72336" lon="4.69934">
        <ele>352.803159</ele>
        <time>2021-04-24T08:59:23.501Z</time>
      </trkpt>
      <trkpt lat="45.72344" lon="4.69941">
        <ele>352.469227</ele>
        <time>2021-04-24T08:59:24.502Z</time>
      </trkpt>
      <trkpt lat="45.72358" lon="4.69953">
        <ele>351.880342</ele>
        <time>2021-04-24T08:59:26.525Z</time>
      </trkpt>
      <trkpt lat="45.72366" lon="4.69961">
        <ele>351.549201</ele>
        <time>2021-04-24T08:59:27.514Z</time>
      </trkpt>
      <trkpt lat="45.72375" lon="4.69969">
        <ele>351.19699</ele>
        <time>2021-04-24T08:59:28.512Z</time>
      </trkpt>
      <trkpt lat="45.72383" lon="4.69977">
        <ele>350.861375</ele>
        <time>2021-04-24T08:59:29.516Z</time>
      </trkpt>
      <trkpt lat="45.72391" lon="4.69984">
        <ele>350.529212</ele>
        <time>2021-04-24T08:59:30.510Z</time>
      </trkpt>
      <trkpt lat="45.72398" lon="4.69993">
        <ele>350.263238</ele>
        <time>2021-04-24T08:59:31.513Z</time>
      </trkpt>
      <trkpt lat="45.72413" lon="4.70007">
        <ele>349.980265</ele>
        <time>2021-04-24T08:59:33.515Z</time>
      </trkpt>
      <trkpt lat="45.72428" lon="4.70022">
        <ele>349.706956</ele>
        <time>2021-04-24T08:59:35.527Z</time>
      </trkpt>
      <trkpt lat="45.72436" lon="4.70031">
        <ele>349.54342</ele>
        <time>2021-04-24T08:59:36.528Z</time>
      </trkpt>
      <trkpt lat="45.7245" lon="4.70045">
        <ele>349.273888</ele>
        <time>2021-04-24T08:59:38.507Z</time>
      </trkpt>
      <trkpt lat="45.72464" lon="4.7006">
        <ele>349.003104</ele>
        <time>2021-04-24T08:59:40.518Z</time>
      </trkpt>
      <trkpt lat="45.72472" lon="4.70068">
        <ele>348.850355</ele>
        <time>2021-04-24T08:59:41.517Z</time>
      </trkpt>
      <trkpt lat="45.7248" lon="4.70075">
        <ele>348.709464</ele>
        <time>2021-04-24T08:59:42.519Z</time>
      </trkpt>
      <trkpt lat="45.72488" lon="4.70082">
        <ele>348.562757</ele>
        <time>2021-04-24T08:59:43.507Z</time>
      </trkpt>
      <trkpt lat="45.72497" lon="4.70088">
        <ele>348.413259</ele>
        <time>2021-04-24T08:59:44.500Z</time>
      </trkpt>
      <trkpt lat="45.72505" lon="4.70095">
        <ele>348.270977</ele>
        <time>2021-04-24T08:59:45.507Z</time>
      </trkpt>
      <trkpt lat="45.72514" lon="4.701">
        <ele>348.121725</ele>
        <time>2021-04-24T08:59:46.518Z</time>
      </trkpt>
      <trkpt lat="45.72523" lon="4.70105">
        <ele>347.966705</ele>
        <time>2021-04-24T08:59:47.502Z</time>
      </trkpt>
      <trkpt lat="45.72532" lon="4.7011">
        <ele>347.816862</ele>
        <time>2021-04-24T08:59:48.508Z</time>
      </trkpt>
      <trkpt lat="45.72542" lon="4.70113">
        <ele>347.655249</ele>
        <time>2021-04-24T08:59:49.504Z</time>
      </trkpt>
      <trkpt lat="45.72551" lon="4.70117">
        <ele>347.536319</ele>
        <time>2021-04-24T08:59:50.522Z</time>
      </trkpt>
      <trkpt lat="45.72561" lon="4.70121">
        <ele>347.668915</ele>
        <time>2021-04-24T08:59:51.532Z</time>
      </trkpt>
      <trkpt lat="45.7257" lon="4.70123">
        <ele>347.80269</ele>
        <time>2021-04-24T08:59:52.550Z</time>
      </trkpt>
      <trkpt lat="45.72579" lon="4.70124">
        <ele>347.929005</ele>
        <time>2021-04-24T08:59:53.499Z</time>
      </trkpt>
      <trkpt lat="45.72597" lon="4.70128">
        <ele>348.175142</ele>
        <time>2021-04-24T08:59:55.516Z</time>
      </trkpt>
      <trkpt lat="45.72615" lon="4.7013">
        <ele>348.419032</ele>
        <time>2021-04-24T08:59:57.515Z</time>
      </trkpt>
      <trkpt lat="45.72633" lon="4.70133">
        <ele>348.672354</ele>
        <time>2021-04-24T08:59:59.517Z</time>
      </trkpt>
      <trkpt lat="45.7265" lon="4.70135">
        <ele>348.913229</ele>
        <time>2021-04-24T09:00:01.518Z</time>
      </trkpt>
      <trkpt lat="45.72667" lon="4.70137">
        <ele>349.148987</ele>
        <time>2021-04-24T09:00:03.506Z</time>
      </trkpt>
      <trkpt lat="45.72682" lon="4.70141">
        <ele>349.350239</ele>
        <time>2021-04-24T09:00:05.511Z</time>
      </trkpt>
      <trkpt lat="45.72691" lon="4.70144">
        <ele>349.485336</ele>
        <time>2021-04-24T09:00:06.545Z</time>
      </trkpt>
      <trkpt lat="45.72707" lon="4.70149">
        <ele>349.712236</ele>
        <time>2021-04-24T09:00:08.526Z</time>
      </trkpt>
      <trkpt lat="45.72724" lon="4.70153">
        <ele>349.939813</ele>
        <time>2021-04-24T09:00:10.521Z</time>
      </trkpt>
      <trkpt lat="45.7274" lon="4.70157">
        <ele>349.822528</ele>
        <time>2021-04-24T09:00:12.519Z</time>
      </trkpt>
      <trkpt lat="45.72749" lon="4.7016">
        <ele>349.679528</ele>
        <time>2021-04-24T09:00:13.503Z</time>
      </trkpt>
      <trkpt lat="45.72765" lon="4.70168">
        <ele>349.43019</ele>
        <time>2021-04-24T09:00:15.507Z</time>
      </trkpt>
      <trkpt lat="45.7278" lon="4.70175">
        <ele>349.197766</ele>
        <time>2021-04-24T09:00:17.520Z</time>
      </trkpt>
      <trkpt lat="45.72793" lon="4.70186">
        <ele>348.973335</ele>
        <time>2021-04-24T09:00:19.518Z</time>
      </trkpt>
      <trkpt lat="45.72808" lon="4.70196">
        <ele>348.724978</ele>
        <time>2021-04-24T09:00:21.506Z</time>
      </trkpt>
      <trkpt lat="45.72822" lon="4.70208">
        <ele>348.487394</ele>
        <time>2021-04-24T09:00:23.507Z</time>
      </trkpt>
      <trkpt lat="45.72836" lon="4.7022">
        <ele>348.238977</ele>
        <time>2021-04-24T09:00:25.509Z</time>
      </trkpt>
      <trkpt lat="45.7285" lon="4.70233">
        <ele>347.993473</ele>
        <time>2021-04-24T09:00:27.518Z</time>
      </trkpt>
      <trkpt lat="45.72865" lon="4.70246">
        <ele>347.736123</ele>
        <time>2021-04-24T09:00:29.511Z</time>
      </trkpt>
      <trkpt lat="45.72879" lon="4.7026">
        <ele>347.489802</ele>
        <time>2021-04-24T09:00:31.515Z</time>
      </trkpt>
      <trkpt lat="45.72893" lon="4.70273">
        <ele>347.226333</ele>
        <time>2021-04-24T09:00:33.516Z</time>
      </trkpt>
      <trkpt lat="45.72908" lon="4.70288">
        <ele>346.942469</ele>
        <time>2021-04-24T09:00:35.542Z</time>
      </trkpt>
      <trkpt lat="45.72924" lon="4.70301">
        <ele>346.649774</ele>
        <time>2021-04-24T09:00:37.504Z</time>
      </trkpt>
      <trkpt lat="45.72939" lon="4.70314">
        <ele>346.366394</ele>
        <time>2021-04-24T09:00:39.498Z</time>
      </trkpt>
      <trkpt lat="45.72955" lon="4.70328">
        <ele>346.076252</ele>
        <time>2021-04-24T09:00:41.550Z</time>
      </trkpt>
      <trkpt lat="45.72963" lon="4.70336">
        <ele>345.921292</ele>
        <time>2021-04-24T09:00:42.518Z</time>
      </trkpt>
      <trkpt lat="45.7297" lon="4.70343">
        <ele>345.773598</ele>
        <time>2021-04-24T09:00:43.523Z</time>
      </trkpt>
      <trkpt lat="45.72986" lon="4.70357">
        <ele>345.485565</ele>
        <time>2021-04-24T09:00:45.508Z</time>
      </trkpt>
      <trkpt lat="45.73002" lon="4.70369">
        <ele>345.205145</ele>
        <time>2021-04-24T09:00:47.501Z</time>
      </trkpt>
      <trkpt lat="45.7301" lon="4.70375">
        <ele>345.055589</ele>
        <time>2021-04-24T09:00:48.510Z</time>
      </trkpt>
      <trkpt lat="45.73025" lon="4.70386">
        <ele>344.790139</ele>
        <time>2021-04-24T09:00:50.506Z</time>
      </trkpt>
      <trkpt lat="45.7304" lon="4.70395">
        <ele>344.533719</ele>
        <time>2021-04-24T09:00:52.500Z</time>
      </trkpt>
      <trkpt lat="45.73054" lon="4.70404">
        <ele>344.076997</ele>
        <time>2021-04-24T09:00:54.514Z</time>
      </trkpt>
      <trkpt lat="45.73069" lon="4.70413">
        <ele>343.564009</ele>
        <time>2021-04-24T09:00:56.510Z</time>
      </trkpt>
      <trkpt lat="45.73082" lon="4.70425">
        <ele>343.068566</ele>
        <time>2021-04-24T09:00:58.520Z</time>
      </trkpt>
      <trkpt lat="45.73095" lon="4.70437">
        <ele>342.573586</ele>
        <time>2021-04-24T09:01:00.511Z</time>
      </trkpt>
      <trkpt lat="45.73108" lon="4.70452">
        <ele>342.035276</ele>
        <time>2021-04-24T09:01:02.516Z</time>
      </trkpt>
      <trkpt lat="45.73121" lon="4.70468">
        <ele>341.489637</ele>
        <time>2021-04-24T09:01:04.502Z</time>
      </trkpt>
      <trkpt lat="45.73134" lon="4.70484">
        <ele>340.926545</ele>
        <time>2021-04-24T09:01:06.507Z</time>
      </trkpt>
      <trkpt lat="45.73147" lon="4.70502">
        <ele>340.35351</ele>
        <time>2021-04-24T09:01:08.498Z</time>
      </trkpt>
      <trkpt lat="45.73153" lon="4.70511">
        <ele>340.065797</ele>
        <time>2021-04-24T09:01:09.537Z</time>
      </trkpt>
      <trkpt lat="45.73159" lon="4.70523">
        <ele>339.74586</ele>
        <time>2021-04-24T09:01:10.497Z</time>
      </trkpt>
      <trkpt lat="45.73164" lon="4.70534">
        <ele>339.446092</ele>
        <time>2021-04-24T09:01:11.513Z</time>
      </trkpt>
      <trkpt lat="45.73169" lon="4.70546">
        <ele>339.133064</ele>
        <time>2021-04-24T09:01:12.496Z</time>
      </trkpt>
      <trkpt lat="45.73174" lon="4.70559">
        <ele>338.812325</ele>
        <time>2021-04-24T09:01:13.505Z</time>
      </trkpt>
      <trkpt lat="45.73179" lon="4.70571">
        <ele>338.46249</ele>
        <time>2021-04-24T09:01:14.516Z</time>
      </trkpt>
      <trkpt lat="45.73183" lon="4.70583">
        <ele>338.147136</ele>
        <time>2021-04-24T09:01:15.540Z</time>
      </trkpt>
      <trkpt lat="45.73188" lon="4.70597">
        <ele>337.778217</ele>
        <time>2021-04-24T09:01:16.524Z</time>
      </trkpt>
      <trkpt lat="45.73191" lon="4.7061">
        <ele>337.432052</ele>
        <time>2021-04-24T09:01:17.511Z</time>
      </trkpt>
      <trkpt lat="45.73196" lon="4.70624">
        <ele>337.071201</ele>
        <time>2021-04-24T09:01:18.516Z</time>
      </trkpt>
      <trkpt lat="45.732" lon="4.70637">
        <ele>336.721377</ele>
        <time>2021-04-24T09:01:19.509Z</time>
      </trkpt>
      <trkpt lat="45.73204" lon="4.7065">
        <ele>336.369347</ele>
        <time>2021-04-24T09:01:20.503Z</time>
      </trkpt>
      <trkpt lat="45.73208" lon="4.70663">
        <ele>336.018749</ele>
        <time>2021-04-24T09:01:21.521Z</time>
      </trkpt>
      <trkpt lat="45.73212" lon="4.70676">
        <ele>335.679591</ele>
        <time>2021-04-24T09:01:22.518Z</time>
      </trkpt>
      <trkpt lat="45.73216" lon="4.7069">
        <ele>335.317337</ele>
        <time>2021-04-24T09:01:23.507Z</time>
      </trkpt>
      <trkpt lat="45.7322" lon="4.70704">
        <ele>334.95282</ele>
        <time>2021-04-24T09:01:24.501Z</time>
      </trkpt>
      <trkpt lat="45.73225" lon="4.70716">
        <ele>334.603997</ele>
        <time>2021-04-24T09:01:25.505Z</time>
      </trkpt>
      <trkpt lat="45.73228" lon="4.70728">
        <ele>334.284232</ele>
        <time>2021-04-24T09:01:26.501Z</time>
      </trkpt>
      <trkpt lat="45.73233" lon="4.70741">
        <ele>333.948838</ele>
        <time>2021-04-24T09:01:27.542Z</time>
      </trkpt>
      <trkpt lat="45.7324" lon="4.70763">
        <ele>333.340131</ele>
        <time>2021-04-24T09:01:29.510Z</time>
      </trkpt>
      <trkpt lat="45.73248" lon="4.70785">
        <ele>332.762352</ele>
        <time>2021-04-24T09:01:31.492Z</time>
      </trkpt>
      <trkpt lat="45.73255" lon="4.70807">
        <ele>332.83172</ele>
        <time>2021-04-24T09:01:33.498Z</time>
      </trkpt>
      <trkpt lat="45.73261" lon="4.70828">
        <ele>333.606634</ele>
        <time>2021-04-24T09:01:35.499Z</time>
      </trkpt>
      <trkpt lat="45.73268" lon="4.70848">
        <ele>334.342911</ele>
        <time>2021-04-24T09:01:37.497Z</time>
      </trkpt>
      <trkpt lat="45.73273" lon="4.70868">
        <ele>335.070573</ele>
        <time>2021-04-24T09:01:39.497Z</time>
      </trkpt>
      <trkpt lat="45.73277" lon="4.70888">
        <ele>335.748698</ele>
        <time>2021-04-24T09:01:41.509Z</time>
      </trkpt>
      <trkpt lat="45.73284" lon="4.70905">
        <ele>336.405835</ele>
        <time>2021-04-24T09:01:43.499Z</time>
      </trkpt>
      <trkpt lat="45.73294" lon="4.70922">
        <ele>337.144856</ele>
        <time>2021-04-24T09:01:45.519Z</time>
      </trkpt>
      <trkpt lat="45.73304" lon="4.70937">
        <ele>337.845609</ele>
        <time>2021-04-24T09:01:47.498Z</time>
      </trkpt>
      <trkpt lat="45.73316" lon="4.70953">
        <ele>338.62582</ele>
        <time>2021-04-24T09:01:49.501Z</time>
      </trkpt>
      <trkpt lat="45.73328" lon="4.7097">
        <ele>339.424403</ele>
        <time>2021-04-24T09:01:51.506Z</time>
      </trkpt>
      <trkpt lat="45.73338" lon="4.70986">
        <ele>340.172272</ele>
        <time>2021-04-24T09:01:53.504Z</time>
      </trkpt>
      <trkpt lat="45.73349" lon="4.71006">
        <ele>341.035119</ele>
        <time>2021-04-24T09:01:55.505Z</time>
      </trkpt>
      <trkpt lat="45.73355" lon="4.71017">
        <ele>340.162377</ele>
        <time>2021-04-24T09:01:56.531Z</time>
      </trkpt>
      <trkpt lat="45.73362" lon="4.71041">
        <ele>338.229311</ele>
        <time>2021-04-24T09:01:58.509Z</time>
      </trkpt>
      <trkpt lat="45.73368" lon="4.71052">
        <ele>337.277386</ele>
        <time>2021-04-24T09:01:59.497Z</time>
      </trkpt>
      <trkpt lat="45.7338" lon="4.7107">
        <ele>335.367344</ele>
        <time>2021-04-24T09:02:01.493Z</time>
      </trkpt>
      <trkpt lat="45.73392" lon="4.71091">
        <ele>333.466779</ele>
        <time>2021-04-24T09:02:03.530Z</time>
      </trkpt>
      <trkpt lat="45.73399" lon="4.71114">
        <ele>331.613075</ele>
        <time>2021-04-24T09:02:05.500Z</time>
      </trkpt>
      <trkpt lat="45.73405" lon="4.71124">
        <ele>330.605356</ele>
        <time>2021-04-24T09:02:06.507Z</time>
      </trkpt>
      <trkpt lat="45.7341" lon="4.71136">
        <ele>329.6237</ele>
        <time>2021-04-24T09:02:07.497Z</time>
      </trkpt>
      <trkpt lat="45.73415" lon="4.71148">
        <ele>328.657099</ele>
        <time>2021-04-24T09:02:08.491Z</time>
      </trkpt>
      <trkpt lat="45.73421" lon="4.71158">
        <ele>327.676498</ele>
        <time>2021-04-24T09:02:09.492Z</time>
      </trkpt>
      <trkpt lat="45.73426" lon="4.7117">
        <ele>326.638316</ele>
        <time>2021-04-24T09:02:10.492Z</time>
      </trkpt>
      <trkpt lat="45.73432" lon="4.71182">
        <ele>325.566599</ele>
        <time>2021-04-24T09:02:11.511Z</time>
      </trkpt>
      <trkpt lat="45.73441" lon="4.71204">
        <ele>323.689679</ele>
        <time>2021-04-24T09:02:13.509Z</time>
      </trkpt>
      <trkpt lat="45.73451" lon="4.71227">
        <ele>322.070096</ele>
        <time>2021-04-24T09:02:15.504Z</time>
      </trkpt>
      <trkpt lat="45.73461" lon="4.71247">
        <ele>321.456161</ele>
        <time>2021-04-24T09:02:17.494Z</time>
      </trkpt>
      <trkpt lat="45.73471" lon="4.71266">
        <ele>320.868756</ele>
        <time>2021-04-24T09:02:19.505Z</time>
      </trkpt>
      <trkpt lat="45.73481" lon="4.71285">
        <ele>320.281113</ele>
        <time>2021-04-24T09:02:21.496Z</time>
      </trkpt>
      <trkpt lat="45.73491" lon="4.71306">
        <ele>319.663277</ele>
        <time>2021-04-24T09:02:23.497Z</time>
      </trkpt>
      <trkpt lat="45.73496" lon="4.71317">
        <ele>319.330953</ele>
        <time>2021-04-24T09:02:24.494Z</time>
      </trkpt>
      <trkpt lat="45.73502" lon="4.71327">
        <ele>319.002137</ele>
        <time>2021-04-24T09:02:25.500Z</time>
      </trkpt>
      <trkpt lat="45.7351" lon="4.71346">
        <ele>318.45058</ele>
        <time>2021-04-24T09:02:27.496Z</time>
      </trkpt>
      <trkpt lat="45.73519" lon="4.71353">
        <ele>318.102385</ele>
        <time>2021-04-24T09:02:28.500Z</time>
      </trkpt>
      <trkpt lat="45.73535" lon="4.71365">
        <ele>317.449768</ele>
        <time>2021-04-24T09:02:30.511Z</time>
      </trkpt>
      <trkpt lat="45.73553" lon="4.71373">
        <ele>316.797412</ele>
        <time>2021-04-24T09:02:32.501Z</time>
      </trkpt>
      <trkpt lat="45.73572" lon="4.7138">
        <ele>316.093466</ele>
        <time>2021-04-24T09:02:34.500Z</time>
      </trkpt>
      <trkpt lat="45.73582" lon="4.71382">
        <ele>315.717744</ele>
        <time>2021-04-24T09:02:35.492Z</time>
      </trkpt>
      <trkpt lat="45.73592" lon="4.71384">
        <ele>315.290391</ele>
        <time>2021-04-24T09:02:36.507Z</time>
      </trkpt>
      <trkpt lat="45.73601" lon="4.71387">
        <ele>314.884231</ele>
        <time>2021-04-24T09:02:37.508Z</time>
      </trkpt>
      <trkpt lat="45.73611" lon="4.71388">
        <ele>314.472121</ele>
        <time>2021-04-24T09:02:38.501Z</time>
      </trkpt>
      <trkpt lat="45.7362" lon="4.71391">
        <ele>314.068795</ele>
        <time>2021-04-24T09:02:39.502Z</time>
      </trkpt>
      <trkpt lat="45.73631" lon="4.71394">
        <ele>313.618185</ele>
        <time>2021-04-24T09:02:40.506Z</time>
      </trkpt>
      <trkpt lat="45.73641" lon="4.71396">
        <ele>313.19918</ele>
        <time>2021-04-24T09:02:41.503Z</time>
      </trkpt>
      <trkpt lat="45.7365" lon="4.714">
        <ele>312.80448</ele>
        <time>2021-04-24T09:02:42.512Z</time>
      </trkpt>
      <trkpt lat="45.7366" lon="4.71403">
        <ele>312.365793</ele>
        <time>2021-04-24T09:02:43.503Z</time>
      </trkpt>
      <trkpt lat="45.73669" lon="4.71407">
        <ele>311.979059</ele>
        <time>2021-04-24T09:02:44.502Z</time>
      </trkpt>
      <trkpt lat="45.73678" lon="4.71414">
        <ele>311.516575</ele>
        <time>2021-04-24T09:02:45.500Z</time>
      </trkpt>
      <trkpt lat="45.73689" lon="4.71419">
        <ele>311.064228</ele>
        <time>2021-04-24T09:02:46.492Z</time>
      </trkpt>
      <trkpt lat="45.73698" lon="4.71425">
        <ele>310.626401</ele>
        <time>2021-04-24T09:02:47.497Z</time>
      </trkpt>
      <trkpt lat="45.73708" lon="4.7143">
        <ele>310.171031</ele>
        <time>2021-04-24T09:02:48.497Z</time>
      </trkpt>
      <trkpt lat="45.73717" lon="4.71436">
        <ele>309.770061</ele>
        <time>2021-04-24T09:02:49.511Z</time>
      </trkpt>
      <trkpt lat="45.73729" lon="4.71453">
        <ele>309.059306</ele>
        <time>2021-04-24T09:02:51.510Z</time>
      </trkpt>
      <trkpt lat="45.73737" lon="4.71471">
        <ele>308.440094</ele>
        <time>2021-04-24T09:02:53.507Z</time>
      </trkpt>
      <trkpt lat="45.73744" lon="4.71489">
        <ele>308.117818</ele>
        <time>2021-04-24T09:02:55.497Z</time>
      </trkpt>
      <trkpt lat="45.73745" lon="4.71508">
        <ele>307.928933</ele>
        <time>2021-04-24T09:02:57.502Z</time>
      </trkpt>
      <trkpt lat="45.73746" lon="4.71523">
        <ele>307.768737</ele>
        <time>2021-04-24T09:02:59.523Z</time>
      </trkpt>
      <trkpt lat="45.73756" lon="4.7153">
        <ele>307.604761</ele>
        <time>2021-04-24T09:03:01.527Z</time>
      </trkpt>
      <trkpt lat="45.73765" lon="4.71543">
        <ele>307.415656</ele>
        <time>2021-04-24T09:03:03.531Z</time>
      </trkpt>
      <trkpt lat="45.7377" lon="4.71556">
        <ele>307.260967</ele>
        <time>2021-04-24T09:03:05.500Z</time>
      </trkpt>
      <trkpt lat="45.73775" lon="4.71574">
        <ele>307.060659</ele>
        <time>2021-04-24T09:03:08.492Z</time>
      </trkpt>
      <trkpt lat="45.7378" lon="4.7159">
        <ele>306.88331</ele>
        <time>2021-04-24T09:03:11.510Z</time>
      </trkpt>
      <trkpt lat="45.73783" lon="4.71602">
        <ele>306.743036</ele>
        <time>2021-04-24T09:03:13.506Z</time>
      </trkpt>
      <trkpt lat="45.73789" lon="4.71619">
        <ele>306.553195</ele>
        <time>2021-04-24T09:03:16.519Z</time>
      </trkpt>
      <trkpt lat="45.73795" lon="4.71634">
        <ele>306.375839</ele>
        <time>2021-04-24T09:03:19.510Z</time>
      </trkpt>
      <trkpt lat="45.738" lon="4.71651">
        <ele>306.181239</ele>
        <time>2021-04-24T09:03:22.539Z</time>
      </trkpt>
      <trkpt lat="45.73806" lon="4.71668">
        <ele>305.99107</ele>
        <time>2021-04-24T09:03:25.513Z</time>
      </trkpt>
      <trkpt lat="45.73811" lon="4.7168">
        <ele>305.84891</ele>
        <time>2021-04-24T09:03:27.520Z</time>
      </trkpt>
      <trkpt lat="45.73815" lon="4.71693">
        <ele>305.694321</ele>
        <time>2021-04-24T09:03:29.492Z</time>
      </trkpt>
      <trkpt lat="45.73822" lon="4.71708">
        <ele>306.146614</ele>
        <time>2021-04-24T09:03:31.509Z</time>
      </trkpt>
      <trkpt lat="45.73826" lon="4.71724">
        <ele>307.014196</ele>
        <time>2021-04-24T09:03:33.493Z</time>
      </trkpt>
      <trkpt lat="45.73831" lon="4.7174">
        <ele>307.877762</ele>
        <time>2021-04-24T09:03:35.501Z</time>
      </trkpt>
      <trkpt lat="45.73836" lon="4.71755">
        <ele>308.715257</ele>
        <time>2021-04-24T09:03:37.496Z</time>
      </trkpt>
      <trkpt lat="45.73839" lon="4.71771">
        <ele>309.576272</ele>
        <time>2021-04-24T09:03:39.500Z</time>
      </trkpt>
      <trkpt lat="45.73842" lon="4.71789">
        <ele>310.489416</ele>
        <time>2021-04-24T09:03:41.513Z</time>
      </trkpt>
      <trkpt lat="45.73845" lon="4.71807">
        <ele>311.399126</ele>
        <time>2021-04-24T09:03:43.515Z</time>
      </trkpt>
      <trkpt lat="45.73847" lon="4.71824">
        <ele>312.271395</ele>
        <time>2021-04-24T09:03:45.509Z</time>
      </trkpt>
      <trkpt lat="45.73846" lon="4.71842">
        <ele>313.190392</ele>
        <time>2021-04-24T09:03:47.501Z</time>
      </trkpt>
      <trkpt lat="45.73847" lon="4.7186">
        <ele>314.074596</ele>
        <time>2021-04-24T09:03:49.499Z</time>
      </trkpt>
      <trkpt lat="45.73845" lon="4.71879">
        <ele>315.043919</ele>
        <time>2021-04-24T09:03:51.508Z</time>
      </trkpt>
      <trkpt lat="45.73846" lon="4.71895">
        <ele>315.872547</ele>
        <time>2021-04-24T09:03:53.517Z</time>
      </trkpt>
      <trkpt lat="45.73849" lon="4.71915">
        <ele>316.872697</ele>
        <time>2021-04-24T09:03:55.519Z</time>
      </trkpt>
      <trkpt lat="45.73852" lon="4.71931">
        <ele>317.702473</ele>
        <time>2021-04-24T09:03:57.518Z</time>
      </trkpt>
      <trkpt lat="45.73855" lon="4.71948">
        <ele>318.564604</ele>
        <time>2021-04-24T09:03:59.488Z</time>
      </trkpt>
      <trkpt lat="45.73858" lon="4.71966">
        <ele>318.722494</ele>
        <time>2021-04-24T09:04:01.519Z</time>
      </trkpt>
      <trkpt lat="45.73862" lon="4.71983">
        <ele>318.869467</ele>
        <time>2021-04-24T09:04:03.523Z</time>
      </trkpt>
      <trkpt lat="45.73865" lon="4.72001">
        <ele>319.020439</ele>
        <time>2021-04-24T09:04:05.520Z</time>
      </trkpt>
      <trkpt lat="45.73869" lon="4.72018">
        <ele>319.172282</ele>
        <time>2021-04-24T09:04:07.508Z</time>
      </trkpt>
      <trkpt lat="45.73873" lon="4.72035">
        <ele>319.317814</ele>
        <time>2021-04-24T09:04:09.507Z</time>
      </trkpt>
      <trkpt lat="45.73878" lon="4.72051">
        <ele>319.465253</ele>
        <time>2021-04-24T09:04:11.500Z</time>
      </trkpt>
      <trkpt lat="45.73885" lon="4.72066">
        <ele>319.620088</ele>
        <time>2021-04-24T09:04:13.494Z</time>
      </trkpt>
      <trkpt lat="45.73892" lon="4.72082">
        <ele>319.775494</ele>
        <time>2021-04-24T09:04:15.496Z</time>
      </trkpt>
      <trkpt lat="45.739" lon="4.72097">
        <ele>319.931568</ele>
        <time>2021-04-24T09:04:17.499Z</time>
      </trkpt>
      <trkpt lat="45.73906" lon="4.72111">
        <ele>320.0682</ele>
        <time>2021-04-24T09:04:19.497Z</time>
      </trkpt>
      <trkpt lat="45.73915" lon="4.72127">
        <ele>320.243874</ele>
        <time>2021-04-24T09:04:21.514Z</time>
      </trkpt>
      <trkpt lat="45.73924" lon="4.72143">
        <ele>320.406846</ele>
        <time>2021-04-24T09:04:23.510Z</time>
      </trkpt>
      <trkpt lat="45.73932" lon="4.72159">
        <ele>320.572715</ele>
        <time>2021-04-24T09:04:25.498Z</time>
      </trkpt>
      <trkpt lat="45.7394" lon="4.72174">
        <ele>320.734501</ele>
        <time>2021-04-24T09:04:27.527Z</time>
      </trkpt>
      <trkpt lat="45.73952" lon="4.72189">
        <ele>320.946283</ele>
        <time>2021-04-24T09:04:29.518Z</time>
      </trkpt>
      <trkpt lat="45.73963" lon="4.72202">
        <ele>321.136691</ele>
        <time>2021-04-24T09:04:31.503Z</time>
      </trkpt>
      <trkpt lat="45.73972" lon="4.72216">
        <ele>321.310697</ele>
        <time>2021-04-24T09:04:33.525Z</time>
      </trkpt>
      <trkpt lat="45.73986" lon="4.72226">
        <ele>321.507096</ele>
        <time>2021-04-24T09:04:35.513Z</time>
      </trkpt>
      <trkpt lat="45.74" lon="4.72233">
        <ele>321.707452</ele>
        <time>2021-04-24T09:04:37.499Z</time>
      </trkpt>
      <trkpt lat="45.74015" lon="4.72237">
        <ele>321.912028</ele>
        <time>2021-04-24T09:04:39.535Z</time>
      </trkpt>
      <trkpt lat="45.74027" lon="4.72243">
        <ele>322.069703</ele>
        <time>2021-04-24T09:04:41.527Z</time>
      </trkpt>
      <trkpt lat="45.74037" lon="4.72249">
        <ele>322.222152</ele>
        <time>2021-04-24T09:04:43.516Z</time>
      </trkpt>
      <trkpt lat="45.74049" lon="4.72253">
        <ele>322.377826</ele>
        <time>2021-04-24T09:04:45.502Z</time>
      </trkpt>
      <trkpt lat="45.74059" lon="4.72258">
        <ele>322.519395</ele>
        <time>2021-04-24T09:04:47.509Z</time>
      </trkpt>
      <trkpt lat="45.74069" lon="4.72265">
        <ele>322.667521</ele>
        <time>2021-04-24T09:04:49.508Z</time>
      </trkpt>
      <trkpt lat="45.74077" lon="4.72276">
        <ele>322.807156</ele>
        <time>2021-04-24T09:04:51.523Z</time>
      </trkpt>
      <trkpt lat="45.74083" lon="4.72287">
        <ele>322.941005</ele>
        <time>2021-04-24T09:04:53.507Z</time>
      </trkpt>
      <trkpt lat="45.74092" lon="4.72298">
        <ele>323.169411</ele>
        <time>2021-04-24T09:04:55.513Z</time>
      </trkpt>
      <trkpt lat="45.74098" lon="4.72312">
        <ele>323.688603</ele>
        <time>2021-04-24T09:04:57.495Z</time>
      </trkpt>
      <trkpt lat="45.74105" lon="4.72325">
        <ele>324.232155</ele>
        <time>2021-04-24T09:04:59.498Z</time>
      </trkpt>
      <trkpt lat="45.74112" lon="4.72338">
        <ele>324.800448</ele>
        <time>2021-04-24T09:05:01.523Z</time>
      </trkpt>
      <trkpt lat="45.74118" lon="4.7235">
        <ele>325.271001</ele>
        <time>2021-04-24T09:05:03.502Z</time>
      </trkpt>
      <trkpt lat="45.74124" lon="4.72362">
        <ele>325.774169</ele>
        <time>2021-04-24T09:05:05.512Z</time>
      </trkpt>
      <trkpt lat="45.7413" lon="4.72375">
        <ele>326.287159</ele>
        <time>2021-04-24T09:05:07.494Z</time>
      </trkpt>
      <trkpt lat="45.74136" lon="4.72386">
        <ele>326.743667</ele>
        <time>2021-04-24T09:05:10.499Z</time>
      </trkpt>
      <trkpt lat="45.74143" lon="4.72394">
        <ele>327.176095</ele>
        <time>2021-04-24T09:05:15.522Z</time>
      </trkpt>
      <trkpt lat="45.74152" lon="4.72404">
        <ele>327.713847</ele>
        <time>2021-04-24T09:05:29.501Z</time>
      </trkpt>
      <trkpt lat="45.7416" lon="4.72413">
        <ele>328.194322</ele>
        <time>2021-04-24T09:05:31.496Z</time>
      </trkpt>
      <trkpt lat="45.74168" lon="4.72422">
        <ele>328.668752</ele>
        <time>2021-04-24T09:05:33.493Z</time>
      </trkpt>
      <trkpt lat="45.74177" lon="4.72432">
        <ele>329.203438</ele>
        <time>2021-04-24T09:05:35.503Z</time>
      </trkpt>
      <trkpt lat="45.74187" lon="4.72439">
        <ele>329.706947</ele>
        <time>2021-04-24T09:05:37.510Z</time>
      </trkpt>
      <trkpt lat="45.74196" lon="4.72446">
        <ele>330.205339</ele>
        <time>2021-04-24T09:05:39.521Z</time>
      </trkpt>
      <trkpt lat="45.74206" lon="4.72455">
        <ele>330.775891</ele>
        <time>2021-04-24T09:05:41.500Z</time>
      </trkpt>
      <trkpt lat="45.74216" lon="4.72465">
        <ele>331.346343</ele>
        <time>2021-04-24T09:05:43.507Z</time>
      </trkpt>
      <trkpt lat="45.74226" lon="4.72476">
        <ele>331.511402</ele>
        <time>2021-04-24T09:05:45.555Z</time>
      </trkpt>
      <trkpt lat="45.74236" lon="4.72489">
        <ele>331.424732</ele>
        <time>2021-04-24T09:05:47.524Z</time>
      </trkpt>
      <trkpt lat="45.74246" lon="4.72504">
        <ele>331.339737</ele>
        <time>2021-04-24T09:05:49.510Z</time>
      </trkpt>
      <trkpt lat="45.74254" lon="4.7252">
        <ele>331.252972</ele>
        <time>2021-04-24T09:05:51.516Z</time>
      </trkpt>
      <trkpt lat="45.74263" lon="4.72536">
        <ele>331.167108</ele>
        <time>2021-04-24T09:05:53.510Z</time>
      </trkpt>
      <trkpt lat="45.74271" lon="4.72552">
        <ele>331.080194</ele>
        <time>2021-04-24T09:05:55.504Z</time>
      </trkpt>
      <trkpt lat="45.74278" lon="4.72569">
        <ele>330.993231</ele>
        <time>2021-04-24T09:05:57.487Z</time>
      </trkpt>
      <trkpt lat="45.74286" lon="4.72587">
        <ele>330.899862</ele>
        <time>2021-04-24T09:05:59.500Z</time>
      </trkpt>
      <trkpt lat="45.74295" lon="4.72604">
        <ele>330.810117</ele>
        <time>2021-04-24T09:06:01.496Z</time>
      </trkpt>
      <trkpt lat="45.74304" lon="4.72621">
        <ele>330.716381</ele>
        <time>2021-04-24T09:06:03.507Z</time>
      </trkpt>
      <trkpt lat="45.74314" lon="4.72638">
        <ele>330.621447</ele>
        <time>2021-04-24T09:06:05.504Z</time>
      </trkpt>
      <trkpt lat="45.74325" lon="4.72654">
        <ele>330.525816</ele>
        <time>2021-04-24T09:06:07.521Z</time>
      </trkpt>
      <trkpt lat="45.74332" lon="4.72672">
        <ele>330.490002</ele>
        <time>2021-04-24T09:06:09.504Z</time>
      </trkpt>
      <trkpt lat="45.74343" lon="4.72689">
        <ele>330.830429</ele>
        <time>2021-04-24T09:06:11.523Z</time>
      </trkpt>
      <trkpt lat="45.74355" lon="4.72705">
        <ele>331.169985</ele>
        <time>2021-04-24T09:06:13.508Z</time>
      </trkpt>
      <trkpt lat="45.74366" lon="4.7272">
        <ele>331.516249</ele>
        <time>2021-04-24T09:06:15.516Z</time>
      </trkpt>
      <trkpt lat="45.74377" lon="4.72738">
        <ele>331.865885</ele>
        <time>2021-04-24T09:06:17.528Z</time>
      </trkpt>
      <trkpt lat="45.74388" lon="4.72756">
        <ele>332.226773</ele>
        <time>2021-04-24T09:06:19.519Z</time>
      </trkpt>
      <trkpt lat="45.744" lon="4.72773">
        <ele>332.586173</ele>
        <time>2021-04-24T09:06:21.492Z</time>
      </trkpt>
      <trkpt lat="45.7441" lon="4.72793">
        <ele>332.954688</ele>
        <time>2021-04-24T09:06:23.492Z</time>
      </trkpt>
      <trkpt lat="45.74419" lon="4.72812">
        <ele>333.298504</ele>
        <time>2021-04-24T09:06:25.496Z</time>
      </trkpt>
      <trkpt lat="45.7443" lon="4.72832">
        <ele>333.678257</ele>
        <time>2021-04-24T09:06:27.492Z</time>
      </trkpt>
      <trkpt lat="45.74436" lon="4.72843">
        <ele>333.876865</ele>
        <time>2021-04-24T09:06:28.496Z</time>
      </trkpt>
      <trkpt lat="45.74449" lon="4.7286">
        <ele>334.251987</ele>
        <time>2021-04-24T09:06:30.538Z</time>
      </trkpt>
      <trkpt lat="45.74459" lon="4.72879">
        <ele>333.538633</ele>
        <time>2021-04-24T09:06:32.502Z</time>
      </trkpt>
      <trkpt lat="45.74469" lon="4.72897">
        <ele>332.739809</ele>
        <time>2021-04-24T09:06:34.512Z</time>
      </trkpt>
      <trkpt lat="45.74478" lon="4.72916">
        <ele>331.909438</ele>
        <time>2021-04-24T09:06:36.501Z</time>
      </trkpt>
      <trkpt lat="45.74489" lon="4.72932">
        <ele>331.153579</ele>
        <time>2021-04-24T09:06:38.500Z</time>
      </trkpt>
      <trkpt lat="45.74498" lon="4.72949">
        <ele>330.395561</ele>
        <time>2021-04-24T09:06:40.511Z</time>
      </trkpt>
      <trkpt lat="45.74508" lon="4.72966">
        <ele>329.64239</ele>
        <time>2021-04-24T09:06:42.499Z</time>
      </trkpt>
      <trkpt lat="45.74517" lon="4.7298">
        <ele>328.954639</ele>
        <time>2021-04-24T09:06:44.500Z</time>
      </trkpt>
      <trkpt lat="45.74528" lon="4.72995">
        <ele>328.218792</ele>
        <time>2021-04-24T09:06:46.529Z</time>
      </trkpt>
      <trkpt lat="45.74539" lon="4.7301">
        <ele>327.455233</ele>
        <time>2021-04-24T09:06:48.516Z</time>
      </trkpt>
      <trkpt lat="45.7455" lon="4.73025">
        <ele>326.661452</ele>
        <time>2021-04-24T09:06:50.559Z</time>
      </trkpt>
      <trkpt lat="45.74559" lon="4.73038">
        <ele>326.028416</ele>
        <time>2021-04-24T09:06:52.502Z</time>
      </trkpt>
      <trkpt lat="45.74571" lon="4.73054">
        <ele>325.224274</ele>
        <time>2021-04-24T09:06:54.492Z</time>
      </trkpt>
      <trkpt lat="45.74583" lon="4.73071">
        <ele>324.529787</ele>
        <time>2021-04-24T09:06:56.488Z</time>
      </trkpt>
      <trkpt lat="45.74597" lon="4.73087">
        <ele>323.789077</ele>
        <time>2021-04-24T09:06:58.504Z</time>
      </trkpt>
      <trkpt lat="45.74608" lon="4.73104">
        <ele>323.121253</ele>
        <time>2021-04-24T09:07:00.497Z</time>
      </trkpt>
      <trkpt lat="45.7462" lon="4.73118">
        <ele>322.492582</ele>
        <time>2021-04-24T09:07:02.491Z</time>
      </trkpt>
      <trkpt lat="45.7463" lon="4.73132">
        <ele>321.898929</ele>
        <time>2021-04-24T09:07:04.507Z</time>
      </trkpt>
      <trkpt lat="45.74638" lon="4.73139">
        <ele>321.520745</ele>
        <time>2021-04-24T09:07:05.518Z</time>
      </trkpt>
      <trkpt lat="45.74652" lon="4.73154">
        <ele>320.827953</ele>
        <time>2021-04-24T09:07:07.500Z</time>
      </trkpt>
      <trkpt lat="45.74661" lon="4.73171">
        <ele>320.203521</ele>
        <time>2021-04-24T09:07:09.514Z</time>
      </trkpt>
      <trkpt lat="45.74673" lon="4.73185">
        <ele>319.576675</ele>
        <time>2021-04-24T09:07:11.501Z</time>
      </trkpt>
      <trkpt lat="45.74684" lon="4.732">
        <ele>318.958493</ele>
        <time>2021-04-24T09:07:13.501Z</time>
      </trkpt>
      <trkpt lat="45.74697" lon="4.73213">
        <ele>318.30959</ele>
        <time>2021-04-24T09:07:15.501Z</time>
      </trkpt>
      <trkpt lat="45.7471" lon="4.73225">
        <ele>318.256107</ele>
        <time>2021-04-24T09:07:17.499Z</time>
      </trkpt>
      <trkpt lat="45.74723" lon="4.73239">
        <ele>319.408871</ele>
        <time>2021-04-24T09:07:19.496Z</time>
      </trkpt>
      <trkpt lat="45.74734" lon="4.73254">
        <ele>320.495183</ele>
        <time>2021-04-24T09:07:21.496Z</time>
      </trkpt>
      <trkpt lat="45.74739" lon="4.73273">
        <ele>321.450247</ele>
        <time>2021-04-24T09:07:23.498Z</time>
      </trkpt>
      <trkpt lat="45.74739" lon="4.73292">
        <ele>322.389002</ele>
        <time>2021-04-24T09:07:25.503Z</time>
      </trkpt>
      <trkpt lat="45.74738" lon="4.73311">
        <ele>323.33657</ele>
        <time>2021-04-24T09:07:27.506Z</time>
      </trkpt>
      <trkpt lat="45.74738" lon="4.73329">
        <ele>324.229614</ele>
        <time>2021-04-24T09:07:29.500Z</time>
      </trkpt>
      <trkpt lat="45.74737" lon="4.73345">
        <ele>325.041864</ele>
        <time>2021-04-24T09:07:31.502Z</time>
      </trkpt>
      <trkpt lat="45.74737" lon="4.73361">
        <ele>325.826871</ele>
        <time>2021-04-24T09:07:33.506Z</time>
      </trkpt>
      <trkpt lat="45.74735" lon="4.73376">
        <ele>326.553067</ele>
        <time>2021-04-24T09:07:35.508Z</time>
      </trkpt>
      <trkpt lat="45.74734" lon="4.73389">
        <ele>327.232006</ele>
        <time>2021-04-24T09:07:37.507Z</time>
      </trkpt>
      <trkpt lat="45.74734" lon="4.73406">
        <ele>328.043148</ele>
        <time>2021-04-24T09:07:39.511Z</time>
      </trkpt>
      <trkpt lat="45.74735" lon="4.73423">
        <ele>328.877941</ele>
        <time>2021-04-24T09:07:41.510Z</time>
      </trkpt>
      <trkpt lat="45.74736" lon="4.73439">
        <ele>329.691544</ele>
        <time>2021-04-24T09:07:43.514Z</time>
      </trkpt>
      <trkpt lat="45.74737" lon="4.73457">
        <ele>330.574975</ele>
        <time>2021-04-24T09:07:45.496Z</time>
      </trkpt>
      <trkpt lat="45.74736" lon="4.73474">
        <ele>330.212658</ele>
        <time>2021-04-24T09:07:47.519Z</time>
      </trkpt>
      <trkpt lat="45.74735" lon="4.73493">
        <ele>329.785185</ele>
        <time>2021-04-24T09:07:49.503Z</time>
      </trkpt>
      <trkpt lat="45.74735" lon="4.73511">
        <ele>329.360261</ele>
        <time>2021-04-24T09:07:51.510Z</time>
      </trkpt>
      <trkpt lat="45.74735" lon="4.7353">
        <ele>328.930936</ele>
        <time>2021-04-24T09:07:53.519Z</time>
      </trkpt>
      <trkpt lat="45.74736" lon="4.73549">
        <ele>328.491442</ele>
        <time>2021-04-24T09:07:55.514Z</time>
      </trkpt>
      <trkpt lat="45.74735" lon="4.73567">
        <ele>328.066517</ele>
        <time>2021-04-24T09:07:57.506Z</time>
      </trkpt>
      <trkpt lat="45.74735" lon="4.73588">
        <ele>327.602768</ele>
        <time>2021-04-24T09:07:59.516Z</time>
      </trkpt>
      <trkpt lat="45.74736" lon="4.7361">
        <ele>327.095357</ele>
        <time>2021-04-24T09:08:01.507Z</time>
      </trkpt>
      <trkpt lat="45.74736" lon="4.7363">
        <ele>326.638448</ele>
        <time>2021-04-24T09:08:03.500Z</time>
      </trkpt>
      <trkpt lat="45.74735" lon="4.73646">
        <ele>326.262157</ele>
        <time>2021-04-24T09:08:05.507Z</time>
      </trkpt>
      <trkpt lat="45.74733" lon="4.73665">
        <ele>325.831909</ele>
        <time>2021-04-24T09:08:07.505Z</time>
      </trkpt>
      <trkpt lat="45.74731" lon="4.73683">
        <ele>325.40166</ele>
        <time>2021-04-24T09:08:09.509Z</time>
      </trkpt>
      <trkpt lat="45.74732" lon="4.73701">
        <ele>324.992533</ele>
        <time>2021-04-24T09:08:11.500Z</time>
      </trkpt>
      <trkpt lat="45.74732" lon="4.73718">
        <ele>324.652764</ele>
        <time>2021-04-24T09:08:13.508Z</time>
      </trkpt>
      <trkpt lat="45.74733" lon="4.73737">
        <ele>324.505517</ele>
        <time>2021-04-24T09:08:15.505Z</time>
      </trkpt>
      <trkpt lat="45.74733" lon="4.73757">
        <ele>324.355376</ele>
        <time>2021-04-24T09:08:17.494Z</time>
      </trkpt>
      <trkpt lat="45.74734" lon="4.73775">
        <ele>324.215795</ele>
        <time>2021-04-24T09:08:19.502Z</time>
      </trkpt>
      <trkpt lat="45.74733" lon="4.73795">
        <ele>324.06703</ele>
        <time>2021-04-24T09:08:21.505Z</time>
      </trkpt>
      <trkpt lat="45.74734" lon="4.73814">
        <ele>323.921642</ele>
        <time>2021-04-24T09:08:23.500Z</time>
      </trkpt>
      <trkpt lat="45.74734" lon="4.73833">
        <ele>323.778603</ele>
        <time>2021-04-24T09:08:25.506Z</time>
      </trkpt>
      <trkpt lat="45.74733" lon="4.73851">
        <ele>323.637336</ele>
        <time>2021-04-24T09:08:27.503Z</time>
      </trkpt>
      <trkpt lat="45.74732" lon="4.7387">
        <ele>323.49499</ele>
        <time>2021-04-24T09:08:29.498Z</time>
      </trkpt>
      <trkpt lat="45.74732" lon="4.73887">
        <ele>323.364052</ele>
        <time>2021-04-24T09:08:31.503Z</time>
      </trkpt>
      <trkpt lat="45.74732" lon="4.73902">
        <ele>323.25292</ele>
        <time>2021-04-24T09:08:33.491Z</time>
      </trkpt>
      <trkpt lat="45.74731" lon="4.73918">
        <ele>323.129606</ele>
        <time>2021-04-24T09:08:35.506Z</time>
      </trkpt>
      <trkpt lat="45.74728" lon="4.73935">
        <ele>322.997448</ele>
        <time>2021-04-24T09:08:37.507Z</time>
      </trkpt>
      <trkpt lat="45.74725" lon="4.73952">
        <ele>322.861433</ele>
        <time>2021-04-24T09:08:39.503Z</time>
      </trkpt>
      <trkpt lat="45.74724" lon="4.7397">
        <ele>322.725997</ele>
        <time>2021-04-24T09:08:41.510Z</time>
      </trkpt>
      <trkpt lat="45.74724" lon="4.73989">
        <ele>322.199862</ele>
        <time>2021-04-24T09:08:43.508Z</time>
      </trkpt>
      <trkpt lat="45.74728" lon="4.74011">
        <ele>321.584093</ele>
        <time>2021-04-24T09:08:45.499Z</time>
      </trkpt>
      <trkpt lat="45.74733" lon="4.74029">
        <ele>321.051587</ele>
        <time>2021-04-24T09:08:47.505Z</time>
      </trkpt>
      <trkpt lat="45.74734" lon="4.74048">
        <ele>320.499548</ele>
        <time>2021-04-24T09:08:49.502Z</time>
      </trkpt>
      <trkpt lat="45.74733" lon="4.74069">
        <ele>319.92769</ele>
        <time>2021-04-24T09:08:51.499Z</time>
      </trkpt>
      <trkpt lat="45.74734" lon="4.74089">
        <ele>319.345919</ele>
        <time>2021-04-24T09:08:53.497Z</time>
      </trkpt>
      <trkpt lat="45.74734" lon="4.74111">
        <ele>318.734439</ele>
        <time>2021-04-24T09:08:55.499Z</time>
      </trkpt>
      <trkpt lat="45.74732" lon="4.74134">
        <ele>318.104985</ele>
        <time>2021-04-24T09:08:57.511Z</time>
      </trkpt>
      <trkpt lat="45.74732" lon="4.74153">
        <ele>317.563398</ele>
        <time>2021-04-24T09:08:59.511Z</time>
      </trkpt>
      <trkpt lat="45.74732" lon="4.7417">
        <ele>317.088807</ele>
        <time>2021-04-24T09:09:01.497Z</time>
      </trkpt>
      <trkpt lat="45.74732" lon="4.74189">
        <ele>316.560949</ele>
        <time>2021-04-24T09:09:03.494Z</time>
      </trkpt>
      <trkpt lat="45.74731" lon="4.74206">
        <ele>316.094132</ele>
        <time>2021-04-24T09:09:05.505Z</time>
      </trkpt>
      <trkpt lat="45.74731" lon="4.74219">
        <ele>315.714473</ele>
        <time>2021-04-24T09:09:07.500Z</time>
      </trkpt>
      <trkpt lat="45.74732" lon="4.74235">
        <ele>315.536707</ele>
        <time>2021-04-24T09:09:11.508Z</time>
      </trkpt>
      <trkpt lat="45.74733" lon="4.74249">
        <ele>315.556872</ele>
        <time>2021-04-24T09:09:20.506Z</time>
      </trkpt>
      <trkpt lat="45.74731" lon="4.74266">
        <ele>315.580875</ele>
        <time>2021-04-24T09:09:24.501Z</time>
      </trkpt>
      <trkpt lat="45.74733" lon="4.74284">
        <ele>315.607577</ele>
        <time>2021-04-24T09:09:26.501Z</time>
      </trkpt>
      <trkpt lat="45.74735" lon="4.74302">
        <ele>315.633964</ele>
        <time>2021-04-24T09:09:28.510Z</time>
      </trkpt>
      <trkpt lat="45.74735" lon="4.74325">
        <ele>315.666726</ele>
        <time>2021-04-24T09:09:30.498Z</time>
      </trkpt>
      <trkpt lat="45.74735" lon="4.74348">
        <ele>315.699324</ele>
        <time>2021-04-24T09:09:32.504Z</time>
      </trkpt>
      <trkpt lat="45.74735" lon="4.74368">
        <ele>315.728779</ele>
        <time>2021-04-24T09:09:34.511Z</time>
      </trkpt>
      <trkpt lat="45.74738" lon="4.74386">
        <ele>315.754977</ele>
        <time>2021-04-24T09:09:36.496Z</time>
      </trkpt>
      <trkpt lat="45.74737" lon="4.74407">
        <ele>315.784992</ele>
        <time>2021-04-24T09:09:38.500Z</time>
      </trkpt>
      <trkpt lat="45.74738" lon="4.74426">
        <ele>315.812162</ele>
        <time>2021-04-24T09:09:40.506Z</time>
      </trkpt>
      <trkpt lat="45.74737" lon="4.74446">
        <ele>315.841265</ele>
        <time>2021-04-24T09:09:42.498Z</time>
      </trkpt>
      <trkpt lat="45.74736" lon="4.74467">
        <ele>315.871354</ele>
        <time>2021-04-24T09:09:44.501Z</time>
      </trkpt>
      <trkpt lat="45.74735" lon="4.74489">
        <ele>315.886034</ele>
        <time>2021-04-24T09:09:46.495Z</time>
      </trkpt>
      <trkpt lat="45.74736" lon="4.74509">
        <ele>315.858972</ele>
        <time>2021-04-24T09:09:48.501Z</time>
      </trkpt>
      <trkpt lat="45.74737" lon="4.74528">
        <ele>315.834631</ele>
        <time>2021-04-24T09:09:50.502Z</time>
      </trkpt>
      <trkpt lat="45.74738" lon="4.74549">
        <ele>315.806837</ele>
        <time>2021-04-24T09:09:52.516Z</time>
      </trkpt>
      <trkpt lat="45.74737" lon="4.7457">
        <ele>315.778694</ele>
        <time>2021-04-24T09:09:54.503Z</time>
      </trkpt>
      <trkpt lat="45.74736" lon="4.74588">
        <ele>315.754391</ele>
        <time>2021-04-24T09:09:56.498Z</time>
      </trkpt>
      <trkpt lat="45.74736" lon="4.74605">
        <ele>315.732079</ele>
        <time>2021-04-24T09:09:58.506Z</time>
      </trkpt>
      <trkpt lat="45.74735" lon="4.74623">
        <ele>315.708656</ele>
        <time>2021-04-24T09:10:00.500Z</time>
      </trkpt>
      <trkpt lat="45.74734" lon="4.74642">
        <ele>315.682688</ele>
        <time>2021-04-24T09:10:02.507Z</time>
      </trkpt>
      <trkpt lat="45.74735" lon="4.7466">
        <ele>315.659811</ele>
        <time>2021-04-24T09:10:04.502Z</time>
      </trkpt>
      <trkpt lat="45.74735" lon="4.74681">
        <ele>315.63182</ele>
        <time>2021-04-24T09:10:06.502Z</time>
      </trkpt>
      <trkpt lat="45.74733" lon="4.747">
        <ele>315.606466</ele>
        <time>2021-04-24T09:10:08.497Z</time>
      </trkpt>
      <trkpt lat="45.74734" lon="4.74722">
        <ele>315.57731</ele>
        <time>2021-04-24T09:10:10.501Z</time>
      </trkpt>
      <trkpt lat="45.74731" lon="4.74742">
        <ele>315.504138</ele>
        <time>2021-04-24T09:10:12.502Z</time>
      </trkpt>
      <trkpt lat="45.74729" lon="4.74762">
        <ele>315.170604</ele>
        <time>2021-04-24T09:10:14.504Z</time>
      </trkpt>
      <trkpt lat="45.74729" lon="4.74782">
        <ele>314.830613</ele>
        <time>2021-04-24T09:10:16.503Z</time>
      </trkpt>
      <trkpt lat="45.74729" lon="4.74802">
        <ele>314.505765</ele>
        <time>2021-04-24T09:10:18.515Z</time>
      </trkpt>
      <trkpt lat="45.74729" lon="4.74822">
        <ele>314.174436</ele>
        <time>2021-04-24T09:10:20.519Z</time>
      </trkpt>
      <trkpt lat="45.7473" lon="4.74843">
        <ele>313.810935</ele>
        <time>2021-04-24T09:10:22.502Z</time>
      </trkpt>
      <trkpt lat="45.74729" lon="4.74864">
        <ele>313.461267</ele>
        <time>2021-04-24T09:10:24.517Z</time>
      </trkpt>
      <trkpt lat="45.74729" lon="4.74884">
        <ele>313.126385</ele>
        <time>2021-04-24T09:10:26.505Z</time>
      </trkpt>
      <trkpt lat="45.7473" lon="4.74904">
        <ele>312.799865</ele>
        <time>2021-04-24T09:10:28.501Z</time>
      </trkpt>
      <trkpt lat="45.74729" lon="4.74926">
        <ele>312.431607</ele>
        <time>2021-04-24T09:10:30.507Z</time>
      </trkpt>
      <trkpt lat="45.74729" lon="4.74949">
        <ele>312.04169</ele>
        <time>2021-04-24T09:10:32.512Z</time>
      </trkpt>
      <trkpt lat="45.74728" lon="4.7497">
        <ele>311.681724</ele>
        <time>2021-04-24T09:10:34.506Z</time>
      </trkpt>
      <trkpt lat="45.74729" lon="4.74992">
        <ele>311.311886</ele>
        <time>2021-04-24T09:10:36.517Z</time>
      </trkpt>
      <trkpt lat="45.7473" lon="4.75017">
        <ele>310.967705</ele>
        <time>2021-04-24T09:10:38.517Z</time>
      </trkpt>
      <trkpt lat="45.74731" lon="4.7504">
        <ele>310.654168</ele>
        <time>2021-04-24T09:10:40.517Z</time>
      </trkpt>
      <trkpt lat="45.7473" lon="4.75063">
        <ele>310.347677</ele>
        <time>2021-04-24T09:10:42.496Z</time>
      </trkpt>
      <trkpt lat="45.74732" lon="4.75084">
        <ele>310.061738</ele>
        <time>2021-04-24T09:10:44.496Z</time>
      </trkpt>
      <trkpt lat="45.74732" lon="4.75106">
        <ele>309.775448</ele>
        <time>2021-04-24T09:10:46.494Z</time>
      </trkpt>
      <trkpt lat="45.74733" lon="4.75128">
        <ele>309.467925</ele>
        <time>2021-04-24T09:10:48.498Z</time>
      </trkpt>
      <trkpt lat="45.74734" lon="4.75151">
        <ele>309.160188</ele>
        <time>2021-04-24T09:10:50.502Z</time>
      </trkpt>
      <trkpt lat="45.74734" lon="4.75175">
        <ele>308.84564</ele>
        <time>2021-04-24T09:10:52.495Z</time>
      </trkpt>
      <trkpt lat="45.74734" lon="4.75198">
        <ele>308.529608</ele>
        <time>2021-04-24T09:10:54.521Z</time>
      </trkpt>
      <trkpt lat="45.74732" lon="4.75218">
        <ele>308.255998</ele>
        <time>2021-04-24T09:10:56.511Z</time>
      </trkpt>
      <trkpt lat="45.74731" lon="4.75241">
        <ele>307.950128</ele>
        <time>2021-04-24T09:10:58.517Z</time>
      </trkpt>
      <trkpt lat="45.7473" lon="4.75263">
        <ele>307.573956</ele>
        <time>2021-04-24T09:11:00.546Z</time>
      </trkpt>
      <trkpt lat="45.7473" lon="4.75285">
        <ele>307.086365</ele>
        <time>2021-04-24T09:11:02.505Z</time>
      </trkpt>
      <trkpt lat="45.7473" lon="4.75305">
        <ele>306.651451</ele>
        <time>2021-04-24T09:11:04.510Z</time>
      </trkpt>
      <trkpt lat="45.7473" lon="4.75326">
        <ele>306.194608</ele>
        <time>2021-04-24T09:11:06.528Z</time>
      </trkpt>
      <trkpt lat="45.74731" lon="4.75347">
        <ele>305.722024</ele>
        <time>2021-04-24T09:11:08.512Z</time>
      </trkpt>
      <trkpt lat="45.74731" lon="4.75368">
        <ele>305.269312</ele>
        <time>2021-04-24T09:11:10.489Z</time>
      </trkpt>
      <trkpt lat="45.74732" lon="4.7539">
        <ele>304.793648</ele>
        <time>2021-04-24T09:11:12.540Z</time>
      </trkpt>
      <trkpt lat="45.74732" lon="4.7541">
        <ele>304.352089</ele>
        <time>2021-04-24T09:11:14.502Z</time>
      </trkpt>
      <trkpt lat="45.74732" lon="4.75429">
        <ele>303.923243</ele>
        <time>2021-04-24T09:11:16.509Z</time>
      </trkpt>
      <trkpt lat="45.74731" lon="4.75449">
        <ele>303.480172</ele>
        <time>2021-04-24T09:11:18.522Z</time>
      </trkpt>
      <trkpt lat="45.74731" lon="4.75466">
        <ele>303.12205</ele>
        <time>2021-04-24T09:11:20.496Z</time>
      </trkpt>
      <trkpt lat="45.74732" lon="4.75483">
        <ele>302.747353</ele>
        <time>2021-04-24T09:11:22.486Z</time>
      </trkpt>
      <trkpt lat="45.74732" lon="4.75497">
        <ele>302.431023</ele>
        <time>2021-04-24T09:11:24.521Z</time>
      </trkpt>
      <trkpt lat="45.74734" lon="4.75515">
        <ele>302.048169</ele>
        <time>2021-04-24T09:11:27.504Z</time>
      </trkpt>
      <trkpt lat="45.74736" lon="4.75531">
        <ele>301.798406</ele>
        <time>2021-04-24T09:11:29.501Z</time>
      </trkpt>
      <trkpt lat="45.74736" lon="4.75547">
        <ele>301.552702</ele>
        <time>2021-04-24T09:11:32.503Z</time>
      </trkpt>
      <trkpt lat="45.74737" lon="4.75562">
        <ele>301.317603</ele>
        <time>2021-04-24T09:11:36.503Z</time>
      </trkpt>
      <trkpt lat="45.7474" lon="4.75576">
        <ele>301.101537</ele>
        <time>2021-04-24T09:11:41.505Z</time>
      </trkpt>
      <trkpt lat="45.74739" lon="4.7559">
        <ele>300.874135</ele>
        <time>2021-04-24T09:11:46.515Z</time>
      </trkpt>
      <trkpt lat="45.74737" lon="4.75605">
        <ele>300.635956</ele>
        <time>2021-04-24T09:11:52.509Z</time>
      </trkpt>
      <trkpt lat="45.74736" lon="4.75622">
        <ele>300.372275</ele>
        <time>2021-04-24T09:11:55.507Z</time>
      </trkpt>
      <trkpt lat="45.74737" lon="4.7564">
        <ele>300.101518</ele>
        <time>2021-04-24T09:11:57.492Z</time>
      </trkpt>
      <trkpt lat="45.7474" lon="4.75656">
        <ele>299.845053</ele>
        <time>2021-04-24T09:11:59.496Z</time>
      </trkpt>
      <trkpt lat="45.74739" lon="4.75673">
        <ele>299.572954</ele>
        <time>2021-04-24T09:12:01.495Z</time>
      </trkpt>
      <trkpt lat="45.7474" lon="4.7569">
        <ele>299.313455</ele>
        <time>2021-04-24T09:12:03.503Z</time>
      </trkpt>
      <trkpt lat="45.74736" lon="4.75705">
        <ele>299.055268</ele>
        <time>2021-04-24T09:12:05.492Z</time>
      </trkpt>
      <trkpt lat="45.74736" lon="4.75723">
        <ele>298.780263</ele>
        <time>2021-04-24T09:12:07.501Z</time>
      </trkpt>
      <trkpt lat="45.74737" lon="4.75742">
        <ele>298.48523</ele>
        <time>2021-04-24T09:12:09.515Z</time>
      </trkpt>
      <trkpt lat="45.7474" lon="4.75762">
        <ele>298.159948</ele>
        <time>2021-04-24T09:12:11.505Z</time>
      </trkpt>
      <trkpt lat="45.74744" lon="4.75781">
        <ele>297.829732</ele>
        <time>2021-04-24T09:12:13.508Z</time>
      </trkpt>
      <trkpt lat="45.74745" lon="4.75801">
        <ele>297.509543</ele>
        <time>2021-04-24T09:12:15.505Z</time>
      </trkpt>
      <trkpt lat="45.74746" lon="4.75821">
        <ele>297.17415</ele>
        <time>2021-04-24T09:12:17.517Z</time>
      </trkpt>
      <trkpt lat="45.74747" lon="4.75842">
        <ele>296.823365</ele>
        <time>2021-04-24T09:12:19.510Z</time>
      </trkpt>
      <trkpt lat="45.74752" lon="4.75861">
        <ele>296.481224</ele>
        <time>2021-04-24T09:12:21.501Z</time>
      </trkpt>
      <trkpt lat="45.74757" lon="4.75884">
        <ele>296.094332</ele>
        <time>2021-04-24T09:12:23.505Z</time>
      </trkpt>
      <trkpt lat="45.74765" lon="4.75905">
        <ele>295.684521</ele>
        <time>2021-04-24T09:12:25.493Z</time>
      </trkpt>
      <trkpt lat="45.7477" lon="4.75917">
        <ele>295.457827</ele>
        <time>2021-04-24T09:12:26.491Z</time>
      </trkpt>
      <trkpt lat="45.74775" lon="4.75929">
        <ele>295.227961</ele>
        <time>2021-04-24T09:12:27.492Z</time>
      </trkpt>
      <trkpt lat="45.7478" lon="4.7594">
        <ele>295.01053</ele>
        <time>2021-04-24T09:12:28.493Z</time>
      </trkpt>
      <trkpt lat="45.74782" lon="4.75954">
        <ele>294.784386</ele>
        <time>2021-04-24T09:12:29.495Z</time>
      </trkpt>
      <trkpt lat="45.74787" lon="4.75964">
        <ele>294.57082</ele>
        <time>2021-04-24T09:12:30.493Z</time>
      </trkpt>
      <trkpt lat="45.74795" lon="4.75988">
        <ele>294.131898</ele>
        <time>2021-04-24T09:12:32.508Z</time>
      </trkpt>
      <trkpt lat="45.748" lon="4.76">
        <ele>293.907267</ele>
        <time>2021-04-24T09:12:33.506Z</time>
      </trkpt>
      <trkpt lat="45.74811" lon="4.76021">
        <ele>292.787035</ele>
        <time>2021-04-24T09:12:35.501Z</time>
      </trkpt>
      <trkpt lat="45.74821" lon="4.76044">
        <ele>291.56344</ele>
        <time>2021-04-24T09:12:37.518Z</time>
      </trkpt>
      <trkpt lat="45.74826" lon="4.76055">
        <ele>290.958981</ele>
        <time>2021-04-24T09:12:38.506Z</time>
      </trkpt>
      <trkpt lat="45.74832" lon="4.76065">
        <ele>290.354351</ele>
        <time>2021-04-24T09:12:39.509Z</time>
      </trkpt>
      <trkpt lat="45.7484" lon="4.76072">
        <ele>289.743158</ele>
        <time>2021-04-24T09:12:40.503Z</time>
      </trkpt>
      <trkpt lat="45.74849" lon="4.7608">
        <ele>289.073765</ele>
        <time>2021-04-24T09:12:41.501Z</time>
      </trkpt>
      <trkpt lat="45.74857" lon="4.76087">
        <ele>288.44658</ele>
        <time>2021-04-24T09:12:42.513Z</time>
      </trkpt>
      <trkpt lat="45.74867" lon="4.76094">
        <ele>287.724335</ele>
        <time>2021-04-24T09:12:43.497Z</time>
      </trkpt>
      <trkpt lat="45.74877" lon="4.761">
        <ele>287.018683</ele>
        <time>2021-04-24T09:12:44.518Z</time>
      </trkpt>
      <trkpt lat="45.74887" lon="4.76104">
        <ele>286.331221</ele>
        <time>2021-04-24T09:12:45.498Z</time>
      </trkpt>
      <trkpt lat="45.74898" lon="4.76106">
        <ele>285.590747</ele>
        <time>2021-04-24T09:12:46.499Z</time>
      </trkpt>
      <trkpt lat="45.74908" lon="4.76109">
        <ele>284.903698</ele>
        <time>2021-04-24T09:12:47.525Z</time>
      </trkpt>
      <trkpt lat="45.74921" lon="4.7611">
        <ele>284.082801</ele>
        <time>2021-04-24T09:12:48.528Z</time>
      </trkpt>
      <trkpt lat="45.74933" lon="4.76112">
        <ele>283.283164</ele>
        <time>2021-04-24T09:12:49.522Z</time>
      </trkpt>
      <trkpt lat="45.74943" lon="4.76114">
        <ele>282.582318</ele>
        <time>2021-04-24T09:12:50.503Z</time>
      </trkpt>
      <trkpt lat="45.74954" lon="4.76117">
        <ele>281.844619</ele>
        <time>2021-04-24T09:12:51.490Z</time>
      </trkpt>
      <trkpt lat="45.74965" lon="4.7612">
        <ele>280.93061</ele>
        <time>2021-04-24T09:12:52.488Z</time>
      </trkpt>
      <trkpt lat="45.74978" lon="4.76122">
        <ele>279.935416</ele>
        <time>2021-04-24T09:12:53.490Z</time>
      </trkpt>
      <trkpt lat="45.74989" lon="4.76124">
        <ele>279.042291</ele>
        <time>2021-04-24T09:12:54.514Z</time>
      </trkpt>
      <trkpt lat="45.75" lon="4.76126">
        <ele>278.143384</ele>
        <time>2021-04-24T09:12:55.490Z</time>
      </trkpt>
      <trkpt lat="45.75011" lon="4.76128">
        <ele>277.229864</ele>
        <time>2021-04-24T09:12:56.518Z</time>
      </trkpt>
      <trkpt lat="45.75021" lon="4.76131">
        <ele>276.436524</ele>
        <time>2021-04-24T09:12:57.496Z</time>
      </trkpt>
      <trkpt lat="45.75031" lon="4.76133">
        <ele>275.64042</ele>
        <time>2021-04-24T09:12:58.503Z</time>
      </trkpt>
      <trkpt lat="45.7504" lon="4.76136">
        <ele>274.909078</ele>
        <time>2021-04-24T09:12:59.505Z</time>
      </trkpt>
      <trkpt lat="45.7505" lon="4.76137">
        <ele>274.068582</ele>
        <time>2021-04-24T09:13:00.507Z</time>
      </trkpt>
      <trkpt lat="45.7506" lon="4.76139">
        <ele>273.322664</ele>
        <time>2021-04-24T09:13:01.503Z</time>
      </trkpt>
      <trkpt lat="45.75076" lon="4.7614">
        <ele>272.043915</ele>
        <time>2021-04-24T09:13:03.547Z</time>
      </trkpt>
      <trkpt lat="45.75085" lon="4.76141">
        <ele>271.293696</ele>
        <time>2021-04-24T09:13:04.509Z</time>
      </trkpt>
      <trkpt lat="45.75096" lon="4.76146">
        <ele>270.338466</ele>
        <time>2021-04-24T09:13:06.502Z</time>
      </trkpt>
      <trkpt lat="45.75091" lon="4.76136">
        <ele>269.598599</ele>
        <time>2021-04-24T09:13:14.527Z</time>
      </trkpt>
      <trkpt lat="45.75081" lon="4.76133">
        <ele>268.811747</ele>
        <time>2021-04-24T09:13:18.503Z</time>
      </trkpt>
      <trkpt lat="45.75098" lon="4.76148">
        <ele>267.415987</ele>
        <time>2021-04-24T09:14:43.505Z</time>
      </trkpt>
      <trkpt lat="45.75112" lon="4.76152">
        <ele>266.771968</ele>
        <time>2021-04-24T09:14:46.505Z</time>
      </trkpt>
      <trkpt lat="45.75125" lon="4.7615">
        <ele>266.140252</ele>
        <time>2021-04-24T09:14:48.510Z</time>
      </trkpt>
      <trkpt lat="45.75138" lon="4.76154">
        <ele>265.503407</ele>
        <time>2021-04-24T09:14:50.510Z</time>
      </trkpt>
      <trkpt lat="45.75147" lon="4.76158">
        <ele>265.069029</ele>
        <time>2021-04-24T09:14:51.505Z</time>
      </trkpt>
      <trkpt lat="45.75158" lon="4.76167">
        <ele>264.485955</ele>
        <time>2021-04-24T09:14:53.504Z</time>
      </trkpt>
      <trkpt lat="45.75171" lon="4.7618">
        <ele>263.739406</ele>
        <time>2021-04-24T09:14:55.507Z</time>
      </trkpt>
      <trkpt lat="45.75179" lon="4.76196">
        <ele>263.068986</ele>
        <time>2021-04-24T09:14:57.504Z</time>
      </trkpt>
      <trkpt lat="45.75184" lon="4.76214">
        <ele>262.434934</ele>
        <time>2021-04-24T09:14:59.502Z</time>
      </trkpt>
      <trkpt lat="45.75188" lon="4.76231">
        <ele>261.861091</ele>
        <time>2021-04-24T09:15:01.502Z</time>
      </trkpt>
      <trkpt lat="45.75189" lon="4.76248">
        <ele>261.313509</ele>
        <time>2021-04-24T09:15:03.496Z</time>
      </trkpt>
      <trkpt lat="45.7519" lon="4.76264">
        <ele>260.75626</ele>
        <time>2021-04-24T09:15:05.508Z</time>
      </trkpt>
      <trkpt lat="45.75185" lon="4.76277">
        <ele>260.276952</ele>
        <time>2021-04-24T09:15:07.506Z</time>
      </trkpt>
      <trkpt lat="45.75176" lon="4.7629">
        <ele>259.680822</ele>
        <time>2021-04-24T09:15:09.497Z</time>
      </trkpt>
      <trkpt lat="45.75175" lon="4.76307">
        <ele>259.267244</ele>
        <time>2021-04-24T09:15:12.675Z</time>
      </trkpt>
      <trkpt lat="45.75168" lon="4.76316">
        <ele>259.376211</ele>
        <time>2021-04-24T09:15:14.509Z</time>
      </trkpt>
      <trkpt lat="45.75163" lon="4.76327">
        <ele>259.47929</ele>
        <time>2021-04-24T09:15:16.515Z</time>
      </trkpt>
      <trkpt lat="45.75157" lon="4.76339">
        <ele>259.594654</ele>
        <time>2021-04-24T09:15:18.498Z</time>
      </trkpt>
      <trkpt lat="45.75149" lon="4.76351">
        <ele>259.721387</ele>
        <time>2021-04-24T09:15:21.500Z</time>
      </trkpt>
      <trkpt lat="45.7514" lon="4.76357">
        <ele>259.836141</ele>
        <time>2021-04-24T09:15:23.503Z</time>
      </trkpt>
      <trkpt lat="45.75129" lon="4.76371">
        <ele>259.999068</ele>
        <time>2021-04-24T09:15:26.509Z</time>
      </trkpt>
      <trkpt lat="45.7512" lon="4.76379">
        <ele>260.115783</ele>
        <time>2021-04-24T09:15:28.524Z</time>
      </trkpt>
      <trkpt lat="45.75108" lon="4.76387">
        <ele>260.264248</ele>
        <time>2021-04-24T09:15:31.526Z</time>
      </trkpt>
      <trkpt lat="45.75099" lon="4.76395">
        <ele>260.38674</ele>
        <time>2021-04-24T09:15:33.497Z</time>
      </trkpt>
      <trkpt lat="45.7509" lon="4.76405">
        <ele>260.505697</ele>
        <time>2021-04-24T09:15:35.503Z</time>
      </trkpt>
      <trkpt lat="45.75082" lon="4.76414">
        <ele>260.622086</ele>
        <time>2021-04-24T09:15:38.495Z</time>
      </trkpt>
      <trkpt lat="45.7507" lon="4.76419">
        <ele>260.762975</ele>
        <time>2021-04-24T09:15:41.520Z</time>
      </trkpt>
      <trkpt lat="45.75063" lon="4.76427">
        <ele>260.864021</ele>
        <time>2021-04-24T09:15:43.499Z</time>
      </trkpt>
      <trkpt lat="45.75058" lon="4.76439">
        <ele>260.967775</ele>
        <time>2021-04-24T09:15:45.494Z</time>
      </trkpt>
      <trkpt lat="45.75052" lon="4.7645">
        <ele>261.080457</ele>
        <time>2021-04-24T09:15:47.497Z</time>
      </trkpt>
      <trkpt lat="45.75051" lon="4.76463">
        <ele>261.181411</ele>
        <time>2021-04-24T09:15:49.500Z</time>
      </trkpt>
      <trkpt lat="45.75048" lon="4.76483">
        <ele>261.406033</ele>
        <time>2021-04-24T09:15:52.511Z</time>
      </trkpt>
      <trkpt lat="45.75048" lon="4.76497">
        <ele>261.603336</ele>
        <time>2021-04-24T09:15:54.501Z</time>
      </trkpt>
      <trkpt lat="45.75047" lon="4.7651">
        <ele>261.799097</ele>
        <time>2021-04-24T09:15:56.498Z</time>
      </trkpt>
      <trkpt lat="45.75047" lon="4.76524">
        <ele>262.001736</ele>
        <time>2021-04-24T09:15:58.496Z</time>
      </trkpt>
      <trkpt lat="45.75048" lon="4.76538">
        <ele>262.202773</ele>
        <time>2021-04-24T09:16:01.489Z</time>
      </trkpt>
      <trkpt lat="45.7505" lon="4.76552">
        <ele>262.405294</ele>
        <time>2021-04-24T09:16:04.512Z</time>
      </trkpt>
      <trkpt lat="45.75048" lon="4.76567">
        <ele>262.614782</ele>
        <time>2021-04-24T09:16:08.489Z</time>
      </trkpt>
      <trkpt lat="45.75042" lon="4.7658">
        <ele>262.845888</ele>
        <time>2021-04-24T09:16:11.488Z</time>
      </trkpt>
      <trkpt lat="45.75032" lon="4.76591">
        <ele>263.102712</ele>
        <time>2021-04-24T09:16:14.493Z</time>
      </trkpt>
      <trkpt lat="45.7502" lon="4.76591">
        <ele>263.33789</ele>
        <time>2021-04-24T09:16:16.490Z</time>
      </trkpt>
      <trkpt lat="45.75006" lon="4.76593">
        <ele>263.631855</ele>
        <time>2021-04-24T09:16:19.510Z</time>
      </trkpt>
      <trkpt lat="45.74994" lon="4.76596">
        <ele>263.873984</ele>
        <time>2021-04-24T09:16:21.491Z</time>
      </trkpt>
      <trkpt lat="45.74981" lon="4.76599">
        <ele>264.14627</ele>
        <time>2021-04-24T09:16:23.490Z</time>
      </trkpt>
      <trkpt lat="45.74967" lon="4.76605">
        <ele>264.454128</ele>
        <time>2021-04-24T09:16:25.488Z</time>
      </trkpt>
      <trkpt lat="45.74957" lon="4.7662">
        <ele>264.755785</ele>
        <time>2021-04-24T09:16:27.494Z</time>
      </trkpt>
      <trkpt lat="45.74956" lon="4.76644">
        <ele>265.151458</ele>
        <time>2021-04-24T09:16:29.502Z</time>
      </trkpt>
      <trkpt lat="45.7496" lon="4.7666">
        <ele>265.51141</ele>
        <time>2021-04-24T09:16:31.495Z</time>
      </trkpt>
      <trkpt lat="45.74969" lon="4.76679">
        <ele>265.960163</ele>
        <time>2021-04-24T09:16:33.493Z</time>
      </trkpt>
      <trkpt lat="45.74977" lon="4.76696">
        <ele>266.377514</ele>
        <time>2021-04-24T09:16:35.499Z</time>
      </trkpt>
      <trkpt lat="45.74986" lon="4.76713">
        <ele>266.794883</ele>
        <time>2021-04-24T09:16:37.510Z</time>
      </trkpt>
      <trkpt lat="45.74995" lon="4.76727">
        <ele>267.189536</ele>
        <time>2021-04-24T09:16:39.506Z</time>
      </trkpt>
      <trkpt lat="45.75008" lon="4.7674">
        <ele>267.651276</ele>
        <time>2021-04-24T09:16:41.561Z</time>
      </trkpt>
      <trkpt lat="45.7502" lon="4.76754">
        <ele>268.086531</ele>
        <time>2021-04-24T09:16:43.504Z</time>
      </trkpt>
      <trkpt lat="45.75031" lon="4.76767">
        <ele>268.505829</ele>
        <time>2021-04-24T09:16:45.521Z</time>
      </trkpt>
      <trkpt lat="45.75043" lon="4.76782">
        <ele>268.951389</ele>
        <time>2021-04-24T09:16:47.527Z</time>
      </trkpt>
      <trkpt lat="45.75054" lon="4.76797">
        <ele>269.398603</ele>
        <time>2021-04-24T09:16:49.514Z</time>
      </trkpt>
      <trkpt lat="45.75067" lon="4.76811">
        <ele>269.857167</ele>
        <time>2021-04-24T09:16:51.517Z</time>
      </trkpt>
      <trkpt lat="45.75077" lon="4.76828">
        <ele>269.918573</ele>
        <time>2021-04-24T09:16:53.497Z</time>
      </trkpt>
      <trkpt lat="45.75085" lon="4.76845">
        <ele>269.49472</ele>
        <time>2021-04-24T09:16:55.520Z</time>
      </trkpt>
      <trkpt lat="45.75096" lon="4.76862">
        <ele>269.008876</ele>
        <time>2021-04-24T09:16:57.536Z</time>
      </trkpt>
      <trkpt lat="45.75107" lon="4.76882">
        <ele>268.499518</ele>
        <time>2021-04-24T09:16:59.520Z</time>
      </trkpt>
      <trkpt lat="45.75114" lon="4.76901">
        <ele>268.059802</ele>
        <time>2021-04-24T09:17:01.505Z</time>
      </trkpt>
      <trkpt lat="45.75123" lon="4.76922">
        <ele>267.565172</ele>
        <time>2021-04-24T09:17:03.506Z</time>
      </trkpt>
      <trkpt lat="45.75131" lon="4.76942">
        <ele>267.085917</ele>
        <time>2021-04-24T09:17:05.527Z</time>
      </trkpt>
      <trkpt lat="45.75138" lon="4.76962">
        <ele>266.619188</ele>
        <time>2021-04-24T09:17:07.509Z</time>
      </trkpt>
      <trkpt lat="45.75148" lon="4.76981">
        <ele>266.141851</ele>
        <time>2021-04-24T09:17:09.504Z</time>
      </trkpt>
      <trkpt lat="45.75156" lon="4.77">
        <ele>265.682853</ele>
        <time>2021-04-24T09:17:11.497Z</time>
      </trkpt>
      <trkpt lat="45.75166" lon="4.77018">
        <ele>265.211868</ele>
        <time>2021-04-24T09:17:13.495Z</time>
      </trkpt>
      <trkpt lat="45.75176" lon="4.77036">
        <ele>264.819494</ele>
        <time>2021-04-24T09:17:15.516Z</time>
      </trkpt>
      <trkpt lat="45.75185" lon="4.77055">
        <ele>264.750047</ele>
        <time>2021-04-24T09:17:17.504Z</time>
      </trkpt>
      <trkpt lat="45.75195" lon="4.77074">
        <ele>264.680844</ele>
        <time>2021-04-24T09:17:19.511Z</time>
      </trkpt>
      <trkpt lat="45.75205" lon="4.77093">
        <ele>264.609076</ele>
        <time>2021-04-24T09:17:21.641Z</time>
      </trkpt>
      <trkpt lat="45.75216" lon="4.77108">
        <ele>264.544502</ele>
        <time>2021-04-24T09:17:23.491Z</time>
      </trkpt>
      <trkpt lat="45.75227" lon="4.77122">
        <ele>264.480674</ele>
        <time>2021-04-24T09:17:25.497Z</time>
      </trkpt>
      <trkpt lat="45.75238" lon="4.77137">
        <ele>264.416092</ele>
        <time>2021-04-24T09:17:27.495Z</time>
      </trkpt>
      <trkpt lat="45.75248" lon="4.77152">
        <ele>264.354012</ele>
        <time>2021-04-24T09:17:29.490Z</time>
      </trkpt>
      <trkpt lat="45.75257" lon="4.77169">
        <ele>264.28991</ele>
        <time>2021-04-24T09:17:31.491Z</time>
      </trkpt>
      <trkpt lat="45.75264" lon="4.77188">
        <ele>264.225292</ele>
        <time>2021-04-24T09:17:33.494Z</time>
      </trkpt>
      <trkpt lat="45.75272" lon="4.77208">
        <ele>264.158583</ele>
        <time>2021-04-24T09:17:35.502Z</time>
      </trkpt>
      <trkpt lat="45.75278" lon="4.77228">
        <ele>264.092888</ele>
        <time>2021-04-24T09:17:37.493Z</time>
      </trkpt>
      <trkpt lat="45.75286" lon="4.77247">
        <ele>264.060356</ele>
        <time>2021-04-24T09:17:39.507Z</time>
      </trkpt>
      <trkpt lat="45.75291" lon="4.77268">
        <ele>264.053229</ele>
        <time>2021-04-24T09:17:41.499Z</time>
      </trkpt>
      <trkpt lat="45.75296" lon="4.77289">
        <ele>264.045883</ele>
        <time>2021-04-24T09:17:43.506Z</time>
      </trkpt>
      <trkpt lat="45.75302" lon="4.7731">
        <ele>264.038603</ele>
        <time>2021-04-24T09:17:45.507Z</time>
      </trkpt>
      <trkpt lat="45.75304" lon="4.77331">
        <ele>264.031497</ele>
        <time>2021-04-24T09:17:47.502Z</time>
      </trkpt>
      <trkpt lat="45.75308" lon="4.77353">
        <ele>264.024228</ele>
        <time>2021-04-24T09:17:49.502Z</time>
      </trkpt>
      <trkpt lat="45.7531" lon="4.77375">
        <ele>264.017028</ele>
        <time>2021-04-24T09:17:51.500Z</time>
      </trkpt>
      <trkpt lat="45.75314" lon="4.77395">
        <ele>264.010123</ele>
        <time>2021-04-24T09:17:53.536Z</time>
      </trkpt>
      <trkpt lat="45.75318" lon="4.77412">
        <ele>264.004287</ele>
        <time>2021-04-24T09:17:55.499Z</time>
      </trkpt>
      <trkpt lat="45.75321" lon="4.77429">
        <ele>263.998748</ele>
        <time>2021-04-24T09:17:57.499Z</time>
      </trkpt>
      <trkpt lat="45.75326" lon="4.77446">
        <ele>263.992864</ele>
        <time>2021-04-24T09:17:59.502Z</time>
      </trkpt>
      <trkpt lat="45.75331" lon="4.77463">
        <ele>263.986773</ele>
        <time>2021-04-24T09:18:01.508Z</time>
      </trkpt>
      <trkpt lat="45.75338" lon="4.77479">
        <ele>263.980602</ele>
        <time>2021-04-24T09:18:03.514Z</time>
      </trkpt>
      <trkpt lat="45.75343" lon="4.77494">
        <ele>264.362325</ele>
        <time>2021-04-24T09:18:05.505Z</time>
      </trkpt>
      <trkpt lat="45.75348" lon="4.7751">
        <ele>264.757096</ele>
        <time>2021-04-24T09:18:07.501Z</time>
      </trkpt>
      <trkpt lat="45.75352" lon="4.77525">
        <ele>265.121114</ele>
        <time>2021-04-24T09:18:09.492Z</time>
      </trkpt>
      <trkpt lat="45.75356" lon="4.77539">
        <ele>265.487918</ele>
        <time>2021-04-24T09:18:11.491Z</time>
      </trkpt>
      <trkpt lat="45.75361" lon="4.77551">
        <ele>265.802914</ele>
        <time>2021-04-24T09:18:13.485Z</time>
      </trkpt>
      <trkpt lat="45.75367" lon="4.77562">
        <ele>266.114377</ele>
        <time>2021-04-24T09:18:15.501Z</time>
      </trkpt>
      <trkpt lat="45.75371" lon="4.77573">
        <ele>266.415463</ele>
        <time>2021-04-24T09:18:17.496Z</time>
      </trkpt>
      <trkpt lat="45.75376" lon="4.77584">
        <ele>266.715691</ele>
        <time>2021-04-24T09:18:19.570Z</time>
      </trkpt>
      <trkpt lat="45.75381" lon="4.77607">
        <ele>267.272239</ele>
        <time>2021-04-24T09:18:23.507Z</time>
      </trkpt>
      <trkpt lat="45.75386" lon="4.77618">
        <ele>267.574338</ele>
        <time>2021-04-24T09:18:25.502Z</time>
      </trkpt>
      <trkpt lat="45.75389" lon="4.77631">
        <ele>267.884807</ele>
        <time>2021-04-24T09:18:27.507Z</time>
      </trkpt>
      <trkpt lat="45.75393" lon="4.77649">
        <ele>268.333256</ele>
        <time>2021-04-24T09:18:30.522Z</time>
      </trkpt>
      <trkpt lat="45.75399" lon="4.77664">
        <ele>268.725121</ele>
        <time>2021-04-24T09:18:32.509Z</time>
      </trkpt>
      <trkpt lat="45.75406" lon="4.77679">
        <ele>269.156176</ele>
        <time>2021-04-24T09:18:34.504Z</time>
      </trkpt>
      <trkpt lat="45.75408" lon="4.77696">
        <ele>269.543388</ele>
        <time>2021-04-24T09:18:36.557Z</time>
      </trkpt>
      <trkpt lat="45.75407" lon="4.77711">
        <ele>269.899524</ele>
        <time>2021-04-24T09:18:38.498Z</time>
      </trkpt>
      <trkpt lat="45.7541" lon="4.77729">
        <ele>270.19639</ele>
        <time>2021-04-24T09:18:40.503Z</time>
      </trkpt>
      <trkpt lat="45.75415" lon="4.77745">
        <ele>270.482195</ele>
        <time>2021-04-24T09:18:42.518Z</time>
      </trkpt>
      <trkpt lat="45.75419" lon="4.77763">
        <ele>270.762431</ele>
        <time>2021-04-24T09:18:44.505Z</time>
      </trkpt>
      <trkpt lat="45.75424" lon="4.7778">
        <ele>271.049114</ele>
        <time>2021-04-24T09:18:46.523Z</time>
      </trkpt>
      <trkpt lat="45.75427" lon="4.77797">
        <ele>271.329162</ele>
        <time>2021-04-24T09:18:48.548Z</time>
      </trkpt>
      <trkpt lat="45.75428" lon="4.77815">
        <ele>271.607343</ele>
        <time>2021-04-24T09:18:50.487Z</time>
      </trkpt>
      <trkpt lat="45.75429" lon="4.77835">
        <ele>271.920364</ele>
        <time>2021-04-24T09:18:52.517Z</time>
      </trkpt>
      <trkpt lat="45.75433" lon="4.77851">
        <ele>272.191529</ele>
        <time>2021-04-24T09:18:54.516Z</time>
      </trkpt>
      <trkpt lat="45.75435" lon="4.77868">
        <ele>272.464782</ele>
        <time>2021-04-24T09:18:56.508Z</time>
      </trkpt>
      <trkpt lat="45.75431" lon="4.77882">
        <ele>272.687554</ele>
        <time>2021-04-24T09:18:58.519Z</time>
      </trkpt>
      <trkpt lat="45.75432" lon="4.77895">
        <ele>272.895829</ele>
        <time>2021-04-24T09:19:00.488Z</time>
      </trkpt>
      <trkpt lat="45.75434" lon="4.77912">
        <ele>273.157712</ele>
        <time>2021-04-24T09:19:02.498Z</time>
      </trkpt>
      <trkpt lat="45.75439" lon="4.77926">
        <ele>273.407862</ele>
        <time>2021-04-24T09:19:04.500Z</time>
      </trkpt>
      <trkpt lat="45.75444" lon="4.7794">
        <ele>273.646562</ele>
        <time>2021-04-24T09:19:06.487Z</time>
      </trkpt>
      <trkpt lat="45.75446" lon="4.77953">
        <ele>273.866113</ele>
        <time>2021-04-24T09:19:08.487Z</time>
      </trkpt>
      <trkpt lat="45.7545" lon="4.77967">
        <ele>274.407914</ele>
        <time>2021-04-24T09:19:10.485Z</time>
      </trkpt>
      <trkpt lat="45.75452" lon="4.77984">
        <ele>275.244744</ele>
        <time>2021-04-24T09:19:12.493Z</time>
      </trkpt>
      <trkpt lat="45.75454" lon="4.78001">
        <ele>276.094934</ele>
        <time>2021-04-24T09:19:14.482Z</time>
      </trkpt>
      <trkpt lat="45.75455" lon="4.78016">
        <ele>276.881684</ele>
        <time>2021-04-24T09:19:16.499Z</time>
      </trkpt>
      <trkpt lat="45.75456" lon="4.78033">
        <ele>277.688693</ele>
        <time>2021-04-24T09:19:18.493Z</time>
      </trkpt>
      <trkpt lat="45.75456" lon="4.78051">
        <ele>278.605372</ele>
        <time>2021-04-24T09:19:20.591Z</time>
      </trkpt>
      <trkpt lat="45.75456" lon="4.78065">
        <ele>279.3133</ele>
        <time>2021-04-24T09:19:22.500Z</time>
      </trkpt>
      <trkpt lat="45.75456" lon="4.78085">
        <ele>280.304613</ele>
        <time>2021-04-24T09:19:25.502Z</time>
      </trkpt>
      <trkpt lat="45.75455" lon="4.78098">
        <ele>280.960983</ele>
        <time>2021-04-24T09:19:27.505Z</time>
      </trkpt>
      <trkpt lat="45.75453" lon="4.78114">
        <ele>281.755288</ele>
        <time>2021-04-24T09:19:30.507Z</time>
      </trkpt>
      <trkpt lat="45.7545" lon="4.78129">
        <ele>282.565265</ele>
        <time>2021-04-24T09:19:33.523Z</time>
      </trkpt>
      <trkpt lat="45.75447" lon="4.78146">
        <ele>283.424046</ele>
        <time>2021-04-24T09:19:36.501Z</time>
      </trkpt>
      <trkpt lat="45.75446" lon="4.78162">
        <ele>284.235175</ele>
        <time>2021-04-24T09:19:39.514Z</time>
      </trkpt>
      <trkpt lat="45.75443" lon="4.78178">
        <ele>285.053522</ele>
        <time>2021-04-24T09:19:42.503Z</time>
      </trkpt>
      <trkpt lat="45.75441" lon="4.78195">
        <ele>285.879209</ele>
        <time>2021-04-24T09:19:45.512Z</time>
      </trkpt>
      <trkpt lat="45.75439" lon="4.78213">
        <ele>286.793216</ele>
        <time>2021-04-24T09:19:48.515Z</time>
      </trkpt>
      <trkpt lat="45.75438" lon="4.78226">
        <ele>287.104654</ele>
        <time>2021-04-24T09:19:50.517Z</time>
      </trkpt>
      <trkpt lat="45.75438" lon="4.78242">
        <ele>287.482186</ele>
        <time>2021-04-24T09:19:52.510Z</time>
      </trkpt>
      <trkpt lat="45.75436" lon="4.78262">
        <ele>287.955808</ele>
        <time>2021-04-24T09:19:55.499Z</time>
      </trkpt>
      <trkpt lat="45.75438" lon="4.78279">
        <ele>288.359857</ele>
        <time>2021-04-24T09:19:58.518Z</time>
      </trkpt>
      <trkpt lat="45.75439" lon="4.78297">
        <ele>288.779971</ele>
        <time>2021-04-24T09:20:01.500Z</time>
      </trkpt>
      <trkpt lat="45.75439" lon="4.7831">
        <ele>289.08774</ele>
        <time>2021-04-24T09:20:03.573Z</time>
      </trkpt>
      <trkpt lat="45.75435" lon="4.78324">
        <ele>289.42511</ele>
        <time>2021-04-24T09:20:05.496Z</time>
      </trkpt>
      <trkpt lat="45.75433" lon="4.78337">
        <ele>289.739619</ele>
        <time>2021-04-24T09:20:07.502Z</time>
      </trkpt>
      <trkpt lat="45.75435" lon="4.78351">
        <ele>290.07492</ele>
        <time>2021-04-24T09:20:09.516Z</time>
      </trkpt>
      <trkpt lat="45.75438" lon="4.78366">
        <ele>290.441885</ele>
        <time>2021-04-24T09:20:11.499Z</time>
      </trkpt>
      <trkpt lat="45.75437" lon="4.7838">
        <ele>290.75712</ele>
        <time>2021-04-24T09:20:13.500Z</time>
      </trkpt>
      <trkpt lat="45.75441" lon="4.78399">
        <ele>291.225359</ele>
        <time>2021-04-24T09:20:16.517Z</time>
      </trkpt>
      <trkpt lat="45.75443" lon="4.78412">
        <ele>291.542165</ele>
        <time>2021-04-24T09:20:18.516Z</time>
      </trkpt>
      <trkpt lat="45.75443" lon="4.78429">
        <ele>291.929363</ele>
        <time>2021-04-24T09:20:21.495Z</time>
      </trkpt>
      <trkpt lat="45.75444" lon="4.78446">
        <ele>292.334183</ele>
        <time>2021-04-24T09:20:24.516Z</time>
      </trkpt>
      <trkpt lat="45.75446" lon="4.78461">
        <ele>292.675777</ele>
        <time>2021-04-24T09:20:27.501Z</time>
      </trkpt>
      <trkpt lat="45.75449" lon="4.78476">
        <ele>292.996192</ele>
        <time>2021-04-24T09:20:30.506Z</time>
      </trkpt>
      <trkpt lat="45.7545" lon="4.78492">
        <ele>293.268275</ele>
        <time>2021-04-24T09:20:33.509Z</time>
      </trkpt>
      <trkpt lat="45.75453" lon="4.78508">
        <ele>293.57234</ele>
        <time>2021-04-24T09:20:36.496Z</time>
      </trkpt>
      <trkpt lat="45.75454" lon="4.78526">
        <ele>293.885033</ele>
        <time>2021-04-24T09:20:39.515Z</time>
      </trkpt>
      <trkpt lat="45.75455" lon="4.78542">
        <ele>294.170921</ele>
        <time>2021-04-24T09:20:41.500Z</time>
      </trkpt>
      <trkpt lat="45.75456" lon="4.7856">
        <ele>294.502136</ele>
        <time>2021-04-24T09:20:44.519Z</time>
      </trkpt>
      <trkpt lat="45.75458" lon="4.78574">
        <ele>294.752314</ele>
        <time>2021-04-24T09:20:46.510Z</time>
      </trkpt>
      <trkpt lat="45.75461" lon="4.78587">
        <ele>295.010343</ele>
        <time>2021-04-24T09:20:48.520Z</time>
      </trkpt>
      <trkpt lat="45.75465" lon="4.78601">
        <ele>295.268094</ele>
        <time>2021-04-24T09:20:50.511Z</time>
      </trkpt>
      <trkpt lat="45.75466" lon="4.78618">
        <ele>295.572226</ele>
        <time>2021-04-24T09:20:53.520Z</time>
      </trkpt>
      <trkpt lat="45.75465" lon="4.78632">
        <ele>295.827709</ele>
        <time>2021-04-24T09:20:55.502Z</time>
      </trkpt>
      <trkpt lat="45.75466" lon="4.78645">
        <ele>296.072583</ele>
        <time>2021-04-24T09:20:57.510Z</time>
      </trkpt>
      <trkpt lat="45.75469" lon="4.78659">
        <ele>296.324133</ele>
        <time>2021-04-24T09:20:59.506Z</time>
      </trkpt>
      <trkpt lat="45.75474" lon="4.78675">
        <ele>296.635463</ele>
        <time>2021-04-24T09:21:02.516Z</time>
      </trkpt>
      <trkpt lat="45.75474" lon="4.78693">
        <ele>296.951303</ele>
        <time>2021-04-24T09:21:05.517Z</time>
      </trkpt>
      <trkpt lat="45.75476" lon="4.78706">
        <ele>297.187604</ele>
        <time>2021-04-24T09:21:07.508Z</time>
      </trkpt>
      <trkpt lat="45.75476" lon="4.78723">
        <ele>297.80466</ele>
        <time>2021-04-24T09:21:10.522Z</time>
      </trkpt>
      <trkpt lat="45.75476" lon="4.78738">
        <ele>298.91253</ele>
        <time>2021-04-24T09:21:14.500Z</time>
      </trkpt>
      <trkpt lat="45.75475" lon="4.78756">
        <ele>300.209313</ele>
        <time>2021-04-24T09:21:18.519Z</time>
      </trkpt>
      <trkpt lat="45.75476" lon="4.78771">
        <ele>301.313</ele>
        <time>2021-04-24T09:21:21.510Z</time>
      </trkpt>
      <trkpt lat="45.75475" lon="4.78787">
        <ele>302.509867</ele>
        <time>2021-04-24T09:21:25.505Z</time>
      </trkpt>
      <trkpt lat="45.7547" lon="4.78801">
        <ele>303.706016</ele>
        <time>2021-04-24T09:21:29.501Z</time>
      </trkpt>
      <trkpt lat="45.75464" lon="4.78815">
        <ele>304.895375</ele>
        <time>2021-04-24T09:21:33.502Z</time>
      </trkpt>
      <trkpt lat="45.75465" lon="4.78829">
        <ele>305.893819</ele>
        <time>2021-04-24T09:21:37.491Z</time>
      </trkpt>
      <trkpt lat="45.75467" lon="4.78842">
        <ele>306.896464</ele>
        <time>2021-04-24T09:21:40.503Z</time>
      </trkpt>
      <trkpt lat="45.75467" lon="4.78858">
        <ele>308.085714</ele>
        <time>2021-04-24T09:21:43.500Z</time>
      </trkpt>
      <trkpt lat="45.75468" lon="4.78875">
        <ele>309.357294</ele>
        <time>2021-04-24T09:21:46.510Z</time>
      </trkpt>
      <trkpt lat="45.75476" lon="4.78887">
        <ele>310.543937</ele>
        <time>2021-04-24T09:21:48.494Z</time>
      </trkpt>
      <trkpt lat="45.75482" lon="4.78897">
        <ele>311.523612</ele>
        <time>2021-04-24T09:21:50.501Z</time>
      </trkpt>
      <trkpt lat="45.75491" lon="4.78908">
        <ele>312.715209</ele>
        <time>2021-04-24T09:21:52.517Z</time>
      </trkpt>
      <trkpt lat="45.75499" lon="4.78919">
        <ele>313.893814</ele>
        <time>2021-04-24T09:21:54.513Z</time>
      </trkpt>
      <trkpt lat="45.75504" lon="4.78932">
        <ele>315.01219</ele>
        <time>2021-04-24T09:21:56.508Z</time>
      </trkpt>
      <trkpt lat="45.75515" lon="4.78944">
        <ele>316.453206</ele>
        <time>2021-04-24T09:21:58.495Z</time>
      </trkpt>
      <trkpt lat="45.75527" lon="4.78955">
        <ele>316.71216</ele>
        <time>2021-04-24T09:22:00.504Z</time>
      </trkpt>
      <trkpt lat="45.75534" lon="4.7897">
        <ele>316.939011</ele>
        <time>2021-04-24T09:22:03.499Z</time>
      </trkpt>
      <trkpt lat="45.75537" lon="4.78983">
        <ele>317.115233</ele>
        <time>2021-04-24T09:22:05.539Z</time>
      </trkpt>
      <trkpt lat="45.75544" lon="4.78994">
        <ele>317.301416</ele>
        <time>2021-04-24T09:22:07.505Z</time>
      </trkpt>
      <trkpt lat="45.75549" lon="4.79005">
        <ele>317.467359</ele>
        <time>2021-04-24T09:22:09.502Z</time>
      </trkpt>
      <trkpt lat="45.75557" lon="4.79015">
        <ele>317.649251</ele>
        <time>2021-04-24T09:22:11.511Z</time>
      </trkpt>
      <trkpt lat="45.75565" lon="4.79025">
        <ele>317.840457</ele>
        <time>2021-04-24T09:22:13.500Z</time>
      </trkpt>
      <trkpt lat="45.75572" lon="4.79034">
        <ele>318.009534</ele>
        <time>2021-04-24T09:22:15.501Z</time>
      </trkpt>
      <trkpt lat="45.75573" lon="4.79049">
        <ele>318.199498</ele>
        <time>2021-04-24T09:22:17.546Z</time>
      </trkpt>
      <trkpt lat="45.75581" lon="4.79061">
        <ele>318.414017</ele>
        <time>2021-04-24T09:22:19.503Z</time>
      </trkpt>
      <trkpt lat="45.75587" lon="4.79074">
        <ele>318.609585</ele>
        <time>2021-04-24T09:22:21.496Z</time>
      </trkpt>
      <trkpt lat="45.75589" lon="4.7909">
        <ele>318.804218</ele>
        <time>2021-04-24T09:22:23.505Z</time>
      </trkpt>
      <trkpt lat="45.75588" lon="4.79103">
        <ele>318.969484</ele>
        <time>2021-04-24T09:22:25.503Z</time>
      </trkpt>
      <trkpt lat="45.75593" lon="4.79116">
        <ele>319.153372</ele>
        <time>2021-04-24T09:22:27.510Z</time>
      </trkpt>
      <trkpt lat="45.75595" lon="4.79134">
        <ele>319.390443</ele>
        <time>2021-04-24T09:22:30.518Z</time>
      </trkpt>
      <trkpt lat="45.75603" lon="4.79148">
        <ele>319.607958</ele>
        <time>2021-04-24T09:22:33.504Z</time>
      </trkpt>
      <trkpt lat="45.75606" lon="4.79164">
        <ele>319.697643</ele>
        <time>2021-04-24T09:22:37.515Z</time>
      </trkpt>
      <trkpt lat="45.75608" lon="4.79178">
        <ele>319.711008</ele>
        <time>2021-04-24T09:22:40.506Z</time>
      </trkpt>
      <trkpt lat="45.75612" lon="4.79198">
        <ele>319.729238</ele>
        <time>2021-04-24T09:22:43.509Z</time>
      </trkpt>
      <trkpt lat="45.75613" lon="4.79213">
        <ele>319.743279</ele>
        <time>2021-04-24T09:22:45.520Z</time>
      </trkpt>
      <trkpt lat="45.75616" lon="4.79228">
        <ele>319.757675</ele>
        <time>2021-04-24T09:22:47.517Z</time>
      </trkpt>
      <trkpt lat="45.7562" lon="4.79245">
        <ele>319.775008</ele>
        <time>2021-04-24T09:22:49.505Z</time>
      </trkpt>
      <trkpt lat="45.75625" lon="4.79262">
        <ele>319.791614</ele>
        <time>2021-04-24T09:22:51.504Z</time>
      </trkpt>
      <trkpt lat="45.75628" lon="4.79278">
        <ele>319.807577</ele>
        <time>2021-04-24T09:22:53.500Z</time>
      </trkpt>
      <trkpt lat="45.7563" lon="4.79298">
        <ele>319.826245</ele>
        <time>2021-04-24T09:22:55.488Z</time>
      </trkpt>
      <trkpt lat="45.75633" lon="4.79316">
        <ele>319.843335</ele>
        <time>2021-04-24T09:22:57.505Z</time>
      </trkpt>
      <trkpt lat="45.75639" lon="4.79337">
        <ele>319.863937</ele>
        <time>2021-04-24T09:22:59.503Z</time>
      </trkpt>
      <trkpt lat="45.75644" lon="4.79356">
        <ele>319.882755</ele>
        <time>2021-04-24T09:23:01.497Z</time>
      </trkpt>
      <trkpt lat="45.75645" lon="4.79374">
        <ele>319.899478</ele>
        <time>2021-04-24T09:23:03.500Z</time>
      </trkpt>
      <trkpt lat="45.75646" lon="4.79389">
        <ele>319.913641</ele>
        <time>2021-04-24T09:23:05.517Z</time>
      </trkpt>
      <trkpt lat="45.7565" lon="4.79406">
        <ele>319.904897</ele>
        <time>2021-04-24T09:23:07.501Z</time>
      </trkpt>
      <trkpt lat="45.75652" lon="4.79425">
        <ele>319.774483</ele>
        <time>2021-04-24T09:23:09.501Z</time>
      </trkpt>
      <trkpt lat="45.75656" lon="4.79442">
        <ele>319.648514</ele>
        <time>2021-04-24T09:23:11.512Z</time>
      </trkpt>
      <trkpt lat="45.75659" lon="4.7946">
        <ele>319.527462</ele>
        <time>2021-04-24T09:23:13.499Z</time>
      </trkpt>
      <trkpt lat="45.75658" lon="4.79479">
        <ele>319.398281</ele>
        <time>2021-04-24T09:23:15.500Z</time>
      </trkpt>
      <trkpt lat="45.7566" lon="4.79498">
        <ele>319.271354</ele>
        <time>2021-04-24T09:23:17.508Z</time>
      </trkpt>
      <trkpt lat="45.75653" lon="4.79518">
        <ele>319.12111</ele>
        <time>2021-04-24T09:23:19.489Z</time>
      </trkpt>
      <trkpt lat="45.75652" lon="4.79533">
        <ele>319.015803</ele>
        <time>2021-04-24T09:23:21.479Z</time>
      </trkpt>
      <trkpt lat="45.75648" lon="4.79549">
        <ele>318.901332</ele>
        <time>2021-04-24T09:23:23.516Z</time>
      </trkpt>
      <trkpt lat="45.75638" lon="4.79567">
        <ele>318.751677</ele>
        <time>2021-04-24T09:23:25.499Z</time>
      </trkpt>
      <trkpt lat="45.75634" lon="4.7958">
        <ele>318.654506</ele>
        <time>2021-04-24T09:23:27.498Z</time>
      </trkpt>
      <trkpt lat="45.7563" lon="4.79595">
        <ele>318.545121</ele>
        <time>2021-04-24T09:23:29.499Z</time>
      </trkpt>
      <trkpt lat="45.75624" lon="4.79606">
        <ele>318.449749</ele>
        <time>2021-04-24T09:23:31.499Z</time>
      </trkpt>
      <trkpt lat="45.75627" lon="4.79622">
        <ele>318.337687</ele>
        <time>2021-04-24T09:23:34.509Z</time>
      </trkpt>
      <trkpt lat="45.75629" lon="4.79639">
        <ele>318.221572</ele>
        <time>2021-04-24T09:23:37.489Z</time>
      </trkpt>
      <trkpt lat="45.7563" lon="4.79652">
        <ele>318.180205</ele>
        <time>2021-04-24T09:23:41.503Z</time>
      </trkpt>
      <trkpt lat="45.75632" lon="4.79668">
        <ele>318.16893</ele>
        <time>2021-04-24T09:23:47.549Z</time>
      </trkpt>
      <trkpt lat="45.75637" lon="4.79681">
        <ele>318.158773</ele>
        <time>2021-04-24T09:23:49.504Z</time>
      </trkpt>
      <trkpt lat="45.7564" lon="4.79694">
        <ele>318.149184</ele>
        <time>2021-04-24T09:23:51.494Z</time>
      </trkpt>
      <trkpt lat="45.75641" lon="4.79707">
        <ele>318.13954</ele>
        <time>2021-04-24T09:23:53.493Z</time>
      </trkpt>
      <trkpt lat="45.75641" lon="4.79725">
        <ele>318.127536</ele>
        <time>2021-04-24T09:23:55.497Z</time>
      </trkpt>
      <trkpt lat="45.75643" lon="4.79741">
        <ele>318.115594</ele>
        <time>2021-04-24T09:23:57.506Z</time>
      </trkpt>
      <trkpt lat="45.75646" lon="4.7976">
        <ele>318.10205</ele>
        <time>2021-04-24T09:23:59.496Z</time>
      </trkpt>
      <trkpt lat="45.75647" lon="4.79778">
        <ele>318.089398</ele>
        <time>2021-04-24T09:24:01.508Z</time>
      </trkpt>
      <trkpt lat="45.75646" lon="4.79796">
        <ele>318.076769</ele>
        <time>2021-04-24T09:24:03.501Z</time>
      </trkpt>
      <trkpt lat="45.75648" lon="4.79815">
        <ele>318.06384</ele>
        <time>2021-04-24T09:24:05.507Z</time>
      </trkpt>
      <trkpt lat="45.75648" lon="4.79834">
        <ele>318.050208</ele>
        <time>2021-04-24T09:24:07.503Z</time>
      </trkpt>
      <trkpt lat="45.75651" lon="4.79854">
        <ele>318.036489</ele>
        <time>2021-04-24T09:24:09.481Z</time>
      </trkpt>
      <trkpt lat="45.75654" lon="4.79869">
        <ele>318.025585</ele>
        <time>2021-04-24T09:24:11.505Z</time>
      </trkpt>
      <trkpt lat="45.75654" lon="4.79887">
        <ele>318.012869</ele>
        <time>2021-04-24T09:24:13.499Z</time>
      </trkpt>
      <trkpt lat="45.75655" lon="4.79906">
        <ele>318.179403</ele>
        <time>2021-04-24T09:24:15.501Z</time>
      </trkpt>
      <trkpt lat="45.75655" lon="4.79926">
        <ele>318.585254</ele>
        <time>2021-04-24T09:24:17.500Z</time>
      </trkpt>
      <trkpt lat="45.75651" lon="4.79945">
        <ele>318.99381</ele>
        <time>2021-04-24T09:24:19.494Z</time>
      </trkpt>
      <trkpt lat="45.75647" lon="4.79964">
        <ele>319.395969</ele>
        <time>2021-04-24T09:24:21.507Z</time>
      </trkpt>
      <trkpt lat="45.75643" lon="4.79983">
        <ele>319.798621</ele>
        <time>2021-04-24T09:24:23.519Z</time>
      </trkpt>
      <trkpt lat="45.75639" lon="4.79998">
        <ele>320.12335</ele>
        <time>2021-04-24T09:24:25.498Z</time>
      </trkpt>
      <trkpt lat="45.75636" lon="4.80019">
        <ele>320.563381</ele>
        <time>2021-04-24T09:24:27.528Z</time>
      </trkpt>
      <trkpt lat="45.75634" lon="4.80041">
        <ele>321.021705</ele>
        <time>2021-04-24T09:24:29.500Z</time>
      </trkpt>
      <trkpt lat="45.7563" lon="4.8006">
        <ele>321.44012</ele>
        <time>2021-04-24T09:24:31.505Z</time>
      </trkpt>
      <trkpt lat="45.75625" lon="4.80081">
        <ele>321.885663</ele>
        <time>2021-04-24T09:24:33.502Z</time>
      </trkpt>
      <trkpt lat="45.75624" lon="4.80094">
        <ele>322.154943</ele>
        <time>2021-04-24T09:24:36.615Z</time>
      </trkpt>
      <trkpt lat="45.75621" lon="4.80107">
        <ele>322.424297</ele>
        <time>2021-04-24T09:24:39.494Z</time>
      </trkpt>
      <trkpt lat="45.75617" lon="4.80128">
        <ele>322.874366</ele>
        <time>2021-04-24T09:24:42.499Z</time>
      </trkpt>
      <trkpt lat="45.75615" lon="4.80146">
        <ele>323.260694</ele>
        <time>2021-04-24T09:24:44.495Z</time>
      </trkpt>
      <trkpt lat="45.75615" lon="4.80166">
        <ele>323.557205</ele>
        <time>2021-04-24T09:24:46.489Z</time>
      </trkpt>
      <trkpt lat="45.75618" lon="4.80183">
        <ele>323.815152</ele>
        <time>2021-04-24T09:24:48.493Z</time>
      </trkpt>
      <trkpt lat="45.7562" lon="4.80198">
        <ele>324.047419</ele>
        <time>2021-04-24T09:24:50.490Z</time>
      </trkpt>
      <trkpt lat="45.75621" lon="4.80218">
        <ele>324.351273</ele>
        <time>2021-04-24T09:24:52.494Z</time>
      </trkpt>
      <trkpt lat="45.75622" lon="4.80237">
        <ele>324.635881</ele>
        <time>2021-04-24T09:24:54.516Z</time>
      </trkpt>
      <trkpt lat="45.75623" lon="4.80253">
        <ele>324.873934</ele>
        <time>2021-04-24T09:24:56.506Z</time>
      </trkpt>
      <trkpt lat="45.75624" lon="4.8027">
        <ele>325.138602</ele>
        <time>2021-04-24T09:24:58.495Z</time>
      </trkpt>
      <trkpt lat="45.75623" lon="4.80287">
        <ele>325.387723</ele>
        <time>2021-04-24T09:25:00.518Z</time>
      </trkpt>
      <trkpt lat="45.75623" lon="4.80302">
        <ele>325.616805</ele>
        <time>2021-04-24T09:25:02.496Z</time>
      </trkpt>
      <trkpt lat="45.75624" lon="4.80318">
        <ele>325.853683</ele>
        <time>2021-04-24T09:25:04.515Z</time>
      </trkpt>
      <trkpt lat="45.75625" lon="4.80333">
        <ele>326.075963</ele>
        <time>2021-04-24T09:25:06.507Z</time>
      </trkpt>
      <trkpt lat="45.75624" lon="4.80349">
        <ele>326.311113</ele>
        <time>2021-04-24T09:25:08.502Z</time>
      </trkpt>
      <trkpt lat="45.75625" lon="4.80362">
        <ele>326.517448</ele>
        <time>2021-04-24T09:25:10.500Z</time>
      </trkpt>
      <trkpt lat="45.75624" lon="4.80377">
        <ele>326.738251</ele>
        <time>2021-04-24T09:25:12.487Z</time>
      </trkpt>
      <trkpt lat="45.75622" lon="4.80394">
        <ele>326.998832</ele>
        <time>2021-04-24T09:25:14.490Z</time>
      </trkpt>
      <trkpt lat="45.75622" lon="4.80412">
        <ele>326.992113</ele>
        <time>2021-04-24T09:25:16.486Z</time>
      </trkpt>
      <trkpt lat="45.75619" lon="4.80428">
        <ele>326.700748</ele>
        <time>2021-04-24T09:25:18.490Z</time>
      </trkpt>
      <trkpt lat="45.75616" lon="4.80443">
        <ele>326.407636</ele>
        <time>2021-04-24T09:25:20.486Z</time>
      </trkpt>
      <trkpt lat="45.75614" lon="4.80462">
        <ele>326.073576</ele>
        <time>2021-04-24T09:25:22.508Z</time>
      </trkpt>
      <trkpt lat="45.75612" lon="4.80479">
        <ele>325.761551</ele>
        <time>2021-04-24T09:25:24.503Z</time>
      </trkpt>
      <trkpt lat="45.75612" lon="4.80498">
        <ele>325.415504</ele>
        <time>2021-04-24T09:25:26.511Z</time>
      </trkpt>
      <trkpt lat="45.75613" lon="4.80516">
        <ele>325.097995</ele>
        <time>2021-04-24T09:25:28.509Z</time>
      </trkpt>
      <trkpt lat="45.75614" lon="4.80532">
        <ele>324.801745</ele>
        <time>2021-04-24T09:25:30.538Z</time>
      </trkpt>
      <trkpt lat="45.75614" lon="4.8055">
        <ele>324.479116</ele>
        <time>2021-04-24T09:25:32.506Z</time>
      </trkpt>
      <trkpt lat="45.75614" lon="4.80569">
        <ele>324.13487</ele>
        <time>2021-04-24T09:25:34.512Z</time>
      </trkpt>
      <trkpt lat="45.75612" lon="4.80588">
        <ele>323.786464</ele>
        <time>2021-04-24T09:25:36.523Z</time>
      </trkpt>
      <trkpt lat="45.75609" lon="4.80607">
        <ele>323.438844</ele>
        <time>2021-04-24T09:25:38.515Z</time>
      </trkpt>
      <trkpt lat="45.75608" lon="4.80625">
        <ele>323.105852</ele>
        <time>2021-04-24T09:25:40.513Z</time>
      </trkpt>
      <trkpt lat="45.75607" lon="4.80645">
        <ele>322.741874</ele>
        <time>2021-04-24T09:25:42.493Z</time>
      </trkpt>
      <trkpt lat="45.75606" lon="4.80663">
        <ele>322.54766</ele>
        <time>2021-04-24T09:25:44.500Z</time>
      </trkpt>
      <trkpt lat="45.75602" lon="4.80681">
        <ele>322.835615</ele>
        <time>2021-04-24T09:25:46.498Z</time>
      </trkpt>
      <trkpt lat="45.756" lon="4.807">
        <ele>323.122152</ele>
        <time>2021-04-24T09:25:48.490Z</time>
      </trkpt>
      <trkpt lat="45.75596" lon="4.80717">
        <ele>323.389539</ele>
        <time>2021-04-24T09:25:50.499Z</time>
      </trkpt>
      <trkpt lat="45.75592" lon="4.80731">
        <ele>323.626207</ele>
        <time>2021-04-24T09:25:52.505Z</time>
      </trkpt>
      <trkpt lat="45.75587" lon="4.80747">
        <ele>323.889077</ele>
        <time>2021-04-24T09:25:54.511Z</time>
      </trkpt>
      <trkpt lat="45.75585" lon="4.80762">
        <ele>324.11889</ele>
        <time>2021-04-24T09:25:56.529Z</time>
      </trkpt>
      <trkpt lat="45.7558" lon="4.80777">
        <ele>324.362488</ele>
        <time>2021-04-24T09:25:58.526Z</time>
      </trkpt>
      <trkpt lat="45.75577" lon="4.80796">
        <ele>324.652235</ele>
        <time>2021-04-24T09:26:01.519Z</time>
      </trkpt>
      <trkpt lat="45.75574" lon="4.8081">
        <ele>324.873666</ele>
        <time>2021-04-24T09:26:03.505Z</time>
      </trkpt>
      <trkpt lat="45.75573" lon="4.80826">
        <ele>325.120479</ele>
        <time>2021-04-24T09:26:06.517Z</time>
      </trkpt>
      <trkpt lat="45.75568" lon="4.8084">
        <ele>325.351086</ele>
        <time>2021-04-24T09:26:09.503Z</time>
      </trkpt>
      <trkpt lat="45.75564" lon="4.80852">
        <ele>325.55178</ele>
        <time>2021-04-24T09:26:14.501Z</time>
      </trkpt>
      <trkpt lat="45.75548" lon="4.80885">
        <ele>326.170328</ele>
        <time>2021-04-24T09:27:01.502Z</time>
      </trkpt>
      <trkpt lat="45.75549" lon="4.809">
        <ele>326.371182</ele>
        <time>2021-04-24T09:27:03.531Z</time>
      </trkpt>
      <trkpt lat="45.75552" lon="4.80915">
        <ele>326.406588</ele>
        <time>2021-04-24T09:27:05.504Z</time>
      </trkpt>
      <trkpt lat="45.75551" lon="4.80932">
        <ele>326.445166</ele>
        <time>2021-04-24T09:27:07.499Z</time>
      </trkpt>
      <trkpt lat="45.7555" lon="4.8095">
        <ele>326.484784</ele>
        <time>2021-04-24T09:27:09.497Z</time>
      </trkpt>
      <trkpt lat="45.75547" lon="4.80967">
        <ele>326.524588</ele>
        <time>2021-04-24T09:27:11.500Z</time>
      </trkpt>
      <trkpt lat="45.75544" lon="4.80984">
        <ele>326.565125</ele>
        <time>2021-04-24T09:27:13.525Z</time>
      </trkpt>
      <trkpt lat="45.75541" lon="4.81002">
        <ele>326.606661</ele>
        <time>2021-04-24T09:27:15.513Z</time>
      </trkpt>
      <trkpt lat="45.75537" lon="4.81018">
        <ele>326.645677</ele>
        <time>2021-04-24T09:27:17.504Z</time>
      </trkpt>
      <trkpt lat="45.75534" lon="4.81036">
        <ele>326.686804</ele>
        <time>2021-04-24T09:27:19.525Z</time>
      </trkpt>
      <trkpt lat="45.75531" lon="4.81055">
        <ele>326.730057</ele>
        <time>2021-04-24T09:27:21.487Z</time>
      </trkpt>
      <trkpt lat="45.7552" lon="4.81064">
        <ele>326.771662</ele>
        <time>2021-04-24T09:27:23.499Z</time>
      </trkpt>
      <trkpt lat="45.75524" lon="4.81085">
        <ele>326.820158</ele>
        <time>2021-04-24T09:27:25.491Z</time>
      </trkpt>
      <trkpt lat="45.75523" lon="4.81103">
        <ele>326.862232</ele>
        <time>2021-04-24T09:27:27.497Z</time>
      </trkpt>
      <trkpt lat="45.75521" lon="4.81122">
        <ele>326.904585</ele>
        <time>2021-04-24T09:27:29.507Z</time>
      </trkpt>
      <trkpt lat="45.75517" lon="4.81136">
        <ele>326.939747</ele>
        <time>2021-04-24T09:27:31.507Z</time>
      </trkpt>
      <trkpt lat="45.75509" lon="4.8115">
        <ele>326.847378</ele>
        <time>2021-04-24T09:27:33.496Z</time>
      </trkpt>
      <trkpt lat="45.75501" lon="4.81165">
        <ele>326.696977</ele>
        <time>2021-04-24T09:27:35.499Z</time>
      </trkpt>
      <trkpt lat="45.75495" lon="4.81184">
        <ele>326.530012</ele>
        <time>2021-04-24T09:27:37.510Z</time>
      </trkpt>
      <trkpt lat="45.7549" lon="4.81198">
        <ele>326.409753</ele>
        <time>2021-04-24T09:27:39.513Z</time>
      </trkpt>
      <trkpt lat="45.75486" lon="4.81212">
        <ele>326.288338</ele>
        <time>2021-04-24T09:27:41.539Z</time>
      </trkpt>
      <trkpt lat="45.75482" lon="4.81228">
        <ele>326.160641</ele>
        <time>2021-04-24T09:27:43.524Z</time>
      </trkpt>
      <trkpt lat="45.75478" lon="4.81242">
        <ele>326.035137</ele>
        <time>2021-04-24T09:27:45.526Z</time>
      </trkpt>
      <trkpt lat="45.75467" lon="4.81253">
        <ele>325.89047</ele>
        <time>2021-04-24T09:27:48.493Z</time>
      </trkpt>
      <trkpt lat="45.75455" lon="4.81263">
        <ele>325.733164</ele>
        <time>2021-04-24T09:27:51.500Z</time>
      </trkpt>
      <trkpt lat="45.75446" lon="4.81274">
        <ele>325.601208</ele>
        <time>2021-04-24T09:27:53.499Z</time>
      </trkpt>
      <trkpt lat="45.75438" lon="4.81285">
        <ele>325.473439</ele>
        <time>2021-04-24T09:27:55.499Z</time>
      </trkpt>
      <trkpt lat="45.75427" lon="4.81297">
        <ele>325.318297</ele>
        <time>2021-04-24T09:27:57.501Z</time>
      </trkpt>
      <trkpt lat="45.75418" lon="4.81311">
        <ele>325.172084</ele>
        <time>2021-04-24T09:27:59.503Z</time>
      </trkpt>
      <trkpt lat="45.75408" lon="4.81327">
        <ele>325.000211</ele>
        <time>2021-04-24T09:28:01.514Z</time>
      </trkpt>
      <trkpt lat="45.75397" lon="4.81341">
        <ele>324.38074</ele>
        <time>2021-04-24T09:28:03.528Z</time>
      </trkpt>
      <trkpt lat="45.75385" lon="4.8136">
        <ele>323.21326</ele>
        <time>2021-04-24T09:28:05.509Z</time>
      </trkpt>
      <trkpt lat="45.75379" lon="4.81369">
        <ele>322.609297</ele>
        <time>2021-04-24T09:28:06.513Z</time>
      </trkpt>
      <trkpt lat="45.75372" lon="4.81377">
        <ele>321.992178</ele>
        <time>2021-04-24T09:28:07.503Z</time>
      </trkpt>
      <trkpt lat="45.75365" lon="4.81386">
        <ele>321.327926</ele>
        <time>2021-04-24T09:28:08.503Z</time>
      </trkpt>
      <trkpt lat="45.75356" lon="4.81394">
        <ele>320.685409</ele>
        <time>2021-04-24T09:28:09.496Z</time>
      </trkpt>
      <trkpt lat="45.75343" lon="4.81408">
        <ele>319.544586</ele>
        <time>2021-04-24T09:28:11.493Z</time>
      </trkpt>
      <trkpt lat="45.75333" lon="4.81414">
        <ele>318.867779</ele>
        <time>2021-04-24T09:28:12.500Z</time>
      </trkpt>
      <trkpt lat="45.75324" lon="4.81418">
        <ele>318.216643</ele>
        <time>2021-04-24T09:28:13.512Z</time>
      </trkpt>
      <trkpt lat="45.75315" lon="4.81419">
        <ele>317.564682</ele>
        <time>2021-04-24T09:28:14.592Z</time>
      </trkpt>
      <trkpt lat="45.75303" lon="4.81418">
        <ele>316.784336</ele>
        <time>2021-04-24T09:28:15.510Z</time>
      </trkpt>
      <trkpt lat="45.75285" lon="4.81413">
        <ele>315.546551</ele>
        <time>2021-04-24T09:28:17.512Z</time>
      </trkpt>
      <trkpt lat="45.75272" lon="4.81406">
        <ele>314.647069</ele>
        <time>2021-04-24T09:28:18.505Z</time>
      </trkpt>
      <trkpt lat="45.75262" lon="4.81402">
        <ele>313.951052</ele>
        <time>2021-04-24T09:28:19.532Z</time>
      </trkpt>
      <trkpt lat="45.75252" lon="4.81395">
        <ele>313.156473</ele>
        <time>2021-04-24T09:28:20.496Z</time>
      </trkpt>
      <trkpt lat="45.75242" lon="4.81389">
        <ele>312.484292</ele>
        <time>2021-04-24T09:28:21.506Z</time>
      </trkpt>
      <trkpt lat="45.75233" lon="4.81382">
        <ele>311.746507</ele>
        <time>2021-04-24T09:28:22.517Z</time>
      </trkpt>
      <trkpt lat="45.75224" lon="4.81376">
        <ele>311.079532</ele>
        <time>2021-04-24T09:28:23.506Z</time>
      </trkpt>
      <trkpt lat="45.75213" lon="4.81371">
        <ele>310.358825</ele>
        <time>2021-04-24T09:28:24.503Z</time>
      </trkpt>
      <trkpt lat="45.75202" lon="4.81365">
        <ele>309.579881</ele>
        <time>2021-04-24T09:28:25.498Z</time>
      </trkpt>
      <trkpt lat="45.75192" lon="4.81362">
        <ele>308.887973</ele>
        <time>2021-04-24T09:28:26.501Z</time>
      </trkpt>
      <trkpt lat="45.75182" lon="4.81359">
        <ele>308.178169</ele>
        <time>2021-04-24T09:28:27.522Z</time>
      </trkpt>
      <trkpt lat="45.75171" lon="4.81357">
        <ele>307.424566</ele>
        <time>2021-04-24T09:28:28.533Z</time>
      </trkpt>
      <trkpt lat="45.75162" lon="4.81357">
        <ele>306.800662</ele>
        <time>2021-04-24T09:28:29.500Z</time>
      </trkpt>
      <trkpt lat="45.75151" lon="4.8136">
        <ele>306.077374</ele>
        <time>2021-04-24T09:28:30.511Z</time>
      </trkpt>
      <trkpt lat="45.75142" lon="4.81366">
        <ele>305.418175</ele>
        <time>2021-04-24T09:28:31.492Z</time>
      </trkpt>
      <trkpt lat="45.75133" lon="4.8137">
        <ele>304.746386</ele>
        <time>2021-04-24T09:28:32.497Z</time>
      </trkpt>
      <trkpt lat="45.75123" lon="4.81378">
        <ele>304.03602</ele>
        <time>2021-04-24T09:28:33.501Z</time>
      </trkpt>
      <trkpt lat="45.75113" lon="4.81387">
        <ele>303.222109</ele>
        <time>2021-04-24T09:28:34.519Z</time>
      </trkpt>
      <trkpt lat="45.75104" lon="4.814">
        <ele>302.393785</ele>
        <time>2021-04-24T09:28:35.514Z</time>
      </trkpt>
      <trkpt lat="45.75096" lon="4.81413">
        <ele>301.564122</ele>
        <time>2021-04-24T09:28:36.538Z</time>
      </trkpt>
      <trkpt lat="45.7509" lon="4.81427">
        <ele>300.800275</ele>
        <time>2021-04-24T09:28:37.515Z</time>
      </trkpt>
      <trkpt lat="45.75085" lon="4.81455">
        <ele>299.81653</ele>
        <time>2021-04-24T09:28:39.504Z</time>
      </trkpt>
      <trkpt lat="45.75081" lon="4.81468">
        <ele>299.335486</ele>
        <time>2021-04-24T09:28:40.497Z</time>
      </trkpt>
      <trkpt lat="45.75077" lon="4.81483">
        <ele>298.786603</ele>
        <time>2021-04-24T09:28:41.500Z</time>
      </trkpt>
      <trkpt lat="45.75075" lon="4.81498">
        <ele>298.251227</ele>
        <time>2021-04-24T09:28:42.505Z</time>
      </trkpt>
      <trkpt lat="45.75074" lon="4.81512">
        <ele>297.804194</ele>
        <time>2021-04-24T09:28:43.503Z</time>
      </trkpt>
      <trkpt lat="45.75071" lon="4.81538">
        <ele>296.896641</ele>
        <time>2021-04-24T09:28:45.513Z</time>
      </trkpt>
      <trkpt lat="45.75074" lon="4.8155">
        <ele>296.455059</ele>
        <time>2021-04-24T09:28:46.493Z</time>
      </trkpt>
      <trkpt lat="45.75081" lon="4.81572">
        <ele>295.618367</ele>
        <time>2021-04-24T09:28:48.521Z</time>
      </trkpt>
      <trkpt lat="45.75088" lon="4.81581">
        <ele>295.18017</ele>
        <time>2021-04-24T09:28:49.498Z</time>
      </trkpt>
      <trkpt lat="45.75102" lon="4.81597">
        <ele>294.319648</ele>
        <time>2021-04-24T09:28:51.490Z</time>
      </trkpt>
      <trkpt lat="45.75111" lon="4.81602">
        <ele>293.828763</ele>
        <time>2021-04-24T09:28:52.517Z</time>
      </trkpt>
      <trkpt lat="45.75119" lon="4.81609">
        <ele>293.385152</ele>
        <time>2021-04-24T09:28:53.503Z</time>
      </trkpt>
      <trkpt lat="45.75126" lon="4.81616">
        <ele>292.945019</ele>
        <time>2021-04-24T09:28:54.492Z</time>
      </trkpt>
      <trkpt lat="45.7514" lon="4.8163">
        <ele>292.117323</ele>
        <time>2021-04-24T09:28:56.495Z</time>
      </trkpt>
      <trkpt lat="45.75153" lon="4.81643">
        <ele>291.51594</ele>
        <time>2021-04-24T09:28:58.504Z</time>
      </trkpt>
      <trkpt lat="45.75162" lon="4.81649">
        <ele>291.170891</ele>
        <time>2021-04-24T09:28:59.587Z</time>
      </trkpt>
      <trkpt lat="45.7517" lon="4.81656">
        <ele>290.818578</ele>
        <time>2021-04-24T09:29:00.528Z</time>
      </trkpt>
      <trkpt lat="45.75183" lon="4.81673">
        <ele>290.194508</ele>
        <time>2021-04-24T09:29:02.500Z</time>
      </trkpt>
      <trkpt lat="45.75189" lon="4.81683">
        <ele>289.847399</ele>
        <time>2021-04-24T09:29:03.500Z</time>
      </trkpt>
      <trkpt lat="45.75195" lon="4.81695">
        <ele>289.479094</ele>
        <time>2021-04-24T09:29:04.501Z</time>
      </trkpt>
      <trkpt lat="45.752" lon="4.81707">
        <ele>289.125203</ele>
        <time>2021-04-24T09:29:05.502Z</time>
      </trkpt>
      <trkpt lat="45.75207" lon="4.81717">
        <ele>288.760823</ele>
        <time>2021-04-24T09:29:06.502Z</time>
      </trkpt>
      <trkpt lat="45.75216" lon="4.81725">
        <ele>288.361346</ele>
        <time>2021-04-24T09:29:07.483Z</time>
      </trkpt>
      <trkpt lat="45.75233" lon="4.81733">
        <ele>287.693571</ele>
        <time>2021-04-24T09:29:09.505Z</time>
      </trkpt>
      <trkpt lat="45.75243" lon="4.81734">
        <ele>287.346046</ele>
        <time>2021-04-24T09:29:10.498Z</time>
      </trkpt>
      <trkpt lat="45.75253" lon="4.81734">
        <ele>286.995318</ele>
        <time>2021-04-24T09:29:11.498Z</time>
      </trkpt>
      <trkpt lat="45.75263" lon="4.81736">
        <ele>286.613606</ele>
        <time>2021-04-24T09:29:12.499Z</time>
      </trkpt>
      <trkpt lat="45.75273" lon="4.81734">
        <ele>286.228259</ele>
        <time>2021-04-24T09:29:13.509Z</time>
      </trkpt>
      <trkpt lat="45.75283" lon="4.81734">
        <ele>285.881182</ele>
        <time>2021-04-24T09:29:14.500Z</time>
      </trkpt>
      <trkpt lat="45.75292" lon="4.81731">
        <ele>285.541816</ele>
        <time>2021-04-24T09:29:15.502Z</time>
      </trkpt>
      <trkpt lat="45.75301" lon="4.81725">
        <ele>285.123827</ele>
        <time>2021-04-24T09:29:16.506Z</time>
      </trkpt>
      <trkpt lat="45.75313" lon="4.81721">
        <ele>284.6056</ele>
        <time>2021-04-24T09:29:17.507Z</time>
      </trkpt>
      <trkpt lat="45.75323" lon="4.81717">
        <ele>284.151992</ele>
        <time>2021-04-24T09:29:18.509Z</time>
      </trkpt>
      <trkpt lat="45.75332" lon="4.81709">
        <ele>283.718991</ele>
        <time>2021-04-24T09:29:19.499Z</time>
      </trkpt>
      <trkpt lat="45.75342" lon="4.81706">
        <ele>283.275492</ele>
        <time>2021-04-24T09:29:20.508Z</time>
      </trkpt>
      <trkpt lat="45.75354" lon="4.8171">
        <ele>282.767491</ele>
        <time>2021-04-24T09:29:21.520Z</time>
      </trkpt>
      <trkpt lat="45.75363" lon="4.81715">
        <ele>282.360738</ele>
        <time>2021-04-24T09:29:22.513Z</time>
      </trkpt>
      <trkpt lat="45.75376" lon="4.81734">
        <ele>281.561613</ele>
        <time>2021-04-24T09:29:24.512Z</time>
      </trkpt>
      <trkpt lat="45.75383" lon="4.81744">
        <ele>281.126345</ele>
        <time>2021-04-24T09:29:25.494Z</time>
      </trkpt>
      <trkpt lat="45.75394" lon="4.81755">
        <ele>280.564693</ele>
        <time>2021-04-24T09:29:26.498Z</time>
      </trkpt>
      <trkpt lat="45.75405" lon="4.81765">
        <ele>280.018686</ele>
        <time>2021-04-24T09:29:27.510Z</time>
      </trkpt>
      <trkpt lat="45.75413" lon="4.81775">
        <ele>279.563325</ele>
        <time>2021-04-24T09:29:28.500Z</time>
      </trkpt>
      <trkpt lat="45.75422" lon="4.81786">
        <ele>279.055282</ele>
        <time>2021-04-24T09:29:29.503Z</time>
      </trkpt>
      <trkpt lat="45.75431" lon="4.81795">
        <ele>278.58541</ele>
        <time>2021-04-24T09:29:30.491Z</time>
      </trkpt>
      <trkpt lat="45.75444" lon="4.81816">
        <ele>277.68976</ele>
        <time>2021-04-24T09:29:32.501Z</time>
      </trkpt>
      <trkpt lat="45.7545" lon="4.81829">
        <ele>276.716336</ele>
        <time>2021-04-24T09:29:33.504Z</time>
      </trkpt>
      <trkpt lat="45.75446" lon="4.81845">
        <ele>275.602983</ele>
        <time>2021-04-24T09:29:34.500Z</time>
      </trkpt>
      <trkpt lat="45.75448" lon="4.81862">
        <ele>274.51154</ele>
        <time>2021-04-24T09:29:35.493Z</time>
      </trkpt>
      <trkpt lat="45.7544" lon="4.81881">
        <ele>273.109049</ele>
        <time>2021-04-24T09:29:37.490Z</time>
      </trkpt>
      <trkpt lat="45.75409" lon="4.81883">
        <ele>270.264815</ele>
        <time>2021-04-24T09:29:38.508Z</time>
      </trkpt>
      <trkpt lat="45.754" lon="4.8189">
        <ele>269.353018</ele>
        <time>2021-04-24T09:29:39.510Z</time>
      </trkpt>
      <trkpt lat="45.75391" lon="4.81896">
        <ele>268.490405</ele>
        <time>2021-04-24T09:29:40.495Z</time>
      </trkpt>
      <trkpt lat="45.7538" lon="4.81898">
        <ele>267.518496</ele>
        <time>2021-04-24T09:29:42.497Z</time>
      </trkpt>
      <trkpt lat="45.75364" lon="4.81901">
        <ele>265.987571</ele>
        <time>2021-04-24T09:29:44.493Z</time>
      </trkpt>
      <trkpt lat="45.75346" lon="4.81898">
        <ele>264.421435</ele>
        <time>2021-04-24T09:29:46.499Z</time>
      </trkpt>
      <trkpt lat="45.75331" lon="4.81897">
        <ele>263.042069</ele>
        <time>2021-04-24T09:29:48.503Z</time>
      </trkpt>
      <trkpt lat="45.75322" lon="4.81896">
        <ele>262.18237</ele>
        <time>2021-04-24T09:29:49.498Z</time>
      </trkpt>
      <trkpt lat="45.75306" lon="4.81893">
        <ele>260.82635</ele>
        <time>2021-04-24T09:29:51.497Z</time>
      </trkpt>
      <trkpt lat="45.75296" lon="4.81891">
        <ele>259.9922</ele>
        <time>2021-04-24T09:29:52.501Z</time>
      </trkpt>
      <trkpt lat="45.75279" lon="4.81887">
        <ele>258.526883</ele>
        <time>2021-04-24T09:29:54.495Z</time>
      </trkpt>
      <trkpt lat="45.75269" lon="4.81887">
        <ele>257.691745</ele>
        <time>2021-04-24T09:29:55.518Z</time>
      </trkpt>
      <trkpt lat="45.7526" lon="4.81886">
        <ele>256.932462</ele>
        <time>2021-04-24T09:29:56.505Z</time>
      </trkpt>
      <trkpt lat="45.7525" lon="4.81887">
        <ele>256.089346</ele>
        <time>2021-04-24T09:29:57.506Z</time>
      </trkpt>
      <trkpt lat="45.75241" lon="4.8189">
        <ele>255.320115</ele>
        <time>2021-04-24T09:29:58.501Z</time>
      </trkpt>
      <trkpt lat="45.75238" lon="4.81905">
        <ele>254.42143</ele>
        <time>2021-04-24T09:29:59.517Z</time>
      </trkpt>
      <trkpt lat="45.75229" lon="4.81928">
        <ele>252.89288</ele>
        <time>2021-04-24T09:30:01.502Z</time>
      </trkpt>
      <trkpt lat="45.75235" lon="4.81945">
        <ele>251.77567</ele>
        <time>2021-04-24T09:30:02.503Z</time>
      </trkpt>
      <trkpt lat="45.75243" lon="4.8196">
        <ele>250.716757</ele>
        <time>2021-04-24T09:30:03.519Z</time>
      </trkpt>
      <trkpt lat="45.7525" lon="4.81979">
        <ele>249.431973</ele>
        <time>2021-04-24T09:30:05.503Z</time>
      </trkpt>
      <trkpt lat="45.75262" lon="4.81996">
        <ele>248.033902</ele>
        <time>2021-04-24T09:30:07.636Z</time>
      </trkpt>
      <trkpt lat="45.7528" lon="4.82015">
        <ele>246.284883</ele>
        <time>2021-04-24T09:30:09.520Z</time>
      </trkpt>
      <trkpt lat="45.75286" lon="4.82026">
        <ele>245.772161</ele>
        <time>2021-04-24T09:30:10.509Z</time>
      </trkpt>
      <trkpt lat="45.75292" lon="4.8204">
        <ele>245.1758</ele>
        <time>2021-04-24T09:30:11.504Z</time>
      </trkpt>
      <trkpt lat="45.7528" lon="4.82047">
        <ele>244.516267</ele>
        <time>2021-04-24T09:30:12.507Z</time>
      </trkpt>
      <trkpt lat="45.7527" lon="4.82055">
        <ele>243.864256</ele>
        <time>2021-04-24T09:30:13.505Z</time>
      </trkpt>
      <trkpt lat="45.7526" lon="4.82057">
        <ele>243.32974</ele>
        <time>2021-04-24T09:30:14.505Z</time>
      </trkpt>
      <trkpt lat="45.7525" lon="4.82058">
        <ele>242.828745</ele>
        <time>2021-04-24T09:30:15.533Z</time>
      </trkpt>
      <trkpt lat="45.75241" lon="4.82053">
        <ele>242.30944</ele>
        <time>2021-04-24T09:30:16.498Z</time>
      </trkpt>
      <trkpt lat="45.75226" lon="4.82036">
        <ele>241.295177</ele>
        <time>2021-04-24T09:30:18.517Z</time>
      </trkpt>
      <trkpt lat="45.75215" lon="4.82021">
        <ele>240.472653</ele>
        <time>2021-04-24T09:30:20.510Z</time>
      </trkpt>
      <trkpt lat="45.75208" lon="4.82013">
        <ele>239.972248</ele>
        <time>2021-04-24T09:30:21.525Z</time>
      </trkpt>
      <trkpt lat="45.75199" lon="4.82009">
        <ele>239.491839</ele>
        <time>2021-04-24T09:30:22.519Z</time>
      </trkpt>
      <trkpt lat="45.75184" lon="4.82006">
        <ele>238.67724</ele>
        <time>2021-04-24T09:30:24.516Z</time>
      </trkpt>
      <trkpt lat="45.75175" lon="4.8201">
        <ele>238.165918</ele>
        <time>2021-04-24T09:30:25.509Z</time>
      </trkpt>
      <trkpt lat="45.75164" lon="4.82021">
        <ele>237.485733</ele>
        <time>2021-04-24T09:30:26.523Z</time>
      </trkpt>
      <trkpt lat="45.75157" lon="4.82029">
        <ele>236.991716</ele>
        <time>2021-04-24T09:30:27.511Z</time>
      </trkpt>
      <trkpt lat="45.75148" lon="4.82041">
        <ele>236.271869</ele>
        <time>2021-04-24T09:30:28.497Z</time>
      </trkpt>
      <trkpt lat="45.75145" lon="4.82055">
        <ele>235.669683</ele>
        <time>2021-04-24T09:30:29.503Z</time>
      </trkpt>
      <trkpt lat="45.75139" lon="4.8207">
        <ele>234.960017</ele>
        <time>2021-04-24T09:30:30.504Z</time>
      </trkpt>
      <trkpt lat="45.75137" lon="4.82083">
        <ele>234.390693</ele>
        <time>2021-04-24T09:30:31.491Z</time>
      </trkpt>
      <trkpt lat="45.75139" lon="4.82098">
        <ele>233.760213</ele>
        <time>2021-04-24T09:30:32.494Z</time>
      </trkpt>
      <trkpt lat="45.75138" lon="4.82113">
        <ele>233.131436</ele>
        <time>2021-04-24T09:30:33.500Z</time>
      </trkpt>
      <trkpt lat="45.75142" lon="4.82127">
        <ele>232.528185</ele>
        <time>2021-04-24T09:30:34.490Z</time>
      </trkpt>
      <trkpt lat="45.75143" lon="4.8214">
        <ele>231.94789</ele>
        <time>2021-04-24T09:30:35.477Z</time>
      </trkpt>
      <trkpt lat="45.75144" lon="4.82164">
        <ele>230.956851</ele>
        <time>2021-04-24T09:30:37.498Z</time>
      </trkpt>
      <trkpt lat="45.75155" lon="4.8216">
        <ele>230.316728</ele>
        <time>2021-04-24T09:30:39.491Z</time>
      </trkpt>
      <trkpt lat="45.75166" lon="4.82166">
        <ele>229.632838</ele>
        <time>2021-04-24T09:30:42.515Z</time>
      </trkpt>
      <trkpt lat="45.75175" lon="4.82177">
        <ele>228.889046</ele>
        <time>2021-04-24T09:30:45.502Z</time>
      </trkpt>
      <trkpt lat="45.75186" lon="4.82182">
        <ele>228.199332</ele>
        <time>2021-04-24T09:30:47.502Z</time>
      </trkpt>
      <trkpt lat="45.75194" lon="4.8219">
        <ele>227.659481</ele>
        <time>2021-04-24T09:30:49.501Z</time>
      </trkpt>
      <trkpt lat="45.75202" lon="4.82195">
        <ele>227.11844</ele>
        <time>2021-04-24T09:30:50.508Z</time>
      </trkpt>
      <trkpt lat="45.75212" lon="4.82209">
        <ele>226.301857</ele>
        <time>2021-04-24T09:30:52.503Z</time>
      </trkpt>
      <trkpt lat="45.75224" lon="4.8222">
        <ele>226.201013</ele>
        <time>2021-04-24T09:30:54.502Z</time>
      </trkpt>
      <trkpt lat="45.75237" lon="4.82233">
        <ele>226.155432</ele>
        <time>2021-04-24T09:30:56.505Z</time>
      </trkpt>
      <trkpt lat="45.7525" lon="4.82247">
        <ele>226.108919</ele>
        <time>2021-04-24T09:30:58.489Z</time>
      </trkpt>
      <trkpt lat="45.75262" lon="4.82262">
        <ele>226.063901</ele>
        <time>2021-04-24T09:31:00.509Z</time>
      </trkpt>
      <trkpt lat="45.7527" lon="4.82268">
        <ele>226.038111</ele>
        <time>2021-04-24T09:31:01.513Z</time>
      </trkpt>
      <trkpt lat="45.75278" lon="4.82274">
        <ele>226.010942</ele>
        <time>2021-04-24T09:31:02.492Z</time>
      </trkpt>
      <trkpt lat="45.75286" lon="4.82284">
        <ele>225.981751</ele>
        <time>2021-04-24T09:31:03.485Z</time>
      </trkpt>
      <trkpt lat="45.75298" lon="4.82297">
        <ele>225.938841</ele>
        <time>2021-04-24T09:31:05.508Z</time>
      </trkpt>
      <trkpt lat="45.75314" lon="4.82309">
        <ele>225.886487</ele>
        <time>2021-04-24T09:31:07.521Z</time>
      </trkpt>
      <trkpt lat="45.75321" lon="4.82319">
        <ele>225.857915</ele>
        <time>2021-04-24T09:31:08.512Z</time>
      </trkpt>
      <trkpt lat="45.75333" lon="4.82329">
        <ele>225.817522</ele>
        <time>2021-04-24T09:31:10.513Z</time>
      </trkpt>
      <trkpt lat="45.75348" lon="4.82344">
        <ele>225.765858</ele>
        <time>2021-04-24T09:31:12.499Z</time>
      </trkpt>
      <trkpt lat="45.75364" lon="4.82352">
        <ele>225.717033</ele>
        <time>2021-04-24T09:31:14.505Z</time>
      </trkpt>
      <trkpt lat="45.7538" lon="4.82361">
        <ele>225.667608</ele>
        <time>2021-04-24T09:31:16.499Z</time>
      </trkpt>
      <trkpt lat="45.75394" lon="4.82369">
        <ele>225.625899</ele>
        <time>2021-04-24T09:31:18.501Z</time>
      </trkpt>
      <trkpt lat="45.75407" lon="4.82375">
        <ele>225.586934</ele>
        <time>2021-04-24T09:31:20.501Z</time>
      </trkpt>
      <trkpt lat="45.75421" lon="4.82379">
        <ele>225.548115</ele>
        <time>2021-04-24T09:31:22.493Z</time>
      </trkpt>
      <trkpt lat="45.75433" lon="4.82386">
        <ele>225.510878</ele>
        <time>2021-04-24T09:31:24.502Z</time>
      </trkpt>
      <trkpt lat="45.75445" lon="4.82392">
        <ele>225.473853</ele>
        <time>2021-04-24T09:31:26.523Z</time>
      </trkpt>
      <trkpt lat="45.75458" lon="4.82398">
        <ele>225.435333</ele>
        <time>2021-04-24T09:31:28.522Z</time>
      </trkpt>
      <trkpt lat="45.75473" lon="4.82402">
        <ele>225.390306</ele>
        <time>2021-04-24T09:31:30.518Z</time>
      </trkpt>
      <trkpt lat="45.75487" lon="4.82409">
        <ele>225.348061</ele>
        <time>2021-04-24T09:31:32.514Z</time>
      </trkpt>
      <trkpt lat="45.75499" lon="4.82415">
        <ele>225.313046</ele>
        <time>2021-04-24T09:31:34.522Z</time>
      </trkpt>
      <trkpt lat="45.75514" lon="4.82421">
        <ele>225.269828</ele>
        <time>2021-04-24T09:31:36.504Z</time>
      </trkpt>
      <trkpt lat="45.75529" lon="4.82425">
        <ele>225.22691</ele>
        <time>2021-04-24T09:31:38.507Z</time>
      </trkpt>
      <trkpt lat="45.75543" lon="4.82431">
        <ele>225.099134</ele>
        <time>2021-04-24T09:31:40.506Z</time>
      </trkpt>
      <trkpt lat="45.75556" lon="4.82441">
        <ele>224.929233</ele>
        <time>2021-04-24T09:31:42.512Z</time>
      </trkpt>
      <trkpt lat="45.75569" lon="4.82451">
        <ele>224.757195</ele>
        <time>2021-04-24T09:31:44.526Z</time>
      </trkpt>
      <trkpt lat="45.75582" lon="4.82457">
        <ele>224.599852</ele>
        <time>2021-04-24T09:31:46.506Z</time>
      </trkpt>
      <trkpt lat="45.75594" lon="4.82464">
        <ele>224.453653</ele>
        <time>2021-04-24T09:31:48.496Z</time>
      </trkpt>
      <trkpt lat="45.75606" lon="4.82468">
        <ele>224.317534</ele>
        <time>2021-04-24T09:31:50.500Z</time>
      </trkpt>
      <trkpt lat="45.75617" lon="4.82477">
        <ele>224.16453</ele>
        <time>2021-04-24T09:31:52.511Z</time>
      </trkpt>
      <trkpt lat="45.7563" lon="4.82486">
        <ele>224.002658</ele>
        <time>2021-04-24T09:31:54.496Z</time>
      </trkpt>
      <trkpt lat="45.75642" lon="4.82496">
        <ele>223.839637</ele>
        <time>2021-04-24T09:31:56.495Z</time>
      </trkpt>
      <trkpt lat="45.75656" lon="4.82507">
        <ele>223.652814</ele>
        <time>2021-04-24T09:31:58.536Z</time>
      </trkpt>
      <trkpt lat="45.7567" lon="4.82518">
        <ele>223.472967</ele>
        <time>2021-04-24T09:32:00.517Z</time>
      </trkpt>
      <trkpt lat="45.75684" lon="4.82527">
        <ele>223.297218</ele>
        <time>2021-04-24T09:32:02.508Z</time>
      </trkpt>
      <trkpt lat="45.75697" lon="4.82538">
        <ele>223.115788</ele>
        <time>2021-04-24T09:32:04.500Z</time>
      </trkpt>
      <trkpt lat="45.75711" lon="4.82551">
        <ele>222.839318</ele>
        <time>2021-04-24T09:32:06.495Z</time>
      </trkpt>
      <trkpt lat="45.75726" lon="4.82565">
        <ele>222.53735</ele>
        <time>2021-04-24T09:32:08.516Z</time>
      </trkpt>
      <trkpt lat="45.75735" lon="4.82571">
        <ele>222.378146</ele>
        <time>2021-04-24T09:32:09.506Z</time>
      </trkpt>
      <trkpt lat="45.75747" lon="4.82582">
        <ele>222.13106</ele>
        <time>2021-04-24T09:32:11.498Z</time>
      </trkpt>
      <trkpt lat="45.75759" lon="4.82595">
        <ele>221.882409</ele>
        <time>2021-04-24T09:32:13.497Z</time>
      </trkpt>
      <trkpt lat="45.75772" lon="4.82608">
        <ele>221.614902</ele>
        <time>2021-04-24T09:32:15.496Z</time>
      </trkpt>
      <trkpt lat="45.75783" lon="4.8262">
        <ele>221.378714</ele>
        <time>2021-04-24T09:32:17.502Z</time>
      </trkpt>
      <trkpt lat="45.75795" lon="4.82633">
        <ele>221.125265</ele>
        <time>2021-04-24T09:32:19.567Z</time>
      </trkpt>
      <trkpt lat="45.75806" lon="4.82644">
        <ele>220.903274</ele>
        <time>2021-04-24T09:32:21.502Z</time>
      </trkpt>
      <trkpt lat="45.75818" lon="4.82656">
        <ele>220.667081</ele>
        <time>2021-04-24T09:32:23.501Z</time>
      </trkpt>
      <trkpt lat="45.75829" lon="4.82667">
        <ele>220.443778</ele>
        <time>2021-04-24T09:32:25.514Z</time>
      </trkpt>
      <trkpt lat="45.75839" lon="4.82678">
        <ele>220.228583</ele>
        <time>2021-04-24T09:32:27.503Z</time>
      </trkpt>
      <trkpt lat="45.75849" lon="4.82687">
        <ele>220.217038</ele>
        <time>2021-04-24T09:32:29.508Z</time>
      </trkpt>
      <trkpt lat="45.75859" lon="4.82695">
        <ele>220.372297</ele>
        <time>2021-04-24T09:32:31.576Z</time>
      </trkpt>
      <trkpt lat="45.7587" lon="4.82701">
        <ele>220.525628</ele>
        <time>2021-04-24T09:32:33.502Z</time>
      </trkpt>
      <trkpt lat="45.75879" lon="4.82711">
        <ele>220.684735</ele>
        <time>2021-04-24T09:32:35.514Z</time>
      </trkpt>
      <trkpt lat="45.7589" lon="4.82721">
        <ele>220.860323</ele>
        <time>2021-04-24T09:32:37.533Z</time>
      </trkpt>
      <trkpt lat="45.75902" lon="4.82729">
        <ele>221.043255</ele>
        <time>2021-04-24T09:32:39.496Z</time>
      </trkpt>
      <trkpt lat="45.75911" lon="4.8274">
        <ele>221.204059</ele>
        <time>2021-04-24T09:32:41.529Z</time>
      </trkpt>
      <trkpt lat="45.7592" lon="4.82748">
        <ele>221.342539</ele>
        <time>2021-04-24T09:32:43.497Z</time>
      </trkpt>
      <trkpt lat="45.75932" lon="4.82758">
        <ele>221.524655</ele>
        <time>2021-04-24T09:32:45.496Z</time>
      </trkpt>
      <trkpt lat="45.7594" lon="4.82767">
        <ele>221.662881</ele>
        <time>2021-04-24T09:32:47.491Z</time>
      </trkpt>
      <trkpt lat="45.75947" lon="4.82776">
        <ele>221.793115</ele>
        <time>2021-04-24T09:32:49.517Z</time>
      </trkpt>
      <trkpt lat="45.75955" lon="4.82784">
        <ele>221.932484</ele>
        <time>2021-04-24T09:32:52.499Z</time>
      </trkpt>
      <trkpt lat="45.75959" lon="4.828">
        <ele>222.08817</ele>
        <time>2021-04-24T09:32:55.497Z</time>
      </trkpt>
      <trkpt lat="45.75956" lon="4.82812">
        <ele>222.209608</ele>
        <time>2021-04-24T09:32:57.509Z</time>
      </trkpt>
      <trkpt lat="45.75953" lon="4.82826">
        <ele>222.34569</ele>
        <time>2021-04-24T09:32:59.550Z</time>
      </trkpt>
      <trkpt lat="45.75949" lon="4.82841">
        <ele>222.49783</ele>
        <time>2021-04-24T09:33:01.495Z</time>
      </trkpt>
      <trkpt lat="45.75946" lon="4.82855">
        <ele>222.420269</ele>
        <time>2021-04-24T09:33:03.483Z</time>
      </trkpt>
      <trkpt lat="45.75943" lon="4.82867">
        <ele>222.157883</ele>
        <time>2021-04-24T09:33:05.502Z</time>
      </trkpt>
      <trkpt lat="45.75939" lon="4.82881">
        <ele>221.883387</ele>
        <time>2021-04-24T09:33:07.508Z</time>
      </trkpt>
      <trkpt lat="45.75936" lon="4.82894">
        <ele>221.596965</ele>
        <time>2021-04-24T09:33:09.495Z</time>
      </trkpt>
      <trkpt lat="45.75934" lon="4.82908">
        <ele>221.32116</ele>
        <time>2021-04-24T09:33:11.491Z</time>
      </trkpt>
      <trkpt lat="45.7593" lon="4.82925">
        <ele>220.967259</ele>
        <time>2021-04-24T09:33:14.507Z</time>
      </trkpt>
      <trkpt lat="45.75927" lon="4.82938">
        <ele>220.709041</ele>
        <time>2021-04-24T09:33:17.515Z</time>
      </trkpt>
      <trkpt lat="45.75906" lon="4.82975">
        <ele>219.768288</ele>
        <time>2021-04-24T09:34:11.495Z</time>
      </trkpt>
      <trkpt lat="45.759" lon="4.82989">
        <ele>219.44229</ele>
        <time>2021-04-24T09:34:14.506Z</time>
      </trkpt>
      <trkpt lat="45.75896" lon="4.83004">
        <ele>219.127212</ele>
        <time>2021-04-24T09:34:16.500Z</time>
      </trkpt>
      <trkpt lat="45.75901" lon="4.83021">
        <ele>218.764397</ele>
        <time>2021-04-24T09:34:18.530Z</time>
      </trkpt>
      <trkpt lat="45.75895" lon="4.8304">
        <ele>218.368726</ele>
        <time>2021-04-24T09:34:20.500Z</time>
      </trkpt>
      <trkpt lat="45.75888" lon="4.83058">
        <ele>217.967348</ele>
        <time>2021-04-24T09:34:22.498Z</time>
      </trkpt>
      <trkpt lat="45.75887" lon="4.83077">
        <ele>217.596987</ele>
        <time>2021-04-24T09:34:24.500Z</time>
      </trkpt>
      <trkpt lat="45.75884" lon="4.83095">
        <ele>217.275542</ele>
        <time>2021-04-24T09:34:26.496Z</time>
      </trkpt>
      <trkpt lat="45.75878" lon="4.83113">
        <ele>216.938092</ele>
        <time>2021-04-24T09:34:28.500Z</time>
      </trkpt>
      <trkpt lat="45.75875" lon="4.83131">
        <ele>216.634809</ele>
        <time>2021-04-24T09:34:30.502Z</time>
      </trkpt>
      <trkpt lat="45.75869" lon="4.83152">
        <ele>216.261008</ele>
        <time>2021-04-24T09:34:32.515Z</time>
      </trkpt>
      <trkpt lat="45.75865" lon="4.83171">
        <ele>215.926296</ele>
        <time>2021-04-24T09:34:34.510Z</time>
      </trkpt>
      <trkpt lat="45.75858" lon="4.83191">
        <ele>215.569453</ele>
        <time>2021-04-24T09:34:36.501Z</time>
      </trkpt>
      <trkpt lat="45.75855" lon="4.8321">
        <ele>215.239165</ele>
        <time>2021-04-24T09:34:38.513Z</time>
      </trkpt>
      <trkpt lat="45.75848" lon="4.83222">
        <ele>214.980046</ele>
        <time>2021-04-24T09:34:39.508Z</time>
      </trkpt>
      <trkpt lat="45.75842" lon="4.83243">
        <ele>214.616258</ele>
        <time>2021-04-24T09:34:41.522Z</time>
      </trkpt>
      <trkpt lat="45.75837" lon="4.83262">
        <ele>214.272807</ele>
        <time>2021-04-24T09:34:43.517Z</time>
      </trkpt>
      <trkpt lat="45.75831" lon="4.83282">
        <ele>213.921479</ele>
        <time>2021-04-24T09:34:45.504Z</time>
      </trkpt>
      <trkpt lat="45.75826" lon="4.833">
        <ele>213.604267</ele>
        <time>2021-04-24T09:34:47.493Z</time>
      </trkpt>
      <trkpt lat="45.75822" lon="4.83316">
        <ele>213.323281</ele>
        <time>2021-04-24T09:34:49.494Z</time>
      </trkpt>
      <trkpt lat="45.75819" lon="4.83332">
        <ele>212.980045</ele>
        <time>2021-04-24T09:34:51.498Z</time>
      </trkpt>
      <trkpt lat="45.75817" lon="4.83346">
        <ele>212.678126</ele>
        <time>2021-04-24T09:34:53.493Z</time>
      </trkpt>
      <trkpt lat="45.75814" lon="4.83361">
        <ele>212.34611</ele>
        <time>2021-04-24T09:34:55.499Z</time>
      </trkpt>
      <trkpt lat="45.75809" lon="4.83375">
        <ele>212.01523</ele>
        <time>2021-04-24T09:34:57.501Z</time>
      </trkpt>
      <trkpt lat="45.75806" lon="4.83387">
        <ele>211.728202</ele>
        <time>2021-04-24T09:34:59.503Z</time>
      </trkpt>
      <trkpt lat="45.75802" lon="4.83399">
        <ele>211.450199</ele>
        <time>2021-04-24T09:35:03.498Z</time>
      </trkpt>
      <trkpt lat="45.75802" lon="4.83414">
        <ele>211.141752</ele>
        <time>2021-04-24T09:35:17.497Z</time>
      </trkpt>
      <trkpt lat="45.75798" lon="4.83432">
        <ele>210.737785</ele>
        <time>2021-04-24T09:35:21.496Z</time>
      </trkpt>
      <trkpt lat="45.75794" lon="4.83447">
        <ele>210.39967</ele>
        <time>2021-04-24T09:35:23.487Z</time>
      </trkpt>
      <trkpt lat="45.75792" lon="4.83462">
        <ele>210.080869</ele>
        <time>2021-04-24T09:35:25.491Z</time>
      </trkpt>
      <trkpt lat="45.75786" lon="4.8348">
        <ele>209.664093</ele>
        <time>2021-04-24T09:35:27.497Z</time>
      </trkpt>
      <trkpt lat="45.75782" lon="4.83498">
        <ele>209.242787</ele>
        <time>2021-04-24T09:35:29.499Z</time>
      </trkpt>
      <trkpt lat="45.75778" lon="4.83518">
        <ele>208.808532</ele>
        <time>2021-04-24T09:35:31.497Z</time>
      </trkpt>
      <trkpt lat="45.75773" lon="4.83537">
        <ele>208.385031</ele>
        <time>2021-04-24T09:35:33.528Z</time>
      </trkpt>
      <trkpt lat="45.75771" lon="4.83553">
        <ele>208.029007</ele>
        <time>2021-04-24T09:35:35.501Z</time>
      </trkpt>
      <trkpt lat="45.75768" lon="4.83567">
        <ele>207.958766</ele>
        <time>2021-04-24T09:35:37.496Z</time>
      </trkpt>
      <trkpt lat="45.75763" lon="4.83584">
        <ele>208.760966</ele>
        <time>2021-04-24T09:35:39.498Z</time>
      </trkpt>
      <trkpt lat="45.75762" lon="4.83598">
        <ele>209.403437</ele>
        <time>2021-04-24T09:35:41.502Z</time>
      </trkpt>
      <trkpt lat="45.7576" lon="4.83611">
        <ele>210.028206</ele>
        <time>2021-04-24T09:35:43.496Z</time>
      </trkpt>
      <trkpt lat="45.75753" lon="4.83621">
        <ele>210.678685</ele>
        <time>2021-04-24T09:35:45.504Z</time>
      </trkpt>
      <trkpt lat="45.75743" lon="4.8363">
        <ele>211.398159</ele>
        <time>2021-04-24T09:35:47.516Z</time>
      </trkpt>
      <trkpt lat="45.75733" lon="4.83636">
        <ele>212.096341</ele>
        <time>2021-04-24T09:35:49.500Z</time>
      </trkpt>
      <trkpt lat="45.75727" lon="4.83646">
        <ele>212.700128</ele>
        <time>2021-04-24T09:35:51.498Z</time>
      </trkpt>
      <trkpt lat="45.75723" lon="4.83658">
        <ele>213.285874</ele>
        <time>2021-04-24T09:35:54.487Z</time>
      </trkpt>
      <trkpt lat="45.75717" lon="4.83669">
        <ele>213.914821</ele>
        <time>2021-04-24T09:36:02.519Z</time>
      </trkpt>
      <trkpt lat="45.75714" lon="4.83682">
        <ele>214.557066</ele>
        <time>2021-04-24T09:36:20.491Z</time>
      </trkpt>
      <trkpt lat="45.75712" lon="4.837">
        <ele>215.368075</ele>
        <time>2021-04-24T09:36:23.502Z</time>
      </trkpt>
      <trkpt lat="45.7571" lon="4.83714">
        <ele>216.001685</ele>
        <time>2021-04-24T09:36:25.500Z</time>
      </trkpt>
      <trkpt lat="45.75705" lon="4.83729">
        <ele>216.7274</ele>
        <time>2021-04-24T09:36:27.497Z</time>
      </trkpt>
      <trkpt lat="45.757" lon="4.83744">
        <ele>217.5048</ele>
        <time>2021-04-24T09:36:29.494Z</time>
      </trkpt>
      <trkpt lat="45.75695" lon="4.83762">
        <ele>218.3776</ele>
        <time>2021-04-24T09:36:31.489Z</time>
      </trkpt>
      <trkpt lat="45.75689" lon="4.8378">
        <ele>219.268077</ele>
        <time>2021-04-24T09:36:33.490Z</time>
      </trkpt>
      <trkpt lat="45.75683" lon="4.83799">
        <ele>219.352656</ele>
        <time>2021-04-24T09:36:35.526Z</time>
      </trkpt>
      <trkpt lat="45.75678" lon="4.83819">
        <ele>219.283537</ele>
        <time>2021-04-24T09:36:37.519Z</time>
      </trkpt>
      <trkpt lat="45.75673" lon="4.83839">
        <ele>219.21795</ele>
        <time>2021-04-24T09:36:39.542Z</time>
      </trkpt>
      <trkpt lat="45.75667" lon="4.83859">
        <ele>219.150306</ele>
        <time>2021-04-24T09:36:41.509Z</time>
      </trkpt>
      <trkpt lat="45.75662" lon="4.8388">
        <ele>219.078819</ele>
        <time>2021-04-24T09:36:43.506Z</time>
      </trkpt>
      <trkpt lat="45.75656" lon="4.83901">
        <ele>219.008545</ele>
        <time>2021-04-24T09:36:45.511Z</time>
      </trkpt>
      <trkpt lat="45.7565" lon="4.83922">
        <ele>218.93594</ele>
        <time>2021-04-24T09:36:47.500Z</time>
      </trkpt>
      <trkpt lat="45.75644" lon="4.83941">
        <ele>218.870601</ele>
        <time>2021-04-24T09:36:49.504Z</time>
      </trkpt>
      <trkpt lat="45.75638" lon="4.8396">
        <ele>218.805512</ele>
        <time>2021-04-24T09:36:51.498Z</time>
      </trkpt>
      <trkpt lat="45.75632" lon="4.83977">
        <ele>218.745124</ele>
        <time>2021-04-24T09:36:53.517Z</time>
      </trkpt>
      <trkpt lat="45.75629" lon="4.8399">
        <ele>218.701121</ele>
        <time>2021-04-24T09:36:55.512Z</time>
      </trkpt>
      <trkpt lat="45.75615" lon="4.84031">
        <ele>218.531173</ele>
        <time>2021-04-24T09:37:32.525Z</time>
      </trkpt>
      <trkpt lat="45.7561" lon="4.84045">
        <ele>218.441707</ele>
        <time>2021-04-24T09:37:34.521Z</time>
      </trkpt>
      <trkpt lat="45.75605" lon="4.84062">
        <ele>218.334592</ele>
        <time>2021-04-24T09:37:36.587Z</time>
      </trkpt>
      <trkpt lat="45.75599" lon="4.84079">
        <ele>218.229156</ele>
        <time>2021-04-24T09:37:38.516Z</time>
      </trkpt>
      <trkpt lat="45.75594" lon="4.84096">
        <ele>218.124869</ele>
        <time>2021-04-24T09:37:40.504Z</time>
      </trkpt>
      <trkpt lat="45.75588" lon="4.84114">
        <ele>218.015339</ele>
        <time>2021-04-24T09:37:42.519Z</time>
      </trkpt>
      <trkpt lat="45.75584" lon="4.84131">
        <ele>217.9131</ele>
        <time>2021-04-24T09:37:44.509Z</time>
      </trkpt>
      <trkpt lat="45.75579" lon="4.8415">
        <ele>217.798826</ele>
        <time>2021-04-24T09:37:46.500Z</time>
      </trkpt>
      <trkpt lat="45.75575" lon="4.84167">
        <ele>217.695434</ele>
        <time>2021-04-24T09:37:48.536Z</time>
      </trkpt>
      <trkpt lat="45.75572" lon="4.84186">
        <ele>217.585862</ele>
        <time>2021-04-24T09:37:50.501Z</time>
      </trkpt>
      <trkpt lat="45.75565" lon="4.84206">
        <ele>217.459402</ele>
        <time>2021-04-24T09:37:52.499Z</time>
      </trkpt>
      <trkpt lat="45.75561" lon="4.84221">
        <ele>217.3714</ele>
        <time>2021-04-24T09:37:54.525Z</time>
      </trkpt>
      <trkpt lat="45.75556" lon="4.84236">
        <ele>217.275517</ele>
        <time>2021-04-24T09:37:57.495Z</time>
      </trkpt>
      <trkpt lat="45.75564" lon="4.84245">
        <ele>217.193578</ele>
        <time>2021-04-24T09:38:09.496Z</time>
      </trkpt>
      <trkpt lat="45.75553" lon="4.84259">
        <ele>216.857457</ele>
        <time>2021-04-24T09:38:39.536Z</time>
      </trkpt>
      <trkpt lat="45.75545" lon="4.84267">
        <ele>216.54738</ele>
        <time>2021-04-24T09:38:40.519Z</time>
      </trkpt>
      <trkpt lat="45.75541" lon="4.84283">
        <ele>216.167777</ele>
        <time>2021-04-24T09:38:42.520Z</time>
      </trkpt>
      <trkpt lat="45.75537" lon="4.84299">
        <ele>215.76329</ele>
        <time>2021-04-24T09:38:44.560Z</time>
      </trkpt>
      <trkpt lat="45.75532" lon="4.84316">
        <ele>215.34076</ele>
        <time>2021-04-24T09:38:46.507Z</time>
      </trkpt>
      <trkpt lat="45.75529" lon="4.84332">
        <ele>214.978822</ele>
        <time>2021-04-24T09:38:48.500Z</time>
      </trkpt>
      <trkpt lat="45.75524" lon="4.84351">
        <ele>214.495665</ele>
        <time>2021-04-24T09:38:50.522Z</time>
      </trkpt>
      <trkpt lat="45.75522" lon="4.84369">
        <ele>214.085536</ele>
        <time>2021-04-24T09:38:52.499Z</time>
      </trkpt>
      <trkpt lat="45.75521" lon="4.8439">
        <ele>213.604924</ele>
        <time>2021-04-24T09:38:54.499Z</time>
      </trkpt>
      <trkpt lat="45.75513" lon="4.84403">
        <ele>213.21626</ele>
        <time>2021-04-24T09:38:55.503Z</time>
      </trkpt>
      <trkpt lat="45.75512" lon="4.84424">
        <ele>212.737714</ele>
        <time>2021-04-24T09:38:57.513Z</time>
      </trkpt>
      <trkpt lat="45.75501" lon="4.84442">
        <ele>212.186337</ele>
        <time>2021-04-24T09:38:59.508Z</time>
      </trkpt>
      <trkpt lat="45.75498" lon="4.84458">
        <ele>211.802076</ele>
        <time>2021-04-24T09:39:01.500Z</time>
      </trkpt>
      <trkpt lat="45.75493" lon="4.84471">
        <ele>211.469895</ele>
        <time>2021-04-24T09:39:03.496Z</time>
      </trkpt>
      <trkpt lat="45.75487" lon="4.8449">
        <ele>211.527386</ele>
        <time>2021-04-24T09:39:06.507Z</time>
      </trkpt>
      <trkpt lat="45.75482" lon="4.84501">
        <ele>211.813701</ele>
        <time>2021-04-24T09:39:08.509Z</time>
      </trkpt>
      <trkpt lat="45.75478" lon="4.84514">
        <ele>212.124689</ele>
        <time>2021-04-24T09:39:10.501Z</time>
      </trkpt>
      <trkpt lat="45.75468" lon="4.84524">
        <ele>212.495308</ele>
        <time>2021-04-24T09:39:12.497Z</time>
      </trkpt>
      <trkpt lat="45.75454" lon="4.84531">
        <ele>212.950702</ele>
        <time>2021-04-24T09:39:15.504Z</time>
      </trkpt>
      <trkpt lat="45.75446" lon="4.84547">
        <ele>213.407832</ele>
        <time>2021-04-24T09:39:18.510Z</time>
      </trkpt>
      <trkpt lat="45.75439" lon="4.84567">
        <ele>213.892586</ele>
        <time>2021-04-24T09:39:20.513Z</time>
      </trkpt>
      <trkpt lat="45.7544" lon="4.84585">
        <ele>214.278072</ele>
        <time>2021-04-24T09:39:22.499Z</time>
      </trkpt>
      <trkpt lat="45.75432" lon="4.84602">
        <ele>214.733329</ele>
        <time>2021-04-24T09:39:24.501Z</time>
      </trkpt>
      <trkpt lat="45.75428" lon="4.84618">
        <ele>215.096999</ele>
        <time>2021-04-24T09:39:26.506Z</time>
      </trkpt>
      <trkpt lat="45.75424" lon="4.84631">
        <ele>215.422028</ele>
        <time>2021-04-24T09:39:28.558Z</time>
      </trkpt>
      <trkpt lat="45.75416" lon="4.84646">
        <ele>215.820054</ele>
        <time>2021-04-24T09:39:30.492Z</time>
      </trkpt>
      <trkpt lat="45.75412" lon="4.8466">
        <ele>216.166952</ele>
        <time>2021-04-24T09:39:32.532Z</time>
      </trkpt>
      <trkpt lat="45.75407" lon="4.84674">
        <ele>216.51573</ele>
        <time>2021-04-24T09:39:34.517Z</time>
      </trkpt>
      <trkpt lat="45.754" lon="4.84692">
        <ele>216.930824</ele>
        <time>2021-04-24T09:39:36.501Z</time>
      </trkpt>
      <trkpt lat="45.75393" lon="4.84707">
        <ele>217.072515</ele>
        <time>2021-04-24T09:39:38.494Z</time>
      </trkpt>
      <trkpt lat="45.75388" lon="4.84723">
        <ele>217.213198</ele>
        <time>2021-04-24T09:39:40.502Z</time>
      </trkpt>
      <trkpt lat="45.75381" lon="4.8474">
        <ele>217.362134</ele>
        <time>2021-04-24T09:39:42.493Z</time>
      </trkpt>
      <trkpt lat="45.75376" lon="4.84757">
        <ele>217.510035</ele>
        <time>2021-04-24T09:39:44.494Z</time>
      </trkpt>
      <trkpt lat="45.75371" lon="4.84774">
        <ele>217.651352</ele>
        <time>2021-04-24T09:39:46.496Z</time>
      </trkpt>
      <trkpt lat="45.75364" lon="4.8479">
        <ele>217.804179</ele>
        <time>2021-04-24T09:39:48.536Z</time>
      </trkpt>
      <trkpt lat="45.75358" lon="4.84807">
        <ele>217.95204</ele>
        <time>2021-04-24T09:39:50.522Z</time>
      </trkpt>
      <trkpt lat="45.75351" lon="4.84823">
        <ele>218.103686</ele>
        <time>2021-04-24T09:39:52.513Z</time>
      </trkpt>
      <trkpt lat="45.75347" lon="4.84837">
        <ele>218.220923</ele>
        <time>2021-04-24T09:39:54.519Z</time>
      </trkpt>
      <trkpt lat="45.75339" lon="4.8485">
        <ele>218.358967</ele>
        <time>2021-04-24T09:39:56.555Z</time>
      </trkpt>
      <trkpt lat="45.75334" lon="4.84865">
        <ele>218.485982</ele>
        <time>2021-04-24T09:39:58.494Z</time>
      </trkpt>
      <trkpt lat="45.75328" lon="4.84879">
        <ele>218.614363</ele>
        <time>2021-04-24T09:40:01.513Z</time>
      </trkpt>
      <trkpt lat="45.75331" lon="4.84892">
        <ele>218.717887</ele>
        <time>2021-04-24T09:40:05.514Z</time>
      </trkpt>
      <trkpt lat="45.75325" lon="4.84905">
        <ele>218.832674</ele>
        <time>2021-04-24T09:40:23.504Z</time>
      </trkpt>
      <trkpt lat="45.75322" lon="4.84918">
        <ele>218.9588</ele>
        <time>2021-04-24T09:40:26.492Z</time>
      </trkpt>
      <trkpt lat="45.75319" lon="4.84934">
        <ele>219.479696</ele>
        <time>2021-04-24T09:40:29.496Z</time>
      </trkpt>
      <trkpt lat="45.75311" lon="4.84949">
        <ele>220.0465</ele>
        <time>2021-04-24T09:40:31.512Z</time>
      </trkpt>
      <trkpt lat="45.75302" lon="4.84963">
        <ele>220.608673</ele>
        <time>2021-04-24T09:40:33.503Z</time>
      </trkpt>
      <trkpt lat="45.75296" lon="4.84975">
        <ele>221.065742</ele>
        <time>2021-04-24T09:40:35.505Z</time>
      </trkpt>
      <trkpt lat="45.75291" lon="4.84986">
        <ele>221.463665</ele>
        <time>2021-04-24T09:40:37.507Z</time>
      </trkpt>
      <trkpt lat="45.75286" lon="4.85">
        <ele>221.943271</ele>
        <time>2021-04-24T09:40:39.502Z</time>
      </trkpt>
      <trkpt lat="45.75279" lon="4.85014">
        <ele>222.472774</ele>
        <time>2021-04-24T09:40:41.503Z</time>
      </trkpt>
      <trkpt lat="45.75272" lon="4.85026">
        <ele>222.955827</ele>
        <time>2021-04-24T09:40:43.504Z</time>
      </trkpt>
      <trkpt lat="45.75266" lon="4.85041">
        <ele>223.481805</ele>
        <time>2021-04-24T09:40:45.501Z</time>
      </trkpt>
      <trkpt lat="45.75258" lon="4.8506">
        <ele>224.145969</ele>
        <time>2021-04-24T09:40:47.512Z</time>
      </trkpt>
      <trkpt lat="45.75252" lon="4.85078">
        <ele>224.76987</ele>
        <time>2021-04-24T09:40:49.518Z</time>
      </trkpt>
      <trkpt lat="45.75246" lon="4.85096">
        <ele>225.377558</ele>
        <time>2021-04-24T09:40:51.524Z</time>
      </trkpt>
      <trkpt lat="45.75238" lon="4.85114">
        <ele>226.014948</ele>
        <time>2021-04-24T09:40:53.506Z</time>
      </trkpt>
      <trkpt lat="45.7523" lon="4.8513">
        <ele>226.609239</ele>
        <time>2021-04-24T09:40:55.523Z</time>
      </trkpt>
      <trkpt lat="45.75222" lon="4.85144">
        <ele>226.593812</ele>
        <time>2021-04-24T09:40:57.522Z</time>
      </trkpt>
      <trkpt lat="45.75225" lon="4.85159">
        <ele>226.347198</ele>
        <time>2021-04-24T09:40:58.498Z</time>
      </trkpt>
      <trkpt lat="45.75224" lon="4.85178">
        <ele>226.05242</ele>
        <time>2021-04-24T09:41:00.532Z</time>
      </trkpt>
      <trkpt lat="45.75219" lon="4.85193">
        <ele>225.786086</ele>
        <time>2021-04-24T09:41:02.512Z</time>
      </trkpt>
      <trkpt lat="45.75217" lon="4.85209">
        <ele>225.53395</ele>
        <time>2021-04-24T09:41:04.506Z</time>
      </trkpt>
      <trkpt lat="45.75209" lon="4.85218">
        <ele>225.301259</ele>
        <time>2021-04-24T09:41:08.525Z</time>
      </trkpt>
      <trkpt lat="45.75202" lon="4.85231">
        <ele>225.040692</ele>
        <time>2021-04-24T09:41:11.502Z</time>
      </trkpt>
      <trkpt lat="45.75197" lon="4.85247">
        <ele>224.76929</ele>
        <time>2021-04-24T09:41:14.518Z</time>
      </trkpt>
      <trkpt lat="45.75193" lon="4.85265">
        <ele>224.475888</ele>
        <time>2021-04-24T09:41:17.504Z</time>
      </trkpt>
      <trkpt lat="45.75188" lon="4.8528">
        <ele>224.21004</ele>
        <time>2021-04-24T09:41:19.490Z</time>
      </trkpt>
      <trkpt lat="45.75184" lon="4.85294">
        <ele>223.968751</ele>
        <time>2021-04-24T09:41:21.516Z</time>
      </trkpt>
      <trkpt lat="45.7518" lon="4.85309">
        <ele>223.71187</ele>
        <time>2021-04-24T09:41:23.514Z</time>
      </trkpt>
      <trkpt lat="45.75176" lon="4.85326">
        <ele>223.428978</ele>
        <time>2021-04-24T09:41:25.510Z</time>
      </trkpt>
      <trkpt lat="45.75171" lon="4.85343">
        <ele>223.145163</ele>
        <time>2021-04-24T09:41:27.495Z</time>
      </trkpt>
      <trkpt lat="45.75165" lon="4.8536">
        <ele>222.84277</ele>
        <time>2021-04-24T09:41:29.508Z</time>
      </trkpt>
      <trkpt lat="45.75158" lon="4.85377">
        <ele>222.645895</ele>
        <time>2021-04-24T09:41:31.505Z</time>
      </trkpt>
      <trkpt lat="45.7515" lon="4.85396">
        <ele>222.502377</ele>
        <time>2021-04-24T09:41:33.509Z</time>
      </trkpt>
      <trkpt lat="45.75144" lon="4.85414">
        <ele>222.368698</ele>
        <time>2021-04-24T09:41:35.496Z</time>
      </trkpt>
      <trkpt lat="45.75138" lon="4.85434">
        <ele>222.223944</ele>
        <time>2021-04-24T09:41:37.491Z</time>
      </trkpt>
      <trkpt lat="45.75132" lon="4.85454">
        <ele>222.082398</ele>
        <time>2021-04-24T09:41:39.487Z</time>
      </trkpt>
      <trkpt lat="45.75127" lon="4.85472">
        <ele>221.948661</ele>
        <time>2021-04-24T09:41:41.499Z</time>
      </trkpt>
      <trkpt lat="45.75124" lon="4.85487">
        <ele>221.844355</ele>
        <time>2021-04-24T09:41:43.497Z</time>
      </trkpt>
      <trkpt lat="45.75116" lon="4.85508">
        <ele>221.686721</ele>
        <time>2021-04-24T09:41:45.496Z</time>
      </trkpt>
      <trkpt lat="45.75115" lon="4.8553">
        <ele>221.546399</ele>
        <time>2021-04-24T09:41:47.520Z</time>
      </trkpt>
      <trkpt lat="45.75109" lon="4.85549">
        <ele>221.404284</ele>
        <time>2021-04-24T09:41:49.499Z</time>
      </trkpt>
      <trkpt lat="45.75102" lon="4.85568">
        <ele>221.263575</ele>
        <time>2021-04-24T09:41:51.496Z</time>
      </trkpt>
      <trkpt lat="45.75096" lon="4.85588">
        <ele>221.121024</ele>
        <time>2021-04-24T09:41:53.496Z</time>
      </trkpt>
      <trkpt lat="45.75092" lon="4.85607">
        <ele>221.232795</ele>
        <time>2021-04-24T09:41:55.491Z</time>
      </trkpt>
      <trkpt lat="45.75086" lon="4.85627">
        <ele>222.128043</ele>
        <time>2021-04-24T09:41:57.496Z</time>
      </trkpt>
      <trkpt lat="45.7508" lon="4.85644">
        <ele>222.916441</ele>
        <time>2021-04-24T09:41:59.498Z</time>
      </trkpt>
      <trkpt lat="45.75076" lon="4.85658">
        <ele>223.542281</ele>
        <time>2021-04-24T09:42:01.498Z</time>
      </trkpt>
      <trkpt lat="45.7507" lon="4.85671">
        <ele>224.191094</ele>
        <time>2021-04-24T09:42:06.508Z</time>
      </trkpt>
      <trkpt lat="45.7506" lon="4.85669">
        <ele>224.799955</ele>
        <time>2021-04-24T09:42:08.525Z</time>
      </trkpt>
      <trkpt lat="45.75055" lon="4.85682">
        <ele>225.40809</ele>
        <time>2021-04-24T09:42:23.505Z</time>
      </trkpt>
      <trkpt lat="45.75049" lon="4.85696">
        <ele>226.057476</ele>
        <time>2021-04-24T09:42:25.493Z</time>
      </trkpt>
      <trkpt lat="45.75043" lon="4.85712">
        <ele>226.82048</ele>
        <time>2021-04-24T09:42:27.494Z</time>
      </trkpt>
      <trkpt lat="45.75038" lon="4.85725">
        <ele>227.453719</ele>
        <time>2021-04-24T09:42:29.500Z</time>
      </trkpt>
      <trkpt lat="45.75032" lon="4.85743">
        <ele>228.27296</ele>
        <time>2021-04-24T09:42:31.493Z</time>
      </trkpt>
      <trkpt lat="45.75026" lon="4.85762">
        <ele>229.134041</ele>
        <time>2021-04-24T09:42:33.495Z</time>
      </trkpt>
      <trkpt lat="45.75019" lon="4.85782">
        <ele>230.075313</ele>
        <time>2021-04-24T09:42:35.490Z</time>
      </trkpt>
      <trkpt lat="45.75011" lon="4.85803">
        <ele>231.058491</ele>
        <time>2021-04-24T09:42:37.501Z</time>
      </trkpt>
      <trkpt lat="45.75004" lon="4.85823">
        <ele>231.551239</ele>
        <time>2021-04-24T09:42:39.506Z</time>
      </trkpt>
      <trkpt lat="45.75" lon="4.8584">
        <ele>231.21216</ele>
        <time>2021-04-24T09:42:41.495Z</time>
      </trkpt>
      <trkpt lat="45.74992" lon="4.85855">
        <ele>230.823379</ele>
        <time>2021-04-24T09:42:43.502Z</time>
      </trkpt>
      <trkpt lat="45.74984" lon="4.85871">
        <ele>230.438215</ele>
        <time>2021-04-24T09:42:45.518Z</time>
      </trkpt>
      <trkpt lat="45.74977" lon="4.85886">
        <ele>230.090299</ele>
        <time>2021-04-24T09:42:47.504Z</time>
      </trkpt>
      <trkpt lat="45.74974" lon="4.859">
        <ele>229.79212</ele>
        <time>2021-04-24T09:42:49.507Z</time>
      </trkpt>
      <trkpt lat="45.7497" lon="4.85912">
        <ele>229.537493</ele>
        <time>2021-04-24T09:42:52.506Z</time>
      </trkpt>
      <trkpt lat="45.74962" lon="4.85944">
        <ele>228.854718</ele>
        <time>2021-04-24T09:43:22.487Z</time>
      </trkpt>
      <trkpt lat="45.74958" lon="4.85961">
        <ele>228.521998</ele>
        <time>2021-04-24T09:43:24.491Z</time>
      </trkpt>
      <trkpt lat="45.74954" lon="4.85975">
        <ele>228.208334</ele>
        <time>2021-04-24T09:43:26.505Z</time>
      </trkpt>
      <trkpt lat="45.7495" lon="4.85991">
        <ele>227.86826</ele>
        <time>2021-04-24T09:43:28.513Z</time>
      </trkpt>
      <trkpt lat="45.74944" lon="4.86009">
        <ele>227.475733</ele>
        <time>2021-04-24T09:43:30.519Z</time>
      </trkpt>
      <trkpt lat="45.74938" lon="4.86027">
        <ele>227.095241</ele>
        <time>2021-04-24T09:43:32.506Z</time>
      </trkpt>
      <trkpt lat="45.74932" lon="4.86045">
        <ele>226.698646</ele>
        <time>2021-04-24T09:43:34.499Z</time>
      </trkpt>
      <trkpt lat="45.74928" lon="4.86066">
        <ele>227.833595</ele>
        <time>2021-04-24T09:43:36.536Z</time>
      </trkpt>
      <trkpt lat="45.74919" lon="4.86086">
        <ele>229.562145</ele>
        <time>2021-04-24T09:43:38.521Z</time>
      </trkpt>
      <trkpt lat="45.74911" lon="4.86104">
        <ele>231.046485</ele>
        <time>2021-04-24T09:43:40.518Z</time>
      </trkpt>
      <trkpt lat="45.74906" lon="4.86126">
        <ele>232.716238</ele>
        <time>2021-04-24T09:43:42.517Z</time>
      </trkpt>
      <trkpt lat="45.74898" lon="4.86147">
        <ele>234.407737</ele>
        <time>2021-04-24T09:43:44.510Z</time>
      </trkpt>
      <trkpt lat="45.74891" lon="4.86168">
        <ele>236.042797</ele>
        <time>2021-04-24T09:43:46.497Z</time>
      </trkpt>
      <trkpt lat="45.74888" lon="4.86186">
        <ele>237.39228</ele>
        <time>2021-04-24T09:43:48.504Z</time>
      </trkpt>
      <trkpt lat="45.74881" lon="4.86206">
        <ele>238.93271</ele>
        <time>2021-04-24T09:43:50.515Z</time>
      </trkpt>
      <trkpt lat="45.74877" lon="4.86226">
        <ele>240.434938</ele>
        <time>2021-04-24T09:43:52.516Z</time>
      </trkpt>
      <trkpt lat="45.74871" lon="4.86247">
        <ele>242.039381</ele>
        <time>2021-04-24T09:43:54.514Z</time>
      </trkpt>
      <trkpt lat="45.74865" lon="4.86266">
        <ele>243.509815</ele>
        <time>2021-04-24T09:43:56.509Z</time>
      </trkpt>
      <trkpt lat="45.74856" lon="4.86286">
        <ele>244.761605</ele>
        <time>2021-04-24T09:43:58.505Z</time>
      </trkpt>
      <trkpt lat="45.74849" lon="4.86304">
        <ele>243.866468</ele>
        <time>2021-04-24T09:44:00.499Z</time>
      </trkpt>
      <trkpt lat="45.7484" lon="4.86325">
        <ele>242.814876</ele>
        <time>2021-04-24T09:44:02.515Z</time>
      </trkpt>
      <trkpt lat="45.7483" lon="4.86344">
        <ele>241.76401</ele>
        <time>2021-04-24T09:44:04.496Z</time>
      </trkpt>
      <trkpt lat="45.74821" lon="4.86365">
        <ele>240.662451</ele>
        <time>2021-04-24T09:44:06.498Z</time>
      </trkpt>
      <trkpt lat="45.74816" lon="4.86384">
        <ele>239.792442</ele>
        <time>2021-04-24T09:44:08.532Z</time>
      </trkpt>
      <trkpt lat="45.7481" lon="4.86404">
        <ele>238.82667</ele>
        <time>2021-04-24T09:44:10.507Z</time>
      </trkpt>
      <trkpt lat="45.74802" lon="4.86424">
        <ele>237.792136</ele>
        <time>2021-04-24T09:44:12.497Z</time>
      </trkpt>
      <trkpt lat="45.74795" lon="4.86441">
        <ele>236.925204</ele>
        <time>2021-04-24T09:44:14.522Z</time>
      </trkpt>
      <trkpt lat="45.7479" lon="4.86461">
        <ele>236.015828</ele>
        <time>2021-04-24T09:44:16.497Z</time>
      </trkpt>
      <trkpt lat="45.74784" lon="4.86482">
        <ele>235.007965</ele>
        <time>2021-04-24T09:44:18.497Z</time>
      </trkpt>
      <trkpt lat="45.74778" lon="4.865">
        <ele>234.106188</ele>
        <time>2021-04-24T09:44:20.551Z</time>
      </trkpt>
      <trkpt lat="45.74772" lon="4.86518">
        <ele>233.668328</ele>
        <time>2021-04-24T09:44:22.502Z</time>
      </trkpt>
      <trkpt lat="45.74763" lon="4.86538">
        <ele>233.740655</ele>
        <time>2021-04-24T09:44:24.497Z</time>
      </trkpt>
      <trkpt lat="45.74761" lon="4.86553">
        <ele>233.785423</ele>
        <time>2021-04-24T09:44:26.507Z</time>
      </trkpt>
      <trkpt lat="45.74754" lon="4.86571">
        <ele>233.846985</ele>
        <time>2021-04-24T09:44:28.503Z</time>
      </trkpt>
      <trkpt lat="45.74751" lon="4.8659">
        <ele>233.907024</ele>
        <time>2021-04-24T09:44:30.498Z</time>
      </trkpt>
      <trkpt lat="45.74746" lon="4.86607">
        <ele>233.961859</ele>
        <time>2021-04-24T09:44:32.536Z</time>
      </trkpt>
      <trkpt lat="45.74739" lon="4.86624">
        <ele>234.021492</ele>
        <time>2021-04-24T09:44:34.500Z</time>
      </trkpt>
      <trkpt lat="45.74734" lon="4.86639">
        <ele>234.072535</ele>
        <time>2021-04-24T09:44:36.503Z</time>
      </trkpt>
      <trkpt lat="45.74729" lon="4.86655">
        <ele>234.126732</ele>
        <time>2021-04-24T09:44:38.511Z</time>
      </trkpt>
      <trkpt lat="45.74722" lon="4.86667">
        <ele>234.170337</ele>
        <time>2021-04-24T09:44:40.506Z</time>
      </trkpt>
      <trkpt lat="45.74716" lon="4.8668">
        <ele>234.220315</ele>
        <time>2021-04-24T09:44:43.514Z</time>
      </trkpt>
      <trkpt lat="45.74711" lon="4.86693">
        <ele>234.26426</ele>
        <time>2021-04-24T09:44:46.525Z</time>
      </trkpt>
      <trkpt lat="45.74703" lon="4.86705">
        <ele>234.314626</ele>
        <time>2021-04-24T09:44:49.517Z</time>
      </trkpt>
      <trkpt lat="45.74694" lon="4.86722">
        <ele>234.378471</ele>
        <time>2021-04-24T09:44:52.485Z</time>
      </trkpt>
      <trkpt lat="45.74691" lon="4.86736">
        <ele>234.378709</ele>
        <time>2021-04-24T09:44:55.491Z</time>
      </trkpt>
      <trkpt lat="45.74684" lon="4.86753">
        <ele>233.422378</ele>
        <time>2021-04-24T09:44:57.498Z</time>
      </trkpt>
      <trkpt lat="45.74678" lon="4.86771">
        <ele>232.461429</ele>
        <time>2021-04-24T09:44:59.500Z</time>
      </trkpt>
      <trkpt lat="45.74668" lon="4.86787">
        <ele>231.428296</ele>
        <time>2021-04-24T09:45:01.498Z</time>
      </trkpt>
      <trkpt lat="45.74665" lon="4.86806">
        <ele>230.491356</ele>
        <time>2021-04-24T09:45:03.500Z</time>
      </trkpt>
      <trkpt lat="45.74659" lon="4.86826">
        <ele>229.478755</ele>
        <time>2021-04-24T09:45:05.497Z</time>
      </trkpt>
      <trkpt lat="45.74654" lon="4.86844">
        <ele>228.556429</ele>
        <time>2021-04-24T09:45:07.495Z</time>
      </trkpt>
      <trkpt lat="45.74647" lon="4.86862">
        <ele>227.583736</ele>
        <time>2021-04-24T09:45:09.500Z</time>
      </trkpt>
      <trkpt lat="45.7464" lon="4.8688">
        <ele>226.580102</ele>
        <time>2021-04-24T09:45:11.536Z</time>
      </trkpt>
      <trkpt lat="45.74634" lon="4.86899">
        <ele>225.59482</ele>
        <time>2021-04-24T09:45:13.507Z</time>
      </trkpt>
      <trkpt lat="45.7463" lon="4.86919">
        <ele>224.590103</ele>
        <time>2021-04-24T09:45:15.501Z</time>
      </trkpt>
      <trkpt lat="45.74622" lon="4.86936">
        <ele>223.599768</ele>
        <time>2021-04-24T09:45:17.492Z</time>
      </trkpt>
      <trkpt lat="45.74615" lon="4.86958">
        <ele>222.458428</ele>
        <time>2021-04-24T09:45:19.525Z</time>
      </trkpt>
      <trkpt lat="45.74608" lon="4.86976">
        <ele>221.914701</ele>
        <time>2021-04-24T09:45:21.495Z</time>
      </trkpt>
      <trkpt lat="45.74603" lon="4.86995">
        <ele>221.681063</ele>
        <time>2021-04-24T09:45:23.493Z</time>
      </trkpt>
      <trkpt lat="45.74596" lon="4.87014">
        <ele>221.427667</ele>
        <time>2021-04-24T09:45:25.498Z</time>
      </trkpt>
      <trkpt lat="45.7459" lon="4.87034">
        <ele>221.173915</ele>
        <time>2021-04-24T09:45:27.488Z</time>
      </trkpt>
      <trkpt lat="45.74584" lon="4.87053">
        <ele>220.926554</ele>
        <time>2021-04-24T09:45:29.507Z</time>
      </trkpt>
      <trkpt lat="45.74578" lon="4.87068">
        <ele>220.715033</ele>
        <time>2021-04-24T09:45:31.509Z</time>
      </trkpt>
      <trkpt lat="45.74569" lon="4.87082">
        <ele>220.498082</ele>
        <time>2021-04-24T09:45:33.519Z</time>
      </trkpt>
      <trkpt lat="45.74566" lon="4.87095">
        <ele>220.333193</ele>
        <time>2021-04-24T09:45:35.500Z</time>
      </trkpt>
      <trkpt lat="45.74562" lon="4.87107">
        <ele>220.17753</ele>
        <time>2021-04-24T09:45:37.500Z</time>
      </trkpt>
      <trkpt lat="45.74554" lon="4.87114">
        <ele>220.024027</ele>
        <time>2021-04-24T09:45:39.515Z</time>
      </trkpt>
      <trkpt lat="45.7454" lon="4.87109">
        <ele>219.785802</ele>
        <time>2021-04-24T09:45:42.499Z</time>
      </trkpt>
      <trkpt lat="45.74531" lon="4.87103">
        <ele>219.620063</ele>
        <time>2021-04-24T09:45:44.500Z</time>
      </trkpt>
      <trkpt lat="45.74521" lon="4.87097">
        <ele>219.4329</ele>
        <time>2021-04-24T09:45:46.508Z</time>
      </trkpt>
      <trkpt lat="45.74511" lon="4.87091">
        <ele>219.246811</ele>
        <time>2021-04-24T09:45:48.510Z</time>
      </trkpt>
      <trkpt lat="45.74501" lon="4.87085">
        <ele>219.059896</ele>
        <time>2021-04-24T09:45:50.513Z</time>
      </trkpt>
      <trkpt lat="45.74489" lon="4.8708">
        <ele>219.174291</ele>
        <time>2021-04-24T09:45:53.507Z</time>
      </trkpt>
      <trkpt lat="45.74478" lon="4.87076">
        <ele>219.30653</ele>
        <time>2021-04-24T09:45:55.519Z</time>
      </trkpt>
      <trkpt lat="45.74467" lon="4.87072">
        <ele>219.44927</ele>
        <time>2021-04-24T09:45:57.509Z</time>
      </trkpt>
      <trkpt lat="45.74457" lon="4.87066">
        <ele>219.58373</ele>
        <time>2021-04-24T09:45:59.514Z</time>
      </trkpt>
      <trkpt lat="45.74447" lon="4.87061">
        <ele>219.713675</ele>
        <time>2021-04-24T09:46:01.512Z</time>
      </trkpt>
      <trkpt lat="45.74436" lon="4.87059">
        <ele>219.859397</ele>
        <time>2021-04-24T09:46:03.498Z</time>
      </trkpt>
      <trkpt lat="45.74425" lon="4.87054">
        <ele>219.995912</ele>
        <time>2021-04-24T09:46:06.561Z</time>
      </trkpt>
      <trkpt lat="45.74414" lon="4.87049">
        <ele>220.138879</ele>
        <time>2021-04-24T09:46:24.506Z</time>
      </trkpt>
      <trkpt lat="45.74403" lon="4.87058">
        <ele>220.290991</ele>
        <time>2021-04-24T09:46:28.490Z</time>
      </trkpt>
      <trkpt lat="45.74401" lon="4.87072">
        <ele>220.422829</ele>
        <time>2021-04-24T09:46:30.491Z</time>
      </trkpt>
      <trkpt lat="45.74398" lon="4.87087">
        <ele>220.553224</ele>
        <time>2021-04-24T09:46:32.490Z</time>
      </trkpt>
      <trkpt lat="45.74395" lon="4.87102">
        <ele>220.687209</ele>
        <time>2021-04-24T09:46:34.496Z</time>
      </trkpt>
      <trkpt lat="45.74394" lon="4.87119">
        <ele>220.837734</ele>
        <time>2021-04-24T09:46:37.492Z</time>
      </trkpt>
      <trkpt lat="45.74393" lon="4.87132">
        <ele>220.950353</ele>
        <time>2021-04-24T09:46:39.490Z</time>
      </trkpt>
      <trkpt lat="45.74391" lon="4.8715">
        <ele>221.113646</ele>
        <time>2021-04-24T09:46:41.501Z</time>
      </trkpt>
      <trkpt lat="45.7438" lon="4.87166">
        <ele>221.29882</ele>
        <time>2021-04-24T09:46:43.503Z</time>
      </trkpt>
      <trkpt lat="45.74376" lon="4.87185">
        <ele>221.444911</ele>
        <time>2021-04-24T09:46:45.498Z</time>
      </trkpt>
      <trkpt lat="45.74377" lon="4.87203">
        <ele>221.577294</ele>
        <time>2021-04-24T09:46:47.494Z</time>
      </trkpt>
      <trkpt lat="45.74375" lon="4.87222">
        <ele>221.714043</ele>
        <time>2021-04-24T09:46:49.518Z</time>
      </trkpt>
      <trkpt lat="45.74369" lon="4.87242">
        <ele>221.87403</ele>
        <time>2021-04-24T09:46:51.499Z</time>
      </trkpt>
      <trkpt lat="45.74365" lon="4.87262">
        <ele>222.028925</ele>
        <time>2021-04-24T09:46:53.496Z</time>
      </trkpt>
      <trkpt lat="45.74364" lon="4.87283">
        <ele>222.183355</ele>
        <time>2021-04-24T09:46:55.501Z</time>
      </trkpt>
      <trkpt lat="45.74358" lon="4.87303">
        <ele>222.339936</ele>
        <time>2021-04-24T09:46:57.523Z</time>
      </trkpt>
      <trkpt lat="45.74364" lon="4.8732">
        <ele>222.472846</ele>
        <time>2021-04-24T09:46:59.489Z</time>
      </trkpt>
      <trkpt lat="45.7436" lon="4.87338">
        <ele>222.616327</ele>
        <time>2021-04-24T09:47:01.498Z</time>
      </trkpt>
      <trkpt lat="45.74355" lon="4.87355">
        <ele>222.745861</ele>
        <time>2021-04-24T09:47:03.525Z</time>
      </trkpt>
      <trkpt lat="45.74348" lon="4.87373">
        <ele>222.895968</ele>
        <time>2021-04-24T09:47:05.499Z</time>
      </trkpt>
      <trkpt lat="45.74346" lon="4.8739">
        <ele>223.025697</ele>
        <time>2021-04-24T09:47:07.515Z</time>
      </trkpt>
      <trkpt lat="45.74344" lon="4.87404">
        <ele>223.127358</ele>
        <time>2021-04-24T09:47:10.505Z</time>
      </trkpt>
      <trkpt lat="45.74339" lon="4.87446">
        <ele>224.001507</ele>
        <time>2021-04-24T09:47:51.518Z</time>
      </trkpt>
      <trkpt lat="45.74336" lon="4.87461">
        <ele>224.355742</ele>
        <time>2021-04-24T09:47:53.498Z</time>
      </trkpt>
      <trkpt lat="45.74331" lon="4.8748">
        <ele>224.781296</ele>
        <time>2021-04-24T09:47:55.499Z</time>
      </trkpt>
      <trkpt lat="45.74333" lon="4.87495">
        <ele>225.114964</ele>
        <time>2021-04-24T09:47:57.502Z</time>
      </trkpt>
      <trkpt lat="45.74334" lon="4.87513">
        <ele>225.51097</ele>
        <time>2021-04-24T09:47:59.527Z</time>
      </trkpt>
      <trkpt lat="45.74333" lon="4.8753">
        <ele>225.902365</ele>
        <time>2021-04-24T09:48:01.501Z</time>
      </trkpt>
      <trkpt lat="45.74328" lon="4.87548">
        <ele>226.325559</ele>
        <time>2021-04-24T09:48:03.517Z</time>
      </trkpt>
      <trkpt lat="45.74324" lon="4.87569">
        <ele>226.798726</ele>
        <time>2021-04-24T09:48:05.503Z</time>
      </trkpt>
      <trkpt lat="45.74319" lon="4.87589">
        <ele>227.256534</ele>
        <time>2021-04-24T09:48:07.506Z</time>
      </trkpt>
      <trkpt lat="45.74318" lon="4.87607">
        <ele>227.661412</ele>
        <time>2021-04-24T09:48:09.513Z</time>
      </trkpt>
      <trkpt lat="45.74315" lon="4.87625">
        <ele>228.056263</ele>
        <time>2021-04-24T09:48:11.505Z</time>
      </trkpt>
      <trkpt lat="45.74317" lon="4.8764">
        <ele>228.383045</ele>
        <time>2021-04-24T09:48:13.501Z</time>
      </trkpt>
      <trkpt lat="45.74313" lon="4.87657">
        <ele>228.790366</ele>
        <time>2021-04-24T09:48:15.504Z</time>
      </trkpt>
      <trkpt lat="45.7431" lon="4.87677">
        <ele>228.697467</ele>
        <time>2021-04-24T09:48:17.500Z</time>
      </trkpt>
      <trkpt lat="45.74306" lon="4.87696">
        <ele>228.582861</ele>
        <time>2021-04-24T09:48:19.496Z</time>
      </trkpt>
      <trkpt lat="45.743" lon="4.87713">
        <ele>228.469756</ele>
        <time>2021-04-24T09:48:21.500Z</time>
      </trkpt>
      <trkpt lat="45.74295" lon="4.87727">
        <ele>228.376448</ele>
        <time>2021-04-24T09:48:23.497Z</time>
      </trkpt>
      <trkpt lat="45.74293" lon="4.87743">
        <ele>228.283658</ele>
        <time>2021-04-24T09:48:25.499Z</time>
      </trkpt>
      <trkpt lat="45.74292" lon="4.87758">
        <ele>228.195612</ele>
        <time>2021-04-24T09:48:27.500Z</time>
      </trkpt>
      <trkpt lat="45.74293" lon="4.87773">
        <ele>228.108406</ele>
        <time>2021-04-24T09:48:29.507Z</time>
      </trkpt>
      <trkpt lat="45.7429" lon="4.87785">
        <ele>228.033325</ele>
        <time>2021-04-24T09:48:37.493Z</time>
      </trkpt>
      <trkpt lat="45.74283" lon="4.87819">
        <ele>227.826333</ele>
        <time>2021-04-24T09:49:32.516Z</time>
      </trkpt>
      <trkpt lat="45.74281" lon="4.87834">
        <ele>227.737425</ele>
        <time>2021-04-24T09:49:34.503Z</time>
      </trkpt>
      <trkpt lat="45.74275" lon="4.8785">
        <ele>227.633113</ele>
        <time>2021-04-24T09:49:36.516Z</time>
      </trkpt>
      <trkpt lat="45.74273" lon="4.87866">
        <ele>227.538886</ele>
        <time>2021-04-24T09:49:38.509Z</time>
      </trkpt>
      <trkpt lat="45.74272" lon="4.87883">
        <ele>227.438104</ele>
        <time>2021-04-24T09:49:40.503Z</time>
      </trkpt>
      <trkpt lat="45.7427" lon="4.879">
        <ele>227.338578</ele>
        <time>2021-04-24T09:49:42.513Z</time>
      </trkpt>
      <trkpt lat="45.74269" lon="4.87917">
        <ele>227.177497</ele>
        <time>2021-04-24T09:49:44.503Z</time>
      </trkpt>
      <trkpt lat="45.74265" lon="4.87934">
        <ele>226.963079</ele>
        <time>2021-04-24T09:49:46.507Z</time>
      </trkpt>
      <trkpt lat="45.74262" lon="4.87954">
        <ele>226.733242</ele>
        <time>2021-04-24T09:49:48.574Z</time>
      </trkpt>
      <trkpt lat="45.74259" lon="4.87972">
        <ele>226.518325</ele>
        <time>2021-04-24T09:49:50.515Z</time>
      </trkpt>
      <trkpt lat="45.74256" lon="4.87989">
        <ele>226.312381</ele>
        <time>2021-04-24T09:49:52.502Z</time>
      </trkpt>
      <trkpt lat="45.74248" lon="4.87999">
        <ele>226.139537</ele>
        <time>2021-04-24T09:49:53.491Z</time>
      </trkpt>
      <trkpt lat="45.74247" lon="4.88018">
        <ele>225.926972</ele>
        <time>2021-04-24T09:49:55.504Z</time>
      </trkpt>
      <trkpt lat="45.74242" lon="4.88035">
        <ele>225.706115</ele>
        <time>2021-04-24T09:49:57.506Z</time>
      </trkpt>
      <trkpt lat="45.74241" lon="4.88051">
        <ele>225.52809</ele>
        <time>2021-04-24T09:49:59.536Z</time>
      </trkpt>
      <trkpt lat="45.74236" lon="4.88068">
        <ele>225.31069</ele>
        <time>2021-04-24T09:50:01.513Z</time>
      </trkpt>
      <trkpt lat="45.74236" lon="4.88086">
        <ele>225.110349</ele>
        <time>2021-04-24T09:50:03.491Z</time>
      </trkpt>
      <trkpt lat="45.74233" lon="4.88104">
        <ele>224.889447</ele>
        <time>2021-04-24T09:50:05.527Z</time>
      </trkpt>
      <trkpt lat="45.74231" lon="4.88123">
        <ele>224.672969</ele>
        <time>2021-04-24T09:50:07.499Z</time>
      </trkpt>
      <trkpt lat="45.74229" lon="4.88142">
        <ele>224.457734</ele>
        <time>2021-04-24T09:50:09.499Z</time>
      </trkpt>
      <trkpt lat="45.7423" lon="4.88157">
        <ele>224.611667</ele>
        <time>2021-04-24T09:50:11.521Z</time>
      </trkpt>
      <trkpt lat="45.74229" lon="4.88174">
        <ele>225.35864</ele>
        <time>2021-04-24T09:50:13.503Z</time>
      </trkpt>
      <trkpt lat="45.74226" lon="4.8819">
        <ele>226.091835</ele>
        <time>2021-04-24T09:50:15.511Z</time>
      </trkpt>
      <trkpt lat="45.74224" lon="4.88205">
        <ele>226.817842</ele>
        <time>2021-04-24T09:50:17.503Z</time>
      </trkpt>
      <trkpt lat="45.74222" lon="4.88221">
        <ele>227.534509</ele>
        <time>2021-04-24T09:50:19.491Z</time>
      </trkpt>
      <trkpt lat="45.74216" lon="4.88253">
        <ele>229.032305</ele>
        <time>2021-04-24T09:50:23.497Z</time>
      </trkpt>
      <trkpt lat="45.74212" lon="4.8827">
        <ele>229.85182</ele>
        <time>2021-04-24T09:50:25.490Z</time>
      </trkpt>
      <trkpt lat="45.74209" lon="4.88286">
        <ele>230.586478</ele>
        <time>2021-04-24T09:50:27.491Z</time>
      </trkpt>
      <trkpt lat="45.74206" lon="4.88303">
        <ele>231.391156</ele>
        <time>2021-04-24T09:50:29.495Z</time>
      </trkpt>
      <trkpt lat="45.74201" lon="4.88319">
        <ele>232.177638</ele>
        <time>2021-04-24T09:50:31.492Z</time>
      </trkpt>
      <trkpt lat="45.74194" lon="4.88334">
        <ele>232.969441</ele>
        <time>2021-04-24T09:50:33.494Z</time>
      </trkpt>
      <trkpt lat="45.7419" lon="4.88349">
        <ele>233.73274</ele>
        <time>2021-04-24T09:50:35.498Z</time>
      </trkpt>
      <trkpt lat="45.74183" lon="4.88363">
        <ele>234.486955</ele>
        <time>2021-04-24T09:50:37.504Z</time>
      </trkpt>
      <trkpt lat="45.74181" lon="4.88376">
        <ele>235.076779</ele>
        <time>2021-04-24T09:50:39.503Z</time>
      </trkpt>
      <trkpt lat="45.74174" lon="4.88389">
        <ele>235.800502</ele>
        <time>2021-04-24T09:50:41.520Z</time>
      </trkpt>
      <trkpt lat="45.74172" lon="4.88401">
        <ele>236.145343</ele>
        <time>2021-04-24T09:50:43.500Z</time>
      </trkpt>
      <trkpt lat="45.74165" lon="4.88418">
        <ele>236.464989</ele>
        <time>2021-04-24T09:50:46.502Z</time>
      </trkpt>
      <trkpt lat="45.7416" lon="4.88432">
        <ele>236.726017</ele>
        <time>2021-04-24T09:50:49.503Z</time>
      </trkpt>
      <trkpt lat="45.74155" lon="4.88445">
        <ele>236.953925</ele>
        <time>2021-04-24T09:50:52.505Z</time>
      </trkpt>
      <trkpt lat="45.74151" lon="4.88458">
        <ele>237.205695</ele>
        <time>2021-04-24T09:50:55.497Z</time>
      </trkpt>
      <trkpt lat="45.74144" lon="4.88473">
        <ele>237.491685</ele>
        <time>2021-04-24T09:50:58.496Z</time>
      </trkpt>
      <trkpt lat="45.74138" lon="4.88485">
        <ele>237.742604</ele>
        <time>2021-04-24T09:51:00.506Z</time>
      </trkpt>
      <trkpt lat="45.74133" lon="4.88502">
        <ele>238.039497</ele>
        <time>2021-04-24T09:51:03.502Z</time>
      </trkpt>
      <trkpt lat="45.74128" lon="4.88515">
        <ele>238.271127</ele>
        <time>2021-04-24T09:51:05.507Z</time>
      </trkpt>
      <trkpt lat="45.74123" lon="4.8853">
        <ele>238.545949</ele>
        <time>2021-04-24T09:51:07.517Z</time>
      </trkpt>
      <trkpt lat="45.74119" lon="4.88542">
        <ele>238.772338</ele>
        <time>2021-04-24T09:51:09.503Z</time>
      </trkpt>
      <trkpt lat="45.74114" lon="4.88556">
        <ele>239.029544</ele>
        <time>2021-04-24T09:51:11.505Z</time>
      </trkpt>
      <trkpt lat="45.74112" lon="4.8857">
        <ele>239.258945</ele>
        <time>2021-04-24T09:51:13.511Z</time>
      </trkpt>
      <trkpt lat="45.74107" lon="4.88585">
        <ele>239.529812</ele>
        <time>2021-04-24T09:51:15.519Z</time>
      </trkpt>
      <trkpt lat="45.74101" lon="4.886">
        <ele>239.805485</ele>
        <time>2021-04-24T09:51:17.509Z</time>
      </trkpt>
      <trkpt lat="45.74097" lon="4.88613">
        <ele>240.050007</ele>
        <time>2021-04-24T09:51:19.489Z</time>
      </trkpt>
      <trkpt lat="45.74093" lon="4.88626">
        <ele>240.301358</ele>
        <time>2021-04-24T09:51:21.503Z</time>
      </trkpt>
      <trkpt lat="45.74089" lon="4.88638">
        <ele>240.65357</ele>
        <time>2021-04-24T09:51:23.500Z</time>
      </trkpt>
      <trkpt lat="45.74084" lon="4.88654">
        <ele>241.102716</ele>
        <time>2021-04-24T09:51:26.518Z</time>
      </trkpt>
      <trkpt lat="45.74084" lon="4.88669">
        <ele>241.508919</ele>
        <time>2021-04-24T09:51:29.501Z</time>
      </trkpt>
      <trkpt lat="45.74081" lon="4.88685">
        <ele>241.924728</ele>
        <time>2021-04-24T09:51:33.504Z</time>
      </trkpt>
      <trkpt lat="45.74077" lon="4.88701">
        <ele>242.36861</ele>
        <time>2021-04-24T09:51:36.493Z</time>
      </trkpt>
      <trkpt lat="45.7407" lon="4.88713">
        <ele>242.792196</ele>
        <time>2021-04-24T09:51:38.517Z</time>
      </trkpt>
      <trkpt lat="45.74067" lon="4.88728">
        <ele>243.171373</ele>
        <time>2021-04-24T09:51:40.495Z</time>
      </trkpt>
      <trkpt lat="45.7406" lon="4.88742">
        <ele>243.632982</ele>
        <time>2021-04-24T09:51:42.504Z</time>
      </trkpt>
      <trkpt lat="45.74055" lon="4.88754">
        <ele>243.997737</ele>
        <time>2021-04-24T09:51:44.534Z</time>
      </trkpt>
      <trkpt lat="45.74051" lon="4.88768">
        <ele>244.401942</ele>
        <time>2021-04-24T09:51:46.496Z</time>
      </trkpt>
      <trkpt lat="45.74047" lon="4.88783">
        <ele>244.803104</ele>
        <time>2021-04-24T09:51:48.500Z</time>
      </trkpt>
      <trkpt lat="45.74044" lon="4.88795">
        <ele>245.151874</ele>
        <time>2021-04-24T09:51:50.508Z</time>
      </trkpt>
      <trkpt lat="45.74039" lon="4.88809">
        <ele>245.560669</ele>
        <time>2021-04-24T09:51:53.498Z</time>
      </trkpt>
      <trkpt lat="45.74037" lon="4.88823">
        <ele>245.921981</ele>
        <time>2021-04-24T09:51:58.509Z</time>
      </trkpt>
      <trkpt lat="45.74031" lon="4.88836">
        <ele>246.325145</ele>
        <time>2021-04-24T09:52:01.507Z</time>
      </trkpt>
      <trkpt lat="45.74026" lon="4.88848">
        <ele>246.700751</ele>
        <time>2021-04-24T09:52:03.494Z</time>
      </trkpt>
      <trkpt lat="45.74024" lon="4.88861">
        <ele>246.973294</ele>
        <time>2021-04-24T09:52:05.493Z</time>
      </trkpt>
      <trkpt lat="45.74016" lon="4.88877">
        <ele>247.179302</ele>
        <time>2021-04-24T09:52:07.484Z</time>
      </trkpt>
      <trkpt lat="45.74009" lon="4.88893">
        <ele>247.384655</ele>
        <time>2021-04-24T09:52:09.495Z</time>
      </trkpt>
      <trkpt lat="45.74004" lon="4.88911">
        <ele>247.585271</ele>
        <time>2021-04-24T09:52:11.492Z</time>
      </trkpt>
      <trkpt lat="45.73997" lon="4.88929">
        <ele>247.800777</ele>
        <time>2021-04-24T09:52:13.491Z</time>
      </trkpt>
      <trkpt lat="45.7399" lon="4.88939">
        <ele>247.952322</ele>
        <time>2021-04-24T09:52:14.500Z</time>
      </trkpt>
      <trkpt lat="45.73982" lon="4.88958">
        <ele>248.188554</ele>
        <time>2021-04-24T09:52:16.502Z</time>
      </trkpt>
      <trkpt lat="45.73976" lon="4.88978">
        <ele>248.423187</ele>
        <time>2021-04-24T09:52:18.508Z</time>
      </trkpt>
      <trkpt lat="45.73971" lon="4.88998">
        <ele>248.650475</ele>
        <time>2021-04-24T09:52:20.496Z</time>
      </trkpt>
      <trkpt lat="45.73963" lon="4.89019">
        <ele>248.900533</ele>
        <time>2021-04-24T09:52:22.549Z</time>
      </trkpt>
      <trkpt lat="45.73958" lon="4.89037">
        <ele>249.105756</ele>
        <time>2021-04-24T09:52:24.503Z</time>
      </trkpt>
      <trkpt lat="45.73953" lon="4.89054">
        <ele>249.307949</ele>
        <time>2021-04-24T09:52:26.491Z</time>
      </trkpt>
      <trkpt lat="45.7395" lon="4.89069">
        <ele>249.471156</ele>
        <time>2021-04-24T09:52:28.510Z</time>
      </trkpt>
      <trkpt lat="45.73944" lon="4.89082">
        <ele>249.629415</ele>
        <time>2021-04-24T09:52:30.507Z</time>
      </trkpt>
      <trkpt lat="45.73938" lon="4.89098">
        <ele>249.81592</ele>
        <time>2021-04-24T09:52:33.493Z</time>
      </trkpt>
      <trkpt lat="45.73933" lon="4.89116">
        <ele>250.009876</ele>
        <time>2021-04-24T09:52:36.485Z</time>
      </trkpt>
      <trkpt lat="45.73927" lon="4.89134">
        <ele>250.212644</ele>
        <time>2021-04-24T09:52:39.492Z</time>
      </trkpt>
      <trkpt lat="45.73923" lon="4.89147">
        <ele>250.342346</ele>
        <time>2021-04-24T09:52:41.490Z</time>
      </trkpt>
      <trkpt lat="45.73919" lon="4.8916">
        <ele>250.488519</ele>
        <time>2021-04-24T09:52:44.500Z</time>
      </trkpt>
      <trkpt lat="45.73908" lon="4.89163">
        <ele>250.650622</ele>
        <time>2021-04-24T09:52:46.501Z</time>
      </trkpt>
      <trkpt lat="45.73902" lon="4.89177">
        <ele>250.809574</ele>
        <time>2021-04-24T09:52:49.502Z</time>
      </trkpt>
      <trkpt lat="45.73898" lon="4.89192">
        <ele>250.975016</ele>
        <time>2021-04-24T09:52:52.492Z</time>
      </trkpt>
      <trkpt lat="45.73895" lon="4.89208">
        <ele>251.137162</ele>
        <time>2021-04-24T09:52:55.517Z</time>
      </trkpt>
      <trkpt lat="45.73892" lon="4.89222">
        <ele>251.282424</ele>
        <time>2021-04-24T09:52:58.512Z</time>
      </trkpt>
      <trkpt lat="45.73889" lon="4.89235">
        <ele>251.419757</ele>
        <time>2021-04-24T09:53:01.510Z</time>
      </trkpt>
      <trkpt lat="45.73887" lon="4.89248">
        <ele>251.551121</ele>
        <time>2021-04-24T09:53:06.504Z</time>
      </trkpt>
      <trkpt lat="45.73894" lon="4.89258">
        <ele>251.690515</ele>
        <time>2021-04-24T09:53:22.492Z</time>
      </trkpt>
      <trkpt lat="45.73903" lon="4.89264">
        <ele>251.832991</ele>
        <time>2021-04-24T09:53:25.484Z</time>
      </trkpt>
      <trkpt lat="45.73915" lon="4.89266">
        <ele>252.014823</ele>
        <time>2021-04-24T09:53:28.519Z</time>
      </trkpt>
      <trkpt lat="45.73926" lon="4.89262">
        <ele>252.171603</ele>
        <time>2021-04-24T09:53:30.495Z</time>
      </trkpt>
      <trkpt lat="45.73935" lon="4.89258">
        <ele>252.081773</ele>
        <time>2021-04-24T09:53:32.488Z</time>
      </trkpt>
      <trkpt lat="45.73945" lon="4.89261">
        <ele>251.767356</ele>
        <time>2021-04-24T09:53:34.497Z</time>
      </trkpt>
      <trkpt lat="45.73956" lon="4.89264">
        <ele>251.445354</ele>
        <time>2021-04-24T09:53:36.496Z</time>
      </trkpt>
      <trkpt lat="45.73967" lon="4.89272">
        <ele>251.078963</ele>
        <time>2021-04-24T09:53:38.533Z</time>
      </trkpt>
      <trkpt lat="45.73979" lon="4.89277">
        <ele>250.707423</ele>
        <time>2021-04-24T09:53:40.498Z</time>
      </trkpt>
      <trkpt lat="45.73992" lon="4.89281">
        <ele>250.303291</ele>
        <time>2021-04-24T09:53:42.504Z</time>
      </trkpt>
      <trkpt lat="45.74006" lon="4.89288">
        <ele>249.875443</ele>
        <time>2021-04-24T09:53:44.503Z</time>
      </trkpt>
      <trkpt lat="45.74018" lon="4.89293">
        <ele>249.488322</ele>
        <time>2021-04-24T09:53:46.503Z</time>
      </trkpt>
      <trkpt lat="45.74029" lon="4.89301">
        <ele>249.140606</ele>
        <time>2021-04-24T09:53:48.498Z</time>
      </trkpt>
      <trkpt lat="45.74042" lon="4.89307">
        <ele>248.723744</ele>
        <time>2021-04-24T09:53:50.499Z</time>
      </trkpt>
      <trkpt lat="45.74056" lon="4.89314">
        <ele>248.286129</ele>
        <time>2021-04-24T09:53:52.499Z</time>
      </trkpt>
      <trkpt lat="45.74073" lon="4.8932">
        <ele>247.781565</ele>
        <time>2021-04-24T09:53:54.497Z</time>
      </trkpt>
      <trkpt lat="45.74087" lon="4.89327">
        <ele>247.339768</ele>
        <time>2021-04-24T09:53:56.499Z</time>
      </trkpt>
      <trkpt lat="45.74098" lon="4.89334">
        <ele>246.972346</ele>
        <time>2021-04-24T09:53:58.498Z</time>
      </trkpt>
      <trkpt lat="45.7411" lon="4.89342">
        <ele>246.736522</ele>
        <time>2021-04-24T09:54:00.500Z</time>
      </trkpt>
      <trkpt lat="45.74123" lon="4.8935">
        <ele>246.502216</ele>
        <time>2021-04-24T09:54:02.501Z</time>
      </trkpt>
      <trkpt lat="45.74134" lon="4.89356">
        <ele>246.302602</ele>
        <time>2021-04-24T09:54:04.505Z</time>
      </trkpt>
      <trkpt lat="45.7415" lon="4.89362">
        <ele>246.045872</ele>
        <time>2021-04-24T09:54:06.498Z</time>
      </trkpt>
      <trkpt lat="45.74164" lon="4.89366">
        <ele>245.812785</ele>
        <time>2021-04-24T09:54:08.520Z</time>
      </trkpt>
      <trkpt lat="45.74176" lon="4.89371">
        <ele>245.599218</ele>
        <time>2021-04-24T09:54:10.495Z</time>
      </trkpt>
      <trkpt lat="45.74187" lon="4.89382">
        <ele>245.386996</ele>
        <time>2021-04-24T09:54:12.499Z</time>
      </trkpt>
      <trkpt lat="45.74198" lon="4.89391">
        <ele>245.173529</ele>
        <time>2021-04-24T09:54:14.501Z</time>
      </trkpt>
      <trkpt lat="45.74208" lon="4.89399">
        <ele>244.987535</ele>
        <time>2021-04-24T09:54:16.522Z</time>
      </trkpt>
      <trkpt lat="45.74221" lon="4.89406">
        <ele>244.766728</ele>
        <time>2021-04-24T09:54:18.501Z</time>
      </trkpt>
      <trkpt lat="45.74236" lon="4.89413">
        <ele>244.511352</ele>
        <time>2021-04-24T09:54:20.499Z</time>
      </trkpt>
      <trkpt lat="45.74244" lon="4.89416">
        <ele>244.364973</ele>
        <time>2021-04-24T09:54:21.506Z</time>
      </trkpt>
      <trkpt lat="45.74256" lon="4.89425">
        <ele>244.15206</ele>
        <time>2021-04-24T09:54:23.534Z</time>
      </trkpt>
      <trkpt lat="45.7427" lon="4.89433">
        <ele>244.03126</ele>
        <time>2021-04-24T09:54:25.503Z</time>
      </trkpt>
      <trkpt lat="45.74288" lon="4.8944">
        <ele>244.253442</ele>
        <time>2021-04-24T09:54:27.503Z</time>
      </trkpt>
      <trkpt lat="45.74301" lon="4.89449">
        <ele>244.432195</ele>
        <time>2021-04-24T09:54:29.519Z</time>
      </trkpt>
      <trkpt lat="45.74315" lon="4.89458">
        <ele>244.629809</ele>
        <time>2021-04-24T09:54:31.500Z</time>
      </trkpt>
      <trkpt lat="45.7433" lon="4.89468">
        <ele>244.827756</ele>
        <time>2021-04-24T09:54:33.515Z</time>
      </trkpt>
      <trkpt lat="45.74343" lon="4.89479">
        <ele>245.02285</ele>
        <time>2021-04-24T09:54:35.533Z</time>
      </trkpt>
      <trkpt lat="45.74358" lon="4.89491">
        <ele>245.228457</ele>
        <time>2021-04-24T09:54:37.501Z</time>
      </trkpt>
      <trkpt lat="45.74372" lon="4.89501">
        <ele>245.419918</ele>
        <time>2021-04-24T09:54:39.499Z</time>
      </trkpt>
      <trkpt lat="45.74386" lon="4.89509">
        <ele>245.609358</ele>
        <time>2021-04-24T09:54:41.512Z</time>
      </trkpt>
      <trkpt lat="45.744" lon="4.89517">
        <ele>245.80185</ele>
        <time>2021-04-24T09:54:43.503Z</time>
      </trkpt>
      <trkpt lat="45.74415" lon="4.89526">
        <ele>245.993526</ele>
        <time>2021-04-24T09:54:45.505Z</time>
      </trkpt>
      <trkpt lat="45.7443" lon="4.89534">
        <ele>246.193234</ele>
        <time>2021-04-24T09:54:47.508Z</time>
      </trkpt>
      <trkpt lat="45.74445" lon="4.89543">
        <ele>246.178551</ele>
        <time>2021-04-24T09:54:49.517Z</time>
      </trkpt>
      <trkpt lat="45.74458" lon="4.8955">
        <ele>246.161264</ele>
        <time>2021-04-24T09:54:51.500Z</time>
      </trkpt>
      <trkpt lat="45.74471" lon="4.89556">
        <ele>246.144328</ele>
        <time>2021-04-24T09:54:53.499Z</time>
      </trkpt>
      <trkpt lat="45.74485" lon="4.89562">
        <ele>246.125662</ele>
        <time>2021-04-24T09:54:55.489Z</time>
      </trkpt>
      <trkpt lat="45.74499" lon="4.89567">
        <ele>246.107389</ele>
        <time>2021-04-24T09:54:57.490Z</time>
      </trkpt>
      <trkpt lat="45.74512" lon="4.89577">
        <ele>246.088613</ele>
        <time>2021-04-24T09:54:59.510Z</time>
      </trkpt>
      <trkpt lat="45.74527" lon="4.89585">
        <ele>246.069136</ele>
        <time>2021-04-24T09:55:01.524Z</time>
      </trkpt>
      <trkpt lat="45.74541" lon="4.89592">
        <ele>246.05066</ele>
        <time>2021-04-24T09:55:03.500Z</time>
      </trkpt>
      <trkpt lat="45.74555" lon="4.89601">
        <ele>246.031362</ele>
        <time>2021-04-24T09:55:05.504Z</time>
      </trkpt>
      <trkpt lat="45.74563" lon="4.89607">
        <ele>246.019914</ele>
        <time>2021-04-24T09:55:06.516Z</time>
      </trkpt>
      <trkpt lat="45.74578" lon="4.89614">
        <ele>245.999934</ele>
        <time>2021-04-24T09:55:08.526Z</time>
      </trkpt>
      <trkpt lat="45.74592" lon="4.89621">
        <ele>245.981604</ele>
        <time>2021-04-24T09:55:10.496Z</time>
      </trkpt>
      <trkpt lat="45.74605" lon="4.89625">
        <ele>246.013826</ele>
        <time>2021-04-24T09:55:12.496Z</time>
      </trkpt>
      <trkpt lat="45.74617" lon="4.89632">
        <ele>246.099042</ele>
        <time>2021-04-24T09:55:14.513Z</time>
      </trkpt>
      <trkpt lat="45.74628" lon="4.89639">
        <ele>246.180961</ele>
        <time>2021-04-24T09:55:16.499Z</time>
      </trkpt>
      <trkpt lat="45.7464" lon="4.89643">
        <ele>246.260603</ele>
        <time>2021-04-24T09:55:18.508Z</time>
      </trkpt>
      <trkpt lat="45.74652" lon="4.89647">
        <ele>246.341026</ele>
        <time>2021-04-24T09:55:20.542Z</time>
      </trkpt>
      <trkpt lat="45.74663" lon="4.89654">
        <ele>246.41618</ele>
        <time>2021-04-24T09:55:22.499Z</time>
      </trkpt>
      <trkpt lat="45.74676" lon="4.89662">
        <ele>246.511291</ele>
        <time>2021-04-24T09:55:24.503Z</time>
      </trkpt>
      <trkpt lat="45.74689" lon="4.89669">
        <ele>246.60071</ele>
        <time>2021-04-24T09:55:26.518Z</time>
      </trkpt>
      <trkpt lat="45.74701" lon="4.89675">
        <ele>246.682224</ele>
        <time>2021-04-24T09:55:28.496Z</time>
      </trkpt>
      <trkpt lat="45.74712" lon="4.89679">
        <ele>246.759098</ele>
        <time>2021-04-24T09:55:30.497Z</time>
      </trkpt>
      <trkpt lat="45.74724" lon="4.89682">
        <ele>246.838069</ele>
        <time>2021-04-24T09:55:32.493Z</time>
      </trkpt>
      <trkpt lat="45.74735" lon="4.89681">
        <ele>246.911974</ele>
        <time>2021-04-24T09:55:34.497Z</time>
      </trkpt>
      <trkpt lat="45.74747" lon="4.89683">
        <ele>246.990292</ele>
        <time>2021-04-24T09:55:36.493Z</time>
      </trkpt>
      <trkpt lat="45.74759" lon="4.89684">
        <ele>247.065411</ele>
        <time>2021-04-24T09:55:38.519Z</time>
      </trkpt>
      <trkpt lat="45.74772" lon="4.89689">
        <ele>247.147987</ele>
        <time>2021-04-24T09:55:41.508Z</time>
      </trkpt>
      <trkpt lat="45.74782" lon="4.8969">
        <ele>247.161776</ele>
        <time>2021-04-24T09:55:43.520Z</time>
      </trkpt>
      <trkpt lat="45.74792" lon="4.89691">
        <ele>247.176984</ele>
        <time>2021-04-24T09:55:45.520Z</time>
      </trkpt>
      <trkpt lat="45.74803" lon="4.89693">
        <ele>247.192851</ele>
        <time>2021-04-24T09:55:47.498Z</time>
      </trkpt>
      <trkpt lat="45.74815" lon="4.89694">
        <ele>247.209194</ele>
        <time>2021-04-24T09:55:49.507Z</time>
      </trkpt>
      <trkpt lat="45.74826" lon="4.89696">
        <ele>247.226186</ele>
        <time>2021-04-24T09:55:51.496Z</time>
      </trkpt>
      <trkpt lat="45.74838" lon="4.89697">
        <ele>247.243101</ele>
        <time>2021-04-24T09:55:53.516Z</time>
      </trkpt>
      <trkpt lat="45.74849" lon="4.89701">
        <ele>247.258322</ele>
        <time>2021-04-24T09:55:55.496Z</time>
      </trkpt>
      <trkpt lat="45.74863" lon="4.89702">
        <ele>247.278294</ele>
        <time>2021-04-24T09:55:57.497Z</time>
      </trkpt>
      <trkpt lat="45.74877" lon="4.89705">
        <ele>247.299088</ele>
        <time>2021-04-24T09:55:59.524Z</time>
      </trkpt>
      <trkpt lat="45.74892" lon="4.89712">
        <ele>247.321056</ele>
        <time>2021-04-24T09:56:01.500Z</time>
      </trkpt>
      <trkpt lat="45.74906" lon="4.89715">
        <ele>247.341993</ele>
        <time>2021-04-24T09:56:03.557Z</time>
      </trkpt>
      <trkpt lat="45.74921" lon="4.89715">
        <ele>247.363326</ele>
        <time>2021-04-24T09:56:05.505Z</time>
      </trkpt>
      <trkpt lat="45.74937" lon="4.89715">
        <ele>247.386804</ele>
        <time>2021-04-24T09:56:07.507Z</time>
      </trkpt>
      <trkpt lat="45.74951" lon="4.89715">
        <ele>247.278034</ele>
        <time>2021-04-24T09:56:09.520Z</time>
      </trkpt>
      <trkpt lat="45.7497" lon="4.89715">
        <ele>246.334809</ele>
        <time>2021-04-24T09:56:11.501Z</time>
      </trkpt>
      <trkpt lat="45.74986" lon="4.89716">
        <ele>245.541626</ele>
        <time>2021-04-24T09:56:13.511Z</time>
      </trkpt>
      <trkpt lat="45.74999" lon="4.8972">
        <ele>244.880187</ele>
        <time>2021-04-24T09:56:15.542Z</time>
      </trkpt>
      <trkpt lat="45.75016" lon="4.89722">
        <ele>244.023824</ele>
        <time>2021-04-24T09:56:17.500Z</time>
      </trkpt>
      <trkpt lat="45.75025" lon="4.89724">
        <ele>243.554034</ele>
        <time>2021-04-24T09:56:18.516Z</time>
      </trkpt>
      <trkpt lat="45.75034" lon="4.8973">
        <ele>243.093568</ele>
        <time>2021-04-24T09:56:19.498Z</time>
      </trkpt>
      <trkpt lat="45.75042" lon="4.89735">
        <ele>242.633102</ele>
        <time>2021-04-24T09:56:20.502Z</time>
      </trkpt>
      <trkpt lat="45.75058" lon="4.89741">
        <ele>241.790953</ele>
        <time>2021-04-24T09:56:22.489Z</time>
      </trkpt>
      <trkpt lat="45.75078" lon="4.89746">
        <ele>240.777938</ele>
        <time>2021-04-24T09:56:24.500Z</time>
      </trkpt>
      <trkpt lat="45.75088" lon="4.89748">
        <ele>240.28131</ele>
        <time>2021-04-24T09:56:25.497Z</time>
      </trkpt>
      <trkpt lat="45.75101" lon="4.8975">
        <ele>239.624968</ele>
        <time>2021-04-24T09:56:26.528Z</time>
      </trkpt>
      <trkpt lat="45.75113" lon="4.89752">
        <ele>239.035935</ele>
        <time>2021-04-24T09:56:27.505Z</time>
      </trkpt>
      <trkpt lat="45.75123" lon="4.89754">
        <ele>238.491453</ele>
        <time>2021-04-24T09:56:28.502Z</time>
      </trkpt>
      <trkpt lat="45.75133" lon="4.89757">
        <ele>238.006377</ele>
        <time>2021-04-24T09:56:29.487Z</time>
      </trkpt>
      <trkpt lat="45.75145" lon="4.89761">
        <ele>237.431238</ele>
        <time>2021-04-24T09:56:30.489Z</time>
      </trkpt>
      <trkpt lat="45.75154" lon="4.89765">
        <ele>237.011628</ele>
        <time>2021-04-24T09:56:31.504Z</time>
      </trkpt>
      <trkpt lat="45.75162" lon="4.89772">
        <ele>236.560788</ele>
        <time>2021-04-24T09:56:32.491Z</time>
      </trkpt>
      <trkpt lat="45.75171" lon="4.89776">
        <ele>236.118468</ele>
        <time>2021-04-24T09:56:33.491Z</time>
      </trkpt>
      <trkpt lat="45.7518" lon="4.89779">
        <ele>235.671931</ele>
        <time>2021-04-24T09:56:34.487Z</time>
      </trkpt>
      <trkpt lat="45.75189" lon="4.89784">
        <ele>235.230745</ele>
        <time>2021-04-24T09:56:37.245Z</time>
      </trkpt>
      <trkpt lat="45.7521" lon="4.89798">
        <ele>234.167694</ele>
        <time>2021-04-24T09:56:38.493Z</time>
      </trkpt>
      <trkpt lat="45.75219" lon="4.89801">
        <ele>233.72739</ele>
        <time>2021-04-24T09:56:39.487Z</time>
      </trkpt>
      <trkpt lat="45.75229" lon="4.89806">
        <ele>233.256525</ele>
        <time>2021-04-24T09:56:40.492Z</time>
      </trkpt>
      <trkpt lat="45.75238" lon="4.89811">
        <ele>232.76707</ele>
        <time>2021-04-24T09:56:42.508Z</time>
      </trkpt>
      <trkpt lat="45.75248" lon="4.89816">
        <ele>232.295061</ele>
        <time>2021-04-24T09:56:44.506Z</time>
      </trkpt>
      <trkpt lat="45.75257" lon="4.89819">
        <ele>231.868536</ele>
        <time>2021-04-24T09:56:46.502Z</time>
      </trkpt>
      <trkpt lat="45.75266" lon="4.89823">
        <ele>231.418676</ele>
        <time>2021-04-24T09:56:50.507Z</time>
      </trkpt>
      <trkpt lat="45.75283" lon="4.89832">
        <ele>230.594803</ele>
        <time>2021-04-24T09:57:27.516Z</time>
      </trkpt>
      <trkpt lat="45.75295" lon="4.8983">
        <ele>230.029032</ele>
        <time>2021-04-24T09:57:30.511Z</time>
      </trkpt>
      <trkpt lat="45.75299" lon="4.89815">
        <ele>230.086333</ele>
        <time>2021-04-24T09:57:32.503Z</time>
      </trkpt>
      <trkpt lat="45.75304" lon="4.89797">
        <ele>230.243839</ele>
        <time>2021-04-24T09:57:34.508Z</time>
      </trkpt>
      <trkpt lat="45.7531" lon="4.89779">
        <ele>230.397972</ele>
        <time>2021-04-24T09:57:36.519Z</time>
      </trkpt>
      <trkpt lat="45.75315" lon="4.89759">
        <ele>230.564662</ele>
        <time>2021-04-24T09:57:38.521Z</time>
      </trkpt>
      <trkpt lat="45.7532" lon="4.89738">
        <ele>230.744864</ele>
        <time>2021-04-24T09:57:40.513Z</time>
      </trkpt>
      <trkpt lat="45.75327" lon="4.89718">
        <ele>230.919894</ele>
        <time>2021-04-24T09:57:42.509Z</time>
      </trkpt>
      <trkpt lat="45.75332" lon="4.89697">
        <ele>231.102392</ele>
        <time>2021-04-24T09:57:44.511Z</time>
      </trkpt>
      <trkpt lat="45.75338" lon="4.89676">
        <ele>231.282934</ele>
        <time>2021-04-24T09:57:46.504Z</time>
      </trkpt>
      <trkpt lat="45.75343" lon="4.89657">
        <ele>231.446452</ele>
        <time>2021-04-24T09:57:48.493Z</time>
      </trkpt>
      <trkpt lat="45.75347" lon="4.89632">
        <ele>231.641684</ele>
        <time>2021-04-24T09:57:50.498Z</time>
      </trkpt>
      <trkpt lat="45.75354" lon="4.89621">
        <ele>231.764684</ele>
        <time>2021-04-24T09:57:51.504Z</time>
      </trkpt>
      <trkpt lat="45.7536" lon="4.89599">
        <ele>231.950656</ele>
        <time>2021-04-24T09:57:53.543Z</time>
      </trkpt>
      <trkpt lat="45.75363" lon="4.89576">
        <ele>232.078881</ele>
        <time>2021-04-24T09:57:55.506Z</time>
      </trkpt>
      <trkpt lat="45.75366" lon="4.8955">
        <ele>232.178014</ele>
        <time>2021-04-24T09:57:57.505Z</time>
      </trkpt>
      <trkpt lat="45.7537" lon="4.89529">
        <ele>232.261641</ele>
        <time>2021-04-24T09:57:59.524Z</time>
      </trkpt>
      <trkpt lat="45.75375" lon="4.89509">
        <ele>232.34398</ele>
        <time>2021-04-24T09:58:01.503Z</time>
      </trkpt>
      <trkpt lat="45.75379" lon="4.89486">
        <ele>232.434793</ele>
        <time>2021-04-24T09:58:03.510Z</time>
      </trkpt>
      <trkpt lat="45.75382" lon="4.89464">
        <ele>232.516951</ele>
        <time>2021-04-24T09:58:05.499Z</time>
      </trkpt>
      <trkpt lat="45.75385" lon="4.89451">
        <ele>232.57001</ele>
        <time>2021-04-24T09:58:06.494Z</time>
      </trkpt>
      <trkpt lat="45.75389" lon="4.89427">
        <ele>232.663603</ele>
        <time>2021-04-24T09:58:08.490Z</time>
      </trkpt>
      <trkpt lat="45.75394" lon="4.89405">
        <ele>232.751739</ele>
        <time>2021-04-24T09:58:10.518Z</time>
      </trkpt>
      <trkpt lat="45.75394" lon="4.89386">
        <ele>232.826422</ele>
        <time>2021-04-24T09:58:12.491Z</time>
      </trkpt>
      <trkpt lat="45.75398" lon="4.89364">
        <ele>232.912839</ele>
        <time>2021-04-24T09:58:14.485Z</time>
      </trkpt>
      <trkpt lat="45.75403" lon="4.89345">
        <ele>232.987283</ele>
        <time>2021-04-24T09:58:16.540Z</time>
      </trkpt>
      <trkpt lat="45.75407" lon="4.89326">
        <ele>233.048097</ele>
        <time>2021-04-24T09:58:18.489Z</time>
      </trkpt>
      <trkpt lat="45.75409" lon="4.89306">
        <ele>233.107296</ele>
        <time>2021-04-24T09:58:20.488Z</time>
      </trkpt>
      <trkpt lat="45.75413" lon="4.89286">
        <ele>233.165525</ele>
        <time>2021-04-24T09:58:22.496Z</time>
      </trkpt>
      <trkpt lat="45.75416" lon="4.89268">
        <ele>233.216818</ele>
        <time>2021-04-24T09:58:24.505Z</time>
      </trkpt>
      <trkpt lat="45.75418" lon="4.89254">
        <ele>233.258506</ele>
        <time>2021-04-24T09:58:27.549Z</time>
      </trkpt>
      <trkpt lat="45.75421" lon="4.89239">
        <ele>233.302353</ele>
        <time>2021-04-24T09:58:30.499Z</time>
      </trkpt>
      <trkpt lat="45.7542" lon="4.89226">
        <ele>233.339182</ele>
        <time>2021-04-24T09:58:32.505Z</time>
      </trkpt>
      <trkpt lat="45.75419" lon="4.89212">
        <ele>233.379739</ele>
        <time>2021-04-24T09:58:34.519Z</time>
      </trkpt>
      <trkpt lat="45.7542" lon="4.89196">
        <ele>233.422474</ele>
        <time>2021-04-24T09:58:36.498Z</time>
      </trkpt>
      <trkpt lat="45.75422" lon="4.89177">
        <ele>233.477932</ele>
        <time>2021-04-24T09:58:38.500Z</time>
      </trkpt>
      <trkpt lat="45.75424" lon="4.89156">
        <ele>233.53736</ele>
        <time>2021-04-24T09:58:40.513Z</time>
      </trkpt>
      <trkpt lat="45.75423" lon="4.89136">
        <ele>233.59498</ele>
        <time>2021-04-24T09:58:42.511Z</time>
      </trkpt>
      <trkpt lat="45.75425" lon="4.89114">
        <ele>233.656084</ele>
        <time>2021-04-24T09:58:44.503Z</time>
      </trkpt>
      <trkpt lat="45.75424" lon="4.89095">
        <ele>233.711293</ele>
        <time>2021-04-24T09:58:46.500Z</time>
      </trkpt>
      <trkpt lat="45.75425" lon="4.89073">
        <ele>233.732469</ele>
        <time>2021-04-24T09:58:48.503Z</time>
      </trkpt>
      <trkpt lat="45.75425" lon="4.8905">
        <ele>233.732469</ele>
        <time>2021-04-24T09:58:50.498Z</time>
      </trkpt>
      <trkpt lat="45.75427" lon="4.89028">
        <ele>233.732469</ele>
        <time>2021-04-24T09:58:52.493Z</time>
      </trkpt>
      <trkpt lat="45.75426" lon="4.89006">
        <ele>233.732469</ele>
        <time>2021-04-24T09:58:54.500Z</time>
      </trkpt>
      <trkpt lat="45.75428" lon="4.88985">
        <ele>233.732469</ele>
        <time>2021-04-24T09:58:56.494Z</time>
      </trkpt>
      <trkpt lat="45.75431" lon="4.88963">
        <ele>233.732469</ele>
        <time>2021-04-24T09:58:58.507Z</time>
      </trkpt>
      <trkpt lat="45.75429" lon="4.88944">
        <ele>233.732469</ele>
        <time>2021-04-24T09:59:00.496Z</time>
      </trkpt>
      <trkpt lat="45.75429" lon="4.88931">
        <ele>233.732469</ele>
        <time>2021-04-24T09:59:02.499Z</time>
      </trkpt>
      <trkpt lat="45.75438" lon="4.88922">
        <ele>233.732469</ele>
        <time>2021-04-24T09:59:05.524Z</time>
      </trkpt>
      <trkpt lat="45.75448" lon="4.88921">
        <ele>233.732469</ele>
        <time>2021-04-24T09:59:07.513Z</time>
      </trkpt>
      <trkpt lat="45.75457" lon="4.88923">
        <ele>233.732469</ele>
        <time>2021-04-24T09:59:09.504Z</time>
      </trkpt>
      <trkpt lat="45.75468" lon="4.88922">
        <ele>233.732469</ele>
        <time>2021-04-24T09:59:11.503Z</time>
      </trkpt>
      <trkpt lat="45.75478" lon="4.8892">
        <ele>233.732469</ele>
        <time>2021-04-24T09:59:13.495Z</time>
      </trkpt>
      <trkpt lat="45.75487" lon="4.88926">
        <ele>233.732469</ele>
        <time>2021-04-24T09:59:15.503Z</time>
      </trkpt>
      <trkpt lat="45.75495" lon="4.88933">
        <ele>233.732469</ele>
        <time>2021-04-24T09:59:17.513Z</time>
      </trkpt>
      <trkpt lat="45.75498" lon="4.88952">
        <ele>233.732469</ele>
        <time>2021-04-24T09:59:20.506Z</time>
      </trkpt>
      <trkpt lat="45.75497" lon="4.88966">
        <ele>233.732469</ele>
        <time>2021-04-24T09:59:23.499Z</time>
      </trkpt>
      <trkpt lat="45.75496" lon="4.88979">
        <ele>233.732469</ele>
        <time>2021-04-24T09:59:27.494Z</time>
      </trkpt>
      <trkpt lat="45.75482" lon="4.88979">
        <ele>233.732469</ele>
        <time>2021-04-24T10:03:02.383Z</time>
      </trkpt>
    </trkseg>
  </trk>
</gpx>